<?xml version="1.0" encoding="UTF-8" standalone="no" ?>
<gpx xmlns="http://www.topografix.com/GPX/1/1" xmlns:xsi="http://www.w3.org/2001/XMLSchema-instance" xsi:schemaLocation="http://www.topografix.com/GPX/1/1 http://www.topografix.com/GPX/1/1/gpx.xsd" version="1.1" creator="VisuGPX - https://www.visugpx.com">
  <metadata>
    <name>Trail : Montaud</name>
    <desc><![CDATA[Autour de Montaud, direction la Dent de Moirans]]></desc>
  </metadata>
  <trk>
    <name><![CDATA[2012-11-04-01]]></name>
    <trkseg>
      <trkpt lat="45.26465" lon="5.56588">
        <ele>694</ele>
        <time>2012-11-04T09:23:31Z</time>
      </trkpt>
      <trkpt lat="45.26465" lon="5.56588">
        <ele>693</ele>
        <time>2012-11-04T09:23:32Z</time>
      </trkpt>
      <trkpt lat="45.26465" lon="5.56588">
        <ele>693</ele>
        <time>2012-11-04T09:23:33Z</time>
      </trkpt>
      <trkpt lat="45.26465" lon="5.56588">
        <ele>693</ele>
        <time>2012-11-04T09:23:34Z</time>
      </trkpt>
      <trkpt lat="45.26465" lon="5.56588">
        <ele>692</ele>
        <time>2012-11-04T09:23:35Z</time>
      </trkpt>
      <trkpt lat="45.26465" lon="5.56588">
        <ele>692</ele>
        <time>2012-11-04T09:23:36Z</time>
      </trkpt>
      <trkpt lat="45.26465" lon="5.56588">
        <ele>692</ele>
        <time>2012-11-04T09:23:37Z</time>
      </trkpt>
      <trkpt lat="45.26465" lon="5.56588">
        <ele>692</ele>
        <time>2012-11-04T09:23:38Z</time>
      </trkpt>
      <trkpt lat="45.26465" lon="5.56588">
        <ele>692</ele>
        <time>2012-11-04T09:23:39Z</time>
      </trkpt>
      <trkpt lat="45.26465" lon="5.56588">
        <ele>692</ele>
        <time>2012-11-04T09:23:40Z</time>
      </trkpt>
      <trkpt lat="45.26465" lon="5.56588">
        <ele>692</ele>
        <time>2012-11-04T09:23:41Z</time>
      </trkpt>
      <trkpt lat="45.26465" lon="5.56588">
        <ele>692</ele>
        <time>2012-11-04T09:23:42Z</time>
      </trkpt>
      <trkpt lat="45.26465" lon="5.56588">
        <ele>693</ele>
        <time>2012-11-04T09:23:43Z</time>
      </trkpt>
      <trkpt lat="45.26465" lon="5.56588">
        <ele>693</ele>
        <time>2012-11-04T09:23:44Z</time>
      </trkpt>
      <trkpt lat="45.26465" lon="5.56588">
        <ele>693</ele>
        <time>2012-11-04T09:23:45Z</time>
      </trkpt>
      <trkpt lat="45.26465" lon="5.56588">
        <ele>693</ele>
        <time>2012-11-04T09:23:46Z</time>
      </trkpt>
      <trkpt lat="45.26465" lon="5.56588">
        <ele>693</ele>
        <time>2012-11-04T09:23:47Z</time>
      </trkpt>
      <trkpt lat="45.26465" lon="5.56588">
        <ele>693</ele>
        <time>2012-11-04T09:23:48Z</time>
      </trkpt>
      <trkpt lat="45.26465" lon="5.5659">
        <ele>693</ele>
        <time>2012-11-04T09:23:49Z</time>
      </trkpt>
      <trkpt lat="45.26464" lon="5.56589">
        <ele>691</ele>
        <time>2012-11-04T09:23:50Z</time>
      </trkpt>
      <trkpt lat="45.26462" lon="5.56591">
        <ele>691</ele>
        <time>2012-11-04T09:23:51Z</time>
      </trkpt>
      <trkpt lat="45.26462" lon="5.56593">
        <ele>691</ele>
        <time>2012-11-04T09:23:52Z</time>
      </trkpt>
      <trkpt lat="45.26462" lon="5.56593">
        <ele>691</ele>
        <time>2012-11-04T09:23:53Z</time>
      </trkpt>
      <trkpt lat="45.26462" lon="5.56593">
        <ele>691</ele>
        <time>2012-11-04T09:23:54Z</time>
      </trkpt>
      <trkpt lat="45.26461" lon="5.56593">
        <ele>691</ele>
        <time>2012-11-04T09:23:55Z</time>
      </trkpt>
      <trkpt lat="45.26461" lon="5.56593">
        <ele>691</ele>
        <time>2012-11-04T09:23:56Z</time>
      </trkpt>
      <trkpt lat="45.26461" lon="5.56593">
        <ele>690</ele>
        <time>2012-11-04T09:23:57Z</time>
      </trkpt>
      <trkpt lat="45.26461" lon="5.56593">
        <ele>690</ele>
        <time>2012-11-04T09:23:58Z</time>
      </trkpt>
      <trkpt lat="45.26461" lon="5.56593">
        <ele>689</ele>
        <time>2012-11-04T09:23:59Z</time>
      </trkpt>
      <trkpt lat="45.26461" lon="5.56593">
        <ele>690</ele>
        <time>2012-11-04T09:24:00Z</time>
      </trkpt>
      <trkpt lat="45.26461" lon="5.56593">
        <ele>690</ele>
        <time>2012-11-04T09:24:01Z</time>
      </trkpt>
      <trkpt lat="45.26461" lon="5.56593">
        <ele>690</ele>
        <time>2012-11-04T09:24:02Z</time>
      </trkpt>
      <trkpt lat="45.26457" lon="5.56598">
        <ele>691</ele>
        <time>2012-11-04T09:24:03Z</time>
      </trkpt>
      <trkpt lat="45.26457" lon="5.56601">
        <ele>692</ele>
        <time>2012-11-04T09:24:04Z</time>
      </trkpt>
      <trkpt lat="45.26456" lon="5.56604">
        <ele>692</ele>
        <time>2012-11-04T09:24:05Z</time>
      </trkpt>
      <trkpt lat="45.26456" lon="5.56607">
        <ele>693</ele>
        <time>2012-11-04T09:24:06Z</time>
      </trkpt>
      <trkpt lat="45.26456" lon="5.5661">
        <ele>692</ele>
        <time>2012-11-04T09:24:07Z</time>
      </trkpt>
      <trkpt lat="45.26456" lon="5.56614">
        <ele>692</ele>
        <time>2012-11-04T09:24:08Z</time>
      </trkpt>
      <trkpt lat="45.26457" lon="5.56616">
        <ele>691</ele>
        <time>2012-11-04T09:24:09Z</time>
      </trkpt>
      <trkpt lat="45.26458" lon="5.56619">
        <ele>691</ele>
        <time>2012-11-04T09:24:10Z</time>
      </trkpt>
      <trkpt lat="45.26459" lon="5.5662">
        <ele>691</ele>
        <time>2012-11-04T09:24:11Z</time>
      </trkpt>
      <trkpt lat="45.2646" lon="5.56623">
        <ele>690</ele>
        <time>2012-11-04T09:24:12Z</time>
      </trkpt>
      <trkpt lat="45.26461" lon="5.56627">
        <ele>689</ele>
        <time>2012-11-04T09:24:13Z</time>
      </trkpt>
      <trkpt lat="45.26461" lon="5.5663">
        <ele>689</ele>
        <time>2012-11-04T09:24:14Z</time>
      </trkpt>
      <trkpt lat="45.26461" lon="5.56633">
        <ele>690</ele>
        <time>2012-11-04T09:24:15Z</time>
      </trkpt>
      <trkpt lat="45.26462" lon="5.56636">
        <ele>687</ele>
        <time>2012-11-04T09:24:16Z</time>
      </trkpt>
      <trkpt lat="45.26463" lon="5.56638">
        <ele>687</ele>
        <time>2012-11-04T09:24:17Z</time>
      </trkpt>
      <trkpt lat="45.26466" lon="5.56641">
        <ele>687</ele>
        <time>2012-11-04T09:24:18Z</time>
      </trkpt>
      <trkpt lat="45.26469" lon="5.56646">
        <ele>687</ele>
        <time>2012-11-04T09:24:19Z</time>
      </trkpt>
      <trkpt lat="45.26471" lon="5.56649">
        <ele>687</ele>
        <time>2012-11-04T09:24:20Z</time>
      </trkpt>
      <trkpt lat="45.26475" lon="5.56653">
        <ele>689</ele>
        <time>2012-11-04T09:24:21Z</time>
      </trkpt>
      <trkpt lat="45.26477" lon="5.56657">
        <ele>689</ele>
        <time>2012-11-04T09:24:22Z</time>
      </trkpt>
      <trkpt lat="45.26479" lon="5.5666">
        <ele>690</ele>
        <time>2012-11-04T09:24:23Z</time>
      </trkpt>
      <trkpt lat="45.26481" lon="5.56664">
        <ele>691</ele>
        <time>2012-11-04T09:24:24Z</time>
      </trkpt>
      <trkpt lat="45.26483" lon="5.56668">
        <ele>691</ele>
        <time>2012-11-04T09:24:25Z</time>
      </trkpt>
      <trkpt lat="45.26485" lon="5.56672">
        <ele>692</ele>
        <time>2012-11-04T09:24:26Z</time>
      </trkpt>
      <trkpt lat="45.26486" lon="5.56676">
        <ele>692</ele>
        <time>2012-11-04T09:24:27Z</time>
      </trkpt>
      <trkpt lat="45.26487" lon="5.56681">
        <ele>693</ele>
        <time>2012-11-04T09:24:28Z</time>
      </trkpt>
      <trkpt lat="45.26484" lon="5.56699">
        <ele>690</ele>
        <time>2012-11-04T09:24:29Z</time>
      </trkpt>
      <trkpt lat="45.26484" lon="5.56705">
        <ele>688</ele>
        <time>2012-11-04T09:24:30Z</time>
      </trkpt>
      <trkpt lat="45.26482" lon="5.56711">
        <ele>687</ele>
        <time>2012-11-04T09:24:31Z</time>
      </trkpt>
      <trkpt lat="45.26481" lon="5.56715">
        <ele>687</ele>
        <time>2012-11-04T09:24:32Z</time>
      </trkpt>
      <trkpt lat="45.2648" lon="5.56717">
        <ele>687</ele>
        <time>2012-11-04T09:24:33Z</time>
      </trkpt>
      <trkpt lat="45.26479" lon="5.56721">
        <ele>687</ele>
        <time>2012-11-04T09:24:34Z</time>
      </trkpt>
      <trkpt lat="45.26477" lon="5.56724">
        <ele>687</ele>
        <time>2012-11-04T09:24:35Z</time>
      </trkpt>
      <trkpt lat="45.26476" lon="5.56727">
        <ele>686</ele>
        <time>2012-11-04T09:24:36Z</time>
      </trkpt>
      <trkpt lat="45.26475" lon="5.56732">
        <ele>686</ele>
        <time>2012-11-04T09:24:37Z</time>
      </trkpt>
      <trkpt lat="45.26473" lon="5.56737">
        <ele>686</ele>
        <time>2012-11-04T09:24:38Z</time>
      </trkpt>
      <trkpt lat="45.26472" lon="5.56737">
        <ele>686</ele>
        <time>2012-11-04T09:24:39Z</time>
      </trkpt>
      <trkpt lat="45.26471" lon="5.5674">
        <ele>685</ele>
        <time>2012-11-04T09:24:40Z</time>
      </trkpt>
      <trkpt lat="45.26469" lon="5.56742">
        <ele>685</ele>
        <time>2012-11-04T09:24:41Z</time>
      </trkpt>
      <trkpt lat="45.26468" lon="5.56744">
        <ele>685</ele>
        <time>2012-11-04T09:24:42Z</time>
      </trkpt>
      <trkpt lat="45.26467" lon="5.56747">
        <ele>685</ele>
        <time>2012-11-04T09:24:43Z</time>
      </trkpt>
      <trkpt lat="45.26467" lon="5.56749">
        <ele>685</ele>
        <time>2012-11-04T09:24:44Z</time>
      </trkpt>
      <trkpt lat="45.26466" lon="5.56751">
        <ele>685</ele>
        <time>2012-11-04T09:24:45Z</time>
      </trkpt>
      <trkpt lat="45.26466" lon="5.56753">
        <ele>686</ele>
        <time>2012-11-04T09:24:46Z</time>
      </trkpt>
      <trkpt lat="45.26464" lon="5.56755">
        <ele>685</ele>
        <time>2012-11-04T09:24:47Z</time>
      </trkpt>
      <trkpt lat="45.26462" lon="5.56757">
        <ele>685</ele>
        <time>2012-11-04T09:24:48Z</time>
      </trkpt>
      <trkpt lat="45.2646" lon="5.56759">
        <ele>686</ele>
        <time>2012-11-04T09:24:49Z</time>
      </trkpt>
      <trkpt lat="45.26458" lon="5.56761">
        <ele>687</ele>
        <time>2012-11-04T09:24:50Z</time>
      </trkpt>
      <trkpt lat="45.26455" lon="5.56764">
        <ele>687</ele>
        <time>2012-11-04T09:24:51Z</time>
      </trkpt>
      <trkpt lat="45.26453" lon="5.56767">
        <ele>687</ele>
        <time>2012-11-04T09:24:52Z</time>
      </trkpt>
      <trkpt lat="45.26452" lon="5.5677">
        <ele>688</ele>
        <time>2012-11-04T09:24:53Z</time>
      </trkpt>
      <trkpt lat="45.26451" lon="5.56772">
        <ele>689</ele>
        <time>2012-11-04T09:24:54Z</time>
      </trkpt>
      <trkpt lat="45.2645" lon="5.56775">
        <ele>688</ele>
        <time>2012-11-04T09:24:55Z</time>
      </trkpt>
      <trkpt lat="45.26449" lon="5.56778">
        <ele>688</ele>
        <time>2012-11-04T09:24:56Z</time>
      </trkpt>
      <trkpt lat="45.26449" lon="5.5678">
        <ele>688</ele>
        <time>2012-11-04T09:24:57Z</time>
      </trkpt>
      <trkpt lat="45.26449" lon="5.56782">
        <ele>688</ele>
        <time>2012-11-04T09:24:58Z</time>
      </trkpt>
      <trkpt lat="45.2645" lon="5.56783">
        <ele>689</ele>
        <time>2012-11-04T09:24:59Z</time>
      </trkpt>
      <trkpt lat="45.2645" lon="5.56783">
        <ele>689</ele>
        <time>2012-11-04T09:25:00Z</time>
      </trkpt>
      <trkpt lat="45.26449" lon="5.56784">
        <ele>689</ele>
        <time>2012-11-04T09:25:01Z</time>
      </trkpt>
      <trkpt lat="45.26448" lon="5.56784">
        <ele>689</ele>
        <time>2012-11-04T09:25:02Z</time>
      </trkpt>
      <trkpt lat="45.26446" lon="5.56785">
        <ele>690</ele>
        <time>2012-11-04T09:25:03Z</time>
      </trkpt>
      <trkpt lat="45.26445" lon="5.56786">
        <ele>690</ele>
        <time>2012-11-04T09:25:04Z</time>
      </trkpt>
      <trkpt lat="45.26444" lon="5.56787">
        <ele>691</ele>
        <time>2012-11-04T09:25:05Z</time>
      </trkpt>
      <trkpt lat="45.26443" lon="5.56789">
        <ele>691</ele>
        <time>2012-11-04T09:25:06Z</time>
      </trkpt>
      <trkpt lat="45.26442" lon="5.56791">
        <ele>691</ele>
        <time>2012-11-04T09:25:07Z</time>
      </trkpt>
      <trkpt lat="45.26441" lon="5.56793">
        <ele>693</ele>
        <time>2012-11-04T09:25:08Z</time>
      </trkpt>
      <trkpt lat="45.2644" lon="5.56794">
        <ele>694</ele>
        <time>2012-11-04T09:25:09Z</time>
      </trkpt>
      <trkpt lat="45.26438" lon="5.56795">
        <ele>694</ele>
        <time>2012-11-04T09:25:10Z</time>
      </trkpt>
      <trkpt lat="45.26437" lon="5.56797">
        <ele>694</ele>
        <time>2012-11-04T09:25:11Z</time>
      </trkpt>
      <trkpt lat="45.26435" lon="5.56799">
        <ele>694</ele>
        <time>2012-11-04T09:25:12Z</time>
      </trkpt>
      <trkpt lat="45.26433" lon="5.56801">
        <ele>694</ele>
        <time>2012-11-04T09:25:13Z</time>
      </trkpt>
      <trkpt lat="45.26431" lon="5.56802">
        <ele>694</ele>
        <time>2012-11-04T09:25:14Z</time>
      </trkpt>
      <trkpt lat="45.26429" lon="5.56804">
        <ele>695</ele>
        <time>2012-11-04T09:25:15Z</time>
      </trkpt>
      <trkpt lat="45.26428" lon="5.56805">
        <ele>694</ele>
        <time>2012-11-04T09:25:16Z</time>
      </trkpt>
      <trkpt lat="45.26426" lon="5.56807">
        <ele>695</ele>
        <time>2012-11-04T09:25:17Z</time>
      </trkpt>
      <trkpt lat="45.26425" lon="5.56808">
        <ele>695</ele>
        <time>2012-11-04T09:25:18Z</time>
      </trkpt>
      <trkpt lat="45.26424" lon="5.5681">
        <ele>696</ele>
        <time>2012-11-04T09:25:19Z</time>
      </trkpt>
      <trkpt lat="45.26422" lon="5.56811">
        <ele>696</ele>
        <time>2012-11-04T09:25:20Z</time>
      </trkpt>
      <trkpt lat="45.26421" lon="5.56813">
        <ele>696</ele>
        <time>2012-11-04T09:25:21Z</time>
      </trkpt>
      <trkpt lat="45.26419" lon="5.56815">
        <ele>696</ele>
        <time>2012-11-04T09:25:22Z</time>
      </trkpt>
      <trkpt lat="45.26417" lon="5.56817">
        <ele>696</ele>
        <time>2012-11-04T09:25:23Z</time>
      </trkpt>
      <trkpt lat="45.26415" lon="5.56819">
        <ele>696</ele>
        <time>2012-11-04T09:25:24Z</time>
      </trkpt>
      <trkpt lat="45.26412" lon="5.56822">
        <ele>696</ele>
        <time>2012-11-04T09:25:25Z</time>
      </trkpt>
      <trkpt lat="45.26409" lon="5.56824">
        <ele>696</ele>
        <time>2012-11-04T09:25:26Z</time>
      </trkpt>
      <trkpt lat="45.26406" lon="5.56827">
        <ele>696</ele>
        <time>2012-11-04T09:25:27Z</time>
      </trkpt>
      <trkpt lat="45.26403" lon="5.56831">
        <ele>695</ele>
        <time>2012-11-04T09:25:28Z</time>
      </trkpt>
      <trkpt lat="45.264" lon="5.56834">
        <ele>695</ele>
        <time>2012-11-04T09:25:29Z</time>
      </trkpt>
      <trkpt lat="45.26398" lon="5.56838">
        <ele>695</ele>
        <time>2012-11-04T09:25:30Z</time>
      </trkpt>
      <trkpt lat="45.26396" lon="5.56842">
        <ele>696</ele>
        <time>2012-11-04T09:25:31Z</time>
      </trkpt>
      <trkpt lat="45.26395" lon="5.56846">
        <ele>697</ele>
        <time>2012-11-04T09:25:32Z</time>
      </trkpt>
      <trkpt lat="45.26393" lon="5.5685">
        <ele>696</ele>
        <time>2012-11-04T09:25:33Z</time>
      </trkpt>
      <trkpt lat="45.26392" lon="5.56853">
        <ele>697</ele>
        <time>2012-11-04T09:25:34Z</time>
      </trkpt>
      <trkpt lat="45.2639" lon="5.56857">
        <ele>697</ele>
        <time>2012-11-04T09:25:35Z</time>
      </trkpt>
      <trkpt lat="45.26389" lon="5.56861">
        <ele>697</ele>
        <time>2012-11-04T09:25:36Z</time>
      </trkpt>
      <trkpt lat="45.26388" lon="5.56864">
        <ele>697</ele>
        <time>2012-11-04T09:25:37Z</time>
      </trkpt>
      <trkpt lat="45.26386" lon="5.56867">
        <ele>697</ele>
        <time>2012-11-04T09:25:38Z</time>
      </trkpt>
      <trkpt lat="45.26385" lon="5.56871">
        <ele>698</ele>
        <time>2012-11-04T09:25:39Z</time>
      </trkpt>
      <trkpt lat="45.26384" lon="5.56874">
        <ele>698</ele>
        <time>2012-11-04T09:25:40Z</time>
      </trkpt>
      <trkpt lat="45.26383" lon="5.56877">
        <ele>698</ele>
        <time>2012-11-04T09:25:41Z</time>
      </trkpt>
      <trkpt lat="45.26383" lon="5.56879">
        <ele>698</ele>
        <time>2012-11-04T09:25:42Z</time>
      </trkpt>
      <trkpt lat="45.26382" lon="5.56882">
        <ele>698</ele>
        <time>2012-11-04T09:25:43Z</time>
      </trkpt>
      <trkpt lat="45.26382" lon="5.56884">
        <ele>699</ele>
        <time>2012-11-04T09:25:44Z</time>
      </trkpt>
      <trkpt lat="45.26381" lon="5.56886">
        <ele>699</ele>
        <time>2012-11-04T09:25:45Z</time>
      </trkpt>
      <trkpt lat="45.2638" lon="5.56888">
        <ele>698</ele>
        <time>2012-11-04T09:25:46Z</time>
      </trkpt>
      <trkpt lat="45.26378" lon="5.5689">
        <ele>698</ele>
        <time>2012-11-04T09:25:47Z</time>
      </trkpt>
      <trkpt lat="45.26377" lon="5.56893">
        <ele>696</ele>
        <time>2012-11-04T09:25:48Z</time>
      </trkpt>
      <trkpt lat="45.26375" lon="5.56895">
        <ele>695</ele>
        <time>2012-11-04T09:25:49Z</time>
      </trkpt>
      <trkpt lat="45.26374" lon="5.56897">
        <ele>693</ele>
        <time>2012-11-04T09:25:50Z</time>
      </trkpt>
      <trkpt lat="45.26373" lon="5.56899">
        <ele>692</ele>
        <time>2012-11-04T09:25:51Z</time>
      </trkpt>
      <trkpt lat="45.26371" lon="5.569">
        <ele>691</ele>
        <time>2012-11-04T09:25:52Z</time>
      </trkpt>
      <trkpt lat="45.26369" lon="5.56901">
        <ele>690</ele>
        <time>2012-11-04T09:25:53Z</time>
      </trkpt>
      <trkpt lat="45.26368" lon="5.56902">
        <ele>690</ele>
        <time>2012-11-04T09:25:54Z</time>
      </trkpt>
      <trkpt lat="45.26366" lon="5.56903">
        <ele>690</ele>
        <time>2012-11-04T09:25:55Z</time>
      </trkpt>
      <trkpt lat="45.26364" lon="5.56903">
        <ele>689</ele>
        <time>2012-11-04T09:25:56Z</time>
      </trkpt>
      <trkpt lat="45.26363" lon="5.56904">
        <ele>690</ele>
        <time>2012-11-04T09:25:57Z</time>
      </trkpt>
      <trkpt lat="45.26361" lon="5.56905">
        <ele>690</ele>
        <time>2012-11-04T09:25:58Z</time>
      </trkpt>
      <trkpt lat="45.26359" lon="5.56906">
        <ele>690</ele>
        <time>2012-11-04T09:25:59Z</time>
      </trkpt>
      <trkpt lat="45.26357" lon="5.56907">
        <ele>690</ele>
        <time>2012-11-04T09:26:00Z</time>
      </trkpt>
      <trkpt lat="45.26355" lon="5.56908">
        <ele>691</ele>
        <time>2012-11-04T09:26:01Z</time>
      </trkpt>
      <trkpt lat="45.26353" lon="5.56909">
        <ele>691</ele>
        <time>2012-11-04T09:26:02Z</time>
      </trkpt>
      <trkpt lat="45.26351" lon="5.5691">
        <ele>691</ele>
        <time>2012-11-04T09:26:03Z</time>
      </trkpt>
      <trkpt lat="45.26349" lon="5.56912">
        <ele>691</ele>
        <time>2012-11-04T09:26:04Z</time>
      </trkpt>
      <trkpt lat="45.26346" lon="5.56914">
        <ele>692</ele>
        <time>2012-11-04T09:26:05Z</time>
      </trkpt>
      <trkpt lat="45.26344" lon="5.56916">
        <ele>692</ele>
        <time>2012-11-04T09:26:06Z</time>
      </trkpt>
      <trkpt lat="45.26341" lon="5.56919">
        <ele>691</ele>
        <time>2012-11-04T09:26:07Z</time>
      </trkpt>
      <trkpt lat="45.26338" lon="5.56921">
        <ele>692</ele>
        <time>2012-11-04T09:26:08Z</time>
      </trkpt>
      <trkpt lat="45.26335" lon="5.56924">
        <ele>692</ele>
        <time>2012-11-04T09:26:09Z</time>
      </trkpt>
      <trkpt lat="45.26333" lon="5.56925">
        <ele>693</ele>
        <time>2012-11-04T09:26:10Z</time>
      </trkpt>
      <trkpt lat="45.2633" lon="5.56927">
        <ele>693</ele>
        <time>2012-11-04T09:26:11Z</time>
      </trkpt>
      <trkpt lat="45.26328" lon="5.56928">
        <ele>693</ele>
        <time>2012-11-04T09:26:12Z</time>
      </trkpt>
      <trkpt lat="45.26326" lon="5.5693">
        <ele>693</ele>
        <time>2012-11-04T09:26:13Z</time>
      </trkpt>
      <trkpt lat="45.26324" lon="5.56931">
        <ele>694</ele>
        <time>2012-11-04T09:26:14Z</time>
      </trkpt>
      <trkpt lat="45.26322" lon="5.56933">
        <ele>694</ele>
        <time>2012-11-04T09:26:15Z</time>
      </trkpt>
      <trkpt lat="45.2632" lon="5.56935">
        <ele>697</ele>
        <time>2012-11-04T09:26:16Z</time>
      </trkpt>
      <trkpt lat="45.26318" lon="5.56938">
        <ele>697</ele>
        <time>2012-11-04T09:26:17Z</time>
      </trkpt>
      <trkpt lat="45.26316" lon="5.5694">
        <ele>697</ele>
        <time>2012-11-04T09:26:18Z</time>
      </trkpt>
      <trkpt lat="45.26313" lon="5.56943">
        <ele>697</ele>
        <time>2012-11-04T09:26:19Z</time>
      </trkpt>
      <trkpt lat="45.26311" lon="5.56945">
        <ele>696</ele>
        <time>2012-11-04T09:26:20Z</time>
      </trkpt>
      <trkpt lat="45.26309" lon="5.56947">
        <ele>696</ele>
        <time>2012-11-04T09:26:21Z</time>
      </trkpt>
      <trkpt lat="45.26308" lon="5.56948">
        <ele>696</ele>
        <time>2012-11-04T09:26:22Z</time>
      </trkpt>
      <trkpt lat="45.26307" lon="5.56949">
        <ele>696</ele>
        <time>2012-11-04T09:26:23Z</time>
      </trkpt>
      <trkpt lat="45.26305" lon="5.5695">
        <ele>697</ele>
        <time>2012-11-04T09:26:24Z</time>
      </trkpt>
      <trkpt lat="45.26303" lon="5.56952">
        <ele>699</ele>
        <time>2012-11-04T09:26:25Z</time>
      </trkpt>
      <trkpt lat="45.26301" lon="5.56953">
        <ele>699</ele>
        <time>2012-11-04T09:26:26Z</time>
      </trkpt>
      <trkpt lat="45.26299" lon="5.56955">
        <ele>700</ele>
        <time>2012-11-04T09:26:27Z</time>
      </trkpt>
      <trkpt lat="45.26297" lon="5.56956">
        <ele>700</ele>
        <time>2012-11-04T09:26:28Z</time>
      </trkpt>
      <trkpt lat="45.26295" lon="5.56958">
        <ele>700</ele>
        <time>2012-11-04T09:26:29Z</time>
      </trkpt>
      <trkpt lat="45.26293" lon="5.56959">
        <ele>699</ele>
        <time>2012-11-04T09:26:30Z</time>
      </trkpt>
      <trkpt lat="45.2629" lon="5.5696">
        <ele>699</ele>
        <time>2012-11-04T09:26:31Z</time>
      </trkpt>
      <trkpt lat="45.26285" lon="5.56963">
        <ele>698</ele>
        <time>2012-11-04T09:26:32Z</time>
      </trkpt>
      <trkpt lat="45.26282" lon="5.56964">
        <ele>699</ele>
        <time>2012-11-04T09:26:33Z</time>
      </trkpt>
      <trkpt lat="45.26279" lon="5.56965">
        <ele>700</ele>
        <time>2012-11-04T09:26:34Z</time>
      </trkpt>
      <trkpt lat="45.26276" lon="5.56965">
        <ele>700</ele>
        <time>2012-11-04T09:26:35Z</time>
      </trkpt>
      <trkpt lat="45.26274" lon="5.56965">
        <ele>700</ele>
        <time>2012-11-04T09:26:36Z</time>
      </trkpt>
      <trkpt lat="45.26272" lon="5.56964">
        <ele>700</ele>
        <time>2012-11-04T09:26:37Z</time>
      </trkpt>
      <trkpt lat="45.2627" lon="5.56964">
        <ele>700</ele>
        <time>2012-11-04T09:26:38Z</time>
      </trkpt>
      <trkpt lat="45.26268" lon="5.56963">
        <ele>700</ele>
        <time>2012-11-04T09:26:39Z</time>
      </trkpt>
      <trkpt lat="45.26265" lon="5.56964">
        <ele>698</ele>
        <time>2012-11-04T09:26:40Z</time>
      </trkpt>
      <trkpt lat="45.26262" lon="5.56964">
        <ele>697</ele>
        <time>2012-11-04T09:26:41Z</time>
      </trkpt>
      <trkpt lat="45.2626" lon="5.56965">
        <ele>697</ele>
        <time>2012-11-04T09:26:42Z</time>
      </trkpt>
      <trkpt lat="45.26256" lon="5.56965">
        <ele>697</ele>
        <time>2012-11-04T09:26:43Z</time>
      </trkpt>
      <trkpt lat="45.26252" lon="5.56966">
        <ele>696</ele>
        <time>2012-11-04T09:26:44Z</time>
      </trkpt>
      <trkpt lat="45.26249" lon="5.56968">
        <ele>697</ele>
        <time>2012-11-04T09:26:45Z</time>
      </trkpt>
      <trkpt lat="45.26246" lon="5.56969">
        <ele>697</ele>
        <time>2012-11-04T09:26:46Z</time>
      </trkpt>
      <trkpt lat="45.26243" lon="5.56971">
        <ele>697</ele>
        <time>2012-11-04T09:26:47Z</time>
      </trkpt>
      <trkpt lat="45.26241" lon="5.56973">
        <ele>697</ele>
        <time>2012-11-04T09:26:48Z</time>
      </trkpt>
      <trkpt lat="45.26239" lon="5.56974">
        <ele>696</ele>
        <time>2012-11-04T09:26:49Z</time>
      </trkpt>
      <trkpt lat="45.26236" lon="5.56975">
        <ele>696</ele>
        <time>2012-11-04T09:26:50Z</time>
      </trkpt>
      <trkpt lat="45.26234" lon="5.56976">
        <ele>696</ele>
        <time>2012-11-04T09:26:51Z</time>
      </trkpt>
      <trkpt lat="45.26231" lon="5.56977">
        <ele>696</ele>
        <time>2012-11-04T09:26:52Z</time>
      </trkpt>
      <trkpt lat="45.26228" lon="5.56979">
        <ele>698</ele>
        <time>2012-11-04T09:26:53Z</time>
      </trkpt>
      <trkpt lat="45.26225" lon="5.56981">
        <ele>698</ele>
        <time>2012-11-04T09:26:54Z</time>
      </trkpt>
      <trkpt lat="45.26222" lon="5.56982">
        <ele>698</ele>
        <time>2012-11-04T09:26:55Z</time>
      </trkpt>
      <trkpt lat="45.2622" lon="5.56984">
        <ele>698</ele>
        <time>2012-11-04T09:26:56Z</time>
      </trkpt>
      <trkpt lat="45.26218" lon="5.56985">
        <ele>698</ele>
        <time>2012-11-04T09:26:57Z</time>
      </trkpt>
      <trkpt lat="45.26214" lon="5.56987">
        <ele>698</ele>
        <time>2012-11-04T09:26:58Z</time>
      </trkpt>
      <trkpt lat="45.26212" lon="5.56988">
        <ele>698</ele>
        <time>2012-11-04T09:26:59Z</time>
      </trkpt>
      <trkpt lat="45.26209" lon="5.56989">
        <ele>698</ele>
        <time>2012-11-04T09:27:00Z</time>
      </trkpt>
      <trkpt lat="45.26207" lon="5.56991">
        <ele>697</ele>
        <time>2012-11-04T09:27:01Z</time>
      </trkpt>
      <trkpt lat="45.26207" lon="5.56991">
        <ele>697</ele>
        <time>2012-11-04T09:27:02Z</time>
      </trkpt>
      <trkpt lat="45.26204" lon="5.56993">
        <ele>697</ele>
        <time>2012-11-04T09:27:03Z</time>
      </trkpt>
      <trkpt lat="45.26204" lon="5.56993">
        <ele>697</ele>
        <time>2012-11-04T09:27:04Z</time>
      </trkpt>
      <trkpt lat="45.26204" lon="5.56993">
        <ele>697</ele>
        <time>2012-11-04T09:27:05Z</time>
      </trkpt>
      <trkpt lat="45.26204" lon="5.56993">
        <ele>697</ele>
        <time>2012-11-04T09:27:06Z</time>
      </trkpt>
      <trkpt lat="45.26204" lon="5.56993">
        <ele>696</ele>
        <time>2012-11-04T09:27:07Z</time>
      </trkpt>
      <trkpt lat="45.26202" lon="5.56995">
        <ele>697</ele>
        <time>2012-11-04T09:27:08Z</time>
      </trkpt>
      <trkpt lat="45.26202" lon="5.56995">
        <ele>696</ele>
        <time>2012-11-04T09:27:09Z</time>
      </trkpt>
      <trkpt lat="45.26202" lon="5.56995">
        <ele>696</ele>
        <time>2012-11-04T09:27:10Z</time>
      </trkpt>
      <trkpt lat="45.26202" lon="5.56995">
        <ele>696</ele>
        <time>2012-11-04T09:27:11Z</time>
      </trkpt>
      <trkpt lat="45.26202" lon="5.56995">
        <ele>696</ele>
        <time>2012-11-04T09:27:12Z</time>
      </trkpt>
      <trkpt lat="45.26202" lon="5.57">
        <ele>697</ele>
        <time>2012-11-04T09:27:13Z</time>
      </trkpt>
      <trkpt lat="45.26202" lon="5.57002">
        <ele>698</ele>
        <time>2012-11-04T09:27:14Z</time>
      </trkpt>
      <trkpt lat="45.26203" lon="5.57005">
        <ele>699</ele>
        <time>2012-11-04T09:27:15Z</time>
      </trkpt>
      <trkpt lat="45.26204" lon="5.57008">
        <ele>699</ele>
        <time>2012-11-04T09:27:16Z</time>
      </trkpt>
      <trkpt lat="45.26205" lon="5.5701">
        <ele>698</ele>
        <time>2012-11-04T09:27:17Z</time>
      </trkpt>
      <trkpt lat="45.26207" lon="5.57012">
        <ele>698</ele>
        <time>2012-11-04T09:27:18Z</time>
      </trkpt>
      <trkpt lat="45.26208" lon="5.57014">
        <ele>698</ele>
        <time>2012-11-04T09:27:19Z</time>
      </trkpt>
      <trkpt lat="45.26209" lon="5.57016">
        <ele>698</ele>
        <time>2012-11-04T09:27:20Z</time>
      </trkpt>
      <trkpt lat="45.2621" lon="5.57018">
        <ele>697</ele>
        <time>2012-11-04T09:27:21Z</time>
      </trkpt>
      <trkpt lat="45.26211" lon="5.57022">
        <ele>697</ele>
        <time>2012-11-04T09:27:22Z</time>
      </trkpt>
      <trkpt lat="45.26212" lon="5.57026">
        <ele>697</ele>
        <time>2012-11-04T09:27:23Z</time>
      </trkpt>
      <trkpt lat="45.26213" lon="5.57029">
        <ele>696</ele>
        <time>2012-11-04T09:27:24Z</time>
      </trkpt>
      <trkpt lat="45.26214" lon="5.57033">
        <ele>697</ele>
        <time>2012-11-04T09:27:25Z</time>
      </trkpt>
      <trkpt lat="45.26215" lon="5.57037">
        <ele>696</ele>
        <time>2012-11-04T09:27:26Z</time>
      </trkpt>
      <trkpt lat="45.26216" lon="5.5704">
        <ele>696</ele>
        <time>2012-11-04T09:27:27Z</time>
      </trkpt>
      <trkpt lat="45.26217" lon="5.57044">
        <ele>696</ele>
        <time>2012-11-04T09:27:28Z</time>
      </trkpt>
      <trkpt lat="45.26219" lon="5.57048">
        <ele>696</ele>
        <time>2012-11-04T09:27:29Z</time>
      </trkpt>
      <trkpt lat="45.2622" lon="5.57051">
        <ele>696</ele>
        <time>2012-11-04T09:27:30Z</time>
      </trkpt>
      <trkpt lat="45.26222" lon="5.57054">
        <ele>696</ele>
        <time>2012-11-04T09:27:31Z</time>
      </trkpt>
      <trkpt lat="45.26223" lon="5.57057">
        <ele>696</ele>
        <time>2012-11-04T09:27:32Z</time>
      </trkpt>
      <trkpt lat="45.26224" lon="5.5706">
        <ele>696</ele>
        <time>2012-11-04T09:27:33Z</time>
      </trkpt>
      <trkpt lat="45.26225" lon="5.57062">
        <ele>695</ele>
        <time>2012-11-04T09:27:34Z</time>
      </trkpt>
      <trkpt lat="45.26226" lon="5.57064">
        <ele>695</ele>
        <time>2012-11-04T09:27:35Z</time>
      </trkpt>
      <trkpt lat="45.26228" lon="5.57067">
        <ele>696</ele>
        <time>2012-11-04T09:27:36Z</time>
      </trkpt>
      <trkpt lat="45.26231" lon="5.5707">
        <ele>696</ele>
        <time>2012-11-04T09:27:37Z</time>
      </trkpt>
      <trkpt lat="45.26233" lon="5.57074">
        <ele>695</ele>
        <time>2012-11-04T09:27:38Z</time>
      </trkpt>
      <trkpt lat="45.26236" lon="5.57078">
        <ele>695</ele>
        <time>2012-11-04T09:27:39Z</time>
      </trkpt>
      <trkpt lat="45.26238" lon="5.57083">
        <ele>696</ele>
        <time>2012-11-04T09:27:40Z</time>
      </trkpt>
      <trkpt lat="45.2624" lon="5.57087">
        <ele>695</ele>
        <time>2012-11-04T09:27:41Z</time>
      </trkpt>
      <trkpt lat="45.26242" lon="5.5709">
        <ele>696</ele>
        <time>2012-11-04T09:27:42Z</time>
      </trkpt>
      <trkpt lat="45.26243" lon="5.57093">
        <ele>695</ele>
        <time>2012-11-04T09:27:43Z</time>
      </trkpt>
      <trkpt lat="45.26245" lon="5.57096">
        <ele>696</ele>
        <time>2012-11-04T09:27:44Z</time>
      </trkpt>
      <trkpt lat="45.26246" lon="5.57099">
        <ele>696</ele>
        <time>2012-11-04T09:27:45Z</time>
      </trkpt>
      <trkpt lat="45.26248" lon="5.57102">
        <ele>696</ele>
        <time>2012-11-04T09:27:46Z</time>
      </trkpt>
      <trkpt lat="45.26249" lon="5.57105">
        <ele>695</ele>
        <time>2012-11-04T09:27:47Z</time>
      </trkpt>
      <trkpt lat="45.26251" lon="5.57107">
        <ele>696</ele>
        <time>2012-11-04T09:27:48Z</time>
      </trkpt>
      <trkpt lat="45.26253" lon="5.57111">
        <ele>697</ele>
        <time>2012-11-04T09:27:49Z</time>
      </trkpt>
      <trkpt lat="45.26255" lon="5.57114">
        <ele>696</ele>
        <time>2012-11-04T09:27:50Z</time>
      </trkpt>
      <trkpt lat="45.26258" lon="5.57118">
        <ele>696</ele>
        <time>2012-11-04T09:27:51Z</time>
      </trkpt>
      <trkpt lat="45.2626" lon="5.57121">
        <ele>697</ele>
        <time>2012-11-04T09:27:52Z</time>
      </trkpt>
      <trkpt lat="45.26262" lon="5.57124">
        <ele>702</ele>
        <time>2012-11-04T09:27:53Z</time>
      </trkpt>
      <trkpt lat="45.26263" lon="5.57127">
        <ele>704</ele>
        <time>2012-11-04T09:27:54Z</time>
      </trkpt>
      <trkpt lat="45.26265" lon="5.5713">
        <ele>704</ele>
        <time>2012-11-04T09:27:55Z</time>
      </trkpt>
      <trkpt lat="45.26267" lon="5.57133">
        <ele>704</ele>
        <time>2012-11-04T09:27:56Z</time>
      </trkpt>
      <trkpt lat="45.26269" lon="5.57136">
        <ele>705</ele>
        <time>2012-11-04T09:27:57Z</time>
      </trkpt>
      <trkpt lat="45.2627" lon="5.57138">
        <ele>704</ele>
        <time>2012-11-04T09:27:58Z</time>
      </trkpt>
      <trkpt lat="45.26271" lon="5.57139">
        <ele>704</ele>
        <time>2012-11-04T09:27:59Z</time>
      </trkpt>
      <trkpt lat="45.26272" lon="5.57141">
        <ele>705</ele>
        <time>2012-11-04T09:28:00Z</time>
      </trkpt>
      <trkpt lat="45.26273" lon="5.57141">
        <ele>705</ele>
        <time>2012-11-04T09:28:01Z</time>
      </trkpt>
      <trkpt lat="45.26275" lon="5.57142">
        <ele>705</ele>
        <time>2012-11-04T09:28:02Z</time>
      </trkpt>
      <trkpt lat="45.26276" lon="5.57144">
        <ele>706</ele>
        <time>2012-11-04T09:28:03Z</time>
      </trkpt>
      <trkpt lat="45.26277" lon="5.57144">
        <ele>708</ele>
        <time>2012-11-04T09:28:04Z</time>
      </trkpt>
      <trkpt lat="45.26279" lon="5.57145">
        <ele>709</ele>
        <time>2012-11-04T09:28:05Z</time>
      </trkpt>
      <trkpt lat="45.2628" lon="5.57146">
        <ele>710</ele>
        <time>2012-11-04T09:28:06Z</time>
      </trkpt>
      <trkpt lat="45.26281" lon="5.57147">
        <ele>711</ele>
        <time>2012-11-04T09:28:07Z</time>
      </trkpt>
      <trkpt lat="45.26282" lon="5.57148">
        <ele>712</ele>
        <time>2012-11-04T09:28:08Z</time>
      </trkpt>
      <trkpt lat="45.26283" lon="5.57149">
        <ele>712</ele>
        <time>2012-11-04T09:28:09Z</time>
      </trkpt>
      <trkpt lat="45.26284" lon="5.57151">
        <ele>711</ele>
        <time>2012-11-04T09:28:10Z</time>
      </trkpt>
      <trkpt lat="45.26284" lon="5.57152">
        <ele>711</ele>
        <time>2012-11-04T09:28:11Z</time>
      </trkpt>
      <trkpt lat="45.26284" lon="5.57152">
        <ele>710</ele>
        <time>2012-11-04T09:28:12Z</time>
      </trkpt>
      <trkpt lat="45.26284" lon="5.57152">
        <ele>710</ele>
        <time>2012-11-04T09:28:13Z</time>
      </trkpt>
      <trkpt lat="45.26284" lon="5.57152">
        <ele>710</ele>
        <time>2012-11-04T09:28:14Z</time>
      </trkpt>
      <trkpt lat="45.26284" lon="5.57152">
        <ele>709</ele>
        <time>2012-11-04T09:28:15Z</time>
      </trkpt>
      <trkpt lat="45.26284" lon="5.57152">
        <ele>709</ele>
        <time>2012-11-04T09:28:16Z</time>
      </trkpt>
      <trkpt lat="45.26284" lon="5.57152">
        <ele>709</ele>
        <time>2012-11-04T09:28:17Z</time>
      </trkpt>
      <trkpt lat="45.26284" lon="5.57152">
        <ele>708</ele>
        <time>2012-11-04T09:28:18Z</time>
      </trkpt>
      <trkpt lat="45.26284" lon="5.57152">
        <ele>708</ele>
        <time>2012-11-04T09:28:19Z</time>
      </trkpt>
      <trkpt lat="45.26284" lon="5.57152">
        <ele>708</ele>
        <time>2012-11-04T09:28:20Z</time>
      </trkpt>
      <trkpt lat="45.26284" lon="5.57152">
        <ele>707</ele>
        <time>2012-11-04T09:28:21Z</time>
      </trkpt>
      <trkpt lat="45.26284" lon="5.57152">
        <ele>707</ele>
        <time>2012-11-04T09:28:22Z</time>
      </trkpt>
      <trkpt lat="45.26284" lon="5.57152">
        <ele>707</ele>
        <time>2012-11-04T09:28:23Z</time>
      </trkpt>
      <trkpt lat="45.26284" lon="5.57152">
        <ele>707</ele>
        <time>2012-11-04T09:28:24Z</time>
      </trkpt>
      <trkpt lat="45.26288" lon="5.57156">
        <ele>707</ele>
        <time>2012-11-04T09:28:25Z</time>
      </trkpt>
      <trkpt lat="45.26288" lon="5.57156">
        <ele>707</ele>
        <time>2012-11-04T09:28:26Z</time>
      </trkpt>
      <trkpt lat="45.26288" lon="5.57156">
        <ele>707</ele>
        <time>2012-11-04T09:28:27Z</time>
      </trkpt>
      <trkpt lat="45.26288" lon="5.57156">
        <ele>707</ele>
        <time>2012-11-04T09:28:28Z</time>
      </trkpt>
      <trkpt lat="45.26288" lon="5.57156">
        <ele>707</ele>
        <time>2012-11-04T09:28:29Z</time>
      </trkpt>
      <trkpt lat="45.26288" lon="5.57158">
        <ele>706</ele>
        <time>2012-11-04T09:28:30Z</time>
      </trkpt>
      <trkpt lat="45.26287" lon="5.57159">
        <ele>705</ele>
        <time>2012-11-04T09:28:31Z</time>
      </trkpt>
      <trkpt lat="45.26287" lon="5.57161">
        <ele>704</ele>
        <time>2012-11-04T09:28:32Z</time>
      </trkpt>
      <trkpt lat="45.26286" lon="5.57163">
        <ele>705</ele>
        <time>2012-11-04T09:28:33Z</time>
      </trkpt>
      <trkpt lat="45.26285" lon="5.57165">
        <ele>705</ele>
        <time>2012-11-04T09:28:34Z</time>
      </trkpt>
      <trkpt lat="45.26284" lon="5.57166">
        <ele>707</ele>
        <time>2012-11-04T09:28:35Z</time>
      </trkpt>
      <trkpt lat="45.26282" lon="5.57167">
        <ele>706</ele>
        <time>2012-11-04T09:28:36Z</time>
      </trkpt>
      <trkpt lat="45.26282" lon="5.57167">
        <ele>706</ele>
        <time>2012-11-04T09:28:37Z</time>
      </trkpt>
      <trkpt lat="45.2628" lon="5.57168">
        <ele>707</ele>
        <time>2012-11-04T09:28:38Z</time>
      </trkpt>
      <trkpt lat="45.26279" lon="5.57168">
        <ele>707</ele>
        <time>2012-11-04T09:28:39Z</time>
      </trkpt>
      <trkpt lat="45.26277" lon="5.57167">
        <ele>707</ele>
        <time>2012-11-04T09:28:40Z</time>
      </trkpt>
      <trkpt lat="45.26276" lon="5.57169">
        <ele>707</ele>
        <time>2012-11-04T09:28:41Z</time>
      </trkpt>
      <trkpt lat="45.26274" lon="5.57169">
        <ele>707</ele>
        <time>2012-11-04T09:28:42Z</time>
      </trkpt>
      <trkpt lat="45.26273" lon="5.5717">
        <ele>704</ele>
        <time>2012-11-04T09:28:43Z</time>
      </trkpt>
      <trkpt lat="45.26272" lon="5.57171">
        <ele>703</ele>
        <time>2012-11-04T09:28:44Z</time>
      </trkpt>
      <trkpt lat="45.26271" lon="5.57172">
        <ele>703</ele>
        <time>2012-11-04T09:28:45Z</time>
      </trkpt>
      <trkpt lat="45.2627" lon="5.57172">
        <ele>703</ele>
        <time>2012-11-04T09:28:46Z</time>
      </trkpt>
      <trkpt lat="45.26269" lon="5.57172">
        <ele>703</ele>
        <time>2012-11-04T09:28:47Z</time>
      </trkpt>
      <trkpt lat="45.26269" lon="5.57173">
        <ele>703</ele>
        <time>2012-11-04T09:28:48Z</time>
      </trkpt>
      <trkpt lat="45.26269" lon="5.57173">
        <ele>703</ele>
        <time>2012-11-04T09:28:49Z</time>
      </trkpt>
      <trkpt lat="45.26269" lon="5.57173">
        <ele>703</ele>
        <time>2012-11-04T09:28:50Z</time>
      </trkpt>
      <trkpt lat="45.26269" lon="5.57173">
        <ele>703</ele>
        <time>2012-11-04T09:28:51Z</time>
      </trkpt>
      <trkpt lat="45.26269" lon="5.57173">
        <ele>703</ele>
        <time>2012-11-04T09:28:52Z</time>
      </trkpt>
      <trkpt lat="45.26269" lon="5.57173">
        <ele>704</ele>
        <time>2012-11-04T09:28:53Z</time>
      </trkpt>
      <trkpt lat="45.26269" lon="5.57173">
        <ele>704</ele>
        <time>2012-11-04T09:28:54Z</time>
      </trkpt>
      <trkpt lat="45.26269" lon="5.57173">
        <ele>704</ele>
        <time>2012-11-04T09:28:55Z</time>
      </trkpt>
      <trkpt lat="45.26269" lon="5.57173">
        <ele>703</ele>
        <time>2012-11-04T09:28:56Z</time>
      </trkpt>
      <trkpt lat="45.26269" lon="5.57173">
        <ele>703</ele>
        <time>2012-11-04T09:28:57Z</time>
      </trkpt>
      <trkpt lat="45.26269" lon="5.57173">
        <ele>703</ele>
        <time>2012-11-04T09:28:58Z</time>
      </trkpt>
      <trkpt lat="45.26268" lon="5.57176">
        <ele>704</ele>
        <time>2012-11-04T09:28:59Z</time>
      </trkpt>
      <trkpt lat="45.26267" lon="5.57177">
        <ele>704</ele>
        <time>2012-11-04T09:29:00Z</time>
      </trkpt>
      <trkpt lat="45.26267" lon="5.57177">
        <ele>704</ele>
        <time>2012-11-04T09:29:01Z</time>
      </trkpt>
      <trkpt lat="45.26266" lon="5.57177">
        <ele>704</ele>
        <time>2012-11-04T09:29:02Z</time>
      </trkpt>
      <trkpt lat="45.26266" lon="5.57177">
        <ele>704</ele>
        <time>2012-11-04T09:29:03Z</time>
      </trkpt>
      <trkpt lat="45.26266" lon="5.57177">
        <ele>704</ele>
        <time>2012-11-04T09:29:04Z</time>
      </trkpt>
      <trkpt lat="45.26266" lon="5.57177">
        <ele>703</ele>
        <time>2012-11-04T09:29:05Z</time>
      </trkpt>
      <trkpt lat="45.26264" lon="5.57175">
        <ele>704</ele>
        <time>2012-11-04T09:29:06Z</time>
      </trkpt>
      <trkpt lat="45.26264" lon="5.57175">
        <ele>704</ele>
        <time>2012-11-04T09:29:07Z</time>
      </trkpt>
      <trkpt lat="45.26264" lon="5.57175">
        <ele>702</ele>
        <time>2012-11-04T09:29:08Z</time>
      </trkpt>
      <trkpt lat="45.26264" lon="5.57175">
        <ele>702</ele>
        <time>2012-11-04T09:29:09Z</time>
      </trkpt>
      <trkpt lat="45.26264" lon="5.57175">
        <ele>702</ele>
        <time>2012-11-04T09:29:10Z</time>
      </trkpt>
      <trkpt lat="45.26264" lon="5.57175">
        <ele>702</ele>
        <time>2012-11-04T09:29:11Z</time>
      </trkpt>
      <trkpt lat="45.26264" lon="5.57175">
        <ele>702</ele>
        <time>2012-11-04T09:29:12Z</time>
      </trkpt>
      <trkpt lat="45.26264" lon="5.57175">
        <ele>702</ele>
        <time>2012-11-04T09:29:13Z</time>
      </trkpt>
      <trkpt lat="45.26264" lon="5.57175">
        <ele>702</ele>
        <time>2012-11-04T09:29:14Z</time>
      </trkpt>
      <trkpt lat="45.26264" lon="5.57175">
        <ele>703</ele>
        <time>2012-11-04T09:29:15Z</time>
      </trkpt>
      <trkpt lat="45.26264" lon="5.57175">
        <ele>703</ele>
        <time>2012-11-04T09:29:16Z</time>
      </trkpt>
      <trkpt lat="45.26264" lon="5.57175">
        <ele>703</ele>
        <time>2012-11-04T09:29:17Z</time>
      </trkpt>
      <trkpt lat="45.26264" lon="5.57175">
        <ele>703</ele>
        <time>2012-11-04T09:29:18Z</time>
      </trkpt>
      <trkpt lat="45.26264" lon="5.57175">
        <ele>704</ele>
        <time>2012-11-04T09:29:19Z</time>
      </trkpt>
      <trkpt lat="45.26264" lon="5.57175">
        <ele>705</ele>
        <time>2012-11-04T09:29:20Z</time>
      </trkpt>
      <trkpt lat="45.26264" lon="5.57175">
        <ele>705</ele>
        <time>2012-11-04T09:29:21Z</time>
      </trkpt>
      <trkpt lat="45.26264" lon="5.57175">
        <ele>704</ele>
        <time>2012-11-04T09:29:22Z</time>
      </trkpt>
      <trkpt lat="45.26264" lon="5.57175">
        <ele>704</ele>
        <time>2012-11-04T09:29:23Z</time>
      </trkpt>
      <trkpt lat="45.26264" lon="5.57175">
        <ele>704</ele>
        <time>2012-11-04T09:29:24Z</time>
      </trkpt>
      <trkpt lat="45.26264" lon="5.57175">
        <ele>704</ele>
        <time>2012-11-04T09:29:25Z</time>
      </trkpt>
      <trkpt lat="45.26266" lon="5.57176">
        <ele>708</ele>
        <time>2012-11-04T09:29:26Z</time>
      </trkpt>
      <trkpt lat="45.26268" lon="5.57175">
        <ele>706</ele>
        <time>2012-11-04T09:29:27Z</time>
      </trkpt>
      <trkpt lat="45.2627" lon="5.57175">
        <ele>706</ele>
        <time>2012-11-04T09:29:28Z</time>
      </trkpt>
      <trkpt lat="45.26272" lon="5.57174">
        <ele>704</ele>
        <time>2012-11-04T09:29:29Z</time>
      </trkpt>
      <trkpt lat="45.26289" lon="5.5717">
        <ele>702</ele>
        <time>2012-11-04T09:29:37Z</time>
      </trkpt>
      <trkpt lat="45.26293" lon="5.57167">
        <ele>703</ele>
        <time>2012-11-04T09:29:38Z</time>
      </trkpt>
      <trkpt lat="45.26296" lon="5.57164">
        <ele>703</ele>
        <time>2012-11-04T09:29:39Z</time>
      </trkpt>
      <trkpt lat="45.26298" lon="5.5716">
        <ele>703</ele>
        <time>2012-11-04T09:29:40Z</time>
      </trkpt>
      <trkpt lat="45.26301" lon="5.57156">
        <ele>702</ele>
        <time>2012-11-04T09:29:41Z</time>
      </trkpt>
      <trkpt lat="45.26303" lon="5.57154">
        <ele>700</ele>
        <time>2012-11-04T09:29:42Z</time>
      </trkpt>
      <trkpt lat="45.26305" lon="5.57151">
        <ele>700</ele>
        <time>2012-11-04T09:29:43Z</time>
      </trkpt>
      <trkpt lat="45.26307" lon="5.5715">
        <ele>699</ele>
        <time>2012-11-04T09:29:44Z</time>
      </trkpt>
      <trkpt lat="45.26309" lon="5.57149">
        <ele>699</ele>
        <time>2012-11-04T09:29:45Z</time>
      </trkpt>
      <trkpt lat="45.26309" lon="5.57149">
        <ele>698</ele>
        <time>2012-11-04T09:29:46Z</time>
      </trkpt>
      <trkpt lat="45.26309" lon="5.57149">
        <ele>698</ele>
        <time>2012-11-04T09:29:47Z</time>
      </trkpt>
      <trkpt lat="45.26309" lon="5.57149">
        <ele>698</ele>
        <time>2012-11-04T09:29:48Z</time>
      </trkpt>
      <trkpt lat="45.26309" lon="5.57149">
        <ele>698</ele>
        <time>2012-11-04T09:29:49Z</time>
      </trkpt>
      <trkpt lat="45.26309" lon="5.57149">
        <ele>698</ele>
        <time>2012-11-04T09:29:50Z</time>
      </trkpt>
      <trkpt lat="45.26309" lon="5.57149">
        <ele>698</ele>
        <time>2012-11-04T09:29:51Z</time>
      </trkpt>
      <trkpt lat="45.26309" lon="5.57149">
        <ele>698</ele>
        <time>2012-11-04T09:29:52Z</time>
      </trkpt>
      <trkpt lat="45.26309" lon="5.57149">
        <ele>698</ele>
        <time>2012-11-04T09:29:53Z</time>
      </trkpt>
      <trkpt lat="45.26309" lon="5.57149">
        <ele>698</ele>
        <time>2012-11-04T09:29:54Z</time>
      </trkpt>
      <trkpt lat="45.26309" lon="5.57149">
        <ele>698</ele>
        <time>2012-11-04T09:29:55Z</time>
      </trkpt>
      <trkpt lat="45.26309" lon="5.57149">
        <ele>698</ele>
        <time>2012-11-04T09:29:56Z</time>
      </trkpt>
      <trkpt lat="45.26309" lon="5.57149">
        <ele>699</ele>
        <time>2012-11-04T09:29:57Z</time>
      </trkpt>
      <trkpt lat="45.26309" lon="5.57149">
        <ele>699</ele>
        <time>2012-11-04T09:29:58Z</time>
      </trkpt>
      <trkpt lat="45.26309" lon="5.57149">
        <ele>699</ele>
        <time>2012-11-04T09:29:59Z</time>
      </trkpt>
      <trkpt lat="45.26309" lon="5.57149">
        <ele>699</ele>
        <time>2012-11-04T09:30:00Z</time>
      </trkpt>
      <trkpt lat="45.26309" lon="5.57149">
        <ele>699</ele>
        <time>2012-11-04T09:30:01Z</time>
      </trkpt>
      <trkpt lat="45.26309" lon="5.57149">
        <ele>699</ele>
        <time>2012-11-04T09:30:02Z</time>
      </trkpt>
      <trkpt lat="45.26309" lon="5.57149">
        <ele>699</ele>
        <time>2012-11-04T09:30:03Z</time>
      </trkpt>
      <trkpt lat="45.26309" lon="5.57149">
        <ele>699</ele>
        <time>2012-11-04T09:30:04Z</time>
      </trkpt>
      <trkpt lat="45.26309" lon="5.57149">
        <ele>699</ele>
        <time>2012-11-04T09:30:05Z</time>
      </trkpt>
      <trkpt lat="45.26309" lon="5.57149">
        <ele>699</ele>
        <time>2012-11-04T09:30:06Z</time>
      </trkpt>
      <trkpt lat="45.26309" lon="5.57149">
        <ele>699</ele>
        <time>2012-11-04T09:30:07Z</time>
      </trkpt>
      <trkpt lat="45.26309" lon="5.57149">
        <ele>699</ele>
        <time>2012-11-04T09:30:08Z</time>
      </trkpt>
      <trkpt lat="45.26309" lon="5.57149">
        <ele>699</ele>
        <time>2012-11-04T09:30:09Z</time>
      </trkpt>
      <trkpt lat="45.26309" lon="5.57149">
        <ele>699</ele>
        <time>2012-11-04T09:30:10Z</time>
      </trkpt>
      <trkpt lat="45.26309" lon="5.57149">
        <ele>699</ele>
        <time>2012-11-04T09:30:11Z</time>
      </trkpt>
      <trkpt lat="45.26309" lon="5.57149">
        <ele>699</ele>
        <time>2012-11-04T09:30:12Z</time>
      </trkpt>
      <trkpt lat="45.26309" lon="5.57149">
        <ele>700</ele>
        <time>2012-11-04T09:30:13Z</time>
      </trkpt>
      <trkpt lat="45.26314" lon="5.57146">
        <ele>700</ele>
        <time>2012-11-04T09:30:14Z</time>
      </trkpt>
      <trkpt lat="45.26316" lon="5.57145">
        <ele>701</ele>
        <time>2012-11-04T09:30:15Z</time>
      </trkpt>
      <trkpt lat="45.26319" lon="5.57143">
        <ele>701</ele>
        <time>2012-11-04T09:30:16Z</time>
      </trkpt>
      <trkpt lat="45.26322" lon="5.57142">
        <ele>702</ele>
        <time>2012-11-04T09:30:17Z</time>
      </trkpt>
      <trkpt lat="45.26325" lon="5.5714">
        <ele>702</ele>
        <time>2012-11-04T09:30:18Z</time>
      </trkpt>
      <trkpt lat="45.26328" lon="5.57139">
        <ele>703</ele>
        <time>2012-11-04T09:30:19Z</time>
      </trkpt>
      <trkpt lat="45.26332" lon="5.57138">
        <ele>704</ele>
        <time>2012-11-04T09:30:20Z</time>
      </trkpt>
      <trkpt lat="45.26339" lon="5.57136">
        <ele>703</ele>
        <time>2012-11-04T09:30:22Z</time>
      </trkpt>
      <trkpt lat="45.26349" lon="5.57136">
        <ele>702</ele>
        <time>2012-11-04T09:30:24Z</time>
      </trkpt>
      <trkpt lat="45.26352" lon="5.57136">
        <ele>702</ele>
        <time>2012-11-04T09:30:25Z</time>
      </trkpt>
      <trkpt lat="45.26356" lon="5.57137">
        <ele>702</ele>
        <time>2012-11-04T09:30:26Z</time>
      </trkpt>
      <trkpt lat="45.26359" lon="5.57139">
        <ele>703</ele>
        <time>2012-11-04T09:30:27Z</time>
      </trkpt>
      <trkpt lat="45.26363" lon="5.57141">
        <ele>701</ele>
        <time>2012-11-04T09:30:28Z</time>
      </trkpt>
      <trkpt lat="45.26366" lon="5.57143">
        <ele>700</ele>
        <time>2012-11-04T09:30:29Z</time>
      </trkpt>
      <trkpt lat="45.26369" lon="5.57145">
        <ele>700</ele>
        <time>2012-11-04T09:30:30Z</time>
      </trkpt>
      <trkpt lat="45.26372" lon="5.57147">
        <ele>700</ele>
        <time>2012-11-04T09:30:31Z</time>
      </trkpt>
      <trkpt lat="45.26374" lon="5.57148">
        <ele>704</ele>
        <time>2012-11-04T09:30:32Z</time>
      </trkpt>
      <trkpt lat="45.26375" lon="5.5715">
        <ele>704</ele>
        <time>2012-11-04T09:30:33Z</time>
      </trkpt>
      <trkpt lat="45.26376" lon="5.57151">
        <ele>704</ele>
        <time>2012-11-04T09:30:34Z</time>
      </trkpt>
      <trkpt lat="45.26377" lon="5.57153">
        <ele>703</ele>
        <time>2012-11-04T09:30:35Z</time>
      </trkpt>
      <trkpt lat="45.26378" lon="5.57154">
        <ele>704</ele>
        <time>2012-11-04T09:30:36Z</time>
      </trkpt>
      <trkpt lat="45.26379" lon="5.57156">
        <ele>705</ele>
        <time>2012-11-04T09:30:37Z</time>
      </trkpt>
      <trkpt lat="45.2638" lon="5.57158">
        <ele>705</ele>
        <time>2012-11-04T09:30:38Z</time>
      </trkpt>
      <trkpt lat="45.26382" lon="5.5716">
        <ele>705</ele>
        <time>2012-11-04T09:30:39Z</time>
      </trkpt>
      <trkpt lat="45.26384" lon="5.57163">
        <ele>704</ele>
        <time>2012-11-04T09:30:40Z</time>
      </trkpt>
      <trkpt lat="45.26385" lon="5.57164">
        <ele>704</ele>
        <time>2012-11-04T09:30:41Z</time>
      </trkpt>
      <trkpt lat="45.2639" lon="5.57168">
        <ele>700</ele>
        <time>2012-11-04T09:30:42Z</time>
      </trkpt>
      <trkpt lat="45.26392" lon="5.5717">
        <ele>699</ele>
        <time>2012-11-04T09:30:43Z</time>
      </trkpt>
      <trkpt lat="45.26395" lon="5.57173">
        <ele>699</ele>
        <time>2012-11-04T09:30:44Z</time>
      </trkpt>
      <trkpt lat="45.26399" lon="5.57175">
        <ele>699</ele>
        <time>2012-11-04T09:30:45Z</time>
      </trkpt>
      <trkpt lat="45.26402" lon="5.57178">
        <ele>700</ele>
        <time>2012-11-04T09:30:46Z</time>
      </trkpt>
      <trkpt lat="45.26406" lon="5.5718">
        <ele>699</ele>
        <time>2012-11-04T09:30:47Z</time>
      </trkpt>
      <trkpt lat="45.26408" lon="5.57181">
        <ele>699</ele>
        <time>2012-11-04T09:30:48Z</time>
      </trkpt>
      <trkpt lat="45.26411" lon="5.57184">
        <ele>701</ele>
        <time>2012-11-04T09:30:49Z</time>
      </trkpt>
      <trkpt lat="45.26413" lon="5.57185">
        <ele>700</ele>
        <time>2012-11-04T09:30:50Z</time>
      </trkpt>
      <trkpt lat="45.26415" lon="5.57188">
        <ele>702</ele>
        <time>2012-11-04T09:30:51Z</time>
      </trkpt>
      <trkpt lat="45.26417" lon="5.57189">
        <ele>702</ele>
        <time>2012-11-04T09:30:52Z</time>
      </trkpt>
      <trkpt lat="45.26418" lon="5.57191">
        <ele>701</ele>
        <time>2012-11-04T09:30:53Z</time>
      </trkpt>
      <trkpt lat="45.2642" lon="5.57193">
        <ele>700</ele>
        <time>2012-11-04T09:30:54Z</time>
      </trkpt>
      <trkpt lat="45.26421" lon="5.57194">
        <ele>700</ele>
        <time>2012-11-04T09:30:55Z</time>
      </trkpt>
      <trkpt lat="45.26422" lon="5.57196">
        <ele>699</ele>
        <time>2012-11-04T09:30:56Z</time>
      </trkpt>
      <trkpt lat="45.26423" lon="5.57197">
        <ele>700</ele>
        <time>2012-11-04T09:30:57Z</time>
      </trkpt>
      <trkpt lat="45.26424" lon="5.57199">
        <ele>700</ele>
        <time>2012-11-04T09:30:58Z</time>
      </trkpt>
      <trkpt lat="45.26425" lon="5.572">
        <ele>700</ele>
        <time>2012-11-04T09:30:59Z</time>
      </trkpt>
      <trkpt lat="45.26426" lon="5.57202">
        <ele>701</ele>
        <time>2012-11-04T09:31:00Z</time>
      </trkpt>
      <trkpt lat="45.2643" lon="5.57206">
        <ele>701</ele>
        <time>2012-11-04T09:31:01Z</time>
      </trkpt>
      <trkpt lat="45.26432" lon="5.57209">
        <ele>701</ele>
        <time>2012-11-04T09:31:02Z</time>
      </trkpt>
      <trkpt lat="45.26435" lon="5.57212">
        <ele>702</ele>
        <time>2012-11-04T09:31:03Z</time>
      </trkpt>
      <trkpt lat="45.26437" lon="5.57215">
        <ele>702</ele>
        <time>2012-11-04T09:31:04Z</time>
      </trkpt>
      <trkpt lat="45.26439" lon="5.57217">
        <ele>702</ele>
        <time>2012-11-04T09:31:05Z</time>
      </trkpt>
      <trkpt lat="45.26441" lon="5.5722">
        <ele>702</ele>
        <time>2012-11-04T09:31:06Z</time>
      </trkpt>
      <trkpt lat="45.26443" lon="5.57223">
        <ele>703</ele>
        <time>2012-11-04T09:31:07Z</time>
      </trkpt>
      <trkpt lat="45.26445" lon="5.57226">
        <ele>704</ele>
        <time>2012-11-04T09:31:08Z</time>
      </trkpt>
      <trkpt lat="45.26451" lon="5.57232">
        <ele>703</ele>
        <time>2012-11-04T09:31:09Z</time>
      </trkpt>
      <trkpt lat="45.26453" lon="5.57237">
        <ele>704</ele>
        <time>2012-11-04T09:31:10Z</time>
      </trkpt>
      <trkpt lat="45.26454" lon="5.5724">
        <ele>704</ele>
        <time>2012-11-04T09:31:11Z</time>
      </trkpt>
      <trkpt lat="45.26459" lon="5.57247">
        <ele>705</ele>
        <time>2012-11-04T09:31:12Z</time>
      </trkpt>
      <trkpt lat="45.26461" lon="5.57251">
        <ele>704</ele>
        <time>2012-11-04T09:31:13Z</time>
      </trkpt>
      <trkpt lat="45.26464" lon="5.57257">
        <ele>704</ele>
        <time>2012-11-04T09:31:14Z</time>
      </trkpt>
      <trkpt lat="45.26467" lon="5.57262">
        <ele>703</ele>
        <time>2012-11-04T09:31:15Z</time>
      </trkpt>
      <trkpt lat="45.26468" lon="5.57265">
        <ele>703</ele>
        <time>2012-11-04T09:31:16Z</time>
      </trkpt>
      <trkpt lat="45.26473" lon="5.57273">
        <ele>703</ele>
        <time>2012-11-04T09:31:17Z</time>
      </trkpt>
      <trkpt lat="45.26476" lon="5.57277">
        <ele>703</ele>
        <time>2012-11-04T09:31:18Z</time>
      </trkpt>
      <trkpt lat="45.26478" lon="5.57281">
        <ele>702</ele>
        <time>2012-11-04T09:31:19Z</time>
      </trkpt>
      <trkpt lat="45.2648" lon="5.57286">
        <ele>703</ele>
        <time>2012-11-04T09:31:20Z</time>
      </trkpt>
      <trkpt lat="45.26482" lon="5.5729">
        <ele>702</ele>
        <time>2012-11-04T09:31:21Z</time>
      </trkpt>
      <trkpt lat="45.26483" lon="5.57294">
        <ele>702</ele>
        <time>2012-11-04T09:31:22Z</time>
      </trkpt>
      <trkpt lat="45.26485" lon="5.57297">
        <ele>702</ele>
        <time>2012-11-04T09:31:23Z</time>
      </trkpt>
      <trkpt lat="45.26486" lon="5.573">
        <ele>702</ele>
        <time>2012-11-04T09:31:24Z</time>
      </trkpt>
      <trkpt lat="45.26489" lon="5.57303">
        <ele>702</ele>
        <time>2012-11-04T09:31:25Z</time>
      </trkpt>
      <trkpt lat="45.26491" lon="5.57307">
        <ele>702</ele>
        <time>2012-11-04T09:31:26Z</time>
      </trkpt>
      <trkpt lat="45.26493" lon="5.5731">
        <ele>702</ele>
        <time>2012-11-04T09:31:27Z</time>
      </trkpt>
      <trkpt lat="45.26495" lon="5.57315">
        <ele>702</ele>
        <time>2012-11-04T09:31:28Z</time>
      </trkpt>
      <trkpt lat="45.26497" lon="5.57319">
        <ele>704</ele>
        <time>2012-11-04T09:31:29Z</time>
      </trkpt>
      <trkpt lat="45.26498" lon="5.57322">
        <ele>705</ele>
        <time>2012-11-04T09:31:30Z</time>
      </trkpt>
      <trkpt lat="45.26501" lon="5.57327">
        <ele>705</ele>
        <time>2012-11-04T09:31:31Z</time>
      </trkpt>
      <trkpt lat="45.26502" lon="5.5733">
        <ele>705</ele>
        <time>2012-11-04T09:31:32Z</time>
      </trkpt>
      <trkpt lat="45.26504" lon="5.57333">
        <ele>706</ele>
        <time>2012-11-04T09:31:33Z</time>
      </trkpt>
      <trkpt lat="45.26505" lon="5.57337">
        <ele>704</ele>
        <time>2012-11-04T09:31:34Z</time>
      </trkpt>
      <trkpt lat="45.26507" lon="5.5734">
        <ele>703</ele>
        <time>2012-11-04T09:31:35Z</time>
      </trkpt>
      <trkpt lat="45.26508" lon="5.57342">
        <ele>705</ele>
        <time>2012-11-04T09:31:36Z</time>
      </trkpt>
      <trkpt lat="45.2651" lon="5.57345">
        <ele>704</ele>
        <time>2012-11-04T09:31:37Z</time>
      </trkpt>
      <trkpt lat="45.26512" lon="5.57348">
        <ele>706</ele>
        <time>2012-11-04T09:31:38Z</time>
      </trkpt>
      <trkpt lat="45.26513" lon="5.57351">
        <ele>706</ele>
        <time>2012-11-04T09:31:39Z</time>
      </trkpt>
      <trkpt lat="45.26514" lon="5.57354">
        <ele>706</ele>
        <time>2012-11-04T09:31:40Z</time>
      </trkpt>
      <trkpt lat="45.26516" lon="5.57359">
        <ele>705</ele>
        <time>2012-11-04T09:31:41Z</time>
      </trkpt>
      <trkpt lat="45.26518" lon="5.57364">
        <ele>706</ele>
        <time>2012-11-04T09:31:42Z</time>
      </trkpt>
      <trkpt lat="45.2652" lon="5.57369">
        <ele>707</ele>
        <time>2012-11-04T09:31:43Z</time>
      </trkpt>
      <trkpt lat="45.26522" lon="5.57373">
        <ele>708</ele>
        <time>2012-11-04T09:31:44Z</time>
      </trkpt>
      <trkpt lat="45.26523" lon="5.57377">
        <ele>706</ele>
        <time>2012-11-04T09:31:45Z</time>
      </trkpt>
      <trkpt lat="45.26524" lon="5.57381">
        <ele>705</ele>
        <time>2012-11-04T09:31:46Z</time>
      </trkpt>
      <trkpt lat="45.26525" lon="5.57384">
        <ele>704</ele>
        <time>2012-11-04T09:31:47Z</time>
      </trkpt>
      <trkpt lat="45.26526" lon="5.57387">
        <ele>704</ele>
        <time>2012-11-04T09:31:48Z</time>
      </trkpt>
      <trkpt lat="45.26526" lon="5.57388">
        <ele>704</ele>
        <time>2012-11-04T09:31:49Z</time>
      </trkpt>
      <trkpt lat="45.26527" lon="5.57391">
        <ele>703</ele>
        <time>2012-11-04T09:31:50Z</time>
      </trkpt>
      <trkpt lat="45.26527" lon="5.57393">
        <ele>703</ele>
        <time>2012-11-04T09:31:51Z</time>
      </trkpt>
      <trkpt lat="45.26528" lon="5.57397">
        <ele>702</ele>
        <time>2012-11-04T09:31:52Z</time>
      </trkpt>
      <trkpt lat="45.26528" lon="5.574">
        <ele>703</ele>
        <time>2012-11-04T09:31:53Z</time>
      </trkpt>
      <trkpt lat="45.26529" lon="5.57404">
        <ele>702</ele>
        <time>2012-11-04T09:31:54Z</time>
      </trkpt>
      <trkpt lat="45.26529" lon="5.57408">
        <ele>703</ele>
        <time>2012-11-04T09:31:55Z</time>
      </trkpt>
      <trkpt lat="45.2653" lon="5.57413">
        <ele>702</ele>
        <time>2012-11-04T09:31:56Z</time>
      </trkpt>
      <trkpt lat="45.2653" lon="5.57417">
        <ele>702</ele>
        <time>2012-11-04T09:31:57Z</time>
      </trkpt>
      <trkpt lat="45.26531" lon="5.5742">
        <ele>702</ele>
        <time>2012-11-04T09:31:58Z</time>
      </trkpt>
      <trkpt lat="45.26532" lon="5.57423">
        <ele>701</ele>
        <time>2012-11-04T09:31:59Z</time>
      </trkpt>
      <trkpt lat="45.26532" lon="5.57426">
        <ele>702</ele>
        <time>2012-11-04T09:32:00Z</time>
      </trkpt>
      <trkpt lat="45.26533" lon="5.57429">
        <ele>702</ele>
        <time>2012-11-04T09:32:01Z</time>
      </trkpt>
      <trkpt lat="45.26533" lon="5.57432">
        <ele>703</ele>
        <time>2012-11-04T09:32:02Z</time>
      </trkpt>
      <trkpt lat="45.26534" lon="5.57435">
        <ele>703</ele>
        <time>2012-11-04T09:32:03Z</time>
      </trkpt>
      <trkpt lat="45.26536" lon="5.57439">
        <ele>703</ele>
        <time>2012-11-04T09:32:04Z</time>
      </trkpt>
      <trkpt lat="45.26537" lon="5.57442">
        <ele>702</ele>
        <time>2012-11-04T09:32:05Z</time>
      </trkpt>
      <trkpt lat="45.26539" lon="5.57446">
        <ele>702</ele>
        <time>2012-11-04T09:32:06Z</time>
      </trkpt>
      <trkpt lat="45.26542" lon="5.5745">
        <ele>703</ele>
        <time>2012-11-04T09:32:07Z</time>
      </trkpt>
      <trkpt lat="45.26544" lon="5.57455">
        <ele>702</ele>
        <time>2012-11-04T09:32:08Z</time>
      </trkpt>
      <trkpt lat="45.26546" lon="5.5746">
        <ele>703</ele>
        <time>2012-11-04T09:32:09Z</time>
      </trkpt>
      <trkpt lat="45.26548" lon="5.57466">
        <ele>702</ele>
        <time>2012-11-04T09:32:10Z</time>
      </trkpt>
      <trkpt lat="45.26549" lon="5.57471">
        <ele>702</ele>
        <time>2012-11-04T09:32:11Z</time>
      </trkpt>
      <trkpt lat="45.2655" lon="5.57475">
        <ele>701</ele>
        <time>2012-11-04T09:32:12Z</time>
      </trkpt>
      <trkpt lat="45.26552" lon="5.5748">
        <ele>702</ele>
        <time>2012-11-04T09:32:13Z</time>
      </trkpt>
      <trkpt lat="45.26554" lon="5.57485">
        <ele>702</ele>
        <time>2012-11-04T09:32:14Z</time>
      </trkpt>
      <trkpt lat="45.26555" lon="5.5749">
        <ele>702</ele>
        <time>2012-11-04T09:32:15Z</time>
      </trkpt>
      <trkpt lat="45.26557" lon="5.57496">
        <ele>702</ele>
        <time>2012-11-04T09:32:16Z</time>
      </trkpt>
      <trkpt lat="45.26559" lon="5.57503">
        <ele>702</ele>
        <time>2012-11-04T09:32:17Z</time>
      </trkpt>
      <trkpt lat="45.2656" lon="5.57507">
        <ele>707</ele>
        <time>2012-11-04T09:32:18Z</time>
      </trkpt>
      <trkpt lat="45.26561" lon="5.57511">
        <ele>709</ele>
        <time>2012-11-04T09:32:19Z</time>
      </trkpt>
      <trkpt lat="45.2656" lon="5.57513">
        <ele>709</ele>
        <time>2012-11-04T09:32:20Z</time>
      </trkpt>
      <trkpt lat="45.2656" lon="5.57516">
        <ele>709</ele>
        <time>2012-11-04T09:32:21Z</time>
      </trkpt>
      <trkpt lat="45.2656" lon="5.57519">
        <ele>709</ele>
        <time>2012-11-04T09:32:22Z</time>
      </trkpt>
      <trkpt lat="45.26559" lon="5.57511">
        <ele>720</ele>
        <time>2012-11-04T09:32:23Z</time>
      </trkpt>
      <trkpt lat="45.26558" lon="5.57511">
        <ele>720</ele>
        <time>2012-11-04T09:32:24Z</time>
      </trkpt>
      <trkpt lat="45.26557" lon="5.57511">
        <ele>719</ele>
        <time>2012-11-04T09:32:25Z</time>
      </trkpt>
      <trkpt lat="45.26558" lon="5.57518">
        <ele>718</ele>
        <time>2012-11-04T09:32:26Z</time>
      </trkpt>
      <trkpt lat="45.26557" lon="5.57525">
        <ele>717</ele>
        <time>2012-11-04T09:32:27Z</time>
      </trkpt>
      <trkpt lat="45.26558" lon="5.57537">
        <ele>717</ele>
        <time>2012-11-04T09:32:28Z</time>
      </trkpt>
      <trkpt lat="45.26558" lon="5.57541">
        <ele>717</ele>
        <time>2012-11-04T09:32:29Z</time>
      </trkpt>
      <trkpt lat="45.26556" lon="5.57547">
        <ele>716</ele>
        <time>2012-11-04T09:32:30Z</time>
      </trkpt>
      <trkpt lat="45.26556" lon="5.57552">
        <ele>715</ele>
        <time>2012-11-04T09:32:31Z</time>
      </trkpt>
      <trkpt lat="45.26556" lon="5.57558">
        <ele>714</ele>
        <time>2012-11-04T09:32:32Z</time>
      </trkpt>
      <trkpt lat="45.26556" lon="5.57562">
        <ele>712</ele>
        <time>2012-11-04T09:32:33Z</time>
      </trkpt>
      <trkpt lat="45.26556" lon="5.57566">
        <ele>712</ele>
        <time>2012-11-04T09:32:34Z</time>
      </trkpt>
      <trkpt lat="45.26556" lon="5.5757">
        <ele>711</ele>
        <time>2012-11-04T09:32:35Z</time>
      </trkpt>
      <trkpt lat="45.26557" lon="5.57573">
        <ele>711</ele>
        <time>2012-11-04T09:32:36Z</time>
      </trkpt>
      <trkpt lat="45.26557" lon="5.57575">
        <ele>709</ele>
        <time>2012-11-04T09:32:37Z</time>
      </trkpt>
      <trkpt lat="45.26558" lon="5.57578">
        <ele>709</ele>
        <time>2012-11-04T09:32:38Z</time>
      </trkpt>
      <trkpt lat="45.26561" lon="5.57581">
        <ele>709</ele>
        <time>2012-11-04T09:32:39Z</time>
      </trkpt>
      <trkpt lat="45.26561" lon="5.57584">
        <ele>710</ele>
        <time>2012-11-04T09:32:40Z</time>
      </trkpt>
      <trkpt lat="45.26564" lon="5.57588">
        <ele>709</ele>
        <time>2012-11-04T09:32:41Z</time>
      </trkpt>
      <trkpt lat="45.26565" lon="5.57593">
        <ele>707</ele>
        <time>2012-11-04T09:32:42Z</time>
      </trkpt>
      <trkpt lat="45.26567" lon="5.57598">
        <ele>707</ele>
        <time>2012-11-04T09:32:43Z</time>
      </trkpt>
      <trkpt lat="45.26569" lon="5.57603">
        <ele>706</ele>
        <time>2012-11-04T09:32:44Z</time>
      </trkpt>
      <trkpt lat="45.26571" lon="5.57607">
        <ele>706</ele>
        <time>2012-11-04T09:32:45Z</time>
      </trkpt>
      <trkpt lat="45.26573" lon="5.5761">
        <ele>706</ele>
        <time>2012-11-04T09:32:46Z</time>
      </trkpt>
      <trkpt lat="45.26575" lon="5.57611">
        <ele>706</ele>
        <time>2012-11-04T09:32:47Z</time>
      </trkpt>
      <trkpt lat="45.26575" lon="5.57612">
        <ele>707</ele>
        <time>2012-11-04T09:32:48Z</time>
      </trkpt>
      <trkpt lat="45.26575" lon="5.57614">
        <ele>707</ele>
        <time>2012-11-04T09:32:49Z</time>
      </trkpt>
      <trkpt lat="45.26574" lon="5.57615">
        <ele>708</ele>
        <time>2012-11-04T09:32:50Z</time>
      </trkpt>
      <trkpt lat="45.26572" lon="5.57616">
        <ele>708</ele>
        <time>2012-11-04T09:32:51Z</time>
      </trkpt>
      <trkpt lat="45.2657" lon="5.57617">
        <ele>708</ele>
        <time>2012-11-04T09:32:52Z</time>
      </trkpt>
      <trkpt lat="45.26568" lon="5.57618">
        <ele>708</ele>
        <time>2012-11-04T09:32:53Z</time>
      </trkpt>
      <trkpt lat="45.26567" lon="5.57618">
        <ele>708</ele>
        <time>2012-11-04T09:32:54Z</time>
      </trkpt>
      <trkpt lat="45.26566" lon="5.57617">
        <ele>709</ele>
        <time>2012-11-04T09:32:55Z</time>
      </trkpt>
      <trkpt lat="45.26565" lon="5.57617">
        <ele>709</ele>
        <time>2012-11-04T09:32:56Z</time>
      </trkpt>
      <trkpt lat="45.26565" lon="5.57617">
        <ele>710</ele>
        <time>2012-11-04T09:32:57Z</time>
      </trkpt>
      <trkpt lat="45.26568" lon="5.57614">
        <ele>710</ele>
        <time>2012-11-04T09:32:58Z</time>
      </trkpt>
      <trkpt lat="45.2657" lon="5.57613">
        <ele>710</ele>
        <time>2012-11-04T09:32:59Z</time>
      </trkpt>
      <trkpt lat="45.26571" lon="5.57612">
        <ele>710</ele>
        <time>2012-11-04T09:33:00Z</time>
      </trkpt>
      <trkpt lat="45.26574" lon="5.57611">
        <ele>709</ele>
        <time>2012-11-04T09:33:01Z</time>
      </trkpt>
      <trkpt lat="45.26576" lon="5.5761">
        <ele>710</ele>
        <time>2012-11-04T09:33:02Z</time>
      </trkpt>
      <trkpt lat="45.26576" lon="5.5761">
        <ele>710</ele>
        <time>2012-11-04T09:33:03Z</time>
      </trkpt>
      <trkpt lat="45.26576" lon="5.5761">
        <ele>710</ele>
        <time>2012-11-04T09:33:04Z</time>
      </trkpt>
      <trkpt lat="45.26576" lon="5.5761">
        <ele>709</ele>
        <time>2012-11-04T09:33:05Z</time>
      </trkpt>
      <trkpt lat="45.26582" lon="5.57612">
        <ele>707</ele>
        <time>2012-11-04T09:33:10Z</time>
      </trkpt>
      <trkpt lat="45.26582" lon="5.57614">
        <ele>708</ele>
        <time>2012-11-04T09:33:11Z</time>
      </trkpt>
      <trkpt lat="45.26584" lon="5.57618">
        <ele>708</ele>
        <time>2012-11-04T09:33:12Z</time>
      </trkpt>
      <trkpt lat="45.26587" lon="5.57622">
        <ele>705</ele>
        <time>2012-11-04T09:33:13Z</time>
      </trkpt>
      <trkpt lat="45.26589" lon="5.57626">
        <ele>705</ele>
        <time>2012-11-04T09:33:14Z</time>
      </trkpt>
      <trkpt lat="45.26591" lon="5.57628">
        <ele>704</ele>
        <time>2012-11-04T09:33:15Z</time>
      </trkpt>
      <trkpt lat="45.26594" lon="5.5763">
        <ele>703</ele>
        <time>2012-11-04T09:33:16Z</time>
      </trkpt>
      <trkpt lat="45.26597" lon="5.57629">
        <ele>702</ele>
        <time>2012-11-04T09:33:18Z</time>
      </trkpt>
      <trkpt lat="45.26599" lon="5.57628">
        <ele>702</ele>
        <time>2012-11-04T09:33:19Z</time>
      </trkpt>
      <trkpt lat="45.266" lon="5.57627">
        <ele>705</ele>
        <time>2012-11-04T09:33:20Z</time>
      </trkpt>
      <trkpt lat="45.26601" lon="5.57627">
        <ele>705</ele>
        <time>2012-11-04T09:33:21Z</time>
      </trkpt>
      <trkpt lat="45.26601" lon="5.57628">
        <ele>703</ele>
        <time>2012-11-04T09:33:22Z</time>
      </trkpt>
      <trkpt lat="45.266" lon="5.5763">
        <ele>703</ele>
        <time>2012-11-04T09:33:23Z</time>
      </trkpt>
      <trkpt lat="45.266" lon="5.57633">
        <ele>702</ele>
        <time>2012-11-04T09:33:24Z</time>
      </trkpt>
      <trkpt lat="45.266" lon="5.57635">
        <ele>703</ele>
        <time>2012-11-04T09:33:25Z</time>
      </trkpt>
      <trkpt lat="45.266" lon="5.57637">
        <ele>703</ele>
        <time>2012-11-04T09:33:26Z</time>
      </trkpt>
      <trkpt lat="45.266" lon="5.5764">
        <ele>702</ele>
        <time>2012-11-04T09:33:27Z</time>
      </trkpt>
      <trkpt lat="45.26601" lon="5.57644">
        <ele>702</ele>
        <time>2012-11-04T09:33:28Z</time>
      </trkpt>
      <trkpt lat="45.26601" lon="5.57647">
        <ele>702</ele>
        <time>2012-11-04T09:33:29Z</time>
      </trkpt>
      <trkpt lat="45.26602" lon="5.57651">
        <ele>700</ele>
        <time>2012-11-04T09:33:30Z</time>
      </trkpt>
      <trkpt lat="45.26602" lon="5.57655">
        <ele>699</ele>
        <time>2012-11-04T09:33:31Z</time>
      </trkpt>
      <trkpt lat="45.26603" lon="5.57659">
        <ele>700</ele>
        <time>2012-11-04T09:33:32Z</time>
      </trkpt>
      <trkpt lat="45.26604" lon="5.57663">
        <ele>701</ele>
        <time>2012-11-04T09:33:33Z</time>
      </trkpt>
      <trkpt lat="45.26605" lon="5.57666">
        <ele>702</ele>
        <time>2012-11-04T09:33:34Z</time>
      </trkpt>
      <trkpt lat="45.26606" lon="5.5767">
        <ele>701</ele>
        <time>2012-11-04T09:33:35Z</time>
      </trkpt>
      <trkpt lat="45.26606" lon="5.57675">
        <ele>701</ele>
        <time>2012-11-04T09:33:36Z</time>
      </trkpt>
      <trkpt lat="45.26607" lon="5.57678">
        <ele>701</ele>
        <time>2012-11-04T09:33:37Z</time>
      </trkpt>
      <trkpt lat="45.26608" lon="5.57682">
        <ele>701</ele>
        <time>2012-11-04T09:33:38Z</time>
      </trkpt>
      <trkpt lat="45.26609" lon="5.57687">
        <ele>700</ele>
        <time>2012-11-04T09:33:39Z</time>
      </trkpt>
      <trkpt lat="45.26609" lon="5.57691">
        <ele>700</ele>
        <time>2012-11-04T09:33:40Z</time>
      </trkpt>
      <trkpt lat="45.2661" lon="5.57694">
        <ele>700</ele>
        <time>2012-11-04T09:33:41Z</time>
      </trkpt>
      <trkpt lat="45.26611" lon="5.57698">
        <ele>700</ele>
        <time>2012-11-04T09:33:42Z</time>
      </trkpt>
      <trkpt lat="45.26611" lon="5.57703">
        <ele>699</ele>
        <time>2012-11-04T09:33:43Z</time>
      </trkpt>
      <trkpt lat="45.26612" lon="5.57706">
        <ele>700</ele>
        <time>2012-11-04T09:33:44Z</time>
      </trkpt>
      <trkpt lat="45.26612" lon="5.57711">
        <ele>698</ele>
        <time>2012-11-04T09:33:45Z</time>
      </trkpt>
      <trkpt lat="45.26612" lon="5.57716">
        <ele>697</ele>
        <time>2012-11-04T09:33:46Z</time>
      </trkpt>
      <trkpt lat="45.26613" lon="5.5772">
        <ele>697</ele>
        <time>2012-11-04T09:33:47Z</time>
      </trkpt>
      <trkpt lat="45.26614" lon="5.57725">
        <ele>699</ele>
        <time>2012-11-04T09:33:48Z</time>
      </trkpt>
      <trkpt lat="45.26614" lon="5.5773">
        <ele>699</ele>
        <time>2012-11-04T09:33:49Z</time>
      </trkpt>
      <trkpt lat="45.26615" lon="5.57734">
        <ele>700</ele>
        <time>2012-11-04T09:33:50Z</time>
      </trkpt>
      <trkpt lat="45.26615" lon="5.57737">
        <ele>700</ele>
        <time>2012-11-04T09:33:51Z</time>
      </trkpt>
      <trkpt lat="45.26615" lon="5.5774">
        <ele>701</ele>
        <time>2012-11-04T09:33:52Z</time>
      </trkpt>
      <trkpt lat="45.26615" lon="5.57742">
        <ele>702</ele>
        <time>2012-11-04T09:33:53Z</time>
      </trkpt>
      <trkpt lat="45.26615" lon="5.57745">
        <ele>702</ele>
        <time>2012-11-04T09:33:54Z</time>
      </trkpt>
      <trkpt lat="45.26615" lon="5.57747">
        <ele>701</ele>
        <time>2012-11-04T09:33:55Z</time>
      </trkpt>
      <trkpt lat="45.26614" lon="5.5775">
        <ele>701</ele>
        <time>2012-11-04T09:33:56Z</time>
      </trkpt>
      <trkpt lat="45.26614" lon="5.57752">
        <ele>704</ele>
        <time>2012-11-04T09:33:57Z</time>
      </trkpt>
      <trkpt lat="45.26613" lon="5.57754">
        <ele>706</ele>
        <time>2012-11-04T09:33:58Z</time>
      </trkpt>
      <trkpt lat="45.26612" lon="5.57755">
        <ele>707</ele>
        <time>2012-11-04T09:33:59Z</time>
      </trkpt>
      <trkpt lat="45.26611" lon="5.57757">
        <ele>707</ele>
        <time>2012-11-04T09:34:00Z</time>
      </trkpt>
      <trkpt lat="45.2661" lon="5.57758">
        <ele>708</ele>
        <time>2012-11-04T09:34:01Z</time>
      </trkpt>
      <trkpt lat="45.26608" lon="5.5776">
        <ele>709</ele>
        <time>2012-11-04T09:34:02Z</time>
      </trkpt>
      <trkpt lat="45.26607" lon="5.57762">
        <ele>709</ele>
        <time>2012-11-04T09:34:03Z</time>
      </trkpt>
      <trkpt lat="45.26606" lon="5.57764">
        <ele>709</ele>
        <time>2012-11-04T09:34:04Z</time>
      </trkpt>
      <trkpt lat="45.26606" lon="5.57767">
        <ele>711</ele>
        <time>2012-11-04T09:34:05Z</time>
      </trkpt>
      <trkpt lat="45.26606" lon="5.5777">
        <ele>712</ele>
        <time>2012-11-04T09:34:06Z</time>
      </trkpt>
      <trkpt lat="45.26606" lon="5.57774">
        <ele>713</ele>
        <time>2012-11-04T09:34:07Z</time>
      </trkpt>
      <trkpt lat="45.26606" lon="5.57778">
        <ele>713</ele>
        <time>2012-11-04T09:34:08Z</time>
      </trkpt>
      <trkpt lat="45.26607" lon="5.57781">
        <ele>714</ele>
        <time>2012-11-04T09:34:09Z</time>
      </trkpt>
      <trkpt lat="45.26608" lon="5.57785">
        <ele>715</ele>
        <time>2012-11-04T09:34:10Z</time>
      </trkpt>
      <trkpt lat="45.26608" lon="5.57788">
        <ele>715</ele>
        <time>2012-11-04T09:34:11Z</time>
      </trkpt>
      <trkpt lat="45.26609" lon="5.57793">
        <ele>714</ele>
        <time>2012-11-04T09:34:12Z</time>
      </trkpt>
      <trkpt lat="45.26611" lon="5.57798">
        <ele>714</ele>
        <time>2012-11-04T09:34:13Z</time>
      </trkpt>
      <trkpt lat="45.26613" lon="5.57802">
        <ele>714</ele>
        <time>2012-11-04T09:34:14Z</time>
      </trkpt>
      <trkpt lat="45.26613" lon="5.57807">
        <ele>715</ele>
        <time>2012-11-04T09:34:15Z</time>
      </trkpt>
      <trkpt lat="45.26614" lon="5.5781">
        <ele>717</ele>
        <time>2012-11-04T09:34:16Z</time>
      </trkpt>
      <trkpt lat="45.26615" lon="5.57812">
        <ele>719</ele>
        <time>2012-11-04T09:34:17Z</time>
      </trkpt>
      <trkpt lat="45.26616" lon="5.57814">
        <ele>719</ele>
        <time>2012-11-04T09:34:18Z</time>
      </trkpt>
      <trkpt lat="45.26618" lon="5.57817">
        <ele>717</ele>
        <time>2012-11-04T09:34:19Z</time>
      </trkpt>
      <trkpt lat="45.26619" lon="5.5782">
        <ele>719</ele>
        <time>2012-11-04T09:34:20Z</time>
      </trkpt>
      <trkpt lat="45.26621" lon="5.57824">
        <ele>719</ele>
        <time>2012-11-04T09:34:21Z</time>
      </trkpt>
      <trkpt lat="45.26623" lon="5.57829">
        <ele>719</ele>
        <time>2012-11-04T09:34:22Z</time>
      </trkpt>
      <trkpt lat="45.26625" lon="5.57832">
        <ele>719</ele>
        <time>2012-11-04T09:34:23Z</time>
      </trkpt>
      <trkpt lat="45.26626" lon="5.57834">
        <ele>720</ele>
        <time>2012-11-04T09:34:24Z</time>
      </trkpt>
      <trkpt lat="45.26627" lon="5.57837">
        <ele>719</ele>
        <time>2012-11-04T09:34:25Z</time>
      </trkpt>
      <trkpt lat="45.26628" lon="5.57838">
        <ele>720</ele>
        <time>2012-11-04T09:34:26Z</time>
      </trkpt>
      <trkpt lat="45.26628" lon="5.5784">
        <ele>721</ele>
        <time>2012-11-04T09:34:27Z</time>
      </trkpt>
      <trkpt lat="45.26628" lon="5.57841">
        <ele>721</ele>
        <time>2012-11-04T09:34:28Z</time>
      </trkpt>
      <trkpt lat="45.26628" lon="5.57842">
        <ele>722</ele>
        <time>2012-11-04T09:34:29Z</time>
      </trkpt>
      <trkpt lat="45.26628" lon="5.57844">
        <ele>722</ele>
        <time>2012-11-04T09:34:30Z</time>
      </trkpt>
      <trkpt lat="45.26627" lon="5.57846">
        <ele>722</ele>
        <time>2012-11-04T09:34:31Z</time>
      </trkpt>
      <trkpt lat="45.26627" lon="5.57849">
        <ele>723</ele>
        <time>2012-11-04T09:34:32Z</time>
      </trkpt>
      <trkpt lat="45.26626" lon="5.57853">
        <ele>723</ele>
        <time>2012-11-04T09:34:33Z</time>
      </trkpt>
      <trkpt lat="45.26625" lon="5.57856">
        <ele>723</ele>
        <time>2012-11-04T09:34:34Z</time>
      </trkpt>
      <trkpt lat="45.26624" lon="5.57859">
        <ele>724</ele>
        <time>2012-11-04T09:34:35Z</time>
      </trkpt>
      <trkpt lat="45.26624" lon="5.57861">
        <ele>724</ele>
        <time>2012-11-04T09:34:36Z</time>
      </trkpt>
      <trkpt lat="45.26623" lon="5.57863">
        <ele>725</ele>
        <time>2012-11-04T09:34:37Z</time>
      </trkpt>
      <trkpt lat="45.26622" lon="5.57865">
        <ele>725</ele>
        <time>2012-11-04T09:34:38Z</time>
      </trkpt>
      <trkpt lat="45.26622" lon="5.57867">
        <ele>726</ele>
        <time>2012-11-04T09:34:39Z</time>
      </trkpt>
      <trkpt lat="45.26621" lon="5.57869">
        <ele>726</ele>
        <time>2012-11-04T09:34:40Z</time>
      </trkpt>
      <trkpt lat="45.2662" lon="5.57871">
        <ele>726</ele>
        <time>2012-11-04T09:34:41Z</time>
      </trkpt>
      <trkpt lat="45.26619" lon="5.57873">
        <ele>725</ele>
        <time>2012-11-04T09:34:42Z</time>
      </trkpt>
      <trkpt lat="45.26617" lon="5.57876">
        <ele>727</ele>
        <time>2012-11-04T09:34:43Z</time>
      </trkpt>
      <trkpt lat="45.26615" lon="5.57878">
        <ele>727</ele>
        <time>2012-11-04T09:34:44Z</time>
      </trkpt>
      <trkpt lat="45.26613" lon="5.57881">
        <ele>727</ele>
        <time>2012-11-04T09:34:45Z</time>
      </trkpt>
      <trkpt lat="45.26611" lon="5.57884">
        <ele>729</ele>
        <time>2012-11-04T09:34:46Z</time>
      </trkpt>
      <trkpt lat="45.2661" lon="5.57885">
        <ele>730</ele>
        <time>2012-11-04T09:34:47Z</time>
      </trkpt>
      <trkpt lat="45.26607" lon="5.57888">
        <ele>730</ele>
        <time>2012-11-04T09:34:48Z</time>
      </trkpt>
      <trkpt lat="45.26605" lon="5.57891">
        <ele>731</ele>
        <time>2012-11-04T09:34:49Z</time>
      </trkpt>
      <trkpt lat="45.26603" lon="5.57893">
        <ele>731</ele>
        <time>2012-11-04T09:34:50Z</time>
      </trkpt>
      <trkpt lat="45.26601" lon="5.57899">
        <ele>729</ele>
        <time>2012-11-04T09:34:51Z</time>
      </trkpt>
      <trkpt lat="45.26598" lon="5.57902">
        <ele>729</ele>
        <time>2012-11-04T09:34:52Z</time>
      </trkpt>
      <trkpt lat="45.26596" lon="5.57905">
        <ele>728</ele>
        <time>2012-11-04T09:34:53Z</time>
      </trkpt>
      <trkpt lat="45.26594" lon="5.57909">
        <ele>727</ele>
        <time>2012-11-04T09:34:54Z</time>
      </trkpt>
      <trkpt lat="45.26593" lon="5.57913">
        <ele>725</ele>
        <time>2012-11-04T09:34:55Z</time>
      </trkpt>
      <trkpt lat="45.26592" lon="5.57917">
        <ele>722</ele>
        <time>2012-11-04T09:34:56Z</time>
      </trkpt>
      <trkpt lat="45.26593" lon="5.57921">
        <ele>723</ele>
        <time>2012-11-04T09:34:57Z</time>
      </trkpt>
      <trkpt lat="45.26593" lon="5.57926">
        <ele>718</ele>
        <time>2012-11-04T09:34:58Z</time>
      </trkpt>
      <trkpt lat="45.26594" lon="5.57932">
        <ele>715</ele>
        <time>2012-11-04T09:34:59Z</time>
      </trkpt>
      <trkpt lat="45.26595" lon="5.57936">
        <ele>716</ele>
        <time>2012-11-04T09:35:00Z</time>
      </trkpt>
      <trkpt lat="45.26596" lon="5.5794">
        <ele>716</ele>
        <time>2012-11-04T09:35:01Z</time>
      </trkpt>
      <trkpt lat="45.26598" lon="5.57944">
        <ele>716</ele>
        <time>2012-11-04T09:35:02Z</time>
      </trkpt>
      <trkpt lat="45.266" lon="5.57947">
        <ele>717</ele>
        <time>2012-11-04T09:35:03Z</time>
      </trkpt>
      <trkpt lat="45.26601" lon="5.57949">
        <ele>717</ele>
        <time>2012-11-04T09:35:04Z</time>
      </trkpt>
      <trkpt lat="45.26602" lon="5.5795">
        <ele>717</ele>
        <time>2012-11-04T09:35:05Z</time>
      </trkpt>
      <trkpt lat="45.26604" lon="5.57952">
        <ele>717</ele>
        <time>2012-11-04T09:35:06Z</time>
      </trkpt>
      <trkpt lat="45.26605" lon="5.57952">
        <ele>718</ele>
        <time>2012-11-04T09:35:07Z</time>
      </trkpt>
      <trkpt lat="45.26607" lon="5.57953">
        <ele>718</ele>
        <time>2012-11-04T09:35:08Z</time>
      </trkpt>
      <trkpt lat="45.26609" lon="5.57953">
        <ele>718</ele>
        <time>2012-11-04T09:35:09Z</time>
      </trkpt>
      <trkpt lat="45.26612" lon="5.57952">
        <ele>719</ele>
        <time>2012-11-04T09:35:11Z</time>
      </trkpt>
      <trkpt lat="45.26614" lon="5.57952">
        <ele>719</ele>
        <time>2012-11-04T09:35:12Z</time>
      </trkpt>
      <trkpt lat="45.26615" lon="5.5795">
        <ele>719</ele>
        <time>2012-11-04T09:35:13Z</time>
      </trkpt>
      <trkpt lat="45.26616" lon="5.57949">
        <ele>719</ele>
        <time>2012-11-04T09:35:14Z</time>
      </trkpt>
      <trkpt lat="45.26618" lon="5.57948">
        <ele>719</ele>
        <time>2012-11-04T09:35:15Z</time>
      </trkpt>
      <trkpt lat="45.26619" lon="5.57948">
        <ele>720</ele>
        <time>2012-11-04T09:35:16Z</time>
      </trkpt>
      <trkpt lat="45.2662" lon="5.57947">
        <ele>720</ele>
        <time>2012-11-04T09:35:17Z</time>
      </trkpt>
      <trkpt lat="45.26621" lon="5.57946">
        <ele>720</ele>
        <time>2012-11-04T09:35:18Z</time>
      </trkpt>
      <trkpt lat="45.26623" lon="5.57945">
        <ele>722</ele>
        <time>2012-11-04T09:35:19Z</time>
      </trkpt>
      <trkpt lat="45.26624" lon="5.57943">
        <ele>725</ele>
        <time>2012-11-04T09:35:20Z</time>
      </trkpt>
      <trkpt lat="45.26626" lon="5.57941">
        <ele>724</ele>
        <time>2012-11-04T09:35:21Z</time>
      </trkpt>
      <trkpt lat="45.26627" lon="5.5794">
        <ele>724</ele>
        <time>2012-11-04T09:35:22Z</time>
      </trkpt>
      <trkpt lat="45.26628" lon="5.5794">
        <ele>725</ele>
        <time>2012-11-04T09:35:23Z</time>
      </trkpt>
      <trkpt lat="45.2663" lon="5.5794">
        <ele>724</ele>
        <time>2012-11-04T09:35:25Z</time>
      </trkpt>
      <trkpt lat="45.2663" lon="5.57941">
        <ele>726</ele>
        <time>2012-11-04T09:35:26Z</time>
      </trkpt>
      <trkpt lat="45.26631" lon="5.57941">
        <ele>727</ele>
        <time>2012-11-04T09:35:27Z</time>
      </trkpt>
      <trkpt lat="45.26631" lon="5.57943">
        <ele>727</ele>
        <time>2012-11-04T09:35:28Z</time>
      </trkpt>
      <trkpt lat="45.26632" lon="5.57944">
        <ele>727</ele>
        <time>2012-11-04T09:35:29Z</time>
      </trkpt>
      <trkpt lat="45.26632" lon="5.57945">
        <ele>725</ele>
        <time>2012-11-04T09:35:30Z</time>
      </trkpt>
      <trkpt lat="45.26633" lon="5.57946">
        <ele>724</ele>
        <time>2012-11-04T09:35:31Z</time>
      </trkpt>
      <trkpt lat="45.26633" lon="5.57947">
        <ele>725</ele>
        <time>2012-11-04T09:35:32Z</time>
      </trkpt>
      <trkpt lat="45.26634" lon="5.57948">
        <ele>726</ele>
        <time>2012-11-04T09:35:33Z</time>
      </trkpt>
      <trkpt lat="45.26635" lon="5.57949">
        <ele>726</ele>
        <time>2012-11-04T09:35:34Z</time>
      </trkpt>
      <trkpt lat="45.26635" lon="5.57951">
        <ele>727</ele>
        <time>2012-11-04T09:35:35Z</time>
      </trkpt>
      <trkpt lat="45.26636" lon="5.57952">
        <ele>728</ele>
        <time>2012-11-04T09:35:36Z</time>
      </trkpt>
      <trkpt lat="45.26637" lon="5.57954">
        <ele>728</ele>
        <time>2012-11-04T09:35:37Z</time>
      </trkpt>
      <trkpt lat="45.26637" lon="5.57955">
        <ele>728</ele>
        <time>2012-11-04T09:35:38Z</time>
      </trkpt>
      <trkpt lat="45.26638" lon="5.57957">
        <ele>728</ele>
        <time>2012-11-04T09:35:39Z</time>
      </trkpt>
      <trkpt lat="45.26638" lon="5.57959">
        <ele>728</ele>
        <time>2012-11-04T09:35:40Z</time>
      </trkpt>
      <trkpt lat="45.26638" lon="5.57962">
        <ele>728</ele>
        <time>2012-11-04T09:35:41Z</time>
      </trkpt>
      <trkpt lat="45.26639" lon="5.57964">
        <ele>728</ele>
        <time>2012-11-04T09:35:42Z</time>
      </trkpt>
      <trkpt lat="45.2664" lon="5.57968">
        <ele>727</ele>
        <time>2012-11-04T09:35:43Z</time>
      </trkpt>
      <trkpt lat="45.2664" lon="5.5797">
        <ele>726</ele>
        <time>2012-11-04T09:35:44Z</time>
      </trkpt>
      <trkpt lat="45.26641" lon="5.57973">
        <ele>726</ele>
        <time>2012-11-04T09:35:45Z</time>
      </trkpt>
      <trkpt lat="45.26641" lon="5.57976">
        <ele>725</ele>
        <time>2012-11-04T09:35:46Z</time>
      </trkpt>
      <trkpt lat="45.26641" lon="5.57977">
        <ele>726</ele>
        <time>2012-11-04T09:35:47Z</time>
      </trkpt>
      <trkpt lat="45.26641" lon="5.57979">
        <ele>725</ele>
        <time>2012-11-04T09:35:48Z</time>
      </trkpt>
      <trkpt lat="45.26642" lon="5.57981">
        <ele>726</ele>
        <time>2012-11-04T09:35:49Z</time>
      </trkpt>
      <trkpt lat="45.26641" lon="5.57983">
        <ele>727</ele>
        <time>2012-11-04T09:35:50Z</time>
      </trkpt>
      <trkpt lat="45.26641" lon="5.57984">
        <ele>728</ele>
        <time>2012-11-04T09:35:51Z</time>
      </trkpt>
      <trkpt lat="45.26642" lon="5.57985">
        <ele>729</ele>
        <time>2012-11-04T09:35:52Z</time>
      </trkpt>
      <trkpt lat="45.26641" lon="5.57987">
        <ele>729</ele>
        <time>2012-11-04T09:35:53Z</time>
      </trkpt>
      <trkpt lat="45.26641" lon="5.57988">
        <ele>728</ele>
        <time>2012-11-04T09:35:54Z</time>
      </trkpt>
      <trkpt lat="45.26642" lon="5.5799">
        <ele>728</ele>
        <time>2012-11-04T09:35:55Z</time>
      </trkpt>
      <trkpt lat="45.26642" lon="5.57992">
        <ele>728</ele>
        <time>2012-11-04T09:35:56Z</time>
      </trkpt>
      <trkpt lat="45.26642" lon="5.57993">
        <ele>729</ele>
        <time>2012-11-04T09:35:57Z</time>
      </trkpt>
      <trkpt lat="45.26643" lon="5.57995">
        <ele>729</ele>
        <time>2012-11-04T09:35:58Z</time>
      </trkpt>
      <trkpt lat="45.26644" lon="5.57997">
        <ele>729</ele>
        <time>2012-11-04T09:35:59Z</time>
      </trkpt>
      <trkpt lat="45.26644" lon="5.57999">
        <ele>727</ele>
        <time>2012-11-04T09:36:00Z</time>
      </trkpt>
      <trkpt lat="45.26645" lon="5.58001">
        <ele>727</ele>
        <time>2012-11-04T09:36:01Z</time>
      </trkpt>
      <trkpt lat="45.26646" lon="5.58002">
        <ele>728</ele>
        <time>2012-11-04T09:36:02Z</time>
      </trkpt>
      <trkpt lat="45.26647" lon="5.58004">
        <ele>728</ele>
        <time>2012-11-04T09:36:03Z</time>
      </trkpt>
      <trkpt lat="45.26648" lon="5.58005">
        <ele>729</ele>
        <time>2012-11-04T09:36:04Z</time>
      </trkpt>
      <trkpt lat="45.26649" lon="5.58006">
        <ele>729</ele>
        <time>2012-11-04T09:36:05Z</time>
      </trkpt>
      <trkpt lat="45.2665" lon="5.58007">
        <ele>730</ele>
        <time>2012-11-04T09:36:06Z</time>
      </trkpt>
      <trkpt lat="45.26651" lon="5.58007">
        <ele>731</ele>
        <time>2012-11-04T09:36:07Z</time>
      </trkpt>
      <trkpt lat="45.26652" lon="5.58008">
        <ele>730</ele>
        <time>2012-11-04T09:36:08Z</time>
      </trkpt>
      <trkpt lat="45.26653" lon="5.58009">
        <ele>731</ele>
        <time>2012-11-04T09:36:09Z</time>
      </trkpt>
      <trkpt lat="45.26653" lon="5.58008">
        <ele>732</ele>
        <time>2012-11-04T09:36:10Z</time>
      </trkpt>
      <trkpt lat="45.26653" lon="5.58008">
        <ele>731</ele>
        <time>2012-11-04T09:36:11Z</time>
      </trkpt>
      <trkpt lat="45.26655" lon="5.58008">
        <ele>733</ele>
        <time>2012-11-04T09:36:13Z</time>
      </trkpt>
      <trkpt lat="45.26656" lon="5.58009">
        <ele>734</ele>
        <time>2012-11-04T09:36:14Z</time>
      </trkpt>
      <trkpt lat="45.26657" lon="5.58009">
        <ele>735</ele>
        <time>2012-11-04T09:36:15Z</time>
      </trkpt>
      <trkpt lat="45.26657" lon="5.5801">
        <ele>735</ele>
        <time>2012-11-04T09:36:16Z</time>
      </trkpt>
      <trkpt lat="45.26658" lon="5.5801">
        <ele>735</ele>
        <time>2012-11-04T09:36:17Z</time>
      </trkpt>
      <trkpt lat="45.26659" lon="5.5801">
        <ele>736</ele>
        <time>2012-11-04T09:36:18Z</time>
      </trkpt>
      <trkpt lat="45.26659" lon="5.58011">
        <ele>735</ele>
        <time>2012-11-04T09:36:19Z</time>
      </trkpt>
      <trkpt lat="45.2666" lon="5.58011">
        <ele>735</ele>
        <time>2012-11-04T09:36:20Z</time>
      </trkpt>
      <trkpt lat="45.2666" lon="5.5801">
        <ele>735</ele>
        <time>2012-11-04T09:36:21Z</time>
      </trkpt>
      <trkpt lat="45.2666" lon="5.58009">
        <ele>735</ele>
        <time>2012-11-04T09:36:22Z</time>
      </trkpt>
      <trkpt lat="45.2666" lon="5.58009">
        <ele>735</ele>
        <time>2012-11-04T09:36:23Z</time>
      </trkpt>
      <trkpt lat="45.26658" lon="5.5801">
        <ele>740</ele>
        <time>2012-11-04T09:36:24Z</time>
      </trkpt>
      <trkpt lat="45.26656" lon="5.5801">
        <ele>740</ele>
        <time>2012-11-04T09:36:25Z</time>
      </trkpt>
      <trkpt lat="45.26654" lon="5.58011">
        <ele>742</ele>
        <time>2012-11-04T09:36:26Z</time>
      </trkpt>
      <trkpt lat="45.26653" lon="5.58011">
        <ele>741</ele>
        <time>2012-11-04T09:36:27Z</time>
      </trkpt>
      <trkpt lat="45.26652" lon="5.58011">
        <ele>741</ele>
        <time>2012-11-04T09:36:28Z</time>
      </trkpt>
      <trkpt lat="45.26651" lon="5.58011">
        <ele>741</ele>
        <time>2012-11-04T09:36:29Z</time>
      </trkpt>
      <trkpt lat="45.2665" lon="5.58011">
        <ele>742</ele>
        <time>2012-11-04T09:36:30Z</time>
      </trkpt>
      <trkpt lat="45.26653" lon="5.5801">
        <ele>741</ele>
        <time>2012-11-04T09:36:31Z</time>
      </trkpt>
      <trkpt lat="45.26654" lon="5.58009">
        <ele>741</ele>
        <time>2012-11-04T09:36:32Z</time>
      </trkpt>
      <trkpt lat="45.26657" lon="5.58008">
        <ele>741</ele>
        <time>2012-11-04T09:36:33Z</time>
      </trkpt>
      <trkpt lat="45.2666" lon="5.58008">
        <ele>741</ele>
        <time>2012-11-04T09:36:34Z</time>
      </trkpt>
      <trkpt lat="45.26662" lon="5.58008">
        <ele>741</ele>
        <time>2012-11-04T09:36:35Z</time>
      </trkpt>
      <trkpt lat="45.26664" lon="5.58009">
        <ele>742</ele>
        <time>2012-11-04T09:36:36Z</time>
      </trkpt>
      <trkpt lat="45.26666" lon="5.5801">
        <ele>741</ele>
        <time>2012-11-04T09:36:37Z</time>
      </trkpt>
      <trkpt lat="45.26668" lon="5.5801">
        <ele>740</ele>
        <time>2012-11-04T09:36:38Z</time>
      </trkpt>
      <trkpt lat="45.26669" lon="5.5801">
        <ele>741</ele>
        <time>2012-11-04T09:36:39Z</time>
      </trkpt>
      <trkpt lat="45.2667" lon="5.5801">
        <ele>741</ele>
        <time>2012-11-04T09:36:40Z</time>
      </trkpt>
      <trkpt lat="45.26683" lon="5.58011">
        <ele>744</ele>
        <time>2012-11-04T09:36:47Z</time>
      </trkpt>
      <trkpt lat="45.26685" lon="5.58012">
        <ele>745</ele>
        <time>2012-11-04T09:36:48Z</time>
      </trkpt>
      <trkpt lat="45.26687" lon="5.58014">
        <ele>744</ele>
        <time>2012-11-04T09:36:49Z</time>
      </trkpt>
      <trkpt lat="45.26689" lon="5.58016">
        <ele>744</ele>
        <time>2012-11-04T09:36:50Z</time>
      </trkpt>
      <trkpt lat="45.2669" lon="5.58017">
        <ele>744</ele>
        <time>2012-11-04T09:36:51Z</time>
      </trkpt>
      <trkpt lat="45.26692" lon="5.58019">
        <ele>744</ele>
        <time>2012-11-04T09:36:52Z</time>
      </trkpt>
      <trkpt lat="45.26694" lon="5.5802">
        <ele>744</ele>
        <time>2012-11-04T09:36:53Z</time>
      </trkpt>
      <trkpt lat="45.26696" lon="5.58022">
        <ele>745</ele>
        <time>2012-11-04T09:36:54Z</time>
      </trkpt>
      <trkpt lat="45.26699" lon="5.58024">
        <ele>744</ele>
        <time>2012-11-04T09:36:55Z</time>
      </trkpt>
      <trkpt lat="45.26701" lon="5.58026">
        <ele>746</ele>
        <time>2012-11-04T09:36:56Z</time>
      </trkpt>
      <trkpt lat="45.26704" lon="5.58027">
        <ele>748</ele>
        <time>2012-11-04T09:36:57Z</time>
      </trkpt>
      <trkpt lat="45.26705" lon="5.58028">
        <ele>749</ele>
        <time>2012-11-04T09:36:58Z</time>
      </trkpt>
      <trkpt lat="45.26709" lon="5.5803">
        <ele>750</ele>
        <time>2012-11-04T09:36:59Z</time>
      </trkpt>
      <trkpt lat="45.2671" lon="5.58031">
        <ele>751</ele>
        <time>2012-11-04T09:37:00Z</time>
      </trkpt>
      <trkpt lat="45.26713" lon="5.58032">
        <ele>749</ele>
        <time>2012-11-04T09:37:01Z</time>
      </trkpt>
      <trkpt lat="45.26716" lon="5.58033">
        <ele>750</ele>
        <time>2012-11-04T09:37:02Z</time>
      </trkpt>
      <trkpt lat="45.26719" lon="5.58033">
        <ele>751</ele>
        <time>2012-11-04T09:37:03Z</time>
      </trkpt>
      <trkpt lat="45.26721" lon="5.58034">
        <ele>751</ele>
        <time>2012-11-04T09:37:04Z</time>
      </trkpt>
      <trkpt lat="45.26724" lon="5.58034">
        <ele>752</ele>
        <time>2012-11-04T09:37:05Z</time>
      </trkpt>
      <trkpt lat="45.26726" lon="5.58034">
        <ele>753</ele>
        <time>2012-11-04T09:37:06Z</time>
      </trkpt>
      <trkpt lat="45.26729" lon="5.58036">
        <ele>755</ele>
        <time>2012-11-04T09:37:07Z</time>
      </trkpt>
      <trkpt lat="45.26731" lon="5.58037">
        <ele>756</ele>
        <time>2012-11-04T09:37:08Z</time>
      </trkpt>
      <trkpt lat="45.26733" lon="5.58039">
        <ele>755</ele>
        <time>2012-11-04T09:37:09Z</time>
      </trkpt>
      <trkpt lat="45.26735" lon="5.58041">
        <ele>756</ele>
        <time>2012-11-04T09:37:10Z</time>
      </trkpt>
      <trkpt lat="45.26737" lon="5.58043">
        <ele>756</ele>
        <time>2012-11-04T09:37:11Z</time>
      </trkpt>
      <trkpt lat="45.26738" lon="5.58045">
        <ele>759</ele>
        <time>2012-11-04T09:37:12Z</time>
      </trkpt>
      <trkpt lat="45.2674" lon="5.58047">
        <ele>759</ele>
        <time>2012-11-04T09:37:13Z</time>
      </trkpt>
      <trkpt lat="45.26741" lon="5.58049">
        <ele>758</ele>
        <time>2012-11-04T09:37:14Z</time>
      </trkpt>
      <trkpt lat="45.26743" lon="5.58051">
        <ele>759</ele>
        <time>2012-11-04T09:37:15Z</time>
      </trkpt>
      <trkpt lat="45.26744" lon="5.58053">
        <ele>759</ele>
        <time>2012-11-04T09:37:16Z</time>
      </trkpt>
      <trkpt lat="45.26745" lon="5.58055">
        <ele>758</ele>
        <time>2012-11-04T09:37:17Z</time>
      </trkpt>
      <trkpt lat="45.26747" lon="5.58057">
        <ele>759</ele>
        <time>2012-11-04T09:37:18Z</time>
      </trkpt>
      <trkpt lat="45.26748" lon="5.58059">
        <ele>759</ele>
        <time>2012-11-04T09:37:19Z</time>
      </trkpt>
      <trkpt lat="45.2675" lon="5.58061">
        <ele>758</ele>
        <time>2012-11-04T09:37:20Z</time>
      </trkpt>
      <trkpt lat="45.26751" lon="5.58062">
        <ele>758</ele>
        <time>2012-11-04T09:37:21Z</time>
      </trkpt>
      <trkpt lat="45.26752" lon="5.58063">
        <ele>758</ele>
        <time>2012-11-04T09:37:22Z</time>
      </trkpt>
      <trkpt lat="45.26754" lon="5.58064">
        <ele>758</ele>
        <time>2012-11-04T09:37:23Z</time>
      </trkpt>
      <trkpt lat="45.26755" lon="5.58065">
        <ele>758</ele>
        <time>2012-11-04T09:37:24Z</time>
      </trkpt>
      <trkpt lat="45.26756" lon="5.58067">
        <ele>758</ele>
        <time>2012-11-04T09:37:25Z</time>
      </trkpt>
      <trkpt lat="45.26756" lon="5.58068">
        <ele>758</ele>
        <time>2012-11-04T09:37:26Z</time>
      </trkpt>
      <trkpt lat="45.26758" lon="5.58069">
        <ele>757</ele>
        <time>2012-11-04T09:37:27Z</time>
      </trkpt>
      <trkpt lat="45.26759" lon="5.58071">
        <ele>757</ele>
        <time>2012-11-04T09:37:28Z</time>
      </trkpt>
      <trkpt lat="45.2676" lon="5.58074">
        <ele>758</ele>
        <time>2012-11-04T09:37:29Z</time>
      </trkpt>
      <trkpt lat="45.26762" lon="5.58077">
        <ele>758</ele>
        <time>2012-11-04T09:37:30Z</time>
      </trkpt>
      <trkpt lat="45.26763" lon="5.58081">
        <ele>758</ele>
        <time>2012-11-04T09:37:31Z</time>
      </trkpt>
      <trkpt lat="45.26764" lon="5.58084">
        <ele>758</ele>
        <time>2012-11-04T09:37:32Z</time>
      </trkpt>
      <trkpt lat="45.26765" lon="5.58088">
        <ele>757</ele>
        <time>2012-11-04T09:37:33Z</time>
      </trkpt>
      <trkpt lat="45.26766" lon="5.58093">
        <ele>757</ele>
        <time>2012-11-04T09:37:34Z</time>
      </trkpt>
      <trkpt lat="45.26763" lon="5.58098">
        <ele>755</ele>
        <time>2012-11-04T09:37:35Z</time>
      </trkpt>
      <trkpt lat="45.26763" lon="5.58098">
        <ele>755</ele>
        <time>2012-11-04T09:37:36Z</time>
      </trkpt>
      <trkpt lat="45.26763" lon="5.58098">
        <ele>754</ele>
        <time>2012-11-04T09:37:37Z</time>
      </trkpt>
      <trkpt lat="45.26761" lon="5.58104">
        <ele>754</ele>
        <time>2012-11-04T09:37:38Z</time>
      </trkpt>
      <trkpt lat="45.26761" lon="5.58107">
        <ele>754</ele>
        <time>2012-11-04T09:37:39Z</time>
      </trkpt>
      <trkpt lat="45.26761" lon="5.58108">
        <ele>755</ele>
        <time>2012-11-04T09:37:40Z</time>
      </trkpt>
      <trkpt lat="45.26761" lon="5.58109">
        <ele>755</ele>
        <time>2012-11-04T09:37:41Z</time>
      </trkpt>
      <trkpt lat="45.26762" lon="5.58111">
        <ele>754</ele>
        <time>2012-11-04T09:37:42Z</time>
      </trkpt>
      <trkpt lat="45.26762" lon="5.58113">
        <ele>754</ele>
        <time>2012-11-04T09:37:43Z</time>
      </trkpt>
      <trkpt lat="45.26763" lon="5.58116">
        <ele>755</ele>
        <time>2012-11-04T09:37:44Z</time>
      </trkpt>
      <trkpt lat="45.26764" lon="5.58118">
        <ele>753</ele>
        <time>2012-11-04T09:37:45Z</time>
      </trkpt>
      <trkpt lat="45.26765" lon="5.58122">
        <ele>753</ele>
        <time>2012-11-04T09:37:46Z</time>
      </trkpt>
      <trkpt lat="45.26766" lon="5.58124">
        <ele>754</ele>
        <time>2012-11-04T09:37:47Z</time>
      </trkpt>
      <trkpt lat="45.26768" lon="5.58128">
        <ele>755</ele>
        <time>2012-11-04T09:37:48Z</time>
      </trkpt>
      <trkpt lat="45.26769" lon="5.5813">
        <ele>758</ele>
        <time>2012-11-04T09:37:49Z</time>
      </trkpt>
      <trkpt lat="45.2677" lon="5.58133">
        <ele>758</ele>
        <time>2012-11-04T09:37:50Z</time>
      </trkpt>
      <trkpt lat="45.26771" lon="5.58135">
        <ele>758</ele>
        <time>2012-11-04T09:37:51Z</time>
      </trkpt>
      <trkpt lat="45.26772" lon="5.58137">
        <ele>758</ele>
        <time>2012-11-04T09:37:52Z</time>
      </trkpt>
      <trkpt lat="45.26774" lon="5.5814">
        <ele>758</ele>
        <time>2012-11-04T09:37:53Z</time>
      </trkpt>
      <trkpt lat="45.26775" lon="5.58142">
        <ele>758</ele>
        <time>2012-11-04T09:37:54Z</time>
      </trkpt>
      <trkpt lat="45.26776" lon="5.58145">
        <ele>757</ele>
        <time>2012-11-04T09:37:55Z</time>
      </trkpt>
      <trkpt lat="45.26778" lon="5.58147">
        <ele>757</ele>
        <time>2012-11-04T09:37:56Z</time>
      </trkpt>
      <trkpt lat="45.26779" lon="5.58148">
        <ele>757</ele>
        <time>2012-11-04T09:37:57Z</time>
      </trkpt>
      <trkpt lat="45.26779" lon="5.58148">
        <ele>758</ele>
        <time>2012-11-04T09:37:58Z</time>
      </trkpt>
      <trkpt lat="45.26779" lon="5.58148">
        <ele>759</ele>
        <time>2012-11-04T09:37:59Z</time>
      </trkpt>
      <trkpt lat="45.26779" lon="5.58148">
        <ele>759</ele>
        <time>2012-11-04T09:38:00Z</time>
      </trkpt>
      <trkpt lat="45.26779" lon="5.58148">
        <ele>759</ele>
        <time>2012-11-04T09:38:01Z</time>
      </trkpt>
      <trkpt lat="45.26782" lon="5.5815">
        <ele>760</ele>
        <time>2012-11-04T09:38:02Z</time>
      </trkpt>
      <trkpt lat="45.26782" lon="5.58151">
        <ele>759</ele>
        <time>2012-11-04T09:38:03Z</time>
      </trkpt>
      <trkpt lat="45.26783" lon="5.58152">
        <ele>760</ele>
        <time>2012-11-04T09:38:04Z</time>
      </trkpt>
      <trkpt lat="45.26784" lon="5.58153">
        <ele>760</ele>
        <time>2012-11-04T09:38:05Z</time>
      </trkpt>
      <trkpt lat="45.26785" lon="5.58153">
        <ele>761</ele>
        <time>2012-11-04T09:38:06Z</time>
      </trkpt>
      <trkpt lat="45.26785" lon="5.58154">
        <ele>761</ele>
        <time>2012-11-04T09:38:07Z</time>
      </trkpt>
      <trkpt lat="45.26786" lon="5.58156">
        <ele>761</ele>
        <time>2012-11-04T09:38:08Z</time>
      </trkpt>
      <trkpt lat="45.26787" lon="5.58157">
        <ele>762</ele>
        <time>2012-11-04T09:38:09Z</time>
      </trkpt>
      <trkpt lat="45.26788" lon="5.58158">
        <ele>763</ele>
        <time>2012-11-04T09:38:10Z</time>
      </trkpt>
      <trkpt lat="45.26788" lon="5.58159">
        <ele>763</ele>
        <time>2012-11-04T09:38:11Z</time>
      </trkpt>
      <trkpt lat="45.26788" lon="5.5816">
        <ele>764</ele>
        <time>2012-11-04T09:38:12Z</time>
      </trkpt>
      <trkpt lat="45.26789" lon="5.58161">
        <ele>764</ele>
        <time>2012-11-04T09:38:13Z</time>
      </trkpt>
      <trkpt lat="45.26789" lon="5.58161">
        <ele>763</ele>
        <time>2012-11-04T09:38:14Z</time>
      </trkpt>
      <trkpt lat="45.26789" lon="5.58161">
        <ele>763</ele>
        <time>2012-11-04T09:38:15Z</time>
      </trkpt>
      <trkpt lat="45.26789" lon="5.58161">
        <ele>763</ele>
        <time>2012-11-04T09:38:16Z</time>
      </trkpt>
      <trkpt lat="45.26791" lon="5.58163">
        <ele>764</ele>
        <time>2012-11-04T09:38:17Z</time>
      </trkpt>
      <trkpt lat="45.26792" lon="5.58163">
        <ele>765</ele>
        <time>2012-11-04T09:38:18Z</time>
      </trkpt>
      <trkpt lat="45.26792" lon="5.58164">
        <ele>765</ele>
        <time>2012-11-04T09:38:19Z</time>
      </trkpt>
      <trkpt lat="45.26794" lon="5.58165">
        <ele>765</ele>
        <time>2012-11-04T09:38:20Z</time>
      </trkpt>
      <trkpt lat="45.26795" lon="5.58166">
        <ele>766</ele>
        <time>2012-11-04T09:38:21Z</time>
      </trkpt>
      <trkpt lat="45.26796" lon="5.58167">
        <ele>767</ele>
        <time>2012-11-04T09:38:22Z</time>
      </trkpt>
      <trkpt lat="45.26797" lon="5.58168">
        <ele>767</ele>
        <time>2012-11-04T09:38:23Z</time>
      </trkpt>
      <trkpt lat="45.26798" lon="5.58168">
        <ele>767</ele>
        <time>2012-11-04T09:38:24Z</time>
      </trkpt>
      <trkpt lat="45.26799" lon="5.58169">
        <ele>767</ele>
        <time>2012-11-04T09:38:25Z</time>
      </trkpt>
      <trkpt lat="45.268" lon="5.58169">
        <ele>767</ele>
        <time>2012-11-04T09:38:26Z</time>
      </trkpt>
      <trkpt lat="45.268" lon="5.58169">
        <ele>767</ele>
        <time>2012-11-04T09:38:27Z</time>
      </trkpt>
      <trkpt lat="45.26801" lon="5.5817">
        <ele>767</ele>
        <time>2012-11-04T09:38:28Z</time>
      </trkpt>
      <trkpt lat="45.26802" lon="5.5817">
        <ele>768</ele>
        <time>2012-11-04T09:38:29Z</time>
      </trkpt>
      <trkpt lat="45.26803" lon="5.5817">
        <ele>766</ele>
        <time>2012-11-04T09:38:30Z</time>
      </trkpt>
      <trkpt lat="45.26804" lon="5.5817">
        <ele>766</ele>
        <time>2012-11-04T09:38:31Z</time>
      </trkpt>
      <trkpt lat="45.26805" lon="5.58171">
        <ele>767</ele>
        <time>2012-11-04T09:38:32Z</time>
      </trkpt>
      <trkpt lat="45.26806" lon="5.58171">
        <ele>767</ele>
        <time>2012-11-04T09:38:33Z</time>
      </trkpt>
      <trkpt lat="45.26806" lon="5.58171">
        <ele>767</ele>
        <time>2012-11-04T09:38:34Z</time>
      </trkpt>
      <trkpt lat="45.26807" lon="5.58172">
        <ele>770</ele>
        <time>2012-11-04T09:38:35Z</time>
      </trkpt>
      <trkpt lat="45.26808" lon="5.58173">
        <ele>771</ele>
        <time>2012-11-04T09:38:36Z</time>
      </trkpt>
      <trkpt lat="45.26808" lon="5.58175">
        <ele>771</ele>
        <time>2012-11-04T09:38:37Z</time>
      </trkpt>
      <trkpt lat="45.26809" lon="5.58176">
        <ele>772</ele>
        <time>2012-11-04T09:38:38Z</time>
      </trkpt>
      <trkpt lat="45.2681" lon="5.58177">
        <ele>773</ele>
        <time>2012-11-04T09:38:39Z</time>
      </trkpt>
      <trkpt lat="45.26811" lon="5.58179">
        <ele>775</ele>
        <time>2012-11-04T09:38:40Z</time>
      </trkpt>
      <trkpt lat="45.26811" lon="5.5818">
        <ele>776</ele>
        <time>2012-11-04T09:38:41Z</time>
      </trkpt>
      <trkpt lat="45.26812" lon="5.58182">
        <ele>776</ele>
        <time>2012-11-04T09:38:42Z</time>
      </trkpt>
      <trkpt lat="45.26813" lon="5.58184">
        <ele>776</ele>
        <time>2012-11-04T09:38:43Z</time>
      </trkpt>
      <trkpt lat="45.26813" lon="5.58186">
        <ele>777</ele>
        <time>2012-11-04T09:38:44Z</time>
      </trkpt>
      <trkpt lat="45.26814" lon="5.58187">
        <ele>777</ele>
        <time>2012-11-04T09:38:45Z</time>
      </trkpt>
      <trkpt lat="45.26814" lon="5.58188">
        <ele>777</ele>
        <time>2012-11-04T09:38:46Z</time>
      </trkpt>
      <trkpt lat="45.26815" lon="5.5819">
        <ele>777</ele>
        <time>2012-11-04T09:38:47Z</time>
      </trkpt>
      <trkpt lat="45.26817" lon="5.58191">
        <ele>777</ele>
        <time>2012-11-04T09:38:48Z</time>
      </trkpt>
      <trkpt lat="45.26818" lon="5.58192">
        <ele>778</ele>
        <time>2012-11-04T09:38:49Z</time>
      </trkpt>
      <trkpt lat="45.26818" lon="5.58193">
        <ele>779</ele>
        <time>2012-11-04T09:38:50Z</time>
      </trkpt>
      <trkpt lat="45.2682" lon="5.58195">
        <ele>778</ele>
        <time>2012-11-04T09:38:51Z</time>
      </trkpt>
      <trkpt lat="45.2682" lon="5.58196">
        <ele>777</ele>
        <time>2012-11-04T09:38:52Z</time>
      </trkpt>
      <trkpt lat="45.26821" lon="5.58199">
        <ele>776</ele>
        <time>2012-11-04T09:38:53Z</time>
      </trkpt>
      <trkpt lat="45.26822" lon="5.58199">
        <ele>776</ele>
        <time>2012-11-04T09:38:54Z</time>
      </trkpt>
      <trkpt lat="45.26823" lon="5.58201">
        <ele>777</ele>
        <time>2012-11-04T09:38:55Z</time>
      </trkpt>
      <trkpt lat="45.26824" lon="5.58202">
        <ele>777</ele>
        <time>2012-11-04T09:38:56Z</time>
      </trkpt>
      <trkpt lat="45.26825" lon="5.58203">
        <ele>777</ele>
        <time>2012-11-04T09:38:57Z</time>
      </trkpt>
      <trkpt lat="45.26826" lon="5.58203">
        <ele>777</ele>
        <time>2012-11-04T09:38:58Z</time>
      </trkpt>
      <trkpt lat="45.26827" lon="5.58204">
        <ele>777</ele>
        <time>2012-11-04T09:38:59Z</time>
      </trkpt>
      <trkpt lat="45.26829" lon="5.58205">
        <ele>777</ele>
        <time>2012-11-04T09:39:00Z</time>
      </trkpt>
      <trkpt lat="45.2683" lon="5.58206">
        <ele>778</ele>
        <time>2012-11-04T09:39:01Z</time>
      </trkpt>
      <trkpt lat="45.26831" lon="5.58207">
        <ele>778</ele>
        <time>2012-11-04T09:39:02Z</time>
      </trkpt>
      <trkpt lat="45.26831" lon="5.58207">
        <ele>778</ele>
        <time>2012-11-04T09:39:03Z</time>
      </trkpt>
      <trkpt lat="45.26831" lon="5.58207">
        <ele>777</ele>
        <time>2012-11-04T09:39:04Z</time>
      </trkpt>
      <trkpt lat="45.26835" lon="5.5821">
        <ele>777</ele>
        <time>2012-11-04T09:39:05Z</time>
      </trkpt>
      <trkpt lat="45.26837" lon="5.58211">
        <ele>778</ele>
        <time>2012-11-04T09:39:06Z</time>
      </trkpt>
      <trkpt lat="45.26839" lon="5.58214">
        <ele>778</ele>
        <time>2012-11-04T09:39:07Z</time>
      </trkpt>
      <trkpt lat="45.26841" lon="5.58214">
        <ele>773</ele>
        <time>2012-11-04T09:39:08Z</time>
      </trkpt>
      <trkpt lat="45.26843" lon="5.58216">
        <ele>772</ele>
        <time>2012-11-04T09:39:09Z</time>
      </trkpt>
      <trkpt lat="45.26846" lon="5.58217">
        <ele>773</ele>
        <time>2012-11-04T09:39:10Z</time>
      </trkpt>
      <trkpt lat="45.26848" lon="5.58218">
        <ele>775</ele>
        <time>2012-11-04T09:39:11Z</time>
      </trkpt>
      <trkpt lat="45.2685" lon="5.58219">
        <ele>774</ele>
        <time>2012-11-04T09:39:12Z</time>
      </trkpt>
      <trkpt lat="45.26851" lon="5.5822">
        <ele>774</ele>
        <time>2012-11-04T09:39:13Z</time>
      </trkpt>
      <trkpt lat="45.26853" lon="5.58221">
        <ele>774</ele>
        <time>2012-11-04T09:39:14Z</time>
      </trkpt>
      <trkpt lat="45.26855" lon="5.58222">
        <ele>778</ele>
        <time>2012-11-04T09:39:15Z</time>
      </trkpt>
      <trkpt lat="45.26857" lon="5.58224">
        <ele>779</ele>
        <time>2012-11-04T09:39:16Z</time>
      </trkpt>
      <trkpt lat="45.26858" lon="5.58226">
        <ele>780</ele>
        <time>2012-11-04T09:39:17Z</time>
      </trkpt>
      <trkpt lat="45.26859" lon="5.58227">
        <ele>780</ele>
        <time>2012-11-04T09:39:18Z</time>
      </trkpt>
      <trkpt lat="45.26861" lon="5.5823">
        <ele>780</ele>
        <time>2012-11-04T09:39:19Z</time>
      </trkpt>
      <trkpt lat="45.26863" lon="5.58233">
        <ele>782</ele>
        <time>2012-11-04T09:39:20Z</time>
      </trkpt>
      <trkpt lat="45.26865" lon="5.58235">
        <ele>782</ele>
        <time>2012-11-04T09:39:21Z</time>
      </trkpt>
      <trkpt lat="45.26867" lon="5.58236">
        <ele>783</ele>
        <time>2012-11-04T09:39:22Z</time>
      </trkpt>
      <trkpt lat="45.2687" lon="5.58238">
        <ele>784</ele>
        <time>2012-11-04T09:39:23Z</time>
      </trkpt>
      <trkpt lat="45.26872" lon="5.5824">
        <ele>784</ele>
        <time>2012-11-04T09:39:24Z</time>
      </trkpt>
      <trkpt lat="45.26873" lon="5.58241">
        <ele>785</ele>
        <time>2012-11-04T09:39:25Z</time>
      </trkpt>
      <trkpt lat="45.26874" lon="5.58242">
        <ele>786</ele>
        <time>2012-11-04T09:39:26Z</time>
      </trkpt>
      <trkpt lat="45.26875" lon="5.58242">
        <ele>786</ele>
        <time>2012-11-04T09:39:27Z</time>
      </trkpt>
      <trkpt lat="45.26876" lon="5.58243">
        <ele>789</ele>
        <time>2012-11-04T09:39:28Z</time>
      </trkpt>
      <trkpt lat="45.26877" lon="5.58244">
        <ele>790</ele>
        <time>2012-11-04T09:39:29Z</time>
      </trkpt>
      <trkpt lat="45.26879" lon="5.58245">
        <ele>791</ele>
        <time>2012-11-04T09:39:30Z</time>
      </trkpt>
      <trkpt lat="45.26881" lon="5.58246">
        <ele>792</ele>
        <time>2012-11-04T09:39:31Z</time>
      </trkpt>
      <trkpt lat="45.26882" lon="5.58247">
        <ele>792</ele>
        <time>2012-11-04T09:39:32Z</time>
      </trkpt>
      <trkpt lat="45.26882" lon="5.58248">
        <ele>793</ele>
        <time>2012-11-04T09:39:33Z</time>
      </trkpt>
      <trkpt lat="45.26881" lon="5.58249">
        <ele>792</ele>
        <time>2012-11-04T09:39:34Z</time>
      </trkpt>
      <trkpt lat="45.26881" lon="5.58249">
        <ele>792</ele>
        <time>2012-11-04T09:39:35Z</time>
      </trkpt>
      <trkpt lat="45.26881" lon="5.58249">
        <ele>792</ele>
        <time>2012-11-04T09:39:36Z</time>
      </trkpt>
      <trkpt lat="45.26881" lon="5.58249">
        <ele>793</ele>
        <time>2012-11-04T09:39:37Z</time>
      </trkpt>
      <trkpt lat="45.26881" lon="5.58249">
        <ele>793</ele>
        <time>2012-11-04T09:39:38Z</time>
      </trkpt>
      <trkpt lat="45.26881" lon="5.58249">
        <ele>793</ele>
        <time>2012-11-04T09:39:39Z</time>
      </trkpt>
      <trkpt lat="45.26881" lon="5.58251">
        <ele>793</ele>
        <time>2012-11-04T09:39:40Z</time>
      </trkpt>
      <trkpt lat="45.26882" lon="5.58252">
        <ele>793</ele>
        <time>2012-11-04T09:39:41Z</time>
      </trkpt>
      <trkpt lat="45.26882" lon="5.58254">
        <ele>793</ele>
        <time>2012-11-04T09:39:42Z</time>
      </trkpt>
      <trkpt lat="45.26883" lon="5.58254">
        <ele>793</ele>
        <time>2012-11-04T09:39:43Z</time>
      </trkpt>
      <trkpt lat="45.26884" lon="5.58257">
        <ele>793</ele>
        <time>2012-11-04T09:39:44Z</time>
      </trkpt>
      <trkpt lat="45.26885" lon="5.58258">
        <ele>793</ele>
        <time>2012-11-04T09:39:45Z</time>
      </trkpt>
      <trkpt lat="45.26886" lon="5.5826">
        <ele>792</ele>
        <time>2012-11-04T09:39:46Z</time>
      </trkpt>
      <trkpt lat="45.26887" lon="5.58262">
        <ele>791</ele>
        <time>2012-11-04T09:39:47Z</time>
      </trkpt>
      <trkpt lat="45.26888" lon="5.58263">
        <ele>790</ele>
        <time>2012-11-04T09:39:48Z</time>
      </trkpt>
      <trkpt lat="45.26889" lon="5.58264">
        <ele>790</ele>
        <time>2012-11-04T09:39:49Z</time>
      </trkpt>
      <trkpt lat="45.26892" lon="5.58267">
        <ele>788</ele>
        <time>2012-11-04T09:39:50Z</time>
      </trkpt>
      <trkpt lat="45.26894" lon="5.58269">
        <ele>789</ele>
        <time>2012-11-04T09:39:51Z</time>
      </trkpt>
      <trkpt lat="45.26897" lon="5.58271">
        <ele>788</ele>
        <time>2012-11-04T09:39:52Z</time>
      </trkpt>
      <trkpt lat="45.26899" lon="5.58273">
        <ele>787</ele>
        <time>2012-11-04T09:39:53Z</time>
      </trkpt>
      <trkpt lat="45.26903" lon="5.58275">
        <ele>788</ele>
        <time>2012-11-04T09:39:54Z</time>
      </trkpt>
      <trkpt lat="45.26905" lon="5.58278">
        <ele>788</ele>
        <time>2012-11-04T09:39:55Z</time>
      </trkpt>
      <trkpt lat="45.26908" lon="5.5828">
        <ele>788</ele>
        <time>2012-11-04T09:39:56Z</time>
      </trkpt>
      <trkpt lat="45.2691" lon="5.58282">
        <ele>789</ele>
        <time>2012-11-04T09:39:57Z</time>
      </trkpt>
      <trkpt lat="45.2691" lon="5.58283">
        <ele>792</ele>
        <time>2012-11-04T09:39:58Z</time>
      </trkpt>
      <trkpt lat="45.26911" lon="5.58285">
        <ele>793</ele>
        <time>2012-11-04T09:39:59Z</time>
      </trkpt>
      <trkpt lat="45.2691" lon="5.58286">
        <ele>794</ele>
        <time>2012-11-04T09:40:00Z</time>
      </trkpt>
      <trkpt lat="45.2691" lon="5.58286">
        <ele>795</ele>
        <time>2012-11-04T09:40:01Z</time>
      </trkpt>
      <trkpt lat="45.26909" lon="5.58286">
        <ele>795</ele>
        <time>2012-11-04T09:40:02Z</time>
      </trkpt>
      <trkpt lat="45.26909" lon="5.58287">
        <ele>796</ele>
        <time>2012-11-04T09:40:03Z</time>
      </trkpt>
      <trkpt lat="45.26909" lon="5.58287">
        <ele>796</ele>
        <time>2012-11-04T09:40:04Z</time>
      </trkpt>
      <trkpt lat="45.26909" lon="5.58288">
        <ele>796</ele>
        <time>2012-11-04T09:40:05Z</time>
      </trkpt>
      <trkpt lat="45.26909" lon="5.58288">
        <ele>796</ele>
        <time>2012-11-04T09:40:06Z</time>
      </trkpt>
      <trkpt lat="45.2691" lon="5.58289">
        <ele>797</ele>
        <time>2012-11-04T09:40:07Z</time>
      </trkpt>
      <trkpt lat="45.26911" lon="5.5829">
        <ele>795</ele>
        <time>2012-11-04T09:40:08Z</time>
      </trkpt>
      <trkpt lat="45.26911" lon="5.5829">
        <ele>794</ele>
        <time>2012-11-04T09:40:09Z</time>
      </trkpt>
      <trkpt lat="45.26913" lon="5.58292">
        <ele>794</ele>
        <time>2012-11-04T09:40:10Z</time>
      </trkpt>
      <trkpt lat="45.26914" lon="5.58293">
        <ele>794</ele>
        <time>2012-11-04T09:40:11Z</time>
      </trkpt>
      <trkpt lat="45.26916" lon="5.58296">
        <ele>794</ele>
        <time>2012-11-04T09:40:12Z</time>
      </trkpt>
      <trkpt lat="45.26918" lon="5.58299">
        <ele>794</ele>
        <time>2012-11-04T09:40:13Z</time>
      </trkpt>
      <trkpt lat="45.26919" lon="5.58301">
        <ele>795</ele>
        <time>2012-11-04T09:40:14Z</time>
      </trkpt>
      <trkpt lat="45.26921" lon="5.58304">
        <ele>796</ele>
        <time>2012-11-04T09:40:15Z</time>
      </trkpt>
      <trkpt lat="45.26922" lon="5.58305">
        <ele>797</ele>
        <time>2012-11-04T09:40:16Z</time>
      </trkpt>
      <trkpt lat="45.26924" lon="5.58303">
        <ele>797</ele>
        <time>2012-11-04T09:40:18Z</time>
      </trkpt>
      <trkpt lat="45.26925" lon="5.58303">
        <ele>797</ele>
        <time>2012-11-04T09:40:19Z</time>
      </trkpt>
      <trkpt lat="45.26926" lon="5.58303">
        <ele>798</ele>
        <time>2012-11-04T09:40:20Z</time>
      </trkpt>
      <trkpt lat="45.26927" lon="5.58305">
        <ele>797</ele>
        <time>2012-11-04T09:40:21Z</time>
      </trkpt>
      <trkpt lat="45.26928" lon="5.58307">
        <ele>798</ele>
        <time>2012-11-04T09:40:22Z</time>
      </trkpt>
      <trkpt lat="45.26928" lon="5.58311">
        <ele>802</ele>
        <time>2012-11-04T09:40:23Z</time>
      </trkpt>
      <trkpt lat="45.2693" lon="5.58316">
        <ele>801</ele>
        <time>2012-11-04T09:40:24Z</time>
      </trkpt>
      <trkpt lat="45.2693" lon="5.58317">
        <ele>802</ele>
        <time>2012-11-04T09:40:25Z</time>
      </trkpt>
      <trkpt lat="45.26932" lon="5.58323">
        <ele>803</ele>
        <time>2012-11-04T09:40:26Z</time>
      </trkpt>
      <trkpt lat="45.26933" lon="5.58328">
        <ele>802</ele>
        <time>2012-11-04T09:40:27Z</time>
      </trkpt>
      <trkpt lat="45.26934" lon="5.58333">
        <ele>804</ele>
        <time>2012-11-04T09:40:28Z</time>
      </trkpt>
      <trkpt lat="45.26935" lon="5.58336">
        <ele>804</ele>
        <time>2012-11-04T09:40:29Z</time>
      </trkpt>
      <trkpt lat="45.26936" lon="5.58341">
        <ele>803</ele>
        <time>2012-11-04T09:40:30Z</time>
      </trkpt>
      <trkpt lat="45.26938" lon="5.58345">
        <ele>802</ele>
        <time>2012-11-04T09:40:31Z</time>
      </trkpt>
      <trkpt lat="45.26939" lon="5.58348">
        <ele>804</ele>
        <time>2012-11-04T09:40:32Z</time>
      </trkpt>
      <trkpt lat="45.2694" lon="5.5835">
        <ele>804</ele>
        <time>2012-11-04T09:40:33Z</time>
      </trkpt>
      <trkpt lat="45.26941" lon="5.58351">
        <ele>804</ele>
        <time>2012-11-04T09:40:34Z</time>
      </trkpt>
      <trkpt lat="45.26941" lon="5.58355">
        <ele>805</ele>
        <time>2012-11-04T09:40:35Z</time>
      </trkpt>
      <trkpt lat="45.26941" lon="5.58357">
        <ele>806</ele>
        <time>2012-11-04T09:40:36Z</time>
      </trkpt>
      <trkpt lat="45.26941" lon="5.5836">
        <ele>805</ele>
        <time>2012-11-04T09:40:37Z</time>
      </trkpt>
      <trkpt lat="45.26941" lon="5.58362">
        <ele>805</ele>
        <time>2012-11-04T09:40:38Z</time>
      </trkpt>
      <trkpt lat="45.26942" lon="5.58365">
        <ele>805</ele>
        <time>2012-11-04T09:40:39Z</time>
      </trkpt>
      <trkpt lat="45.26942" lon="5.58366">
        <ele>805</ele>
        <time>2012-11-04T09:40:40Z</time>
      </trkpt>
      <trkpt lat="45.26943" lon="5.58369">
        <ele>806</ele>
        <time>2012-11-04T09:40:41Z</time>
      </trkpt>
      <trkpt lat="45.26943" lon="5.58372">
        <ele>807</ele>
        <time>2012-11-04T09:40:42Z</time>
      </trkpt>
      <trkpt lat="45.26944" lon="5.58374">
        <ele>807</ele>
        <time>2012-11-04T09:40:43Z</time>
      </trkpt>
      <trkpt lat="45.26944" lon="5.58376">
        <ele>807</ele>
        <time>2012-11-04T09:40:44Z</time>
      </trkpt>
      <trkpt lat="45.26945" lon="5.58378">
        <ele>808</ele>
        <time>2012-11-04T09:40:45Z</time>
      </trkpt>
      <trkpt lat="45.26945" lon="5.58381">
        <ele>808</ele>
        <time>2012-11-04T09:40:46Z</time>
      </trkpt>
      <trkpt lat="45.26946" lon="5.58382">
        <ele>808</ele>
        <time>2012-11-04T09:40:47Z</time>
      </trkpt>
      <trkpt lat="45.26947" lon="5.58384">
        <ele>808</ele>
        <time>2012-11-04T09:40:48Z</time>
      </trkpt>
      <trkpt lat="45.26948" lon="5.58387">
        <ele>808</ele>
        <time>2012-11-04T09:40:49Z</time>
      </trkpt>
      <trkpt lat="45.26948" lon="5.58389">
        <ele>809</ele>
        <time>2012-11-04T09:40:50Z</time>
      </trkpt>
      <trkpt lat="45.26949" lon="5.5839">
        <ele>809</ele>
        <time>2012-11-04T09:40:51Z</time>
      </trkpt>
      <trkpt lat="45.2695" lon="5.58393">
        <ele>808</ele>
        <time>2012-11-04T09:40:52Z</time>
      </trkpt>
      <trkpt lat="45.2695" lon="5.58394">
        <ele>809</ele>
        <time>2012-11-04T09:40:53Z</time>
      </trkpt>
      <trkpt lat="45.26951" lon="5.58395">
        <ele>808</ele>
        <time>2012-11-04T09:40:54Z</time>
      </trkpt>
      <trkpt lat="45.26951" lon="5.58395">
        <ele>812</ele>
        <time>2012-11-04T09:40:55Z</time>
      </trkpt>
      <trkpt lat="45.26952" lon="5.58397">
        <ele>809</ele>
        <time>2012-11-04T09:40:56Z</time>
      </trkpt>
      <trkpt lat="45.26953" lon="5.58399">
        <ele>808</ele>
        <time>2012-11-04T09:40:57Z</time>
      </trkpt>
      <trkpt lat="45.26954" lon="5.58401">
        <ele>808</ele>
        <time>2012-11-04T09:40:58Z</time>
      </trkpt>
      <trkpt lat="45.26957" lon="5.58402">
        <ele>806</ele>
        <time>2012-11-04T09:40:59Z</time>
      </trkpt>
      <trkpt lat="45.26958" lon="5.58404">
        <ele>804</ele>
        <time>2012-11-04T09:41:00Z</time>
      </trkpt>
      <trkpt lat="45.2696" lon="5.58404">
        <ele>804</ele>
        <time>2012-11-04T09:41:01Z</time>
      </trkpt>
      <trkpt lat="45.2696" lon="5.58406">
        <ele>808</ele>
        <time>2012-11-04T09:41:02Z</time>
      </trkpt>
      <trkpt lat="45.2696" lon="5.58407">
        <ele>809</ele>
        <time>2012-11-04T09:41:03Z</time>
      </trkpt>
      <trkpt lat="45.26961" lon="5.58407">
        <ele>811</ele>
        <time>2012-11-04T09:41:04Z</time>
      </trkpt>
      <trkpt lat="45.2696" lon="5.5841">
        <ele>810</ele>
        <time>2012-11-04T09:41:05Z</time>
      </trkpt>
      <trkpt lat="45.2696" lon="5.58411">
        <ele>811</ele>
        <time>2012-11-04T09:41:06Z</time>
      </trkpt>
      <trkpt lat="45.26959" lon="5.58412">
        <ele>811</ele>
        <time>2012-11-04T09:41:07Z</time>
      </trkpt>
      <trkpt lat="45.26959" lon="5.58414">
        <ele>812</ele>
        <time>2012-11-04T09:41:08Z</time>
      </trkpt>
      <trkpt lat="45.2696" lon="5.58416">
        <ele>812</ele>
        <time>2012-11-04T09:41:09Z</time>
      </trkpt>
      <trkpt lat="45.2696" lon="5.58418">
        <ele>812</ele>
        <time>2012-11-04T09:41:10Z</time>
      </trkpt>
      <trkpt lat="45.2696" lon="5.58419">
        <ele>812</ele>
        <time>2012-11-04T09:41:11Z</time>
      </trkpt>
      <trkpt lat="45.26961" lon="5.58422">
        <ele>813</ele>
        <time>2012-11-04T09:41:12Z</time>
      </trkpt>
      <trkpt lat="45.26962" lon="5.58424">
        <ele>813</ele>
        <time>2012-11-04T09:41:13Z</time>
      </trkpt>
      <trkpt lat="45.26962" lon="5.58426">
        <ele>814</ele>
        <time>2012-11-04T09:41:14Z</time>
      </trkpt>
      <trkpt lat="45.26963" lon="5.58427">
        <ele>815</ele>
        <time>2012-11-04T09:41:15Z</time>
      </trkpt>
      <trkpt lat="45.26963" lon="5.5843">
        <ele>815</ele>
        <time>2012-11-04T09:41:16Z</time>
      </trkpt>
      <trkpt lat="45.26964" lon="5.58433">
        <ele>815</ele>
        <time>2012-11-04T09:41:17Z</time>
      </trkpt>
      <trkpt lat="45.26964" lon="5.58435">
        <ele>815</ele>
        <time>2012-11-04T09:41:18Z</time>
      </trkpt>
      <trkpt lat="45.26964" lon="5.58437">
        <ele>815</ele>
        <time>2012-11-04T09:41:19Z</time>
      </trkpt>
      <trkpt lat="45.26965" lon="5.5844">
        <ele>814</ele>
        <time>2012-11-04T09:41:20Z</time>
      </trkpt>
      <trkpt lat="45.26965" lon="5.58442">
        <ele>814</ele>
        <time>2012-11-04T09:41:21Z</time>
      </trkpt>
      <trkpt lat="45.26965" lon="5.58444">
        <ele>816</ele>
        <time>2012-11-04T09:41:22Z</time>
      </trkpt>
      <trkpt lat="45.26965" lon="5.58447">
        <ele>817</ele>
        <time>2012-11-04T09:41:23Z</time>
      </trkpt>
      <trkpt lat="45.26965" lon="5.5845">
        <ele>817</ele>
        <time>2012-11-04T09:41:24Z</time>
      </trkpt>
      <trkpt lat="45.26965" lon="5.58451">
        <ele>817</ele>
        <time>2012-11-04T09:41:25Z</time>
      </trkpt>
      <trkpt lat="45.26966" lon="5.58453">
        <ele>817</ele>
        <time>2012-11-04T09:41:26Z</time>
      </trkpt>
      <trkpt lat="45.26967" lon="5.58456">
        <ele>817</ele>
        <time>2012-11-04T09:41:27Z</time>
      </trkpt>
      <trkpt lat="45.26968" lon="5.58458">
        <ele>818</ele>
        <time>2012-11-04T09:41:28Z</time>
      </trkpt>
      <trkpt lat="45.26968" lon="5.5846">
        <ele>819</ele>
        <time>2012-11-04T09:41:29Z</time>
      </trkpt>
      <trkpt lat="45.26969" lon="5.58463">
        <ele>818</ele>
        <time>2012-11-04T09:41:30Z</time>
      </trkpt>
      <trkpt lat="45.26969" lon="5.58466">
        <ele>818</ele>
        <time>2012-11-04T09:41:31Z</time>
      </trkpt>
      <trkpt lat="45.26969" lon="5.58467">
        <ele>818</ele>
        <time>2012-11-04T09:41:32Z</time>
      </trkpt>
      <trkpt lat="45.26969" lon="5.5847">
        <ele>820</ele>
        <time>2012-11-04T09:41:33Z</time>
      </trkpt>
      <trkpt lat="45.2697" lon="5.58473">
        <ele>821</ele>
        <time>2012-11-04T09:41:34Z</time>
      </trkpt>
      <trkpt lat="45.2697" lon="5.58476">
        <ele>822</ele>
        <time>2012-11-04T09:41:35Z</time>
      </trkpt>
      <trkpt lat="45.26971" lon="5.58479">
        <ele>820</ele>
        <time>2012-11-04T09:41:36Z</time>
      </trkpt>
      <trkpt lat="45.26973" lon="5.58482">
        <ele>819</ele>
        <time>2012-11-04T09:41:37Z</time>
      </trkpt>
      <trkpt lat="45.26974" lon="5.58485">
        <ele>819</ele>
        <time>2012-11-04T09:41:38Z</time>
      </trkpt>
      <trkpt lat="45.26975" lon="5.58487">
        <ele>819</ele>
        <time>2012-11-04T09:41:39Z</time>
      </trkpt>
      <trkpt lat="45.26978" lon="5.58491">
        <ele>818</ele>
        <time>2012-11-04T09:41:40Z</time>
      </trkpt>
      <trkpt lat="45.26979" lon="5.58493">
        <ele>818</ele>
        <time>2012-11-04T09:41:41Z</time>
      </trkpt>
      <trkpt lat="45.26981" lon="5.58498">
        <ele>819</ele>
        <time>2012-11-04T09:41:42Z</time>
      </trkpt>
      <trkpt lat="45.26982" lon="5.58502">
        <ele>820</ele>
        <time>2012-11-04T09:41:43Z</time>
      </trkpt>
      <trkpt lat="45.26984" lon="5.58504">
        <ele>821</ele>
        <time>2012-11-04T09:41:44Z</time>
      </trkpt>
      <trkpt lat="45.26985" lon="5.58508">
        <ele>822</ele>
        <time>2012-11-04T09:41:45Z</time>
      </trkpt>
      <trkpt lat="45.26986" lon="5.58511">
        <ele>823</ele>
        <time>2012-11-04T09:41:46Z</time>
      </trkpt>
      <trkpt lat="45.26988" lon="5.58513">
        <ele>822</ele>
        <time>2012-11-04T09:41:47Z</time>
      </trkpt>
      <trkpt lat="45.26989" lon="5.58515">
        <ele>822</ele>
        <time>2012-11-04T09:41:48Z</time>
      </trkpt>
      <trkpt lat="45.2699" lon="5.58517">
        <ele>823</ele>
        <time>2012-11-04T09:41:49Z</time>
      </trkpt>
      <trkpt lat="45.26991" lon="5.58518">
        <ele>823</ele>
        <time>2012-11-04T09:41:50Z</time>
      </trkpt>
      <trkpt lat="45.26992" lon="5.58519">
        <ele>823</ele>
        <time>2012-11-04T09:41:51Z</time>
      </trkpt>
      <trkpt lat="45.26993" lon="5.5852">
        <ele>823</ele>
        <time>2012-11-04T09:41:52Z</time>
      </trkpt>
      <trkpt lat="45.26994" lon="5.58521">
        <ele>822</ele>
        <time>2012-11-04T09:41:53Z</time>
      </trkpt>
      <trkpt lat="45.26995" lon="5.58522">
        <ele>820</ele>
        <time>2012-11-04T09:41:54Z</time>
      </trkpt>
      <trkpt lat="45.26996" lon="5.58523">
        <ele>820</ele>
        <time>2012-11-04T09:41:55Z</time>
      </trkpt>
      <trkpt lat="45.26997" lon="5.58524">
        <ele>820</ele>
        <time>2012-11-04T09:41:56Z</time>
      </trkpt>
      <trkpt lat="45.26998" lon="5.58524">
        <ele>821</ele>
        <time>2012-11-04T09:41:57Z</time>
      </trkpt>
      <trkpt lat="45.26999" lon="5.58526">
        <ele>821</ele>
        <time>2012-11-04T09:41:58Z</time>
      </trkpt>
      <trkpt lat="45.27001" lon="5.58528">
        <ele>821</ele>
        <time>2012-11-04T09:41:59Z</time>
      </trkpt>
      <trkpt lat="45.27003" lon="5.58531">
        <ele>821</ele>
        <time>2012-11-04T09:42:00Z</time>
      </trkpt>
      <trkpt lat="45.27004" lon="5.58532">
        <ele>821</ele>
        <time>2012-11-04T09:42:01Z</time>
      </trkpt>
      <trkpt lat="45.27005" lon="5.58533">
        <ele>821</ele>
        <time>2012-11-04T09:42:02Z</time>
      </trkpt>
      <trkpt lat="45.27006" lon="5.58535">
        <ele>822</ele>
        <time>2012-11-04T09:42:03Z</time>
      </trkpt>
      <trkpt lat="45.27007" lon="5.58536">
        <ele>822</ele>
        <time>2012-11-04T09:42:04Z</time>
      </trkpt>
      <trkpt lat="45.27008" lon="5.58537">
        <ele>821</ele>
        <time>2012-11-04T09:42:05Z</time>
      </trkpt>
      <trkpt lat="45.27008" lon="5.58537">
        <ele>821</ele>
        <time>2012-11-04T09:42:06Z</time>
      </trkpt>
      <trkpt lat="45.27009" lon="5.58538">
        <ele>821</ele>
        <time>2012-11-04T09:42:07Z</time>
      </trkpt>
      <trkpt lat="45.27009" lon="5.58539">
        <ele>821</ele>
        <time>2012-11-04T09:42:08Z</time>
      </trkpt>
      <trkpt lat="45.2701" lon="5.5854">
        <ele>820</ele>
        <time>2012-11-04T09:42:09Z</time>
      </trkpt>
      <trkpt lat="45.27011" lon="5.58541">
        <ele>820</ele>
        <time>2012-11-04T09:42:10Z</time>
      </trkpt>
      <trkpt lat="45.27012" lon="5.58543">
        <ele>821</ele>
        <time>2012-11-04T09:42:11Z</time>
      </trkpt>
      <trkpt lat="45.27013" lon="5.58545">
        <ele>820</ele>
        <time>2012-11-04T09:42:12Z</time>
      </trkpt>
      <trkpt lat="45.27013" lon="5.58545">
        <ele>819</ele>
        <time>2012-11-04T09:42:13Z</time>
      </trkpt>
      <trkpt lat="45.27014" lon="5.58547">
        <ele>820</ele>
        <time>2012-11-04T09:42:14Z</time>
      </trkpt>
      <trkpt lat="45.27015" lon="5.58548">
        <ele>819</ele>
        <time>2012-11-04T09:42:15Z</time>
      </trkpt>
      <trkpt lat="45.27016" lon="5.58549">
        <ele>819</ele>
        <time>2012-11-04T09:42:16Z</time>
      </trkpt>
      <trkpt lat="45.27018" lon="5.58551">
        <ele>821</ele>
        <time>2012-11-04T09:42:17Z</time>
      </trkpt>
      <trkpt lat="45.2702" lon="5.58553">
        <ele>822</ele>
        <time>2012-11-04T09:42:18Z</time>
      </trkpt>
      <trkpt lat="45.27022" lon="5.58556">
        <ele>822</ele>
        <time>2012-11-04T09:42:19Z</time>
      </trkpt>
      <trkpt lat="45.27023" lon="5.58557">
        <ele>822</ele>
        <time>2012-11-04T09:42:20Z</time>
      </trkpt>
      <trkpt lat="45.27026" lon="5.5856">
        <ele>821</ele>
        <time>2012-11-04T09:42:21Z</time>
      </trkpt>
      <trkpt lat="45.27027" lon="5.58562">
        <ele>822</ele>
        <time>2012-11-04T09:42:22Z</time>
      </trkpt>
      <trkpt lat="45.2703" lon="5.58564">
        <ele>821</ele>
        <time>2012-11-04T09:42:23Z</time>
      </trkpt>
      <trkpt lat="45.27032" lon="5.58566">
        <ele>820</ele>
        <time>2012-11-04T09:42:24Z</time>
      </trkpt>
      <trkpt lat="45.27033" lon="5.58568">
        <ele>821</ele>
        <time>2012-11-04T09:42:25Z</time>
      </trkpt>
      <trkpt lat="45.27035" lon="5.5857">
        <ele>821</ele>
        <time>2012-11-04T09:42:26Z</time>
      </trkpt>
      <trkpt lat="45.27036" lon="5.58571">
        <ele>821</ele>
        <time>2012-11-04T09:42:27Z</time>
      </trkpt>
      <trkpt lat="45.27038" lon="5.58572">
        <ele>820</ele>
        <time>2012-11-04T09:42:28Z</time>
      </trkpt>
      <trkpt lat="45.27039" lon="5.58573">
        <ele>820</ele>
        <time>2012-11-04T09:42:29Z</time>
      </trkpt>
      <trkpt lat="45.2704" lon="5.58574">
        <ele>819</ele>
        <time>2012-11-04T09:42:30Z</time>
      </trkpt>
      <trkpt lat="45.27041" lon="5.58575">
        <ele>818</ele>
        <time>2012-11-04T09:42:31Z</time>
      </trkpt>
      <trkpt lat="45.27043" lon="5.58576">
        <ele>817</ele>
        <time>2012-11-04T09:42:32Z</time>
      </trkpt>
      <trkpt lat="45.27044" lon="5.58578">
        <ele>817</ele>
        <time>2012-11-04T09:42:33Z</time>
      </trkpt>
      <trkpt lat="45.27046" lon="5.5858">
        <ele>817</ele>
        <time>2012-11-04T09:42:34Z</time>
      </trkpt>
      <trkpt lat="45.27048" lon="5.58582">
        <ele>817</ele>
        <time>2012-11-04T09:42:35Z</time>
      </trkpt>
      <trkpt lat="45.2705" lon="5.58584">
        <ele>818</ele>
        <time>2012-11-04T09:42:36Z</time>
      </trkpt>
      <trkpt lat="45.27051" lon="5.58586">
        <ele>819</ele>
        <time>2012-11-04T09:42:37Z</time>
      </trkpt>
      <trkpt lat="45.27052" lon="5.58588">
        <ele>820</ele>
        <time>2012-11-04T09:42:38Z</time>
      </trkpt>
      <trkpt lat="45.27053" lon="5.5859">
        <ele>820</ele>
        <time>2012-11-04T09:42:39Z</time>
      </trkpt>
      <trkpt lat="45.27054" lon="5.58591">
        <ele>820</ele>
        <time>2012-11-04T09:42:40Z</time>
      </trkpt>
      <trkpt lat="45.27056" lon="5.58592">
        <ele>820</ele>
        <time>2012-11-04T09:42:41Z</time>
      </trkpt>
      <trkpt lat="45.27057" lon="5.58593">
        <ele>820</ele>
        <time>2012-11-04T09:42:42Z</time>
      </trkpt>
      <trkpt lat="45.27058" lon="5.58595">
        <ele>821</ele>
        <time>2012-11-04T09:42:43Z</time>
      </trkpt>
      <trkpt lat="45.2706" lon="5.58596">
        <ele>820</ele>
        <time>2012-11-04T09:42:44Z</time>
      </trkpt>
      <trkpt lat="45.27062" lon="5.58598">
        <ele>820</ele>
        <time>2012-11-04T09:42:45Z</time>
      </trkpt>
      <trkpt lat="45.27063" lon="5.58599">
        <ele>821</ele>
        <time>2012-11-04T09:42:46Z</time>
      </trkpt>
      <trkpt lat="45.27064" lon="5.586">
        <ele>820</ele>
        <time>2012-11-04T09:42:47Z</time>
      </trkpt>
      <trkpt lat="45.27066" lon="5.58601">
        <ele>821</ele>
        <time>2012-11-04T09:42:48Z</time>
      </trkpt>
      <trkpt lat="45.27067" lon="5.58602">
        <ele>821</ele>
        <time>2012-11-04T09:42:49Z</time>
      </trkpt>
      <trkpt lat="45.27069" lon="5.58604">
        <ele>821</ele>
        <time>2012-11-04T09:42:50Z</time>
      </trkpt>
      <trkpt lat="45.27069" lon="5.58604">
        <ele>821</ele>
        <time>2012-11-04T09:42:51Z</time>
      </trkpt>
      <trkpt lat="45.27071" lon="5.58606">
        <ele>821</ele>
        <time>2012-11-04T09:42:52Z</time>
      </trkpt>
      <trkpt lat="45.27072" lon="5.58609">
        <ele>822</ele>
        <time>2012-11-04T09:42:53Z</time>
      </trkpt>
      <trkpt lat="45.27073" lon="5.58609">
        <ele>823</ele>
        <time>2012-11-04T09:42:54Z</time>
      </trkpt>
      <trkpt lat="45.27074" lon="5.58612">
        <ele>823</ele>
        <time>2012-11-04T09:42:55Z</time>
      </trkpt>
      <trkpt lat="45.27075" lon="5.58614">
        <ele>823</ele>
        <time>2012-11-04T09:42:56Z</time>
      </trkpt>
      <trkpt lat="45.27076" lon="5.58615">
        <ele>824</ele>
        <time>2012-11-04T09:42:57Z</time>
      </trkpt>
      <trkpt lat="45.27076" lon="5.58616">
        <ele>825</ele>
        <time>2012-11-04T09:42:58Z</time>
      </trkpt>
      <trkpt lat="45.27077" lon="5.58618">
        <ele>825</ele>
        <time>2012-11-04T09:42:59Z</time>
      </trkpt>
      <trkpt lat="45.27078" lon="5.58619">
        <ele>826</ele>
        <time>2012-11-04T09:43:00Z</time>
      </trkpt>
      <trkpt lat="45.27079" lon="5.5862">
        <ele>826</ele>
        <time>2012-11-04T09:43:01Z</time>
      </trkpt>
      <trkpt lat="45.2708" lon="5.58622">
        <ele>827</ele>
        <time>2012-11-04T09:43:02Z</time>
      </trkpt>
      <trkpt lat="45.27081" lon="5.58623">
        <ele>828</ele>
        <time>2012-11-04T09:43:03Z</time>
      </trkpt>
      <trkpt lat="45.27083" lon="5.58625">
        <ele>828</ele>
        <time>2012-11-04T09:43:04Z</time>
      </trkpt>
      <trkpt lat="45.27085" lon="5.58627">
        <ele>829</ele>
        <time>2012-11-04T09:43:05Z</time>
      </trkpt>
      <trkpt lat="45.27087" lon="5.58629">
        <ele>829</ele>
        <time>2012-11-04T09:43:06Z</time>
      </trkpt>
      <trkpt lat="45.27088" lon="5.5863">
        <ele>829</ele>
        <time>2012-11-04T09:43:07Z</time>
      </trkpt>
      <trkpt lat="45.27089" lon="5.58633">
        <ele>829</ele>
        <time>2012-11-04T09:43:08Z</time>
      </trkpt>
      <trkpt lat="45.27091" lon="5.58634">
        <ele>829</ele>
        <time>2012-11-04T09:43:09Z</time>
      </trkpt>
      <trkpt lat="45.27093" lon="5.58636">
        <ele>828</ele>
        <time>2012-11-04T09:43:10Z</time>
      </trkpt>
      <trkpt lat="45.27095" lon="5.58638">
        <ele>828</ele>
        <time>2012-11-04T09:43:11Z</time>
      </trkpt>
      <trkpt lat="45.27097" lon="5.5864">
        <ele>828</ele>
        <time>2012-11-04T09:43:12Z</time>
      </trkpt>
      <trkpt lat="45.27099" lon="5.58642">
        <ele>829</ele>
        <time>2012-11-04T09:43:13Z</time>
      </trkpt>
      <trkpt lat="45.27101" lon="5.58643">
        <ele>829</ele>
        <time>2012-11-04T09:43:14Z</time>
      </trkpt>
      <trkpt lat="45.27102" lon="5.58644">
        <ele>829</ele>
        <time>2012-11-04T09:43:15Z</time>
      </trkpt>
      <trkpt lat="45.27103" lon="5.58644">
        <ele>829</ele>
        <time>2012-11-04T09:43:16Z</time>
      </trkpt>
      <trkpt lat="45.27104" lon="5.58645">
        <ele>829</ele>
        <time>2012-11-04T09:43:17Z</time>
      </trkpt>
      <trkpt lat="45.27106" lon="5.58645">
        <ele>829</ele>
        <time>2012-11-04T09:43:18Z</time>
      </trkpt>
      <trkpt lat="45.27109" lon="5.58645">
        <ele>829</ele>
        <time>2012-11-04T09:43:19Z</time>
      </trkpt>
      <trkpt lat="45.27114" lon="5.58644">
        <ele>829</ele>
        <time>2012-11-04T09:43:22Z</time>
      </trkpt>
      <trkpt lat="45.27118" lon="5.58645">
        <ele>830</ele>
        <time>2012-11-04T09:43:23Z</time>
      </trkpt>
      <trkpt lat="45.2712" lon="5.58645">
        <ele>829</ele>
        <time>2012-11-04T09:43:24Z</time>
      </trkpt>
      <trkpt lat="45.27124" lon="5.58646">
        <ele>829</ele>
        <time>2012-11-04T09:43:25Z</time>
      </trkpt>
      <trkpt lat="45.27125" lon="5.58647">
        <ele>829</ele>
        <time>2012-11-04T09:43:26Z</time>
      </trkpt>
      <trkpt lat="45.27126" lon="5.58648">
        <ele>829</ele>
        <time>2012-11-04T09:43:27Z</time>
      </trkpt>
      <trkpt lat="45.27128" lon="5.58648">
        <ele>831</ele>
        <time>2012-11-04T09:43:28Z</time>
      </trkpt>
      <trkpt lat="45.27129" lon="5.5865">
        <ele>832</ele>
        <time>2012-11-04T09:43:29Z</time>
      </trkpt>
      <trkpt lat="45.2713" lon="5.5865">
        <ele>832</ele>
        <time>2012-11-04T09:43:30Z</time>
      </trkpt>
      <trkpt lat="45.27133" lon="5.58653">
        <ele>831</ele>
        <time>2012-11-04T09:43:31Z</time>
      </trkpt>
      <trkpt lat="45.27135" lon="5.58655">
        <ele>830</ele>
        <time>2012-11-04T09:43:32Z</time>
      </trkpt>
      <trkpt lat="45.27136" lon="5.58657">
        <ele>830</ele>
        <time>2012-11-04T09:43:33Z</time>
      </trkpt>
      <trkpt lat="45.27138" lon="5.58659">
        <ele>830</ele>
        <time>2012-11-04T09:43:34Z</time>
      </trkpt>
      <trkpt lat="45.2714" lon="5.5866">
        <ele>830</ele>
        <time>2012-11-04T09:43:35Z</time>
      </trkpt>
      <trkpt lat="45.27141" lon="5.58661">
        <ele>831</ele>
        <time>2012-11-04T09:43:36Z</time>
      </trkpt>
      <trkpt lat="45.27143" lon="5.58663">
        <ele>831</ele>
        <time>2012-11-04T09:43:37Z</time>
      </trkpt>
      <trkpt lat="45.27145" lon="5.58665">
        <ele>830</ele>
        <time>2012-11-04T09:43:38Z</time>
      </trkpt>
      <trkpt lat="45.27146" lon="5.58668">
        <ele>831</ele>
        <time>2012-11-04T09:43:39Z</time>
      </trkpt>
      <trkpt lat="45.27147" lon="5.58671">
        <ele>831</ele>
        <time>2012-11-04T09:43:40Z</time>
      </trkpt>
      <trkpt lat="45.27147" lon="5.58671">
        <ele>831</ele>
        <time>2012-11-04T09:43:41Z</time>
      </trkpt>
      <trkpt lat="45.27151" lon="5.58676">
        <ele>831</ele>
        <time>2012-11-04T09:43:42Z</time>
      </trkpt>
      <trkpt lat="45.27151" lon="5.58676">
        <ele>831</ele>
        <time>2012-11-04T09:43:43Z</time>
      </trkpt>
      <trkpt lat="45.27151" lon="5.58676">
        <ele>830</ele>
        <time>2012-11-04T09:43:44Z</time>
      </trkpt>
      <trkpt lat="45.27151" lon="5.58676">
        <ele>830</ele>
        <time>2012-11-04T09:43:45Z</time>
      </trkpt>
      <trkpt lat="45.27151" lon="5.58676">
        <ele>830</ele>
        <time>2012-11-04T09:43:46Z</time>
      </trkpt>
      <trkpt lat="45.27151" lon="5.58676">
        <ele>830</ele>
        <time>2012-11-04T09:43:47Z</time>
      </trkpt>
      <trkpt lat="45.27151" lon="5.58676">
        <ele>830</ele>
        <time>2012-11-04T09:43:48Z</time>
      </trkpt>
      <trkpt lat="45.27151" lon="5.58676">
        <ele>830</ele>
        <time>2012-11-04T09:43:49Z</time>
      </trkpt>
      <trkpt lat="45.27151" lon="5.58676">
        <ele>830</ele>
        <time>2012-11-04T09:43:50Z</time>
      </trkpt>
      <trkpt lat="45.27151" lon="5.58676">
        <ele>830</ele>
        <time>2012-11-04T09:43:51Z</time>
      </trkpt>
      <trkpt lat="45.27151" lon="5.58676">
        <ele>830</ele>
        <time>2012-11-04T09:43:52Z</time>
      </trkpt>
      <trkpt lat="45.27151" lon="5.58676">
        <ele>830</ele>
        <time>2012-11-04T09:43:53Z</time>
      </trkpt>
      <trkpt lat="45.27151" lon="5.58676">
        <ele>830</ele>
        <time>2012-11-04T09:43:54Z</time>
      </trkpt>
      <trkpt lat="45.27151" lon="5.58676">
        <ele>830</ele>
        <time>2012-11-04T09:43:55Z</time>
      </trkpt>
      <trkpt lat="45.27156" lon="5.58679">
        <ele>830</ele>
        <time>2012-11-04T09:43:56Z</time>
      </trkpt>
      <trkpt lat="45.27158" lon="5.58681">
        <ele>830</ele>
        <time>2012-11-04T09:43:57Z</time>
      </trkpt>
      <trkpt lat="45.27159" lon="5.58682">
        <ele>831</ele>
        <time>2012-11-04T09:43:58Z</time>
      </trkpt>
      <trkpt lat="45.27161" lon="5.58684">
        <ele>831</ele>
        <time>2012-11-04T09:43:59Z</time>
      </trkpt>
      <trkpt lat="45.27163" lon="5.58686">
        <ele>831</ele>
        <time>2012-11-04T09:44:00Z</time>
      </trkpt>
      <trkpt lat="45.27164" lon="5.58688">
        <ele>829</ele>
        <time>2012-11-04T09:44:01Z</time>
      </trkpt>
      <trkpt lat="45.27166" lon="5.58689">
        <ele>827</ele>
        <time>2012-11-04T09:44:02Z</time>
      </trkpt>
      <trkpt lat="45.27167" lon="5.5869">
        <ele>826</ele>
        <time>2012-11-04T09:44:03Z</time>
      </trkpt>
      <trkpt lat="45.27168" lon="5.58691">
        <ele>827</ele>
        <time>2012-11-04T09:44:04Z</time>
      </trkpt>
      <trkpt lat="45.2717" lon="5.58691">
        <ele>828</ele>
        <time>2012-11-04T09:44:05Z</time>
      </trkpt>
      <trkpt lat="45.27171" lon="5.58692">
        <ele>829</ele>
        <time>2012-11-04T09:44:06Z</time>
      </trkpt>
      <trkpt lat="45.27172" lon="5.58692">
        <ele>830</ele>
        <time>2012-11-04T09:44:07Z</time>
      </trkpt>
      <trkpt lat="45.27174" lon="5.58693">
        <ele>830</ele>
        <time>2012-11-04T09:44:08Z</time>
      </trkpt>
      <trkpt lat="45.27175" lon="5.58693">
        <ele>830</ele>
        <time>2012-11-04T09:44:09Z</time>
      </trkpt>
      <trkpt lat="45.27176" lon="5.58694">
        <ele>830</ele>
        <time>2012-11-04T09:44:10Z</time>
      </trkpt>
      <trkpt lat="45.27178" lon="5.58694">
        <ele>830</ele>
        <time>2012-11-04T09:44:11Z</time>
      </trkpt>
      <trkpt lat="45.2718" lon="5.58695">
        <ele>830</ele>
        <time>2012-11-04T09:44:12Z</time>
      </trkpt>
      <trkpt lat="45.27182" lon="5.58696">
        <ele>831</ele>
        <time>2012-11-04T09:44:13Z</time>
      </trkpt>
      <trkpt lat="45.27183" lon="5.58698">
        <ele>831</ele>
        <time>2012-11-04T09:44:14Z</time>
      </trkpt>
      <trkpt lat="45.27184" lon="5.58699">
        <ele>832</ele>
        <time>2012-11-04T09:44:15Z</time>
      </trkpt>
      <trkpt lat="45.27185" lon="5.587">
        <ele>832</ele>
        <time>2012-11-04T09:44:16Z</time>
      </trkpt>
      <trkpt lat="45.27186" lon="5.58701">
        <ele>833</ele>
        <time>2012-11-04T09:44:17Z</time>
      </trkpt>
      <trkpt lat="45.27187" lon="5.58703">
        <ele>832</ele>
        <time>2012-11-04T09:44:18Z</time>
      </trkpt>
      <trkpt lat="45.27188" lon="5.58704">
        <ele>833</ele>
        <time>2012-11-04T09:44:19Z</time>
      </trkpt>
      <trkpt lat="45.27188" lon="5.58704">
        <ele>833</ele>
        <time>2012-11-04T09:44:20Z</time>
      </trkpt>
      <trkpt lat="45.27189" lon="5.58705">
        <ele>832</ele>
        <time>2012-11-04T09:44:21Z</time>
      </trkpt>
      <trkpt lat="45.2719" lon="5.58705">
        <ele>832</ele>
        <time>2012-11-04T09:44:22Z</time>
      </trkpt>
      <trkpt lat="45.2719" lon="5.58705">
        <ele>833</ele>
        <time>2012-11-04T09:44:23Z</time>
      </trkpt>
      <trkpt lat="45.27191" lon="5.58705">
        <ele>833</ele>
        <time>2012-11-04T09:44:24Z</time>
      </trkpt>
      <trkpt lat="45.27195" lon="5.58705">
        <ele>833</ele>
        <time>2012-11-04T09:44:28Z</time>
      </trkpt>
      <trkpt lat="45.27195" lon="5.58705">
        <ele>833</ele>
        <time>2012-11-04T09:44:29Z</time>
      </trkpt>
      <trkpt lat="45.27195" lon="5.58705">
        <ele>833</ele>
        <time>2012-11-04T09:44:30Z</time>
      </trkpt>
      <trkpt lat="45.27195" lon="5.58705">
        <ele>833</ele>
        <time>2012-11-04T09:44:31Z</time>
      </trkpt>
      <trkpt lat="45.27195" lon="5.58705">
        <ele>833</ele>
        <time>2012-11-04T09:44:32Z</time>
      </trkpt>
      <trkpt lat="45.27195" lon="5.58705">
        <ele>834</ele>
        <time>2012-11-04T09:44:33Z</time>
      </trkpt>
      <trkpt lat="45.27195" lon="5.58705">
        <ele>834</ele>
        <time>2012-11-04T09:44:34Z</time>
      </trkpt>
      <trkpt lat="45.27195" lon="5.58705">
        <ele>835</ele>
        <time>2012-11-04T09:44:35Z</time>
      </trkpt>
      <trkpt lat="45.27195" lon="5.58705">
        <ele>835</ele>
        <time>2012-11-04T09:44:36Z</time>
      </trkpt>
      <trkpt lat="45.27195" lon="5.58705">
        <ele>835</ele>
        <time>2012-11-04T09:44:37Z</time>
      </trkpt>
      <trkpt lat="45.27195" lon="5.58705">
        <ele>835</ele>
        <time>2012-11-04T09:44:38Z</time>
      </trkpt>
      <trkpt lat="45.27195" lon="5.58705">
        <ele>835</ele>
        <time>2012-11-04T09:44:39Z</time>
      </trkpt>
      <trkpt lat="45.27195" lon="5.58705">
        <ele>835</ele>
        <time>2012-11-04T09:44:40Z</time>
      </trkpt>
      <trkpt lat="45.27195" lon="5.58705">
        <ele>835</ele>
        <time>2012-11-04T09:44:41Z</time>
      </trkpt>
      <trkpt lat="45.27195" lon="5.58705">
        <ele>835</ele>
        <time>2012-11-04T09:44:42Z</time>
      </trkpt>
      <trkpt lat="45.27195" lon="5.58705">
        <ele>835</ele>
        <time>2012-11-04T09:44:43Z</time>
      </trkpt>
      <trkpt lat="45.27195" lon="5.58705">
        <ele>835</ele>
        <time>2012-11-04T09:44:44Z</time>
      </trkpt>
      <trkpt lat="45.27195" lon="5.58705">
        <ele>835</ele>
        <time>2012-11-04T09:44:45Z</time>
      </trkpt>
      <trkpt lat="45.27195" lon="5.58705">
        <ele>835</ele>
        <time>2012-11-04T09:44:46Z</time>
      </trkpt>
      <trkpt lat="45.27195" lon="5.58705">
        <ele>835</ele>
        <time>2012-11-04T09:44:47Z</time>
      </trkpt>
      <trkpt lat="45.27195" lon="5.58705">
        <ele>835</ele>
        <time>2012-11-04T09:44:48Z</time>
      </trkpt>
      <trkpt lat="45.27195" lon="5.58705">
        <ele>835</ele>
        <time>2012-11-04T09:44:49Z</time>
      </trkpt>
      <trkpt lat="45.27195" lon="5.58705">
        <ele>835</ele>
        <time>2012-11-04T09:44:50Z</time>
      </trkpt>
      <trkpt lat="45.27195" lon="5.58705">
        <ele>835</ele>
        <time>2012-11-04T09:44:51Z</time>
      </trkpt>
      <trkpt lat="45.27195" lon="5.58705">
        <ele>835</ele>
        <time>2012-11-04T09:44:52Z</time>
      </trkpt>
      <trkpt lat="45.27195" lon="5.58705">
        <ele>835</ele>
        <time>2012-11-04T09:44:53Z</time>
      </trkpt>
      <trkpt lat="45.27195" lon="5.58705">
        <ele>835</ele>
        <time>2012-11-04T09:44:54Z</time>
      </trkpt>
      <trkpt lat="45.27195" lon="5.58705">
        <ele>835</ele>
        <time>2012-11-04T09:44:55Z</time>
      </trkpt>
      <trkpt lat="45.27195" lon="5.58705">
        <ele>835</ele>
        <time>2012-11-04T09:44:56Z</time>
      </trkpt>
      <trkpt lat="45.27195" lon="5.58705">
        <ele>835</ele>
        <time>2012-11-04T09:44:57Z</time>
      </trkpt>
      <trkpt lat="45.27195" lon="5.58705">
        <ele>836</ele>
        <time>2012-11-04T09:44:58Z</time>
      </trkpt>
      <trkpt lat="45.27195" lon="5.58705">
        <ele>836</ele>
        <time>2012-11-04T09:44:59Z</time>
      </trkpt>
      <trkpt lat="45.27195" lon="5.58705">
        <ele>836</ele>
        <time>2012-11-04T09:45:00Z</time>
      </trkpt>
      <trkpt lat="45.272" lon="5.58704">
        <ele>837</ele>
        <time>2012-11-04T09:45:03Z</time>
      </trkpt>
      <trkpt lat="45.27202" lon="5.58703">
        <ele>838</ele>
        <time>2012-11-04T09:45:04Z</time>
      </trkpt>
      <trkpt lat="45.27202" lon="5.58703">
        <ele>838</ele>
        <time>2012-11-04T09:45:05Z</time>
      </trkpt>
      <trkpt lat="45.27207" lon="5.58701">
        <ele>839</ele>
        <time>2012-11-04T09:45:06Z</time>
      </trkpt>
      <trkpt lat="45.27207" lon="5.58701">
        <ele>839</ele>
        <time>2012-11-04T09:45:07Z</time>
      </trkpt>
      <trkpt lat="45.27209" lon="5.58699">
        <ele>838</ele>
        <time>2012-11-04T09:45:08Z</time>
      </trkpt>
      <trkpt lat="45.27211" lon="5.58697">
        <ele>840</ele>
        <time>2012-11-04T09:45:09Z</time>
      </trkpt>
      <trkpt lat="45.27212" lon="5.58696">
        <ele>842</ele>
        <time>2012-11-04T09:45:10Z</time>
      </trkpt>
      <trkpt lat="45.27212" lon="5.58695">
        <ele>842</ele>
        <time>2012-11-04T09:45:11Z</time>
      </trkpt>
      <trkpt lat="45.27212" lon="5.58695">
        <ele>843</ele>
        <time>2012-11-04T09:45:12Z</time>
      </trkpt>
      <trkpt lat="45.27212" lon="5.58694">
        <ele>844</ele>
        <time>2012-11-04T09:45:13Z</time>
      </trkpt>
      <trkpt lat="45.27213" lon="5.58694">
        <ele>844</ele>
        <time>2012-11-04T09:45:14Z</time>
      </trkpt>
      <trkpt lat="45.27215" lon="5.58694">
        <ele>845</ele>
        <time>2012-11-04T09:45:16Z</time>
      </trkpt>
      <trkpt lat="45.27216" lon="5.58693">
        <ele>851</ele>
        <time>2012-11-04T09:45:17Z</time>
      </trkpt>
      <trkpt lat="45.27217" lon="5.58693">
        <ele>855</ele>
        <time>2012-11-04T09:45:18Z</time>
      </trkpt>
      <trkpt lat="45.27217" lon="5.58693">
        <ele>857</ele>
        <time>2012-11-04T09:45:19Z</time>
      </trkpt>
      <trkpt lat="45.27218" lon="5.58693">
        <ele>857</ele>
        <time>2012-11-04T09:45:20Z</time>
      </trkpt>
      <trkpt lat="45.27219" lon="5.58692">
        <ele>857</ele>
        <time>2012-11-04T09:45:21Z</time>
      </trkpt>
      <trkpt lat="45.2722" lon="5.58692">
        <ele>857</ele>
        <time>2012-11-04T09:45:22Z</time>
      </trkpt>
      <trkpt lat="45.27222" lon="5.58691">
        <ele>856</ele>
        <time>2012-11-04T09:45:23Z</time>
      </trkpt>
      <trkpt lat="45.27224" lon="5.58689">
        <ele>855</ele>
        <time>2012-11-04T09:45:24Z</time>
      </trkpt>
      <trkpt lat="45.27225" lon="5.58688">
        <ele>857</ele>
        <time>2012-11-04T09:45:25Z</time>
      </trkpt>
      <trkpt lat="45.27225" lon="5.58687">
        <ele>858</ele>
        <time>2012-11-04T09:45:26Z</time>
      </trkpt>
      <trkpt lat="45.27226" lon="5.58687">
        <ele>858</ele>
        <time>2012-11-04T09:45:27Z</time>
      </trkpt>
      <trkpt lat="45.27226" lon="5.58685">
        <ele>858</ele>
        <time>2012-11-04T09:45:28Z</time>
      </trkpt>
      <trkpt lat="45.27226" lon="5.58685">
        <ele>858</ele>
        <time>2012-11-04T09:45:29Z</time>
      </trkpt>
      <trkpt lat="45.27226" lon="5.58685">
        <ele>858</ele>
        <time>2012-11-04T09:45:30Z</time>
      </trkpt>
      <trkpt lat="45.27226" lon="5.58685">
        <ele>858</ele>
        <time>2012-11-04T09:45:31Z</time>
      </trkpt>
      <trkpt lat="45.27226" lon="5.58685">
        <ele>858</ele>
        <time>2012-11-04T09:45:32Z</time>
      </trkpt>
      <trkpt lat="45.27226" lon="5.58685">
        <ele>858</ele>
        <time>2012-11-04T09:45:33Z</time>
      </trkpt>
      <trkpt lat="45.2723" lon="5.58683">
        <ele>858</ele>
        <time>2012-11-04T09:45:34Z</time>
      </trkpt>
      <trkpt lat="45.2723" lon="5.58683">
        <ele>858</ele>
        <time>2012-11-04T09:45:35Z</time>
      </trkpt>
      <trkpt lat="45.2723" lon="5.58683">
        <ele>858</ele>
        <time>2012-11-04T09:45:36Z</time>
      </trkpt>
      <trkpt lat="45.2723" lon="5.58683">
        <ele>858</ele>
        <time>2012-11-04T09:45:37Z</time>
      </trkpt>
      <trkpt lat="45.2723" lon="5.58683">
        <ele>858</ele>
        <time>2012-11-04T09:45:38Z</time>
      </trkpt>
      <trkpt lat="45.27232" lon="5.58683">
        <ele>858</ele>
        <time>2012-11-04T09:45:39Z</time>
      </trkpt>
      <trkpt lat="45.27251" lon="5.58684">
        <ele>857</ele>
        <time>2012-11-04T09:45:51Z</time>
      </trkpt>
      <trkpt lat="45.27251" lon="5.58684">
        <ele>857</ele>
        <time>2012-11-04T09:45:52Z</time>
      </trkpt>
      <trkpt lat="45.27253" lon="5.58685">
        <ele>857</ele>
        <time>2012-11-04T09:45:53Z</time>
      </trkpt>
      <trkpt lat="45.27254" lon="5.58685">
        <ele>857</ele>
        <time>2012-11-04T09:45:54Z</time>
      </trkpt>
      <trkpt lat="45.27256" lon="5.58685">
        <ele>857</ele>
        <time>2012-11-04T09:45:56Z</time>
      </trkpt>
      <trkpt lat="45.27257" lon="5.58684">
        <ele>858</ele>
        <time>2012-11-04T09:45:57Z</time>
      </trkpt>
      <trkpt lat="45.27257" lon="5.58684">
        <ele>859</ele>
        <time>2012-11-04T09:45:58Z</time>
      </trkpt>
      <trkpt lat="45.27257" lon="5.58683">
        <ele>860</ele>
        <time>2012-11-04T09:45:59Z</time>
      </trkpt>
      <trkpt lat="45.27258" lon="5.58682">
        <ele>860</ele>
        <time>2012-11-04T09:46:00Z</time>
      </trkpt>
      <trkpt lat="45.27258" lon="5.58682">
        <ele>858</ele>
        <time>2012-11-04T09:46:01Z</time>
      </trkpt>
      <trkpt lat="45.27258" lon="5.58682">
        <ele>858</ele>
        <time>2012-11-04T09:46:02Z</time>
      </trkpt>
      <trkpt lat="45.27258" lon="5.58682">
        <ele>858</ele>
        <time>2012-11-04T09:46:03Z</time>
      </trkpt>
      <trkpt lat="45.27258" lon="5.58682">
        <ele>858</ele>
        <time>2012-11-04T09:46:04Z</time>
      </trkpt>
      <trkpt lat="45.27258" lon="5.58682">
        <ele>858</ele>
        <time>2012-11-04T09:46:05Z</time>
      </trkpt>
      <trkpt lat="45.27258" lon="5.58682">
        <ele>858</ele>
        <time>2012-11-04T09:46:06Z</time>
      </trkpt>
      <trkpt lat="45.27258" lon="5.58682">
        <ele>858</ele>
        <time>2012-11-04T09:46:07Z</time>
      </trkpt>
      <trkpt lat="45.27258" lon="5.58682">
        <ele>858</ele>
        <time>2012-11-04T09:46:08Z</time>
      </trkpt>
      <trkpt lat="45.27258" lon="5.58682">
        <ele>859</ele>
        <time>2012-11-04T09:46:09Z</time>
      </trkpt>
      <trkpt lat="45.27262" lon="5.5868">
        <ele>859</ele>
        <time>2012-11-04T09:46:10Z</time>
      </trkpt>
      <trkpt lat="45.27262" lon="5.5868">
        <ele>859</ele>
        <time>2012-11-04T09:46:11Z</time>
      </trkpt>
      <trkpt lat="45.27262" lon="5.5868">
        <ele>859</ele>
        <time>2012-11-04T09:46:12Z</time>
      </trkpt>
      <trkpt lat="45.27262" lon="5.5868">
        <ele>861</ele>
        <time>2012-11-04T09:46:13Z</time>
      </trkpt>
      <trkpt lat="45.27262" lon="5.5868">
        <ele>861</ele>
        <time>2012-11-04T09:46:14Z</time>
      </trkpt>
      <trkpt lat="45.27262" lon="5.5868">
        <ele>862</ele>
        <time>2012-11-04T09:46:15Z</time>
      </trkpt>
      <trkpt lat="45.27262" lon="5.5868">
        <ele>862</ele>
        <time>2012-11-04T09:46:16Z</time>
      </trkpt>
      <trkpt lat="45.27262" lon="5.5868">
        <ele>862</ele>
        <time>2012-11-04T09:46:17Z</time>
      </trkpt>
      <trkpt lat="45.27262" lon="5.5868">
        <ele>862</ele>
        <time>2012-11-04T09:46:18Z</time>
      </trkpt>
      <trkpt lat="45.27262" lon="5.5868">
        <ele>862</ele>
        <time>2012-11-04T09:46:19Z</time>
      </trkpt>
      <trkpt lat="45.27262" lon="5.5868">
        <ele>862</ele>
        <time>2012-11-04T09:46:20Z</time>
      </trkpt>
      <trkpt lat="45.27262" lon="5.5868">
        <ele>862</ele>
        <time>2012-11-04T09:46:21Z</time>
      </trkpt>
      <trkpt lat="45.27262" lon="5.5868">
        <ele>862</ele>
        <time>2012-11-04T09:46:22Z</time>
      </trkpt>
      <trkpt lat="45.27262" lon="5.5868">
        <ele>862</ele>
        <time>2012-11-04T09:46:23Z</time>
      </trkpt>
      <trkpt lat="45.27262" lon="5.5868">
        <ele>862</ele>
        <time>2012-11-04T09:46:24Z</time>
      </trkpt>
      <trkpt lat="45.27262" lon="5.5868">
        <ele>861</ele>
        <time>2012-11-04T09:46:25Z</time>
      </trkpt>
      <trkpt lat="45.27262" lon="5.5868">
        <ele>861</ele>
        <time>2012-11-04T09:46:26Z</time>
      </trkpt>
      <trkpt lat="45.27262" lon="5.5868">
        <ele>861</ele>
        <time>2012-11-04T09:46:27Z</time>
      </trkpt>
      <trkpt lat="45.27262" lon="5.5868">
        <ele>861</ele>
        <time>2012-11-04T09:46:28Z</time>
      </trkpt>
      <trkpt lat="45.27262" lon="5.5868">
        <ele>861</ele>
        <time>2012-11-04T09:46:29Z</time>
      </trkpt>
      <trkpt lat="45.27262" lon="5.5868">
        <ele>861</ele>
        <time>2012-11-04T09:46:30Z</time>
      </trkpt>
      <trkpt lat="45.27266" lon="5.58681">
        <ele>862</ele>
        <time>2012-11-04T09:46:31Z</time>
      </trkpt>
      <trkpt lat="45.27267" lon="5.58682">
        <ele>862</ele>
        <time>2012-11-04T09:46:32Z</time>
      </trkpt>
      <trkpt lat="45.2727" lon="5.58682">
        <ele>860</ele>
        <time>2012-11-04T09:46:33Z</time>
      </trkpt>
      <trkpt lat="45.27271" lon="5.58683">
        <ele>860</ele>
        <time>2012-11-04T09:46:34Z</time>
      </trkpt>
      <trkpt lat="45.27273" lon="5.58683">
        <ele>860</ele>
        <time>2012-11-04T09:46:35Z</time>
      </trkpt>
      <trkpt lat="45.27274" lon="5.58684">
        <ele>862</ele>
        <time>2012-11-04T09:46:36Z</time>
      </trkpt>
      <trkpt lat="45.27276" lon="5.58685">
        <ele>863</ele>
        <time>2012-11-04T09:46:37Z</time>
      </trkpt>
      <trkpt lat="45.27277" lon="5.58686">
        <ele>864</ele>
        <time>2012-11-04T09:46:38Z</time>
      </trkpt>
      <trkpt lat="45.27278" lon="5.58687">
        <ele>864</ele>
        <time>2012-11-04T09:46:39Z</time>
      </trkpt>
      <trkpt lat="45.27279" lon="5.58687">
        <ele>865</ele>
        <time>2012-11-04T09:46:40Z</time>
      </trkpt>
      <trkpt lat="45.27281" lon="5.58688">
        <ele>864</ele>
        <time>2012-11-04T09:46:41Z</time>
      </trkpt>
      <trkpt lat="45.27284" lon="5.5869">
        <ele>863</ele>
        <time>2012-11-04T09:46:42Z</time>
      </trkpt>
      <trkpt lat="45.27285" lon="5.5869">
        <ele>863</ele>
        <time>2012-11-04T09:46:43Z</time>
      </trkpt>
      <trkpt lat="45.27287" lon="5.58692">
        <ele>861</ele>
        <time>2012-11-04T09:46:44Z</time>
      </trkpt>
      <trkpt lat="45.2729" lon="5.58693">
        <ele>863</ele>
        <time>2012-11-04T09:46:45Z</time>
      </trkpt>
      <trkpt lat="45.27292" lon="5.58694">
        <ele>864</ele>
        <time>2012-11-04T09:46:46Z</time>
      </trkpt>
      <trkpt lat="45.27292" lon="5.58695">
        <ele>865</ele>
        <time>2012-11-04T09:46:47Z</time>
      </trkpt>
      <trkpt lat="45.27294" lon="5.58696">
        <ele>865</ele>
        <time>2012-11-04T09:46:48Z</time>
      </trkpt>
      <trkpt lat="45.27296" lon="5.58697">
        <ele>864</ele>
        <time>2012-11-04T09:46:49Z</time>
      </trkpt>
      <trkpt lat="45.27298" lon="5.58697">
        <ele>865</ele>
        <time>2012-11-04T09:46:50Z</time>
      </trkpt>
      <trkpt lat="45.27298" lon="5.58698">
        <ele>865</ele>
        <time>2012-11-04T09:46:51Z</time>
      </trkpt>
      <trkpt lat="45.273" lon="5.58699">
        <ele>865</ele>
        <time>2012-11-04T09:46:52Z</time>
      </trkpt>
      <trkpt lat="45.27301" lon="5.587">
        <ele>865</ele>
        <time>2012-11-04T09:46:53Z</time>
      </trkpt>
      <trkpt lat="45.27302" lon="5.587">
        <ele>866</ele>
        <time>2012-11-04T09:46:54Z</time>
      </trkpt>
      <trkpt lat="45.27303" lon="5.58701">
        <ele>866</ele>
        <time>2012-11-04T09:46:55Z</time>
      </trkpt>
      <trkpt lat="45.27306" lon="5.58702">
        <ele>866</ele>
        <time>2012-11-04T09:46:56Z</time>
      </trkpt>
      <trkpt lat="45.27307" lon="5.58702">
        <ele>866</ele>
        <time>2012-11-04T09:46:57Z</time>
      </trkpt>
      <trkpt lat="45.27309" lon="5.58702">
        <ele>867</ele>
        <time>2012-11-04T09:46:58Z</time>
      </trkpt>
      <trkpt lat="45.27311" lon="5.58702">
        <ele>867</ele>
        <time>2012-11-04T09:46:59Z</time>
      </trkpt>
      <trkpt lat="45.27313" lon="5.58702">
        <ele>867</ele>
        <time>2012-11-04T09:47:00Z</time>
      </trkpt>
      <trkpt lat="45.27315" lon="5.58703">
        <ele>868</ele>
        <time>2012-11-04T09:47:01Z</time>
      </trkpt>
      <trkpt lat="45.27316" lon="5.58703">
        <ele>868</ele>
        <time>2012-11-04T09:47:02Z</time>
      </trkpt>
      <trkpt lat="45.27323" lon="5.58703">
        <ele>868</ele>
        <time>2012-11-04T09:47:07Z</time>
      </trkpt>
      <trkpt lat="45.27324" lon="5.58703">
        <ele>869</ele>
        <time>2012-11-04T09:47:08Z</time>
      </trkpt>
      <trkpt lat="45.27325" lon="5.58704">
        <ele>870</ele>
        <time>2012-11-04T09:47:09Z</time>
      </trkpt>
      <trkpt lat="45.27326" lon="5.58705">
        <ele>870</ele>
        <time>2012-11-04T09:47:10Z</time>
      </trkpt>
      <trkpt lat="45.27327" lon="5.58706">
        <ele>871</ele>
        <time>2012-11-04T09:47:11Z</time>
      </trkpt>
      <trkpt lat="45.27328" lon="5.58708">
        <ele>869</ele>
        <time>2012-11-04T09:47:12Z</time>
      </trkpt>
      <trkpt lat="45.27329" lon="5.58709">
        <ele>869</ele>
        <time>2012-11-04T09:47:13Z</time>
      </trkpt>
      <trkpt lat="45.2733" lon="5.5871">
        <ele>868</ele>
        <time>2012-11-04T09:47:14Z</time>
      </trkpt>
      <trkpt lat="45.27333" lon="5.58714">
        <ele>865</ele>
        <time>2012-11-04T09:47:15Z</time>
      </trkpt>
      <trkpt lat="45.27334" lon="5.58715">
        <ele>865</ele>
        <time>2012-11-04T09:47:16Z</time>
      </trkpt>
      <trkpt lat="45.27335" lon="5.58718">
        <ele>867</ele>
        <time>2012-11-04T09:47:17Z</time>
      </trkpt>
      <trkpt lat="45.27337" lon="5.5872">
        <ele>868</ele>
        <time>2012-11-04T09:47:18Z</time>
      </trkpt>
      <trkpt lat="45.27339" lon="5.58722">
        <ele>868</ele>
        <time>2012-11-04T09:47:19Z</time>
      </trkpt>
      <trkpt lat="45.27341" lon="5.58724">
        <ele>869</ele>
        <time>2012-11-04T09:47:20Z</time>
      </trkpt>
      <trkpt lat="45.27342" lon="5.58726">
        <ele>870</ele>
        <time>2012-11-04T09:47:21Z</time>
      </trkpt>
      <trkpt lat="45.27343" lon="5.58728">
        <ele>870</ele>
        <time>2012-11-04T09:47:22Z</time>
      </trkpt>
      <trkpt lat="45.27344" lon="5.5873">
        <ele>871</ele>
        <time>2012-11-04T09:47:23Z</time>
      </trkpt>
      <trkpt lat="45.27346" lon="5.58732">
        <ele>871</ele>
        <time>2012-11-04T09:47:24Z</time>
      </trkpt>
      <trkpt lat="45.27347" lon="5.58734">
        <ele>871</ele>
        <time>2012-11-04T09:47:25Z</time>
      </trkpt>
      <trkpt lat="45.27349" lon="5.58736">
        <ele>871</ele>
        <time>2012-11-04T09:47:26Z</time>
      </trkpt>
      <trkpt lat="45.2735" lon="5.58738">
        <ele>871</ele>
        <time>2012-11-04T09:47:27Z</time>
      </trkpt>
      <trkpt lat="45.27352" lon="5.5874">
        <ele>876</ele>
        <time>2012-11-04T09:47:28Z</time>
      </trkpt>
      <trkpt lat="45.27353" lon="5.58742">
        <ele>879</ele>
        <time>2012-11-04T09:47:29Z</time>
      </trkpt>
      <trkpt lat="45.27353" lon="5.58744">
        <ele>880</ele>
        <time>2012-11-04T09:47:30Z</time>
      </trkpt>
      <trkpt lat="45.27354" lon="5.58746">
        <ele>881</ele>
        <time>2012-11-04T09:47:31Z</time>
      </trkpt>
      <trkpt lat="45.27354" lon="5.58746">
        <ele>882</ele>
        <time>2012-11-04T09:47:32Z</time>
      </trkpt>
      <trkpt lat="45.27354" lon="5.58747">
        <ele>882</ele>
        <time>2012-11-04T09:47:33Z</time>
      </trkpt>
      <trkpt lat="45.27355" lon="5.58748">
        <ele>883</ele>
        <time>2012-11-04T09:47:34Z</time>
      </trkpt>
      <trkpt lat="45.27355" lon="5.58748">
        <ele>884</ele>
        <time>2012-11-04T09:47:35Z</time>
      </trkpt>
      <trkpt lat="45.27356" lon="5.58747">
        <ele>884</ele>
        <time>2012-11-04T09:47:36Z</time>
      </trkpt>
      <trkpt lat="45.27358" lon="5.58747">
        <ele>883</ele>
        <time>2012-11-04T09:47:37Z</time>
      </trkpt>
      <trkpt lat="45.27358" lon="5.58747">
        <ele>883</ele>
        <time>2012-11-04T09:47:38Z</time>
      </trkpt>
      <trkpt lat="45.2736" lon="5.58748">
        <ele>884</ele>
        <time>2012-11-04T09:47:39Z</time>
      </trkpt>
      <trkpt lat="45.27361" lon="5.58751">
        <ele>884</ele>
        <time>2012-11-04T09:47:40Z</time>
      </trkpt>
      <trkpt lat="45.27362" lon="5.58752">
        <ele>884</ele>
        <time>2012-11-04T09:47:41Z</time>
      </trkpt>
      <trkpt lat="45.27364" lon="5.58756">
        <ele>885</ele>
        <time>2012-11-04T09:47:42Z</time>
      </trkpt>
      <trkpt lat="45.27366" lon="5.58759">
        <ele>884</ele>
        <time>2012-11-04T09:47:43Z</time>
      </trkpt>
      <trkpt lat="45.27367" lon="5.58762">
        <ele>884</ele>
        <time>2012-11-04T09:47:44Z</time>
      </trkpt>
      <trkpt lat="45.27369" lon="5.58765">
        <ele>884</ele>
        <time>2012-11-04T09:47:45Z</time>
      </trkpt>
      <trkpt lat="45.2737" lon="5.58766">
        <ele>884</ele>
        <time>2012-11-04T09:47:46Z</time>
      </trkpt>
      <trkpt lat="45.27371" lon="5.58768">
        <ele>884</ele>
        <time>2012-11-04T09:47:47Z</time>
      </trkpt>
      <trkpt lat="45.27374" lon="5.58772">
        <ele>884</ele>
        <time>2012-11-04T09:47:48Z</time>
      </trkpt>
      <trkpt lat="45.27375" lon="5.58775">
        <ele>885</ele>
        <time>2012-11-04T09:47:49Z</time>
      </trkpt>
      <trkpt lat="45.27376" lon="5.58777">
        <ele>885</ele>
        <time>2012-11-04T09:47:50Z</time>
      </trkpt>
      <trkpt lat="45.27378" lon="5.5878">
        <ele>885</ele>
        <time>2012-11-04T09:47:51Z</time>
      </trkpt>
      <trkpt lat="45.2738" lon="5.58782">
        <ele>886</ele>
        <time>2012-11-04T09:47:52Z</time>
      </trkpt>
      <trkpt lat="45.27382" lon="5.58785">
        <ele>886</ele>
        <time>2012-11-04T09:47:53Z</time>
      </trkpt>
      <trkpt lat="45.27385" lon="5.58788">
        <ele>886</ele>
        <time>2012-11-04T09:47:54Z</time>
      </trkpt>
      <trkpt lat="45.27387" lon="5.58792">
        <ele>887</ele>
        <time>2012-11-04T09:47:55Z</time>
      </trkpt>
      <trkpt lat="45.2739" lon="5.58796">
        <ele>887</ele>
        <time>2012-11-04T09:47:56Z</time>
      </trkpt>
      <trkpt lat="45.27392" lon="5.588">
        <ele>887</ele>
        <time>2012-11-04T09:47:57Z</time>
      </trkpt>
      <trkpt lat="45.27395" lon="5.58805">
        <ele>887</ele>
        <time>2012-11-04T09:47:58Z</time>
      </trkpt>
      <trkpt lat="45.27397" lon="5.58809">
        <ele>886</ele>
        <time>2012-11-04T09:47:59Z</time>
      </trkpt>
      <trkpt lat="45.27398" lon="5.58811">
        <ele>886</ele>
        <time>2012-11-04T09:48:00Z</time>
      </trkpt>
      <trkpt lat="45.274" lon="5.58815">
        <ele>885</ele>
        <time>2012-11-04T09:48:01Z</time>
      </trkpt>
      <trkpt lat="45.27401" lon="5.58818">
        <ele>887</ele>
        <time>2012-11-04T09:48:02Z</time>
      </trkpt>
      <trkpt lat="45.27403" lon="5.58821">
        <ele>887</ele>
        <time>2012-11-04T09:48:03Z</time>
      </trkpt>
      <trkpt lat="45.27404" lon="5.58823">
        <ele>889</ele>
        <time>2012-11-04T09:48:04Z</time>
      </trkpt>
      <trkpt lat="45.27404" lon="5.58825">
        <ele>890</ele>
        <time>2012-11-04T09:48:05Z</time>
      </trkpt>
      <trkpt lat="45.27405" lon="5.58827">
        <ele>891</ele>
        <time>2012-11-04T09:48:06Z</time>
      </trkpt>
      <trkpt lat="45.27406" lon="5.5883">
        <ele>890</ele>
        <time>2012-11-04T09:48:07Z</time>
      </trkpt>
      <trkpt lat="45.27407" lon="5.58833">
        <ele>889</ele>
        <time>2012-11-04T09:48:08Z</time>
      </trkpt>
      <trkpt lat="45.27408" lon="5.58837">
        <ele>888</ele>
        <time>2012-11-04T09:48:09Z</time>
      </trkpt>
      <trkpt lat="45.27409" lon="5.5884">
        <ele>887</ele>
        <time>2012-11-04T09:48:10Z</time>
      </trkpt>
      <trkpt lat="45.2741" lon="5.58842">
        <ele>888</ele>
        <time>2012-11-04T09:48:11Z</time>
      </trkpt>
      <trkpt lat="45.2741" lon="5.58844">
        <ele>888</ele>
        <time>2012-11-04T09:48:12Z</time>
      </trkpt>
      <trkpt lat="45.2741" lon="5.58846">
        <ele>887</ele>
        <time>2012-11-04T09:48:13Z</time>
      </trkpt>
      <trkpt lat="45.27411" lon="5.58848">
        <ele>888</ele>
        <time>2012-11-04T09:48:14Z</time>
      </trkpt>
      <trkpt lat="45.27411" lon="5.58849">
        <ele>888</ele>
        <time>2012-11-04T09:48:15Z</time>
      </trkpt>
      <trkpt lat="45.27411" lon="5.58851">
        <ele>888</ele>
        <time>2012-11-04T09:48:16Z</time>
      </trkpt>
      <trkpt lat="45.27412" lon="5.58853">
        <ele>888</ele>
        <time>2012-11-04T09:48:17Z</time>
      </trkpt>
      <trkpt lat="45.27413" lon="5.58854">
        <ele>887</ele>
        <time>2012-11-04T09:48:18Z</time>
      </trkpt>
      <trkpt lat="45.27413" lon="5.58855">
        <ele>892</ele>
        <time>2012-11-04T09:48:19Z</time>
      </trkpt>
      <trkpt lat="45.27414" lon="5.58856">
        <ele>895</ele>
        <time>2012-11-04T09:48:20Z</time>
      </trkpt>
      <trkpt lat="45.27414" lon="5.58856">
        <ele>895</ele>
        <time>2012-11-04T09:48:21Z</time>
      </trkpt>
      <trkpt lat="45.27413" lon="5.58854">
        <ele>896</ele>
        <time>2012-11-04T09:48:22Z</time>
      </trkpt>
      <trkpt lat="45.27414" lon="5.58855">
        <ele>893</ele>
        <time>2012-11-04T09:48:23Z</time>
      </trkpt>
      <trkpt lat="45.27415" lon="5.58857">
        <ele>892</ele>
        <time>2012-11-04T09:48:24Z</time>
      </trkpt>
      <trkpt lat="45.27415" lon="5.58858">
        <ele>892</ele>
        <time>2012-11-04T09:48:25Z</time>
      </trkpt>
      <trkpt lat="45.27416" lon="5.58861">
        <ele>891</ele>
        <time>2012-11-04T09:48:26Z</time>
      </trkpt>
      <trkpt lat="45.27416" lon="5.58863">
        <ele>890</ele>
        <time>2012-11-04T09:48:27Z</time>
      </trkpt>
      <trkpt lat="45.27417" lon="5.58865">
        <ele>890</ele>
        <time>2012-11-04T09:48:28Z</time>
      </trkpt>
      <trkpt lat="45.27418" lon="5.58867">
        <ele>889</ele>
        <time>2012-11-04T09:48:29Z</time>
      </trkpt>
      <trkpt lat="45.2742" lon="5.58869">
        <ele>890</ele>
        <time>2012-11-04T09:48:30Z</time>
      </trkpt>
      <trkpt lat="45.27421" lon="5.58871">
        <ele>891</ele>
        <time>2012-11-04T09:48:31Z</time>
      </trkpt>
      <trkpt lat="45.27421" lon="5.58872">
        <ele>892</ele>
        <time>2012-11-04T09:48:32Z</time>
      </trkpt>
      <trkpt lat="45.27422" lon="5.58876">
        <ele>890</ele>
        <time>2012-11-04T09:48:33Z</time>
      </trkpt>
      <trkpt lat="45.27423" lon="5.58877">
        <ele>891</ele>
        <time>2012-11-04T09:48:34Z</time>
      </trkpt>
      <trkpt lat="45.27423" lon="5.58878">
        <ele>891</ele>
        <time>2012-11-04T09:48:35Z</time>
      </trkpt>
      <trkpt lat="45.27423" lon="5.58878">
        <ele>890</ele>
        <time>2012-11-04T09:48:36Z</time>
      </trkpt>
      <trkpt lat="45.27423" lon="5.58878">
        <ele>890</ele>
        <time>2012-11-04T09:48:37Z</time>
      </trkpt>
      <trkpt lat="45.27423" lon="5.58878">
        <ele>889</ele>
        <time>2012-11-04T09:48:38Z</time>
      </trkpt>
      <trkpt lat="45.27425" lon="5.58885">
        <ele>890</ele>
        <time>2012-11-04T09:48:39Z</time>
      </trkpt>
      <trkpt lat="45.27425" lon="5.58885">
        <ele>890</ele>
        <time>2012-11-04T09:48:40Z</time>
      </trkpt>
      <trkpt lat="45.27425" lon="5.58885">
        <ele>890</ele>
        <time>2012-11-04T09:48:41Z</time>
      </trkpt>
      <trkpt lat="45.27425" lon="5.58885">
        <ele>890</ele>
        <time>2012-11-04T09:48:42Z</time>
      </trkpt>
      <trkpt lat="45.27425" lon="5.58885">
        <ele>890</ele>
        <time>2012-11-04T09:48:43Z</time>
      </trkpt>
      <trkpt lat="45.27426" lon="5.58886">
        <ele>891</ele>
        <time>2012-11-04T09:48:44Z</time>
      </trkpt>
      <trkpt lat="45.27427" lon="5.58887">
        <ele>891</ele>
        <time>2012-11-04T09:48:45Z</time>
      </trkpt>
      <trkpt lat="45.27427" lon="5.58888">
        <ele>891</ele>
        <time>2012-11-04T09:48:46Z</time>
      </trkpt>
      <trkpt lat="45.27428" lon="5.5889">
        <ele>892</ele>
        <time>2012-11-04T09:48:47Z</time>
      </trkpt>
      <trkpt lat="45.27429" lon="5.58892">
        <ele>892</ele>
        <time>2012-11-04T09:48:48Z</time>
      </trkpt>
      <trkpt lat="45.2743" lon="5.58892">
        <ele>892</ele>
        <time>2012-11-04T09:48:49Z</time>
      </trkpt>
      <trkpt lat="45.27431" lon="5.58894">
        <ele>893</ele>
        <time>2012-11-04T09:48:50Z</time>
      </trkpt>
      <trkpt lat="45.27433" lon="5.58896">
        <ele>893</ele>
        <time>2012-11-04T09:48:51Z</time>
      </trkpt>
      <trkpt lat="45.27433" lon="5.58897">
        <ele>893</ele>
        <time>2012-11-04T09:48:52Z</time>
      </trkpt>
      <trkpt lat="45.27435" lon="5.58898">
        <ele>891</ele>
        <time>2012-11-04T09:48:53Z</time>
      </trkpt>
      <trkpt lat="45.27435" lon="5.58898">
        <ele>890</ele>
        <time>2012-11-04T09:48:54Z</time>
      </trkpt>
      <trkpt lat="45.27436" lon="5.58898">
        <ele>891</ele>
        <time>2012-11-04T09:48:55Z</time>
      </trkpt>
      <trkpt lat="45.27436" lon="5.58898">
        <ele>890</ele>
        <time>2012-11-04T09:48:56Z</time>
      </trkpt>
      <trkpt lat="45.27436" lon="5.58898">
        <ele>890</ele>
        <time>2012-11-04T09:48:57Z</time>
      </trkpt>
      <trkpt lat="45.27436" lon="5.58898">
        <ele>890</ele>
        <time>2012-11-04T09:48:58Z</time>
      </trkpt>
      <trkpt lat="45.27436" lon="5.58898">
        <ele>890</ele>
        <time>2012-11-04T09:48:59Z</time>
      </trkpt>
      <trkpt lat="45.27439" lon="5.58903">
        <ele>890</ele>
        <time>2012-11-04T09:49:00Z</time>
      </trkpt>
      <trkpt lat="45.27439" lon="5.58903">
        <ele>890</ele>
        <time>2012-11-04T09:49:01Z</time>
      </trkpt>
      <trkpt lat="45.27439" lon="5.58903">
        <ele>890</ele>
        <time>2012-11-04T09:49:02Z</time>
      </trkpt>
      <trkpt lat="45.27439" lon="5.58903">
        <ele>889</ele>
        <time>2012-11-04T09:49:03Z</time>
      </trkpt>
      <trkpt lat="45.27441" lon="5.58905">
        <ele>890</ele>
        <time>2012-11-04T09:49:04Z</time>
      </trkpt>
      <trkpt lat="45.27442" lon="5.58905">
        <ele>891</ele>
        <time>2012-11-04T09:49:05Z</time>
      </trkpt>
      <trkpt lat="45.27443" lon="5.58906">
        <ele>890</ele>
        <time>2012-11-04T09:49:06Z</time>
      </trkpt>
      <trkpt lat="45.27444" lon="5.58906">
        <ele>890</ele>
        <time>2012-11-04T09:49:07Z</time>
      </trkpt>
      <trkpt lat="45.27446" lon="5.58908">
        <ele>891</ele>
        <time>2012-11-04T09:49:08Z</time>
      </trkpt>
      <trkpt lat="45.27447" lon="5.58909">
        <ele>889</ele>
        <time>2012-11-04T09:49:09Z</time>
      </trkpt>
      <trkpt lat="45.27448" lon="5.58909">
        <ele>888</ele>
        <time>2012-11-04T09:49:10Z</time>
      </trkpt>
      <trkpt lat="45.2745" lon="5.5891">
        <ele>888</ele>
        <time>2012-11-04T09:49:11Z</time>
      </trkpt>
      <trkpt lat="45.27451" lon="5.58911">
        <ele>889</ele>
        <time>2012-11-04T09:49:12Z</time>
      </trkpt>
      <trkpt lat="45.27452" lon="5.58912">
        <ele>889</ele>
        <time>2012-11-04T09:49:13Z</time>
      </trkpt>
      <trkpt lat="45.27453" lon="5.58913">
        <ele>888</ele>
        <time>2012-11-04T09:49:14Z</time>
      </trkpt>
      <trkpt lat="45.27454" lon="5.58915">
        <ele>888</ele>
        <time>2012-11-04T09:49:15Z</time>
      </trkpt>
      <trkpt lat="45.27456" lon="5.58917">
        <ele>888</ele>
        <time>2012-11-04T09:49:16Z</time>
      </trkpt>
      <trkpt lat="45.27458" lon="5.5892">
        <ele>887</ele>
        <time>2012-11-04T09:49:17Z</time>
      </trkpt>
      <trkpt lat="45.27461" lon="5.58923">
        <ele>887</ele>
        <time>2012-11-04T09:49:18Z</time>
      </trkpt>
      <trkpt lat="45.27464" lon="5.58926">
        <ele>887</ele>
        <time>2012-11-04T09:49:19Z</time>
      </trkpt>
      <trkpt lat="45.27465" lon="5.58928">
        <ele>887</ele>
        <time>2012-11-04T09:49:20Z</time>
      </trkpt>
      <trkpt lat="45.27468" lon="5.5893">
        <ele>890</ele>
        <time>2012-11-04T09:49:21Z</time>
      </trkpt>
      <trkpt lat="45.27473" lon="5.58934">
        <ele>890</ele>
        <time>2012-11-04T09:49:22Z</time>
      </trkpt>
      <trkpt lat="45.27476" lon="5.58936">
        <ele>891</ele>
        <time>2012-11-04T09:49:23Z</time>
      </trkpt>
      <trkpt lat="45.2748" lon="5.58939">
        <ele>890</ele>
        <time>2012-11-04T09:49:24Z</time>
      </trkpt>
      <trkpt lat="45.27487" lon="5.58937">
        <ele>887</ele>
        <time>2012-11-04T09:49:27Z</time>
      </trkpt>
      <trkpt lat="45.27489" lon="5.58936">
        <ele>888</ele>
        <time>2012-11-04T09:49:28Z</time>
      </trkpt>
      <trkpt lat="45.2749" lon="5.58935">
        <ele>887</ele>
        <time>2012-11-04T09:49:29Z</time>
      </trkpt>
      <trkpt lat="45.27491" lon="5.58934">
        <ele>887</ele>
        <time>2012-11-04T09:49:30Z</time>
      </trkpt>
      <trkpt lat="45.27493" lon="5.58933">
        <ele>888</ele>
        <time>2012-11-04T09:49:31Z</time>
      </trkpt>
      <trkpt lat="45.27494" lon="5.58933">
        <ele>889</ele>
        <time>2012-11-04T09:49:32Z</time>
      </trkpt>
      <trkpt lat="45.27496" lon="5.58933">
        <ele>890</ele>
        <time>2012-11-04T09:49:33Z</time>
      </trkpt>
      <trkpt lat="45.27498" lon="5.58932">
        <ele>890</ele>
        <time>2012-11-04T09:49:35Z</time>
      </trkpt>
      <trkpt lat="45.275" lon="5.58932">
        <ele>893</ele>
        <time>2012-11-04T09:49:37Z</time>
      </trkpt>
      <trkpt lat="45.275" lon="5.58933">
        <ele>894</ele>
        <time>2012-11-04T09:49:38Z</time>
      </trkpt>
      <trkpt lat="45.27501" lon="5.58933">
        <ele>894</ele>
        <time>2012-11-04T09:49:39Z</time>
      </trkpt>
      <trkpt lat="45.27502" lon="5.58933">
        <ele>895</ele>
        <time>2012-11-04T09:49:40Z</time>
      </trkpt>
      <trkpt lat="45.27503" lon="5.58934">
        <ele>895</ele>
        <time>2012-11-04T09:49:41Z</time>
      </trkpt>
      <trkpt lat="45.27504" lon="5.58933">
        <ele>894</ele>
        <time>2012-11-04T09:49:42Z</time>
      </trkpt>
      <trkpt lat="45.27505" lon="5.58933">
        <ele>894</ele>
        <time>2012-11-04T09:49:43Z</time>
      </trkpt>
      <trkpt lat="45.27506" lon="5.58933">
        <ele>897</ele>
        <time>2012-11-04T09:49:44Z</time>
      </trkpt>
      <trkpt lat="45.27506" lon="5.58933">
        <ele>899</ele>
        <time>2012-11-04T09:49:45Z</time>
      </trkpt>
      <trkpt lat="45.27506" lon="5.58933">
        <ele>900</ele>
        <time>2012-11-04T09:49:46Z</time>
      </trkpt>
      <trkpt lat="45.27507" lon="5.58934">
        <ele>900</ele>
        <time>2012-11-04T09:49:47Z</time>
      </trkpt>
      <trkpt lat="45.27508" lon="5.58936">
        <ele>902</ele>
        <time>2012-11-04T09:49:48Z</time>
      </trkpt>
      <trkpt lat="45.27508" lon="5.58937">
        <ele>903</ele>
        <time>2012-11-04T09:49:49Z</time>
      </trkpt>
      <trkpt lat="45.2751" lon="5.5894">
        <ele>901</ele>
        <time>2012-11-04T09:49:50Z</time>
      </trkpt>
      <trkpt lat="45.27512" lon="5.58943">
        <ele>900</ele>
        <time>2012-11-04T09:49:51Z</time>
      </trkpt>
      <trkpt lat="45.27513" lon="5.58945">
        <ele>900</ele>
        <time>2012-11-04T09:49:52Z</time>
      </trkpt>
      <trkpt lat="45.27515" lon="5.58948">
        <ele>899</ele>
        <time>2012-11-04T09:49:53Z</time>
      </trkpt>
      <trkpt lat="45.27516" lon="5.5895">
        <ele>899</ele>
        <time>2012-11-04T09:49:54Z</time>
      </trkpt>
      <trkpt lat="45.27517" lon="5.58952">
        <ele>898</ele>
        <time>2012-11-04T09:49:55Z</time>
      </trkpt>
      <trkpt lat="45.27517" lon="5.58953">
        <ele>897</ele>
        <time>2012-11-04T09:49:56Z</time>
      </trkpt>
      <trkpt lat="45.27518" lon="5.58956">
        <ele>897</ele>
        <time>2012-11-04T09:49:57Z</time>
      </trkpt>
      <trkpt lat="45.27519" lon="5.58958">
        <ele>897</ele>
        <time>2012-11-04T09:49:58Z</time>
      </trkpt>
      <trkpt lat="45.2752" lon="5.58963">
        <ele>896</ele>
        <time>2012-11-04T09:49:59Z</time>
      </trkpt>
      <trkpt lat="45.27521" lon="5.58966">
        <ele>896</ele>
        <time>2012-11-04T09:50:00Z</time>
      </trkpt>
      <trkpt lat="45.27522" lon="5.58971">
        <ele>896</ele>
        <time>2012-11-04T09:50:01Z</time>
      </trkpt>
      <trkpt lat="45.27523" lon="5.58975">
        <ele>896</ele>
        <time>2012-11-04T09:50:02Z</time>
      </trkpt>
      <trkpt lat="45.27524" lon="5.58977">
        <ele>895</ele>
        <time>2012-11-04T09:50:03Z</time>
      </trkpt>
      <trkpt lat="45.27525" lon="5.5898">
        <ele>895</ele>
        <time>2012-11-04T09:50:04Z</time>
      </trkpt>
      <trkpt lat="45.27526" lon="5.58981">
        <ele>895</ele>
        <time>2012-11-04T09:50:05Z</time>
      </trkpt>
      <trkpt lat="45.27526" lon="5.58982">
        <ele>896</ele>
        <time>2012-11-04T09:50:06Z</time>
      </trkpt>
      <trkpt lat="45.27527" lon="5.58983">
        <ele>896</ele>
        <time>2012-11-04T09:50:07Z</time>
      </trkpt>
      <trkpt lat="45.27527" lon="5.58984">
        <ele>898</ele>
        <time>2012-11-04T09:50:08Z</time>
      </trkpt>
      <trkpt lat="45.27527" lon="5.58984">
        <ele>898</ele>
        <time>2012-11-04T09:50:09Z</time>
      </trkpt>
      <trkpt lat="45.27527" lon="5.58985">
        <ele>899</ele>
        <time>2012-11-04T09:50:10Z</time>
      </trkpt>
      <trkpt lat="45.27526" lon="5.58987">
        <ele>899</ele>
        <time>2012-11-04T09:50:11Z</time>
      </trkpt>
      <trkpt lat="45.27525" lon="5.58988">
        <ele>900</ele>
        <time>2012-11-04T09:50:12Z</time>
      </trkpt>
      <trkpt lat="45.27525" lon="5.5899">
        <ele>901</ele>
        <time>2012-11-04T09:50:13Z</time>
      </trkpt>
      <trkpt lat="45.27524" lon="5.58992">
        <ele>902</ele>
        <time>2012-11-04T09:50:14Z</time>
      </trkpt>
      <trkpt lat="45.27524" lon="5.58995">
        <ele>904</ele>
        <time>2012-11-04T09:50:15Z</time>
      </trkpt>
      <trkpt lat="45.27523" lon="5.58999">
        <ele>904</ele>
        <time>2012-11-04T09:50:16Z</time>
      </trkpt>
      <trkpt lat="45.27523" lon="5.59002">
        <ele>904</ele>
        <time>2012-11-04T09:50:17Z</time>
      </trkpt>
      <trkpt lat="45.27522" lon="5.59006">
        <ele>904</ele>
        <time>2012-11-04T09:50:18Z</time>
      </trkpt>
      <trkpt lat="45.27522" lon="5.59011">
        <ele>903</ele>
        <time>2012-11-04T09:50:19Z</time>
      </trkpt>
      <trkpt lat="45.27521" lon="5.59015">
        <ele>904</ele>
        <time>2012-11-04T09:50:20Z</time>
      </trkpt>
      <trkpt lat="45.27521" lon="5.59018">
        <ele>904</ele>
        <time>2012-11-04T09:50:21Z</time>
      </trkpt>
      <trkpt lat="45.27521" lon="5.59021">
        <ele>904</ele>
        <time>2012-11-04T09:50:22Z</time>
      </trkpt>
      <trkpt lat="45.27521" lon="5.59025">
        <ele>903</ele>
        <time>2012-11-04T09:50:23Z</time>
      </trkpt>
      <trkpt lat="45.27521" lon="5.59029">
        <ele>904</ele>
        <time>2012-11-04T09:50:24Z</time>
      </trkpt>
      <trkpt lat="45.27521" lon="5.59033">
        <ele>904</ele>
        <time>2012-11-04T09:50:25Z</time>
      </trkpt>
      <trkpt lat="45.27521" lon="5.59036">
        <ele>904</ele>
        <time>2012-11-04T09:50:26Z</time>
      </trkpt>
      <trkpt lat="45.27522" lon="5.59041">
        <ele>904</ele>
        <time>2012-11-04T09:50:27Z</time>
      </trkpt>
      <trkpt lat="45.27522" lon="5.59043">
        <ele>904</ele>
        <time>2012-11-04T09:50:28Z</time>
      </trkpt>
      <trkpt lat="45.27525" lon="5.5905">
        <ele>903</ele>
        <time>2012-11-04T09:50:29Z</time>
      </trkpt>
      <trkpt lat="45.27526" lon="5.59052">
        <ele>904</ele>
        <time>2012-11-04T09:50:30Z</time>
      </trkpt>
      <trkpt lat="45.27526" lon="5.59052">
        <ele>905</ele>
        <time>2012-11-04T09:50:31Z</time>
      </trkpt>
      <trkpt lat="45.27526" lon="5.59052">
        <ele>906</ele>
        <time>2012-11-04T09:50:32Z</time>
      </trkpt>
      <trkpt lat="45.27526" lon="5.59052">
        <ele>906</ele>
        <time>2012-11-04T09:50:33Z</time>
      </trkpt>
      <trkpt lat="45.27526" lon="5.59052">
        <ele>906</ele>
        <time>2012-11-04T09:50:34Z</time>
      </trkpt>
      <trkpt lat="45.27529" lon="5.59057">
        <ele>905</ele>
        <time>2012-11-04T09:50:35Z</time>
      </trkpt>
      <trkpt lat="45.27529" lon="5.59057">
        <ele>905</ele>
        <time>2012-11-04T09:50:36Z</time>
      </trkpt>
      <trkpt lat="45.27529" lon="5.59057">
        <ele>906</ele>
        <time>2012-11-04T09:50:37Z</time>
      </trkpt>
      <trkpt lat="45.27529" lon="5.59057">
        <ele>906</ele>
        <time>2012-11-04T09:50:38Z</time>
      </trkpt>
      <trkpt lat="45.27533" lon="5.59061">
        <ele>906</ele>
        <time>2012-11-04T09:50:39Z</time>
      </trkpt>
      <trkpt lat="45.27535" lon="5.59062">
        <ele>905</ele>
        <time>2012-11-04T09:50:40Z</time>
      </trkpt>
      <trkpt lat="45.27536" lon="5.59063">
        <ele>906</ele>
        <time>2012-11-04T09:50:41Z</time>
      </trkpt>
      <trkpt lat="45.27537" lon="5.59065">
        <ele>906</ele>
        <time>2012-11-04T09:50:42Z</time>
      </trkpt>
      <trkpt lat="45.27539" lon="5.59067">
        <ele>907</ele>
        <time>2012-11-04T09:50:43Z</time>
      </trkpt>
      <trkpt lat="45.27542" lon="5.59069">
        <ele>907</ele>
        <time>2012-11-04T09:50:44Z</time>
      </trkpt>
      <trkpt lat="45.27542" lon="5.59069">
        <ele>909</ele>
        <time>2012-11-04T09:50:45Z</time>
      </trkpt>
      <trkpt lat="45.27548" lon="5.59073">
        <ele>909</ele>
        <time>2012-11-04T09:50:46Z</time>
      </trkpt>
      <trkpt lat="45.27548" lon="5.59073">
        <ele>909</ele>
        <time>2012-11-04T09:50:47Z</time>
      </trkpt>
      <trkpt lat="45.27548" lon="5.59073">
        <ele>909</ele>
        <time>2012-11-04T09:50:48Z</time>
      </trkpt>
      <trkpt lat="45.27548" lon="5.59073">
        <ele>909</ele>
        <time>2012-11-04T09:50:49Z</time>
      </trkpt>
      <trkpt lat="45.27548" lon="5.59073">
        <ele>909</ele>
        <time>2012-11-04T09:50:50Z</time>
      </trkpt>
      <trkpt lat="45.27551" lon="5.59078">
        <ele>909</ele>
        <time>2012-11-04T09:50:51Z</time>
      </trkpt>
      <trkpt lat="45.27551" lon="5.59078">
        <ele>909</ele>
        <time>2012-11-04T09:50:52Z</time>
      </trkpt>
      <trkpt lat="45.27551" lon="5.59078">
        <ele>909</ele>
        <time>2012-11-04T09:50:53Z</time>
      </trkpt>
      <trkpt lat="45.27551" lon="5.59078">
        <ele>908</ele>
        <time>2012-11-04T09:50:54Z</time>
      </trkpt>
      <trkpt lat="45.27551" lon="5.59078">
        <ele>909</ele>
        <time>2012-11-04T09:50:55Z</time>
      </trkpt>
      <trkpt lat="45.27551" lon="5.59078">
        <ele>909</ele>
        <time>2012-11-04T09:50:56Z</time>
      </trkpt>
      <trkpt lat="45.27554" lon="5.59082">
        <ele>909</ele>
        <time>2012-11-04T09:50:57Z</time>
      </trkpt>
      <trkpt lat="45.27555" lon="5.59083">
        <ele>908</ele>
        <time>2012-11-04T09:50:58Z</time>
      </trkpt>
      <trkpt lat="45.27557" lon="5.59085">
        <ele>908</ele>
        <time>2012-11-04T09:50:59Z</time>
      </trkpt>
      <trkpt lat="45.27558" lon="5.59087">
        <ele>908</ele>
        <time>2012-11-04T09:51:00Z</time>
      </trkpt>
      <trkpt lat="45.2756" lon="5.59089">
        <ele>908</ele>
        <time>2012-11-04T09:51:01Z</time>
      </trkpt>
      <trkpt lat="45.27561" lon="5.5909">
        <ele>908</ele>
        <time>2012-11-04T09:51:02Z</time>
      </trkpt>
      <trkpt lat="45.27562" lon="5.59091">
        <ele>908</ele>
        <time>2012-11-04T09:51:03Z</time>
      </trkpt>
      <trkpt lat="45.27565" lon="5.59095">
        <ele>905</ele>
        <time>2012-11-04T09:51:04Z</time>
      </trkpt>
      <trkpt lat="45.27565" lon="5.59095">
        <ele>905</ele>
        <time>2012-11-04T09:51:05Z</time>
      </trkpt>
      <trkpt lat="45.27565" lon="5.59095">
        <ele>906</ele>
        <time>2012-11-04T09:51:06Z</time>
      </trkpt>
      <trkpt lat="45.27567" lon="5.591">
        <ele>906</ele>
        <time>2012-11-04T09:51:07Z</time>
      </trkpt>
      <trkpt lat="45.27567" lon="5.591">
        <ele>906</ele>
        <time>2012-11-04T09:51:08Z</time>
      </trkpt>
      <trkpt lat="45.27567" lon="5.591">
        <ele>906</ele>
        <time>2012-11-04T09:51:09Z</time>
      </trkpt>
      <trkpt lat="45.27567" lon="5.591">
        <ele>906</ele>
        <time>2012-11-04T09:51:10Z</time>
      </trkpt>
      <trkpt lat="45.27567" lon="5.591">
        <ele>906</ele>
        <time>2012-11-04T09:51:11Z</time>
      </trkpt>
      <trkpt lat="45.27567" lon="5.591">
        <ele>907</ele>
        <time>2012-11-04T09:51:12Z</time>
      </trkpt>
      <trkpt lat="45.27567" lon="5.591">
        <ele>907</ele>
        <time>2012-11-04T09:51:13Z</time>
      </trkpt>
      <trkpt lat="45.2757" lon="5.59105">
        <ele>907</ele>
        <time>2012-11-04T09:51:14Z</time>
      </trkpt>
      <trkpt lat="45.2757" lon="5.59105">
        <ele>907</ele>
        <time>2012-11-04T09:51:15Z</time>
      </trkpt>
      <trkpt lat="45.2757" lon="5.59105">
        <ele>907</ele>
        <time>2012-11-04T09:51:16Z</time>
      </trkpt>
      <trkpt lat="45.2757" lon="5.59105">
        <ele>907</ele>
        <time>2012-11-04T09:51:17Z</time>
      </trkpt>
      <trkpt lat="45.2757" lon="5.59105">
        <ele>907</ele>
        <time>2012-11-04T09:51:18Z</time>
      </trkpt>
      <trkpt lat="45.2757" lon="5.59105">
        <ele>907</ele>
        <time>2012-11-04T09:51:19Z</time>
      </trkpt>
      <trkpt lat="45.2757" lon="5.59105">
        <ele>907</ele>
        <time>2012-11-04T09:51:20Z</time>
      </trkpt>
      <trkpt lat="45.2757" lon="5.59105">
        <ele>907</ele>
        <time>2012-11-04T09:51:21Z</time>
      </trkpt>
      <trkpt lat="45.2757" lon="5.59105">
        <ele>907</ele>
        <time>2012-11-04T09:51:22Z</time>
      </trkpt>
      <trkpt lat="45.27574" lon="5.59109">
        <ele>906</ele>
        <time>2012-11-04T09:51:23Z</time>
      </trkpt>
      <trkpt lat="45.27575" lon="5.59111">
        <ele>907</ele>
        <time>2012-11-04T09:51:24Z</time>
      </trkpt>
      <trkpt lat="45.27576" lon="5.59112">
        <ele>906</ele>
        <time>2012-11-04T09:51:25Z</time>
      </trkpt>
      <trkpt lat="45.27577" lon="5.59113">
        <ele>906</ele>
        <time>2012-11-04T09:51:26Z</time>
      </trkpt>
      <trkpt lat="45.27578" lon="5.59113">
        <ele>906</ele>
        <time>2012-11-04T09:51:27Z</time>
      </trkpt>
      <trkpt lat="45.27578" lon="5.59113">
        <ele>907</ele>
        <time>2012-11-04T09:51:28Z</time>
      </trkpt>
      <trkpt lat="45.27582" lon="5.59114">
        <ele>908</ele>
        <time>2012-11-04T09:51:30Z</time>
      </trkpt>
      <trkpt lat="45.27583" lon="5.59115">
        <ele>908</ele>
        <time>2012-11-04T09:51:31Z</time>
      </trkpt>
      <trkpt lat="45.27584" lon="5.59116">
        <ele>909</ele>
        <time>2012-11-04T09:51:32Z</time>
      </trkpt>
      <trkpt lat="45.27584" lon="5.59115">
        <ele>914</ele>
        <time>2012-11-04T09:51:33Z</time>
      </trkpt>
      <trkpt lat="45.27583" lon="5.59114">
        <ele>915</ele>
        <time>2012-11-04T09:51:34Z</time>
      </trkpt>
      <trkpt lat="45.27583" lon="5.59113">
        <ele>918</ele>
        <time>2012-11-04T09:51:35Z</time>
      </trkpt>
      <trkpt lat="45.27582" lon="5.5911">
        <ele>918</ele>
        <time>2012-11-04T09:51:36Z</time>
      </trkpt>
      <trkpt lat="45.27581" lon="5.59109">
        <ele>920</ele>
        <time>2012-11-04T09:51:37Z</time>
      </trkpt>
      <trkpt lat="45.2758" lon="5.59106">
        <ele>920</ele>
        <time>2012-11-04T09:51:38Z</time>
      </trkpt>
      <trkpt lat="45.27579" lon="5.59103">
        <ele>920</ele>
        <time>2012-11-04T09:51:39Z</time>
      </trkpt>
      <trkpt lat="45.2758" lon="5.59103">
        <ele>921</ele>
        <time>2012-11-04T09:51:40Z</time>
      </trkpt>
      <trkpt lat="45.2758" lon="5.59103">
        <ele>920</ele>
        <time>2012-11-04T09:51:41Z</time>
      </trkpt>
      <trkpt lat="45.2758" lon="5.59102">
        <ele>920</ele>
        <time>2012-11-04T09:51:42Z</time>
      </trkpt>
      <trkpt lat="45.27584" lon="5.59107">
        <ele>920</ele>
        <time>2012-11-04T09:51:43Z</time>
      </trkpt>
      <trkpt lat="45.27584" lon="5.59107">
        <ele>919</ele>
        <time>2012-11-04T09:51:44Z</time>
      </trkpt>
      <trkpt lat="45.27584" lon="5.59107">
        <ele>919</ele>
        <time>2012-11-04T09:51:45Z</time>
      </trkpt>
      <trkpt lat="45.27584" lon="5.59107">
        <ele>919</ele>
        <time>2012-11-04T09:51:46Z</time>
      </trkpt>
      <trkpt lat="45.27588" lon="5.59112">
        <ele>919</ele>
        <time>2012-11-04T09:51:47Z</time>
      </trkpt>
      <trkpt lat="45.27588" lon="5.59112">
        <ele>919</ele>
        <time>2012-11-04T09:51:48Z</time>
      </trkpt>
      <trkpt lat="45.27588" lon="5.59112">
        <ele>919</ele>
        <time>2012-11-04T09:51:49Z</time>
      </trkpt>
      <trkpt lat="45.27588" lon="5.59112">
        <ele>919</ele>
        <time>2012-11-04T09:51:50Z</time>
      </trkpt>
      <trkpt lat="45.27588" lon="5.59112">
        <ele>919</ele>
        <time>2012-11-04T09:51:51Z</time>
      </trkpt>
      <trkpt lat="45.27592" lon="5.59116">
        <ele>919</ele>
        <time>2012-11-04T09:51:52Z</time>
      </trkpt>
      <trkpt lat="45.27592" lon="5.59116">
        <ele>918</ele>
        <time>2012-11-04T09:51:53Z</time>
      </trkpt>
      <trkpt lat="45.27592" lon="5.59116">
        <ele>918</ele>
        <time>2012-11-04T09:51:54Z</time>
      </trkpt>
      <trkpt lat="45.27596" lon="5.5912">
        <ele>919</ele>
        <time>2012-11-04T09:51:55Z</time>
      </trkpt>
      <trkpt lat="45.27597" lon="5.59122">
        <ele>919</ele>
        <time>2012-11-04T09:51:56Z</time>
      </trkpt>
      <trkpt lat="45.27598" lon="5.59124">
        <ele>920</ele>
        <time>2012-11-04T09:51:57Z</time>
      </trkpt>
      <trkpt lat="45.276" lon="5.59127">
        <ele>921</ele>
        <time>2012-11-04T09:51:58Z</time>
      </trkpt>
      <trkpt lat="45.27602" lon="5.5913">
        <ele>921</ele>
        <time>2012-11-04T09:51:59Z</time>
      </trkpt>
      <trkpt lat="45.27604" lon="5.59134">
        <ele>921</ele>
        <time>2012-11-04T09:52:00Z</time>
      </trkpt>
      <trkpt lat="45.27607" lon="5.59139">
        <ele>920</ele>
        <time>2012-11-04T09:52:01Z</time>
      </trkpt>
      <trkpt lat="45.27611" lon="5.59143">
        <ele>920</ele>
        <time>2012-11-04T09:52:02Z</time>
      </trkpt>
      <trkpt lat="45.27614" lon="5.59148">
        <ele>921</ele>
        <time>2012-11-04T09:52:03Z</time>
      </trkpt>
      <trkpt lat="45.27616" lon="5.59151">
        <ele>921</ele>
        <time>2012-11-04T09:52:04Z</time>
      </trkpt>
      <trkpt lat="45.27619" lon="5.59154">
        <ele>921</ele>
        <time>2012-11-04T09:52:05Z</time>
      </trkpt>
      <trkpt lat="45.27621" lon="5.59157">
        <ele>920</ele>
        <time>2012-11-04T09:52:06Z</time>
      </trkpt>
      <trkpt lat="45.27624" lon="5.5916">
        <ele>919</ele>
        <time>2012-11-04T09:52:07Z</time>
      </trkpt>
      <trkpt lat="45.27626" lon="5.59163">
        <ele>918</ele>
        <time>2012-11-04T09:52:08Z</time>
      </trkpt>
      <trkpt lat="45.27629" lon="5.59166">
        <ele>918</ele>
        <time>2012-11-04T09:52:09Z</time>
      </trkpt>
      <trkpt lat="45.27632" lon="5.59169">
        <ele>919</ele>
        <time>2012-11-04T09:52:10Z</time>
      </trkpt>
      <trkpt lat="45.27636" lon="5.59173">
        <ele>921</ele>
        <time>2012-11-04T09:52:11Z</time>
      </trkpt>
      <trkpt lat="45.27639" lon="5.59176">
        <ele>921</ele>
        <time>2012-11-04T09:52:12Z</time>
      </trkpt>
      <trkpt lat="45.27641" lon="5.59179">
        <ele>921</ele>
        <time>2012-11-04T09:52:13Z</time>
      </trkpt>
      <trkpt lat="45.27643" lon="5.59182">
        <ele>921</ele>
        <time>2012-11-04T09:52:14Z</time>
      </trkpt>
      <trkpt lat="45.27646" lon="5.59185">
        <ele>921</ele>
        <time>2012-11-04T09:52:15Z</time>
      </trkpt>
      <trkpt lat="45.27648" lon="5.59188">
        <ele>921</ele>
        <time>2012-11-04T09:52:16Z</time>
      </trkpt>
      <trkpt lat="45.2765" lon="5.59191">
        <ele>921</ele>
        <time>2012-11-04T09:52:17Z</time>
      </trkpt>
      <trkpt lat="45.27652" lon="5.59194">
        <ele>921</ele>
        <time>2012-11-04T09:52:18Z</time>
      </trkpt>
      <trkpt lat="45.27654" lon="5.59196">
        <ele>921</ele>
        <time>2012-11-04T09:52:19Z</time>
      </trkpt>
      <trkpt lat="45.27657" lon="5.59199">
        <ele>921</ele>
        <time>2012-11-04T09:52:20Z</time>
      </trkpt>
      <trkpt lat="45.27659" lon="5.59202">
        <ele>922</ele>
        <time>2012-11-04T09:52:21Z</time>
      </trkpt>
      <trkpt lat="45.2766" lon="5.59204">
        <ele>929</ele>
        <time>2012-11-04T09:52:22Z</time>
      </trkpt>
      <trkpt lat="45.27662" lon="5.59207">
        <ele>931</ele>
        <time>2012-11-04T09:52:23Z</time>
      </trkpt>
      <trkpt lat="45.27664" lon="5.59209">
        <ele>931</ele>
        <time>2012-11-04T09:52:24Z</time>
      </trkpt>
      <trkpt lat="45.27665" lon="5.59212">
        <ele>931</ele>
        <time>2012-11-04T09:52:25Z</time>
      </trkpt>
      <trkpt lat="45.27667" lon="5.59214">
        <ele>930</ele>
        <time>2012-11-04T09:52:26Z</time>
      </trkpt>
      <trkpt lat="45.27669" lon="5.59216">
        <ele>929</ele>
        <time>2012-11-04T09:52:27Z</time>
      </trkpt>
      <trkpt lat="45.27672" lon="5.59218">
        <ele>926</ele>
        <time>2012-11-04T09:52:28Z</time>
      </trkpt>
      <trkpt lat="45.27678" lon="5.59222">
        <ele>924</ele>
        <time>2012-11-04T09:52:29Z</time>
      </trkpt>
      <trkpt lat="45.27682" lon="5.59224">
        <ele>924</ele>
        <time>2012-11-04T09:52:30Z</time>
      </trkpt>
      <trkpt lat="45.27683" lon="5.59226">
        <ele>923</ele>
        <time>2012-11-04T09:52:31Z</time>
      </trkpt>
      <trkpt lat="45.2769" lon="5.5923">
        <ele>924</ele>
        <time>2012-11-04T09:52:32Z</time>
      </trkpt>
      <trkpt lat="45.27692" lon="5.59232">
        <ele>925</ele>
        <time>2012-11-04T09:52:33Z</time>
      </trkpt>
      <trkpt lat="45.27699" lon="5.59237">
        <ele>925</ele>
        <time>2012-11-04T09:52:34Z</time>
      </trkpt>
      <trkpt lat="45.27702" lon="5.59239">
        <ele>925</ele>
        <time>2012-11-04T09:52:35Z</time>
      </trkpt>
      <trkpt lat="45.27707" lon="5.59243">
        <ele>924</ele>
        <time>2012-11-04T09:52:36Z</time>
      </trkpt>
      <trkpt lat="45.27711" lon="5.59247">
        <ele>926</ele>
        <time>2012-11-04T09:52:37Z</time>
      </trkpt>
      <trkpt lat="45.27714" lon="5.59251">
        <ele>926</ele>
        <time>2012-11-04T09:52:38Z</time>
      </trkpt>
      <trkpt lat="45.27717" lon="5.59254">
        <ele>927</ele>
        <time>2012-11-04T09:52:39Z</time>
      </trkpt>
      <trkpt lat="45.27719" lon="5.59256">
        <ele>928</ele>
        <time>2012-11-04T09:52:40Z</time>
      </trkpt>
      <trkpt lat="45.27721" lon="5.59259">
        <ele>927</ele>
        <time>2012-11-04T09:52:41Z</time>
      </trkpt>
      <trkpt lat="45.27722" lon="5.5926">
        <ele>928</ele>
        <time>2012-11-04T09:52:42Z</time>
      </trkpt>
      <trkpt lat="45.27724" lon="5.59262">
        <ele>927</ele>
        <time>2012-11-04T09:52:43Z</time>
      </trkpt>
      <trkpt lat="45.27725" lon="5.59265">
        <ele>927</ele>
        <time>2012-11-04T09:52:44Z</time>
      </trkpt>
      <trkpt lat="45.27727" lon="5.59269">
        <ele>926</ele>
        <time>2012-11-04T09:52:45Z</time>
      </trkpt>
      <trkpt lat="45.27729" lon="5.59271">
        <ele>925</ele>
        <time>2012-11-04T09:52:46Z</time>
      </trkpt>
      <trkpt lat="45.2773" lon="5.59273">
        <ele>924</ele>
        <time>2012-11-04T09:52:47Z</time>
      </trkpt>
      <trkpt lat="45.2773" lon="5.59274">
        <ele>924</ele>
        <time>2012-11-04T09:52:48Z</time>
      </trkpt>
      <trkpt lat="45.27731" lon="5.59275">
        <ele>924</ele>
        <time>2012-11-04T09:52:49Z</time>
      </trkpt>
      <trkpt lat="45.27732" lon="5.59276">
        <ele>923</ele>
        <time>2012-11-04T09:52:50Z</time>
      </trkpt>
      <trkpt lat="45.27733" lon="5.59277">
        <ele>923</ele>
        <time>2012-11-04T09:52:51Z</time>
      </trkpt>
      <trkpt lat="45.27734" lon="5.59279">
        <ele>926</ele>
        <time>2012-11-04T09:52:52Z</time>
      </trkpt>
      <trkpt lat="45.27735" lon="5.59281">
        <ele>925</ele>
        <time>2012-11-04T09:52:53Z</time>
      </trkpt>
      <trkpt lat="45.27737" lon="5.59283">
        <ele>926</ele>
        <time>2012-11-04T09:52:54Z</time>
      </trkpt>
      <trkpt lat="45.27737" lon="5.59284">
        <ele>926</ele>
        <time>2012-11-04T09:52:55Z</time>
      </trkpt>
      <trkpt lat="45.27741" lon="5.59288">
        <ele>925</ele>
        <time>2012-11-04T09:52:56Z</time>
      </trkpt>
      <trkpt lat="45.27743" lon="5.5929">
        <ele>925</ele>
        <time>2012-11-04T09:52:57Z</time>
      </trkpt>
      <trkpt lat="45.27745" lon="5.59291">
        <ele>924</ele>
        <time>2012-11-04T09:52:58Z</time>
      </trkpt>
      <trkpt lat="45.27746" lon="5.59293">
        <ele>923</ele>
        <time>2012-11-04T09:52:59Z</time>
      </trkpt>
      <trkpt lat="45.27748" lon="5.59294">
        <ele>923</ele>
        <time>2012-11-04T09:53:00Z</time>
      </trkpt>
      <trkpt lat="45.2775" lon="5.59295">
        <ele>923</ele>
        <time>2012-11-04T09:53:01Z</time>
      </trkpt>
      <trkpt lat="45.27752" lon="5.59297">
        <ele>923</ele>
        <time>2012-11-04T09:53:02Z</time>
      </trkpt>
      <trkpt lat="45.27754" lon="5.59298">
        <ele>922</ele>
        <time>2012-11-04T09:53:03Z</time>
      </trkpt>
      <trkpt lat="45.27755" lon="5.593">
        <ele>922</ele>
        <time>2012-11-04T09:53:04Z</time>
      </trkpt>
      <trkpt lat="45.27756" lon="5.59301">
        <ele>923</ele>
        <time>2012-11-04T09:53:05Z</time>
      </trkpt>
      <trkpt lat="45.27758" lon="5.59304">
        <ele>922</ele>
        <time>2012-11-04T09:53:06Z</time>
      </trkpt>
      <trkpt lat="45.27759" lon="5.59306">
        <ele>922</ele>
        <time>2012-11-04T09:53:07Z</time>
      </trkpt>
      <trkpt lat="45.2776" lon="5.59308">
        <ele>923</ele>
        <time>2012-11-04T09:53:08Z</time>
      </trkpt>
      <trkpt lat="45.27761" lon="5.5931">
        <ele>924</ele>
        <time>2012-11-04T09:53:09Z</time>
      </trkpt>
      <trkpt lat="45.27762" lon="5.59312">
        <ele>923</ele>
        <time>2012-11-04T09:53:10Z</time>
      </trkpt>
      <trkpt lat="45.27763" lon="5.59314">
        <ele>923</ele>
        <time>2012-11-04T09:53:11Z</time>
      </trkpt>
      <trkpt lat="45.27764" lon="5.59315">
        <ele>923</ele>
        <time>2012-11-04T09:53:12Z</time>
      </trkpt>
      <trkpt lat="45.27766" lon="5.59317">
        <ele>922</ele>
        <time>2012-11-04T09:53:13Z</time>
      </trkpt>
      <trkpt lat="45.27767" lon="5.59319">
        <ele>923</ele>
        <time>2012-11-04T09:53:14Z</time>
      </trkpt>
      <trkpt lat="45.27767" lon="5.5932">
        <ele>925</ele>
        <time>2012-11-04T09:53:15Z</time>
      </trkpt>
      <trkpt lat="45.27767" lon="5.59321">
        <ele>924</ele>
        <time>2012-11-04T09:53:16Z</time>
      </trkpt>
      <trkpt lat="45.27768" lon="5.59322">
        <ele>924</ele>
        <time>2012-11-04T09:53:17Z</time>
      </trkpt>
      <trkpt lat="45.27768" lon="5.59324">
        <ele>924</ele>
        <time>2012-11-04T09:53:18Z</time>
      </trkpt>
      <trkpt lat="45.27769" lon="5.59326">
        <ele>924</ele>
        <time>2012-11-04T09:53:19Z</time>
      </trkpt>
      <trkpt lat="45.27771" lon="5.59328">
        <ele>924</ele>
        <time>2012-11-04T09:53:20Z</time>
      </trkpt>
      <trkpt lat="45.27772" lon="5.59331">
        <ele>923</ele>
        <time>2012-11-04T09:53:21Z</time>
      </trkpt>
      <trkpt lat="45.27773" lon="5.59333">
        <ele>923</ele>
        <time>2012-11-04T09:53:22Z</time>
      </trkpt>
      <trkpt lat="45.27774" lon="5.59335">
        <ele>923</ele>
        <time>2012-11-04T09:53:23Z</time>
      </trkpt>
      <trkpt lat="45.27775" lon="5.59337">
        <ele>922</ele>
        <time>2012-11-04T09:53:24Z</time>
      </trkpt>
      <trkpt lat="45.27777" lon="5.59339">
        <ele>922</ele>
        <time>2012-11-04T09:53:25Z</time>
      </trkpt>
      <trkpt lat="45.27778" lon="5.59341">
        <ele>922</ele>
        <time>2012-11-04T09:53:26Z</time>
      </trkpt>
      <trkpt lat="45.27779" lon="5.59343">
        <ele>923</ele>
        <time>2012-11-04T09:53:27Z</time>
      </trkpt>
      <trkpt lat="45.2778" lon="5.59345">
        <ele>923</ele>
        <time>2012-11-04T09:53:28Z</time>
      </trkpt>
      <trkpt lat="45.27782" lon="5.59347">
        <ele>922</ele>
        <time>2012-11-04T09:53:29Z</time>
      </trkpt>
      <trkpt lat="45.27783" lon="5.59349">
        <ele>922</ele>
        <time>2012-11-04T09:53:30Z</time>
      </trkpt>
      <trkpt lat="45.27784" lon="5.59351">
        <ele>922</ele>
        <time>2012-11-04T09:53:31Z</time>
      </trkpt>
      <trkpt lat="45.27785" lon="5.59353">
        <ele>923</ele>
        <time>2012-11-04T09:53:32Z</time>
      </trkpt>
      <trkpt lat="45.27786" lon="5.59355">
        <ele>923</ele>
        <time>2012-11-04T09:53:33Z</time>
      </trkpt>
      <trkpt lat="45.27787" lon="5.59356">
        <ele>924</ele>
        <time>2012-11-04T09:53:34Z</time>
      </trkpt>
      <trkpt lat="45.27788" lon="5.59358">
        <ele>924</ele>
        <time>2012-11-04T09:53:35Z</time>
      </trkpt>
      <trkpt lat="45.27789" lon="5.59359">
        <ele>925</ele>
        <time>2012-11-04T09:53:36Z</time>
      </trkpt>
      <trkpt lat="45.27789" lon="5.59361">
        <ele>925</ele>
        <time>2012-11-04T09:53:37Z</time>
      </trkpt>
      <trkpt lat="45.2779" lon="5.59362">
        <ele>926</ele>
        <time>2012-11-04T09:53:38Z</time>
      </trkpt>
      <trkpt lat="45.27791" lon="5.59363">
        <ele>927</ele>
        <time>2012-11-04T09:53:39Z</time>
      </trkpt>
      <trkpt lat="45.27791" lon="5.59365">
        <ele>927</ele>
        <time>2012-11-04T09:53:40Z</time>
      </trkpt>
      <trkpt lat="45.27791" lon="5.59366">
        <ele>927</ele>
        <time>2012-11-04T09:53:41Z</time>
      </trkpt>
      <trkpt lat="45.27792" lon="5.59367">
        <ele>926</ele>
        <time>2012-11-04T09:53:42Z</time>
      </trkpt>
      <trkpt lat="45.27792" lon="5.59368">
        <ele>926</ele>
        <time>2012-11-04T09:53:43Z</time>
      </trkpt>
      <trkpt lat="45.27793" lon="5.59369">
        <ele>927</ele>
        <time>2012-11-04T09:53:44Z</time>
      </trkpt>
      <trkpt lat="45.27794" lon="5.5937">
        <ele>927</ele>
        <time>2012-11-04T09:53:45Z</time>
      </trkpt>
      <trkpt lat="45.27795" lon="5.59371">
        <ele>927</ele>
        <time>2012-11-04T09:53:46Z</time>
      </trkpt>
      <trkpt lat="45.27796" lon="5.59372">
        <ele>927</ele>
        <time>2012-11-04T09:53:47Z</time>
      </trkpt>
      <trkpt lat="45.27797" lon="5.59374">
        <ele>930</ele>
        <time>2012-11-04T09:53:48Z</time>
      </trkpt>
      <trkpt lat="45.27797" lon="5.59375">
        <ele>929</ele>
        <time>2012-11-04T09:53:49Z</time>
      </trkpt>
      <trkpt lat="45.27798" lon="5.59376">
        <ele>928</ele>
        <time>2012-11-04T09:53:50Z</time>
      </trkpt>
      <trkpt lat="45.27799" lon="5.59377">
        <ele>929</ele>
        <time>2012-11-04T09:53:51Z</time>
      </trkpt>
      <trkpt lat="45.278" lon="5.59378">
        <ele>930</ele>
        <time>2012-11-04T09:53:52Z</time>
      </trkpt>
      <trkpt lat="45.27801" lon="5.59379">
        <ele>931</ele>
        <time>2012-11-04T09:53:53Z</time>
      </trkpt>
      <trkpt lat="45.27801" lon="5.5938">
        <ele>931</ele>
        <time>2012-11-04T09:53:54Z</time>
      </trkpt>
      <trkpt lat="45.27803" lon="5.5938">
        <ele>932</ele>
        <time>2012-11-04T09:53:55Z</time>
      </trkpt>
      <trkpt lat="45.27803" lon="5.5938">
        <ele>931</ele>
        <time>2012-11-04T09:53:56Z</time>
      </trkpt>
      <trkpt lat="45.27804" lon="5.59381">
        <ele>931</ele>
        <time>2012-11-04T09:53:57Z</time>
      </trkpt>
      <trkpt lat="45.27805" lon="5.59381">
        <ele>931</ele>
        <time>2012-11-04T09:53:58Z</time>
      </trkpt>
      <trkpt lat="45.27806" lon="5.59382">
        <ele>931</ele>
        <time>2012-11-04T09:53:59Z</time>
      </trkpt>
      <trkpt lat="45.27807" lon="5.59382">
        <ele>931</ele>
        <time>2012-11-04T09:54:00Z</time>
      </trkpt>
      <trkpt lat="45.27808" lon="5.59383">
        <ele>931</ele>
        <time>2012-11-04T09:54:01Z</time>
      </trkpt>
      <trkpt lat="45.27809" lon="5.59384">
        <ele>931</ele>
        <time>2012-11-04T09:54:02Z</time>
      </trkpt>
      <trkpt lat="45.2781" lon="5.59385">
        <ele>934</ele>
        <time>2012-11-04T09:54:03Z</time>
      </trkpt>
      <trkpt lat="45.27811" lon="5.59386">
        <ele>935</ele>
        <time>2012-11-04T09:54:04Z</time>
      </trkpt>
      <trkpt lat="45.27812" lon="5.59387">
        <ele>934</ele>
        <time>2012-11-04T09:54:05Z</time>
      </trkpt>
      <trkpt lat="45.27812" lon="5.59387">
        <ele>934</ele>
        <time>2012-11-04T09:54:06Z</time>
      </trkpt>
      <trkpt lat="45.27813" lon="5.59387">
        <ele>934</ele>
        <time>2012-11-04T09:54:07Z</time>
      </trkpt>
      <trkpt lat="45.27813" lon="5.59388">
        <ele>936</ele>
        <time>2012-11-04T09:54:08Z</time>
      </trkpt>
      <trkpt lat="45.27814" lon="5.59389">
        <ele>937</ele>
        <time>2012-11-04T09:54:09Z</time>
      </trkpt>
      <trkpt lat="45.27815" lon="5.5939">
        <ele>937</ele>
        <time>2012-11-04T09:54:10Z</time>
      </trkpt>
      <trkpt lat="45.27816" lon="5.59392">
        <ele>937</ele>
        <time>2012-11-04T09:54:11Z</time>
      </trkpt>
      <trkpt lat="45.27817" lon="5.59393">
        <ele>937</ele>
        <time>2012-11-04T09:54:12Z</time>
      </trkpt>
      <trkpt lat="45.27818" lon="5.59395">
        <ele>937</ele>
        <time>2012-11-04T09:54:13Z</time>
      </trkpt>
      <trkpt lat="45.2782" lon="5.59396">
        <ele>937</ele>
        <time>2012-11-04T09:54:14Z</time>
      </trkpt>
      <trkpt lat="45.27822" lon="5.59397">
        <ele>936</ele>
        <time>2012-11-04T09:54:15Z</time>
      </trkpt>
      <trkpt lat="45.27823" lon="5.59398">
        <ele>936</ele>
        <time>2012-11-04T09:54:16Z</time>
      </trkpt>
      <trkpt lat="45.27825" lon="5.594">
        <ele>937</ele>
        <time>2012-11-04T09:54:17Z</time>
      </trkpt>
      <trkpt lat="45.27827" lon="5.59401">
        <ele>937</ele>
        <time>2012-11-04T09:54:18Z</time>
      </trkpt>
      <trkpt lat="45.2783" lon="5.59402">
        <ele>937</ele>
        <time>2012-11-04T09:54:19Z</time>
      </trkpt>
      <trkpt lat="45.27831" lon="5.59403">
        <ele>937</ele>
        <time>2012-11-04T09:54:20Z</time>
      </trkpt>
      <trkpt lat="45.27833" lon="5.59404">
        <ele>937</ele>
        <time>2012-11-04T09:54:21Z</time>
      </trkpt>
      <trkpt lat="45.27836" lon="5.59404">
        <ele>940</ele>
        <time>2012-11-04T09:54:22Z</time>
      </trkpt>
      <trkpt lat="45.27838" lon="5.59405">
        <ele>940</ele>
        <time>2012-11-04T09:54:23Z</time>
      </trkpt>
      <trkpt lat="45.27842" lon="5.59407">
        <ele>939</ele>
        <time>2012-11-04T09:54:24Z</time>
      </trkpt>
      <trkpt lat="45.27843" lon="5.59407">
        <ele>940</ele>
        <time>2012-11-04T09:54:25Z</time>
      </trkpt>
      <trkpt lat="45.27848" lon="5.59411">
        <ele>941</ele>
        <time>2012-11-04T09:54:26Z</time>
      </trkpt>
      <trkpt lat="45.27851" lon="5.59413">
        <ele>943</ele>
        <time>2012-11-04T09:54:27Z</time>
      </trkpt>
      <trkpt lat="45.27853" lon="5.59414">
        <ele>943</ele>
        <time>2012-11-04T09:54:28Z</time>
      </trkpt>
      <trkpt lat="45.27855" lon="5.59415">
        <ele>944</ele>
        <time>2012-11-04T09:54:29Z</time>
      </trkpt>
      <trkpt lat="45.27857" lon="5.59415">
        <ele>944</ele>
        <time>2012-11-04T09:54:30Z</time>
      </trkpt>
      <trkpt lat="45.2786" lon="5.59416">
        <ele>944</ele>
        <time>2012-11-04T09:54:31Z</time>
      </trkpt>
      <trkpt lat="45.27861" lon="5.59417">
        <ele>944</ele>
        <time>2012-11-04T09:54:32Z</time>
      </trkpt>
      <trkpt lat="45.27864" lon="5.59418">
        <ele>945</ele>
        <time>2012-11-04T09:54:33Z</time>
      </trkpt>
      <trkpt lat="45.27867" lon="5.5942">
        <ele>945</ele>
        <time>2012-11-04T09:54:34Z</time>
      </trkpt>
      <trkpt lat="45.27871" lon="5.59421">
        <ele>944</ele>
        <time>2012-11-04T09:54:35Z</time>
      </trkpt>
      <trkpt lat="45.27873" lon="5.59422">
        <ele>944</ele>
        <time>2012-11-04T09:54:36Z</time>
      </trkpt>
      <trkpt lat="45.27877" lon="5.59424">
        <ele>943</ele>
        <time>2012-11-04T09:54:37Z</time>
      </trkpt>
      <trkpt lat="45.2788" lon="5.59425">
        <ele>943</ele>
        <time>2012-11-04T09:54:38Z</time>
      </trkpt>
      <trkpt lat="45.27883" lon="5.59426">
        <ele>946</ele>
        <time>2012-11-04T09:54:39Z</time>
      </trkpt>
      <trkpt lat="45.27885" lon="5.59426">
        <ele>947</ele>
        <time>2012-11-04T09:54:40Z</time>
      </trkpt>
      <trkpt lat="45.27887" lon="5.59427">
        <ele>948</ele>
        <time>2012-11-04T09:54:41Z</time>
      </trkpt>
      <trkpt lat="45.27888" lon="5.59427">
        <ele>948</ele>
        <time>2012-11-04T09:54:42Z</time>
      </trkpt>
      <trkpt lat="45.2789" lon="5.59428">
        <ele>948</ele>
        <time>2012-11-04T09:54:43Z</time>
      </trkpt>
      <trkpt lat="45.27892" lon="5.59429">
        <ele>947</ele>
        <time>2012-11-04T09:54:44Z</time>
      </trkpt>
      <trkpt lat="45.27893" lon="5.59429">
        <ele>948</ele>
        <time>2012-11-04T09:54:45Z</time>
      </trkpt>
      <trkpt lat="45.27895" lon="5.5943">
        <ele>947</ele>
        <time>2012-11-04T09:54:46Z</time>
      </trkpt>
      <trkpt lat="45.27896" lon="5.5943">
        <ele>948</ele>
        <time>2012-11-04T09:54:47Z</time>
      </trkpt>
      <trkpt lat="45.27899" lon="5.59431">
        <ele>947</ele>
        <time>2012-11-04T09:54:48Z</time>
      </trkpt>
      <trkpt lat="45.27901" lon="5.59432">
        <ele>946</ele>
        <time>2012-11-04T09:54:49Z</time>
      </trkpt>
      <trkpt lat="45.27903" lon="5.59433">
        <ele>945</ele>
        <time>2012-11-04T09:54:50Z</time>
      </trkpt>
      <trkpt lat="45.27905" lon="5.59435">
        <ele>945</ele>
        <time>2012-11-04T09:54:51Z</time>
      </trkpt>
      <trkpt lat="45.27907" lon="5.59437">
        <ele>945</ele>
        <time>2012-11-04T09:54:52Z</time>
      </trkpt>
      <trkpt lat="45.27909" lon="5.5944">
        <ele>944</ele>
        <time>2012-11-04T09:54:53Z</time>
      </trkpt>
      <trkpt lat="45.27911" lon="5.59442">
        <ele>943</ele>
        <time>2012-11-04T09:54:54Z</time>
      </trkpt>
      <trkpt lat="45.27912" lon="5.59445">
        <ele>945</ele>
        <time>2012-11-04T09:54:55Z</time>
      </trkpt>
      <trkpt lat="45.27913" lon="5.59446">
        <ele>945</ele>
        <time>2012-11-04T09:54:56Z</time>
      </trkpt>
      <trkpt lat="45.27914" lon="5.59448">
        <ele>945</ele>
        <time>2012-11-04T09:54:57Z</time>
      </trkpt>
      <trkpt lat="45.27914" lon="5.5945">
        <ele>945</ele>
        <time>2012-11-04T09:54:58Z</time>
      </trkpt>
      <trkpt lat="45.27914" lon="5.59451">
        <ele>945</ele>
        <time>2012-11-04T09:54:59Z</time>
      </trkpt>
      <trkpt lat="45.27915" lon="5.59452">
        <ele>945</ele>
        <time>2012-11-04T09:55:00Z</time>
      </trkpt>
      <trkpt lat="45.27917" lon="5.59455">
        <ele>944</ele>
        <time>2012-11-04T09:55:01Z</time>
      </trkpt>
      <trkpt lat="45.27918" lon="5.59456">
        <ele>945</ele>
        <time>2012-11-04T09:55:02Z</time>
      </trkpt>
      <trkpt lat="45.27921" lon="5.5946">
        <ele>945</ele>
        <time>2012-11-04T09:55:03Z</time>
      </trkpt>
      <trkpt lat="45.27924" lon="5.59463">
        <ele>944</ele>
        <time>2012-11-04T09:55:04Z</time>
      </trkpt>
      <trkpt lat="45.27927" lon="5.59465">
        <ele>944</ele>
        <time>2012-11-04T09:55:05Z</time>
      </trkpt>
      <trkpt lat="45.27929" lon="5.59469">
        <ele>942</ele>
        <time>2012-11-04T09:55:06Z</time>
      </trkpt>
      <trkpt lat="45.27931" lon="5.5947">
        <ele>942</ele>
        <time>2012-11-04T09:55:07Z</time>
      </trkpt>
      <trkpt lat="45.27933" lon="5.59473">
        <ele>942</ele>
        <time>2012-11-04T09:55:08Z</time>
      </trkpt>
      <trkpt lat="45.27935" lon="5.59477">
        <ele>941</ele>
        <time>2012-11-04T09:55:09Z</time>
      </trkpt>
      <trkpt lat="45.27936" lon="5.59479">
        <ele>939</ele>
        <time>2012-11-04T09:55:10Z</time>
      </trkpt>
      <trkpt lat="45.27937" lon="5.59481">
        <ele>938</ele>
        <time>2012-11-04T09:55:11Z</time>
      </trkpt>
      <trkpt lat="45.27938" lon="5.59482">
        <ele>937</ele>
        <time>2012-11-04T09:55:12Z</time>
      </trkpt>
      <trkpt lat="45.27939" lon="5.59483">
        <ele>937</ele>
        <time>2012-11-04T09:55:13Z</time>
      </trkpt>
      <trkpt lat="45.2794" lon="5.59484">
        <ele>937</ele>
        <time>2012-11-04T09:55:14Z</time>
      </trkpt>
      <trkpt lat="45.27942" lon="5.59486">
        <ele>937</ele>
        <time>2012-11-04T09:55:15Z</time>
      </trkpt>
      <trkpt lat="45.27942" lon="5.59486">
        <ele>936</ele>
        <time>2012-11-04T09:55:16Z</time>
      </trkpt>
      <trkpt lat="45.27945" lon="5.59488">
        <ele>936</ele>
        <time>2012-11-04T09:55:17Z</time>
      </trkpt>
      <trkpt lat="45.27947" lon="5.5949">
        <ele>937</ele>
        <time>2012-11-04T09:55:18Z</time>
      </trkpt>
      <trkpt lat="45.27949" lon="5.59492">
        <ele>937</ele>
        <time>2012-11-04T09:55:19Z</time>
      </trkpt>
      <trkpt lat="45.27951" lon="5.59494">
        <ele>937</ele>
        <time>2012-11-04T09:55:20Z</time>
      </trkpt>
      <trkpt lat="45.27952" lon="5.59495">
        <ele>937</ele>
        <time>2012-11-04T09:55:21Z</time>
      </trkpt>
      <trkpt lat="45.27953" lon="5.59498">
        <ele>938</ele>
        <time>2012-11-04T09:55:22Z</time>
      </trkpt>
      <trkpt lat="45.27954" lon="5.595">
        <ele>938</ele>
        <time>2012-11-04T09:55:23Z</time>
      </trkpt>
      <trkpt lat="45.27955" lon="5.59502">
        <ele>937</ele>
        <time>2012-11-04T09:55:24Z</time>
      </trkpt>
      <trkpt lat="45.27956" lon="5.59504">
        <ele>938</ele>
        <time>2012-11-04T09:55:25Z</time>
      </trkpt>
      <trkpt lat="45.27956" lon="5.59506">
        <ele>938</ele>
        <time>2012-11-04T09:55:26Z</time>
      </trkpt>
      <trkpt lat="45.27957" lon="5.59508">
        <ele>938</ele>
        <time>2012-11-04T09:55:27Z</time>
      </trkpt>
      <trkpt lat="45.27958" lon="5.5951">
        <ele>939</ele>
        <time>2012-11-04T09:55:28Z</time>
      </trkpt>
      <trkpt lat="45.27959" lon="5.59512">
        <ele>940</ele>
        <time>2012-11-04T09:55:29Z</time>
      </trkpt>
      <trkpt lat="45.2796" lon="5.59513">
        <ele>940</ele>
        <time>2012-11-04T09:55:30Z</time>
      </trkpt>
      <trkpt lat="45.27961" lon="5.59516">
        <ele>941</ele>
        <time>2012-11-04T09:55:31Z</time>
      </trkpt>
      <trkpt lat="45.27963" lon="5.59518">
        <ele>942</ele>
        <time>2012-11-04T09:55:32Z</time>
      </trkpt>
      <trkpt lat="45.27963" lon="5.5952">
        <ele>945</ele>
        <time>2012-11-04T09:55:33Z</time>
      </trkpt>
      <trkpt lat="45.27964" lon="5.59522">
        <ele>946</ele>
        <time>2012-11-04T09:55:34Z</time>
      </trkpt>
      <trkpt lat="45.27965" lon="5.59524">
        <ele>946</ele>
        <time>2012-11-04T09:55:35Z</time>
      </trkpt>
      <trkpt lat="45.27966" lon="5.59526">
        <ele>946</ele>
        <time>2012-11-04T09:55:36Z</time>
      </trkpt>
      <trkpt lat="45.27968" lon="5.59529">
        <ele>945</ele>
        <time>2012-11-04T09:55:37Z</time>
      </trkpt>
      <trkpt lat="45.27968" lon="5.59531">
        <ele>944</ele>
        <time>2012-11-04T09:55:38Z</time>
      </trkpt>
      <trkpt lat="45.27971" lon="5.59535">
        <ele>943</ele>
        <time>2012-11-04T09:55:39Z</time>
      </trkpt>
      <trkpt lat="45.27974" lon="5.59539">
        <ele>942</ele>
        <time>2012-11-04T09:55:40Z</time>
      </trkpt>
      <trkpt lat="45.27977" lon="5.59544">
        <ele>942</ele>
        <time>2012-11-04T09:55:41Z</time>
      </trkpt>
      <trkpt lat="45.27979" lon="5.59548">
        <ele>942</ele>
        <time>2012-11-04T09:55:42Z</time>
      </trkpt>
      <trkpt lat="45.27982" lon="5.59552">
        <ele>943</ele>
        <time>2012-11-04T09:55:43Z</time>
      </trkpt>
      <trkpt lat="45.27983" lon="5.59555">
        <ele>943</ele>
        <time>2012-11-04T09:55:44Z</time>
      </trkpt>
      <trkpt lat="45.27985" lon="5.59558">
        <ele>942</ele>
        <time>2012-11-04T09:55:45Z</time>
      </trkpt>
      <trkpt lat="45.27987" lon="5.59563">
        <ele>943</ele>
        <time>2012-11-04T09:55:46Z</time>
      </trkpt>
      <trkpt lat="45.27988" lon="5.59565">
        <ele>943</ele>
        <time>2012-11-04T09:55:47Z</time>
      </trkpt>
      <trkpt lat="45.27988" lon="5.59568">
        <ele>943</ele>
        <time>2012-11-04T09:55:48Z</time>
      </trkpt>
      <trkpt lat="45.27989" lon="5.5957">
        <ele>944</ele>
        <time>2012-11-04T09:55:49Z</time>
      </trkpt>
      <trkpt lat="45.2799" lon="5.59573">
        <ele>944</ele>
        <time>2012-11-04T09:55:50Z</time>
      </trkpt>
      <trkpt lat="45.2799" lon="5.59574">
        <ele>946</ele>
        <time>2012-11-04T09:55:51Z</time>
      </trkpt>
      <trkpt lat="45.2799" lon="5.59574">
        <ele>947</ele>
        <time>2012-11-04T09:55:52Z</time>
      </trkpt>
      <trkpt lat="45.2799" lon="5.59574">
        <ele>947</ele>
        <time>2012-11-04T09:55:53Z</time>
      </trkpt>
      <trkpt lat="45.2799" lon="5.59574">
        <ele>947</ele>
        <time>2012-11-04T09:55:54Z</time>
      </trkpt>
      <trkpt lat="45.2799" lon="5.59574">
        <ele>947</ele>
        <time>2012-11-04T09:55:55Z</time>
      </trkpt>
      <trkpt lat="45.27987" lon="5.59582">
        <ele>946</ele>
        <time>2012-11-04T09:55:56Z</time>
      </trkpt>
      <trkpt lat="45.27987" lon="5.59582">
        <ele>946</ele>
        <time>2012-11-04T09:55:57Z</time>
      </trkpt>
      <trkpt lat="45.27987" lon="5.59582">
        <ele>946</ele>
        <time>2012-11-04T09:55:58Z</time>
      </trkpt>
      <trkpt lat="45.27987" lon="5.59582">
        <ele>946</ele>
        <time>2012-11-04T09:55:59Z</time>
      </trkpt>
      <trkpt lat="45.27987" lon="5.59582">
        <ele>946</ele>
        <time>2012-11-04T09:56:00Z</time>
      </trkpt>
      <trkpt lat="45.27987" lon="5.59582">
        <ele>946</ele>
        <time>2012-11-04T09:56:01Z</time>
      </trkpt>
      <trkpt lat="45.27987" lon="5.59582">
        <ele>945</ele>
        <time>2012-11-04T09:56:02Z</time>
      </trkpt>
      <trkpt lat="45.27987" lon="5.59582">
        <ele>945</ele>
        <time>2012-11-04T09:56:03Z</time>
      </trkpt>
      <trkpt lat="45.27987" lon="5.59582">
        <ele>945</ele>
        <time>2012-11-04T09:56:04Z</time>
      </trkpt>
      <trkpt lat="45.27987" lon="5.59582">
        <ele>945</ele>
        <time>2012-11-04T09:56:05Z</time>
      </trkpt>
      <trkpt lat="45.27982" lon="5.59587">
        <ele>944</ele>
        <time>2012-11-04T09:56:06Z</time>
      </trkpt>
      <trkpt lat="45.2798" lon="5.59587">
        <ele>945</ele>
        <time>2012-11-04T09:56:07Z</time>
      </trkpt>
      <trkpt lat="45.27978" lon="5.59587">
        <ele>944</ele>
        <time>2012-11-04T09:56:08Z</time>
      </trkpt>
      <trkpt lat="45.27974" lon="5.59588">
        <ele>946</ele>
        <time>2012-11-04T09:56:09Z</time>
      </trkpt>
      <trkpt lat="45.27972" lon="5.59589">
        <ele>944</ele>
        <time>2012-11-04T09:56:10Z</time>
      </trkpt>
      <trkpt lat="45.27971" lon="5.59589">
        <ele>943</ele>
        <time>2012-11-04T09:56:11Z</time>
      </trkpt>
      <trkpt lat="45.2797" lon="5.59591">
        <ele>942</ele>
        <time>2012-11-04T09:56:12Z</time>
      </trkpt>
      <trkpt lat="45.27969" lon="5.59591">
        <ele>942</ele>
        <time>2012-11-04T09:56:13Z</time>
      </trkpt>
      <trkpt lat="45.27968" lon="5.59592">
        <ele>942</ele>
        <time>2012-11-04T09:56:14Z</time>
      </trkpt>
      <trkpt lat="45.27966" lon="5.59594">
        <ele>939</ele>
        <time>2012-11-04T09:56:15Z</time>
      </trkpt>
      <trkpt lat="45.27963" lon="5.59596">
        <ele>937</ele>
        <time>2012-11-04T09:56:16Z</time>
      </trkpt>
      <trkpt lat="45.27958" lon="5.59599">
        <ele>937</ele>
        <time>2012-11-04T09:56:17Z</time>
      </trkpt>
      <trkpt lat="45.27958" lon="5.59599">
        <ele>937</ele>
        <time>2012-11-04T09:56:18Z</time>
      </trkpt>
      <trkpt lat="45.27958" lon="5.59599">
        <ele>937</ele>
        <time>2012-11-04T09:56:19Z</time>
      </trkpt>
      <trkpt lat="45.27958" lon="5.59599">
        <ele>937</ele>
        <time>2012-11-04T09:56:20Z</time>
      </trkpt>
      <trkpt lat="45.27952" lon="5.596">
        <ele>937</ele>
        <time>2012-11-04T09:56:21Z</time>
      </trkpt>
      <trkpt lat="45.27952" lon="5.596">
        <ele>937</ele>
        <time>2012-11-04T09:56:22Z</time>
      </trkpt>
      <trkpt lat="45.27952" lon="5.596">
        <ele>936</ele>
        <time>2012-11-04T09:56:23Z</time>
      </trkpt>
      <trkpt lat="45.27952" lon="5.596">
        <ele>936</ele>
        <time>2012-11-04T09:56:24Z</time>
      </trkpt>
      <trkpt lat="45.27952" lon="5.596">
        <ele>937</ele>
        <time>2012-11-04T09:56:25Z</time>
      </trkpt>
      <trkpt lat="45.27952" lon="5.596">
        <ele>936</ele>
        <time>2012-11-04T09:56:26Z</time>
      </trkpt>
      <trkpt lat="45.27952" lon="5.596">
        <ele>936</ele>
        <time>2012-11-04T09:56:27Z</time>
      </trkpt>
      <trkpt lat="45.27952" lon="5.596">
        <ele>936</ele>
        <time>2012-11-04T09:56:28Z</time>
      </trkpt>
      <trkpt lat="45.27952" lon="5.596">
        <ele>936</ele>
        <time>2012-11-04T09:56:29Z</time>
      </trkpt>
      <trkpt lat="45.27952" lon="5.596">
        <ele>936</ele>
        <time>2012-11-04T09:56:30Z</time>
      </trkpt>
      <trkpt lat="45.27952" lon="5.596">
        <ele>936</ele>
        <time>2012-11-04T09:56:31Z</time>
      </trkpt>
      <trkpt lat="45.27952" lon="5.596">
        <ele>936</ele>
        <time>2012-11-04T09:56:31Z</time>
      </trkpt>
      <trkpt lat="45.27939" lon="5.59593">
        <ele>931</ele>
        <time>2012-11-04T10:01:37Z</time>
      </trkpt>
      <trkpt lat="45.27939" lon="5.59593">
        <ele>931</ele>
        <time>2012-11-04T10:01:38Z</time>
      </trkpt>
      <trkpt lat="45.27939" lon="5.59593">
        <ele>931</ele>
        <time>2012-11-04T10:01:39Z</time>
      </trkpt>
      <trkpt lat="45.27939" lon="5.59593">
        <ele>931</ele>
        <time>2012-11-04T10:01:40Z</time>
      </trkpt>
      <trkpt lat="45.27939" lon="5.59593">
        <ele>931</ele>
        <time>2012-11-04T10:01:41Z</time>
      </trkpt>
      <trkpt lat="45.27939" lon="5.59593">
        <ele>931</ele>
        <time>2012-11-04T10:01:42Z</time>
      </trkpt>
      <trkpt lat="45.27939" lon="5.59593">
        <ele>931</ele>
        <time>2012-11-04T10:01:43Z</time>
      </trkpt>
      <trkpt lat="45.27939" lon="5.59593">
        <ele>931</ele>
        <time>2012-11-04T10:01:44Z</time>
      </trkpt>
      <trkpt lat="45.2794" lon="5.59595">
        <ele>931</ele>
        <time>2012-11-04T10:01:45Z</time>
      </trkpt>
      <trkpt lat="45.27943" lon="5.59594">
        <ele>932</ele>
        <time>2012-11-04T10:01:57Z</time>
      </trkpt>
      <trkpt lat="45.27944" lon="5.59594">
        <ele>932</ele>
        <time>2012-11-04T10:01:58Z</time>
      </trkpt>
      <trkpt lat="45.27945" lon="5.59594">
        <ele>932</ele>
        <time>2012-11-04T10:01:59Z</time>
      </trkpt>
      <trkpt lat="45.2796" lon="5.59594">
        <ele>932</ele>
        <time>2012-11-04T10:02:06Z</time>
      </trkpt>
      <trkpt lat="45.27961" lon="5.59595">
        <ele>932</ele>
        <time>2012-11-04T10:02:07Z</time>
      </trkpt>
      <trkpt lat="45.27963" lon="5.59596">
        <ele>932</ele>
        <time>2012-11-04T10:02:08Z</time>
      </trkpt>
      <trkpt lat="45.27964" lon="5.59596">
        <ele>932</ele>
        <time>2012-11-04T10:02:09Z</time>
      </trkpt>
      <trkpt lat="45.27965" lon="5.59596">
        <ele>931</ele>
        <time>2012-11-04T10:02:10Z</time>
      </trkpt>
      <trkpt lat="45.27966" lon="5.59596">
        <ele>932</ele>
        <time>2012-11-04T10:02:11Z</time>
      </trkpt>
      <trkpt lat="45.27967" lon="5.59596">
        <ele>932</ele>
        <time>2012-11-04T10:02:12Z</time>
      </trkpt>
      <trkpt lat="45.27973" lon="5.59596">
        <ele>933</ele>
        <time>2012-11-04T10:02:15Z</time>
      </trkpt>
      <trkpt lat="45.27976" lon="5.59597">
        <ele>933</ele>
        <time>2012-11-04T10:02:16Z</time>
      </trkpt>
      <trkpt lat="45.27978" lon="5.59597">
        <ele>934</ele>
        <time>2012-11-04T10:02:17Z</time>
      </trkpt>
      <trkpt lat="45.2798" lon="5.59598">
        <ele>934</ele>
        <time>2012-11-04T10:02:18Z</time>
      </trkpt>
      <trkpt lat="45.27982" lon="5.59598">
        <ele>934</ele>
        <time>2012-11-04T10:02:19Z</time>
      </trkpt>
      <trkpt lat="45.27988" lon="5.59598">
        <ele>933</ele>
        <time>2012-11-04T10:02:23Z</time>
      </trkpt>
      <trkpt lat="45.27989" lon="5.59599">
        <ele>933</ele>
        <time>2012-11-04T10:02:24Z</time>
      </trkpt>
      <trkpt lat="45.2799" lon="5.596">
        <ele>933</ele>
        <time>2012-11-04T10:02:25Z</time>
      </trkpt>
      <trkpt lat="45.27991" lon="5.59601">
        <ele>932</ele>
        <time>2012-11-04T10:02:26Z</time>
      </trkpt>
      <trkpt lat="45.27992" lon="5.59602">
        <ele>933</ele>
        <time>2012-11-04T10:02:27Z</time>
      </trkpt>
      <trkpt lat="45.27994" lon="5.59604">
        <ele>933</ele>
        <time>2012-11-04T10:02:28Z</time>
      </trkpt>
      <trkpt lat="45.27995" lon="5.59606">
        <ele>933</ele>
        <time>2012-11-04T10:02:29Z</time>
      </trkpt>
      <trkpt lat="45.27997" lon="5.59607">
        <ele>932</ele>
        <time>2012-11-04T10:02:30Z</time>
      </trkpt>
      <trkpt lat="45.27999" lon="5.59609">
        <ele>932</ele>
        <time>2012-11-04T10:02:31Z</time>
      </trkpt>
      <trkpt lat="45.28001" lon="5.59611">
        <ele>931</ele>
        <time>2012-11-04T10:02:32Z</time>
      </trkpt>
      <trkpt lat="45.28003" lon="5.59612">
        <ele>931</ele>
        <time>2012-11-04T10:02:33Z</time>
      </trkpt>
      <trkpt lat="45.28005" lon="5.59614">
        <ele>931</ele>
        <time>2012-11-04T10:02:34Z</time>
      </trkpt>
      <trkpt lat="45.28007" lon="5.59616">
        <ele>931</ele>
        <time>2012-11-04T10:02:35Z</time>
      </trkpt>
      <trkpt lat="45.28009" lon="5.59619">
        <ele>932</ele>
        <time>2012-11-04T10:02:36Z</time>
      </trkpt>
      <trkpt lat="45.28011" lon="5.59621">
        <ele>932</ele>
        <time>2012-11-04T10:02:37Z</time>
      </trkpt>
      <trkpt lat="45.28013" lon="5.59622">
        <ele>931</ele>
        <time>2012-11-04T10:02:38Z</time>
      </trkpt>
      <trkpt lat="45.28016" lon="5.59624">
        <ele>930</ele>
        <time>2012-11-04T10:02:39Z</time>
      </trkpt>
      <trkpt lat="45.28018" lon="5.59626">
        <ele>931</ele>
        <time>2012-11-04T10:02:40Z</time>
      </trkpt>
      <trkpt lat="45.2802" lon="5.59627">
        <ele>931</ele>
        <time>2012-11-04T10:02:41Z</time>
      </trkpt>
      <trkpt lat="45.28022" lon="5.59629">
        <ele>931</ele>
        <time>2012-11-04T10:02:42Z</time>
      </trkpt>
      <trkpt lat="45.28023" lon="5.5963">
        <ele>931</ele>
        <time>2012-11-04T10:02:43Z</time>
      </trkpt>
      <trkpt lat="45.28024" lon="5.59632">
        <ele>930</ele>
        <time>2012-11-04T10:02:44Z</time>
      </trkpt>
      <trkpt lat="45.28026" lon="5.59634">
        <ele>930</ele>
        <time>2012-11-04T10:02:45Z</time>
      </trkpt>
      <trkpt lat="45.28027" lon="5.59636">
        <ele>931</ele>
        <time>2012-11-04T10:02:46Z</time>
      </trkpt>
      <trkpt lat="45.28029" lon="5.59638">
        <ele>931</ele>
        <time>2012-11-04T10:02:47Z</time>
      </trkpt>
      <trkpt lat="45.28032" lon="5.5964">
        <ele>931</ele>
        <time>2012-11-04T10:02:48Z</time>
      </trkpt>
      <trkpt lat="45.28034" lon="5.59643">
        <ele>931</ele>
        <time>2012-11-04T10:02:49Z</time>
      </trkpt>
      <trkpt lat="45.28037" lon="5.59646">
        <ele>931</ele>
        <time>2012-11-04T10:02:50Z</time>
      </trkpt>
      <trkpt lat="45.2804" lon="5.59648">
        <ele>932</ele>
        <time>2012-11-04T10:02:51Z</time>
      </trkpt>
      <trkpt lat="45.28042" lon="5.59651">
        <ele>932</ele>
        <time>2012-11-04T10:02:52Z</time>
      </trkpt>
      <trkpt lat="45.28045" lon="5.59653">
        <ele>933</ele>
        <time>2012-11-04T10:02:53Z</time>
      </trkpt>
      <trkpt lat="45.28048" lon="5.59654">
        <ele>932</ele>
        <time>2012-11-04T10:02:54Z</time>
      </trkpt>
      <trkpt lat="45.28051" lon="5.59655">
        <ele>933</ele>
        <time>2012-11-04T10:02:55Z</time>
      </trkpt>
      <trkpt lat="45.28053" lon="5.59655">
        <ele>933</ele>
        <time>2012-11-04T10:02:56Z</time>
      </trkpt>
      <trkpt lat="45.28055" lon="5.59656">
        <ele>934</ele>
        <time>2012-11-04T10:02:57Z</time>
      </trkpt>
      <trkpt lat="45.28056" lon="5.59658">
        <ele>935</ele>
        <time>2012-11-04T10:02:58Z</time>
      </trkpt>
      <trkpt lat="45.28058" lon="5.59659">
        <ele>934</ele>
        <time>2012-11-04T10:02:59Z</time>
      </trkpt>
      <trkpt lat="45.2806" lon="5.5966">
        <ele>935</ele>
        <time>2012-11-04T10:03:00Z</time>
      </trkpt>
      <trkpt lat="45.28062" lon="5.59662">
        <ele>935</ele>
        <time>2012-11-04T10:03:01Z</time>
      </trkpt>
      <trkpt lat="45.28063" lon="5.59664">
        <ele>936</ele>
        <time>2012-11-04T10:03:02Z</time>
      </trkpt>
      <trkpt lat="45.28065" lon="5.59666">
        <ele>936</ele>
        <time>2012-11-04T10:03:03Z</time>
      </trkpt>
      <trkpt lat="45.28066" lon="5.59667">
        <ele>936</ele>
        <time>2012-11-04T10:03:04Z</time>
      </trkpt>
      <trkpt lat="45.28068" lon="5.59669">
        <ele>936</ele>
        <time>2012-11-04T10:03:05Z</time>
      </trkpt>
      <trkpt lat="45.2807" lon="5.5967">
        <ele>936</ele>
        <time>2012-11-04T10:03:06Z</time>
      </trkpt>
      <trkpt lat="45.28072" lon="5.59671">
        <ele>937</ele>
        <time>2012-11-04T10:03:07Z</time>
      </trkpt>
      <trkpt lat="45.28074" lon="5.59673">
        <ele>938</ele>
        <time>2012-11-04T10:03:08Z</time>
      </trkpt>
      <trkpt lat="45.28077" lon="5.59675">
        <ele>937</ele>
        <time>2012-11-04T10:03:09Z</time>
      </trkpt>
      <trkpt lat="45.2808" lon="5.59677">
        <ele>936</ele>
        <time>2012-11-04T10:03:10Z</time>
      </trkpt>
      <trkpt lat="45.28082" lon="5.5968">
        <ele>936</ele>
        <time>2012-11-04T10:03:11Z</time>
      </trkpt>
      <trkpt lat="45.28087" lon="5.59684">
        <ele>938</ele>
        <time>2012-11-04T10:03:12Z</time>
      </trkpt>
      <trkpt lat="45.2809" lon="5.59686">
        <ele>936</ele>
        <time>2012-11-04T10:03:13Z</time>
      </trkpt>
      <trkpt lat="45.28093" lon="5.59688">
        <ele>937</ele>
        <time>2012-11-04T10:03:14Z</time>
      </trkpt>
      <trkpt lat="45.28096" lon="5.59691">
        <ele>938</ele>
        <time>2012-11-04T10:03:15Z</time>
      </trkpt>
      <trkpt lat="45.28099" lon="5.59693">
        <ele>938</ele>
        <time>2012-11-04T10:03:16Z</time>
      </trkpt>
      <trkpt lat="45.28102" lon="5.59695">
        <ele>939</ele>
        <time>2012-11-04T10:03:17Z</time>
      </trkpt>
      <trkpt lat="45.28105" lon="5.59697">
        <ele>939</ele>
        <time>2012-11-04T10:03:18Z</time>
      </trkpt>
      <trkpt lat="45.28108" lon="5.59698">
        <ele>938</ele>
        <time>2012-11-04T10:03:19Z</time>
      </trkpt>
      <trkpt lat="45.2811" lon="5.597">
        <ele>938</ele>
        <time>2012-11-04T10:03:20Z</time>
      </trkpt>
      <trkpt lat="45.28113" lon="5.59701">
        <ele>938</ele>
        <time>2012-11-04T10:03:21Z</time>
      </trkpt>
      <trkpt lat="45.28114" lon="5.59703">
        <ele>939</ele>
        <time>2012-11-04T10:03:22Z</time>
      </trkpt>
      <trkpt lat="45.28116" lon="5.59705">
        <ele>938</ele>
        <time>2012-11-04T10:03:23Z</time>
      </trkpt>
      <trkpt lat="45.28117" lon="5.59707">
        <ele>938</ele>
        <time>2012-11-04T10:03:24Z</time>
      </trkpt>
      <trkpt lat="45.28118" lon="5.59709">
        <ele>939</ele>
        <time>2012-11-04T10:03:25Z</time>
      </trkpt>
      <trkpt lat="45.28119" lon="5.5971">
        <ele>939</ele>
        <time>2012-11-04T10:03:26Z</time>
      </trkpt>
      <trkpt lat="45.2812" lon="5.59711">
        <ele>939</ele>
        <time>2012-11-04T10:03:27Z</time>
      </trkpt>
      <trkpt lat="45.28122" lon="5.59712">
        <ele>939</ele>
        <time>2012-11-04T10:03:28Z</time>
      </trkpt>
      <trkpt lat="45.28122" lon="5.59713">
        <ele>939</ele>
        <time>2012-11-04T10:03:29Z</time>
      </trkpt>
      <trkpt lat="45.28124" lon="5.59715">
        <ele>940</ele>
        <time>2012-11-04T10:03:30Z</time>
      </trkpt>
      <trkpt lat="45.28126" lon="5.59716">
        <ele>941</ele>
        <time>2012-11-04T10:03:31Z</time>
      </trkpt>
      <trkpt lat="45.28127" lon="5.59717">
        <ele>942</ele>
        <time>2012-11-04T10:03:32Z</time>
      </trkpt>
      <trkpt lat="45.28129" lon="5.59719">
        <ele>942</ele>
        <time>2012-11-04T10:03:33Z</time>
      </trkpt>
      <trkpt lat="45.28132" lon="5.5972">
        <ele>943</ele>
        <time>2012-11-04T10:03:34Z</time>
      </trkpt>
      <trkpt lat="45.28134" lon="5.5972">
        <ele>942</ele>
        <time>2012-11-04T10:03:35Z</time>
      </trkpt>
      <trkpt lat="45.28136" lon="5.59721">
        <ele>941</ele>
        <time>2012-11-04T10:03:36Z</time>
      </trkpt>
      <trkpt lat="45.28138" lon="5.59722">
        <ele>942</ele>
        <time>2012-11-04T10:03:37Z</time>
      </trkpt>
      <trkpt lat="45.2814" lon="5.59723">
        <ele>942</ele>
        <time>2012-11-04T10:03:38Z</time>
      </trkpt>
      <trkpt lat="45.28141" lon="5.59725">
        <ele>942</ele>
        <time>2012-11-04T10:03:39Z</time>
      </trkpt>
      <trkpt lat="45.28143" lon="5.59726">
        <ele>941</ele>
        <time>2012-11-04T10:03:40Z</time>
      </trkpt>
      <trkpt lat="45.28145" lon="5.59727">
        <ele>943</ele>
        <time>2012-11-04T10:03:41Z</time>
      </trkpt>
      <trkpt lat="45.28145" lon="5.59728">
        <ele>943</ele>
        <time>2012-11-04T10:03:42Z</time>
      </trkpt>
      <trkpt lat="45.28147" lon="5.5973">
        <ele>944</ele>
        <time>2012-11-04T10:03:43Z</time>
      </trkpt>
      <trkpt lat="45.28149" lon="5.59732">
        <ele>945</ele>
        <time>2012-11-04T10:03:44Z</time>
      </trkpt>
      <trkpt lat="45.28151" lon="5.59734">
        <ele>946</ele>
        <time>2012-11-04T10:03:45Z</time>
      </trkpt>
      <trkpt lat="45.28152" lon="5.59736">
        <ele>947</ele>
        <time>2012-11-04T10:03:46Z</time>
      </trkpt>
      <trkpt lat="45.28154" lon="5.59738">
        <ele>948</ele>
        <time>2012-11-04T10:03:47Z</time>
      </trkpt>
      <trkpt lat="45.28155" lon="5.5974">
        <ele>948</ele>
        <time>2012-11-04T10:03:48Z</time>
      </trkpt>
      <trkpt lat="45.28157" lon="5.59742">
        <ele>949</ele>
        <time>2012-11-04T10:03:49Z</time>
      </trkpt>
      <trkpt lat="45.28158" lon="5.59744">
        <ele>952</ele>
        <time>2012-11-04T10:03:50Z</time>
      </trkpt>
      <trkpt lat="45.28159" lon="5.59746">
        <ele>954</ele>
        <time>2012-11-04T10:03:51Z</time>
      </trkpt>
      <trkpt lat="45.2816" lon="5.59748">
        <ele>954</ele>
        <time>2012-11-04T10:03:52Z</time>
      </trkpt>
      <trkpt lat="45.28161" lon="5.5975">
        <ele>955</ele>
        <time>2012-11-04T10:03:53Z</time>
      </trkpt>
      <trkpt lat="45.28162" lon="5.59753">
        <ele>955</ele>
        <time>2012-11-04T10:03:54Z</time>
      </trkpt>
      <trkpt lat="45.28163" lon="5.59756">
        <ele>954</ele>
        <time>2012-11-04T10:03:55Z</time>
      </trkpt>
      <trkpt lat="45.28164" lon="5.59758">
        <ele>954</ele>
        <time>2012-11-04T10:03:56Z</time>
      </trkpt>
      <trkpt lat="45.28165" lon="5.59762">
        <ele>955</ele>
        <time>2012-11-04T10:03:57Z</time>
      </trkpt>
      <trkpt lat="45.28166" lon="5.59765">
        <ele>954</ele>
        <time>2012-11-04T10:03:58Z</time>
      </trkpt>
      <trkpt lat="45.28167" lon="5.59768">
        <ele>955</ele>
        <time>2012-11-04T10:03:59Z</time>
      </trkpt>
      <trkpt lat="45.28169" lon="5.59771">
        <ele>954</ele>
        <time>2012-11-04T10:04:00Z</time>
      </trkpt>
      <trkpt lat="45.2817" lon="5.59773">
        <ele>955</ele>
        <time>2012-11-04T10:04:01Z</time>
      </trkpt>
      <trkpt lat="45.28172" lon="5.59775">
        <ele>953</ele>
        <time>2012-11-04T10:04:02Z</time>
      </trkpt>
      <trkpt lat="45.28173" lon="5.59777">
        <ele>954</ele>
        <time>2012-11-04T10:04:03Z</time>
      </trkpt>
      <trkpt lat="45.28175" lon="5.59778">
        <ele>955</ele>
        <time>2012-11-04T10:04:04Z</time>
      </trkpt>
      <trkpt lat="45.28177" lon="5.59779">
        <ele>955</ele>
        <time>2012-11-04T10:04:05Z</time>
      </trkpt>
      <trkpt lat="45.28179" lon="5.59781">
        <ele>954</ele>
        <time>2012-11-04T10:04:06Z</time>
      </trkpt>
      <trkpt lat="45.28181" lon="5.59783">
        <ele>954</ele>
        <time>2012-11-04T10:04:07Z</time>
      </trkpt>
      <trkpt lat="45.28182" lon="5.59784">
        <ele>953</ele>
        <time>2012-11-04T10:04:08Z</time>
      </trkpt>
      <trkpt lat="45.28184" lon="5.59786">
        <ele>953</ele>
        <time>2012-11-04T10:04:09Z</time>
      </trkpt>
      <trkpt lat="45.28186" lon="5.59788">
        <ele>952</ele>
        <time>2012-11-04T10:04:10Z</time>
      </trkpt>
      <trkpt lat="45.28189" lon="5.59789">
        <ele>952</ele>
        <time>2012-11-04T10:04:11Z</time>
      </trkpt>
      <trkpt lat="45.28192" lon="5.59791">
        <ele>952</ele>
        <time>2012-11-04T10:04:12Z</time>
      </trkpt>
      <trkpt lat="45.28194" lon="5.59792">
        <ele>952</ele>
        <time>2012-11-04T10:04:13Z</time>
      </trkpt>
      <trkpt lat="45.28197" lon="5.59794">
        <ele>951</ele>
        <time>2012-11-04T10:04:14Z</time>
      </trkpt>
      <trkpt lat="45.28199" lon="5.59795">
        <ele>951</ele>
        <time>2012-11-04T10:04:15Z</time>
      </trkpt>
      <trkpt lat="45.282" lon="5.59796">
        <ele>951</ele>
        <time>2012-11-04T10:04:16Z</time>
      </trkpt>
      <trkpt lat="45.28203" lon="5.59797">
        <ele>950</ele>
        <time>2012-11-04T10:04:17Z</time>
      </trkpt>
      <trkpt lat="45.28205" lon="5.59798">
        <ele>948</ele>
        <time>2012-11-04T10:04:18Z</time>
      </trkpt>
      <trkpt lat="45.28207" lon="5.59799">
        <ele>947</ele>
        <time>2012-11-04T10:04:19Z</time>
      </trkpt>
      <trkpt lat="45.2821" lon="5.59801">
        <ele>946</ele>
        <time>2012-11-04T10:04:20Z</time>
      </trkpt>
      <trkpt lat="45.28212" lon="5.59803">
        <ele>946</ele>
        <time>2012-11-04T10:04:21Z</time>
      </trkpt>
      <trkpt lat="45.28215" lon="5.59805">
        <ele>945</ele>
        <time>2012-11-04T10:04:22Z</time>
      </trkpt>
      <trkpt lat="45.28215" lon="5.59805">
        <ele>944</ele>
        <time>2012-11-04T10:04:23Z</time>
      </trkpt>
      <trkpt lat="45.28215" lon="5.59805">
        <ele>944</ele>
        <time>2012-11-04T10:04:24Z</time>
      </trkpt>
      <trkpt lat="45.2822" lon="5.59807">
        <ele>944</ele>
        <time>2012-11-04T10:04:25Z</time>
      </trkpt>
      <trkpt lat="45.2822" lon="5.59808">
        <ele>947</ele>
        <time>2012-11-04T10:04:26Z</time>
      </trkpt>
      <trkpt lat="45.28221" lon="5.59809">
        <ele>947</ele>
        <time>2012-11-04T10:04:27Z</time>
      </trkpt>
      <trkpt lat="45.28221" lon="5.59809">
        <ele>947</ele>
        <time>2012-11-04T10:04:28Z</time>
      </trkpt>
      <trkpt lat="45.28222" lon="5.5981">
        <ele>948</ele>
        <time>2012-11-04T10:04:29Z</time>
      </trkpt>
      <trkpt lat="45.28223" lon="5.5981">
        <ele>948</ele>
        <time>2012-11-04T10:04:30Z</time>
      </trkpt>
      <trkpt lat="45.28224" lon="5.59811">
        <ele>949</ele>
        <time>2012-11-04T10:04:31Z</time>
      </trkpt>
      <trkpt lat="45.28224" lon="5.59812">
        <ele>949</ele>
        <time>2012-11-04T10:04:32Z</time>
      </trkpt>
      <trkpt lat="45.28225" lon="5.59813">
        <ele>949</ele>
        <time>2012-11-04T10:04:33Z</time>
      </trkpt>
      <trkpt lat="45.28225" lon="5.59815">
        <ele>949</ele>
        <time>2012-11-04T10:04:34Z</time>
      </trkpt>
      <trkpt lat="45.28225" lon="5.59817">
        <ele>949</ele>
        <time>2012-11-04T10:04:35Z</time>
      </trkpt>
      <trkpt lat="45.28225" lon="5.59818">
        <ele>949</ele>
        <time>2012-11-04T10:04:36Z</time>
      </trkpt>
      <trkpt lat="45.28226" lon="5.5982">
        <ele>949</ele>
        <time>2012-11-04T10:04:37Z</time>
      </trkpt>
      <trkpt lat="45.28226" lon="5.59821">
        <ele>948</ele>
        <time>2012-11-04T10:04:38Z</time>
      </trkpt>
      <trkpt lat="45.28227" lon="5.59822">
        <ele>949</ele>
        <time>2012-11-04T10:04:39Z</time>
      </trkpt>
      <trkpt lat="45.28228" lon="5.59822">
        <ele>949</ele>
        <time>2012-11-04T10:04:40Z</time>
      </trkpt>
      <trkpt lat="45.2823" lon="5.59823">
        <ele>948</ele>
        <time>2012-11-04T10:04:41Z</time>
      </trkpt>
      <trkpt lat="45.28232" lon="5.59823">
        <ele>947</ele>
        <time>2012-11-04T10:04:42Z</time>
      </trkpt>
      <trkpt lat="45.28234" lon="5.59824">
        <ele>946</ele>
        <time>2012-11-04T10:04:43Z</time>
      </trkpt>
      <trkpt lat="45.28235" lon="5.59824">
        <ele>946</ele>
        <time>2012-11-04T10:04:44Z</time>
      </trkpt>
      <trkpt lat="45.28237" lon="5.59824">
        <ele>946</ele>
        <time>2012-11-04T10:04:45Z</time>
      </trkpt>
      <trkpt lat="45.28239" lon="5.59824">
        <ele>945</ele>
        <time>2012-11-04T10:04:46Z</time>
      </trkpt>
      <trkpt lat="45.2824" lon="5.59824">
        <ele>946</ele>
        <time>2012-11-04T10:04:47Z</time>
      </trkpt>
      <trkpt lat="45.28243" lon="5.59822">
        <ele>944</ele>
        <time>2012-11-04T10:04:48Z</time>
      </trkpt>
      <trkpt lat="45.28245" lon="5.59821">
        <ele>944</ele>
        <time>2012-11-04T10:04:49Z</time>
      </trkpt>
      <trkpt lat="45.28248" lon="5.59819">
        <ele>944</ele>
        <time>2012-11-04T10:04:50Z</time>
      </trkpt>
      <trkpt lat="45.28251" lon="5.59817">
        <ele>943</ele>
        <time>2012-11-04T10:04:51Z</time>
      </trkpt>
      <trkpt lat="45.28254" lon="5.59816">
        <ele>943</ele>
        <time>2012-11-04T10:04:52Z</time>
      </trkpt>
      <trkpt lat="45.28257" lon="5.59815">
        <ele>943</ele>
        <time>2012-11-04T10:04:53Z</time>
      </trkpt>
      <trkpt lat="45.28259" lon="5.59814">
        <ele>944</ele>
        <time>2012-11-04T10:04:54Z</time>
      </trkpt>
      <trkpt lat="45.28261" lon="5.59814">
        <ele>945</ele>
        <time>2012-11-04T10:04:55Z</time>
      </trkpt>
      <trkpt lat="45.28263" lon="5.59815">
        <ele>946</ele>
        <time>2012-11-04T10:04:56Z</time>
      </trkpt>
      <trkpt lat="45.28273" lon="5.59812">
        <ele>945</ele>
        <time>2012-11-04T10:05:01Z</time>
      </trkpt>
      <trkpt lat="45.28274" lon="5.59811">
        <ele>945</ele>
        <time>2012-11-04T10:05:02Z</time>
      </trkpt>
      <trkpt lat="45.28276" lon="5.59809">
        <ele>945</ele>
        <time>2012-11-04T10:05:03Z</time>
      </trkpt>
      <trkpt lat="45.28278" lon="5.59807">
        <ele>944</ele>
        <time>2012-11-04T10:05:04Z</time>
      </trkpt>
      <trkpt lat="45.2828" lon="5.59806">
        <ele>945</ele>
        <time>2012-11-04T10:05:05Z</time>
      </trkpt>
      <trkpt lat="45.28282" lon="5.59804">
        <ele>945</ele>
        <time>2012-11-04T10:05:06Z</time>
      </trkpt>
      <trkpt lat="45.28284" lon="5.59803">
        <ele>946</ele>
        <time>2012-11-04T10:05:07Z</time>
      </trkpt>
      <trkpt lat="45.28286" lon="5.59802">
        <ele>947</ele>
        <time>2012-11-04T10:05:08Z</time>
      </trkpt>
      <trkpt lat="45.28288" lon="5.598">
        <ele>947</ele>
        <time>2012-11-04T10:05:09Z</time>
      </trkpt>
      <trkpt lat="45.28289" lon="5.59799">
        <ele>948</ele>
        <time>2012-11-04T10:05:10Z</time>
      </trkpt>
      <trkpt lat="45.2829" lon="5.59797">
        <ele>948</ele>
        <time>2012-11-04T10:05:11Z</time>
      </trkpt>
      <trkpt lat="45.28292" lon="5.59795">
        <ele>949</ele>
        <time>2012-11-04T10:05:12Z</time>
      </trkpt>
      <trkpt lat="45.28293" lon="5.59794">
        <ele>948</ele>
        <time>2012-11-04T10:05:13Z</time>
      </trkpt>
      <trkpt lat="45.28294" lon="5.59793">
        <ele>948</ele>
        <time>2012-11-04T10:05:14Z</time>
      </trkpt>
      <trkpt lat="45.28296" lon="5.59793">
        <ele>948</ele>
        <time>2012-11-04T10:05:15Z</time>
      </trkpt>
      <trkpt lat="45.28297" lon="5.59794">
        <ele>949</ele>
        <time>2012-11-04T10:05:16Z</time>
      </trkpt>
      <trkpt lat="45.28299" lon="5.59795">
        <ele>948</ele>
        <time>2012-11-04T10:05:17Z</time>
      </trkpt>
      <trkpt lat="45.28301" lon="5.59797">
        <ele>948</ele>
        <time>2012-11-04T10:05:18Z</time>
      </trkpt>
      <trkpt lat="45.28303" lon="5.59798">
        <ele>947</ele>
        <time>2012-11-04T10:05:19Z</time>
      </trkpt>
      <trkpt lat="45.28306" lon="5.59799">
        <ele>946</ele>
        <time>2012-11-04T10:05:20Z</time>
      </trkpt>
      <trkpt lat="45.28308" lon="5.59799">
        <ele>946</ele>
        <time>2012-11-04T10:05:21Z</time>
      </trkpt>
      <trkpt lat="45.2831" lon="5.59799">
        <ele>945</ele>
        <time>2012-11-04T10:05:22Z</time>
      </trkpt>
      <trkpt lat="45.28312" lon="5.59799">
        <ele>945</ele>
        <time>2012-11-04T10:05:23Z</time>
      </trkpt>
      <trkpt lat="45.28319" lon="5.59799">
        <ele>947</ele>
        <time>2012-11-04T10:05:27Z</time>
      </trkpt>
      <trkpt lat="45.28321" lon="5.598">
        <ele>947</ele>
        <time>2012-11-04T10:05:28Z</time>
      </trkpt>
      <trkpt lat="45.28323" lon="5.59801">
        <ele>947</ele>
        <time>2012-11-04T10:05:29Z</time>
      </trkpt>
      <trkpt lat="45.28326" lon="5.59803">
        <ele>949</ele>
        <time>2012-11-04T10:05:30Z</time>
      </trkpt>
      <trkpt lat="45.28329" lon="5.59805">
        <ele>949</ele>
        <time>2012-11-04T10:05:31Z</time>
      </trkpt>
      <trkpt lat="45.28332" lon="5.59806">
        <ele>947</ele>
        <time>2012-11-04T10:05:32Z</time>
      </trkpt>
      <trkpt lat="45.28335" lon="5.59807">
        <ele>947</ele>
        <time>2012-11-04T10:05:33Z</time>
      </trkpt>
      <trkpt lat="45.28339" lon="5.59808">
        <ele>946</ele>
        <time>2012-11-04T10:05:34Z</time>
      </trkpt>
      <trkpt lat="45.28342" lon="5.59806">
        <ele>945</ele>
        <time>2012-11-04T10:05:35Z</time>
      </trkpt>
      <trkpt lat="45.28346" lon="5.59804">
        <ele>946</ele>
        <time>2012-11-04T10:05:36Z</time>
      </trkpt>
      <trkpt lat="45.28349" lon="5.59802">
        <ele>947</ele>
        <time>2012-11-04T10:05:37Z</time>
      </trkpt>
      <trkpt lat="45.28352" lon="5.598">
        <ele>947</ele>
        <time>2012-11-04T10:05:38Z</time>
      </trkpt>
      <trkpt lat="45.28355" lon="5.59798">
        <ele>947</ele>
        <time>2012-11-04T10:05:39Z</time>
      </trkpt>
      <trkpt lat="45.28357" lon="5.59795">
        <ele>947</ele>
        <time>2012-11-04T10:05:40Z</time>
      </trkpt>
      <trkpt lat="45.2836" lon="5.59793">
        <ele>947</ele>
        <time>2012-11-04T10:05:41Z</time>
      </trkpt>
      <trkpt lat="45.28363" lon="5.59791">
        <ele>947</ele>
        <time>2012-11-04T10:05:42Z</time>
      </trkpt>
      <trkpt lat="45.28366" lon="5.59789">
        <ele>947</ele>
        <time>2012-11-04T10:05:43Z</time>
      </trkpt>
      <trkpt lat="45.28369" lon="5.59786">
        <ele>948</ele>
        <time>2012-11-04T10:05:44Z</time>
      </trkpt>
      <trkpt lat="45.28372" lon="5.59783">
        <ele>948</ele>
        <time>2012-11-04T10:05:45Z</time>
      </trkpt>
      <trkpt lat="45.28375" lon="5.5978">
        <ele>947</ele>
        <time>2012-11-04T10:05:46Z</time>
      </trkpt>
      <trkpt lat="45.28379" lon="5.59777">
        <ele>947</ele>
        <time>2012-11-04T10:05:47Z</time>
      </trkpt>
      <trkpt lat="45.28382" lon="5.59775">
        <ele>948</ele>
        <time>2012-11-04T10:05:48Z</time>
      </trkpt>
      <trkpt lat="45.28385" lon="5.59772">
        <ele>948</ele>
        <time>2012-11-04T10:05:49Z</time>
      </trkpt>
      <trkpt lat="45.28387" lon="5.5977">
        <ele>948</ele>
        <time>2012-11-04T10:05:50Z</time>
      </trkpt>
      <trkpt lat="45.28389" lon="5.59767">
        <ele>948</ele>
        <time>2012-11-04T10:05:51Z</time>
      </trkpt>
      <trkpt lat="45.28391" lon="5.59765">
        <ele>948</ele>
        <time>2012-11-04T10:05:52Z</time>
      </trkpt>
      <trkpt lat="45.28393" lon="5.59763">
        <ele>948</ele>
        <time>2012-11-04T10:05:53Z</time>
      </trkpt>
      <trkpt lat="45.28395" lon="5.59761">
        <ele>948</ele>
        <time>2012-11-04T10:05:54Z</time>
      </trkpt>
      <trkpt lat="45.28398" lon="5.59759">
        <ele>948</ele>
        <time>2012-11-04T10:05:55Z</time>
      </trkpt>
      <trkpt lat="45.284" lon="5.59757">
        <ele>949</ele>
        <time>2012-11-04T10:05:56Z</time>
      </trkpt>
      <trkpt lat="45.28402" lon="5.59755">
        <ele>947</ele>
        <time>2012-11-04T10:05:57Z</time>
      </trkpt>
      <trkpt lat="45.28404" lon="5.59753">
        <ele>946</ele>
        <time>2012-11-04T10:05:58Z</time>
      </trkpt>
      <trkpt lat="45.28406" lon="5.5975">
        <ele>945</ele>
        <time>2012-11-04T10:05:59Z</time>
      </trkpt>
      <trkpt lat="45.28408" lon="5.59748">
        <ele>945</ele>
        <time>2012-11-04T10:06:00Z</time>
      </trkpt>
      <trkpt lat="45.28411" lon="5.59745">
        <ele>946</ele>
        <time>2012-11-04T10:06:01Z</time>
      </trkpt>
      <trkpt lat="45.28413" lon="5.59741">
        <ele>944</ele>
        <time>2012-11-04T10:06:02Z</time>
      </trkpt>
      <trkpt lat="45.28416" lon="5.59736">
        <ele>942</ele>
        <time>2012-11-04T10:06:03Z</time>
      </trkpt>
      <trkpt lat="45.28419" lon="5.5973">
        <ele>941</ele>
        <time>2012-11-04T10:06:04Z</time>
      </trkpt>
      <trkpt lat="45.28421" lon="5.59723">
        <ele>936</ele>
        <time>2012-11-04T10:06:05Z</time>
      </trkpt>
      <trkpt lat="45.28424" lon="5.59715">
        <ele>933</ele>
        <time>2012-11-04T10:06:06Z</time>
      </trkpt>
      <trkpt lat="45.28429" lon="5.59685">
        <ele>929</ele>
        <time>2012-11-04T10:06:07Z</time>
      </trkpt>
      <trkpt lat="45.28431" lon="5.59681">
        <ele>927</ele>
        <time>2012-11-04T10:06:08Z</time>
      </trkpt>
      <trkpt lat="45.28433" lon="5.59679">
        <ele>927</ele>
        <time>2012-11-04T10:06:09Z</time>
      </trkpt>
      <trkpt lat="45.28433" lon="5.59677">
        <ele>927</ele>
        <time>2012-11-04T10:06:10Z</time>
      </trkpt>
      <trkpt lat="45.28434" lon="5.59674">
        <ele>927</ele>
        <time>2012-11-04T10:06:11Z</time>
      </trkpt>
      <trkpt lat="45.28435" lon="5.59672">
        <ele>928</ele>
        <time>2012-11-04T10:06:12Z</time>
      </trkpt>
      <trkpt lat="45.28435" lon="5.59671">
        <ele>928</ele>
        <time>2012-11-04T10:06:13Z</time>
      </trkpt>
      <trkpt lat="45.28435" lon="5.59669">
        <ele>926</ele>
        <time>2012-11-04T10:06:14Z</time>
      </trkpt>
      <trkpt lat="45.28436" lon="5.59667">
        <ele>926</ele>
        <time>2012-11-04T10:06:15Z</time>
      </trkpt>
      <trkpt lat="45.28436" lon="5.59665">
        <ele>926</ele>
        <time>2012-11-04T10:06:16Z</time>
      </trkpt>
      <trkpt lat="45.28436" lon="5.59664">
        <ele>925</ele>
        <time>2012-11-04T10:06:17Z</time>
      </trkpt>
      <trkpt lat="45.28436" lon="5.59663">
        <ele>927</ele>
        <time>2012-11-04T10:06:18Z</time>
      </trkpt>
      <trkpt lat="45.28435" lon="5.59662">
        <ele>927</ele>
        <time>2012-11-04T10:06:19Z</time>
      </trkpt>
      <trkpt lat="45.28434" lon="5.59661">
        <ele>927</ele>
        <time>2012-11-04T10:06:20Z</time>
      </trkpt>
      <trkpt lat="45.28433" lon="5.59661">
        <ele>928</ele>
        <time>2012-11-04T10:06:21Z</time>
      </trkpt>
      <trkpt lat="45.28432" lon="5.59661">
        <ele>929</ele>
        <time>2012-11-04T10:06:22Z</time>
      </trkpt>
      <trkpt lat="45.28431" lon="5.59661">
        <ele>929</ele>
        <time>2012-11-04T10:06:23Z</time>
      </trkpt>
      <trkpt lat="45.28431" lon="5.59661">
        <ele>933</ele>
        <time>2012-11-04T10:06:24Z</time>
      </trkpt>
      <trkpt lat="45.28431" lon="5.59661">
        <ele>936</ele>
        <time>2012-11-04T10:06:25Z</time>
      </trkpt>
      <trkpt lat="45.28431" lon="5.59661">
        <ele>936</ele>
        <time>2012-11-04T10:06:26Z</time>
      </trkpt>
      <trkpt lat="45.28427" lon="5.59662">
        <ele>938</ele>
        <time>2012-11-04T10:06:27Z</time>
      </trkpt>
      <trkpt lat="45.28427" lon="5.59662">
        <ele>940</ele>
        <time>2012-11-04T10:06:28Z</time>
      </trkpt>
      <trkpt lat="45.28427" lon="5.59662">
        <ele>940</ele>
        <time>2012-11-04T10:06:29Z</time>
      </trkpt>
      <trkpt lat="45.28427" lon="5.59662">
        <ele>940</ele>
        <time>2012-11-04T10:06:30Z</time>
      </trkpt>
      <trkpt lat="45.28427" lon="5.59662">
        <ele>940</ele>
        <time>2012-11-04T10:06:31Z</time>
      </trkpt>
      <trkpt lat="45.28427" lon="5.59662">
        <ele>941</ele>
        <time>2012-11-04T10:06:32Z</time>
      </trkpt>
      <trkpt lat="45.28427" lon="5.59662">
        <ele>941</ele>
        <time>2012-11-04T10:06:33Z</time>
      </trkpt>
      <trkpt lat="45.28427" lon="5.59662">
        <ele>940</ele>
        <time>2012-11-04T10:06:34Z</time>
      </trkpt>
      <trkpt lat="45.28427" lon="5.59662">
        <ele>939</ele>
        <time>2012-11-04T10:06:35Z</time>
      </trkpt>
      <trkpt lat="45.28429" lon="5.59662">
        <ele>937</ele>
        <time>2012-11-04T10:06:36Z</time>
      </trkpt>
      <trkpt lat="45.2843" lon="5.59662">
        <ele>936</ele>
        <time>2012-11-04T10:06:37Z</time>
      </trkpt>
      <trkpt lat="45.28431" lon="5.59661">
        <ele>936</ele>
        <time>2012-11-04T10:06:38Z</time>
      </trkpt>
      <trkpt lat="45.28431" lon="5.59659">
        <ele>936</ele>
        <time>2012-11-04T10:06:39Z</time>
      </trkpt>
      <trkpt lat="45.28432" lon="5.59658">
        <ele>936</ele>
        <time>2012-11-04T10:06:40Z</time>
      </trkpt>
      <trkpt lat="45.28433" lon="5.59656">
        <ele>935</ele>
        <time>2012-11-04T10:06:41Z</time>
      </trkpt>
      <trkpt lat="45.28434" lon="5.59654">
        <ele>935</ele>
        <time>2012-11-04T10:06:42Z</time>
      </trkpt>
      <trkpt lat="45.28434" lon="5.59652">
        <ele>935</ele>
        <time>2012-11-04T10:06:43Z</time>
      </trkpt>
      <trkpt lat="45.28434" lon="5.5965">
        <ele>935</ele>
        <time>2012-11-04T10:06:44Z</time>
      </trkpt>
      <trkpt lat="45.28434" lon="5.59648">
        <ele>935</ele>
        <time>2012-11-04T10:06:45Z</time>
      </trkpt>
      <trkpt lat="45.28434" lon="5.59647">
        <ele>935</ele>
        <time>2012-11-04T10:06:46Z</time>
      </trkpt>
      <trkpt lat="45.28434" lon="5.59647">
        <ele>935</ele>
        <time>2012-11-04T10:06:47Z</time>
      </trkpt>
      <trkpt lat="45.28435" lon="5.59646">
        <ele>937</ele>
        <time>2012-11-04T10:06:48Z</time>
      </trkpt>
      <trkpt lat="45.28436" lon="5.59646">
        <ele>937</ele>
        <time>2012-11-04T10:06:49Z</time>
      </trkpt>
      <trkpt lat="45.28437" lon="5.59645">
        <ele>938</ele>
        <time>2012-11-04T10:06:50Z</time>
      </trkpt>
      <trkpt lat="45.28438" lon="5.59644">
        <ele>938</ele>
        <time>2012-11-04T10:06:51Z</time>
      </trkpt>
      <trkpt lat="45.28439" lon="5.59643">
        <ele>939</ele>
        <time>2012-11-04T10:06:52Z</time>
      </trkpt>
      <trkpt lat="45.2844" lon="5.59641">
        <ele>941</ele>
        <time>2012-11-04T10:06:53Z</time>
      </trkpt>
      <trkpt lat="45.28441" lon="5.59639">
        <ele>944</ele>
        <time>2012-11-04T10:06:54Z</time>
      </trkpt>
      <trkpt lat="45.28443" lon="5.59637">
        <ele>944</ele>
        <time>2012-11-04T10:06:55Z</time>
      </trkpt>
      <trkpt lat="45.28443" lon="5.59634">
        <ele>945</ele>
        <time>2012-11-04T10:06:56Z</time>
      </trkpt>
      <trkpt lat="45.28444" lon="5.59631">
        <ele>947</ele>
        <time>2012-11-04T10:06:57Z</time>
      </trkpt>
      <trkpt lat="45.28445" lon="5.59628">
        <ele>949</ele>
        <time>2012-11-04T10:06:58Z</time>
      </trkpt>
      <trkpt lat="45.28445" lon="5.59625">
        <ele>950</ele>
        <time>2012-11-04T10:06:59Z</time>
      </trkpt>
      <trkpt lat="45.28446" lon="5.59622">
        <ele>951</ele>
        <time>2012-11-04T10:07:00Z</time>
      </trkpt>
      <trkpt lat="45.28447" lon="5.5962">
        <ele>952</ele>
        <time>2012-11-04T10:07:01Z</time>
      </trkpt>
      <trkpt lat="45.28447" lon="5.59618">
        <ele>953</ele>
        <time>2012-11-04T10:07:02Z</time>
      </trkpt>
      <trkpt lat="45.28448" lon="5.59616">
        <ele>954</ele>
        <time>2012-11-04T10:07:03Z</time>
      </trkpt>
      <trkpt lat="45.28448" lon="5.59615">
        <ele>958</ele>
        <time>2012-11-04T10:07:04Z</time>
      </trkpt>
      <trkpt lat="45.28448" lon="5.59614">
        <ele>958</ele>
        <time>2012-11-04T10:07:05Z</time>
      </trkpt>
      <trkpt lat="45.28448" lon="5.59613">
        <ele>958</ele>
        <time>2012-11-04T10:07:06Z</time>
      </trkpt>
      <trkpt lat="45.28447" lon="5.59612">
        <ele>960</ele>
        <time>2012-11-04T10:07:07Z</time>
      </trkpt>
      <trkpt lat="45.28447" lon="5.59611">
        <ele>961</ele>
        <time>2012-11-04T10:07:08Z</time>
      </trkpt>
      <trkpt lat="45.28447" lon="5.5961">
        <ele>962</ele>
        <time>2012-11-04T10:07:09Z</time>
      </trkpt>
      <trkpt lat="45.28447" lon="5.59608">
        <ele>964</ele>
        <time>2012-11-04T10:07:10Z</time>
      </trkpt>
      <trkpt lat="45.28447" lon="5.59607">
        <ele>964</ele>
        <time>2012-11-04T10:07:11Z</time>
      </trkpt>
      <trkpt lat="45.28447" lon="5.59607">
        <ele>966</ele>
        <time>2012-11-04T10:07:12Z</time>
      </trkpt>
      <trkpt lat="45.28447" lon="5.59606">
        <ele>967</ele>
        <time>2012-11-04T10:07:13Z</time>
      </trkpt>
      <trkpt lat="45.28447" lon="5.59606">
        <ele>968</ele>
        <time>2012-11-04T10:07:14Z</time>
      </trkpt>
      <trkpt lat="45.28446" lon="5.59605">
        <ele>968</ele>
        <time>2012-11-04T10:07:15Z</time>
      </trkpt>
      <trkpt lat="45.28447" lon="5.59604">
        <ele>969</ele>
        <time>2012-11-04T10:07:16Z</time>
      </trkpt>
      <trkpt lat="45.28447" lon="5.59604">
        <ele>969</ele>
        <time>2012-11-04T10:07:17Z</time>
      </trkpt>
      <trkpt lat="45.28447" lon="5.59603">
        <ele>970</ele>
        <time>2012-11-04T10:07:18Z</time>
      </trkpt>
      <trkpt lat="45.28448" lon="5.59602">
        <ele>969</ele>
        <time>2012-11-04T10:07:19Z</time>
      </trkpt>
      <trkpt lat="45.28449" lon="5.59601">
        <ele>969</ele>
        <time>2012-11-04T10:07:20Z</time>
      </trkpt>
      <trkpt lat="45.2845" lon="5.596">
        <ele>971</ele>
        <time>2012-11-04T10:07:21Z</time>
      </trkpt>
      <trkpt lat="45.28451" lon="5.59599">
        <ele>971</ele>
        <time>2012-11-04T10:07:22Z</time>
      </trkpt>
      <trkpt lat="45.28451" lon="5.59599">
        <ele>971</ele>
        <time>2012-11-04T10:07:23Z</time>
      </trkpt>
      <trkpt lat="45.28451" lon="5.59598">
        <ele>972</ele>
        <time>2012-11-04T10:07:24Z</time>
      </trkpt>
      <trkpt lat="45.28451" lon="5.59597">
        <ele>971</ele>
        <time>2012-11-04T10:07:25Z</time>
      </trkpt>
      <trkpt lat="45.28451" lon="5.59596">
        <ele>971</ele>
        <time>2012-11-04T10:07:26Z</time>
      </trkpt>
      <trkpt lat="45.28451" lon="5.59594">
        <ele>970</ele>
        <time>2012-11-04T10:07:27Z</time>
      </trkpt>
      <trkpt lat="45.2845" lon="5.59593">
        <ele>970</ele>
        <time>2012-11-04T10:07:28Z</time>
      </trkpt>
      <trkpt lat="45.2845" lon="5.59592">
        <ele>971</ele>
        <time>2012-11-04T10:07:29Z</time>
      </trkpt>
      <trkpt lat="45.2845" lon="5.59591">
        <ele>970</ele>
        <time>2012-11-04T10:07:30Z</time>
      </trkpt>
      <trkpt lat="45.2845" lon="5.5959">
        <ele>968</ele>
        <time>2012-11-04T10:07:31Z</time>
      </trkpt>
      <trkpt lat="45.2845" lon="5.59588">
        <ele>967</ele>
        <time>2012-11-04T10:07:32Z</time>
      </trkpt>
      <trkpt lat="45.28449" lon="5.59587">
        <ele>967</ele>
        <time>2012-11-04T10:07:33Z</time>
      </trkpt>
      <trkpt lat="45.28449" lon="5.59585">
        <ele>967</ele>
        <time>2012-11-04T10:07:34Z</time>
      </trkpt>
      <trkpt lat="45.28449" lon="5.59583">
        <ele>967</ele>
        <time>2012-11-04T10:07:35Z</time>
      </trkpt>
      <trkpt lat="45.28449" lon="5.59582">
        <ele>968</ele>
        <time>2012-11-04T10:07:36Z</time>
      </trkpt>
      <trkpt lat="45.28449" lon="5.5958">
        <ele>968</ele>
        <time>2012-11-04T10:07:37Z</time>
      </trkpt>
      <trkpt lat="45.2845" lon="5.59578">
        <ele>968</ele>
        <time>2012-11-04T10:07:38Z</time>
      </trkpt>
      <trkpt lat="45.2845" lon="5.59575">
        <ele>967</ele>
        <time>2012-11-04T10:07:39Z</time>
      </trkpt>
      <trkpt lat="45.2845" lon="5.59573">
        <ele>966</ele>
        <time>2012-11-04T10:07:40Z</time>
      </trkpt>
      <trkpt lat="45.2845" lon="5.59571">
        <ele>966</ele>
        <time>2012-11-04T10:07:41Z</time>
      </trkpt>
      <trkpt lat="45.28451" lon="5.5957">
        <ele>966</ele>
        <time>2012-11-04T10:07:42Z</time>
      </trkpt>
      <trkpt lat="45.28452" lon="5.59568">
        <ele>966</ele>
        <time>2012-11-04T10:07:43Z</time>
      </trkpt>
      <trkpt lat="45.28453" lon="5.59565">
        <ele>964</ele>
        <time>2012-11-04T10:07:44Z</time>
      </trkpt>
      <trkpt lat="45.28453" lon="5.59564">
        <ele>964</ele>
        <time>2012-11-04T10:07:45Z</time>
      </trkpt>
      <trkpt lat="45.28454" lon="5.59561">
        <ele>964</ele>
        <time>2012-11-04T10:07:46Z</time>
      </trkpt>
      <trkpt lat="45.28454" lon="5.59559">
        <ele>964</ele>
        <time>2012-11-04T10:07:47Z</time>
      </trkpt>
      <trkpt lat="45.28454" lon="5.59558">
        <ele>964</ele>
        <time>2012-11-04T10:07:48Z</time>
      </trkpt>
      <trkpt lat="45.28454" lon="5.59557">
        <ele>963</ele>
        <time>2012-11-04T10:07:49Z</time>
      </trkpt>
      <trkpt lat="45.28454" lon="5.59555">
        <ele>962</ele>
        <time>2012-11-04T10:07:50Z</time>
      </trkpt>
      <trkpt lat="45.28453" lon="5.59554">
        <ele>961</ele>
        <time>2012-11-04T10:07:51Z</time>
      </trkpt>
      <trkpt lat="45.28454" lon="5.59552">
        <ele>960</ele>
        <time>2012-11-04T10:07:52Z</time>
      </trkpt>
      <trkpt lat="45.28454" lon="5.59549">
        <ele>961</ele>
        <time>2012-11-04T10:07:53Z</time>
      </trkpt>
      <trkpt lat="45.28456" lon="5.59546">
        <ele>961</ele>
        <time>2012-11-04T10:07:54Z</time>
      </trkpt>
      <trkpt lat="45.28456" lon="5.59544">
        <ele>961</ele>
        <time>2012-11-04T10:07:55Z</time>
      </trkpt>
      <trkpt lat="45.28457" lon="5.59543">
        <ele>961</ele>
        <time>2012-11-04T10:07:56Z</time>
      </trkpt>
      <trkpt lat="45.28458" lon="5.59541">
        <ele>960</ele>
        <time>2012-11-04T10:07:57Z</time>
      </trkpt>
      <trkpt lat="45.28459" lon="5.59539">
        <ele>960</ele>
        <time>2012-11-04T10:07:58Z</time>
      </trkpt>
      <trkpt lat="45.2846" lon="5.59538">
        <ele>960</ele>
        <time>2012-11-04T10:07:59Z</time>
      </trkpt>
      <trkpt lat="45.28461" lon="5.59536">
        <ele>960</ele>
        <time>2012-11-04T10:08:00Z</time>
      </trkpt>
      <trkpt lat="45.28461" lon="5.59535">
        <ele>961</ele>
        <time>2012-11-04T10:08:01Z</time>
      </trkpt>
      <trkpt lat="45.28462" lon="5.59533">
        <ele>961</ele>
        <time>2012-11-04T10:08:02Z</time>
      </trkpt>
      <trkpt lat="45.28462" lon="5.59532">
        <ele>961</ele>
        <time>2012-11-04T10:08:03Z</time>
      </trkpt>
      <trkpt lat="45.28462" lon="5.59531">
        <ele>962</ele>
        <time>2012-11-04T10:08:04Z</time>
      </trkpt>
      <trkpt lat="45.28462" lon="5.59531">
        <ele>961</ele>
        <time>2012-11-04T10:08:05Z</time>
      </trkpt>
      <trkpt lat="45.28462" lon="5.59531">
        <ele>961</ele>
        <time>2012-11-04T10:08:06Z</time>
      </trkpt>
      <trkpt lat="45.28462" lon="5.59531">
        <ele>961</ele>
        <time>2012-11-04T10:08:07Z</time>
      </trkpt>
      <trkpt lat="45.28462" lon="5.59531">
        <ele>960</ele>
        <time>2012-11-04T10:08:08Z</time>
      </trkpt>
      <trkpt lat="45.28462" lon="5.59531">
        <ele>960</ele>
        <time>2012-11-04T10:08:09Z</time>
      </trkpt>
      <trkpt lat="45.28462" lon="5.59531">
        <ele>960</ele>
        <time>2012-11-04T10:08:10Z</time>
      </trkpt>
      <trkpt lat="45.28462" lon="5.59531">
        <ele>960</ele>
        <time>2012-11-04T10:08:11Z</time>
      </trkpt>
      <trkpt lat="45.28464" lon="5.59524">
        <ele>960</ele>
        <time>2012-11-04T10:08:12Z</time>
      </trkpt>
      <trkpt lat="45.28464" lon="5.59524">
        <ele>960</ele>
        <time>2012-11-04T10:08:13Z</time>
      </trkpt>
      <trkpt lat="45.28464" lon="5.59524">
        <ele>961</ele>
        <time>2012-11-04T10:08:14Z</time>
      </trkpt>
      <trkpt lat="45.28464" lon="5.59524">
        <ele>961</ele>
        <time>2012-11-04T10:08:15Z</time>
      </trkpt>
      <trkpt lat="45.28464" lon="5.59524">
        <ele>961</ele>
        <time>2012-11-04T10:08:16Z</time>
      </trkpt>
      <trkpt lat="45.28464" lon="5.59524">
        <ele>962</ele>
        <time>2012-11-04T10:08:17Z</time>
      </trkpt>
      <trkpt lat="45.28464" lon="5.59524">
        <ele>962</ele>
        <time>2012-11-04T10:08:18Z</time>
      </trkpt>
      <trkpt lat="45.28464" lon="5.59524">
        <ele>962</ele>
        <time>2012-11-04T10:08:19Z</time>
      </trkpt>
      <trkpt lat="45.28464" lon="5.59524">
        <ele>962</ele>
        <time>2012-11-04T10:08:20Z</time>
      </trkpt>
      <trkpt lat="45.28464" lon="5.59524">
        <ele>963</ele>
        <time>2012-11-04T10:08:21Z</time>
      </trkpt>
      <trkpt lat="45.28464" lon="5.59524">
        <ele>963</ele>
        <time>2012-11-04T10:08:22Z</time>
      </trkpt>
      <trkpt lat="45.28464" lon="5.59524">
        <ele>963</ele>
        <time>2012-11-04T10:08:23Z</time>
      </trkpt>
      <trkpt lat="45.28464" lon="5.59524">
        <ele>963</ele>
        <time>2012-11-04T10:08:24Z</time>
      </trkpt>
      <trkpt lat="45.28465" lon="5.59519">
        <ele>961</ele>
        <time>2012-11-04T10:08:25Z</time>
      </trkpt>
      <trkpt lat="45.28465" lon="5.59517">
        <ele>962</ele>
        <time>2012-11-04T10:08:26Z</time>
      </trkpt>
      <trkpt lat="45.28464" lon="5.59515">
        <ele>962</ele>
        <time>2012-11-04T10:08:27Z</time>
      </trkpt>
      <trkpt lat="45.28464" lon="5.59513">
        <ele>962</ele>
        <time>2012-11-04T10:08:28Z</time>
      </trkpt>
      <trkpt lat="45.28464" lon="5.59512">
        <ele>961</ele>
        <time>2012-11-04T10:08:29Z</time>
      </trkpt>
      <trkpt lat="45.28465" lon="5.59507">
        <ele>959</ele>
        <time>2012-11-04T10:08:30Z</time>
      </trkpt>
      <trkpt lat="45.28464" lon="5.59504">
        <ele>959</ele>
        <time>2012-11-04T10:08:31Z</time>
      </trkpt>
      <trkpt lat="45.28464" lon="5.59501">
        <ele>958</ele>
        <time>2012-11-04T10:08:32Z</time>
      </trkpt>
      <trkpt lat="45.28463" lon="5.59498">
        <ele>958</ele>
        <time>2012-11-04T10:08:33Z</time>
      </trkpt>
      <trkpt lat="45.28463" lon="5.59496">
        <ele>958</ele>
        <time>2012-11-04T10:08:34Z</time>
      </trkpt>
      <trkpt lat="45.28462" lon="5.59495">
        <ele>959</ele>
        <time>2012-11-04T10:08:35Z</time>
      </trkpt>
      <trkpt lat="45.28462" lon="5.59494">
        <ele>958</ele>
        <time>2012-11-04T10:08:36Z</time>
      </trkpt>
      <trkpt lat="45.28463" lon="5.59493">
        <ele>958</ele>
        <time>2012-11-04T10:08:37Z</time>
      </trkpt>
      <trkpt lat="45.28463" lon="5.59493">
        <ele>959</ele>
        <time>2012-11-04T10:08:38Z</time>
      </trkpt>
      <trkpt lat="45.28463" lon="5.59492">
        <ele>959</ele>
        <time>2012-11-04T10:08:39Z</time>
      </trkpt>
      <trkpt lat="45.28462" lon="5.59491">
        <ele>959</ele>
        <time>2012-11-04T10:08:40Z</time>
      </trkpt>
      <trkpt lat="45.28461" lon="5.5949">
        <ele>958</ele>
        <time>2012-11-04T10:08:41Z</time>
      </trkpt>
      <trkpt lat="45.2846" lon="5.5949">
        <ele>958</ele>
        <time>2012-11-04T10:08:42Z</time>
      </trkpt>
      <trkpt lat="45.28459" lon="5.59488">
        <ele>958</ele>
        <time>2012-11-04T10:08:43Z</time>
      </trkpt>
      <trkpt lat="45.28457" lon="5.59487">
        <ele>958</ele>
        <time>2012-11-04T10:08:44Z</time>
      </trkpt>
      <trkpt lat="45.28456" lon="5.59486">
        <ele>958</ele>
        <time>2012-11-04T10:08:45Z</time>
      </trkpt>
      <trkpt lat="45.28454" lon="5.59484">
        <ele>958</ele>
        <time>2012-11-04T10:08:46Z</time>
      </trkpt>
      <trkpt lat="45.28452" lon="5.59483">
        <ele>958</ele>
        <time>2012-11-04T10:08:47Z</time>
      </trkpt>
      <trkpt lat="45.2845" lon="5.59482">
        <ele>957</ele>
        <time>2012-11-04T10:08:48Z</time>
      </trkpt>
      <trkpt lat="45.28448" lon="5.59481">
        <ele>957</ele>
        <time>2012-11-04T10:08:49Z</time>
      </trkpt>
      <trkpt lat="45.28447" lon="5.59479">
        <ele>957</ele>
        <time>2012-11-04T10:08:50Z</time>
      </trkpt>
      <trkpt lat="45.28445" lon="5.59477">
        <ele>957</ele>
        <time>2012-11-04T10:08:51Z</time>
      </trkpt>
      <trkpt lat="45.28443" lon="5.59475">
        <ele>957</ele>
        <time>2012-11-04T10:08:52Z</time>
      </trkpt>
      <trkpt lat="45.2844" lon="5.59474">
        <ele>956</ele>
        <time>2012-11-04T10:08:53Z</time>
      </trkpt>
      <trkpt lat="45.28438" lon="5.59472">
        <ele>956</ele>
        <time>2012-11-04T10:08:54Z</time>
      </trkpt>
      <trkpt lat="45.28436" lon="5.5947">
        <ele>956</ele>
        <time>2012-11-04T10:08:55Z</time>
      </trkpt>
      <trkpt lat="45.28433" lon="5.59468">
        <ele>955</ele>
        <time>2012-11-04T10:08:56Z</time>
      </trkpt>
      <trkpt lat="45.28431" lon="5.59466">
        <ele>955</ele>
        <time>2012-11-04T10:08:57Z</time>
      </trkpt>
      <trkpt lat="45.28429" lon="5.59464">
        <ele>954</ele>
        <time>2012-11-04T10:08:58Z</time>
      </trkpt>
      <trkpt lat="45.28426" lon="5.59462">
        <ele>952</ele>
        <time>2012-11-04T10:08:59Z</time>
      </trkpt>
      <trkpt lat="45.28423" lon="5.5946">
        <ele>952</ele>
        <time>2012-11-04T10:09:00Z</time>
      </trkpt>
      <trkpt lat="45.2842" lon="5.59458">
        <ele>953</ele>
        <time>2012-11-04T10:09:01Z</time>
      </trkpt>
      <trkpt lat="45.28417" lon="5.59456">
        <ele>952</ele>
        <time>2012-11-04T10:09:02Z</time>
      </trkpt>
      <trkpt lat="45.28414" lon="5.59454">
        <ele>952</ele>
        <time>2012-11-04T10:09:03Z</time>
      </trkpt>
      <trkpt lat="45.28412" lon="5.59451">
        <ele>951</ele>
        <time>2012-11-04T10:09:04Z</time>
      </trkpt>
      <trkpt lat="45.2841" lon="5.59448">
        <ele>951</ele>
        <time>2012-11-04T10:09:05Z</time>
      </trkpt>
      <trkpt lat="45.28408" lon="5.59445">
        <ele>951</ele>
        <time>2012-11-04T10:09:06Z</time>
      </trkpt>
      <trkpt lat="45.28406" lon="5.59442">
        <ele>950</ele>
        <time>2012-11-04T10:09:07Z</time>
      </trkpt>
      <trkpt lat="45.28405" lon="5.59439">
        <ele>950</ele>
        <time>2012-11-04T10:09:08Z</time>
      </trkpt>
      <trkpt lat="45.28404" lon="5.59436">
        <ele>950</ele>
        <time>2012-11-04T10:09:09Z</time>
      </trkpt>
      <trkpt lat="45.28403" lon="5.59434">
        <ele>950</ele>
        <time>2012-11-04T10:09:10Z</time>
      </trkpt>
      <trkpt lat="45.28402" lon="5.59432">
        <ele>950</ele>
        <time>2012-11-04T10:09:11Z</time>
      </trkpt>
      <trkpt lat="45.28401" lon="5.5943">
        <ele>950</ele>
        <time>2012-11-04T10:09:12Z</time>
      </trkpt>
      <trkpt lat="45.28401" lon="5.59427">
        <ele>950</ele>
        <time>2012-11-04T10:09:13Z</time>
      </trkpt>
      <trkpt lat="45.284" lon="5.59425">
        <ele>950</ele>
        <time>2012-11-04T10:09:14Z</time>
      </trkpt>
      <trkpt lat="45.28399" lon="5.59421">
        <ele>950</ele>
        <time>2012-11-04T10:09:15Z</time>
      </trkpt>
      <trkpt lat="45.28398" lon="5.59418">
        <ele>950</ele>
        <time>2012-11-04T10:09:16Z</time>
      </trkpt>
      <trkpt lat="45.28398" lon="5.59414">
        <ele>950</ele>
        <time>2012-11-04T10:09:17Z</time>
      </trkpt>
      <trkpt lat="45.28397" lon="5.5941">
        <ele>948</ele>
        <time>2012-11-04T10:09:18Z</time>
      </trkpt>
      <trkpt lat="45.28396" lon="5.59406">
        <ele>948</ele>
        <time>2012-11-04T10:09:19Z</time>
      </trkpt>
      <trkpt lat="45.28395" lon="5.59402">
        <ele>947</ele>
        <time>2012-11-04T10:09:20Z</time>
      </trkpt>
      <trkpt lat="45.28394" lon="5.59397">
        <ele>946</ele>
        <time>2012-11-04T10:09:21Z</time>
      </trkpt>
      <trkpt lat="45.28393" lon="5.59393">
        <ele>945</ele>
        <time>2012-11-04T10:09:22Z</time>
      </trkpt>
      <trkpt lat="45.28392" lon="5.59389">
        <ele>944</ele>
        <time>2012-11-04T10:09:23Z</time>
      </trkpt>
      <trkpt lat="45.28391" lon="5.59385">
        <ele>943</ele>
        <time>2012-11-04T10:09:24Z</time>
      </trkpt>
      <trkpt lat="45.28389" lon="5.5938">
        <ele>945</ele>
        <time>2012-11-04T10:09:25Z</time>
      </trkpt>
      <trkpt lat="45.28387" lon="5.59376">
        <ele>945</ele>
        <time>2012-11-04T10:09:26Z</time>
      </trkpt>
      <trkpt lat="45.28386" lon="5.59373">
        <ele>945</ele>
        <time>2012-11-04T10:09:27Z</time>
      </trkpt>
      <trkpt lat="45.28385" lon="5.59369">
        <ele>944</ele>
        <time>2012-11-04T10:09:28Z</time>
      </trkpt>
      <trkpt lat="45.28384" lon="5.59364">
        <ele>940</ele>
        <time>2012-11-04T10:09:29Z</time>
      </trkpt>
      <trkpt lat="45.28382" lon="5.5936">
        <ele>939</ele>
        <time>2012-11-04T10:09:30Z</time>
      </trkpt>
      <trkpt lat="45.28381" lon="5.59356">
        <ele>939</ele>
        <time>2012-11-04T10:09:31Z</time>
      </trkpt>
      <trkpt lat="45.2838" lon="5.59353">
        <ele>940</ele>
        <time>2012-11-04T10:09:32Z</time>
      </trkpt>
      <trkpt lat="45.28378" lon="5.59351">
        <ele>940</ele>
        <time>2012-11-04T10:09:33Z</time>
      </trkpt>
      <trkpt lat="45.28376" lon="5.59349">
        <ele>940</ele>
        <time>2012-11-04T10:09:34Z</time>
      </trkpt>
      <trkpt lat="45.28374" lon="5.59347">
        <ele>939</ele>
        <time>2012-11-04T10:09:35Z</time>
      </trkpt>
      <trkpt lat="45.28372" lon="5.59344">
        <ele>939</ele>
        <time>2012-11-04T10:09:36Z</time>
      </trkpt>
      <trkpt lat="45.28369" lon="5.5934">
        <ele>938</ele>
        <time>2012-11-04T10:09:37Z</time>
      </trkpt>
      <trkpt lat="45.28366" lon="5.59336">
        <ele>937</ele>
        <time>2012-11-04T10:09:38Z</time>
      </trkpt>
      <trkpt lat="45.28364" lon="5.59333">
        <ele>937</ele>
        <time>2012-11-04T10:09:39Z</time>
      </trkpt>
      <trkpt lat="45.28362" lon="5.59329">
        <ele>936</ele>
        <time>2012-11-04T10:09:40Z</time>
      </trkpt>
      <trkpt lat="45.28362" lon="5.59325">
        <ele>935</ele>
        <time>2012-11-04T10:09:41Z</time>
      </trkpt>
      <trkpt lat="45.28362" lon="5.59321">
        <ele>935</ele>
        <time>2012-11-04T10:09:42Z</time>
      </trkpt>
      <trkpt lat="45.28362" lon="5.59317">
        <ele>935</ele>
        <time>2012-11-04T10:09:43Z</time>
      </trkpt>
      <trkpt lat="45.28362" lon="5.59313">
        <ele>936</ele>
        <time>2012-11-04T10:09:44Z</time>
      </trkpt>
      <trkpt lat="45.28361" lon="5.5931">
        <ele>936</ele>
        <time>2012-11-04T10:09:45Z</time>
      </trkpt>
      <trkpt lat="45.2836" lon="5.59308">
        <ele>937</ele>
        <time>2012-11-04T10:09:46Z</time>
      </trkpt>
      <trkpt lat="45.28358" lon="5.59306">
        <ele>937</ele>
        <time>2012-11-04T10:09:47Z</time>
      </trkpt>
      <trkpt lat="45.28355" lon="5.59306">
        <ele>938</ele>
        <time>2012-11-04T10:09:48Z</time>
      </trkpt>
      <trkpt lat="45.28351" lon="5.59305">
        <ele>939</ele>
        <time>2012-11-04T10:09:49Z</time>
      </trkpt>
      <trkpt lat="45.28348" lon="5.59305">
        <ele>938</ele>
        <time>2012-11-04T10:09:50Z</time>
      </trkpt>
      <trkpt lat="45.28344" lon="5.59304">
        <ele>937</ele>
        <time>2012-11-04T10:09:51Z</time>
      </trkpt>
      <trkpt lat="45.2834" lon="5.59304">
        <ele>937</ele>
        <time>2012-11-04T10:09:52Z</time>
      </trkpt>
      <trkpt lat="45.28337" lon="5.59304">
        <ele>938</ele>
        <time>2012-11-04T10:09:53Z</time>
      </trkpt>
      <trkpt lat="45.28334" lon="5.59303">
        <ele>938</ele>
        <time>2012-11-04T10:09:54Z</time>
      </trkpt>
      <trkpt lat="45.28331" lon="5.59303">
        <ele>938</ele>
        <time>2012-11-04T10:09:55Z</time>
      </trkpt>
      <trkpt lat="45.28328" lon="5.59303">
        <ele>938</ele>
        <time>2012-11-04T10:09:56Z</time>
      </trkpt>
      <trkpt lat="45.28326" lon="5.59302">
        <ele>939</ele>
        <time>2012-11-04T10:09:57Z</time>
      </trkpt>
      <trkpt lat="45.28325" lon="5.59302">
        <ele>938</ele>
        <time>2012-11-04T10:09:58Z</time>
      </trkpt>
      <trkpt lat="45.28323" lon="5.59303">
        <ele>938</ele>
        <time>2012-11-04T10:09:59Z</time>
      </trkpt>
      <trkpt lat="45.28321" lon="5.59303">
        <ele>937</ele>
        <time>2012-11-04T10:10:00Z</time>
      </trkpt>
      <trkpt lat="45.28319" lon="5.59304">
        <ele>939</ele>
        <time>2012-11-04T10:10:01Z</time>
      </trkpt>
      <trkpt lat="45.28318" lon="5.59304">
        <ele>940</ele>
        <time>2012-11-04T10:10:02Z</time>
      </trkpt>
      <trkpt lat="45.28317" lon="5.59305">
        <ele>940</ele>
        <time>2012-11-04T10:10:03Z</time>
      </trkpt>
      <trkpt lat="45.28316" lon="5.59305">
        <ele>941</ele>
        <time>2012-11-04T10:10:04Z</time>
      </trkpt>
      <trkpt lat="45.28316" lon="5.59305">
        <ele>941</ele>
        <time>2012-11-04T10:10:05Z</time>
      </trkpt>
      <trkpt lat="45.28315" lon="5.59305">
        <ele>941</ele>
        <time>2012-11-04T10:10:06Z</time>
      </trkpt>
      <trkpt lat="45.28314" lon="5.59306">
        <ele>942</ele>
        <time>2012-11-04T10:10:07Z</time>
      </trkpt>
      <trkpt lat="45.28312" lon="5.59306">
        <ele>942</ele>
        <time>2012-11-04T10:10:08Z</time>
      </trkpt>
      <trkpt lat="45.28311" lon="5.59307">
        <ele>941</ele>
        <time>2012-11-04T10:10:09Z</time>
      </trkpt>
      <trkpt lat="45.28309" lon="5.59308">
        <ele>940</ele>
        <time>2012-11-04T10:10:10Z</time>
      </trkpt>
      <trkpt lat="45.28306" lon="5.59308">
        <ele>938</ele>
        <time>2012-11-04T10:10:11Z</time>
      </trkpt>
      <trkpt lat="45.28304" lon="5.59309">
        <ele>937</ele>
        <time>2012-11-04T10:10:12Z</time>
      </trkpt>
      <trkpt lat="45.28304" lon="5.59309">
        <ele>938</ele>
        <time>2012-11-04T10:10:13Z</time>
      </trkpt>
      <trkpt lat="45.28298" lon="5.5931">
        <ele>938</ele>
        <time>2012-11-04T10:10:14Z</time>
      </trkpt>
      <trkpt lat="45.28298" lon="5.5931">
        <ele>939</ele>
        <time>2012-11-04T10:10:15Z</time>
      </trkpt>
      <trkpt lat="45.28298" lon="5.5931">
        <ele>939</ele>
        <time>2012-11-04T10:10:16Z</time>
      </trkpt>
      <trkpt lat="45.28298" lon="5.5931">
        <ele>939</ele>
        <time>2012-11-04T10:10:17Z</time>
      </trkpt>
      <trkpt lat="45.28298" lon="5.5931">
        <ele>940</ele>
        <time>2012-11-04T10:10:18Z</time>
      </trkpt>
      <trkpt lat="45.28298" lon="5.5931">
        <ele>940</ele>
        <time>2012-11-04T10:10:19Z</time>
      </trkpt>
      <trkpt lat="45.28298" lon="5.5931">
        <ele>941</ele>
        <time>2012-11-04T10:10:20Z</time>
      </trkpt>
      <trkpt lat="45.28298" lon="5.5931">
        <ele>941</ele>
        <time>2012-11-04T10:10:21Z</time>
      </trkpt>
      <trkpt lat="45.28298" lon="5.5931">
        <ele>941</ele>
        <time>2012-11-04T10:10:22Z</time>
      </trkpt>
      <trkpt lat="45.28298" lon="5.5931">
        <ele>942</ele>
        <time>2012-11-04T10:10:23Z</time>
      </trkpt>
      <trkpt lat="45.28298" lon="5.5931">
        <ele>942</ele>
        <time>2012-11-04T10:10:24Z</time>
      </trkpt>
      <trkpt lat="45.28298" lon="5.5931">
        <ele>942</ele>
        <time>2012-11-04T10:10:25Z</time>
      </trkpt>
      <trkpt lat="45.28298" lon="5.5931">
        <ele>942</ele>
        <time>2012-11-04T10:10:26Z</time>
      </trkpt>
      <trkpt lat="45.28298" lon="5.5931">
        <ele>942</ele>
        <time>2012-11-04T10:10:27Z</time>
      </trkpt>
      <trkpt lat="45.28298" lon="5.5931">
        <ele>942</ele>
        <time>2012-11-04T10:10:28Z</time>
      </trkpt>
      <trkpt lat="45.28298" lon="5.5931">
        <ele>942</ele>
        <time>2012-11-04T10:10:29Z</time>
      </trkpt>
      <trkpt lat="45.28298" lon="5.5931">
        <ele>942</ele>
        <time>2012-11-04T10:10:30Z</time>
      </trkpt>
      <trkpt lat="45.28298" lon="5.5931">
        <ele>942</ele>
        <time>2012-11-04T10:10:31Z</time>
      </trkpt>
      <trkpt lat="45.28298" lon="5.5931">
        <ele>942</ele>
        <time>2012-11-04T10:10:32Z</time>
      </trkpt>
      <trkpt lat="45.28298" lon="5.5931">
        <ele>942</ele>
        <time>2012-11-04T10:10:33Z</time>
      </trkpt>
      <trkpt lat="45.28298" lon="5.5931">
        <ele>942</ele>
        <time>2012-11-04T10:10:34Z</time>
      </trkpt>
      <trkpt lat="45.28296" lon="5.59308">
        <ele>941</ele>
        <time>2012-11-04T10:10:35Z</time>
      </trkpt>
      <trkpt lat="45.28298" lon="5.59307">
        <ele>940</ele>
        <time>2012-11-04T10:10:36Z</time>
      </trkpt>
      <trkpt lat="45.283" lon="5.59306">
        <ele>940</ele>
        <time>2012-11-04T10:10:37Z</time>
      </trkpt>
      <trkpt lat="45.28303" lon="5.59306">
        <ele>939</ele>
        <time>2012-11-04T10:10:38Z</time>
      </trkpt>
      <trkpt lat="45.28315" lon="5.59306">
        <ele>940</ele>
        <time>2012-11-04T10:10:41Z</time>
      </trkpt>
      <trkpt lat="45.28358" lon="5.59294">
        <ele>941</ele>
        <time>2012-11-04T10:10:51Z</time>
      </trkpt>
      <trkpt lat="45.28362" lon="5.59291">
        <ele>941</ele>
        <time>2012-11-04T10:10:52Z</time>
      </trkpt>
      <trkpt lat="45.28366" lon="5.59288">
        <ele>940</ele>
        <time>2012-11-04T10:10:53Z</time>
      </trkpt>
      <trkpt lat="45.2837" lon="5.59285">
        <ele>941</ele>
        <time>2012-11-04T10:10:54Z</time>
      </trkpt>
      <trkpt lat="45.28374" lon="5.59283">
        <ele>941</ele>
        <time>2012-11-04T10:10:55Z</time>
      </trkpt>
      <trkpt lat="45.28377" lon="5.59281">
        <ele>941</ele>
        <time>2012-11-04T10:10:56Z</time>
      </trkpt>
      <trkpt lat="45.2838" lon="5.59279">
        <ele>941</ele>
        <time>2012-11-04T10:10:57Z</time>
      </trkpt>
      <trkpt lat="45.28384" lon="5.59276">
        <ele>941</ele>
        <time>2012-11-04T10:10:58Z</time>
      </trkpt>
      <trkpt lat="45.28386" lon="5.59274">
        <ele>940</ele>
        <time>2012-11-04T10:10:59Z</time>
      </trkpt>
      <trkpt lat="45.28389" lon="5.59271">
        <ele>940</ele>
        <time>2012-11-04T10:11:00Z</time>
      </trkpt>
      <trkpt lat="45.2839" lon="5.59268">
        <ele>941</ele>
        <time>2012-11-04T10:11:01Z</time>
      </trkpt>
      <trkpt lat="45.28392" lon="5.59265">
        <ele>941</ele>
        <time>2012-11-04T10:11:02Z</time>
      </trkpt>
      <trkpt lat="45.28393" lon="5.59263">
        <ele>941</ele>
        <time>2012-11-04T10:11:03Z</time>
      </trkpt>
      <trkpt lat="45.28394" lon="5.5926">
        <ele>941</ele>
        <time>2012-11-04T10:11:04Z</time>
      </trkpt>
      <trkpt lat="45.28395" lon="5.59257">
        <ele>940</ele>
        <time>2012-11-04T10:11:05Z</time>
      </trkpt>
      <trkpt lat="45.28396" lon="5.59255">
        <ele>941</ele>
        <time>2012-11-04T10:11:06Z</time>
      </trkpt>
      <trkpt lat="45.28397" lon="5.59252">
        <ele>939</ele>
        <time>2012-11-04T10:11:07Z</time>
      </trkpt>
      <trkpt lat="45.28398" lon="5.5925">
        <ele>938</ele>
        <time>2012-11-04T10:11:08Z</time>
      </trkpt>
      <trkpt lat="45.28398" lon="5.59248">
        <ele>937</ele>
        <time>2012-11-04T10:11:09Z</time>
      </trkpt>
      <trkpt lat="45.28399" lon="5.59246">
        <ele>936</ele>
        <time>2012-11-04T10:11:10Z</time>
      </trkpt>
      <trkpt lat="45.28399" lon="5.59243">
        <ele>936</ele>
        <time>2012-11-04T10:11:11Z</time>
      </trkpt>
      <trkpt lat="45.284" lon="5.59241">
        <ele>936</ele>
        <time>2012-11-04T10:11:12Z</time>
      </trkpt>
      <trkpt lat="45.28401" lon="5.59238">
        <ele>936</ele>
        <time>2012-11-04T10:11:13Z</time>
      </trkpt>
      <trkpt lat="45.28402" lon="5.59235">
        <ele>936</ele>
        <time>2012-11-04T10:11:14Z</time>
      </trkpt>
      <trkpt lat="45.28404" lon="5.59231">
        <ele>934</ele>
        <time>2012-11-04T10:11:15Z</time>
      </trkpt>
      <trkpt lat="45.28405" lon="5.59228">
        <ele>933</ele>
        <time>2012-11-04T10:11:16Z</time>
      </trkpt>
      <trkpt lat="45.28405" lon="5.59224">
        <ele>933</ele>
        <time>2012-11-04T10:11:17Z</time>
      </trkpt>
      <trkpt lat="45.28405" lon="5.59221">
        <ele>932</ele>
        <time>2012-11-04T10:11:18Z</time>
      </trkpt>
      <trkpt lat="45.28406" lon="5.59218">
        <ele>932</ele>
        <time>2012-11-04T10:11:19Z</time>
      </trkpt>
      <trkpt lat="45.28406" lon="5.59214">
        <ele>933</ele>
        <time>2012-11-04T10:11:20Z</time>
      </trkpt>
      <trkpt lat="45.28407" lon="5.5921">
        <ele>933</ele>
        <time>2012-11-04T10:11:21Z</time>
      </trkpt>
      <trkpt lat="45.28407" lon="5.59206">
        <ele>931</ele>
        <time>2012-11-04T10:11:22Z</time>
      </trkpt>
      <trkpt lat="45.28407" lon="5.59202">
        <ele>930</ele>
        <time>2012-11-04T10:11:23Z</time>
      </trkpt>
      <trkpt lat="45.28407" lon="5.59199">
        <ele>929</ele>
        <time>2012-11-04T10:11:24Z</time>
      </trkpt>
      <trkpt lat="45.28407" lon="5.59196">
        <ele>929</ele>
        <time>2012-11-04T10:11:25Z</time>
      </trkpt>
      <trkpt lat="45.28407" lon="5.59193">
        <ele>929</ele>
        <time>2012-11-04T10:11:26Z</time>
      </trkpt>
      <trkpt lat="45.28407" lon="5.59192">
        <ele>929</ele>
        <time>2012-11-04T10:11:27Z</time>
      </trkpt>
      <trkpt lat="45.28406" lon="5.5919">
        <ele>929</ele>
        <time>2012-11-04T10:11:28Z</time>
      </trkpt>
      <trkpt lat="45.28406" lon="5.59189">
        <ele>929</ele>
        <time>2012-11-04T10:11:29Z</time>
      </trkpt>
      <trkpt lat="45.28406" lon="5.59187">
        <ele>928</ele>
        <time>2012-11-04T10:11:30Z</time>
      </trkpt>
      <trkpt lat="45.28406" lon="5.59184">
        <ele>928</ele>
        <time>2012-11-04T10:11:31Z</time>
      </trkpt>
      <trkpt lat="45.28406" lon="5.5918">
        <ele>925</ele>
        <time>2012-11-04T10:11:32Z</time>
      </trkpt>
      <trkpt lat="45.28405" lon="5.59175">
        <ele>922</ele>
        <time>2012-11-04T10:11:33Z</time>
      </trkpt>
      <trkpt lat="45.28405" lon="5.59169">
        <ele>919</ele>
        <time>2012-11-04T10:11:34Z</time>
      </trkpt>
      <trkpt lat="45.28404" lon="5.59165">
        <ele>919</ele>
        <time>2012-11-04T10:11:35Z</time>
      </trkpt>
      <trkpt lat="45.28402" lon="5.59161">
        <ele>923</ele>
        <time>2012-11-04T10:11:36Z</time>
      </trkpt>
      <trkpt lat="45.284" lon="5.59159">
        <ele>924</ele>
        <time>2012-11-04T10:11:37Z</time>
      </trkpt>
      <trkpt lat="45.28398" lon="5.59157">
        <ele>923</ele>
        <time>2012-11-04T10:11:38Z</time>
      </trkpt>
      <trkpt lat="45.28396" lon="5.59155">
        <ele>918</ele>
        <time>2012-11-04T10:11:39Z</time>
      </trkpt>
      <trkpt lat="45.28395" lon="5.59152">
        <ele>917</ele>
        <time>2012-11-04T10:11:40Z</time>
      </trkpt>
      <trkpt lat="45.28393" lon="5.59149">
        <ele>917</ele>
        <time>2012-11-04T10:11:41Z</time>
      </trkpt>
      <trkpt lat="45.28392" lon="5.59145">
        <ele>916</ele>
        <time>2012-11-04T10:11:42Z</time>
      </trkpt>
      <trkpt lat="45.2839" lon="5.59142">
        <ele>916</ele>
        <time>2012-11-04T10:11:43Z</time>
      </trkpt>
      <trkpt lat="45.28388" lon="5.59139">
        <ele>917</ele>
        <time>2012-11-04T10:11:44Z</time>
      </trkpt>
      <trkpt lat="45.28387" lon="5.59138">
        <ele>917</ele>
        <time>2012-11-04T10:11:45Z</time>
      </trkpt>
      <trkpt lat="45.28387" lon="5.59135">
        <ele>916</ele>
        <time>2012-11-04T10:11:46Z</time>
      </trkpt>
      <trkpt lat="45.28386" lon="5.59133">
        <ele>916</ele>
        <time>2012-11-04T10:11:47Z</time>
      </trkpt>
      <trkpt lat="45.28384" lon="5.59131">
        <ele>915</ele>
        <time>2012-11-04T10:11:48Z</time>
      </trkpt>
      <trkpt lat="45.28382" lon="5.59128">
        <ele>914</ele>
        <time>2012-11-04T10:11:49Z</time>
      </trkpt>
      <trkpt lat="45.2838" lon="5.59126">
        <ele>915</ele>
        <time>2012-11-04T10:11:50Z</time>
      </trkpt>
      <trkpt lat="45.28378" lon="5.59124">
        <ele>915</ele>
        <time>2012-11-04T10:11:51Z</time>
      </trkpt>
      <trkpt lat="45.28377" lon="5.59122">
        <ele>914</ele>
        <time>2012-11-04T10:11:52Z</time>
      </trkpt>
      <trkpt lat="45.28375" lon="5.59121">
        <ele>914</ele>
        <time>2012-11-04T10:11:53Z</time>
      </trkpt>
      <trkpt lat="45.28374" lon="5.59119">
        <ele>914</ele>
        <time>2012-11-04T10:11:54Z</time>
      </trkpt>
      <trkpt lat="45.28373" lon="5.59118">
        <ele>914</ele>
        <time>2012-11-04T10:11:55Z</time>
      </trkpt>
      <trkpt lat="45.28372" lon="5.59116">
        <ele>915</ele>
        <time>2012-11-04T10:11:56Z</time>
      </trkpt>
      <trkpt lat="45.28371" lon="5.59115">
        <ele>915</ele>
        <time>2012-11-04T10:11:57Z</time>
      </trkpt>
      <trkpt lat="45.2837" lon="5.59113">
        <ele>915</ele>
        <time>2012-11-04T10:11:58Z</time>
      </trkpt>
      <trkpt lat="45.28368" lon="5.59112">
        <ele>915</ele>
        <time>2012-11-04T10:11:59Z</time>
      </trkpt>
      <trkpt lat="45.28365" lon="5.59111">
        <ele>915</ele>
        <time>2012-11-04T10:12:00Z</time>
      </trkpt>
      <trkpt lat="45.28363" lon="5.5911">
        <ele>915</ele>
        <time>2012-11-04T10:12:01Z</time>
      </trkpt>
      <trkpt lat="45.28361" lon="5.59109">
        <ele>916</ele>
        <time>2012-11-04T10:12:02Z</time>
      </trkpt>
      <trkpt lat="45.28359" lon="5.59108">
        <ele>915</ele>
        <time>2012-11-04T10:12:03Z</time>
      </trkpt>
      <trkpt lat="45.28357" lon="5.59107">
        <ele>916</ele>
        <time>2012-11-04T10:12:04Z</time>
      </trkpt>
      <trkpt lat="45.28356" lon="5.59107">
        <ele>916</ele>
        <time>2012-11-04T10:12:05Z</time>
      </trkpt>
      <trkpt lat="45.28355" lon="5.59107">
        <ele>916</ele>
        <time>2012-11-04T10:12:06Z</time>
      </trkpt>
      <trkpt lat="45.28354" lon="5.59107">
        <ele>916</ele>
        <time>2012-11-04T10:12:07Z</time>
      </trkpt>
      <trkpt lat="45.28354" lon="5.59107">
        <ele>917</ele>
        <time>2012-11-04T10:12:08Z</time>
      </trkpt>
      <trkpt lat="45.28353" lon="5.59107">
        <ele>917</ele>
        <time>2012-11-04T10:12:09Z</time>
      </trkpt>
      <trkpt lat="45.28353" lon="5.59106">
        <ele>919</ele>
        <time>2012-11-04T10:12:10Z</time>
      </trkpt>
      <trkpt lat="45.28353" lon="5.59105">
        <ele>920</ele>
        <time>2012-11-04T10:12:11Z</time>
      </trkpt>
      <trkpt lat="45.28353" lon="5.59104">
        <ele>920</ele>
        <time>2012-11-04T10:12:12Z</time>
      </trkpt>
      <trkpt lat="45.28353" lon="5.59103">
        <ele>920</ele>
        <time>2012-11-04T10:12:13Z</time>
      </trkpt>
      <trkpt lat="45.28353" lon="5.59102">
        <ele>920</ele>
        <time>2012-11-04T10:12:14Z</time>
      </trkpt>
      <trkpt lat="45.28353" lon="5.59101">
        <ele>921</ele>
        <time>2012-11-04T10:12:15Z</time>
      </trkpt>
      <trkpt lat="45.28352" lon="5.591">
        <ele>920</ele>
        <time>2012-11-04T10:12:16Z</time>
      </trkpt>
      <trkpt lat="45.28352" lon="5.59099">
        <ele>921</ele>
        <time>2012-11-04T10:12:17Z</time>
      </trkpt>
      <trkpt lat="45.28351" lon="5.59098">
        <ele>921</ele>
        <time>2012-11-04T10:12:18Z</time>
      </trkpt>
      <trkpt lat="45.28351" lon="5.59097">
        <ele>920</ele>
        <time>2012-11-04T10:12:19Z</time>
      </trkpt>
      <trkpt lat="45.28351" lon="5.59096">
        <ele>920</ele>
        <time>2012-11-04T10:12:20Z</time>
      </trkpt>
      <trkpt lat="45.28351" lon="5.59095">
        <ele>919</ele>
        <time>2012-11-04T10:12:21Z</time>
      </trkpt>
      <trkpt lat="45.2835" lon="5.59095">
        <ele>919</ele>
        <time>2012-11-04T10:12:22Z</time>
      </trkpt>
      <trkpt lat="45.28349" lon="5.59095">
        <ele>920</ele>
        <time>2012-11-04T10:12:23Z</time>
      </trkpt>
      <trkpt lat="45.28347" lon="5.59095">
        <ele>920</ele>
        <time>2012-11-04T10:12:24Z</time>
      </trkpt>
      <trkpt lat="45.28346" lon="5.59094">
        <ele>921</ele>
        <time>2012-11-04T10:12:25Z</time>
      </trkpt>
      <trkpt lat="45.28344" lon="5.59094">
        <ele>922</ele>
        <time>2012-11-04T10:12:26Z</time>
      </trkpt>
      <trkpt lat="45.28343" lon="5.59093">
        <ele>922</ele>
        <time>2012-11-04T10:12:27Z</time>
      </trkpt>
      <trkpt lat="45.28342" lon="5.59092">
        <ele>922</ele>
        <time>2012-11-04T10:12:28Z</time>
      </trkpt>
      <trkpt lat="45.28341" lon="5.59092">
        <ele>922</ele>
        <time>2012-11-04T10:12:29Z</time>
      </trkpt>
      <trkpt lat="45.28341" lon="5.59091">
        <ele>922</ele>
        <time>2012-11-04T10:12:30Z</time>
      </trkpt>
      <trkpt lat="45.2834" lon="5.5909">
        <ele>923</ele>
        <time>2012-11-04T10:12:31Z</time>
      </trkpt>
      <trkpt lat="45.28339" lon="5.59089">
        <ele>923</ele>
        <time>2012-11-04T10:12:32Z</time>
      </trkpt>
      <trkpt lat="45.28338" lon="5.59088">
        <ele>923</ele>
        <time>2012-11-04T10:12:33Z</time>
      </trkpt>
      <trkpt lat="45.28337" lon="5.59087">
        <ele>923</ele>
        <time>2012-11-04T10:12:34Z</time>
      </trkpt>
      <trkpt lat="45.28336" lon="5.59085">
        <ele>925</ele>
        <time>2012-11-04T10:12:35Z</time>
      </trkpt>
      <trkpt lat="45.28335" lon="5.59084">
        <ele>925</ele>
        <time>2012-11-04T10:12:36Z</time>
      </trkpt>
      <trkpt lat="45.28333" lon="5.59083">
        <ele>926</ele>
        <time>2012-11-04T10:12:37Z</time>
      </trkpt>
      <trkpt lat="45.28332" lon="5.59082">
        <ele>925</ele>
        <time>2012-11-04T10:12:38Z</time>
      </trkpt>
      <trkpt lat="45.28331" lon="5.5908">
        <ele>924</ele>
        <time>2012-11-04T10:12:39Z</time>
      </trkpt>
      <trkpt lat="45.28329" lon="5.59079">
        <ele>925</ele>
        <time>2012-11-04T10:12:40Z</time>
      </trkpt>
      <trkpt lat="45.28328" lon="5.59078">
        <ele>924</ele>
        <time>2012-11-04T10:12:41Z</time>
      </trkpt>
      <trkpt lat="45.28327" lon="5.59076">
        <ele>923</ele>
        <time>2012-11-04T10:12:42Z</time>
      </trkpt>
      <trkpt lat="45.28326" lon="5.59075">
        <ele>924</ele>
        <time>2012-11-04T10:12:43Z</time>
      </trkpt>
      <trkpt lat="45.28325" lon="5.59074">
        <ele>924</ele>
        <time>2012-11-04T10:12:44Z</time>
      </trkpt>
      <trkpt lat="45.28323" lon="5.59072">
        <ele>924</ele>
        <time>2012-11-04T10:12:45Z</time>
      </trkpt>
      <trkpt lat="45.28322" lon="5.59071">
        <ele>924</ele>
        <time>2012-11-04T10:12:46Z</time>
      </trkpt>
      <trkpt lat="45.28322" lon="5.5907">
        <ele>924</ele>
        <time>2012-11-04T10:12:47Z</time>
      </trkpt>
      <trkpt lat="45.28321" lon="5.59068">
        <ele>924</ele>
        <time>2012-11-04T10:12:48Z</time>
      </trkpt>
      <trkpt lat="45.28319" lon="5.59066">
        <ele>924</ele>
        <time>2012-11-04T10:12:49Z</time>
      </trkpt>
      <trkpt lat="45.28318" lon="5.59065">
        <ele>924</ele>
        <time>2012-11-04T10:12:50Z</time>
      </trkpt>
      <trkpt lat="45.28316" lon="5.59064">
        <ele>925</ele>
        <time>2012-11-04T10:12:51Z</time>
      </trkpt>
      <trkpt lat="45.28316" lon="5.59064">
        <ele>926</ele>
        <time>2012-11-04T10:12:52Z</time>
      </trkpt>
      <trkpt lat="45.28316" lon="5.59063">
        <ele>926</ele>
        <time>2012-11-04T10:12:53Z</time>
      </trkpt>
      <trkpt lat="45.28316" lon="5.59063">
        <ele>926</ele>
        <time>2012-11-04T10:12:54Z</time>
      </trkpt>
      <trkpt lat="45.28317" lon="5.59062">
        <ele>927</ele>
        <time>2012-11-04T10:12:55Z</time>
      </trkpt>
      <trkpt lat="45.28317" lon="5.59062">
        <ele>925</ele>
        <time>2012-11-04T10:12:56Z</time>
      </trkpt>
      <trkpt lat="45.28317" lon="5.59062">
        <ele>925</ele>
        <time>2012-11-04T10:12:57Z</time>
      </trkpt>
      <trkpt lat="45.28317" lon="5.59062">
        <ele>925</ele>
        <time>2012-11-04T10:12:58Z</time>
      </trkpt>
      <trkpt lat="45.28317" lon="5.59062">
        <ele>925</ele>
        <time>2012-11-04T10:12:59Z</time>
      </trkpt>
      <trkpt lat="45.28312" lon="5.59063">
        <ele>925</ele>
        <time>2012-11-04T10:13:00Z</time>
      </trkpt>
      <trkpt lat="45.28312" lon="5.59063">
        <ele>924</ele>
        <time>2012-11-04T10:13:01Z</time>
      </trkpt>
      <trkpt lat="45.28312" lon="5.59063">
        <ele>925</ele>
        <time>2012-11-04T10:13:02Z</time>
      </trkpt>
      <trkpt lat="45.28312" lon="5.59063">
        <ele>925</ele>
        <time>2012-11-04T10:13:03Z</time>
      </trkpt>
      <trkpt lat="45.28312" lon="5.59063">
        <ele>925</ele>
        <time>2012-11-04T10:13:04Z</time>
      </trkpt>
      <trkpt lat="45.28312" lon="5.59063">
        <ele>924</ele>
        <time>2012-11-04T10:13:05Z</time>
      </trkpt>
      <trkpt lat="45.28312" lon="5.59063">
        <ele>924</ele>
        <time>2012-11-04T10:13:06Z</time>
      </trkpt>
      <trkpt lat="45.28312" lon="5.59063">
        <ele>924</ele>
        <time>2012-11-04T10:13:07Z</time>
      </trkpt>
      <trkpt lat="45.28312" lon="5.59063">
        <ele>924</ele>
        <time>2012-11-04T10:13:08Z</time>
      </trkpt>
      <trkpt lat="45.28312" lon="5.59063">
        <ele>923</ele>
        <time>2012-11-04T10:13:09Z</time>
      </trkpt>
      <trkpt lat="45.28312" lon="5.59063">
        <ele>923</ele>
        <time>2012-11-04T10:13:10Z</time>
      </trkpt>
      <trkpt lat="45.28312" lon="5.59063">
        <ele>922</ele>
        <time>2012-11-04T10:13:11Z</time>
      </trkpt>
      <trkpt lat="45.28309" lon="5.59063">
        <ele>922</ele>
        <time>2012-11-04T10:13:12Z</time>
      </trkpt>
      <trkpt lat="45.28307" lon="5.59063">
        <ele>922</ele>
        <time>2012-11-04T10:13:13Z</time>
      </trkpt>
      <trkpt lat="45.28305" lon="5.59062">
        <ele>923</ele>
        <time>2012-11-04T10:13:14Z</time>
      </trkpt>
      <trkpt lat="45.28303" lon="5.59061">
        <ele>923</ele>
        <time>2012-11-04T10:13:15Z</time>
      </trkpt>
      <trkpt lat="45.283" lon="5.5906">
        <ele>924</ele>
        <time>2012-11-04T10:13:16Z</time>
      </trkpt>
      <trkpt lat="45.28297" lon="5.59058">
        <ele>924</ele>
        <time>2012-11-04T10:13:17Z</time>
      </trkpt>
      <trkpt lat="45.28293" lon="5.59057">
        <ele>924</ele>
        <time>2012-11-04T10:13:18Z</time>
      </trkpt>
      <trkpt lat="45.2829" lon="5.59055">
        <ele>924</ele>
        <time>2012-11-04T10:13:19Z</time>
      </trkpt>
      <trkpt lat="45.28286" lon="5.59054">
        <ele>925</ele>
        <time>2012-11-04T10:13:20Z</time>
      </trkpt>
      <trkpt lat="45.28282" lon="5.59052">
        <ele>925</ele>
        <time>2012-11-04T10:13:21Z</time>
      </trkpt>
      <trkpt lat="45.28278" lon="5.59051">
        <ele>925</ele>
        <time>2012-11-04T10:13:22Z</time>
      </trkpt>
      <trkpt lat="45.28273" lon="5.59049">
        <ele>925</ele>
        <time>2012-11-04T10:13:23Z</time>
      </trkpt>
      <trkpt lat="45.28269" lon="5.59048">
        <ele>925</ele>
        <time>2012-11-04T10:13:24Z</time>
      </trkpt>
      <trkpt lat="45.28266" lon="5.59046">
        <ele>925</ele>
        <time>2012-11-04T10:13:25Z</time>
      </trkpt>
      <trkpt lat="45.28262" lon="5.59045">
        <ele>925</ele>
        <time>2012-11-04T10:13:26Z</time>
      </trkpt>
      <trkpt lat="45.2826" lon="5.59044">
        <ele>926</ele>
        <time>2012-11-04T10:13:27Z</time>
      </trkpt>
      <trkpt lat="45.28257" lon="5.59043">
        <ele>926</ele>
        <time>2012-11-04T10:13:28Z</time>
      </trkpt>
      <trkpt lat="45.28255" lon="5.59042">
        <ele>926</ele>
        <time>2012-11-04T10:13:29Z</time>
      </trkpt>
      <trkpt lat="45.28253" lon="5.59042">
        <ele>927</ele>
        <time>2012-11-04T10:13:30Z</time>
      </trkpt>
      <trkpt lat="45.28251" lon="5.59041">
        <ele>928</ele>
        <time>2012-11-04T10:13:31Z</time>
      </trkpt>
      <trkpt lat="45.28249" lon="5.5904">
        <ele>929</ele>
        <time>2012-11-04T10:13:32Z</time>
      </trkpt>
      <trkpt lat="45.28247" lon="5.5904">
        <ele>928</ele>
        <time>2012-11-04T10:13:33Z</time>
      </trkpt>
      <trkpt lat="45.28244" lon="5.59039">
        <ele>929</ele>
        <time>2012-11-04T10:13:34Z</time>
      </trkpt>
      <trkpt lat="45.28242" lon="5.59039">
        <ele>930</ele>
        <time>2012-11-04T10:13:35Z</time>
      </trkpt>
      <trkpt lat="45.28238" lon="5.59038">
        <ele>931</ele>
        <time>2012-11-04T10:13:36Z</time>
      </trkpt>
      <trkpt lat="45.28238" lon="5.59038">
        <ele>932</ele>
        <time>2012-11-04T10:13:37Z</time>
      </trkpt>
      <trkpt lat="45.28238" lon="5.59038">
        <ele>932</ele>
        <time>2012-11-04T10:13:38Z</time>
      </trkpt>
      <trkpt lat="45.28232" lon="5.59037">
        <ele>932</ele>
        <time>2012-11-04T10:13:39Z</time>
      </trkpt>
      <trkpt lat="45.28232" lon="5.59037">
        <ele>932</ele>
        <time>2012-11-04T10:13:40Z</time>
      </trkpt>
      <trkpt lat="45.28232" lon="5.59037">
        <ele>931</ele>
        <time>2012-11-04T10:13:41Z</time>
      </trkpt>
      <trkpt lat="45.28232" lon="5.59037">
        <ele>932</ele>
        <time>2012-11-04T10:13:42Z</time>
      </trkpt>
      <trkpt lat="45.28232" lon="5.59037">
        <ele>932</ele>
        <time>2012-11-04T10:13:43Z</time>
      </trkpt>
      <trkpt lat="45.28232" lon="5.59037">
        <ele>933</ele>
        <time>2012-11-04T10:13:44Z</time>
      </trkpt>
      <trkpt lat="45.28232" lon="5.59037">
        <ele>933</ele>
        <time>2012-11-04T10:13:45Z</time>
      </trkpt>
      <trkpt lat="45.28232" lon="5.59037">
        <ele>934</ele>
        <time>2012-11-04T10:13:46Z</time>
      </trkpt>
      <trkpt lat="45.28232" lon="5.59037">
        <ele>934</ele>
        <time>2012-11-04T10:13:47Z</time>
      </trkpt>
      <trkpt lat="45.28229" lon="5.59036">
        <ele>934</ele>
        <time>2012-11-04T10:13:48Z</time>
      </trkpt>
      <trkpt lat="45.28228" lon="5.59035">
        <ele>933</ele>
        <time>2012-11-04T10:13:49Z</time>
      </trkpt>
      <trkpt lat="45.28223" lon="5.59033">
        <ele>934</ele>
        <time>2012-11-04T10:13:50Z</time>
      </trkpt>
      <trkpt lat="45.28223" lon="5.59033">
        <ele>934</ele>
        <time>2012-11-04T10:13:51Z</time>
      </trkpt>
      <trkpt lat="45.28218" lon="5.5903">
        <ele>934</ele>
        <time>2012-11-04T10:13:52Z</time>
      </trkpt>
      <trkpt lat="45.28218" lon="5.5903">
        <ele>934</ele>
        <time>2012-11-04T10:13:53Z</time>
      </trkpt>
      <trkpt lat="45.28218" lon="5.5903">
        <ele>935</ele>
        <time>2012-11-04T10:13:54Z</time>
      </trkpt>
      <trkpt lat="45.28213" lon="5.59029">
        <ele>934</ele>
        <time>2012-11-04T10:13:55Z</time>
      </trkpt>
      <trkpt lat="45.28213" lon="5.59029">
        <ele>934</ele>
        <time>2012-11-04T10:13:56Z</time>
      </trkpt>
      <trkpt lat="45.28213" lon="5.59029">
        <ele>933</ele>
        <time>2012-11-04T10:13:57Z</time>
      </trkpt>
      <trkpt lat="45.28213" lon="5.59029">
        <ele>932</ele>
        <time>2012-11-04T10:13:58Z</time>
      </trkpt>
      <trkpt lat="45.28213" lon="5.59029">
        <ele>930</ele>
        <time>2012-11-04T10:13:59Z</time>
      </trkpt>
      <trkpt lat="45.28213" lon="5.59029">
        <ele>930</ele>
        <time>2012-11-04T10:14:00Z</time>
      </trkpt>
      <trkpt lat="45.28213" lon="5.59029">
        <ele>931</ele>
        <time>2012-11-04T10:14:01Z</time>
      </trkpt>
      <trkpt lat="45.28208" lon="5.59027">
        <ele>931</ele>
        <time>2012-11-04T10:14:02Z</time>
      </trkpt>
      <trkpt lat="45.28208" lon="5.59027">
        <ele>931</ele>
        <time>2012-11-04T10:14:03Z</time>
      </trkpt>
      <trkpt lat="45.28208" lon="5.59027">
        <ele>931</ele>
        <time>2012-11-04T10:14:04Z</time>
      </trkpt>
      <trkpt lat="45.28208" lon="5.59027">
        <ele>931</ele>
        <time>2012-11-04T10:14:05Z</time>
      </trkpt>
      <trkpt lat="45.28208" lon="5.59027">
        <ele>931</ele>
        <time>2012-11-04T10:14:06Z</time>
      </trkpt>
      <trkpt lat="45.28208" lon="5.59027">
        <ele>931</ele>
        <time>2012-11-04T10:14:07Z</time>
      </trkpt>
      <trkpt lat="45.28208" lon="5.59027">
        <ele>931</ele>
        <time>2012-11-04T10:14:08Z</time>
      </trkpt>
      <trkpt lat="45.28208" lon="5.59027">
        <ele>931</ele>
        <time>2012-11-04T10:14:09Z</time>
      </trkpt>
      <trkpt lat="45.28208" lon="5.59027">
        <ele>931</ele>
        <time>2012-11-04T10:14:10Z</time>
      </trkpt>
      <trkpt lat="45.28208" lon="5.59027">
        <ele>931</ele>
        <time>2012-11-04T10:14:11Z</time>
      </trkpt>
      <trkpt lat="45.28208" lon="5.59027">
        <ele>931</ele>
        <time>2012-11-04T10:14:12Z</time>
      </trkpt>
      <trkpt lat="45.28208" lon="5.59027">
        <ele>931</ele>
        <time>2012-11-04T10:14:13Z</time>
      </trkpt>
      <trkpt lat="45.28208" lon="5.59027">
        <ele>931</ele>
        <time>2012-11-04T10:14:14Z</time>
      </trkpt>
      <trkpt lat="45.28208" lon="5.59027">
        <ele>931</ele>
        <time>2012-11-04T10:14:15Z</time>
      </trkpt>
      <trkpt lat="45.28208" lon="5.59027">
        <ele>931</ele>
        <time>2012-11-04T10:14:16Z</time>
      </trkpt>
      <trkpt lat="45.28208" lon="5.59027">
        <ele>931</ele>
        <time>2012-11-04T10:14:17Z</time>
      </trkpt>
      <trkpt lat="45.28208" lon="5.59027">
        <ele>931</ele>
        <time>2012-11-04T10:14:18Z</time>
      </trkpt>
      <trkpt lat="45.28208" lon="5.59027">
        <ele>931</ele>
        <time>2012-11-04T10:14:19Z</time>
      </trkpt>
      <trkpt lat="45.28208" lon="5.59027">
        <ele>931</ele>
        <time>2012-11-04T10:14:20Z</time>
      </trkpt>
      <trkpt lat="45.28208" lon="5.59027">
        <ele>931</ele>
        <time>2012-11-04T10:14:21Z</time>
      </trkpt>
      <trkpt lat="45.28208" lon="5.59027">
        <ele>931</ele>
        <time>2012-11-04T10:14:22Z</time>
      </trkpt>
      <trkpt lat="45.28208" lon="5.59027">
        <ele>931</ele>
        <time>2012-11-04T10:14:23Z</time>
      </trkpt>
      <trkpt lat="45.28209" lon="5.59023">
        <ele>930</ele>
        <time>2012-11-04T10:14:24Z</time>
      </trkpt>
      <trkpt lat="45.2821" lon="5.59021">
        <ele>929</ele>
        <time>2012-11-04T10:14:25Z</time>
      </trkpt>
      <trkpt lat="45.28211" lon="5.59018">
        <ele>927</ele>
        <time>2012-11-04T10:14:26Z</time>
      </trkpt>
      <trkpt lat="45.28212" lon="5.59015">
        <ele>925</ele>
        <time>2012-11-04T10:14:27Z</time>
      </trkpt>
      <trkpt lat="45.28213" lon="5.59011">
        <ele>923</ele>
        <time>2012-11-04T10:14:28Z</time>
      </trkpt>
      <trkpt lat="45.28214" lon="5.59007">
        <ele>922</ele>
        <time>2012-11-04T10:14:29Z</time>
      </trkpt>
      <trkpt lat="45.28216" lon="5.59003">
        <ele>923</ele>
        <time>2012-11-04T10:14:30Z</time>
      </trkpt>
      <trkpt lat="45.28217" lon="5.58998">
        <ele>923</ele>
        <time>2012-11-04T10:14:31Z</time>
      </trkpt>
      <trkpt lat="45.28218" lon="5.58994">
        <ele>924</ele>
        <time>2012-11-04T10:14:32Z</time>
      </trkpt>
      <trkpt lat="45.2822" lon="5.5899">
        <ele>924</ele>
        <time>2012-11-04T10:14:33Z</time>
      </trkpt>
      <trkpt lat="45.28222" lon="5.58987">
        <ele>924</ele>
        <time>2012-11-04T10:14:34Z</time>
      </trkpt>
      <trkpt lat="45.28225" lon="5.58983">
        <ele>924</ele>
        <time>2012-11-04T10:14:35Z</time>
      </trkpt>
      <trkpt lat="45.28227" lon="5.5898">
        <ele>924</ele>
        <time>2012-11-04T10:14:36Z</time>
      </trkpt>
      <trkpt lat="45.2823" lon="5.58978">
        <ele>924</ele>
        <time>2012-11-04T10:14:37Z</time>
      </trkpt>
      <trkpt lat="45.28233" lon="5.58976">
        <ele>923</ele>
        <time>2012-11-04T10:14:38Z</time>
      </trkpt>
      <trkpt lat="45.28236" lon="5.58974">
        <ele>924</ele>
        <time>2012-11-04T10:14:39Z</time>
      </trkpt>
      <trkpt lat="45.28239" lon="5.58973">
        <ele>924</ele>
        <time>2012-11-04T10:14:40Z</time>
      </trkpt>
      <trkpt lat="45.28243" lon="5.58971">
        <ele>923</ele>
        <time>2012-11-04T10:14:41Z</time>
      </trkpt>
      <trkpt lat="45.28246" lon="5.58969">
        <ele>923</ele>
        <time>2012-11-04T10:14:42Z</time>
      </trkpt>
      <trkpt lat="45.28249" lon="5.58968">
        <ele>924</ele>
        <time>2012-11-04T10:14:43Z</time>
      </trkpt>
      <trkpt lat="45.28252" lon="5.58966">
        <ele>923</ele>
        <time>2012-11-04T10:14:44Z</time>
      </trkpt>
      <trkpt lat="45.28254" lon="5.58965">
        <ele>923</ele>
        <time>2012-11-04T10:14:45Z</time>
      </trkpt>
      <trkpt lat="45.28256" lon="5.58964">
        <ele>923</ele>
        <time>2012-11-04T10:14:46Z</time>
      </trkpt>
      <trkpt lat="45.28258" lon="5.58963">
        <ele>923</ele>
        <time>2012-11-04T10:14:47Z</time>
      </trkpt>
      <trkpt lat="45.2826" lon="5.58962">
        <ele>923</ele>
        <time>2012-11-04T10:14:48Z</time>
      </trkpt>
      <trkpt lat="45.28261" lon="5.58961">
        <ele>923</ele>
        <time>2012-11-04T10:14:49Z</time>
      </trkpt>
      <trkpt lat="45.28263" lon="5.5896">
        <ele>923</ele>
        <time>2012-11-04T10:14:50Z</time>
      </trkpt>
      <trkpt lat="45.28264" lon="5.58959">
        <ele>923</ele>
        <time>2012-11-04T10:14:51Z</time>
      </trkpt>
      <trkpt lat="45.28266" lon="5.58958">
        <ele>923</ele>
        <time>2012-11-04T10:14:52Z</time>
      </trkpt>
      <trkpt lat="45.28267" lon="5.58957">
        <ele>922</ele>
        <time>2012-11-04T10:14:53Z</time>
      </trkpt>
      <trkpt lat="45.28269" lon="5.58955">
        <ele>923</ele>
        <time>2012-11-04T10:14:54Z</time>
      </trkpt>
      <trkpt lat="45.28272" lon="5.5895">
        <ele>922</ele>
        <time>2012-11-04T10:14:55Z</time>
      </trkpt>
      <trkpt lat="45.28274" lon="5.58946">
        <ele>922</ele>
        <time>2012-11-04T10:14:56Z</time>
      </trkpt>
      <trkpt lat="45.28275" lon="5.58941">
        <ele>920</ele>
        <time>2012-11-04T10:14:57Z</time>
      </trkpt>
      <trkpt lat="45.28276" lon="5.58937">
        <ele>920</ele>
        <time>2012-11-04T10:14:58Z</time>
      </trkpt>
      <trkpt lat="45.28277" lon="5.58934">
        <ele>919</ele>
        <time>2012-11-04T10:14:59Z</time>
      </trkpt>
      <trkpt lat="45.28278" lon="5.58931">
        <ele>921</ele>
        <time>2012-11-04T10:15:00Z</time>
      </trkpt>
      <trkpt lat="45.28278" lon="5.58928">
        <ele>921</ele>
        <time>2012-11-04T10:15:01Z</time>
      </trkpt>
      <trkpt lat="45.28279" lon="5.58926">
        <ele>920</ele>
        <time>2012-11-04T10:15:02Z</time>
      </trkpt>
      <trkpt lat="45.2828" lon="5.58923">
        <ele>920</ele>
        <time>2012-11-04T10:15:03Z</time>
      </trkpt>
      <trkpt lat="45.28282" lon="5.5892">
        <ele>919</ele>
        <time>2012-11-04T10:15:04Z</time>
      </trkpt>
      <trkpt lat="45.28283" lon="5.58917">
        <ele>919</ele>
        <time>2012-11-04T10:15:05Z</time>
      </trkpt>
      <trkpt lat="45.28285" lon="5.58915">
        <ele>919</ele>
        <time>2012-11-04T10:15:06Z</time>
      </trkpt>
      <trkpt lat="45.28287" lon="5.58911">
        <ele>917</ele>
        <time>2012-11-04T10:15:07Z</time>
      </trkpt>
      <trkpt lat="45.28289" lon="5.58908">
        <ele>917</ele>
        <time>2012-11-04T10:15:08Z</time>
      </trkpt>
      <trkpt lat="45.28291" lon="5.58904">
        <ele>917</ele>
        <time>2012-11-04T10:15:09Z</time>
      </trkpt>
      <trkpt lat="45.28293" lon="5.589">
        <ele>918</ele>
        <time>2012-11-04T10:15:10Z</time>
      </trkpt>
      <trkpt lat="45.28296" lon="5.58897">
        <ele>917</ele>
        <time>2012-11-04T10:15:11Z</time>
      </trkpt>
      <trkpt lat="45.28298" lon="5.58894">
        <ele>916</ele>
        <time>2012-11-04T10:15:12Z</time>
      </trkpt>
      <trkpt lat="45.28301" lon="5.58892">
        <ele>916</ele>
        <time>2012-11-04T10:15:13Z</time>
      </trkpt>
      <trkpt lat="45.28303" lon="5.5889">
        <ele>915</ele>
        <time>2012-11-04T10:15:14Z</time>
      </trkpt>
      <trkpt lat="45.28306" lon="5.58888">
        <ele>915</ele>
        <time>2012-11-04T10:15:15Z</time>
      </trkpt>
      <trkpt lat="45.28308" lon="5.58886">
        <ele>915</ele>
        <time>2012-11-04T10:15:16Z</time>
      </trkpt>
      <trkpt lat="45.28311" lon="5.58885">
        <ele>915</ele>
        <time>2012-11-04T10:15:17Z</time>
      </trkpt>
      <trkpt lat="45.28313" lon="5.58883">
        <ele>914</ele>
        <time>2012-11-04T10:15:18Z</time>
      </trkpt>
      <trkpt lat="45.28315" lon="5.5888">
        <ele>914</ele>
        <time>2012-11-04T10:15:19Z</time>
      </trkpt>
      <trkpt lat="45.28317" lon="5.58878">
        <ele>913</ele>
        <time>2012-11-04T10:15:20Z</time>
      </trkpt>
      <trkpt lat="45.28319" lon="5.58875">
        <ele>913</ele>
        <time>2012-11-04T10:15:21Z</time>
      </trkpt>
      <trkpt lat="45.2832" lon="5.58872">
        <ele>913</ele>
        <time>2012-11-04T10:15:22Z</time>
      </trkpt>
      <trkpt lat="45.2832" lon="5.58869">
        <ele>913</ele>
        <time>2012-11-04T10:15:23Z</time>
      </trkpt>
      <trkpt lat="45.28321" lon="5.58866">
        <ele>913</ele>
        <time>2012-11-04T10:15:24Z</time>
      </trkpt>
      <trkpt lat="45.28321" lon="5.58863">
        <ele>913</ele>
        <time>2012-11-04T10:15:25Z</time>
      </trkpt>
      <trkpt lat="45.28321" lon="5.58859">
        <ele>912</ele>
        <time>2012-11-04T10:15:26Z</time>
      </trkpt>
      <trkpt lat="45.28323" lon="5.58856">
        <ele>908</ele>
        <time>2012-11-04T10:15:27Z</time>
      </trkpt>
      <trkpt lat="45.28324" lon="5.58853">
        <ele>907</ele>
        <time>2012-11-04T10:15:28Z</time>
      </trkpt>
      <trkpt lat="45.28326" lon="5.5885">
        <ele>907</ele>
        <time>2012-11-04T10:15:29Z</time>
      </trkpt>
      <trkpt lat="45.28328" lon="5.58848">
        <ele>907</ele>
        <time>2012-11-04T10:15:30Z</time>
      </trkpt>
      <trkpt lat="45.2833" lon="5.58845">
        <ele>905</ele>
        <time>2012-11-04T10:15:31Z</time>
      </trkpt>
      <trkpt lat="45.28332" lon="5.58842">
        <ele>905</ele>
        <time>2012-11-04T10:15:32Z</time>
      </trkpt>
      <trkpt lat="45.28333" lon="5.58838">
        <ele>903</ele>
        <time>2012-11-04T10:15:33Z</time>
      </trkpt>
      <trkpt lat="45.28335" lon="5.58835">
        <ele>901</ele>
        <time>2012-11-04T10:15:34Z</time>
      </trkpt>
      <trkpt lat="45.28336" lon="5.58832">
        <ele>901</ele>
        <time>2012-11-04T10:15:35Z</time>
      </trkpt>
      <trkpt lat="45.28337" lon="5.58829">
        <ele>901</ele>
        <time>2012-11-04T10:15:36Z</time>
      </trkpt>
      <trkpt lat="45.28339" lon="5.58826">
        <ele>900</ele>
        <time>2012-11-04T10:15:37Z</time>
      </trkpt>
      <trkpt lat="45.2834" lon="5.58823">
        <ele>899</ele>
        <time>2012-11-04T10:15:38Z</time>
      </trkpt>
      <trkpt lat="45.28342" lon="5.5882">
        <ele>899</ele>
        <time>2012-11-04T10:15:39Z</time>
      </trkpt>
      <trkpt lat="45.28344" lon="5.58816">
        <ele>899</ele>
        <time>2012-11-04T10:15:40Z</time>
      </trkpt>
      <trkpt lat="45.28345" lon="5.58812">
        <ele>899</ele>
        <time>2012-11-04T10:15:41Z</time>
      </trkpt>
      <trkpt lat="45.28346" lon="5.58809">
        <ele>900</ele>
        <time>2012-11-04T10:15:42Z</time>
      </trkpt>
      <trkpt lat="45.28346" lon="5.58806">
        <ele>899</ele>
        <time>2012-11-04T10:15:43Z</time>
      </trkpt>
      <trkpt lat="45.28345" lon="5.58803">
        <ele>900</ele>
        <time>2012-11-04T10:15:44Z</time>
      </trkpt>
      <trkpt lat="45.28344" lon="5.588">
        <ele>900</ele>
        <time>2012-11-04T10:15:45Z</time>
      </trkpt>
      <trkpt lat="45.28343" lon="5.58797">
        <ele>900</ele>
        <time>2012-11-04T10:15:46Z</time>
      </trkpt>
      <trkpt lat="45.28342" lon="5.58794">
        <ele>898</ele>
        <time>2012-11-04T10:15:47Z</time>
      </trkpt>
      <trkpt lat="45.2834" lon="5.5879">
        <ele>898</ele>
        <time>2012-11-04T10:15:48Z</time>
      </trkpt>
      <trkpt lat="45.28339" lon="5.58786">
        <ele>898</ele>
        <time>2012-11-04T10:15:49Z</time>
      </trkpt>
      <trkpt lat="45.28338" lon="5.58783">
        <ele>897</ele>
        <time>2012-11-04T10:15:50Z</time>
      </trkpt>
      <trkpt lat="45.28337" lon="5.5878">
        <ele>897</ele>
        <time>2012-11-04T10:15:51Z</time>
      </trkpt>
      <trkpt lat="45.28337" lon="5.58776">
        <ele>897</ele>
        <time>2012-11-04T10:15:52Z</time>
      </trkpt>
      <trkpt lat="45.28336" lon="5.58773">
        <ele>895</ele>
        <time>2012-11-04T10:15:53Z</time>
      </trkpt>
      <trkpt lat="45.28336" lon="5.5877">
        <ele>889</ele>
        <time>2012-11-04T10:15:54Z</time>
      </trkpt>
      <trkpt lat="45.28336" lon="5.58766">
        <ele>886</ele>
        <time>2012-11-04T10:15:55Z</time>
      </trkpt>
      <trkpt lat="45.28336" lon="5.58763">
        <ele>885</ele>
        <time>2012-11-04T10:15:56Z</time>
      </trkpt>
      <trkpt lat="45.28336" lon="5.58761">
        <ele>884</ele>
        <time>2012-11-04T10:15:57Z</time>
      </trkpt>
      <trkpt lat="45.28336" lon="5.58757">
        <ele>884</ele>
        <time>2012-11-04T10:15:58Z</time>
      </trkpt>
      <trkpt lat="45.28335" lon="5.58754">
        <ele>883</ele>
        <time>2012-11-04T10:15:59Z</time>
      </trkpt>
      <trkpt lat="45.28335" lon="5.58751">
        <ele>883</ele>
        <time>2012-11-04T10:16:00Z</time>
      </trkpt>
      <trkpt lat="45.28334" lon="5.58747">
        <ele>883</ele>
        <time>2012-11-04T10:16:01Z</time>
      </trkpt>
      <trkpt lat="45.28334" lon="5.58743">
        <ele>884</ele>
        <time>2012-11-04T10:16:02Z</time>
      </trkpt>
      <trkpt lat="45.28333" lon="5.58739">
        <ele>885</ele>
        <time>2012-11-04T10:16:03Z</time>
      </trkpt>
      <trkpt lat="45.28333" lon="5.58735">
        <ele>885</ele>
        <time>2012-11-04T10:16:04Z</time>
      </trkpt>
      <trkpt lat="45.28332" lon="5.58731">
        <ele>886</ele>
        <time>2012-11-04T10:16:05Z</time>
      </trkpt>
      <trkpt lat="45.28331" lon="5.58728">
        <ele>886</ele>
        <time>2012-11-04T10:16:06Z</time>
      </trkpt>
      <trkpt lat="45.2833" lon="5.58724">
        <ele>883</ele>
        <time>2012-11-04T10:16:07Z</time>
      </trkpt>
      <trkpt lat="45.28329" lon="5.58719">
        <ele>882</ele>
        <time>2012-11-04T10:16:08Z</time>
      </trkpt>
      <trkpt lat="45.28328" lon="5.58714">
        <ele>881</ele>
        <time>2012-11-04T10:16:09Z</time>
      </trkpt>
      <trkpt lat="45.28326" lon="5.58709">
        <ele>881</ele>
        <time>2012-11-04T10:16:10Z</time>
      </trkpt>
      <trkpt lat="45.28325" lon="5.58704">
        <ele>880</ele>
        <time>2012-11-04T10:16:11Z</time>
      </trkpt>
      <trkpt lat="45.28324" lon="5.58699">
        <ele>880</ele>
        <time>2012-11-04T10:16:12Z</time>
      </trkpt>
      <trkpt lat="45.28323" lon="5.58695">
        <ele>880</ele>
        <time>2012-11-04T10:16:13Z</time>
      </trkpt>
      <trkpt lat="45.28321" lon="5.5869">
        <ele>880</ele>
        <time>2012-11-04T10:16:14Z</time>
      </trkpt>
      <trkpt lat="45.2832" lon="5.58686">
        <ele>879</ele>
        <time>2012-11-04T10:16:15Z</time>
      </trkpt>
      <trkpt lat="45.28319" lon="5.58683">
        <ele>879</ele>
        <time>2012-11-04T10:16:16Z</time>
      </trkpt>
      <trkpt lat="45.28318" lon="5.5868">
        <ele>880</ele>
        <time>2012-11-04T10:16:17Z</time>
      </trkpt>
      <trkpt lat="45.28316" lon="5.58677">
        <ele>880</ele>
        <time>2012-11-04T10:16:18Z</time>
      </trkpt>
      <trkpt lat="45.28314" lon="5.58675">
        <ele>880</ele>
        <time>2012-11-04T10:16:19Z</time>
      </trkpt>
      <trkpt lat="45.28312" lon="5.58673">
        <ele>880</ele>
        <time>2012-11-04T10:16:20Z</time>
      </trkpt>
      <trkpt lat="45.2831" lon="5.58671">
        <ele>881</ele>
        <time>2012-11-04T10:16:21Z</time>
      </trkpt>
      <trkpt lat="45.28308" lon="5.58669">
        <ele>881</ele>
        <time>2012-11-04T10:16:22Z</time>
      </trkpt>
      <trkpt lat="45.28306" lon="5.58668">
        <ele>881</ele>
        <time>2012-11-04T10:16:23Z</time>
      </trkpt>
      <trkpt lat="45.28304" lon="5.58666">
        <ele>881</ele>
        <time>2012-11-04T10:16:24Z</time>
      </trkpt>
      <trkpt lat="45.28303" lon="5.58665">
        <ele>881</ele>
        <time>2012-11-04T10:16:25Z</time>
      </trkpt>
      <trkpt lat="45.28301" lon="5.58664">
        <ele>881</ele>
        <time>2012-11-04T10:16:26Z</time>
      </trkpt>
      <trkpt lat="45.28301" lon="5.58664">
        <ele>881</ele>
        <time>2012-11-04T10:16:27Z</time>
      </trkpt>
      <trkpt lat="45.28301" lon="5.58664">
        <ele>881</ele>
        <time>2012-11-04T10:16:28Z</time>
      </trkpt>
      <trkpt lat="45.28301" lon="5.58664">
        <ele>882</ele>
        <time>2012-11-04T10:16:29Z</time>
      </trkpt>
      <trkpt lat="45.28301" lon="5.58664">
        <ele>881</ele>
        <time>2012-11-04T10:16:30Z</time>
      </trkpt>
      <trkpt lat="45.28301" lon="5.58664">
        <ele>880</ele>
        <time>2012-11-04T10:16:31Z</time>
      </trkpt>
      <trkpt lat="45.28301" lon="5.58664">
        <ele>879</ele>
        <time>2012-11-04T10:16:32Z</time>
      </trkpt>
      <trkpt lat="45.28301" lon="5.58664">
        <ele>879</ele>
        <time>2012-11-04T10:16:33Z</time>
      </trkpt>
      <trkpt lat="45.28301" lon="5.58664">
        <ele>879</ele>
        <time>2012-11-04T10:16:34Z</time>
      </trkpt>
      <trkpt lat="45.28301" lon="5.58664">
        <ele>879</ele>
        <time>2012-11-04T10:16:35Z</time>
      </trkpt>
      <trkpt lat="45.28301" lon="5.58664">
        <ele>878</ele>
        <time>2012-11-04T10:16:36Z</time>
      </trkpt>
      <trkpt lat="45.28301" lon="5.58664">
        <ele>878</ele>
        <time>2012-11-04T10:16:37Z</time>
      </trkpt>
      <trkpt lat="45.28301" lon="5.58664">
        <ele>878</ele>
        <time>2012-11-04T10:16:38Z</time>
      </trkpt>
      <trkpt lat="45.28301" lon="5.58664">
        <ele>878</ele>
        <time>2012-11-04T10:16:39Z</time>
      </trkpt>
      <trkpt lat="45.28298" lon="5.5866">
        <ele>879</ele>
        <time>2012-11-04T10:16:40Z</time>
      </trkpt>
      <trkpt lat="45.28298" lon="5.58658">
        <ele>879</ele>
        <time>2012-11-04T10:16:41Z</time>
      </trkpt>
      <trkpt lat="45.28297" lon="5.58655">
        <ele>879</ele>
        <time>2012-11-04T10:16:42Z</time>
      </trkpt>
      <trkpt lat="45.28295" lon="5.58651">
        <ele>877</ele>
        <time>2012-11-04T10:16:43Z</time>
      </trkpt>
      <trkpt lat="45.28293" lon="5.58647">
        <ele>877</ele>
        <time>2012-11-04T10:16:44Z</time>
      </trkpt>
      <trkpt lat="45.28291" lon="5.58642">
        <ele>876</ele>
        <time>2012-11-04T10:16:45Z</time>
      </trkpt>
      <trkpt lat="45.2829" lon="5.58638">
        <ele>876</ele>
        <time>2012-11-04T10:16:46Z</time>
      </trkpt>
      <trkpt lat="45.28288" lon="5.58633">
        <ele>877</ele>
        <time>2012-11-04T10:16:47Z</time>
      </trkpt>
      <trkpt lat="45.28287" lon="5.58629">
        <ele>877</ele>
        <time>2012-11-04T10:16:48Z</time>
      </trkpt>
      <trkpt lat="45.28286" lon="5.58626">
        <ele>876</ele>
        <time>2012-11-04T10:16:49Z</time>
      </trkpt>
      <trkpt lat="45.28285" lon="5.58623">
        <ele>875</ele>
        <time>2012-11-04T10:16:50Z</time>
      </trkpt>
      <trkpt lat="45.28286" lon="5.5862">
        <ele>873</ele>
        <time>2012-11-04T10:16:51Z</time>
      </trkpt>
      <trkpt lat="45.28286" lon="5.58616">
        <ele>872</ele>
        <time>2012-11-04T10:16:52Z</time>
      </trkpt>
      <trkpt lat="45.28287" lon="5.58613">
        <ele>872</ele>
        <time>2012-11-04T10:16:53Z</time>
      </trkpt>
      <trkpt lat="45.28287" lon="5.5861">
        <ele>872</ele>
        <time>2012-11-04T10:16:54Z</time>
      </trkpt>
      <trkpt lat="45.28288" lon="5.58607">
        <ele>872</ele>
        <time>2012-11-04T10:16:55Z</time>
      </trkpt>
      <trkpt lat="45.28288" lon="5.58604">
        <ele>871</ele>
        <time>2012-11-04T10:16:56Z</time>
      </trkpt>
      <trkpt lat="45.28288" lon="5.58602">
        <ele>868</ele>
        <time>2012-11-04T10:16:57Z</time>
      </trkpt>
      <trkpt lat="45.28288" lon="5.586">
        <ele>868</ele>
        <time>2012-11-04T10:16:58Z</time>
      </trkpt>
      <trkpt lat="45.28287" lon="5.58599">
        <ele>867</ele>
        <time>2012-11-04T10:16:59Z</time>
      </trkpt>
      <trkpt lat="45.28287" lon="5.58597">
        <ele>867</ele>
        <time>2012-11-04T10:17:00Z</time>
      </trkpt>
      <trkpt lat="45.28287" lon="5.58595">
        <ele>867</ele>
        <time>2012-11-04T10:17:01Z</time>
      </trkpt>
      <trkpt lat="45.28286" lon="5.58594">
        <ele>866</ele>
        <time>2012-11-04T10:17:02Z</time>
      </trkpt>
      <trkpt lat="45.28286" lon="5.58592">
        <ele>867</ele>
        <time>2012-11-04T10:17:03Z</time>
      </trkpt>
      <trkpt lat="45.28286" lon="5.5859">
        <ele>867</ele>
        <time>2012-11-04T10:17:04Z</time>
      </trkpt>
      <trkpt lat="45.28286" lon="5.58588">
        <ele>867</ele>
        <time>2012-11-04T10:17:05Z</time>
      </trkpt>
      <trkpt lat="45.28286" lon="5.58587">
        <ele>867</ele>
        <time>2012-11-04T10:17:06Z</time>
      </trkpt>
      <trkpt lat="45.28286" lon="5.58585">
        <ele>867</ele>
        <time>2012-11-04T10:17:07Z</time>
      </trkpt>
      <trkpt lat="45.28286" lon="5.58584">
        <ele>867</ele>
        <time>2012-11-04T10:17:08Z</time>
      </trkpt>
      <trkpt lat="45.28285" lon="5.58582">
        <ele>866</ele>
        <time>2012-11-04T10:17:09Z</time>
      </trkpt>
      <trkpt lat="45.28284" lon="5.5858">
        <ele>866</ele>
        <time>2012-11-04T10:17:10Z</time>
      </trkpt>
      <trkpt lat="45.28283" lon="5.58577">
        <ele>867</ele>
        <time>2012-11-04T10:17:11Z</time>
      </trkpt>
      <trkpt lat="45.28283" lon="5.58574">
        <ele>864</ele>
        <time>2012-11-04T10:17:12Z</time>
      </trkpt>
      <trkpt lat="45.28282" lon="5.58571">
        <ele>863</ele>
        <time>2012-11-04T10:17:13Z</time>
      </trkpt>
      <trkpt lat="45.28281" lon="5.58568">
        <ele>863</ele>
        <time>2012-11-04T10:17:14Z</time>
      </trkpt>
      <trkpt lat="45.2828" lon="5.58565">
        <ele>863</ele>
        <time>2012-11-04T10:17:15Z</time>
      </trkpt>
      <trkpt lat="45.2828" lon="5.58562">
        <ele>863</ele>
        <time>2012-11-04T10:17:16Z</time>
      </trkpt>
      <trkpt lat="45.2828" lon="5.58559">
        <ele>863</ele>
        <time>2012-11-04T10:17:17Z</time>
      </trkpt>
      <trkpt lat="45.2828" lon="5.58556">
        <ele>863</ele>
        <time>2012-11-04T10:17:18Z</time>
      </trkpt>
      <trkpt lat="45.2828" lon="5.58553">
        <ele>863</ele>
        <time>2012-11-04T10:17:19Z</time>
      </trkpt>
      <trkpt lat="45.28281" lon="5.58549">
        <ele>863</ele>
        <time>2012-11-04T10:17:20Z</time>
      </trkpt>
      <trkpt lat="45.28283" lon="5.58545">
        <ele>863</ele>
        <time>2012-11-04T10:17:21Z</time>
      </trkpt>
      <trkpt lat="45.28285" lon="5.58542">
        <ele>864</ele>
        <time>2012-11-04T10:17:22Z</time>
      </trkpt>
      <trkpt lat="45.28288" lon="5.5854">
        <ele>865</ele>
        <time>2012-11-04T10:17:23Z</time>
      </trkpt>
      <trkpt lat="45.28291" lon="5.58539">
        <ele>865</ele>
        <time>2012-11-04T10:17:24Z</time>
      </trkpt>
      <trkpt lat="45.28335" lon="5.58528">
        <ele>867</ele>
        <time>2012-11-04T10:17:40Z</time>
      </trkpt>
      <trkpt lat="45.28337" lon="5.58525">
        <ele>870</ele>
        <time>2012-11-04T10:17:41Z</time>
      </trkpt>
      <trkpt lat="45.28339" lon="5.58522">
        <ele>870</ele>
        <time>2012-11-04T10:17:42Z</time>
      </trkpt>
      <trkpt lat="45.28341" lon="5.58519">
        <ele>870</ele>
        <time>2012-11-04T10:17:43Z</time>
      </trkpt>
      <trkpt lat="45.28342" lon="5.58515">
        <ele>869</ele>
        <time>2012-11-04T10:17:44Z</time>
      </trkpt>
      <trkpt lat="45.28343" lon="5.58512">
        <ele>869</ele>
        <time>2012-11-04T10:17:45Z</time>
      </trkpt>
      <trkpt lat="45.28344" lon="5.58509">
        <ele>869</ele>
        <time>2012-11-04T10:17:46Z</time>
      </trkpt>
      <trkpt lat="45.28346" lon="5.58506">
        <ele>869</ele>
        <time>2012-11-04T10:17:47Z</time>
      </trkpt>
      <trkpt lat="45.28348" lon="5.58503">
        <ele>867</ele>
        <time>2012-11-04T10:17:48Z</time>
      </trkpt>
      <trkpt lat="45.28349" lon="5.585">
        <ele>866</ele>
        <time>2012-11-04T10:17:49Z</time>
      </trkpt>
      <trkpt lat="45.28351" lon="5.58497">
        <ele>865</ele>
        <time>2012-11-04T10:17:50Z</time>
      </trkpt>
      <trkpt lat="45.28353" lon="5.58494">
        <ele>865</ele>
        <time>2012-11-04T10:17:51Z</time>
      </trkpt>
      <trkpt lat="45.28354" lon="5.58491">
        <ele>864</ele>
        <time>2012-11-04T10:17:52Z</time>
      </trkpt>
      <trkpt lat="45.28355" lon="5.58487">
        <ele>861</ele>
        <time>2012-11-04T10:17:53Z</time>
      </trkpt>
      <trkpt lat="45.28355" lon="5.58484">
        <ele>860</ele>
        <time>2012-11-04T10:17:54Z</time>
      </trkpt>
      <trkpt lat="45.28355" lon="5.5848">
        <ele>859</ele>
        <time>2012-11-04T10:17:55Z</time>
      </trkpt>
      <trkpt lat="45.28354" lon="5.58477">
        <ele>859</ele>
        <time>2012-11-04T10:17:56Z</time>
      </trkpt>
      <trkpt lat="45.28354" lon="5.58473">
        <ele>859</ele>
        <time>2012-11-04T10:17:57Z</time>
      </trkpt>
      <trkpt lat="45.28354" lon="5.58471">
        <ele>857</ele>
        <time>2012-11-04T10:17:58Z</time>
      </trkpt>
      <trkpt lat="45.28353" lon="5.58468">
        <ele>856</ele>
        <time>2012-11-04T10:17:59Z</time>
      </trkpt>
      <trkpt lat="45.28353" lon="5.58467">
        <ele>856</ele>
        <time>2012-11-04T10:18:00Z</time>
      </trkpt>
      <trkpt lat="45.28352" lon="5.58465">
        <ele>855</ele>
        <time>2012-11-04T10:18:01Z</time>
      </trkpt>
      <trkpt lat="45.28352" lon="5.58463">
        <ele>854</ele>
        <time>2012-11-04T10:18:02Z</time>
      </trkpt>
      <trkpt lat="45.28352" lon="5.58461">
        <ele>853</ele>
        <time>2012-11-04T10:18:03Z</time>
      </trkpt>
      <trkpt lat="45.28351" lon="5.58459">
        <ele>852</ele>
        <time>2012-11-04T10:18:04Z</time>
      </trkpt>
      <trkpt lat="45.2835" lon="5.58456">
        <ele>852</ele>
        <time>2012-11-04T10:18:05Z</time>
      </trkpt>
      <trkpt lat="45.2835" lon="5.58453">
        <ele>851</ele>
        <time>2012-11-04T10:18:06Z</time>
      </trkpt>
      <trkpt lat="45.2835" lon="5.5845">
        <ele>849</ele>
        <time>2012-11-04T10:18:07Z</time>
      </trkpt>
      <trkpt lat="45.28351" lon="5.58446">
        <ele>850</ele>
        <time>2012-11-04T10:18:08Z</time>
      </trkpt>
      <trkpt lat="45.28352" lon="5.58442">
        <ele>850</ele>
        <time>2012-11-04T10:18:09Z</time>
      </trkpt>
      <trkpt lat="45.28354" lon="5.58437">
        <ele>849</ele>
        <time>2012-11-04T10:18:10Z</time>
      </trkpt>
      <trkpt lat="45.28356" lon="5.58432">
        <ele>849</ele>
        <time>2012-11-04T10:18:11Z</time>
      </trkpt>
      <trkpt lat="45.28359" lon="5.58427">
        <ele>848</ele>
        <time>2012-11-04T10:18:12Z</time>
      </trkpt>
      <trkpt lat="45.28362" lon="5.58422">
        <ele>849</ele>
        <time>2012-11-04T10:18:13Z</time>
      </trkpt>
      <trkpt lat="45.28364" lon="5.58418">
        <ele>848</ele>
        <time>2012-11-04T10:18:14Z</time>
      </trkpt>
      <trkpt lat="45.28367" lon="5.58415">
        <ele>848</ele>
        <time>2012-11-04T10:18:15Z</time>
      </trkpt>
      <trkpt lat="45.28369" lon="5.58411">
        <ele>848</ele>
        <time>2012-11-04T10:18:16Z</time>
      </trkpt>
      <trkpt lat="45.28371" lon="5.58407">
        <ele>848</ele>
        <time>2012-11-04T10:18:17Z</time>
      </trkpt>
      <trkpt lat="45.28373" lon="5.58403">
        <ele>847</ele>
        <time>2012-11-04T10:18:18Z</time>
      </trkpt>
      <trkpt lat="45.28374" lon="5.58398">
        <ele>846</ele>
        <time>2012-11-04T10:18:19Z</time>
      </trkpt>
      <trkpt lat="45.28375" lon="5.58394">
        <ele>845</ele>
        <time>2012-11-04T10:18:20Z</time>
      </trkpt>
      <trkpt lat="45.28377" lon="5.5839">
        <ele>845</ele>
        <time>2012-11-04T10:18:21Z</time>
      </trkpt>
      <trkpt lat="45.28377" lon="5.58386">
        <ele>843</ele>
        <time>2012-11-04T10:18:22Z</time>
      </trkpt>
      <trkpt lat="45.28377" lon="5.58382">
        <ele>843</ele>
        <time>2012-11-04T10:18:23Z</time>
      </trkpt>
      <trkpt lat="45.28376" lon="5.58379">
        <ele>838</ele>
        <time>2012-11-04T10:18:24Z</time>
      </trkpt>
      <trkpt lat="45.28374" lon="5.58375">
        <ele>837</ele>
        <time>2012-11-04T10:18:25Z</time>
      </trkpt>
      <trkpt lat="45.28372" lon="5.58371">
        <ele>836</ele>
        <time>2012-11-04T10:18:26Z</time>
      </trkpt>
      <trkpt lat="45.28371" lon="5.58368">
        <ele>836</ele>
        <time>2012-11-04T10:18:27Z</time>
      </trkpt>
      <trkpt lat="45.28369" lon="5.58366">
        <ele>837</ele>
        <time>2012-11-04T10:18:28Z</time>
      </trkpt>
      <trkpt lat="45.28368" lon="5.58364">
        <ele>836</ele>
        <time>2012-11-04T10:18:29Z</time>
      </trkpt>
      <trkpt lat="45.28367" lon="5.58363">
        <ele>836</ele>
        <time>2012-11-04T10:18:30Z</time>
      </trkpt>
      <trkpt lat="45.28366" lon="5.5836">
        <ele>835</ele>
        <time>2012-11-04T10:18:31Z</time>
      </trkpt>
      <trkpt lat="45.28364" lon="5.58358">
        <ele>835</ele>
        <time>2012-11-04T10:18:32Z</time>
      </trkpt>
      <trkpt lat="45.28363" lon="5.58355">
        <ele>833</ele>
        <time>2012-11-04T10:18:33Z</time>
      </trkpt>
      <trkpt lat="45.28362" lon="5.58351">
        <ele>832</ele>
        <time>2012-11-04T10:18:34Z</time>
      </trkpt>
      <trkpt lat="45.28361" lon="5.58347">
        <ele>832</ele>
        <time>2012-11-04T10:18:35Z</time>
      </trkpt>
      <trkpt lat="45.2836" lon="5.58343">
        <ele>831</ele>
        <time>2012-11-04T10:18:36Z</time>
      </trkpt>
      <trkpt lat="45.28359" lon="5.58339">
        <ele>830</ele>
        <time>2012-11-04T10:18:37Z</time>
      </trkpt>
      <trkpt lat="45.28358" lon="5.58335">
        <ele>829</ele>
        <time>2012-11-04T10:18:38Z</time>
      </trkpt>
      <trkpt lat="45.28358" lon="5.58331">
        <ele>829</ele>
        <time>2012-11-04T10:18:39Z</time>
      </trkpt>
      <trkpt lat="45.28357" lon="5.58328">
        <ele>829</ele>
        <time>2012-11-04T10:18:40Z</time>
      </trkpt>
      <trkpt lat="45.28356" lon="5.58324">
        <ele>829</ele>
        <time>2012-11-04T10:18:41Z</time>
      </trkpt>
      <trkpt lat="45.28355" lon="5.58321">
        <ele>829</ele>
        <time>2012-11-04T10:18:42Z</time>
      </trkpt>
      <trkpt lat="45.28353" lon="5.58317">
        <ele>829</ele>
        <time>2012-11-04T10:18:43Z</time>
      </trkpt>
      <trkpt lat="45.28351" lon="5.58314">
        <ele>829</ele>
        <time>2012-11-04T10:18:44Z</time>
      </trkpt>
      <trkpt lat="45.28349" lon="5.5831">
        <ele>829</ele>
        <time>2012-11-04T10:18:45Z</time>
      </trkpt>
      <trkpt lat="45.28347" lon="5.58307">
        <ele>829</ele>
        <time>2012-11-04T10:18:46Z</time>
      </trkpt>
      <trkpt lat="45.28346" lon="5.58303">
        <ele>829</ele>
        <time>2012-11-04T10:18:47Z</time>
      </trkpt>
      <trkpt lat="45.28345" lon="5.583">
        <ele>828</ele>
        <time>2012-11-04T10:18:48Z</time>
      </trkpt>
      <trkpt lat="45.28344" lon="5.58296">
        <ele>828</ele>
        <time>2012-11-04T10:18:49Z</time>
      </trkpt>
      <trkpt lat="45.28343" lon="5.58291">
        <ele>827</ele>
        <time>2012-11-04T10:18:50Z</time>
      </trkpt>
      <trkpt lat="45.28343" lon="5.58287">
        <ele>827</ele>
        <time>2012-11-04T10:18:51Z</time>
      </trkpt>
      <trkpt lat="45.28343" lon="5.58282">
        <ele>827</ele>
        <time>2012-11-04T10:18:52Z</time>
      </trkpt>
      <trkpt lat="45.28342" lon="5.58278">
        <ele>827</ele>
        <time>2012-11-04T10:18:53Z</time>
      </trkpt>
      <trkpt lat="45.28342" lon="5.58274">
        <ele>827</ele>
        <time>2012-11-04T10:18:54Z</time>
      </trkpt>
      <trkpt lat="45.28342" lon="5.5827">
        <ele>826</ele>
        <time>2012-11-04T10:18:55Z</time>
      </trkpt>
      <trkpt lat="45.28342" lon="5.58266">
        <ele>825</ele>
        <time>2012-11-04T10:18:56Z</time>
      </trkpt>
      <trkpt lat="45.28341" lon="5.58262">
        <ele>825</ele>
        <time>2012-11-04T10:18:57Z</time>
      </trkpt>
      <trkpt lat="45.2834" lon="5.58258">
        <ele>825</ele>
        <time>2012-11-04T10:18:58Z</time>
      </trkpt>
      <trkpt lat="45.28339" lon="5.58254">
        <ele>824</ele>
        <time>2012-11-04T10:18:59Z</time>
      </trkpt>
      <trkpt lat="45.2834" lon="5.58251">
        <ele>825</ele>
        <time>2012-11-04T10:19:00Z</time>
      </trkpt>
      <trkpt lat="45.28342" lon="5.58248">
        <ele>823</ele>
        <time>2012-11-04T10:19:01Z</time>
      </trkpt>
      <trkpt lat="45.28345" lon="5.58246">
        <ele>822</ele>
        <time>2012-11-04T10:19:02Z</time>
      </trkpt>
      <trkpt lat="45.28348" lon="5.58245">
        <ele>822</ele>
        <time>2012-11-04T10:19:03Z</time>
      </trkpt>
      <trkpt lat="45.28357" lon="5.58242">
        <ele>818</ele>
        <time>2012-11-04T10:19:07Z</time>
      </trkpt>
      <trkpt lat="45.28359" lon="5.5824">
        <ele>816</ele>
        <time>2012-11-04T10:19:08Z</time>
      </trkpt>
      <trkpt lat="45.2836" lon="5.58238">
        <ele>816</ele>
        <time>2012-11-04T10:19:09Z</time>
      </trkpt>
      <trkpt lat="45.28362" lon="5.58236">
        <ele>815</ele>
        <time>2012-11-04T10:19:10Z</time>
      </trkpt>
      <trkpt lat="45.28363" lon="5.58233">
        <ele>815</ele>
        <time>2012-11-04T10:19:11Z</time>
      </trkpt>
      <trkpt lat="45.28364" lon="5.58231">
        <ele>816</ele>
        <time>2012-11-04T10:19:12Z</time>
      </trkpt>
      <trkpt lat="45.28366" lon="5.58227">
        <ele>815</ele>
        <time>2012-11-04T10:19:13Z</time>
      </trkpt>
      <trkpt lat="45.28366" lon="5.58223">
        <ele>814</ele>
        <time>2012-11-04T10:19:14Z</time>
      </trkpt>
      <trkpt lat="45.28366" lon="5.58219">
        <ele>813</ele>
        <time>2012-11-04T10:19:15Z</time>
      </trkpt>
      <trkpt lat="45.28365" lon="5.58214">
        <ele>813</ele>
        <time>2012-11-04T10:19:16Z</time>
      </trkpt>
      <trkpt lat="45.28364" lon="5.58209">
        <ele>812</ele>
        <time>2012-11-04T10:19:17Z</time>
      </trkpt>
      <trkpt lat="45.28362" lon="5.58205">
        <ele>811</ele>
        <time>2012-11-04T10:19:18Z</time>
      </trkpt>
      <trkpt lat="45.28361" lon="5.58201">
        <ele>810</ele>
        <time>2012-11-04T10:19:19Z</time>
      </trkpt>
      <trkpt lat="45.2836" lon="5.58197">
        <ele>810</ele>
        <time>2012-11-04T10:19:20Z</time>
      </trkpt>
      <trkpt lat="45.2836" lon="5.58192">
        <ele>810</ele>
        <time>2012-11-04T10:19:21Z</time>
      </trkpt>
      <trkpt lat="45.28359" lon="5.58188">
        <ele>810</ele>
        <time>2012-11-04T10:19:22Z</time>
      </trkpt>
      <trkpt lat="45.28359" lon="5.58184">
        <ele>810</ele>
        <time>2012-11-04T10:19:23Z</time>
      </trkpt>
      <trkpt lat="45.28359" lon="5.58181">
        <ele>810</ele>
        <time>2012-11-04T10:19:24Z</time>
      </trkpt>
      <trkpt lat="45.28358" lon="5.58178">
        <ele>811</ele>
        <time>2012-11-04T10:19:25Z</time>
      </trkpt>
      <trkpt lat="45.28357" lon="5.58176">
        <ele>810</ele>
        <time>2012-11-04T10:19:26Z</time>
      </trkpt>
      <trkpt lat="45.28356" lon="5.58173">
        <ele>809</ele>
        <time>2012-11-04T10:19:27Z</time>
      </trkpt>
      <trkpt lat="45.28354" lon="5.5817">
        <ele>809</ele>
        <time>2012-11-04T10:19:28Z</time>
      </trkpt>
      <trkpt lat="45.28353" lon="5.58168">
        <ele>808</ele>
        <time>2012-11-04T10:19:29Z</time>
      </trkpt>
      <trkpt lat="45.28351" lon="5.58166">
        <ele>808</ele>
        <time>2012-11-04T10:19:30Z</time>
      </trkpt>
      <trkpt lat="45.28349" lon="5.58163">
        <ele>809</ele>
        <time>2012-11-04T10:19:31Z</time>
      </trkpt>
      <trkpt lat="45.28347" lon="5.58161">
        <ele>809</ele>
        <time>2012-11-04T10:19:32Z</time>
      </trkpt>
      <trkpt lat="45.28345" lon="5.58158">
        <ele>809</ele>
        <time>2012-11-04T10:19:33Z</time>
      </trkpt>
      <trkpt lat="45.28344" lon="5.58155">
        <ele>808</ele>
        <time>2012-11-04T10:19:34Z</time>
      </trkpt>
      <trkpt lat="45.28342" lon="5.58152">
        <ele>808</ele>
        <time>2012-11-04T10:19:35Z</time>
      </trkpt>
      <trkpt lat="45.2834" lon="5.58149">
        <ele>807</ele>
        <time>2012-11-04T10:19:36Z</time>
      </trkpt>
      <trkpt lat="45.28339" lon="5.58145">
        <ele>807</ele>
        <time>2012-11-04T10:19:37Z</time>
      </trkpt>
      <trkpt lat="45.28338" lon="5.5814">
        <ele>806</ele>
        <time>2012-11-04T10:19:38Z</time>
      </trkpt>
      <trkpt lat="45.28337" lon="5.58136">
        <ele>806</ele>
        <time>2012-11-04T10:19:39Z</time>
      </trkpt>
      <trkpt lat="45.28336" lon="5.58131">
        <ele>806</ele>
        <time>2012-11-04T10:19:40Z</time>
      </trkpt>
      <trkpt lat="45.28335" lon="5.58126">
        <ele>805</ele>
        <time>2012-11-04T10:19:41Z</time>
      </trkpt>
      <trkpt lat="45.28335" lon="5.58122">
        <ele>806</ele>
        <time>2012-11-04T10:19:42Z</time>
      </trkpt>
      <trkpt lat="45.28334" lon="5.58117">
        <ele>806</ele>
        <time>2012-11-04T10:19:43Z</time>
      </trkpt>
      <trkpt lat="45.28334" lon="5.58113">
        <ele>806</ele>
        <time>2012-11-04T10:19:44Z</time>
      </trkpt>
      <trkpt lat="45.28333" lon="5.5811">
        <ele>807</ele>
        <time>2012-11-04T10:19:45Z</time>
      </trkpt>
      <trkpt lat="45.28333" lon="5.58106">
        <ele>807</ele>
        <time>2012-11-04T10:19:46Z</time>
      </trkpt>
      <trkpt lat="45.28333" lon="5.58103">
        <ele>807</ele>
        <time>2012-11-04T10:19:47Z</time>
      </trkpt>
      <trkpt lat="45.28332" lon="5.58099">
        <ele>807</ele>
        <time>2012-11-04T10:19:48Z</time>
      </trkpt>
      <trkpt lat="45.28331" lon="5.58096">
        <ele>807</ele>
        <time>2012-11-04T10:19:49Z</time>
      </trkpt>
      <trkpt lat="45.2833" lon="5.58092">
        <ele>806</ele>
        <time>2012-11-04T10:19:50Z</time>
      </trkpt>
      <trkpt lat="45.28329" lon="5.58089">
        <ele>805</ele>
        <time>2012-11-04T10:19:51Z</time>
      </trkpt>
      <trkpt lat="45.28328" lon="5.58086">
        <ele>805</ele>
        <time>2012-11-04T10:19:52Z</time>
      </trkpt>
      <trkpt lat="45.28326" lon="5.58083">
        <ele>805</ele>
        <time>2012-11-04T10:19:53Z</time>
      </trkpt>
      <trkpt lat="45.28324" lon="5.5808">
        <ele>805</ele>
        <time>2012-11-04T10:19:54Z</time>
      </trkpt>
      <trkpt lat="45.28322" lon="5.58077">
        <ele>804</ele>
        <time>2012-11-04T10:19:55Z</time>
      </trkpt>
      <trkpt lat="45.2832" lon="5.58073">
        <ele>804</ele>
        <time>2012-11-04T10:19:56Z</time>
      </trkpt>
      <trkpt lat="45.28318" lon="5.5807">
        <ele>804</ele>
        <time>2012-11-04T10:19:57Z</time>
      </trkpt>
      <trkpt lat="45.28316" lon="5.58068">
        <ele>803</ele>
        <time>2012-11-04T10:19:58Z</time>
      </trkpt>
      <trkpt lat="45.28315" lon="5.58065">
        <ele>802</ele>
        <time>2012-11-04T10:19:59Z</time>
      </trkpt>
      <trkpt lat="45.28313" lon="5.58062">
        <ele>801</ele>
        <time>2012-11-04T10:20:00Z</time>
      </trkpt>
      <trkpt lat="45.28312" lon="5.5806">
        <ele>801</ele>
        <time>2012-11-04T10:20:01Z</time>
      </trkpt>
      <trkpt lat="45.2831" lon="5.58057">
        <ele>800</ele>
        <time>2012-11-04T10:20:02Z</time>
      </trkpt>
      <trkpt lat="45.28309" lon="5.58053">
        <ele>800</ele>
        <time>2012-11-04T10:20:03Z</time>
      </trkpt>
      <trkpt lat="45.28308" lon="5.58049">
        <ele>799</ele>
        <time>2012-11-04T10:20:04Z</time>
      </trkpt>
      <trkpt lat="45.28307" lon="5.58045">
        <ele>799</ele>
        <time>2012-11-04T10:20:05Z</time>
      </trkpt>
      <trkpt lat="45.28307" lon="5.58042">
        <ele>797</ele>
        <time>2012-11-04T10:20:06Z</time>
      </trkpt>
      <trkpt lat="45.28306" lon="5.58038">
        <ele>797</ele>
        <time>2012-11-04T10:20:07Z</time>
      </trkpt>
      <trkpt lat="45.28306" lon="5.58035">
        <ele>796</ele>
        <time>2012-11-04T10:20:08Z</time>
      </trkpt>
      <trkpt lat="45.28306" lon="5.58032">
        <ele>791</ele>
        <time>2012-11-04T10:20:09Z</time>
      </trkpt>
      <trkpt lat="45.28306" lon="5.58029">
        <ele>791</ele>
        <time>2012-11-04T10:20:10Z</time>
      </trkpt>
      <trkpt lat="45.28306" lon="5.58026">
        <ele>790</ele>
        <time>2012-11-04T10:20:11Z</time>
      </trkpt>
      <trkpt lat="45.28306" lon="5.58024">
        <ele>790</ele>
        <time>2012-11-04T10:20:12Z</time>
      </trkpt>
      <trkpt lat="45.28307" lon="5.58021">
        <ele>789</ele>
        <time>2012-11-04T10:20:13Z</time>
      </trkpt>
      <trkpt lat="45.28307" lon="5.58018">
        <ele>789</ele>
        <time>2012-11-04T10:20:14Z</time>
      </trkpt>
      <trkpt lat="45.28307" lon="5.58016">
        <ele>789</ele>
        <time>2012-11-04T10:20:15Z</time>
      </trkpt>
      <trkpt lat="45.28307" lon="5.58014">
        <ele>789</ele>
        <time>2012-11-04T10:20:16Z</time>
      </trkpt>
      <trkpt lat="45.28307" lon="5.58013">
        <ele>787</ele>
        <time>2012-11-04T10:20:17Z</time>
      </trkpt>
      <trkpt lat="45.28307" lon="5.58012">
        <ele>787</ele>
        <time>2012-11-04T10:20:18Z</time>
      </trkpt>
      <trkpt lat="45.28307" lon="5.5801">
        <ele>787</ele>
        <time>2012-11-04T10:20:19Z</time>
      </trkpt>
      <trkpt lat="45.28307" lon="5.58009">
        <ele>787</ele>
        <time>2012-11-04T10:20:20Z</time>
      </trkpt>
      <trkpt lat="45.28307" lon="5.58008">
        <ele>787</ele>
        <time>2012-11-04T10:20:21Z</time>
      </trkpt>
      <trkpt lat="45.28308" lon="5.58006">
        <ele>787</ele>
        <time>2012-11-04T10:20:22Z</time>
      </trkpt>
      <trkpt lat="45.28308" lon="5.58004">
        <ele>787</ele>
        <time>2012-11-04T10:20:23Z</time>
      </trkpt>
      <trkpt lat="45.28308" lon="5.58002">
        <ele>787</ele>
        <time>2012-11-04T10:20:24Z</time>
      </trkpt>
      <trkpt lat="45.28308" lon="5.58">
        <ele>787</ele>
        <time>2012-11-04T10:20:25Z</time>
      </trkpt>
      <trkpt lat="45.28308" lon="5.57998">
        <ele>787</ele>
        <time>2012-11-04T10:20:26Z</time>
      </trkpt>
      <trkpt lat="45.28307" lon="5.57996">
        <ele>786</ele>
        <time>2012-11-04T10:20:27Z</time>
      </trkpt>
      <trkpt lat="45.28306" lon="5.57993">
        <ele>785</ele>
        <time>2012-11-04T10:20:28Z</time>
      </trkpt>
      <trkpt lat="45.28305" lon="5.57991">
        <ele>785</ele>
        <time>2012-11-04T10:20:29Z</time>
      </trkpt>
      <trkpt lat="45.28304" lon="5.57988">
        <ele>785</ele>
        <time>2012-11-04T10:20:30Z</time>
      </trkpt>
      <trkpt lat="45.28302" lon="5.57985">
        <ele>784</ele>
        <time>2012-11-04T10:20:31Z</time>
      </trkpt>
      <trkpt lat="45.28301" lon="5.57982">
        <ele>784</ele>
        <time>2012-11-04T10:20:32Z</time>
      </trkpt>
      <trkpt lat="45.28299" lon="5.57979">
        <ele>784</ele>
        <time>2012-11-04T10:20:33Z</time>
      </trkpt>
      <trkpt lat="45.28297" lon="5.57976">
        <ele>784</ele>
        <time>2012-11-04T10:20:34Z</time>
      </trkpt>
      <trkpt lat="45.28295" lon="5.57973">
        <ele>784</ele>
        <time>2012-11-04T10:20:35Z</time>
      </trkpt>
      <trkpt lat="45.28292" lon="5.5797">
        <ele>784</ele>
        <time>2012-11-04T10:20:36Z</time>
      </trkpt>
      <trkpt lat="45.2829" lon="5.57967">
        <ele>785</ele>
        <time>2012-11-04T10:20:37Z</time>
      </trkpt>
      <trkpt lat="45.28287" lon="5.57963">
        <ele>784</ele>
        <time>2012-11-04T10:20:38Z</time>
      </trkpt>
      <trkpt lat="45.28285" lon="5.57959">
        <ele>784</ele>
        <time>2012-11-04T10:20:39Z</time>
      </trkpt>
      <trkpt lat="45.28283" lon="5.57955">
        <ele>783</ele>
        <time>2012-11-04T10:20:40Z</time>
      </trkpt>
      <trkpt lat="45.28281" lon="5.57951">
        <ele>783</ele>
        <time>2012-11-04T10:20:41Z</time>
      </trkpt>
      <trkpt lat="45.28279" lon="5.57947">
        <ele>783</ele>
        <time>2012-11-04T10:20:42Z</time>
      </trkpt>
      <trkpt lat="45.28277" lon="5.57945">
        <ele>783</ele>
        <time>2012-11-04T10:20:43Z</time>
      </trkpt>
      <trkpt lat="45.28274" lon="5.57942">
        <ele>783</ele>
        <time>2012-11-04T10:20:44Z</time>
      </trkpt>
      <trkpt lat="45.28272" lon="5.57941">
        <ele>783</ele>
        <time>2012-11-04T10:20:45Z</time>
      </trkpt>
      <trkpt lat="45.28269" lon="5.57939">
        <ele>783</ele>
        <time>2012-11-04T10:20:46Z</time>
      </trkpt>
      <trkpt lat="45.28266" lon="5.57938">
        <ele>783</ele>
        <time>2012-11-04T10:20:47Z</time>
      </trkpt>
      <trkpt lat="45.28262" lon="5.57937">
        <ele>783</ele>
        <time>2012-11-04T10:20:48Z</time>
      </trkpt>
      <trkpt lat="45.28259" lon="5.57936">
        <ele>783</ele>
        <time>2012-11-04T10:20:49Z</time>
      </trkpt>
      <trkpt lat="45.28256" lon="5.57936">
        <ele>784</ele>
        <time>2012-11-04T10:20:50Z</time>
      </trkpt>
      <trkpt lat="45.28253" lon="5.57935">
        <ele>784</ele>
        <time>2012-11-04T10:20:51Z</time>
      </trkpt>
      <trkpt lat="45.28249" lon="5.57935">
        <ele>784</ele>
        <time>2012-11-04T10:20:52Z</time>
      </trkpt>
      <trkpt lat="45.28246" lon="5.57934">
        <ele>784</ele>
        <time>2012-11-04T10:20:53Z</time>
      </trkpt>
      <trkpt lat="45.28243" lon="5.57935">
        <ele>784</ele>
        <time>2012-11-04T10:20:54Z</time>
      </trkpt>
      <trkpt lat="45.2824" lon="5.57936">
        <ele>784</ele>
        <time>2012-11-04T10:20:55Z</time>
      </trkpt>
      <trkpt lat="45.28236" lon="5.57937">
        <ele>784</ele>
        <time>2012-11-04T10:20:56Z</time>
      </trkpt>
      <trkpt lat="45.28233" lon="5.57937">
        <ele>785</ele>
        <time>2012-11-04T10:20:57Z</time>
      </trkpt>
      <trkpt lat="45.2823" lon="5.57936">
        <ele>785</ele>
        <time>2012-11-04T10:20:58Z</time>
      </trkpt>
      <trkpt lat="45.28227" lon="5.57934">
        <ele>785</ele>
        <time>2012-11-04T10:20:59Z</time>
      </trkpt>
      <trkpt lat="45.28225" lon="5.57932">
        <ele>782</ele>
        <time>2012-11-04T10:21:00Z</time>
      </trkpt>
      <trkpt lat="45.28222" lon="5.57928">
        <ele>781</ele>
        <time>2012-11-04T10:21:01Z</time>
      </trkpt>
      <trkpt lat="45.2822" lon="5.57924">
        <ele>782</ele>
        <time>2012-11-04T10:21:02Z</time>
      </trkpt>
      <trkpt lat="45.28218" lon="5.5792">
        <ele>782</ele>
        <time>2012-11-04T10:21:03Z</time>
      </trkpt>
      <trkpt lat="45.28217" lon="5.57916">
        <ele>782</ele>
        <time>2012-11-04T10:21:04Z</time>
      </trkpt>
      <trkpt lat="45.28216" lon="5.57912">
        <ele>783</ele>
        <time>2012-11-04T10:21:05Z</time>
      </trkpt>
      <trkpt lat="45.28216" lon="5.57908">
        <ele>784</ele>
        <time>2012-11-04T10:21:06Z</time>
      </trkpt>
      <trkpt lat="45.28215" lon="5.57904">
        <ele>784</ele>
        <time>2012-11-04T10:21:07Z</time>
      </trkpt>
      <trkpt lat="45.28214" lon="5.579">
        <ele>784</ele>
        <time>2012-11-04T10:21:08Z</time>
      </trkpt>
      <trkpt lat="45.28213" lon="5.57896">
        <ele>784</ele>
        <time>2012-11-04T10:21:09Z</time>
      </trkpt>
      <trkpt lat="45.28211" lon="5.57892">
        <ele>784</ele>
        <time>2012-11-04T10:21:10Z</time>
      </trkpt>
      <trkpt lat="45.28209" lon="5.57889">
        <ele>784</ele>
        <time>2012-11-04T10:21:11Z</time>
      </trkpt>
      <trkpt lat="45.28207" lon="5.57886">
        <ele>784</ele>
        <time>2012-11-04T10:21:12Z</time>
      </trkpt>
      <trkpt lat="45.28204" lon="5.57883">
        <ele>784</ele>
        <time>2012-11-04T10:21:13Z</time>
      </trkpt>
      <trkpt lat="45.28201" lon="5.57881">
        <ele>783</ele>
        <time>2012-11-04T10:21:14Z</time>
      </trkpt>
      <trkpt lat="45.28198" lon="5.57878">
        <ele>783</ele>
        <time>2012-11-04T10:21:15Z</time>
      </trkpt>
      <trkpt lat="45.28194" lon="5.57877">
        <ele>783</ele>
        <time>2012-11-04T10:21:16Z</time>
      </trkpt>
      <trkpt lat="45.28191" lon="5.57875">
        <ele>784</ele>
        <time>2012-11-04T10:21:17Z</time>
      </trkpt>
      <trkpt lat="45.28188" lon="5.57874">
        <ele>783</ele>
        <time>2012-11-04T10:21:18Z</time>
      </trkpt>
      <trkpt lat="45.28185" lon="5.57874">
        <ele>783</ele>
        <time>2012-11-04T10:21:19Z</time>
      </trkpt>
      <trkpt lat="45.28184" lon="5.57874">
        <ele>782</ele>
        <time>2012-11-04T10:21:20Z</time>
      </trkpt>
      <trkpt lat="45.28183" lon="5.57874">
        <ele>781</ele>
        <time>2012-11-04T10:21:21Z</time>
      </trkpt>
      <trkpt lat="45.28182" lon="5.57874">
        <ele>782</ele>
        <time>2012-11-04T10:21:22Z</time>
      </trkpt>
      <trkpt lat="45.28182" lon="5.57874">
        <ele>780</ele>
        <time>2012-11-04T10:21:23Z</time>
      </trkpt>
      <trkpt lat="45.28182" lon="5.57874">
        <ele>780</ele>
        <time>2012-11-04T10:21:24Z</time>
      </trkpt>
      <trkpt lat="45.28182" lon="5.57874">
        <ele>780</ele>
        <time>2012-11-04T10:21:25Z</time>
      </trkpt>
      <trkpt lat="45.28182" lon="5.57874">
        <ele>780</ele>
        <time>2012-11-04T10:21:26Z</time>
      </trkpt>
      <trkpt lat="45.28182" lon="5.57874">
        <ele>780</ele>
        <time>2012-11-04T10:21:27Z</time>
      </trkpt>
      <trkpt lat="45.28182" lon="5.57874">
        <ele>780</ele>
        <time>2012-11-04T10:21:28Z</time>
      </trkpt>
      <trkpt lat="45.28182" lon="5.57874">
        <ele>779</ele>
        <time>2012-11-04T10:21:29Z</time>
      </trkpt>
      <trkpt lat="45.28182" lon="5.57874">
        <ele>779</ele>
        <time>2012-11-04T10:21:30Z</time>
      </trkpt>
      <trkpt lat="45.28182" lon="5.57874">
        <ele>779</ele>
        <time>2012-11-04T10:21:31Z</time>
      </trkpt>
      <trkpt lat="45.28182" lon="5.57874">
        <ele>779</ele>
        <time>2012-11-04T10:21:32Z</time>
      </trkpt>
      <trkpt lat="45.28182" lon="5.57874">
        <ele>779</ele>
        <time>2012-11-04T10:21:33Z</time>
      </trkpt>
      <trkpt lat="45.28182" lon="5.57874">
        <ele>778</ele>
        <time>2012-11-04T10:21:34Z</time>
      </trkpt>
      <trkpt lat="45.28182" lon="5.57874">
        <ele>778</ele>
        <time>2012-11-04T10:21:35Z</time>
      </trkpt>
      <trkpt lat="45.28182" lon="5.57874">
        <ele>779</ele>
        <time>2012-11-04T10:21:36Z</time>
      </trkpt>
      <trkpt lat="45.28182" lon="5.57874">
        <ele>779</ele>
        <time>2012-11-04T10:21:37Z</time>
      </trkpt>
      <trkpt lat="45.28182" lon="5.57874">
        <ele>779</ele>
        <time>2012-11-04T10:21:38Z</time>
      </trkpt>
      <trkpt lat="45.28182" lon="5.57874">
        <ele>779</ele>
        <time>2012-11-04T10:21:39Z</time>
      </trkpt>
      <trkpt lat="45.28182" lon="5.57874">
        <ele>779</ele>
        <time>2012-11-04T10:21:40Z</time>
      </trkpt>
      <trkpt lat="45.28182" lon="5.57874">
        <ele>779</ele>
        <time>2012-11-04T10:21:41Z</time>
      </trkpt>
      <trkpt lat="45.28182" lon="5.57874">
        <ele>779</ele>
        <time>2012-11-04T10:21:42Z</time>
      </trkpt>
      <trkpt lat="45.28182" lon="5.57874">
        <ele>779</ele>
        <time>2012-11-04T10:21:43Z</time>
      </trkpt>
      <trkpt lat="45.28182" lon="5.57874">
        <ele>779</ele>
        <time>2012-11-04T10:21:44Z</time>
      </trkpt>
      <trkpt lat="45.28183" lon="5.57875">
        <ele>781</ele>
        <time>2012-11-04T10:21:45Z</time>
      </trkpt>
      <trkpt lat="45.28183" lon="5.57875">
        <ele>782</ele>
        <time>2012-11-04T10:21:46Z</time>
      </trkpt>
      <trkpt lat="45.28183" lon="5.57875">
        <ele>782</ele>
        <time>2012-11-04T10:21:47Z</time>
      </trkpt>
      <trkpt lat="45.28183" lon="5.57875">
        <ele>782</ele>
        <time>2012-11-04T10:21:48Z</time>
      </trkpt>
      <trkpt lat="45.28183" lon="5.57875">
        <ele>782</ele>
        <time>2012-11-04T10:21:49Z</time>
      </trkpt>
      <trkpt lat="45.28183" lon="5.57875">
        <ele>782</ele>
        <time>2012-11-04T10:21:50Z</time>
      </trkpt>
      <trkpt lat="45.28183" lon="5.57875">
        <ele>782</ele>
        <time>2012-11-04T10:21:51Z</time>
      </trkpt>
      <trkpt lat="45.28183" lon="5.57875">
        <ele>782</ele>
        <time>2012-11-04T10:21:52Z</time>
      </trkpt>
      <trkpt lat="45.28183" lon="5.57875">
        <ele>783</ele>
        <time>2012-11-04T10:21:53Z</time>
      </trkpt>
      <trkpt lat="45.28183" lon="5.57875">
        <ele>782</ele>
        <time>2012-11-04T10:21:54Z</time>
      </trkpt>
      <trkpt lat="45.28181" lon="5.57871">
        <ele>782</ele>
        <time>2012-11-04T10:21:55Z</time>
      </trkpt>
      <trkpt lat="45.2818" lon="5.5787">
        <ele>781</ele>
        <time>2012-11-04T10:21:56Z</time>
      </trkpt>
      <trkpt lat="45.2818" lon="5.57868">
        <ele>780</ele>
        <time>2012-11-04T10:21:57Z</time>
      </trkpt>
      <trkpt lat="45.28179" lon="5.57867">
        <ele>780</ele>
        <time>2012-11-04T10:21:58Z</time>
      </trkpt>
      <trkpt lat="45.28177" lon="5.57865">
        <ele>780</ele>
        <time>2012-11-04T10:21:59Z</time>
      </trkpt>
      <trkpt lat="45.28175" lon="5.57863">
        <ele>777</ele>
        <time>2012-11-04T10:22:00Z</time>
      </trkpt>
      <trkpt lat="45.28174" lon="5.57861">
        <ele>776</ele>
        <time>2012-11-04T10:22:01Z</time>
      </trkpt>
      <trkpt lat="45.28172" lon="5.57859">
        <ele>775</ele>
        <time>2012-11-04T10:22:02Z</time>
      </trkpt>
      <trkpt lat="45.2817" lon="5.57856">
        <ele>774</ele>
        <time>2012-11-04T10:22:03Z</time>
      </trkpt>
      <trkpt lat="45.28169" lon="5.57853">
        <ele>773</ele>
        <time>2012-11-04T10:22:04Z</time>
      </trkpt>
      <trkpt lat="45.28168" lon="5.5785">
        <ele>773</ele>
        <time>2012-11-04T10:22:05Z</time>
      </trkpt>
      <trkpt lat="45.28166" lon="5.57848">
        <ele>773</ele>
        <time>2012-11-04T10:22:06Z</time>
      </trkpt>
      <trkpt lat="45.28165" lon="5.57845">
        <ele>773</ele>
        <time>2012-11-04T10:22:07Z</time>
      </trkpt>
      <trkpt lat="45.28164" lon="5.57842">
        <ele>772</ele>
        <time>2012-11-04T10:22:08Z</time>
      </trkpt>
      <trkpt lat="45.28164" lon="5.5784">
        <ele>772</ele>
        <time>2012-11-04T10:22:09Z</time>
      </trkpt>
      <trkpt lat="45.28164" lon="5.57838">
        <ele>772</ele>
        <time>2012-11-04T10:22:10Z</time>
      </trkpt>
      <trkpt lat="45.28164" lon="5.57835">
        <ele>772</ele>
        <time>2012-11-04T10:22:11Z</time>
      </trkpt>
      <trkpt lat="45.28164" lon="5.57832">
        <ele>771</ele>
        <time>2012-11-04T10:22:12Z</time>
      </trkpt>
      <trkpt lat="45.28164" lon="5.57829">
        <ele>771</ele>
        <time>2012-11-04T10:22:13Z</time>
      </trkpt>
      <trkpt lat="45.28164" lon="5.57826">
        <ele>771</ele>
        <time>2012-11-04T10:22:14Z</time>
      </trkpt>
      <trkpt lat="45.28164" lon="5.57822">
        <ele>772</ele>
        <time>2012-11-04T10:22:15Z</time>
      </trkpt>
      <trkpt lat="45.28164" lon="5.57818">
        <ele>772</ele>
        <time>2012-11-04T10:22:16Z</time>
      </trkpt>
      <trkpt lat="45.28163" lon="5.57814">
        <ele>773</ele>
        <time>2012-11-04T10:22:17Z</time>
      </trkpt>
      <trkpt lat="45.28163" lon="5.57809">
        <ele>771</ele>
        <time>2012-11-04T10:22:18Z</time>
      </trkpt>
      <trkpt lat="45.28162" lon="5.57806">
        <ele>771</ele>
        <time>2012-11-04T10:22:19Z</time>
      </trkpt>
      <trkpt lat="45.28162" lon="5.57802">
        <ele>770</ele>
        <time>2012-11-04T10:22:20Z</time>
      </trkpt>
      <trkpt lat="45.28161" lon="5.57798">
        <ele>769</ele>
        <time>2012-11-04T10:22:21Z</time>
      </trkpt>
      <trkpt lat="45.28161" lon="5.57795">
        <ele>770</ele>
        <time>2012-11-04T10:22:22Z</time>
      </trkpt>
      <trkpt lat="45.2816" lon="5.5779">
        <ele>770</ele>
        <time>2012-11-04T10:22:23Z</time>
      </trkpt>
      <trkpt lat="45.28159" lon="5.57787">
        <ele>770</ele>
        <time>2012-11-04T10:22:24Z</time>
      </trkpt>
      <trkpt lat="45.28159" lon="5.57784">
        <ele>770</ele>
        <time>2012-11-04T10:22:25Z</time>
      </trkpt>
      <trkpt lat="45.28158" lon="5.57782">
        <ele>770</ele>
        <time>2012-11-04T10:22:26Z</time>
      </trkpt>
      <trkpt lat="45.28158" lon="5.5778">
        <ele>770</ele>
        <time>2012-11-04T10:22:27Z</time>
      </trkpt>
      <trkpt lat="45.28158" lon="5.57778">
        <ele>771</ele>
        <time>2012-11-04T10:22:28Z</time>
      </trkpt>
      <trkpt lat="45.28157" lon="5.57777">
        <ele>770</ele>
        <time>2012-11-04T10:22:29Z</time>
      </trkpt>
      <trkpt lat="45.28156" lon="5.57774">
        <ele>770</ele>
        <time>2012-11-04T10:22:30Z</time>
      </trkpt>
      <trkpt lat="45.28154" lon="5.57772">
        <ele>772</ele>
        <time>2012-11-04T10:22:31Z</time>
      </trkpt>
      <trkpt lat="45.28152" lon="5.5777">
        <ele>774</ele>
        <time>2012-11-04T10:22:32Z</time>
      </trkpt>
      <trkpt lat="45.28152" lon="5.5777">
        <ele>771</ele>
        <time>2012-11-04T10:22:33Z</time>
      </trkpt>
      <trkpt lat="45.28148" lon="5.57765">
        <ele>770</ele>
        <time>2012-11-04T10:22:34Z</time>
      </trkpt>
      <trkpt lat="45.28148" lon="5.57765">
        <ele>770</ele>
        <time>2012-11-04T10:22:35Z</time>
      </trkpt>
      <trkpt lat="45.28148" lon="5.57765">
        <ele>770</ele>
        <time>2012-11-04T10:22:36Z</time>
      </trkpt>
      <trkpt lat="45.28148" lon="5.57765">
        <ele>770</ele>
        <time>2012-11-04T10:22:37Z</time>
      </trkpt>
      <trkpt lat="45.28148" lon="5.57765">
        <ele>770</ele>
        <time>2012-11-04T10:22:38Z</time>
      </trkpt>
      <trkpt lat="45.28148" lon="5.57765">
        <ele>770</ele>
        <time>2012-11-04T10:22:39Z</time>
      </trkpt>
      <trkpt lat="45.28148" lon="5.57765">
        <ele>770</ele>
        <time>2012-11-04T10:22:40Z</time>
      </trkpt>
      <trkpt lat="45.28148" lon="5.57765">
        <ele>769</ele>
        <time>2012-11-04T10:22:41Z</time>
      </trkpt>
      <trkpt lat="45.28148" lon="5.57765">
        <ele>768</ele>
        <time>2012-11-04T10:22:42Z</time>
      </trkpt>
      <trkpt lat="45.28146" lon="5.57759">
        <ele>768</ele>
        <time>2012-11-04T10:22:43Z</time>
      </trkpt>
      <trkpt lat="45.28144" lon="5.57758">
        <ele>767</ele>
        <time>2012-11-04T10:22:44Z</time>
      </trkpt>
      <trkpt lat="45.28143" lon="5.57756">
        <ele>767</ele>
        <time>2012-11-04T10:22:45Z</time>
      </trkpt>
      <trkpt lat="45.28141" lon="5.57753">
        <ele>768</ele>
        <time>2012-11-04T10:22:46Z</time>
      </trkpt>
      <trkpt lat="45.28139" lon="5.5775">
        <ele>767</ele>
        <time>2012-11-04T10:22:47Z</time>
      </trkpt>
      <trkpt lat="45.28136" lon="5.57748">
        <ele>765</ele>
        <time>2012-11-04T10:22:48Z</time>
      </trkpt>
      <trkpt lat="45.28134" lon="5.57745">
        <ele>765</ele>
        <time>2012-11-04T10:22:49Z</time>
      </trkpt>
      <trkpt lat="45.28133" lon="5.57743">
        <ele>765</ele>
        <time>2012-11-04T10:22:50Z</time>
      </trkpt>
      <trkpt lat="45.28132" lon="5.57741">
        <ele>764</ele>
        <time>2012-11-04T10:22:51Z</time>
      </trkpt>
      <trkpt lat="45.2813" lon="5.57739">
        <ele>763</ele>
        <time>2012-11-04T10:22:52Z</time>
      </trkpt>
      <trkpt lat="45.28128" lon="5.57737">
        <ele>763</ele>
        <time>2012-11-04T10:22:53Z</time>
      </trkpt>
      <trkpt lat="45.28126" lon="5.57735">
        <ele>763</ele>
        <time>2012-11-04T10:22:54Z</time>
      </trkpt>
      <trkpt lat="45.28124" lon="5.57734">
        <ele>762</ele>
        <time>2012-11-04T10:22:55Z</time>
      </trkpt>
      <trkpt lat="45.28122" lon="5.57732">
        <ele>761</ele>
        <time>2012-11-04T10:22:56Z</time>
      </trkpt>
      <trkpt lat="45.2812" lon="5.5773">
        <ele>760</ele>
        <time>2012-11-04T10:22:57Z</time>
      </trkpt>
      <trkpt lat="45.28118" lon="5.57729">
        <ele>760</ele>
        <time>2012-11-04T10:22:58Z</time>
      </trkpt>
      <trkpt lat="45.28117" lon="5.57728">
        <ele>759</ele>
        <time>2012-11-04T10:22:59Z</time>
      </trkpt>
      <trkpt lat="45.28116" lon="5.57727">
        <ele>759</ele>
        <time>2012-11-04T10:23:00Z</time>
      </trkpt>
      <trkpt lat="45.28115" lon="5.57725">
        <ele>758</ele>
        <time>2012-11-04T10:23:01Z</time>
      </trkpt>
      <trkpt lat="45.28113" lon="5.57724">
        <ele>758</ele>
        <time>2012-11-04T10:23:02Z</time>
      </trkpt>
      <trkpt lat="45.28113" lon="5.57723">
        <ele>758</ele>
        <time>2012-11-04T10:23:03Z</time>
      </trkpt>
      <trkpt lat="45.28112" lon="5.57722">
        <ele>757</ele>
        <time>2012-11-04T10:23:04Z</time>
      </trkpt>
      <trkpt lat="45.28111" lon="5.5772">
        <ele>758</ele>
        <time>2012-11-04T10:23:05Z</time>
      </trkpt>
      <trkpt lat="45.28111" lon="5.57719">
        <ele>757</ele>
        <time>2012-11-04T10:23:06Z</time>
      </trkpt>
      <trkpt lat="45.2811" lon="5.57717">
        <ele>757</ele>
        <time>2012-11-04T10:23:07Z</time>
      </trkpt>
      <trkpt lat="45.28108" lon="5.57716">
        <ele>757</ele>
        <time>2012-11-04T10:23:08Z</time>
      </trkpt>
      <trkpt lat="45.28107" lon="5.57714">
        <ele>757</ele>
        <time>2012-11-04T10:23:09Z</time>
      </trkpt>
      <trkpt lat="45.28105" lon="5.57713">
        <ele>757</ele>
        <time>2012-11-04T10:23:10Z</time>
      </trkpt>
      <trkpt lat="45.28103" lon="5.57713">
        <ele>758</ele>
        <time>2012-11-04T10:23:11Z</time>
      </trkpt>
      <trkpt lat="45.28101" lon="5.57711">
        <ele>758</ele>
        <time>2012-11-04T10:23:12Z</time>
      </trkpt>
      <trkpt lat="45.28099" lon="5.57709">
        <ele>758</ele>
        <time>2012-11-04T10:23:13Z</time>
      </trkpt>
      <trkpt lat="45.28097" lon="5.57707">
        <ele>758</ele>
        <time>2012-11-04T10:23:14Z</time>
      </trkpt>
      <trkpt lat="45.28095" lon="5.57705">
        <ele>758</ele>
        <time>2012-11-04T10:23:15Z</time>
      </trkpt>
      <trkpt lat="45.28093" lon="5.57703">
        <ele>758</ele>
        <time>2012-11-04T10:23:16Z</time>
      </trkpt>
      <trkpt lat="45.28091" lon="5.57701">
        <ele>759</ele>
        <time>2012-11-04T10:23:17Z</time>
      </trkpt>
      <trkpt lat="45.28089" lon="5.577">
        <ele>759</ele>
        <time>2012-11-04T10:23:18Z</time>
      </trkpt>
      <trkpt lat="45.28086" lon="5.57698">
        <ele>759</ele>
        <time>2012-11-04T10:23:19Z</time>
      </trkpt>
      <trkpt lat="45.28084" lon="5.57698">
        <ele>758</ele>
        <time>2012-11-04T10:23:20Z</time>
      </trkpt>
      <trkpt lat="45.28082" lon="5.57697">
        <ele>757</ele>
        <time>2012-11-04T10:23:21Z</time>
      </trkpt>
      <trkpt lat="45.28079" lon="5.57697">
        <ele>756</ele>
        <time>2012-11-04T10:23:22Z</time>
      </trkpt>
      <trkpt lat="45.28077" lon="5.57697">
        <ele>756</ele>
        <time>2012-11-04T10:23:23Z</time>
      </trkpt>
      <trkpt lat="45.28075" lon="5.57696">
        <ele>755</ele>
        <time>2012-11-04T10:23:24Z</time>
      </trkpt>
      <trkpt lat="45.28073" lon="5.57694">
        <ele>756</ele>
        <time>2012-11-04T10:23:25Z</time>
      </trkpt>
      <trkpt lat="45.2807" lon="5.57692">
        <ele>756</ele>
        <time>2012-11-04T10:23:26Z</time>
      </trkpt>
      <trkpt lat="45.28068" lon="5.57691">
        <ele>756</ele>
        <time>2012-11-04T10:23:27Z</time>
      </trkpt>
      <trkpt lat="45.28066" lon="5.57691">
        <ele>756</ele>
        <time>2012-11-04T10:23:28Z</time>
      </trkpt>
      <trkpt lat="45.28064" lon="5.57689">
        <ele>755</ele>
        <time>2012-11-04T10:23:29Z</time>
      </trkpt>
      <trkpt lat="45.28062" lon="5.57688">
        <ele>755</ele>
        <time>2012-11-04T10:23:30Z</time>
      </trkpt>
      <trkpt lat="45.28061" lon="5.57686">
        <ele>754</ele>
        <time>2012-11-04T10:23:31Z</time>
      </trkpt>
      <trkpt lat="45.28059" lon="5.57683">
        <ele>753</ele>
        <time>2012-11-04T10:23:32Z</time>
      </trkpt>
      <trkpt lat="45.28057" lon="5.5768">
        <ele>753</ele>
        <time>2012-11-04T10:23:33Z</time>
      </trkpt>
      <trkpt lat="45.28057" lon="5.5768">
        <ele>753</ele>
        <time>2012-11-04T10:23:34Z</time>
      </trkpt>
      <trkpt lat="45.28055" lon="5.57673">
        <ele>754</ele>
        <time>2012-11-04T10:23:35Z</time>
      </trkpt>
      <trkpt lat="45.28055" lon="5.57673">
        <ele>753</ele>
        <time>2012-11-04T10:23:36Z</time>
      </trkpt>
      <trkpt lat="45.28053" lon="5.57667">
        <ele>753</ele>
        <time>2012-11-04T10:23:37Z</time>
      </trkpt>
      <trkpt lat="45.28053" lon="5.57664">
        <ele>751</ele>
        <time>2012-11-04T10:23:38Z</time>
      </trkpt>
      <trkpt lat="45.28052" lon="5.57661">
        <ele>751</ele>
        <time>2012-11-04T10:23:39Z</time>
      </trkpt>
      <trkpt lat="45.28051" lon="5.57657">
        <ele>751</ele>
        <time>2012-11-04T10:23:40Z</time>
      </trkpt>
      <trkpt lat="45.2805" lon="5.57654">
        <ele>749</ele>
        <time>2012-11-04T10:23:41Z</time>
      </trkpt>
      <trkpt lat="45.28049" lon="5.57652">
        <ele>749</ele>
        <time>2012-11-04T10:23:42Z</time>
      </trkpt>
      <trkpt lat="45.28048" lon="5.5765">
        <ele>749</ele>
        <time>2012-11-04T10:23:43Z</time>
      </trkpt>
      <trkpt lat="45.28046" lon="5.57649">
        <ele>745</ele>
        <time>2012-11-04T10:23:44Z</time>
      </trkpt>
      <trkpt lat="45.28045" lon="5.57647">
        <ele>744</ele>
        <time>2012-11-04T10:23:45Z</time>
      </trkpt>
      <trkpt lat="45.28045" lon="5.57647">
        <ele>745</ele>
        <time>2012-11-04T10:23:46Z</time>
      </trkpt>
      <trkpt lat="45.28045" lon="5.57647">
        <ele>746</ele>
        <time>2012-11-04T10:23:47Z</time>
      </trkpt>
      <trkpt lat="45.28045" lon="5.57647">
        <ele>747</ele>
        <time>2012-11-04T10:23:48Z</time>
      </trkpt>
      <trkpt lat="45.28043" lon="5.57641">
        <ele>747</ele>
        <time>2012-11-04T10:23:49Z</time>
      </trkpt>
      <trkpt lat="45.28043" lon="5.57641">
        <ele>747</ele>
        <time>2012-11-04T10:23:50Z</time>
      </trkpt>
      <trkpt lat="45.28043" lon="5.57641">
        <ele>748</ele>
        <time>2012-11-04T10:23:51Z</time>
      </trkpt>
      <trkpt lat="45.28043" lon="5.57641">
        <ele>748</ele>
        <time>2012-11-04T10:23:52Z</time>
      </trkpt>
      <trkpt lat="45.28043" lon="5.57641">
        <ele>748</ele>
        <time>2012-11-04T10:23:53Z</time>
      </trkpt>
      <trkpt lat="45.28043" lon="5.57641">
        <ele>747</ele>
        <time>2012-11-04T10:23:54Z</time>
      </trkpt>
      <trkpt lat="45.28043" lon="5.57641">
        <ele>747</ele>
        <time>2012-11-04T10:23:55Z</time>
      </trkpt>
      <trkpt lat="45.28043" lon="5.57641">
        <ele>747</ele>
        <time>2012-11-04T10:23:56Z</time>
      </trkpt>
      <trkpt lat="45.28043" lon="5.57641">
        <ele>747</ele>
        <time>2012-11-04T10:23:57Z</time>
      </trkpt>
      <trkpt lat="45.28043" lon="5.57641">
        <ele>747</ele>
        <time>2012-11-04T10:23:58Z</time>
      </trkpt>
      <trkpt lat="45.28043" lon="5.57641">
        <ele>747</ele>
        <time>2012-11-04T10:23:59Z</time>
      </trkpt>
      <trkpt lat="45.28043" lon="5.57641">
        <ele>747</ele>
        <time>2012-11-04T10:24:00Z</time>
      </trkpt>
      <trkpt lat="45.28043" lon="5.57641">
        <ele>747</ele>
        <time>2012-11-04T10:24:01Z</time>
      </trkpt>
      <trkpt lat="45.28043" lon="5.57641">
        <ele>747</ele>
        <time>2012-11-04T10:24:02Z</time>
      </trkpt>
      <trkpt lat="45.28043" lon="5.57641">
        <ele>747</ele>
        <time>2012-11-04T10:24:03Z</time>
      </trkpt>
      <trkpt lat="45.28043" lon="5.57641">
        <ele>747</ele>
        <time>2012-11-04T10:24:04Z</time>
      </trkpt>
      <trkpt lat="45.28043" lon="5.57641">
        <ele>747</ele>
        <time>2012-11-04T10:24:05Z</time>
      </trkpt>
      <trkpt lat="45.28043" lon="5.57641">
        <ele>747</ele>
        <time>2012-11-04T10:24:06Z</time>
      </trkpt>
      <trkpt lat="45.28041" lon="5.57639">
        <ele>747</ele>
        <time>2012-11-04T10:24:07Z</time>
      </trkpt>
      <trkpt lat="45.2804" lon="5.57639">
        <ele>747</ele>
        <time>2012-11-04T10:24:08Z</time>
      </trkpt>
      <trkpt lat="45.28038" lon="5.57639">
        <ele>748</ele>
        <time>2012-11-04T10:24:09Z</time>
      </trkpt>
      <trkpt lat="45.28036" lon="5.57639">
        <ele>748</ele>
        <time>2012-11-04T10:24:10Z</time>
      </trkpt>
      <trkpt lat="45.28034" lon="5.57638">
        <ele>749</ele>
        <time>2012-11-04T10:24:11Z</time>
      </trkpt>
      <trkpt lat="45.28032" lon="5.57637">
        <ele>748</ele>
        <time>2012-11-04T10:24:12Z</time>
      </trkpt>
      <trkpt lat="45.2803" lon="5.57636">
        <ele>748</ele>
        <time>2012-11-04T10:24:13Z</time>
      </trkpt>
      <trkpt lat="45.28028" lon="5.57636">
        <ele>749</ele>
        <time>2012-11-04T10:24:14Z</time>
      </trkpt>
      <trkpt lat="45.28027" lon="5.57635">
        <ele>749</ele>
        <time>2012-11-04T10:24:15Z</time>
      </trkpt>
      <trkpt lat="45.28025" lon="5.57635">
        <ele>748</ele>
        <time>2012-11-04T10:24:16Z</time>
      </trkpt>
      <trkpt lat="45.28023" lon="5.57634">
        <ele>749</ele>
        <time>2012-11-04T10:24:17Z</time>
      </trkpt>
      <trkpt lat="45.28021" lon="5.57633">
        <ele>750</ele>
        <time>2012-11-04T10:24:18Z</time>
      </trkpt>
      <trkpt lat="45.2802" lon="5.5763">
        <ele>749</ele>
        <time>2012-11-04T10:24:19Z</time>
      </trkpt>
      <trkpt lat="45.28019" lon="5.57627">
        <ele>750</ele>
        <time>2012-11-04T10:24:20Z</time>
      </trkpt>
      <trkpt lat="45.28018" lon="5.57624">
        <ele>750</ele>
        <time>2012-11-04T10:24:21Z</time>
      </trkpt>
      <trkpt lat="45.28018" lon="5.57621">
        <ele>749</ele>
        <time>2012-11-04T10:24:22Z</time>
      </trkpt>
      <trkpt lat="45.28018" lon="5.57619">
        <ele>749</ele>
        <time>2012-11-04T10:24:23Z</time>
      </trkpt>
      <trkpt lat="45.28017" lon="5.57618">
        <ele>749</ele>
        <time>2012-11-04T10:24:24Z</time>
      </trkpt>
      <trkpt lat="45.28016" lon="5.57617">
        <ele>750</ele>
        <time>2012-11-04T10:24:25Z</time>
      </trkpt>
      <trkpt lat="45.28016" lon="5.57616">
        <ele>755</ele>
        <time>2012-11-04T10:24:26Z</time>
      </trkpt>
      <trkpt lat="45.28016" lon="5.57616">
        <ele>755</ele>
        <time>2012-11-04T10:24:27Z</time>
      </trkpt>
      <trkpt lat="45.28016" lon="5.57616">
        <ele>755</ele>
        <time>2012-11-04T10:24:28Z</time>
      </trkpt>
      <trkpt lat="45.28016" lon="5.57616">
        <ele>755</ele>
        <time>2012-11-04T10:24:29Z</time>
      </trkpt>
      <trkpt lat="45.28016" lon="5.57616">
        <ele>755</ele>
        <time>2012-11-04T10:24:30Z</time>
      </trkpt>
      <trkpt lat="45.28016" lon="5.57616">
        <ele>755</ele>
        <time>2012-11-04T10:24:31Z</time>
      </trkpt>
      <trkpt lat="45.28016" lon="5.57616">
        <ele>755</ele>
        <time>2012-11-04T10:24:32Z</time>
      </trkpt>
      <trkpt lat="45.28016" lon="5.57616">
        <ele>755</ele>
        <time>2012-11-04T10:24:33Z</time>
      </trkpt>
      <trkpt lat="45.28016" lon="5.57616">
        <ele>755</ele>
        <time>2012-11-04T10:24:34Z</time>
      </trkpt>
      <trkpt lat="45.28016" lon="5.57616">
        <ele>756</ele>
        <time>2012-11-04T10:24:35Z</time>
      </trkpt>
      <trkpt lat="45.28016" lon="5.57616">
        <ele>756</ele>
        <time>2012-11-04T10:24:36Z</time>
      </trkpt>
      <trkpt lat="45.28016" lon="5.57616">
        <ele>757</ele>
        <time>2012-11-04T10:24:37Z</time>
      </trkpt>
      <trkpt lat="45.28016" lon="5.57616">
        <ele>757</ele>
        <time>2012-11-04T10:24:38Z</time>
      </trkpt>
      <trkpt lat="45.28016" lon="5.57616">
        <ele>757</ele>
        <time>2012-11-04T10:24:39Z</time>
      </trkpt>
      <trkpt lat="45.28016" lon="5.57616">
        <ele>757</ele>
        <time>2012-11-04T10:24:40Z</time>
      </trkpt>
      <trkpt lat="45.28016" lon="5.57616">
        <ele>757</ele>
        <time>2012-11-04T10:24:41Z</time>
      </trkpt>
      <trkpt lat="45.28016" lon="5.57616">
        <ele>757</ele>
        <time>2012-11-04T10:24:42Z</time>
      </trkpt>
      <trkpt lat="45.28016" lon="5.57616">
        <ele>757</ele>
        <time>2012-11-04T10:24:43Z</time>
      </trkpt>
      <trkpt lat="45.28016" lon="5.57616">
        <ele>757</ele>
        <time>2012-11-04T10:24:44Z</time>
      </trkpt>
      <trkpt lat="45.28016" lon="5.57616">
        <ele>757</ele>
        <time>2012-11-04T10:24:45Z</time>
      </trkpt>
      <trkpt lat="45.28016" lon="5.57616">
        <ele>757</ele>
        <time>2012-11-04T10:24:46Z</time>
      </trkpt>
      <trkpt lat="45.28016" lon="5.57616">
        <ele>757</ele>
        <time>2012-11-04T10:24:47Z</time>
      </trkpt>
      <trkpt lat="45.28016" lon="5.57616">
        <ele>757</ele>
        <time>2012-11-04T10:24:48Z</time>
      </trkpt>
      <trkpt lat="45.28016" lon="5.57616">
        <ele>757</ele>
        <time>2012-11-04T10:24:49Z</time>
      </trkpt>
      <trkpt lat="45.28011" lon="5.57612">
        <ele>760</ele>
        <time>2012-11-04T10:24:50Z</time>
      </trkpt>
      <trkpt lat="45.28009" lon="5.57611">
        <ele>760</ele>
        <time>2012-11-04T10:24:51Z</time>
      </trkpt>
      <trkpt lat="45.28007" lon="5.5761">
        <ele>760</ele>
        <time>2012-11-04T10:24:52Z</time>
      </trkpt>
      <trkpt lat="45.28005" lon="5.57609">
        <ele>761</ele>
        <time>2012-11-04T10:24:53Z</time>
      </trkpt>
      <trkpt lat="45.28004" lon="5.57608">
        <ele>761</ele>
        <time>2012-11-04T10:24:54Z</time>
      </trkpt>
      <trkpt lat="45.28003" lon="5.57607">
        <ele>763</ele>
        <time>2012-11-04T10:24:55Z</time>
      </trkpt>
      <trkpt lat="45.28002" lon="5.57607">
        <ele>763</ele>
        <time>2012-11-04T10:24:56Z</time>
      </trkpt>
      <trkpt lat="45.28002" lon="5.57607">
        <ele>763</ele>
        <time>2012-11-04T10:24:57Z</time>
      </trkpt>
      <trkpt lat="45.28002" lon="5.57607">
        <ele>763</ele>
        <time>2012-11-04T10:24:58Z</time>
      </trkpt>
      <trkpt lat="45.28002" lon="5.57609">
        <ele>764</ele>
        <time>2012-11-04T10:24:59Z</time>
      </trkpt>
      <trkpt lat="45.28002" lon="5.5761">
        <ele>764</ele>
        <time>2012-11-04T10:25:00Z</time>
      </trkpt>
      <trkpt lat="45.28001" lon="5.57611">
        <ele>764</ele>
        <time>2012-11-04T10:25:01Z</time>
      </trkpt>
      <trkpt lat="45.28" lon="5.57612">
        <ele>762</ele>
        <time>2012-11-04T10:25:02Z</time>
      </trkpt>
      <trkpt lat="45.27997" lon="5.57612">
        <ele>764</ele>
        <time>2012-11-04T10:25:03Z</time>
      </trkpt>
      <trkpt lat="45.27995" lon="5.57612">
        <ele>764</ele>
        <time>2012-11-04T10:25:04Z</time>
      </trkpt>
      <trkpt lat="45.27994" lon="5.57611">
        <ele>765</ele>
        <time>2012-11-04T10:25:05Z</time>
      </trkpt>
      <trkpt lat="45.27992" lon="5.57611">
        <ele>766</ele>
        <time>2012-11-04T10:25:06Z</time>
      </trkpt>
      <trkpt lat="45.27991" lon="5.5761">
        <ele>766</ele>
        <time>2012-11-04T10:25:07Z</time>
      </trkpt>
      <trkpt lat="45.27989" lon="5.57609">
        <ele>765</ele>
        <time>2012-11-04T10:25:08Z</time>
      </trkpt>
      <trkpt lat="45.27987" lon="5.57608">
        <ele>765</ele>
        <time>2012-11-04T10:25:09Z</time>
      </trkpt>
      <trkpt lat="45.27985" lon="5.57607">
        <ele>765</ele>
        <time>2012-11-04T10:25:10Z</time>
      </trkpt>
      <trkpt lat="45.27984" lon="5.57607">
        <ele>766</ele>
        <time>2012-11-04T10:25:11Z</time>
      </trkpt>
      <trkpt lat="45.27982" lon="5.57605">
        <ele>765</ele>
        <time>2012-11-04T10:25:12Z</time>
      </trkpt>
      <trkpt lat="45.27981" lon="5.57605">
        <ele>766</ele>
        <time>2012-11-04T10:25:13Z</time>
      </trkpt>
      <trkpt lat="45.2798" lon="5.57604">
        <ele>766</ele>
        <time>2012-11-04T10:25:14Z</time>
      </trkpt>
      <trkpt lat="45.27978" lon="5.57603">
        <ele>766</ele>
        <time>2012-11-04T10:25:15Z</time>
      </trkpt>
      <trkpt lat="45.27976" lon="5.57603">
        <ele>766</ele>
        <time>2012-11-04T10:25:16Z</time>
      </trkpt>
      <trkpt lat="45.27974" lon="5.57602">
        <ele>766</ele>
        <time>2012-11-04T10:25:17Z</time>
      </trkpt>
      <trkpt lat="45.27972" lon="5.57602">
        <ele>766</ele>
        <time>2012-11-04T10:25:18Z</time>
      </trkpt>
      <trkpt lat="45.2797" lon="5.57602">
        <ele>767</ele>
        <time>2012-11-04T10:25:19Z</time>
      </trkpt>
      <trkpt lat="45.27967" lon="5.57601">
        <ele>771</ele>
        <time>2012-11-04T10:25:20Z</time>
      </trkpt>
      <trkpt lat="45.27965" lon="5.57602">
        <ele>771</ele>
        <time>2012-11-04T10:25:21Z</time>
      </trkpt>
      <trkpt lat="45.27964" lon="5.57602">
        <ele>771</ele>
        <time>2012-11-04T10:25:22Z</time>
      </trkpt>
      <trkpt lat="45.27963" lon="5.57603">
        <ele>770</ele>
        <time>2012-11-04T10:25:23Z</time>
      </trkpt>
      <trkpt lat="45.27961" lon="5.57603">
        <ele>771</ele>
        <time>2012-11-04T10:25:24Z</time>
      </trkpt>
      <trkpt lat="45.2796" lon="5.57604">
        <ele>770</ele>
        <time>2012-11-04T10:25:25Z</time>
      </trkpt>
      <trkpt lat="45.27959" lon="5.57604">
        <ele>770</ele>
        <time>2012-11-04T10:25:26Z</time>
      </trkpt>
      <trkpt lat="45.27957" lon="5.57604">
        <ele>769</ele>
        <time>2012-11-04T10:25:27Z</time>
      </trkpt>
      <trkpt lat="45.27955" lon="5.57604">
        <ele>769</ele>
        <time>2012-11-04T10:25:28Z</time>
      </trkpt>
      <trkpt lat="45.27953" lon="5.57604">
        <ele>769</ele>
        <time>2012-11-04T10:25:29Z</time>
      </trkpt>
      <trkpt lat="45.27952" lon="5.57603">
        <ele>772</ele>
        <time>2012-11-04T10:25:30Z</time>
      </trkpt>
      <trkpt lat="45.2795" lon="5.57602">
        <ele>771</ele>
        <time>2012-11-04T10:25:31Z</time>
      </trkpt>
      <trkpt lat="45.27949" lon="5.57601">
        <ele>772</ele>
        <time>2012-11-04T10:25:32Z</time>
      </trkpt>
      <trkpt lat="45.27947" lon="5.576">
        <ele>772</ele>
        <time>2012-11-04T10:25:33Z</time>
      </trkpt>
      <trkpt lat="45.27946" lon="5.57599">
        <ele>771</ele>
        <time>2012-11-04T10:25:34Z</time>
      </trkpt>
      <trkpt lat="45.27944" lon="5.57599">
        <ele>772</ele>
        <time>2012-11-04T10:25:35Z</time>
      </trkpt>
      <trkpt lat="45.27943" lon="5.57598">
        <ele>772</ele>
        <time>2012-11-04T10:25:36Z</time>
      </trkpt>
      <trkpt lat="45.27943" lon="5.57598">
        <ele>771</ele>
        <time>2012-11-04T10:25:37Z</time>
      </trkpt>
      <trkpt lat="45.27942" lon="5.57598">
        <ele>770</ele>
        <time>2012-11-04T10:25:38Z</time>
      </trkpt>
      <trkpt lat="45.27942" lon="5.57599">
        <ele>770</ele>
        <time>2012-11-04T10:25:39Z</time>
      </trkpt>
      <trkpt lat="45.27943" lon="5.576">
        <ele>770</ele>
        <time>2012-11-04T10:25:40Z</time>
      </trkpt>
      <trkpt lat="45.27943" lon="5.57601">
        <ele>770</ele>
        <time>2012-11-04T10:25:41Z</time>
      </trkpt>
      <trkpt lat="45.27944" lon="5.57602">
        <ele>770</ele>
        <time>2012-11-04T10:25:42Z</time>
      </trkpt>
      <trkpt lat="45.27945" lon="5.57603">
        <ele>770</ele>
        <time>2012-11-04T10:25:43Z</time>
      </trkpt>
      <trkpt lat="45.27945" lon="5.57604">
        <ele>770</ele>
        <time>2012-11-04T10:25:44Z</time>
      </trkpt>
      <trkpt lat="45.27945" lon="5.57605">
        <ele>770</ele>
        <time>2012-11-04T10:25:45Z</time>
      </trkpt>
      <trkpt lat="45.27945" lon="5.57606">
        <ele>771</ele>
        <time>2012-11-04T10:25:46Z</time>
      </trkpt>
      <trkpt lat="45.27944" lon="5.57606">
        <ele>770</ele>
        <time>2012-11-04T10:25:47Z</time>
      </trkpt>
      <trkpt lat="45.27942" lon="5.57607">
        <ele>770</ele>
        <time>2012-11-04T10:25:48Z</time>
      </trkpt>
      <trkpt lat="45.27941" lon="5.57608">
        <ele>771</ele>
        <time>2012-11-04T10:25:49Z</time>
      </trkpt>
      <trkpt lat="45.27939" lon="5.57609">
        <ele>770</ele>
        <time>2012-11-04T10:25:50Z</time>
      </trkpt>
      <trkpt lat="45.27937" lon="5.5761">
        <ele>771</ele>
        <time>2012-11-04T10:25:51Z</time>
      </trkpt>
      <trkpt lat="45.27936" lon="5.5761">
        <ele>771</ele>
        <time>2012-11-04T10:25:52Z</time>
      </trkpt>
      <trkpt lat="45.27934" lon="5.57611">
        <ele>772</ele>
        <time>2012-11-04T10:25:53Z</time>
      </trkpt>
      <trkpt lat="45.27932" lon="5.57611">
        <ele>773</ele>
        <time>2012-11-04T10:25:54Z</time>
      </trkpt>
      <trkpt lat="45.2793" lon="5.57611">
        <ele>773</ele>
        <time>2012-11-04T10:25:55Z</time>
      </trkpt>
      <trkpt lat="45.27928" lon="5.57611">
        <ele>773</ele>
        <time>2012-11-04T10:25:56Z</time>
      </trkpt>
      <trkpt lat="45.27927" lon="5.57612">
        <ele>774</ele>
        <time>2012-11-04T10:25:57Z</time>
      </trkpt>
      <trkpt lat="45.27925" lon="5.57612">
        <ele>773</ele>
        <time>2012-11-04T10:25:58Z</time>
      </trkpt>
      <trkpt lat="45.27924" lon="5.57613">
        <ele>774</ele>
        <time>2012-11-04T10:25:59Z</time>
      </trkpt>
      <trkpt lat="45.27923" lon="5.57613">
        <ele>774</ele>
        <time>2012-11-04T10:26:00Z</time>
      </trkpt>
      <trkpt lat="45.27921" lon="5.57613">
        <ele>774</ele>
        <time>2012-11-04T10:26:01Z</time>
      </trkpt>
      <trkpt lat="45.2792" lon="5.57613">
        <ele>773</ele>
        <time>2012-11-04T10:26:02Z</time>
      </trkpt>
      <trkpt lat="45.27918" lon="5.57613">
        <ele>774</ele>
        <time>2012-11-04T10:26:03Z</time>
      </trkpt>
      <trkpt lat="45.27917" lon="5.57614">
        <ele>774</ele>
        <time>2012-11-04T10:26:04Z</time>
      </trkpt>
      <trkpt lat="45.27915" lon="5.57614">
        <ele>774</ele>
        <time>2012-11-04T10:26:05Z</time>
      </trkpt>
      <trkpt lat="45.27914" lon="5.57615">
        <ele>774</ele>
        <time>2012-11-04T10:26:06Z</time>
      </trkpt>
      <trkpt lat="45.27913" lon="5.57615">
        <ele>773</ele>
        <time>2012-11-04T10:26:07Z</time>
      </trkpt>
      <trkpt lat="45.27911" lon="5.57616">
        <ele>773</ele>
        <time>2012-11-04T10:26:08Z</time>
      </trkpt>
      <trkpt lat="45.2791" lon="5.57617">
        <ele>773</ele>
        <time>2012-11-04T10:26:09Z</time>
      </trkpt>
      <trkpt lat="45.27908" lon="5.57618">
        <ele>772</ele>
        <time>2012-11-04T10:26:10Z</time>
      </trkpt>
      <trkpt lat="45.27906" lon="5.57619">
        <ele>772</ele>
        <time>2012-11-04T10:26:11Z</time>
      </trkpt>
      <trkpt lat="45.27904" lon="5.5762">
        <ele>772</ele>
        <time>2012-11-04T10:26:12Z</time>
      </trkpt>
      <trkpt lat="45.27903" lon="5.57621">
        <ele>772</ele>
        <time>2012-11-04T10:26:13Z</time>
      </trkpt>
      <trkpt lat="45.27902" lon="5.57621">
        <ele>773</ele>
        <time>2012-11-04T10:26:14Z</time>
      </trkpt>
      <trkpt lat="45.27901" lon="5.57621">
        <ele>773</ele>
        <time>2012-11-04T10:26:15Z</time>
      </trkpt>
      <trkpt lat="45.279" lon="5.57622">
        <ele>773</ele>
        <time>2012-11-04T10:26:16Z</time>
      </trkpt>
      <trkpt lat="45.27899" lon="5.57622">
        <ele>775</ele>
        <time>2012-11-04T10:26:17Z</time>
      </trkpt>
      <trkpt lat="45.27898" lon="5.57623">
        <ele>776</ele>
        <time>2012-11-04T10:26:18Z</time>
      </trkpt>
      <trkpt lat="45.27897" lon="5.57624">
        <ele>775</ele>
        <time>2012-11-04T10:26:19Z</time>
      </trkpt>
      <trkpt lat="45.27895" lon="5.57625">
        <ele>776</ele>
        <time>2012-11-04T10:26:20Z</time>
      </trkpt>
      <trkpt lat="45.27894" lon="5.57626">
        <ele>776</ele>
        <time>2012-11-04T10:26:21Z</time>
      </trkpt>
      <trkpt lat="45.27893" lon="5.57628">
        <ele>776</ele>
        <time>2012-11-04T10:26:22Z</time>
      </trkpt>
      <trkpt lat="45.27892" lon="5.57629">
        <ele>777</ele>
        <time>2012-11-04T10:26:23Z</time>
      </trkpt>
      <trkpt lat="45.27891" lon="5.5763">
        <ele>777</ele>
        <time>2012-11-04T10:26:24Z</time>
      </trkpt>
      <trkpt lat="45.27889" lon="5.57631">
        <ele>777</ele>
        <time>2012-11-04T10:26:25Z</time>
      </trkpt>
      <trkpt lat="45.27887" lon="5.57632">
        <ele>777</ele>
        <time>2012-11-04T10:26:26Z</time>
      </trkpt>
      <trkpt lat="45.27885" lon="5.57633">
        <ele>777</ele>
        <time>2012-11-04T10:26:27Z</time>
      </trkpt>
      <trkpt lat="45.27884" lon="5.57634">
        <ele>778</ele>
        <time>2012-11-04T10:26:28Z</time>
      </trkpt>
      <trkpt lat="45.27882" lon="5.57634">
        <ele>778</ele>
        <time>2012-11-04T10:26:29Z</time>
      </trkpt>
      <trkpt lat="45.2788" lon="5.57635">
        <ele>777</ele>
        <time>2012-11-04T10:26:30Z</time>
      </trkpt>
      <trkpt lat="45.27878" lon="5.57636">
        <ele>776</ele>
        <time>2012-11-04T10:26:31Z</time>
      </trkpt>
      <trkpt lat="45.27877" lon="5.57636">
        <ele>777</ele>
        <time>2012-11-04T10:26:32Z</time>
      </trkpt>
      <trkpt lat="45.27876" lon="5.57637">
        <ele>776</ele>
        <time>2012-11-04T10:26:33Z</time>
      </trkpt>
      <trkpt lat="45.27875" lon="5.57639">
        <ele>776</ele>
        <time>2012-11-04T10:26:34Z</time>
      </trkpt>
      <trkpt lat="45.27874" lon="5.5764">
        <ele>776</ele>
        <time>2012-11-04T10:26:35Z</time>
      </trkpt>
      <trkpt lat="45.27872" lon="5.57642">
        <ele>776</ele>
        <time>2012-11-04T10:26:36Z</time>
      </trkpt>
      <trkpt lat="45.27871" lon="5.57643">
        <ele>775</ele>
        <time>2012-11-04T10:26:37Z</time>
      </trkpt>
      <trkpt lat="45.2787" lon="5.57645">
        <ele>775</ele>
        <time>2012-11-04T10:26:38Z</time>
      </trkpt>
      <trkpt lat="45.27868" lon="5.57646">
        <ele>775</ele>
        <time>2012-11-04T10:26:39Z</time>
      </trkpt>
      <trkpt lat="45.27867" lon="5.57648">
        <ele>774</ele>
        <time>2012-11-04T10:26:40Z</time>
      </trkpt>
      <trkpt lat="45.27865" lon="5.5765">
        <ele>774</ele>
        <time>2012-11-04T10:26:41Z</time>
      </trkpt>
      <trkpt lat="45.27864" lon="5.57651">
        <ele>774</ele>
        <time>2012-11-04T10:26:42Z</time>
      </trkpt>
      <trkpt lat="45.27863" lon="5.57652">
        <ele>773</ele>
        <time>2012-11-04T10:26:43Z</time>
      </trkpt>
      <trkpt lat="45.27863" lon="5.57653">
        <ele>772</ele>
        <time>2012-11-04T10:26:44Z</time>
      </trkpt>
      <trkpt lat="45.27863" lon="5.57655">
        <ele>771</ele>
        <time>2012-11-04T10:26:45Z</time>
      </trkpt>
      <trkpt lat="45.27863" lon="5.57657">
        <ele>772</ele>
        <time>2012-11-04T10:26:46Z</time>
      </trkpt>
      <trkpt lat="45.27863" lon="5.57658">
        <ele>772</ele>
        <time>2012-11-04T10:26:47Z</time>
      </trkpt>
      <trkpt lat="45.27862" lon="5.5766">
        <ele>772</ele>
        <time>2012-11-04T10:26:48Z</time>
      </trkpt>
      <trkpt lat="45.27862" lon="5.57661">
        <ele>772</ele>
        <time>2012-11-04T10:26:49Z</time>
      </trkpt>
      <trkpt lat="45.27861" lon="5.57661">
        <ele>772</ele>
        <time>2012-11-04T10:26:50Z</time>
      </trkpt>
      <trkpt lat="45.2786" lon="5.57662">
        <ele>774</ele>
        <time>2012-11-04T10:26:51Z</time>
      </trkpt>
      <trkpt lat="45.27858" lon="5.57663">
        <ele>773</ele>
        <time>2012-11-04T10:26:52Z</time>
      </trkpt>
      <trkpt lat="45.27857" lon="5.57664">
        <ele>773</ele>
        <time>2012-11-04T10:26:53Z</time>
      </trkpt>
      <trkpt lat="45.27855" lon="5.57664">
        <ele>772</ele>
        <time>2012-11-04T10:26:54Z</time>
      </trkpt>
      <trkpt lat="45.27853" lon="5.57665">
        <ele>772</ele>
        <time>2012-11-04T10:26:55Z</time>
      </trkpt>
      <trkpt lat="45.27851" lon="5.57665">
        <ele>772</ele>
        <time>2012-11-04T10:26:56Z</time>
      </trkpt>
      <trkpt lat="45.27849" lon="5.57666">
        <ele>772</ele>
        <time>2012-11-04T10:26:57Z</time>
      </trkpt>
      <trkpt lat="45.27847" lon="5.57666">
        <ele>771</ele>
        <time>2012-11-04T10:26:58Z</time>
      </trkpt>
      <trkpt lat="45.27844" lon="5.57666">
        <ele>770</ele>
        <time>2012-11-04T10:26:59Z</time>
      </trkpt>
      <trkpt lat="45.27842" lon="5.57666">
        <ele>769</ele>
        <time>2012-11-04T10:27:00Z</time>
      </trkpt>
      <trkpt lat="45.27841" lon="5.57667">
        <ele>769</ele>
        <time>2012-11-04T10:27:01Z</time>
      </trkpt>
      <trkpt lat="45.27839" lon="5.57667">
        <ele>769</ele>
        <time>2012-11-04T10:27:02Z</time>
      </trkpt>
      <trkpt lat="45.27838" lon="5.57668">
        <ele>769</ele>
        <time>2012-11-04T10:27:03Z</time>
      </trkpt>
      <trkpt lat="45.27837" lon="5.57669">
        <ele>768</ele>
        <time>2012-11-04T10:27:04Z</time>
      </trkpt>
      <trkpt lat="45.27835" lon="5.5767">
        <ele>769</ele>
        <time>2012-11-04T10:27:05Z</time>
      </trkpt>
      <trkpt lat="45.27834" lon="5.57671">
        <ele>769</ele>
        <time>2012-11-04T10:27:06Z</time>
      </trkpt>
      <trkpt lat="45.27832" lon="5.57672">
        <ele>770</ele>
        <time>2012-11-04T10:27:07Z</time>
      </trkpt>
      <trkpt lat="45.27831" lon="5.57672">
        <ele>770</ele>
        <time>2012-11-04T10:27:08Z</time>
      </trkpt>
      <trkpt lat="45.2783" lon="5.57673">
        <ele>770</ele>
        <time>2012-11-04T10:27:09Z</time>
      </trkpt>
      <trkpt lat="45.27829" lon="5.57673">
        <ele>770</ele>
        <time>2012-11-04T10:27:10Z</time>
      </trkpt>
      <trkpt lat="45.27827" lon="5.57673">
        <ele>770</ele>
        <time>2012-11-04T10:27:11Z</time>
      </trkpt>
      <trkpt lat="45.27825" lon="5.57673">
        <ele>771</ele>
        <time>2012-11-04T10:27:12Z</time>
      </trkpt>
      <trkpt lat="45.27824" lon="5.57673">
        <ele>771</ele>
        <time>2012-11-04T10:27:13Z</time>
      </trkpt>
      <trkpt lat="45.27822" lon="5.57673">
        <ele>771</ele>
        <time>2012-11-04T10:27:14Z</time>
      </trkpt>
      <trkpt lat="45.27821" lon="5.57673">
        <ele>772</ele>
        <time>2012-11-04T10:27:15Z</time>
      </trkpt>
      <trkpt lat="45.27819" lon="5.57673">
        <ele>773</ele>
        <time>2012-11-04T10:27:16Z</time>
      </trkpt>
      <trkpt lat="45.27818" lon="5.57672">
        <ele>773</ele>
        <time>2012-11-04T10:27:17Z</time>
      </trkpt>
      <trkpt lat="45.27816" lon="5.57672">
        <ele>774</ele>
        <time>2012-11-04T10:27:18Z</time>
      </trkpt>
      <trkpt lat="45.27815" lon="5.57672">
        <ele>774</ele>
        <time>2012-11-04T10:27:19Z</time>
      </trkpt>
      <trkpt lat="45.27814" lon="5.57672">
        <ele>775</ele>
        <time>2012-11-04T10:27:20Z</time>
      </trkpt>
      <trkpt lat="45.27813" lon="5.57671">
        <ele>775</ele>
        <time>2012-11-04T10:27:21Z</time>
      </trkpt>
      <trkpt lat="45.27812" lon="5.57671">
        <ele>775</ele>
        <time>2012-11-04T10:27:22Z</time>
      </trkpt>
      <trkpt lat="45.27811" lon="5.57671">
        <ele>775</ele>
        <time>2012-11-04T10:27:23Z</time>
      </trkpt>
      <trkpt lat="45.2781" lon="5.57671">
        <ele>776</ele>
        <time>2012-11-04T10:27:24Z</time>
      </trkpt>
      <trkpt lat="45.27808" lon="5.5767">
        <ele>776</ele>
        <time>2012-11-04T10:27:25Z</time>
      </trkpt>
      <trkpt lat="45.27806" lon="5.57669">
        <ele>777</ele>
        <time>2012-11-04T10:27:26Z</time>
      </trkpt>
      <trkpt lat="45.27804" lon="5.57668">
        <ele>778</ele>
        <time>2012-11-04T10:27:27Z</time>
      </trkpt>
      <trkpt lat="45.27802" lon="5.57667">
        <ele>779</ele>
        <time>2012-11-04T10:27:28Z</time>
      </trkpt>
      <trkpt lat="45.278" lon="5.57665">
        <ele>780</ele>
        <time>2012-11-04T10:27:29Z</time>
      </trkpt>
      <trkpt lat="45.27797" lon="5.57664">
        <ele>781</ele>
        <time>2012-11-04T10:27:30Z</time>
      </trkpt>
      <trkpt lat="45.27795" lon="5.57663">
        <ele>781</ele>
        <time>2012-11-04T10:27:31Z</time>
      </trkpt>
      <trkpt lat="45.27793" lon="5.57662">
        <ele>780</ele>
        <time>2012-11-04T10:27:32Z</time>
      </trkpt>
      <trkpt lat="45.27791" lon="5.57661">
        <ele>780</ele>
        <time>2012-11-04T10:27:33Z</time>
      </trkpt>
      <trkpt lat="45.2779" lon="5.5766">
        <ele>779</ele>
        <time>2012-11-04T10:27:34Z</time>
      </trkpt>
      <trkpt lat="45.27788" lon="5.5766">
        <ele>778</ele>
        <time>2012-11-04T10:27:35Z</time>
      </trkpt>
      <trkpt lat="45.27787" lon="5.57659">
        <ele>778</ele>
        <time>2012-11-04T10:27:36Z</time>
      </trkpt>
      <trkpt lat="45.27785" lon="5.57659">
        <ele>779</ele>
        <time>2012-11-04T10:27:37Z</time>
      </trkpt>
      <trkpt lat="45.27783" lon="5.57658">
        <ele>779</ele>
        <time>2012-11-04T10:27:38Z</time>
      </trkpt>
      <trkpt lat="45.27781" lon="5.57657">
        <ele>779</ele>
        <time>2012-11-04T10:27:39Z</time>
      </trkpt>
      <trkpt lat="45.2778" lon="5.57657">
        <ele>782</ele>
        <time>2012-11-04T10:27:40Z</time>
      </trkpt>
      <trkpt lat="45.27778" lon="5.57658">
        <ele>783</ele>
        <time>2012-11-04T10:27:41Z</time>
      </trkpt>
      <trkpt lat="45.27777" lon="5.57658">
        <ele>782</ele>
        <time>2012-11-04T10:27:42Z</time>
      </trkpt>
      <trkpt lat="45.27776" lon="5.57658">
        <ele>783</ele>
        <time>2012-11-04T10:27:43Z</time>
      </trkpt>
      <trkpt lat="45.27775" lon="5.57659">
        <ele>784</ele>
        <time>2012-11-04T10:27:44Z</time>
      </trkpt>
      <trkpt lat="45.27774" lon="5.57659">
        <ele>784</ele>
        <time>2012-11-04T10:27:45Z</time>
      </trkpt>
      <trkpt lat="45.27773" lon="5.57659">
        <ele>785</ele>
        <time>2012-11-04T10:27:46Z</time>
      </trkpt>
      <trkpt lat="45.27772" lon="5.57659">
        <ele>784</ele>
        <time>2012-11-04T10:27:47Z</time>
      </trkpt>
      <trkpt lat="45.27771" lon="5.57659">
        <ele>783</ele>
        <time>2012-11-04T10:27:48Z</time>
      </trkpt>
      <trkpt lat="45.2777" lon="5.57659">
        <ele>783</ele>
        <time>2012-11-04T10:27:49Z</time>
      </trkpt>
      <trkpt lat="45.27769" lon="5.5766">
        <ele>783</ele>
        <time>2012-11-04T10:27:50Z</time>
      </trkpt>
      <trkpt lat="45.27768" lon="5.5766">
        <ele>783</ele>
        <time>2012-11-04T10:27:51Z</time>
      </trkpt>
      <trkpt lat="45.27766" lon="5.5766">
        <ele>783</ele>
        <time>2012-11-04T10:27:52Z</time>
      </trkpt>
      <trkpt lat="45.27766" lon="5.57659">
        <ele>781</ele>
        <time>2012-11-04T10:27:53Z</time>
      </trkpt>
      <trkpt lat="45.27765" lon="5.57659">
        <ele>781</ele>
        <time>2012-11-04T10:27:54Z</time>
      </trkpt>
      <trkpt lat="45.27764" lon="5.57658">
        <ele>783</ele>
        <time>2012-11-04T10:27:55Z</time>
      </trkpt>
      <trkpt lat="45.27763" lon="5.57658">
        <ele>783</ele>
        <time>2012-11-04T10:27:56Z</time>
      </trkpt>
      <trkpt lat="45.27762" lon="5.57657">
        <ele>784</ele>
        <time>2012-11-04T10:27:57Z</time>
      </trkpt>
      <trkpt lat="45.27761" lon="5.57657">
        <ele>785</ele>
        <time>2012-11-04T10:27:58Z</time>
      </trkpt>
      <trkpt lat="45.27759" lon="5.57657">
        <ele>785</ele>
        <time>2012-11-04T10:27:59Z</time>
      </trkpt>
      <trkpt lat="45.27758" lon="5.57656">
        <ele>785</ele>
        <time>2012-11-04T10:28:00Z</time>
      </trkpt>
      <trkpt lat="45.27756" lon="5.57656">
        <ele>785</ele>
        <time>2012-11-04T10:28:01Z</time>
      </trkpt>
      <trkpt lat="45.27755" lon="5.57656">
        <ele>786</ele>
        <time>2012-11-04T10:28:02Z</time>
      </trkpt>
      <trkpt lat="45.27753" lon="5.57656">
        <ele>786</ele>
        <time>2012-11-04T10:28:03Z</time>
      </trkpt>
      <trkpt lat="45.27752" lon="5.57656">
        <ele>785</ele>
        <time>2012-11-04T10:28:04Z</time>
      </trkpt>
      <trkpt lat="45.27751" lon="5.57656">
        <ele>785</ele>
        <time>2012-11-04T10:28:05Z</time>
      </trkpt>
      <trkpt lat="45.27749" lon="5.57657">
        <ele>786</ele>
        <time>2012-11-04T10:28:06Z</time>
      </trkpt>
      <trkpt lat="45.27747" lon="5.57657">
        <ele>786</ele>
        <time>2012-11-04T10:28:07Z</time>
      </trkpt>
      <trkpt lat="45.27745" lon="5.57657">
        <ele>786</ele>
        <time>2012-11-04T10:28:08Z</time>
      </trkpt>
      <trkpt lat="45.27744" lon="5.57656">
        <ele>785</ele>
        <time>2012-11-04T10:28:09Z</time>
      </trkpt>
      <trkpt lat="45.27742" lon="5.57656">
        <ele>785</ele>
        <time>2012-11-04T10:28:10Z</time>
      </trkpt>
      <trkpt lat="45.2774" lon="5.57657">
        <ele>785</ele>
        <time>2012-11-04T10:28:11Z</time>
      </trkpt>
      <trkpt lat="45.27738" lon="5.57657">
        <ele>785</ele>
        <time>2012-11-04T10:28:12Z</time>
      </trkpt>
      <trkpt lat="45.27736" lon="5.57658">
        <ele>785</ele>
        <time>2012-11-04T10:28:13Z</time>
      </trkpt>
      <trkpt lat="45.27733" lon="5.57658">
        <ele>785</ele>
        <time>2012-11-04T10:28:14Z</time>
      </trkpt>
      <trkpt lat="45.27731" lon="5.57658">
        <ele>784</ele>
        <time>2012-11-04T10:28:15Z</time>
      </trkpt>
      <trkpt lat="45.27728" lon="5.57658">
        <ele>785</ele>
        <time>2012-11-04T10:28:16Z</time>
      </trkpt>
      <trkpt lat="45.27725" lon="5.57658">
        <ele>784</ele>
        <time>2012-11-04T10:28:17Z</time>
      </trkpt>
      <trkpt lat="45.27723" lon="5.57658">
        <ele>784</ele>
        <time>2012-11-04T10:28:18Z</time>
      </trkpt>
      <trkpt lat="45.27721" lon="5.57658">
        <ele>784</ele>
        <time>2012-11-04T10:28:19Z</time>
      </trkpt>
      <trkpt lat="45.27718" lon="5.57658">
        <ele>784</ele>
        <time>2012-11-04T10:28:20Z</time>
      </trkpt>
      <trkpt lat="45.27715" lon="5.57658">
        <ele>784</ele>
        <time>2012-11-04T10:28:21Z</time>
      </trkpt>
      <trkpt lat="45.27712" lon="5.57659">
        <ele>783</ele>
        <time>2012-11-04T10:28:22Z</time>
      </trkpt>
      <trkpt lat="45.27709" lon="5.5766">
        <ele>784</ele>
        <time>2012-11-04T10:28:23Z</time>
      </trkpt>
      <trkpt lat="45.27706" lon="5.5766">
        <ele>783</ele>
        <time>2012-11-04T10:28:24Z</time>
      </trkpt>
      <trkpt lat="45.27703" lon="5.57661">
        <ele>783</ele>
        <time>2012-11-04T10:28:25Z</time>
      </trkpt>
      <trkpt lat="45.277" lon="5.57662">
        <ele>784</ele>
        <time>2012-11-04T10:28:26Z</time>
      </trkpt>
      <trkpt lat="45.27698" lon="5.57662">
        <ele>784</ele>
        <time>2012-11-04T10:28:27Z</time>
      </trkpt>
      <trkpt lat="45.27695" lon="5.57662">
        <ele>783</ele>
        <time>2012-11-04T10:28:28Z</time>
      </trkpt>
      <trkpt lat="45.27693" lon="5.57662">
        <ele>783</ele>
        <time>2012-11-04T10:28:29Z</time>
      </trkpt>
      <trkpt lat="45.2769" lon="5.57662">
        <ele>783</ele>
        <time>2012-11-04T10:28:30Z</time>
      </trkpt>
      <trkpt lat="45.27687" lon="5.57662">
        <ele>783</ele>
        <time>2012-11-04T10:28:31Z</time>
      </trkpt>
      <trkpt lat="45.27684" lon="5.57661">
        <ele>783</ele>
        <time>2012-11-04T10:28:32Z</time>
      </trkpt>
      <trkpt lat="45.27682" lon="5.57661">
        <ele>783</ele>
        <time>2012-11-04T10:28:33Z</time>
      </trkpt>
      <trkpt lat="45.27679" lon="5.5766">
        <ele>784</ele>
        <time>2012-11-04T10:28:34Z</time>
      </trkpt>
      <trkpt lat="45.27677" lon="5.57659">
        <ele>783</ele>
        <time>2012-11-04T10:28:35Z</time>
      </trkpt>
      <trkpt lat="45.27674" lon="5.57659">
        <ele>782</ele>
        <time>2012-11-04T10:28:36Z</time>
      </trkpt>
      <trkpt lat="45.27672" lon="5.57658">
        <ele>780</ele>
        <time>2012-11-04T10:28:37Z</time>
      </trkpt>
      <trkpt lat="45.27669" lon="5.57657">
        <ele>780</ele>
        <time>2012-11-04T10:28:38Z</time>
      </trkpt>
      <trkpt lat="45.27667" lon="5.57656">
        <ele>780</ele>
        <time>2012-11-04T10:28:39Z</time>
      </trkpt>
      <trkpt lat="45.27666" lon="5.57656">
        <ele>782</ele>
        <time>2012-11-04T10:28:40Z</time>
      </trkpt>
      <trkpt lat="45.27664" lon="5.57655">
        <ele>782</ele>
        <time>2012-11-04T10:28:41Z</time>
      </trkpt>
      <trkpt lat="45.27663" lon="5.57655">
        <ele>783</ele>
        <time>2012-11-04T10:28:42Z</time>
      </trkpt>
      <trkpt lat="45.27662" lon="5.57655">
        <ele>783</ele>
        <time>2012-11-04T10:28:43Z</time>
      </trkpt>
      <trkpt lat="45.27661" lon="5.57655">
        <ele>783</ele>
        <time>2012-11-04T10:28:44Z</time>
      </trkpt>
      <trkpt lat="45.27659" lon="5.57656">
        <ele>784</ele>
        <time>2012-11-04T10:28:45Z</time>
      </trkpt>
      <trkpt lat="45.27658" lon="5.57656">
        <ele>784</ele>
        <time>2012-11-04T10:28:46Z</time>
      </trkpt>
      <trkpt lat="45.27657" lon="5.57656">
        <ele>785</ele>
        <time>2012-11-04T10:28:47Z</time>
      </trkpt>
      <trkpt lat="45.27655" lon="5.57657">
        <ele>784</ele>
        <time>2012-11-04T10:28:48Z</time>
      </trkpt>
      <trkpt lat="45.27654" lon="5.57657">
        <ele>783</ele>
        <time>2012-11-04T10:28:49Z</time>
      </trkpt>
      <trkpt lat="45.27652" lon="5.57657">
        <ele>783</ele>
        <time>2012-11-04T10:28:50Z</time>
      </trkpt>
      <trkpt lat="45.27651" lon="5.57657">
        <ele>783</ele>
        <time>2012-11-04T10:28:51Z</time>
      </trkpt>
      <trkpt lat="45.2765" lon="5.57657">
        <ele>784</ele>
        <time>2012-11-04T10:28:52Z</time>
      </trkpt>
      <trkpt lat="45.27648" lon="5.57657">
        <ele>785</ele>
        <time>2012-11-04T10:28:53Z</time>
      </trkpt>
      <trkpt lat="45.27647" lon="5.57658">
        <ele>785</ele>
        <time>2012-11-04T10:28:54Z</time>
      </trkpt>
      <trkpt lat="45.27646" lon="5.57658">
        <ele>786</ele>
        <time>2012-11-04T10:28:55Z</time>
      </trkpt>
      <trkpt lat="45.27645" lon="5.57659">
        <ele>784</ele>
        <time>2012-11-04T10:28:56Z</time>
      </trkpt>
      <trkpt lat="45.27644" lon="5.57659">
        <ele>785</ele>
        <time>2012-11-04T10:28:57Z</time>
      </trkpt>
      <trkpt lat="45.27642" lon="5.5766">
        <ele>785</ele>
        <time>2012-11-04T10:28:58Z</time>
      </trkpt>
      <trkpt lat="45.27641" lon="5.5766">
        <ele>784</ele>
        <time>2012-11-04T10:28:59Z</time>
      </trkpt>
      <trkpt lat="45.2764" lon="5.5766">
        <ele>785</ele>
        <time>2012-11-04T10:29:00Z</time>
      </trkpt>
      <trkpt lat="45.27638" lon="5.5766">
        <ele>784</ele>
        <time>2012-11-04T10:29:01Z</time>
      </trkpt>
      <trkpt lat="45.27637" lon="5.57661">
        <ele>785</ele>
        <time>2012-11-04T10:29:02Z</time>
      </trkpt>
      <trkpt lat="45.27636" lon="5.57661">
        <ele>786</ele>
        <time>2012-11-04T10:29:03Z</time>
      </trkpt>
      <trkpt lat="45.27635" lon="5.57662">
        <ele>786</ele>
        <time>2012-11-04T10:29:04Z</time>
      </trkpt>
      <trkpt lat="45.27633" lon="5.57663">
        <ele>787</ele>
        <time>2012-11-04T10:29:05Z</time>
      </trkpt>
      <trkpt lat="45.27632" lon="5.57664">
        <ele>788</ele>
        <time>2012-11-04T10:29:06Z</time>
      </trkpt>
      <trkpt lat="45.2763" lon="5.57664">
        <ele>788</ele>
        <time>2012-11-04T10:29:07Z</time>
      </trkpt>
      <trkpt lat="45.27628" lon="5.57665">
        <ele>788</ele>
        <time>2012-11-04T10:29:08Z</time>
      </trkpt>
      <trkpt lat="45.27627" lon="5.57665">
        <ele>788</ele>
        <time>2012-11-04T10:29:09Z</time>
      </trkpt>
      <trkpt lat="45.27625" lon="5.57666">
        <ele>789</ele>
        <time>2012-11-04T10:29:10Z</time>
      </trkpt>
      <trkpt lat="45.27624" lon="5.57666">
        <ele>790</ele>
        <time>2012-11-04T10:29:11Z</time>
      </trkpt>
      <trkpt lat="45.27622" lon="5.57666">
        <ele>789</ele>
        <time>2012-11-04T10:29:12Z</time>
      </trkpt>
      <trkpt lat="45.27621" lon="5.57667">
        <ele>791</ele>
        <time>2012-11-04T10:29:13Z</time>
      </trkpt>
      <trkpt lat="45.2762" lon="5.57668">
        <ele>791</ele>
        <time>2012-11-04T10:29:14Z</time>
      </trkpt>
      <trkpt lat="45.27618" lon="5.57668">
        <ele>791</ele>
        <time>2012-11-04T10:29:15Z</time>
      </trkpt>
      <trkpt lat="45.27617" lon="5.57669">
        <ele>792</ele>
        <time>2012-11-04T10:29:16Z</time>
      </trkpt>
      <trkpt lat="45.27616" lon="5.57669">
        <ele>792</ele>
        <time>2012-11-04T10:29:17Z</time>
      </trkpt>
      <trkpt lat="45.27615" lon="5.5767">
        <ele>792</ele>
        <time>2012-11-04T10:29:18Z</time>
      </trkpt>
      <trkpt lat="45.27614" lon="5.5767">
        <ele>791</ele>
        <time>2012-11-04T10:29:19Z</time>
      </trkpt>
      <trkpt lat="45.27612" lon="5.5767">
        <ele>791</ele>
        <time>2012-11-04T10:29:20Z</time>
      </trkpt>
      <trkpt lat="45.27611" lon="5.57671">
        <ele>791</ele>
        <time>2012-11-04T10:29:21Z</time>
      </trkpt>
      <trkpt lat="45.2761" lon="5.57671">
        <ele>791</ele>
        <time>2012-11-04T10:29:22Z</time>
      </trkpt>
      <trkpt lat="45.27608" lon="5.57671">
        <ele>791</ele>
        <time>2012-11-04T10:29:23Z</time>
      </trkpt>
      <trkpt lat="45.27607" lon="5.57672">
        <ele>790</ele>
        <time>2012-11-04T10:29:24Z</time>
      </trkpt>
      <trkpt lat="45.27606" lon="5.57673">
        <ele>791</ele>
        <time>2012-11-04T10:29:25Z</time>
      </trkpt>
      <trkpt lat="45.27604" lon="5.57673">
        <ele>790</ele>
        <time>2012-11-04T10:29:26Z</time>
      </trkpt>
      <trkpt lat="45.27602" lon="5.57674">
        <ele>790</ele>
        <time>2012-11-04T10:29:27Z</time>
      </trkpt>
      <trkpt lat="45.276" lon="5.57675">
        <ele>790</ele>
        <time>2012-11-04T10:29:28Z</time>
      </trkpt>
      <trkpt lat="45.27597" lon="5.57675">
        <ele>790</ele>
        <time>2012-11-04T10:29:29Z</time>
      </trkpt>
      <trkpt lat="45.27595" lon="5.57675">
        <ele>789</ele>
        <time>2012-11-04T10:29:30Z</time>
      </trkpt>
      <trkpt lat="45.27592" lon="5.57675">
        <ele>788</ele>
        <time>2012-11-04T10:29:31Z</time>
      </trkpt>
      <trkpt lat="45.2759" lon="5.57674">
        <ele>789</ele>
        <time>2012-11-04T10:29:32Z</time>
      </trkpt>
      <trkpt lat="45.27588" lon="5.57673">
        <ele>789</ele>
        <time>2012-11-04T10:29:33Z</time>
      </trkpt>
      <trkpt lat="45.27587" lon="5.57671">
        <ele>789</ele>
        <time>2012-11-04T10:29:34Z</time>
      </trkpt>
      <trkpt lat="45.27585" lon="5.57669">
        <ele>789</ele>
        <time>2012-11-04T10:29:35Z</time>
      </trkpt>
      <trkpt lat="45.27583" lon="5.57667">
        <ele>789</ele>
        <time>2012-11-04T10:29:36Z</time>
      </trkpt>
      <trkpt lat="45.27581" lon="5.57666">
        <ele>790</ele>
        <time>2012-11-04T10:29:37Z</time>
      </trkpt>
      <trkpt lat="45.27579" lon="5.57664">
        <ele>790</ele>
        <time>2012-11-04T10:29:38Z</time>
      </trkpt>
      <trkpt lat="45.27577" lon="5.57662">
        <ele>791</ele>
        <time>2012-11-04T10:29:39Z</time>
      </trkpt>
      <trkpt lat="45.27575" lon="5.57661">
        <ele>791</ele>
        <time>2012-11-04T10:29:40Z</time>
      </trkpt>
      <trkpt lat="45.27572" lon="5.5766">
        <ele>791</ele>
        <time>2012-11-04T10:29:41Z</time>
      </trkpt>
      <trkpt lat="45.2757" lon="5.57659">
        <ele>791</ele>
        <time>2012-11-04T10:29:42Z</time>
      </trkpt>
      <trkpt lat="45.27567" lon="5.57658">
        <ele>792</ele>
        <time>2012-11-04T10:29:43Z</time>
      </trkpt>
      <trkpt lat="45.27564" lon="5.57658">
        <ele>792</ele>
        <time>2012-11-04T10:29:44Z</time>
      </trkpt>
      <trkpt lat="45.27561" lon="5.57657">
        <ele>793</ele>
        <time>2012-11-04T10:29:45Z</time>
      </trkpt>
      <trkpt lat="45.27558" lon="5.57656">
        <ele>793</ele>
        <time>2012-11-04T10:29:46Z</time>
      </trkpt>
      <trkpt lat="45.27554" lon="5.57655">
        <ele>792</ele>
        <time>2012-11-04T10:29:47Z</time>
      </trkpt>
      <trkpt lat="45.27551" lon="5.57654">
        <ele>792</ele>
        <time>2012-11-04T10:29:48Z</time>
      </trkpt>
      <trkpt lat="45.27547" lon="5.57654">
        <ele>792</ele>
        <time>2012-11-04T10:29:49Z</time>
      </trkpt>
      <trkpt lat="45.27544" lon="5.57654">
        <ele>791</ele>
        <time>2012-11-04T10:29:50Z</time>
      </trkpt>
      <trkpt lat="45.27541" lon="5.57654">
        <ele>791</ele>
        <time>2012-11-04T10:29:51Z</time>
      </trkpt>
      <trkpt lat="45.27538" lon="5.57655">
        <ele>790</ele>
        <time>2012-11-04T10:29:52Z</time>
      </trkpt>
      <trkpt lat="45.27535" lon="5.57656">
        <ele>790</ele>
        <time>2012-11-04T10:29:53Z</time>
      </trkpt>
      <trkpt lat="45.27532" lon="5.57656">
        <ele>790</ele>
        <time>2012-11-04T10:29:54Z</time>
      </trkpt>
      <trkpt lat="45.2753" lon="5.57657">
        <ele>790</ele>
        <time>2012-11-04T10:29:55Z</time>
      </trkpt>
      <trkpt lat="45.27527" lon="5.57657">
        <ele>791</ele>
        <time>2012-11-04T10:29:56Z</time>
      </trkpt>
      <trkpt lat="45.27525" lon="5.57657">
        <ele>791</ele>
        <time>2012-11-04T10:29:57Z</time>
      </trkpt>
      <trkpt lat="45.27522" lon="5.57658">
        <ele>792</ele>
        <time>2012-11-04T10:29:58Z</time>
      </trkpt>
      <trkpt lat="45.27519" lon="5.57658">
        <ele>793</ele>
        <time>2012-11-04T10:29:59Z</time>
      </trkpt>
      <trkpt lat="45.27516" lon="5.57659">
        <ele>793</ele>
        <time>2012-11-04T10:30:00Z</time>
      </trkpt>
      <trkpt lat="45.27513" lon="5.57659">
        <ele>793</ele>
        <time>2012-11-04T10:30:01Z</time>
      </trkpt>
      <trkpt lat="45.2751" lon="5.57659">
        <ele>793</ele>
        <time>2012-11-04T10:30:02Z</time>
      </trkpt>
      <trkpt lat="45.27507" lon="5.5766">
        <ele>793</ele>
        <time>2012-11-04T10:30:03Z</time>
      </trkpt>
      <trkpt lat="45.27504" lon="5.5766">
        <ele>793</ele>
        <time>2012-11-04T10:30:04Z</time>
      </trkpt>
      <trkpt lat="45.27501" lon="5.57659">
        <ele>794</ele>
        <time>2012-11-04T10:30:05Z</time>
      </trkpt>
      <trkpt lat="45.27499" lon="5.57659">
        <ele>795</ele>
        <time>2012-11-04T10:30:06Z</time>
      </trkpt>
      <trkpt lat="45.27497" lon="5.57659">
        <ele>794</ele>
        <time>2012-11-04T10:30:07Z</time>
      </trkpt>
      <trkpt lat="45.27494" lon="5.57659">
        <ele>794</ele>
        <time>2012-11-04T10:30:08Z</time>
      </trkpt>
      <trkpt lat="45.27492" lon="5.57659">
        <ele>793</ele>
        <time>2012-11-04T10:30:09Z</time>
      </trkpt>
      <trkpt lat="45.27489" lon="5.57659">
        <ele>793</ele>
        <time>2012-11-04T10:30:10Z</time>
      </trkpt>
      <trkpt lat="45.27486" lon="5.57659">
        <ele>794</ele>
        <time>2012-11-04T10:30:11Z</time>
      </trkpt>
      <trkpt lat="45.27483" lon="5.57659">
        <ele>793</ele>
        <time>2012-11-04T10:30:12Z</time>
      </trkpt>
      <trkpt lat="45.27479" lon="5.57658">
        <ele>795</ele>
        <time>2012-11-04T10:30:13Z</time>
      </trkpt>
      <trkpt lat="45.27476" lon="5.57656">
        <ele>795</ele>
        <time>2012-11-04T10:30:14Z</time>
      </trkpt>
      <trkpt lat="45.27473" lon="5.57655">
        <ele>796</ele>
        <time>2012-11-04T10:30:15Z</time>
      </trkpt>
      <trkpt lat="45.2747" lon="5.57654">
        <ele>797</ele>
        <time>2012-11-04T10:30:16Z</time>
      </trkpt>
      <trkpt lat="45.27467" lon="5.57653">
        <ele>797</ele>
        <time>2012-11-04T10:30:17Z</time>
      </trkpt>
      <trkpt lat="45.27464" lon="5.57653">
        <ele>797</ele>
        <time>2012-11-04T10:30:18Z</time>
      </trkpt>
      <trkpt lat="45.2746" lon="5.57652">
        <ele>798</ele>
        <time>2012-11-04T10:30:19Z</time>
      </trkpt>
      <trkpt lat="45.27457" lon="5.57651">
        <ele>798</ele>
        <time>2012-11-04T10:30:20Z</time>
      </trkpt>
      <trkpt lat="45.27454" lon="5.5765">
        <ele>798</ele>
        <time>2012-11-04T10:30:21Z</time>
      </trkpt>
      <trkpt lat="45.27452" lon="5.5765">
        <ele>798</ele>
        <time>2012-11-04T10:30:22Z</time>
      </trkpt>
      <trkpt lat="45.27449" lon="5.5765">
        <ele>796</ele>
        <time>2012-11-04T10:30:23Z</time>
      </trkpt>
      <trkpt lat="45.27445" lon="5.5765">
        <ele>795</ele>
        <time>2012-11-04T10:30:24Z</time>
      </trkpt>
      <trkpt lat="45.27442" lon="5.57651">
        <ele>794</ele>
        <time>2012-11-04T10:30:25Z</time>
      </trkpt>
      <trkpt lat="45.27438" lon="5.57651">
        <ele>794</ele>
        <time>2012-11-04T10:30:26Z</time>
      </trkpt>
      <trkpt lat="45.27436" lon="5.57652">
        <ele>795</ele>
        <time>2012-11-04T10:30:27Z</time>
      </trkpt>
      <trkpt lat="45.27433" lon="5.57652">
        <ele>795</ele>
        <time>2012-11-04T10:30:28Z</time>
      </trkpt>
      <trkpt lat="45.2743" lon="5.57652">
        <ele>796</ele>
        <time>2012-11-04T10:30:29Z</time>
      </trkpt>
      <trkpt lat="45.27428" lon="5.57653">
        <ele>796</ele>
        <time>2012-11-04T10:30:30Z</time>
      </trkpt>
      <trkpt lat="45.27425" lon="5.57653">
        <ele>797</ele>
        <time>2012-11-04T10:30:31Z</time>
      </trkpt>
      <trkpt lat="45.27423" lon="5.57653">
        <ele>797</ele>
        <time>2012-11-04T10:30:32Z</time>
      </trkpt>
      <trkpt lat="45.2742" lon="5.57653">
        <ele>797</ele>
        <time>2012-11-04T10:30:33Z</time>
      </trkpt>
      <trkpt lat="45.27418" lon="5.57653">
        <ele>798</ele>
        <time>2012-11-04T10:30:34Z</time>
      </trkpt>
      <trkpt lat="45.27416" lon="5.57653">
        <ele>798</ele>
        <time>2012-11-04T10:30:35Z</time>
      </trkpt>
      <trkpt lat="45.27413" lon="5.57653">
        <ele>798</ele>
        <time>2012-11-04T10:30:36Z</time>
      </trkpt>
      <trkpt lat="45.27411" lon="5.57653">
        <ele>797</ele>
        <time>2012-11-04T10:30:37Z</time>
      </trkpt>
      <trkpt lat="45.27408" lon="5.57654">
        <ele>798</ele>
        <time>2012-11-04T10:30:38Z</time>
      </trkpt>
      <trkpt lat="45.27406" lon="5.57654">
        <ele>798</ele>
        <time>2012-11-04T10:30:39Z</time>
      </trkpt>
      <trkpt lat="45.27403" lon="5.57654">
        <ele>798</ele>
        <time>2012-11-04T10:30:40Z</time>
      </trkpt>
      <trkpt lat="45.274" lon="5.57655">
        <ele>797</ele>
        <time>2012-11-04T10:30:41Z</time>
      </trkpt>
      <trkpt lat="45.27398" lon="5.57655">
        <ele>796</ele>
        <time>2012-11-04T10:30:42Z</time>
      </trkpt>
      <trkpt lat="45.27395" lon="5.57656">
        <ele>796</ele>
        <time>2012-11-04T10:30:43Z</time>
      </trkpt>
      <trkpt lat="45.27391" lon="5.57658">
        <ele>795</ele>
        <time>2012-11-04T10:30:44Z</time>
      </trkpt>
      <trkpt lat="45.27388" lon="5.57659">
        <ele>795</ele>
        <time>2012-11-04T10:30:45Z</time>
      </trkpt>
      <trkpt lat="45.27385" lon="5.5766">
        <ele>795</ele>
        <time>2012-11-04T10:30:46Z</time>
      </trkpt>
      <trkpt lat="45.27382" lon="5.57662">
        <ele>794</ele>
        <time>2012-11-04T10:30:47Z</time>
      </trkpt>
      <trkpt lat="45.27377" lon="5.57665">
        <ele>794</ele>
        <time>2012-11-04T10:30:48Z</time>
      </trkpt>
      <trkpt lat="45.27373" lon="5.57667">
        <ele>795</ele>
        <time>2012-11-04T10:30:49Z</time>
      </trkpt>
      <trkpt lat="45.2737" lon="5.57669">
        <ele>794</ele>
        <time>2012-11-04T10:30:50Z</time>
      </trkpt>
      <trkpt lat="45.27367" lon="5.5767">
        <ele>794</ele>
        <time>2012-11-04T10:30:51Z</time>
      </trkpt>
      <trkpt lat="45.27363" lon="5.57669">
        <ele>794</ele>
        <time>2012-11-04T10:30:52Z</time>
      </trkpt>
      <trkpt lat="45.2736" lon="5.57668">
        <ele>794</ele>
        <time>2012-11-04T10:30:53Z</time>
      </trkpt>
      <trkpt lat="45.27357" lon="5.57667">
        <ele>795</ele>
        <time>2012-11-04T10:30:54Z</time>
      </trkpt>
      <trkpt lat="45.27354" lon="5.57666">
        <ele>794</ele>
        <time>2012-11-04T10:30:55Z</time>
      </trkpt>
      <trkpt lat="45.27352" lon="5.57664">
        <ele>794</ele>
        <time>2012-11-04T10:30:56Z</time>
      </trkpt>
      <trkpt lat="45.27348" lon="5.57663">
        <ele>794</ele>
        <time>2012-11-04T10:30:57Z</time>
      </trkpt>
      <trkpt lat="45.27345" lon="5.57662">
        <ele>795</ele>
        <time>2012-11-04T10:30:58Z</time>
      </trkpt>
      <trkpt lat="45.27342" lon="5.5766">
        <ele>794</ele>
        <time>2012-11-04T10:30:59Z</time>
      </trkpt>
      <trkpt lat="45.27339" lon="5.57659">
        <ele>794</ele>
        <time>2012-11-04T10:31:00Z</time>
      </trkpt>
      <trkpt lat="45.27336" lon="5.57658">
        <ele>795</ele>
        <time>2012-11-04T10:31:01Z</time>
      </trkpt>
      <trkpt lat="45.27333" lon="5.57657">
        <ele>794</ele>
        <time>2012-11-04T10:31:02Z</time>
      </trkpt>
      <trkpt lat="45.2733" lon="5.57656">
        <ele>794</ele>
        <time>2012-11-04T10:31:03Z</time>
      </trkpt>
      <trkpt lat="45.27327" lon="5.57654">
        <ele>793</ele>
        <time>2012-11-04T10:31:04Z</time>
      </trkpt>
      <trkpt lat="45.27325" lon="5.57654">
        <ele>793</ele>
        <time>2012-11-04T10:31:05Z</time>
      </trkpt>
      <trkpt lat="45.27322" lon="5.57653">
        <ele>794</ele>
        <time>2012-11-04T10:31:06Z</time>
      </trkpt>
      <trkpt lat="45.27317" lon="5.5765">
        <ele>792</ele>
        <time>2012-11-04T10:31:07Z</time>
      </trkpt>
      <trkpt lat="45.27314" lon="5.57649">
        <ele>791</ele>
        <time>2012-11-04T10:31:08Z</time>
      </trkpt>
      <trkpt lat="45.27311" lon="5.57648">
        <ele>790</ele>
        <time>2012-11-04T10:31:09Z</time>
      </trkpt>
      <trkpt lat="45.27308" lon="5.57647">
        <ele>788</ele>
        <time>2012-11-04T10:31:10Z</time>
      </trkpt>
      <trkpt lat="45.27306" lon="5.57647">
        <ele>787</ele>
        <time>2012-11-04T10:31:11Z</time>
      </trkpt>
      <trkpt lat="45.27303" lon="5.57646">
        <ele>787</ele>
        <time>2012-11-04T10:31:12Z</time>
      </trkpt>
      <trkpt lat="45.27301" lon="5.57646">
        <ele>788</ele>
        <time>2012-11-04T10:31:13Z</time>
      </trkpt>
      <trkpt lat="45.27298" lon="5.57645">
        <ele>788</ele>
        <time>2012-11-04T10:31:14Z</time>
      </trkpt>
      <trkpt lat="45.27295" lon="5.57644">
        <ele>786</ele>
        <time>2012-11-04T10:31:15Z</time>
      </trkpt>
      <trkpt lat="45.27292" lon="5.57643">
        <ele>786</ele>
        <time>2012-11-04T10:31:16Z</time>
      </trkpt>
      <trkpt lat="45.27289" lon="5.57641">
        <ele>785</ele>
        <time>2012-11-04T10:31:17Z</time>
      </trkpt>
      <trkpt lat="45.27287" lon="5.57639">
        <ele>785</ele>
        <time>2012-11-04T10:31:18Z</time>
      </trkpt>
      <trkpt lat="45.27284" lon="5.57638">
        <ele>784</ele>
        <time>2012-11-04T10:31:19Z</time>
      </trkpt>
      <trkpt lat="45.27283" lon="5.57636">
        <ele>784</ele>
        <time>2012-11-04T10:31:20Z</time>
      </trkpt>
      <trkpt lat="45.27281" lon="5.57635">
        <ele>784</ele>
        <time>2012-11-04T10:31:21Z</time>
      </trkpt>
      <trkpt lat="45.27278" lon="5.57633">
        <ele>784</ele>
        <time>2012-11-04T10:31:22Z</time>
      </trkpt>
      <trkpt lat="45.27276" lon="5.57632">
        <ele>784</ele>
        <time>2012-11-04T10:31:23Z</time>
      </trkpt>
      <trkpt lat="45.27274" lon="5.5763">
        <ele>784</ele>
        <time>2012-11-04T10:31:24Z</time>
      </trkpt>
      <trkpt lat="45.27271" lon="5.57629">
        <ele>783</ele>
        <time>2012-11-04T10:31:25Z</time>
      </trkpt>
      <trkpt lat="45.27268" lon="5.57628">
        <ele>782</ele>
        <time>2012-11-04T10:31:26Z</time>
      </trkpt>
      <trkpt lat="45.27266" lon="5.57627">
        <ele>781</ele>
        <time>2012-11-04T10:31:27Z</time>
      </trkpt>
      <trkpt lat="45.27263" lon="5.57626">
        <ele>781</ele>
        <time>2012-11-04T10:31:28Z</time>
      </trkpt>
      <trkpt lat="45.27257" lon="5.57624">
        <ele>782</ele>
        <time>2012-11-04T10:31:29Z</time>
      </trkpt>
      <trkpt lat="45.27252" lon="5.57623">
        <ele>781</ele>
        <time>2012-11-04T10:31:30Z</time>
      </trkpt>
      <trkpt lat="45.27248" lon="5.57621">
        <ele>783</ele>
        <time>2012-11-04T10:31:31Z</time>
      </trkpt>
      <trkpt lat="45.27245" lon="5.5762">
        <ele>783</ele>
        <time>2012-11-04T10:31:32Z</time>
      </trkpt>
      <trkpt lat="45.2724" lon="5.57619">
        <ele>782</ele>
        <time>2012-11-04T10:31:33Z</time>
      </trkpt>
      <trkpt lat="45.27237" lon="5.57618">
        <ele>782</ele>
        <time>2012-11-04T10:31:34Z</time>
      </trkpt>
      <trkpt lat="45.27234" lon="5.57618">
        <ele>783</ele>
        <time>2012-11-04T10:31:35Z</time>
      </trkpt>
      <trkpt lat="45.2723" lon="5.57617">
        <ele>783</ele>
        <time>2012-11-04T10:31:36Z</time>
      </trkpt>
      <trkpt lat="45.27228" lon="5.57617">
        <ele>782</ele>
        <time>2012-11-04T10:31:37Z</time>
      </trkpt>
      <trkpt lat="45.27225" lon="5.57618">
        <ele>781</ele>
        <time>2012-11-04T10:31:38Z</time>
      </trkpt>
      <trkpt lat="45.27222" lon="5.57618">
        <ele>781</ele>
        <time>2012-11-04T10:31:39Z</time>
      </trkpt>
      <trkpt lat="45.2722" lon="5.57619">
        <ele>781</ele>
        <time>2012-11-04T10:31:40Z</time>
      </trkpt>
      <trkpt lat="45.27217" lon="5.57619">
        <ele>781</ele>
        <time>2012-11-04T10:31:41Z</time>
      </trkpt>
      <trkpt lat="45.27215" lon="5.57618">
        <ele>780</ele>
        <time>2012-11-04T10:31:42Z</time>
      </trkpt>
      <trkpt lat="45.27213" lon="5.57618">
        <ele>781</ele>
        <time>2012-11-04T10:31:43Z</time>
      </trkpt>
      <trkpt lat="45.2721" lon="5.57618">
        <ele>781</ele>
        <time>2012-11-04T10:31:44Z</time>
      </trkpt>
      <trkpt lat="45.27208" lon="5.57616">
        <ele>781</ele>
        <time>2012-11-04T10:31:45Z</time>
      </trkpt>
      <trkpt lat="45.27205" lon="5.57616">
        <ele>782</ele>
        <time>2012-11-04T10:31:46Z</time>
      </trkpt>
      <trkpt lat="45.27202" lon="5.57616">
        <ele>781</ele>
        <time>2012-11-04T10:31:47Z</time>
      </trkpt>
      <trkpt lat="45.272" lon="5.57616">
        <ele>781</ele>
        <time>2012-11-04T10:31:48Z</time>
      </trkpt>
      <trkpt lat="45.27198" lon="5.57616">
        <ele>781</ele>
        <time>2012-11-04T10:31:49Z</time>
      </trkpt>
      <trkpt lat="45.27196" lon="5.57615">
        <ele>782</ele>
        <time>2012-11-04T10:31:50Z</time>
      </trkpt>
      <trkpt lat="45.27195" lon="5.57614">
        <ele>782</ele>
        <time>2012-11-04T10:31:51Z</time>
      </trkpt>
      <trkpt lat="45.27194" lon="5.57613">
        <ele>782</ele>
        <time>2012-11-04T10:31:52Z</time>
      </trkpt>
      <trkpt lat="45.27193" lon="5.57611">
        <ele>782</ele>
        <time>2012-11-04T10:31:53Z</time>
      </trkpt>
      <trkpt lat="45.27193" lon="5.57611">
        <ele>782</ele>
        <time>2012-11-04T10:31:54Z</time>
      </trkpt>
      <trkpt lat="45.27193" lon="5.57611">
        <ele>782</ele>
        <time>2012-11-04T10:31:55Z</time>
      </trkpt>
      <trkpt lat="45.27193" lon="5.57611">
        <ele>782</ele>
        <time>2012-11-04T10:31:56Z</time>
      </trkpt>
      <trkpt lat="45.27193" lon="5.57611">
        <ele>782</ele>
        <time>2012-11-04T10:31:57Z</time>
      </trkpt>
      <trkpt lat="45.27193" lon="5.57611">
        <ele>781</ele>
        <time>2012-11-04T10:31:58Z</time>
      </trkpt>
      <trkpt lat="45.27193" lon="5.57611">
        <ele>781</ele>
        <time>2012-11-04T10:31:59Z</time>
      </trkpt>
      <trkpt lat="45.27193" lon="5.57611">
        <ele>780</ele>
        <time>2012-11-04T10:32:00Z</time>
      </trkpt>
      <trkpt lat="45.27193" lon="5.57611">
        <ele>780</ele>
        <time>2012-11-04T10:32:01Z</time>
      </trkpt>
      <trkpt lat="45.27193" lon="5.57611">
        <ele>779</ele>
        <time>2012-11-04T10:32:02Z</time>
      </trkpt>
      <trkpt lat="45.27193" lon="5.57611">
        <ele>779</ele>
        <time>2012-11-04T10:32:03Z</time>
      </trkpt>
      <trkpt lat="45.27193" lon="5.57611">
        <ele>779</ele>
        <time>2012-11-04T10:32:04Z</time>
      </trkpt>
      <trkpt lat="45.27193" lon="5.57611">
        <ele>779</ele>
        <time>2012-11-04T10:32:05Z</time>
      </trkpt>
      <trkpt lat="45.27193" lon="5.57611">
        <ele>779</ele>
        <time>2012-11-04T10:32:06Z</time>
      </trkpt>
      <trkpt lat="45.27193" lon="5.57611">
        <ele>779</ele>
        <time>2012-11-04T10:32:07Z</time>
      </trkpt>
      <trkpt lat="45.27193" lon="5.57611">
        <ele>779</ele>
        <time>2012-11-04T10:32:08Z</time>
      </trkpt>
      <trkpt lat="45.27193" lon="5.57611">
        <ele>779</ele>
        <time>2012-11-04T10:32:09Z</time>
      </trkpt>
      <trkpt lat="45.27193" lon="5.57611">
        <ele>779</ele>
        <time>2012-11-04T10:32:10Z</time>
      </trkpt>
      <trkpt lat="45.27193" lon="5.57611">
        <ele>779</ele>
        <time>2012-11-04T10:32:11Z</time>
      </trkpt>
      <trkpt lat="45.27193" lon="5.57611">
        <ele>779</ele>
        <time>2012-11-04T10:32:12Z</time>
      </trkpt>
      <trkpt lat="45.27193" lon="5.57611">
        <ele>779</ele>
        <time>2012-11-04T10:32:13Z</time>
      </trkpt>
      <trkpt lat="45.27193" lon="5.57611">
        <ele>779</ele>
        <time>2012-11-04T10:32:14Z</time>
      </trkpt>
      <trkpt lat="45.27193" lon="5.57611">
        <ele>779</ele>
        <time>2012-11-04T10:32:15Z</time>
      </trkpt>
      <trkpt lat="45.27193" lon="5.57611">
        <ele>779</ele>
        <time>2012-11-04T10:32:16Z</time>
      </trkpt>
      <trkpt lat="45.27194" lon="5.57608">
        <ele>779</ele>
        <time>2012-11-04T10:32:17Z</time>
      </trkpt>
      <trkpt lat="45.27193" lon="5.57607">
        <ele>779</ele>
        <time>2012-11-04T10:32:18Z</time>
      </trkpt>
      <trkpt lat="45.27193" lon="5.57606">
        <ele>779</ele>
        <time>2012-11-04T10:32:19Z</time>
      </trkpt>
      <trkpt lat="45.27192" lon="5.57604">
        <ele>778</ele>
        <time>2012-11-04T10:32:20Z</time>
      </trkpt>
      <trkpt lat="45.27192" lon="5.57603">
        <ele>778</ele>
        <time>2012-11-04T10:32:21Z</time>
      </trkpt>
      <trkpt lat="45.27191" lon="5.57602">
        <ele>777</ele>
        <time>2012-11-04T10:32:22Z</time>
      </trkpt>
      <trkpt lat="45.2719" lon="5.57601">
        <ele>777</ele>
        <time>2012-11-04T10:32:23Z</time>
      </trkpt>
      <trkpt lat="45.2719" lon="5.576">
        <ele>777</ele>
        <time>2012-11-04T10:32:24Z</time>
      </trkpt>
      <trkpt lat="45.27189" lon="5.57599">
        <ele>777</ele>
        <time>2012-11-04T10:32:25Z</time>
      </trkpt>
      <trkpt lat="45.27189" lon="5.57598">
        <ele>777</ele>
        <time>2012-11-04T10:32:26Z</time>
      </trkpt>
      <trkpt lat="45.27188" lon="5.57594">
        <ele>775</ele>
        <time>2012-11-04T10:32:27Z</time>
      </trkpt>
      <trkpt lat="45.27188" lon="5.5759">
        <ele>776</ele>
        <time>2012-11-04T10:32:28Z</time>
      </trkpt>
      <trkpt lat="45.27187" lon="5.57587">
        <ele>777</ele>
        <time>2012-11-04T10:32:29Z</time>
      </trkpt>
      <trkpt lat="45.27187" lon="5.57582">
        <ele>776</ele>
        <time>2012-11-04T10:32:30Z</time>
      </trkpt>
      <trkpt lat="45.27187" lon="5.57576">
        <ele>776</ele>
        <time>2012-11-04T10:32:31Z</time>
      </trkpt>
      <trkpt lat="45.27186" lon="5.57571">
        <ele>776</ele>
        <time>2012-11-04T10:32:32Z</time>
      </trkpt>
      <trkpt lat="45.27186" lon="5.57566">
        <ele>776</ele>
        <time>2012-11-04T10:32:33Z</time>
      </trkpt>
      <trkpt lat="45.27186" lon="5.57562">
        <ele>777</ele>
        <time>2012-11-04T10:32:34Z</time>
      </trkpt>
      <trkpt lat="45.27185" lon="5.57558">
        <ele>777</ele>
        <time>2012-11-04T10:32:35Z</time>
      </trkpt>
      <trkpt lat="45.27185" lon="5.57555">
        <ele>777</ele>
        <time>2012-11-04T10:32:36Z</time>
      </trkpt>
      <trkpt lat="45.27185" lon="5.57552">
        <ele>774</ele>
        <time>2012-11-04T10:32:37Z</time>
      </trkpt>
      <trkpt lat="45.27186" lon="5.5755">
        <ele>774</ele>
        <time>2012-11-04T10:32:38Z</time>
      </trkpt>
      <trkpt lat="45.27187" lon="5.57548">
        <ele>774</ele>
        <time>2012-11-04T10:32:39Z</time>
      </trkpt>
      <trkpt lat="45.27188" lon="5.57546">
        <ele>773</ele>
        <time>2012-11-04T10:32:40Z</time>
      </trkpt>
      <trkpt lat="45.2719" lon="5.57545">
        <ele>772</ele>
        <time>2012-11-04T10:32:41Z</time>
      </trkpt>
      <trkpt lat="45.27197" lon="5.57548">
        <ele>771</ele>
        <time>2012-11-04T10:32:44Z</time>
      </trkpt>
      <trkpt lat="45.27197" lon="5.57548">
        <ele>770</ele>
        <time>2012-11-04T10:32:45Z</time>
      </trkpt>
      <trkpt lat="45.27197" lon="5.57548">
        <ele>770</ele>
        <time>2012-11-04T10:32:46Z</time>
      </trkpt>
      <trkpt lat="45.27197" lon="5.57548">
        <ele>770</ele>
        <time>2012-11-04T10:32:47Z</time>
      </trkpt>
      <trkpt lat="45.27197" lon="5.57548">
        <ele>770</ele>
        <time>2012-11-04T10:32:48Z</time>
      </trkpt>
      <trkpt lat="45.27197" lon="5.57548">
        <ele>770</ele>
        <time>2012-11-04T10:32:49Z</time>
      </trkpt>
      <trkpt lat="45.27197" lon="5.57548">
        <ele>770</ele>
        <time>2012-11-04T10:32:50Z</time>
      </trkpt>
      <trkpt lat="45.27197" lon="5.57548">
        <ele>770</ele>
        <time>2012-11-04T10:32:51Z</time>
      </trkpt>
      <trkpt lat="45.27197" lon="5.57548">
        <ele>770</ele>
        <time>2012-11-04T10:32:52Z</time>
      </trkpt>
      <trkpt lat="45.27197" lon="5.57548">
        <ele>770</ele>
        <time>2012-11-04T10:32:53Z</time>
      </trkpt>
      <trkpt lat="45.27197" lon="5.57548">
        <ele>770</ele>
        <time>2012-11-04T10:32:54Z</time>
      </trkpt>
      <trkpt lat="45.27197" lon="5.57548">
        <ele>770</ele>
        <time>2012-11-04T10:32:55Z</time>
      </trkpt>
      <trkpt lat="45.27197" lon="5.57548">
        <ele>770</ele>
        <time>2012-11-04T10:32:56Z</time>
      </trkpt>
      <trkpt lat="45.27197" lon="5.57548">
        <ele>770</ele>
        <time>2012-11-04T10:32:57Z</time>
      </trkpt>
      <trkpt lat="45.27197" lon="5.57548">
        <ele>770</ele>
        <time>2012-11-04T10:32:58Z</time>
      </trkpt>
      <trkpt lat="45.27197" lon="5.57548">
        <ele>770</ele>
        <time>2012-11-04T10:32:59Z</time>
      </trkpt>
      <trkpt lat="45.27197" lon="5.57548">
        <ele>770</ele>
        <time>2012-11-04T10:33:00Z</time>
      </trkpt>
      <trkpt lat="45.272" lon="5.57546">
        <ele>771</ele>
        <time>2012-11-04T10:33:01Z</time>
      </trkpt>
      <trkpt lat="45.272" lon="5.57545">
        <ele>770</ele>
        <time>2012-11-04T10:33:02Z</time>
      </trkpt>
      <trkpt lat="45.27201" lon="5.57543">
        <ele>771</ele>
        <time>2012-11-04T10:33:03Z</time>
      </trkpt>
      <trkpt lat="45.27201" lon="5.57542">
        <ele>771</ele>
        <time>2012-11-04T10:33:04Z</time>
      </trkpt>
      <trkpt lat="45.27202" lon="5.5754">
        <ele>770</ele>
        <time>2012-11-04T10:33:05Z</time>
      </trkpt>
      <trkpt lat="45.27203" lon="5.57538">
        <ele>770</ele>
        <time>2012-11-04T10:33:06Z</time>
      </trkpt>
      <trkpt lat="45.27203" lon="5.57536">
        <ele>769</ele>
        <time>2012-11-04T10:33:07Z</time>
      </trkpt>
      <trkpt lat="45.27203" lon="5.57534">
        <ele>770</ele>
        <time>2012-11-04T10:33:08Z</time>
      </trkpt>
      <trkpt lat="45.27204" lon="5.57532">
        <ele>771</ele>
        <time>2012-11-04T10:33:09Z</time>
      </trkpt>
      <trkpt lat="45.27205" lon="5.57531">
        <ele>770</ele>
        <time>2012-11-04T10:33:10Z</time>
      </trkpt>
      <trkpt lat="45.27206" lon="5.57529">
        <ele>771</ele>
        <time>2012-11-04T10:33:11Z</time>
      </trkpt>
      <trkpt lat="45.27208" lon="5.57527">
        <ele>770</ele>
        <time>2012-11-04T10:33:12Z</time>
      </trkpt>
      <trkpt lat="45.27209" lon="5.57525">
        <ele>769</ele>
        <time>2012-11-04T10:33:13Z</time>
      </trkpt>
      <trkpt lat="45.27211" lon="5.57524">
        <ele>767</ele>
        <time>2012-11-04T10:33:14Z</time>
      </trkpt>
      <trkpt lat="45.27213" lon="5.57522">
        <ele>767</ele>
        <time>2012-11-04T10:33:15Z</time>
      </trkpt>
      <trkpt lat="45.27216" lon="5.57521">
        <ele>766</ele>
        <time>2012-11-04T10:33:16Z</time>
      </trkpt>
      <trkpt lat="45.27219" lon="5.57519">
        <ele>765</ele>
        <time>2012-11-04T10:33:17Z</time>
      </trkpt>
      <trkpt lat="45.2722" lon="5.57518">
        <ele>764</ele>
        <time>2012-11-04T10:33:18Z</time>
      </trkpt>
      <trkpt lat="45.2723" lon="5.57516">
        <ele>763</ele>
        <time>2012-11-04T10:33:21Z</time>
      </trkpt>
      <trkpt lat="45.27233" lon="5.57515">
        <ele>763</ele>
        <time>2012-11-04T10:33:22Z</time>
      </trkpt>
      <trkpt lat="45.27236" lon="5.57514">
        <ele>762</ele>
        <time>2012-11-04T10:33:23Z</time>
      </trkpt>
      <trkpt lat="45.27239" lon="5.57513">
        <ele>762</ele>
        <time>2012-11-04T10:33:24Z</time>
      </trkpt>
      <trkpt lat="45.27241" lon="5.57511">
        <ele>762</ele>
        <time>2012-11-04T10:33:25Z</time>
      </trkpt>
      <trkpt lat="45.27243" lon="5.57511">
        <ele>762</ele>
        <time>2012-11-04T10:33:26Z</time>
      </trkpt>
      <trkpt lat="45.27245" lon="5.57509">
        <ele>762</ele>
        <time>2012-11-04T10:33:27Z</time>
      </trkpt>
      <trkpt lat="45.27247" lon="5.57508">
        <ele>762</ele>
        <time>2012-11-04T10:33:28Z</time>
      </trkpt>
      <trkpt lat="45.27249" lon="5.57506">
        <ele>764</ele>
        <time>2012-11-04T10:33:29Z</time>
      </trkpt>
      <trkpt lat="45.27251" lon="5.57504">
        <ele>764</ele>
        <time>2012-11-04T10:33:30Z</time>
      </trkpt>
      <trkpt lat="45.27254" lon="5.57502">
        <ele>763</ele>
        <time>2012-11-04T10:33:31Z</time>
      </trkpt>
      <trkpt lat="45.27256" lon="5.57499">
        <ele>763</ele>
        <time>2012-11-04T10:33:32Z</time>
      </trkpt>
      <trkpt lat="45.27258" lon="5.57498">
        <ele>761</ele>
        <time>2012-11-04T10:33:33Z</time>
      </trkpt>
      <trkpt lat="45.2726" lon="5.57496">
        <ele>761</ele>
        <time>2012-11-04T10:33:34Z</time>
      </trkpt>
      <trkpt lat="45.27262" lon="5.57495">
        <ele>761</ele>
        <time>2012-11-04T10:33:35Z</time>
      </trkpt>
      <trkpt lat="45.27263" lon="5.57494">
        <ele>760</ele>
        <time>2012-11-04T10:33:36Z</time>
      </trkpt>
      <trkpt lat="45.27265" lon="5.57493">
        <ele>760</ele>
        <time>2012-11-04T10:33:37Z</time>
      </trkpt>
      <trkpt lat="45.27267" lon="5.57491">
        <ele>759</ele>
        <time>2012-11-04T10:33:38Z</time>
      </trkpt>
      <trkpt lat="45.27271" lon="5.57488">
        <ele>758</ele>
        <time>2012-11-04T10:33:39Z</time>
      </trkpt>
      <trkpt lat="45.27276" lon="5.57485">
        <ele>758</ele>
        <time>2012-11-04T10:33:40Z</time>
      </trkpt>
      <trkpt lat="45.27278" lon="5.57482">
        <ele>758</ele>
        <time>2012-11-04T10:33:41Z</time>
      </trkpt>
      <trkpt lat="45.27286" lon="5.57478">
        <ele>758</ele>
        <time>2012-11-04T10:33:42Z</time>
      </trkpt>
      <trkpt lat="45.27289" lon="5.57475">
        <ele>757</ele>
        <time>2012-11-04T10:33:43Z</time>
      </trkpt>
      <trkpt lat="45.27294" lon="5.57472">
        <ele>757</ele>
        <time>2012-11-04T10:33:44Z</time>
      </trkpt>
      <trkpt lat="45.27298" lon="5.5747">
        <ele>757</ele>
        <time>2012-11-04T10:33:45Z</time>
      </trkpt>
      <trkpt lat="45.27302" lon="5.57468">
        <ele>756</ele>
        <time>2012-11-04T10:33:46Z</time>
      </trkpt>
      <trkpt lat="45.27306" lon="5.57468">
        <ele>756</ele>
        <time>2012-11-04T10:33:47Z</time>
      </trkpt>
      <trkpt lat="45.2731" lon="5.57466">
        <ele>757</ele>
        <time>2012-11-04T10:33:48Z</time>
      </trkpt>
      <trkpt lat="45.27313" lon="5.57466">
        <ele>757</ele>
        <time>2012-11-04T10:33:49Z</time>
      </trkpt>
      <trkpt lat="45.27316" lon="5.57464">
        <ele>757</ele>
        <time>2012-11-04T10:33:50Z</time>
      </trkpt>
      <trkpt lat="45.27318" lon="5.57463">
        <ele>758</ele>
        <time>2012-11-04T10:33:51Z</time>
      </trkpt>
      <trkpt lat="45.27322" lon="5.57461">
        <ele>758</ele>
        <time>2012-11-04T10:33:52Z</time>
      </trkpt>
      <trkpt lat="45.27324" lon="5.5746">
        <ele>756</ele>
        <time>2012-11-04T10:33:53Z</time>
      </trkpt>
      <trkpt lat="45.27326" lon="5.57459">
        <ele>756</ele>
        <time>2012-11-04T10:33:54Z</time>
      </trkpt>
      <trkpt lat="45.27328" lon="5.57457">
        <ele>756</ele>
        <time>2012-11-04T10:33:55Z</time>
      </trkpt>
      <trkpt lat="45.2733" lon="5.57455">
        <ele>756</ele>
        <time>2012-11-04T10:33:56Z</time>
      </trkpt>
      <trkpt lat="45.27333" lon="5.57454">
        <ele>756</ele>
        <time>2012-11-04T10:33:57Z</time>
      </trkpt>
      <trkpt lat="45.27334" lon="5.57453">
        <ele>758</ele>
        <time>2012-11-04T10:33:58Z</time>
      </trkpt>
      <trkpt lat="45.27336" lon="5.57451">
        <ele>757</ele>
        <time>2012-11-04T10:33:59Z</time>
      </trkpt>
      <trkpt lat="45.27337" lon="5.5745">
        <ele>757</ele>
        <time>2012-11-04T10:34:00Z</time>
      </trkpt>
      <trkpt lat="45.27339" lon="5.57449">
        <ele>757</ele>
        <time>2012-11-04T10:34:01Z</time>
      </trkpt>
      <trkpt lat="45.27342" lon="5.57447">
        <ele>756</ele>
        <time>2012-11-04T10:34:02Z</time>
      </trkpt>
      <trkpt lat="45.27344" lon="5.57446">
        <ele>756</ele>
        <time>2012-11-04T10:34:03Z</time>
      </trkpt>
      <trkpt lat="45.27347" lon="5.57445">
        <ele>755</ele>
        <time>2012-11-04T10:34:04Z</time>
      </trkpt>
      <trkpt lat="45.2735" lon="5.57444">
        <ele>754</ele>
        <time>2012-11-04T10:34:05Z</time>
      </trkpt>
      <trkpt lat="45.27353" lon="5.57443">
        <ele>753</ele>
        <time>2012-11-04T10:34:06Z</time>
      </trkpt>
      <trkpt lat="45.27355" lon="5.57442">
        <ele>753</ele>
        <time>2012-11-04T10:34:07Z</time>
      </trkpt>
      <trkpt lat="45.27358" lon="5.57441">
        <ele>753</ele>
        <time>2012-11-04T10:34:08Z</time>
      </trkpt>
      <trkpt lat="45.27361" lon="5.5744">
        <ele>752</ele>
        <time>2012-11-04T10:34:09Z</time>
      </trkpt>
      <trkpt lat="45.27363" lon="5.57438">
        <ele>751</ele>
        <time>2012-11-04T10:34:10Z</time>
      </trkpt>
      <trkpt lat="45.27366" lon="5.57436">
        <ele>751</ele>
        <time>2012-11-04T10:34:11Z</time>
      </trkpt>
      <trkpt lat="45.27368" lon="5.57434">
        <ele>750</ele>
        <time>2012-11-04T10:34:12Z</time>
      </trkpt>
      <trkpt lat="45.2737" lon="5.57432">
        <ele>749</ele>
        <time>2012-11-04T10:34:13Z</time>
      </trkpt>
      <trkpt lat="45.27373" lon="5.5743">
        <ele>749</ele>
        <time>2012-11-04T10:34:14Z</time>
      </trkpt>
      <trkpt lat="45.27375" lon="5.57428">
        <ele>748</ele>
        <time>2012-11-04T10:34:15Z</time>
      </trkpt>
      <trkpt lat="45.27378" lon="5.57426">
        <ele>747</ele>
        <time>2012-11-04T10:34:16Z</time>
      </trkpt>
      <trkpt lat="45.27381" lon="5.57424">
        <ele>747</ele>
        <time>2012-11-04T10:34:17Z</time>
      </trkpt>
      <trkpt lat="45.27383" lon="5.57422">
        <ele>747</ele>
        <time>2012-11-04T10:34:18Z</time>
      </trkpt>
      <trkpt lat="45.27386" lon="5.5742">
        <ele>745</ele>
        <time>2012-11-04T10:34:19Z</time>
      </trkpt>
      <trkpt lat="45.27389" lon="5.57417">
        <ele>745</ele>
        <time>2012-11-04T10:34:20Z</time>
      </trkpt>
      <trkpt lat="45.27392" lon="5.57415">
        <ele>745</ele>
        <time>2012-11-04T10:34:21Z</time>
      </trkpt>
      <trkpt lat="45.27395" lon="5.57412">
        <ele>744</ele>
        <time>2012-11-04T10:34:22Z</time>
      </trkpt>
      <trkpt lat="45.27398" lon="5.5741">
        <ele>743</ele>
        <time>2012-11-04T10:34:23Z</time>
      </trkpt>
      <trkpt lat="45.27401" lon="5.57407">
        <ele>742</ele>
        <time>2012-11-04T10:34:24Z</time>
      </trkpt>
      <trkpt lat="45.27404" lon="5.57403">
        <ele>739</ele>
        <time>2012-11-04T10:34:25Z</time>
      </trkpt>
      <trkpt lat="45.27406" lon="5.574">
        <ele>739</ele>
        <time>2012-11-04T10:34:26Z</time>
      </trkpt>
      <trkpt lat="45.27408" lon="5.57396">
        <ele>739</ele>
        <time>2012-11-04T10:34:27Z</time>
      </trkpt>
      <trkpt lat="45.27409" lon="5.57392">
        <ele>739</ele>
        <time>2012-11-04T10:34:28Z</time>
      </trkpt>
      <trkpt lat="45.27411" lon="5.57389">
        <ele>739</ele>
        <time>2012-11-04T10:34:29Z</time>
      </trkpt>
      <trkpt lat="45.27412" lon="5.57384">
        <ele>736</ele>
        <time>2012-11-04T10:34:30Z</time>
      </trkpt>
      <trkpt lat="45.27412" lon="5.57379">
        <ele>734</ele>
        <time>2012-11-04T10:34:31Z</time>
      </trkpt>
      <trkpt lat="45.27413" lon="5.57376">
        <ele>733</ele>
        <time>2012-11-04T10:34:32Z</time>
      </trkpt>
      <trkpt lat="45.27411" lon="5.57369">
        <ele>733</ele>
        <time>2012-11-04T10:34:33Z</time>
      </trkpt>
      <trkpt lat="45.2741" lon="5.57366">
        <ele>732</ele>
        <time>2012-11-04T10:34:34Z</time>
      </trkpt>
      <trkpt lat="45.27408" lon="5.57363">
        <ele>732</ele>
        <time>2012-11-04T10:34:35Z</time>
      </trkpt>
      <trkpt lat="45.27404" lon="5.57361">
        <ele>732</ele>
        <time>2012-11-04T10:34:36Z</time>
      </trkpt>
      <trkpt lat="45.274" lon="5.57361">
        <ele>730</ele>
        <time>2012-11-04T10:34:37Z</time>
      </trkpt>
      <trkpt lat="45.27398" lon="5.57361">
        <ele>728</ele>
        <time>2012-11-04T10:34:38Z</time>
      </trkpt>
      <trkpt lat="45.27394" lon="5.57363">
        <ele>727</ele>
        <time>2012-11-04T10:34:39Z</time>
      </trkpt>
      <trkpt lat="45.27391" lon="5.57364">
        <ele>727</ele>
        <time>2012-11-04T10:34:40Z</time>
      </trkpt>
      <trkpt lat="45.27387" lon="5.57366">
        <ele>727</ele>
        <time>2012-11-04T10:34:41Z</time>
      </trkpt>
      <trkpt lat="45.27384" lon="5.57368">
        <ele>726</ele>
        <time>2012-11-04T10:34:42Z</time>
      </trkpt>
      <trkpt lat="45.2738" lon="5.57369">
        <ele>727</ele>
        <time>2012-11-04T10:34:43Z</time>
      </trkpt>
      <trkpt lat="45.27376" lon="5.57369">
        <ele>727</ele>
        <time>2012-11-04T10:34:44Z</time>
      </trkpt>
      <trkpt lat="45.27373" lon="5.5737">
        <ele>727</ele>
        <time>2012-11-04T10:34:45Z</time>
      </trkpt>
      <trkpt lat="45.27369" lon="5.57369">
        <ele>727</ele>
        <time>2012-11-04T10:34:46Z</time>
      </trkpt>
      <trkpt lat="45.27365" lon="5.57369">
        <ele>727</ele>
        <time>2012-11-04T10:34:47Z</time>
      </trkpt>
      <trkpt lat="45.27361" lon="5.57369">
        <ele>727</ele>
        <time>2012-11-04T10:34:48Z</time>
      </trkpt>
      <trkpt lat="45.27358" lon="5.57368">
        <ele>726</ele>
        <time>2012-11-04T10:34:49Z</time>
      </trkpt>
      <trkpt lat="45.27355" lon="5.57368">
        <ele>726</ele>
        <time>2012-11-04T10:34:50Z</time>
      </trkpt>
      <trkpt lat="45.27352" lon="5.57367">
        <ele>725</ele>
        <time>2012-11-04T10:34:51Z</time>
      </trkpt>
      <trkpt lat="45.27349" lon="5.57365">
        <ele>725</ele>
        <time>2012-11-04T10:34:52Z</time>
      </trkpt>
      <trkpt lat="45.27346" lon="5.57364">
        <ele>725</ele>
        <time>2012-11-04T10:34:53Z</time>
      </trkpt>
      <trkpt lat="45.27343" lon="5.57362">
        <ele>727</ele>
        <time>2012-11-04T10:34:54Z</time>
      </trkpt>
      <trkpt lat="45.2734" lon="5.57359">
        <ele>726</ele>
        <time>2012-11-04T10:34:55Z</time>
      </trkpt>
      <trkpt lat="45.27337" lon="5.57358">
        <ele>726</ele>
        <time>2012-11-04T10:34:56Z</time>
      </trkpt>
      <trkpt lat="45.27335" lon="5.57355">
        <ele>726</ele>
        <time>2012-11-04T10:34:57Z</time>
      </trkpt>
      <trkpt lat="45.27332" lon="5.57353">
        <ele>726</ele>
        <time>2012-11-04T10:34:58Z</time>
      </trkpt>
      <trkpt lat="45.2733" lon="5.57352">
        <ele>725</ele>
        <time>2012-11-04T10:34:59Z</time>
      </trkpt>
      <trkpt lat="45.27328" lon="5.57353">
        <ele>725</ele>
        <time>2012-11-04T10:35:00Z</time>
      </trkpt>
      <trkpt lat="45.27327" lon="5.57354">
        <ele>724</ele>
        <time>2012-11-04T10:35:01Z</time>
      </trkpt>
      <trkpt lat="45.27326" lon="5.57354">
        <ele>722</ele>
        <time>2012-11-04T10:35:02Z</time>
      </trkpt>
      <trkpt lat="45.27324" lon="5.57354">
        <ele>722</ele>
        <time>2012-11-04T10:35:03Z</time>
      </trkpt>
      <trkpt lat="45.27324" lon="5.57354">
        <ele>721</ele>
        <time>2012-11-04T10:35:04Z</time>
      </trkpt>
      <trkpt lat="45.27323" lon="5.57354">
        <ele>721</ele>
        <time>2012-11-04T10:35:05Z</time>
      </trkpt>
      <trkpt lat="45.27322" lon="5.57354">
        <ele>720</ele>
        <time>2012-11-04T10:35:06Z</time>
      </trkpt>
      <trkpt lat="45.2732" lon="5.57354">
        <ele>721</ele>
        <time>2012-11-04T10:35:07Z</time>
      </trkpt>
      <trkpt lat="45.27319" lon="5.57353">
        <ele>722</ele>
        <time>2012-11-04T10:35:08Z</time>
      </trkpt>
      <trkpt lat="45.27317" lon="5.57352">
        <ele>722</ele>
        <time>2012-11-04T10:35:09Z</time>
      </trkpt>
      <trkpt lat="45.27316" lon="5.57352">
        <ele>722</ele>
        <time>2012-11-04T10:35:10Z</time>
      </trkpt>
      <trkpt lat="45.27315" lon="5.57351">
        <ele>722</ele>
        <time>2012-11-04T10:35:11Z</time>
      </trkpt>
      <trkpt lat="45.27314" lon="5.57351">
        <ele>722</ele>
        <time>2012-11-04T10:35:12Z</time>
      </trkpt>
      <trkpt lat="45.27314" lon="5.57351">
        <ele>721</ele>
        <time>2012-11-04T10:35:13Z</time>
      </trkpt>
      <trkpt lat="45.27313" lon="5.5735">
        <ele>722</ele>
        <time>2012-11-04T10:35:14Z</time>
      </trkpt>
      <trkpt lat="45.27312" lon="5.5735">
        <ele>722</ele>
        <time>2012-11-04T10:35:15Z</time>
      </trkpt>
      <trkpt lat="45.27312" lon="5.5735">
        <ele>721</ele>
        <time>2012-11-04T10:35:16Z</time>
      </trkpt>
      <trkpt lat="45.27311" lon="5.57349">
        <ele>721</ele>
        <time>2012-11-04T10:35:17Z</time>
      </trkpt>
      <trkpt lat="45.2731" lon="5.57348">
        <ele>722</ele>
        <time>2012-11-04T10:35:18Z</time>
      </trkpt>
      <trkpt lat="45.27309" lon="5.57348">
        <ele>722</ele>
        <time>2012-11-04T10:35:19Z</time>
      </trkpt>
      <trkpt lat="45.27308" lon="5.57347">
        <ele>723</ele>
        <time>2012-11-04T10:35:20Z</time>
      </trkpt>
      <trkpt lat="45.27308" lon="5.57346">
        <ele>723</ele>
        <time>2012-11-04T10:35:21Z</time>
      </trkpt>
      <trkpt lat="45.27307" lon="5.57345">
        <ele>722</ele>
        <time>2012-11-04T10:35:22Z</time>
      </trkpt>
      <trkpt lat="45.27306" lon="5.57344">
        <ele>722</ele>
        <time>2012-11-04T10:35:23Z</time>
      </trkpt>
      <trkpt lat="45.27305" lon="5.57343">
        <ele>722</ele>
        <time>2012-11-04T10:35:24Z</time>
      </trkpt>
      <trkpt lat="45.27305" lon="5.57342">
        <ele>722</ele>
        <time>2012-11-04T10:35:25Z</time>
      </trkpt>
      <trkpt lat="45.27304" lon="5.57338">
        <ele>723</ele>
        <time>2012-11-04T10:35:26Z</time>
      </trkpt>
      <trkpt lat="45.27303" lon="5.57336">
        <ele>722</ele>
        <time>2012-11-04T10:35:27Z</time>
      </trkpt>
      <trkpt lat="45.27302" lon="5.57331">
        <ele>721</ele>
        <time>2012-11-04T10:35:28Z</time>
      </trkpt>
      <trkpt lat="45.27302" lon="5.57325">
        <ele>721</ele>
        <time>2012-11-04T10:35:29Z</time>
      </trkpt>
      <trkpt lat="45.273" lon="5.57318">
        <ele>720</ele>
        <time>2012-11-04T10:35:30Z</time>
      </trkpt>
      <trkpt lat="45.27298" lon="5.57312">
        <ele>720</ele>
        <time>2012-11-04T10:35:31Z</time>
      </trkpt>
      <trkpt lat="45.27296" lon="5.57307">
        <ele>719</ele>
        <time>2012-11-04T10:35:32Z</time>
      </trkpt>
      <trkpt lat="45.27294" lon="5.57302">
        <ele>719</ele>
        <time>2012-11-04T10:35:33Z</time>
      </trkpt>
      <trkpt lat="45.27292" lon="5.57297">
        <ele>720</ele>
        <time>2012-11-04T10:35:34Z</time>
      </trkpt>
      <trkpt lat="45.2729" lon="5.57292">
        <ele>720</ele>
        <time>2012-11-04T10:35:35Z</time>
      </trkpt>
      <trkpt lat="45.27288" lon="5.57288">
        <ele>720</ele>
        <time>2012-11-04T10:35:36Z</time>
      </trkpt>
      <trkpt lat="45.27286" lon="5.57283">
        <ele>721</ele>
        <time>2012-11-04T10:35:37Z</time>
      </trkpt>
      <trkpt lat="45.27285" lon="5.57278">
        <ele>721</ele>
        <time>2012-11-04T10:35:38Z</time>
      </trkpt>
      <trkpt lat="45.27283" lon="5.57274">
        <ele>721</ele>
        <time>2012-11-04T10:35:39Z</time>
      </trkpt>
      <trkpt lat="45.27282" lon="5.57269">
        <ele>721</ele>
        <time>2012-11-04T10:35:40Z</time>
      </trkpt>
      <trkpt lat="45.27283" lon="5.57265">
        <ele>722</ele>
        <time>2012-11-04T10:35:41Z</time>
      </trkpt>
      <trkpt lat="45.27284" lon="5.5726">
        <ele>723</ele>
        <time>2012-11-04T10:35:42Z</time>
      </trkpt>
      <trkpt lat="45.27285" lon="5.57256">
        <ele>724</ele>
        <time>2012-11-04T10:35:43Z</time>
      </trkpt>
      <trkpt lat="45.27285" lon="5.57251">
        <ele>725</ele>
        <time>2012-11-04T10:35:44Z</time>
      </trkpt>
      <trkpt lat="45.27286" lon="5.57247">
        <ele>725</ele>
        <time>2012-11-04T10:35:45Z</time>
      </trkpt>
      <trkpt lat="45.27287" lon="5.57243">
        <ele>723</ele>
        <time>2012-11-04T10:35:46Z</time>
      </trkpt>
      <trkpt lat="45.27286" lon="5.57239">
        <ele>722</ele>
        <time>2012-11-04T10:35:47Z</time>
      </trkpt>
      <trkpt lat="45.27286" lon="5.57236">
        <ele>723</ele>
        <time>2012-11-04T10:35:48Z</time>
      </trkpt>
      <trkpt lat="45.27286" lon="5.57233">
        <ele>723</ele>
        <time>2012-11-04T10:35:49Z</time>
      </trkpt>
      <trkpt lat="45.27285" lon="5.57233">
        <ele>722</ele>
        <time>2012-11-04T10:35:50Z</time>
      </trkpt>
      <trkpt lat="45.27285" lon="5.57232">
        <ele>722</ele>
        <time>2012-11-04T10:35:51Z</time>
      </trkpt>
      <trkpt lat="45.27284" lon="5.5723">
        <ele>721</ele>
        <time>2012-11-04T10:35:52Z</time>
      </trkpt>
      <trkpt lat="45.27283" lon="5.57228">
        <ele>721</ele>
        <time>2012-11-04T10:35:53Z</time>
      </trkpt>
      <trkpt lat="45.27282" lon="5.57226">
        <ele>720</ele>
        <time>2012-11-04T10:35:54Z</time>
      </trkpt>
      <trkpt lat="45.27282" lon="5.57225">
        <ele>720</ele>
        <time>2012-11-04T10:35:55Z</time>
      </trkpt>
      <trkpt lat="45.27281" lon="5.57223">
        <ele>720</ele>
        <time>2012-11-04T10:35:56Z</time>
      </trkpt>
      <trkpt lat="45.2728" lon="5.57221">
        <ele>719</ele>
        <time>2012-11-04T10:35:57Z</time>
      </trkpt>
      <trkpt lat="45.2728" lon="5.57222">
        <ele>718</ele>
        <time>2012-11-04T10:35:58Z</time>
      </trkpt>
      <trkpt lat="45.2728" lon="5.57222">
        <ele>718</ele>
        <time>2012-11-04T10:35:59Z</time>
      </trkpt>
      <trkpt lat="45.2728" lon="5.57222">
        <ele>718</ele>
        <time>2012-11-04T10:36:00Z</time>
      </trkpt>
      <trkpt lat="45.2728" lon="5.57228">
        <ele>718</ele>
        <time>2012-11-04T10:36:01Z</time>
      </trkpt>
      <trkpt lat="45.2728" lon="5.57228">
        <ele>718</ele>
        <time>2012-11-04T10:36:02Z</time>
      </trkpt>
      <trkpt lat="45.2728" lon="5.57228">
        <ele>718</ele>
        <time>2012-11-04T10:36:03Z</time>
      </trkpt>
      <trkpt lat="45.2728" lon="5.57228">
        <ele>718</ele>
        <time>2012-11-04T10:36:04Z</time>
      </trkpt>
      <trkpt lat="45.2728" lon="5.57228">
        <ele>718</ele>
        <time>2012-11-04T10:36:05Z</time>
      </trkpt>
      <trkpt lat="45.2728" lon="5.57228">
        <ele>718</ele>
        <time>2012-11-04T10:36:06Z</time>
      </trkpt>
      <trkpt lat="45.2728" lon="5.57228">
        <ele>718</ele>
        <time>2012-11-04T10:36:07Z</time>
      </trkpt>
      <trkpt lat="45.2728" lon="5.57228">
        <ele>718</ele>
        <time>2012-11-04T10:36:08Z</time>
      </trkpt>
      <trkpt lat="45.2728" lon="5.57228">
        <ele>718</ele>
        <time>2012-11-04T10:36:09Z</time>
      </trkpt>
      <trkpt lat="45.27279" lon="5.5723">
        <ele>717</ele>
        <time>2012-11-04T10:36:10Z</time>
      </trkpt>
      <trkpt lat="45.27278" lon="5.57231">
        <ele>716</ele>
        <time>2012-11-04T10:36:11Z</time>
      </trkpt>
      <trkpt lat="45.27277" lon="5.57231">
        <ele>716</ele>
        <time>2012-11-04T10:36:12Z</time>
      </trkpt>
      <trkpt lat="45.27276" lon="5.57232">
        <ele>716</ele>
        <time>2012-11-04T10:36:13Z</time>
      </trkpt>
      <trkpt lat="45.27274" lon="5.57233">
        <ele>716</ele>
        <time>2012-11-04T10:36:14Z</time>
      </trkpt>
      <trkpt lat="45.27273" lon="5.57234">
        <ele>716</ele>
        <time>2012-11-04T10:36:15Z</time>
      </trkpt>
      <trkpt lat="45.2727" lon="5.57238">
        <ele>715</ele>
        <time>2012-11-04T10:36:16Z</time>
      </trkpt>
      <trkpt lat="45.27267" lon="5.5724">
        <ele>714</ele>
        <time>2012-11-04T10:36:17Z</time>
      </trkpt>
      <trkpt lat="45.27263" lon="5.57243">
        <ele>714</ele>
        <time>2012-11-04T10:36:18Z</time>
      </trkpt>
      <trkpt lat="45.27258" lon="5.57244">
        <ele>713</ele>
        <time>2012-11-04T10:36:19Z</time>
      </trkpt>
      <trkpt lat="45.27253" lon="5.57245">
        <ele>714</ele>
        <time>2012-11-04T10:36:20Z</time>
      </trkpt>
      <trkpt lat="45.27249" lon="5.57246">
        <ele>715</ele>
        <time>2012-11-04T10:36:21Z</time>
      </trkpt>
      <trkpt lat="45.27245" lon="5.57246">
        <ele>716</ele>
        <time>2012-11-04T10:36:22Z</time>
      </trkpt>
      <trkpt lat="45.27241" lon="5.57247">
        <ele>715</ele>
        <time>2012-11-04T10:36:23Z</time>
      </trkpt>
      <trkpt lat="45.27238" lon="5.57247">
        <ele>716</ele>
        <time>2012-11-04T10:36:24Z</time>
      </trkpt>
      <trkpt lat="45.27233" lon="5.57246">
        <ele>716</ele>
        <time>2012-11-04T10:36:25Z</time>
      </trkpt>
      <trkpt lat="45.27229" lon="5.57246">
        <ele>716</ele>
        <time>2012-11-04T10:36:26Z</time>
      </trkpt>
      <trkpt lat="45.27225" lon="5.57246">
        <ele>714</ele>
        <time>2012-11-04T10:36:27Z</time>
      </trkpt>
      <trkpt lat="45.27221" lon="5.57245">
        <ele>714</ele>
        <time>2012-11-04T10:36:28Z</time>
      </trkpt>
      <trkpt lat="45.27217" lon="5.57246">
        <ele>715</ele>
        <time>2012-11-04T10:36:29Z</time>
      </trkpt>
      <trkpt lat="45.27213" lon="5.57246">
        <ele>715</ele>
        <time>2012-11-04T10:36:30Z</time>
      </trkpt>
      <trkpt lat="45.2721" lon="5.57245">
        <ele>715</ele>
        <time>2012-11-04T10:36:31Z</time>
      </trkpt>
      <trkpt lat="45.27206" lon="5.57245">
        <ele>715</ele>
        <time>2012-11-04T10:36:32Z</time>
      </trkpt>
      <trkpt lat="45.27203" lon="5.57244">
        <ele>715</ele>
        <time>2012-11-04T10:36:33Z</time>
      </trkpt>
      <trkpt lat="45.272" lon="5.57243">
        <ele>714</ele>
        <time>2012-11-04T10:36:34Z</time>
      </trkpt>
      <trkpt lat="45.27198" lon="5.57243">
        <ele>712</ele>
        <time>2012-11-04T10:36:35Z</time>
      </trkpt>
      <trkpt lat="45.27195" lon="5.57242">
        <ele>711</ele>
        <time>2012-11-04T10:36:36Z</time>
      </trkpt>
      <trkpt lat="45.27192" lon="5.57241">
        <ele>710</ele>
        <time>2012-11-04T10:36:37Z</time>
      </trkpt>
      <trkpt lat="45.27189" lon="5.5724">
        <ele>710</ele>
        <time>2012-11-04T10:36:38Z</time>
      </trkpt>
      <trkpt lat="45.27186" lon="5.57239">
        <ele>708</ele>
        <time>2012-11-04T10:36:39Z</time>
      </trkpt>
      <trkpt lat="45.27183" lon="5.57238">
        <ele>707</ele>
        <time>2012-11-04T10:36:40Z</time>
      </trkpt>
      <trkpt lat="45.2718" lon="5.57237">
        <ele>706</ele>
        <time>2012-11-04T10:36:41Z</time>
      </trkpt>
      <trkpt lat="45.27178" lon="5.57235">
        <ele>706</ele>
        <time>2012-11-04T10:36:42Z</time>
      </trkpt>
      <trkpt lat="45.27175" lon="5.57234">
        <ele>706</ele>
        <time>2012-11-04T10:36:43Z</time>
      </trkpt>
      <trkpt lat="45.27172" lon="5.57233">
        <ele>705</ele>
        <time>2012-11-04T10:36:44Z</time>
      </trkpt>
      <trkpt lat="45.27168" lon="5.57232">
        <ele>704</ele>
        <time>2012-11-04T10:36:45Z</time>
      </trkpt>
      <trkpt lat="45.27165" lon="5.57232">
        <ele>702</ele>
        <time>2012-11-04T10:36:46Z</time>
      </trkpt>
      <trkpt lat="45.27161" lon="5.57233">
        <ele>700</ele>
        <time>2012-11-04T10:36:47Z</time>
      </trkpt>
      <trkpt lat="45.27158" lon="5.57235">
        <ele>701</ele>
        <time>2012-11-04T10:36:48Z</time>
      </trkpt>
      <trkpt lat="45.27156" lon="5.57237">
        <ele>701</ele>
        <time>2012-11-04T10:36:49Z</time>
      </trkpt>
      <trkpt lat="45.27153" lon="5.57238">
        <ele>702</ele>
        <time>2012-11-04T10:36:50Z</time>
      </trkpt>
      <trkpt lat="45.27151" lon="5.57239">
        <ele>703</ele>
        <time>2012-11-04T10:36:51Z</time>
      </trkpt>
      <trkpt lat="45.27149" lon="5.57239">
        <ele>703</ele>
        <time>2012-11-04T10:36:52Z</time>
      </trkpt>
      <trkpt lat="45.27147" lon="5.5724">
        <ele>703</ele>
        <time>2012-11-04T10:36:53Z</time>
      </trkpt>
      <trkpt lat="45.27145" lon="5.57239">
        <ele>703</ele>
        <time>2012-11-04T10:36:54Z</time>
      </trkpt>
      <trkpt lat="45.27144" lon="5.57238">
        <ele>703</ele>
        <time>2012-11-04T10:36:55Z</time>
      </trkpt>
      <trkpt lat="45.27143" lon="5.57237">
        <ele>702</ele>
        <time>2012-11-04T10:36:56Z</time>
      </trkpt>
      <trkpt lat="45.27142" lon="5.57237">
        <ele>702</ele>
        <time>2012-11-04T10:36:57Z</time>
      </trkpt>
      <trkpt lat="45.27142" lon="5.57237">
        <ele>701</ele>
        <time>2012-11-04T10:36:58Z</time>
      </trkpt>
      <trkpt lat="45.27142" lon="5.57237">
        <ele>701</ele>
        <time>2012-11-04T10:36:59Z</time>
      </trkpt>
      <trkpt lat="45.2714" lon="5.57236">
        <ele>701</ele>
        <time>2012-11-04T10:37:00Z</time>
      </trkpt>
      <trkpt lat="45.27139" lon="5.57236">
        <ele>701</ele>
        <time>2012-11-04T10:37:01Z</time>
      </trkpt>
      <trkpt lat="45.27138" lon="5.57235">
        <ele>701</ele>
        <time>2012-11-04T10:37:02Z</time>
      </trkpt>
      <trkpt lat="45.27136" lon="5.57233">
        <ele>701</ele>
        <time>2012-11-04T10:37:03Z</time>
      </trkpt>
      <trkpt lat="45.27137" lon="5.57234">
        <ele>701</ele>
        <time>2012-11-04T10:37:04Z</time>
      </trkpt>
      <trkpt lat="45.27136" lon="5.57234">
        <ele>701</ele>
        <time>2012-11-04T10:37:05Z</time>
      </trkpt>
      <trkpt lat="45.27136" lon="5.57234">
        <ele>700</ele>
        <time>2012-11-04T10:37:06Z</time>
      </trkpt>
      <trkpt lat="45.2714" lon="5.57238">
        <ele>700</ele>
        <time>2012-11-04T10:37:07Z</time>
      </trkpt>
      <trkpt lat="45.2714" lon="5.57238">
        <ele>700</ele>
        <time>2012-11-04T10:37:08Z</time>
      </trkpt>
      <trkpt lat="45.2714" lon="5.57238">
        <ele>700</ele>
        <time>2012-11-04T10:37:09Z</time>
      </trkpt>
      <trkpt lat="45.2714" lon="5.57238">
        <ele>700</ele>
        <time>2012-11-04T10:37:10Z</time>
      </trkpt>
      <trkpt lat="45.2714" lon="5.57238">
        <ele>699</ele>
        <time>2012-11-04T10:37:11Z</time>
      </trkpt>
      <trkpt lat="45.27137" lon="5.5724">
        <ele>699</ele>
        <time>2012-11-04T10:37:12Z</time>
      </trkpt>
      <trkpt lat="45.27136" lon="5.5724">
        <ele>699</ele>
        <time>2012-11-04T10:37:13Z</time>
      </trkpt>
      <trkpt lat="45.27135" lon="5.57241">
        <ele>698</ele>
        <time>2012-11-04T10:37:14Z</time>
      </trkpt>
      <trkpt lat="45.27134" lon="5.57241">
        <ele>699</ele>
        <time>2012-11-04T10:37:15Z</time>
      </trkpt>
      <trkpt lat="45.27133" lon="5.57242">
        <ele>699</ele>
        <time>2012-11-04T10:37:16Z</time>
      </trkpt>
      <trkpt lat="45.27132" lon="5.57242">
        <ele>702</ele>
        <time>2012-11-04T10:37:17Z</time>
      </trkpt>
      <trkpt lat="45.27131" lon="5.57243">
        <ele>703</ele>
        <time>2012-11-04T10:37:18Z</time>
      </trkpt>
      <trkpt lat="45.2713" lon="5.57244">
        <ele>702</ele>
        <time>2012-11-04T10:37:19Z</time>
      </trkpt>
      <trkpt lat="45.27129" lon="5.57245">
        <ele>703</ele>
        <time>2012-11-04T10:37:20Z</time>
      </trkpt>
      <trkpt lat="45.27128" lon="5.57246">
        <ele>702</ele>
        <time>2012-11-04T10:37:21Z</time>
      </trkpt>
      <trkpt lat="45.27127" lon="5.57247">
        <ele>701</ele>
        <time>2012-11-04T10:37:22Z</time>
      </trkpt>
      <trkpt lat="45.27127" lon="5.57247">
        <ele>700</ele>
        <time>2012-11-04T10:37:23Z</time>
      </trkpt>
      <trkpt lat="45.27126" lon="5.57248">
        <ele>700</ele>
        <time>2012-11-04T10:37:24Z</time>
      </trkpt>
      <trkpt lat="45.27125" lon="5.57249">
        <ele>703</ele>
        <time>2012-11-04T10:37:25Z</time>
      </trkpt>
      <trkpt lat="45.27125" lon="5.57249">
        <ele>702</ele>
        <time>2012-11-04T10:37:26Z</time>
      </trkpt>
      <trkpt lat="45.27125" lon="5.57249">
        <ele>702</ele>
        <time>2012-11-04T10:37:27Z</time>
      </trkpt>
      <trkpt lat="45.27125" lon="5.57249">
        <ele>701</ele>
        <time>2012-11-04T10:37:28Z</time>
      </trkpt>
      <trkpt lat="45.27125" lon="5.57249">
        <ele>701</ele>
        <time>2012-11-04T10:37:29Z</time>
      </trkpt>
      <trkpt lat="45.27125" lon="5.57249">
        <ele>701</ele>
        <time>2012-11-04T10:37:30Z</time>
      </trkpt>
      <trkpt lat="45.27125" lon="5.57249">
        <ele>701</ele>
        <time>2012-11-04T10:37:31Z</time>
      </trkpt>
      <trkpt lat="45.27125" lon="5.57249">
        <ele>701</ele>
        <time>2012-11-04T10:37:32Z</time>
      </trkpt>
      <trkpt lat="45.27125" lon="5.57249">
        <ele>701</ele>
        <time>2012-11-04T10:37:33Z</time>
      </trkpt>
      <trkpt lat="45.27125" lon="5.57249">
        <ele>701</ele>
        <time>2012-11-04T10:37:34Z</time>
      </trkpt>
      <trkpt lat="45.27125" lon="5.57249">
        <ele>701</ele>
        <time>2012-11-04T10:37:35Z</time>
      </trkpt>
      <trkpt lat="45.27125" lon="5.57249">
        <ele>701</ele>
        <time>2012-11-04T10:37:36Z</time>
      </trkpt>
      <trkpt lat="45.27125" lon="5.57249">
        <ele>701</ele>
        <time>2012-11-04T10:37:37Z</time>
      </trkpt>
      <trkpt lat="45.27125" lon="5.57249">
        <ele>701</ele>
        <time>2012-11-04T10:37:38Z</time>
      </trkpt>
      <trkpt lat="45.27125" lon="5.57249">
        <ele>701</ele>
        <time>2012-11-04T10:37:39Z</time>
      </trkpt>
      <trkpt lat="45.27125" lon="5.57249">
        <ele>701</ele>
        <time>2012-11-04T10:37:40Z</time>
      </trkpt>
      <trkpt lat="45.27125" lon="5.57249">
        <ele>701</ele>
        <time>2012-11-04T10:37:41Z</time>
      </trkpt>
      <trkpt lat="45.27128" lon="5.57248">
        <ele>701</ele>
        <time>2012-11-04T10:37:42Z</time>
      </trkpt>
      <trkpt lat="45.27176" lon="5.57237">
        <ele>715</ele>
        <time>2012-11-04T10:37:53Z</time>
      </trkpt>
      <trkpt lat="45.27179" lon="5.57238">
        <ele>714</ele>
        <time>2012-11-04T10:37:54Z</time>
      </trkpt>
      <trkpt lat="45.27181" lon="5.57237">
        <ele>714</ele>
        <time>2012-11-04T10:37:55Z</time>
      </trkpt>
      <trkpt lat="45.27184" lon="5.57237">
        <ele>713</ele>
        <time>2012-11-04T10:37:56Z</time>
      </trkpt>
      <trkpt lat="45.27183" lon="5.57238">
        <ele>712</ele>
        <time>2012-11-04T10:37:57Z</time>
      </trkpt>
      <trkpt lat="45.27184" lon="5.57238">
        <ele>713</ele>
        <time>2012-11-04T10:37:58Z</time>
      </trkpt>
      <trkpt lat="45.27187" lon="5.57239">
        <ele>713</ele>
        <time>2012-11-04T10:37:59Z</time>
      </trkpt>
      <trkpt lat="45.27192" lon="5.5724">
        <ele>712</ele>
        <time>2012-11-04T10:38:00Z</time>
      </trkpt>
      <trkpt lat="45.27194" lon="5.57241">
        <ele>715</ele>
        <time>2012-11-04T10:38:01Z</time>
      </trkpt>
      <trkpt lat="45.27197" lon="5.57242">
        <ele>717</ele>
        <time>2012-11-04T10:38:02Z</time>
      </trkpt>
      <trkpt lat="45.27199" lon="5.57243">
        <ele>717</ele>
        <time>2012-11-04T10:38:03Z</time>
      </trkpt>
      <trkpt lat="45.27202" lon="5.57245">
        <ele>716</ele>
        <time>2012-11-04T10:38:04Z</time>
      </trkpt>
      <trkpt lat="45.27205" lon="5.57245">
        <ele>717</ele>
        <time>2012-11-04T10:38:05Z</time>
      </trkpt>
      <trkpt lat="45.27207" lon="5.57247">
        <ele>716</ele>
        <time>2012-11-04T10:38:06Z</time>
      </trkpt>
      <trkpt lat="45.2721" lon="5.57249">
        <ele>715</ele>
        <time>2012-11-04T10:38:07Z</time>
      </trkpt>
      <trkpt lat="45.27213" lon="5.57251">
        <ele>715</ele>
        <time>2012-11-04T10:38:08Z</time>
      </trkpt>
      <trkpt lat="45.27215" lon="5.57253">
        <ele>714</ele>
        <time>2012-11-04T10:38:09Z</time>
      </trkpt>
      <trkpt lat="45.27218" lon="5.57255">
        <ele>714</ele>
        <time>2012-11-04T10:38:10Z</time>
      </trkpt>
      <trkpt lat="45.27221" lon="5.57256">
        <ele>714</ele>
        <time>2012-11-04T10:38:11Z</time>
      </trkpt>
      <trkpt lat="45.27223" lon="5.57257">
        <ele>714</ele>
        <time>2012-11-04T10:38:12Z</time>
      </trkpt>
      <trkpt lat="45.27225" lon="5.57258">
        <ele>714</ele>
        <time>2012-11-04T10:38:13Z</time>
      </trkpt>
      <trkpt lat="45.27227" lon="5.57258">
        <ele>713</ele>
        <time>2012-11-04T10:38:14Z</time>
      </trkpt>
      <trkpt lat="45.27229" lon="5.57258">
        <ele>714</ele>
        <time>2012-11-04T10:38:15Z</time>
      </trkpt>
      <trkpt lat="45.2723" lon="5.57258">
        <ele>714</ele>
        <time>2012-11-04T10:38:16Z</time>
      </trkpt>
      <trkpt lat="45.27237" lon="5.57259">
        <ele>714</ele>
        <time>2012-11-04T10:38:19Z</time>
      </trkpt>
      <trkpt lat="45.27246" lon="5.57256">
        <ele>715</ele>
        <time>2012-11-04T10:38:23Z</time>
      </trkpt>
      <trkpt lat="45.27249" lon="5.57254">
        <ele>715</ele>
        <time>2012-11-04T10:38:24Z</time>
      </trkpt>
      <trkpt lat="45.27251" lon="5.57253">
        <ele>715</ele>
        <time>2012-11-04T10:38:25Z</time>
      </trkpt>
      <trkpt lat="45.27254" lon="5.57251">
        <ele>715</ele>
        <time>2012-11-04T10:38:26Z</time>
      </trkpt>
      <trkpt lat="45.27255" lon="5.57247">
        <ele>714</ele>
        <time>2012-11-04T10:38:27Z</time>
      </trkpt>
      <trkpt lat="45.27256" lon="5.57246">
        <ele>714</ele>
        <time>2012-11-04T10:38:28Z</time>
      </trkpt>
      <trkpt lat="45.27257" lon="5.57244">
        <ele>715</ele>
        <time>2012-11-04T10:38:29Z</time>
      </trkpt>
      <trkpt lat="45.27258" lon="5.57244">
        <ele>717</ele>
        <time>2012-11-04T10:38:30Z</time>
      </trkpt>
      <trkpt lat="45.27257" lon="5.57244">
        <ele>716</ele>
        <time>2012-11-04T10:38:31Z</time>
      </trkpt>
      <trkpt lat="45.27257" lon="5.57244">
        <ele>717</ele>
        <time>2012-11-04T10:38:32Z</time>
      </trkpt>
      <trkpt lat="45.27258" lon="5.57244">
        <ele>717</ele>
        <time>2012-11-04T10:38:33Z</time>
      </trkpt>
      <trkpt lat="45.2726" lon="5.57243">
        <ele>716</ele>
        <time>2012-11-04T10:38:34Z</time>
      </trkpt>
      <trkpt lat="45.27261" lon="5.57242">
        <ele>716</ele>
        <time>2012-11-04T10:38:35Z</time>
      </trkpt>
      <trkpt lat="45.27262" lon="5.57241">
        <ele>716</ele>
        <time>2012-11-04T10:38:36Z</time>
      </trkpt>
      <trkpt lat="45.27264" lon="5.57241">
        <ele>716</ele>
        <time>2012-11-04T10:38:37Z</time>
      </trkpt>
      <trkpt lat="45.27266" lon="5.57241">
        <ele>716</ele>
        <time>2012-11-04T10:38:39Z</time>
      </trkpt>
      <trkpt lat="45.27268" lon="5.57241">
        <ele>717</ele>
        <time>2012-11-04T10:38:40Z</time>
      </trkpt>
      <trkpt lat="45.2727" lon="5.5724">
        <ele>717</ele>
        <time>2012-11-04T10:38:42Z</time>
      </trkpt>
      <trkpt lat="45.27272" lon="5.57239">
        <ele>717</ele>
        <time>2012-11-04T10:38:43Z</time>
      </trkpt>
      <trkpt lat="45.27273" lon="5.57238">
        <ele>717</ele>
        <time>2012-11-04T10:38:44Z</time>
      </trkpt>
      <trkpt lat="45.27274" lon="5.57237">
        <ele>717</ele>
        <time>2012-11-04T10:38:45Z</time>
      </trkpt>
      <trkpt lat="45.27274" lon="5.57236">
        <ele>717</ele>
        <time>2012-11-04T10:38:46Z</time>
      </trkpt>
      <trkpt lat="45.27275" lon="5.57235">
        <ele>717</ele>
        <time>2012-11-04T10:38:47Z</time>
      </trkpt>
      <trkpt lat="45.27276" lon="5.57233">
        <ele>717</ele>
        <time>2012-11-04T10:38:48Z</time>
      </trkpt>
      <trkpt lat="45.27277" lon="5.57232">
        <ele>717</ele>
        <time>2012-11-04T10:38:49Z</time>
      </trkpt>
      <trkpt lat="45.27278" lon="5.5723">
        <ele>717</ele>
        <time>2012-11-04T10:38:50Z</time>
      </trkpt>
      <trkpt lat="45.27279" lon="5.57229">
        <ele>717</ele>
        <time>2012-11-04T10:38:51Z</time>
      </trkpt>
      <trkpt lat="45.2728" lon="5.57227">
        <ele>717</ele>
        <time>2012-11-04T10:38:52Z</time>
      </trkpt>
      <trkpt lat="45.2728" lon="5.57226">
        <ele>717</ele>
        <time>2012-11-04T10:38:53Z</time>
      </trkpt>
      <trkpt lat="45.27282" lon="5.57224">
        <ele>717</ele>
        <time>2012-11-04T10:38:54Z</time>
      </trkpt>
      <trkpt lat="45.27283" lon="5.57222">
        <ele>717</ele>
        <time>2012-11-04T10:38:55Z</time>
      </trkpt>
      <trkpt lat="45.27285" lon="5.57218">
        <ele>716</ele>
        <time>2012-11-04T10:38:56Z</time>
      </trkpt>
      <trkpt lat="45.27287" lon="5.57215">
        <ele>717</ele>
        <time>2012-11-04T10:38:57Z</time>
      </trkpt>
      <trkpt lat="45.27289" lon="5.57212">
        <ele>718</ele>
        <time>2012-11-04T10:38:58Z</time>
      </trkpt>
      <trkpt lat="45.2729" lon="5.57209">
        <ele>716</ele>
        <time>2012-11-04T10:38:59Z</time>
      </trkpt>
      <trkpt lat="45.27291" lon="5.57207">
        <ele>718</ele>
        <time>2012-11-04T10:39:00Z</time>
      </trkpt>
      <trkpt lat="45.27292" lon="5.57205">
        <ele>717</ele>
        <time>2012-11-04T10:39:01Z</time>
      </trkpt>
      <trkpt lat="45.27293" lon="5.57203">
        <ele>718</ele>
        <time>2012-11-04T10:39:02Z</time>
      </trkpt>
      <trkpt lat="45.27294" lon="5.57202">
        <ele>717</ele>
        <time>2012-11-04T10:39:03Z</time>
      </trkpt>
      <trkpt lat="45.27295" lon="5.57201">
        <ele>717</ele>
        <time>2012-11-04T10:39:04Z</time>
      </trkpt>
      <trkpt lat="45.27296" lon="5.57199">
        <ele>717</ele>
        <time>2012-11-04T10:39:05Z</time>
      </trkpt>
      <trkpt lat="45.27297" lon="5.57198">
        <ele>717</ele>
        <time>2012-11-04T10:39:06Z</time>
      </trkpt>
      <trkpt lat="45.27298" lon="5.57197">
        <ele>716</ele>
        <time>2012-11-04T10:39:07Z</time>
      </trkpt>
      <trkpt lat="45.27299" lon="5.57196">
        <ele>716</ele>
        <time>2012-11-04T10:39:08Z</time>
      </trkpt>
      <trkpt lat="45.273" lon="5.57196">
        <ele>716</ele>
        <time>2012-11-04T10:39:09Z</time>
      </trkpt>
      <trkpt lat="45.27301" lon="5.57196">
        <ele>717</ele>
        <time>2012-11-04T10:39:10Z</time>
      </trkpt>
      <trkpt lat="45.27302" lon="5.57195">
        <ele>715</ele>
        <time>2012-11-04T10:39:11Z</time>
      </trkpt>
      <trkpt lat="45.27303" lon="5.57196">
        <ele>711</ele>
        <time>2012-11-04T10:39:12Z</time>
      </trkpt>
      <trkpt lat="45.27303" lon="5.57196">
        <ele>711</ele>
        <time>2012-11-04T10:39:13Z</time>
      </trkpt>
      <trkpt lat="45.27304" lon="5.57197">
        <ele>711</ele>
        <time>2012-11-04T10:39:14Z</time>
      </trkpt>
      <trkpt lat="45.27305" lon="5.57196">
        <ele>711</ele>
        <time>2012-11-04T10:39:15Z</time>
      </trkpt>
      <trkpt lat="45.27306" lon="5.57195">
        <ele>712</ele>
        <time>2012-11-04T10:39:16Z</time>
      </trkpt>
      <trkpt lat="45.27307" lon="5.57195">
        <ele>712</ele>
        <time>2012-11-04T10:39:17Z</time>
      </trkpt>
      <trkpt lat="45.27308" lon="5.57193">
        <ele>712</ele>
        <time>2012-11-04T10:39:18Z</time>
      </trkpt>
      <trkpt lat="45.27309" lon="5.57191">
        <ele>713</ele>
        <time>2012-11-04T10:39:19Z</time>
      </trkpt>
      <trkpt lat="45.27309" lon="5.5719">
        <ele>713</ele>
        <time>2012-11-04T10:39:20Z</time>
      </trkpt>
      <trkpt lat="45.2731" lon="5.57188">
        <ele>712</ele>
        <time>2012-11-04T10:39:21Z</time>
      </trkpt>
      <trkpt lat="45.27312" lon="5.57185">
        <ele>713</ele>
        <time>2012-11-04T10:39:22Z</time>
      </trkpt>
      <trkpt lat="45.27314" lon="5.57183">
        <ele>714</ele>
        <time>2012-11-04T10:39:23Z</time>
      </trkpt>
      <trkpt lat="45.27317" lon="5.5718">
        <ele>714</ele>
        <time>2012-11-04T10:39:24Z</time>
      </trkpt>
      <trkpt lat="45.27319" lon="5.57178">
        <ele>714</ele>
        <time>2012-11-04T10:39:25Z</time>
      </trkpt>
      <trkpt lat="45.27321" lon="5.57173">
        <ele>716</ele>
        <time>2012-11-04T10:39:26Z</time>
      </trkpt>
      <trkpt lat="45.27323" lon="5.57171">
        <ele>716</ele>
        <time>2012-11-04T10:39:27Z</time>
      </trkpt>
      <trkpt lat="45.27325" lon="5.57168">
        <ele>715</ele>
        <time>2012-11-04T10:39:28Z</time>
      </trkpt>
      <trkpt lat="45.27325" lon="5.57165">
        <ele>715</ele>
        <time>2012-11-04T10:39:29Z</time>
      </trkpt>
      <trkpt lat="45.27326" lon="5.5716">
        <ele>715</ele>
        <time>2012-11-04T10:39:30Z</time>
      </trkpt>
      <trkpt lat="45.27326" lon="5.57156">
        <ele>718</ele>
        <time>2012-11-04T10:39:31Z</time>
      </trkpt>
      <trkpt lat="45.27327" lon="5.57151">
        <ele>718</ele>
        <time>2012-11-04T10:39:32Z</time>
      </trkpt>
      <trkpt lat="45.27328" lon="5.57148">
        <ele>721</ele>
        <time>2012-11-04T10:39:33Z</time>
      </trkpt>
      <trkpt lat="45.27329" lon="5.57145">
        <ele>722</ele>
        <time>2012-11-04T10:39:34Z</time>
      </trkpt>
      <trkpt lat="45.2733" lon="5.57143">
        <ele>722</ele>
        <time>2012-11-04T10:39:35Z</time>
      </trkpt>
      <trkpt lat="45.27331" lon="5.57141">
        <ele>722</ele>
        <time>2012-11-04T10:39:36Z</time>
      </trkpt>
      <trkpt lat="45.27332" lon="5.57138">
        <ele>721</ele>
        <time>2012-11-04T10:39:37Z</time>
      </trkpt>
      <trkpt lat="45.27333" lon="5.57134">
        <ele>721</ele>
        <time>2012-11-04T10:39:38Z</time>
      </trkpt>
      <trkpt lat="45.27334" lon="5.57131">
        <ele>721</ele>
        <time>2012-11-04T10:39:39Z</time>
      </trkpt>
      <trkpt lat="45.27334" lon="5.57128">
        <ele>722</ele>
        <time>2012-11-04T10:39:40Z</time>
      </trkpt>
      <trkpt lat="45.27335" lon="5.57126">
        <ele>722</ele>
        <time>2012-11-04T10:39:41Z</time>
      </trkpt>
      <trkpt lat="45.27336" lon="5.57123">
        <ele>723</ele>
        <time>2012-11-04T10:39:42Z</time>
      </trkpt>
      <trkpt lat="45.27338" lon="5.57121">
        <ele>723</ele>
        <time>2012-11-04T10:39:43Z</time>
      </trkpt>
      <trkpt lat="45.2734" lon="5.57117">
        <ele>724</ele>
        <time>2012-11-04T10:39:44Z</time>
      </trkpt>
      <trkpt lat="45.27342" lon="5.57114">
        <ele>723</ele>
        <time>2012-11-04T10:39:45Z</time>
      </trkpt>
      <trkpt lat="45.27345" lon="5.57112">
        <ele>720</ele>
        <time>2012-11-04T10:39:46Z</time>
      </trkpt>
      <trkpt lat="45.27346" lon="5.57109">
        <ele>718</ele>
        <time>2012-11-04T10:39:47Z</time>
      </trkpt>
      <trkpt lat="45.2735" lon="5.57107">
        <ele>719</ele>
        <time>2012-11-04T10:39:48Z</time>
      </trkpt>
      <trkpt lat="45.27352" lon="5.57104">
        <ele>718</ele>
        <time>2012-11-04T10:39:49Z</time>
      </trkpt>
      <trkpt lat="45.27365" lon="5.57099">
        <ele>718</ele>
        <time>2012-11-04T10:39:52Z</time>
      </trkpt>
      <trkpt lat="45.27368" lon="5.57096">
        <ele>718</ele>
        <time>2012-11-04T10:39:53Z</time>
      </trkpt>
      <trkpt lat="45.27369" lon="5.57092">
        <ele>719</ele>
        <time>2012-11-04T10:39:54Z</time>
      </trkpt>
      <trkpt lat="45.2737" lon="5.57088">
        <ele>718</ele>
        <time>2012-11-04T10:39:55Z</time>
      </trkpt>
      <trkpt lat="45.27372" lon="5.57085">
        <ele>718</ele>
        <time>2012-11-04T10:39:56Z</time>
      </trkpt>
      <trkpt lat="45.27373" lon="5.57082">
        <ele>718</ele>
        <time>2012-11-04T10:39:57Z</time>
      </trkpt>
      <trkpt lat="45.27373" lon="5.57079">
        <ele>716</ele>
        <time>2012-11-04T10:39:58Z</time>
      </trkpt>
      <trkpt lat="45.27374" lon="5.57076">
        <ele>715</ele>
        <time>2012-11-04T10:39:59Z</time>
      </trkpt>
      <trkpt lat="45.27376" lon="5.57073">
        <ele>713</ele>
        <time>2012-11-04T10:40:00Z</time>
      </trkpt>
      <trkpt lat="45.27377" lon="5.57069">
        <ele>714</ele>
        <time>2012-11-04T10:40:01Z</time>
      </trkpt>
      <trkpt lat="45.27378" lon="5.57066">
        <ele>716</ele>
        <time>2012-11-04T10:40:02Z</time>
      </trkpt>
      <trkpt lat="45.27379" lon="5.57062">
        <ele>716</ele>
        <time>2012-11-04T10:40:03Z</time>
      </trkpt>
      <trkpt lat="45.2738" lon="5.57058">
        <ele>717</ele>
        <time>2012-11-04T10:40:04Z</time>
      </trkpt>
      <trkpt lat="45.27382" lon="5.57055">
        <ele>714</ele>
        <time>2012-11-04T10:40:05Z</time>
      </trkpt>
      <trkpt lat="45.27383" lon="5.57052">
        <ele>713</ele>
        <time>2012-11-04T10:40:06Z</time>
      </trkpt>
      <trkpt lat="45.27386" lon="5.57051">
        <ele>714</ele>
        <time>2012-11-04T10:40:07Z</time>
      </trkpt>
      <trkpt lat="45.27389" lon="5.5705">
        <ele>715</ele>
        <time>2012-11-04T10:40:08Z</time>
      </trkpt>
      <trkpt lat="45.27395" lon="5.57048">
        <ele>716</ele>
        <time>2012-11-04T10:40:10Z</time>
      </trkpt>
      <trkpt lat="45.27403" lon="5.57048">
        <ele>715</ele>
        <time>2012-11-04T10:40:13Z</time>
      </trkpt>
      <trkpt lat="45.27405" lon="5.57049">
        <ele>715</ele>
        <time>2012-11-04T10:40:14Z</time>
      </trkpt>
      <trkpt lat="45.27407" lon="5.5705">
        <ele>715</ele>
        <time>2012-11-04T10:40:15Z</time>
      </trkpt>
      <trkpt lat="45.27408" lon="5.5705">
        <ele>715</ele>
        <time>2012-11-04T10:40:16Z</time>
      </trkpt>
      <trkpt lat="45.27409" lon="5.57051">
        <ele>715</ele>
        <time>2012-11-04T10:40:17Z</time>
      </trkpt>
      <trkpt lat="45.27411" lon="5.57051">
        <ele>715</ele>
        <time>2012-11-04T10:40:18Z</time>
      </trkpt>
      <trkpt lat="45.27412" lon="5.5705">
        <ele>714</ele>
        <time>2012-11-04T10:40:19Z</time>
      </trkpt>
      <trkpt lat="45.27413" lon="5.5705">
        <ele>715</ele>
        <time>2012-11-04T10:40:20Z</time>
      </trkpt>
      <trkpt lat="45.27413" lon="5.57049">
        <ele>713</ele>
        <time>2012-11-04T10:40:21Z</time>
      </trkpt>
      <trkpt lat="45.27414" lon="5.57049">
        <ele>713</ele>
        <time>2012-11-04T10:40:22Z</time>
      </trkpt>
      <trkpt lat="45.27415" lon="5.57048">
        <ele>712</ele>
        <time>2012-11-04T10:40:23Z</time>
      </trkpt>
      <trkpt lat="45.27416" lon="5.57049">
        <ele>712</ele>
        <time>2012-11-04T10:40:24Z</time>
      </trkpt>
      <trkpt lat="45.27417" lon="5.57048">
        <ele>712</ele>
        <time>2012-11-04T10:40:25Z</time>
      </trkpt>
      <trkpt lat="45.27418" lon="5.57048">
        <ele>712</ele>
        <time>2012-11-04T10:40:26Z</time>
      </trkpt>
      <trkpt lat="45.27419" lon="5.57048">
        <ele>713</ele>
        <time>2012-11-04T10:40:27Z</time>
      </trkpt>
      <trkpt lat="45.2742" lon="5.57048">
        <ele>713</ele>
        <time>2012-11-04T10:40:28Z</time>
      </trkpt>
      <trkpt lat="45.27421" lon="5.57049">
        <ele>714</ele>
        <time>2012-11-04T10:40:29Z</time>
      </trkpt>
      <trkpt lat="45.27422" lon="5.5705">
        <ele>716</ele>
        <time>2012-11-04T10:40:30Z</time>
      </trkpt>
      <trkpt lat="45.27423" lon="5.57051">
        <ele>716</ele>
        <time>2012-11-04T10:40:31Z</time>
      </trkpt>
      <trkpt lat="45.27424" lon="5.57052">
        <ele>717</ele>
        <time>2012-11-04T10:40:32Z</time>
      </trkpt>
      <trkpt lat="45.27426" lon="5.57054">
        <ele>717</ele>
        <time>2012-11-04T10:40:33Z</time>
      </trkpt>
      <trkpt lat="45.27427" lon="5.57054">
        <ele>717</ele>
        <time>2012-11-04T10:40:34Z</time>
      </trkpt>
      <trkpt lat="45.27429" lon="5.57056">
        <ele>721</ele>
        <time>2012-11-04T10:40:35Z</time>
      </trkpt>
      <trkpt lat="45.27431" lon="5.57057">
        <ele>721</ele>
        <time>2012-11-04T10:40:36Z</time>
      </trkpt>
      <trkpt lat="45.27432" lon="5.57057">
        <ele>721</ele>
        <time>2012-11-04T10:40:37Z</time>
      </trkpt>
      <trkpt lat="45.27433" lon="5.57058">
        <ele>720</ele>
        <time>2012-11-04T10:40:38Z</time>
      </trkpt>
      <trkpt lat="45.27434" lon="5.57058">
        <ele>721</ele>
        <time>2012-11-04T10:40:39Z</time>
      </trkpt>
      <trkpt lat="45.27435" lon="5.57058">
        <ele>720</ele>
        <time>2012-11-04T10:40:40Z</time>
      </trkpt>
      <trkpt lat="45.27435" lon="5.57059">
        <ele>721</ele>
        <time>2012-11-04T10:40:41Z</time>
      </trkpt>
      <trkpt lat="45.27436" lon="5.57059">
        <ele>722</ele>
        <time>2012-11-04T10:40:42Z</time>
      </trkpt>
      <trkpt lat="45.27436" lon="5.57061">
        <ele>722</ele>
        <time>2012-11-04T10:40:43Z</time>
      </trkpt>
      <trkpt lat="45.27437" lon="5.57062">
        <ele>722</ele>
        <time>2012-11-04T10:40:44Z</time>
      </trkpt>
      <trkpt lat="45.27437" lon="5.57064">
        <ele>722</ele>
        <time>2012-11-04T10:40:45Z</time>
      </trkpt>
      <trkpt lat="45.27438" lon="5.57066">
        <ele>721</ele>
        <time>2012-11-04T10:40:46Z</time>
      </trkpt>
      <trkpt lat="45.2744" lon="5.57067">
        <ele>721</ele>
        <time>2012-11-04T10:40:47Z</time>
      </trkpt>
      <trkpt lat="45.27441" lon="5.57068">
        <ele>720</ele>
        <time>2012-11-04T10:40:48Z</time>
      </trkpt>
      <trkpt lat="45.27443" lon="5.57069">
        <ele>719</ele>
        <time>2012-11-04T10:40:49Z</time>
      </trkpt>
      <trkpt lat="45.27445" lon="5.5707">
        <ele>719</ele>
        <time>2012-11-04T10:40:50Z</time>
      </trkpt>
      <trkpt lat="45.27447" lon="5.5707">
        <ele>718</ele>
        <time>2012-11-04T10:40:51Z</time>
      </trkpt>
      <trkpt lat="45.27448" lon="5.57073">
        <ele>716</ele>
        <time>2012-11-04T10:40:52Z</time>
      </trkpt>
      <trkpt lat="45.27449" lon="5.57075">
        <ele>716</ele>
        <time>2012-11-04T10:40:53Z</time>
      </trkpt>
      <trkpt lat="45.2745" lon="5.57078">
        <ele>716</ele>
        <time>2012-11-04T10:40:54Z</time>
      </trkpt>
      <trkpt lat="45.27452" lon="5.5708">
        <ele>716</ele>
        <time>2012-11-04T10:40:55Z</time>
      </trkpt>
      <trkpt lat="45.27452" lon="5.57084">
        <ele>715</ele>
        <time>2012-11-04T10:40:56Z</time>
      </trkpt>
      <trkpt lat="45.27453" lon="5.57088">
        <ele>715</ele>
        <time>2012-11-04T10:40:57Z</time>
      </trkpt>
      <trkpt lat="45.27454" lon="5.57091">
        <ele>714</ele>
        <time>2012-11-04T10:40:58Z</time>
      </trkpt>
      <trkpt lat="45.27454" lon="5.57095">
        <ele>714</ele>
        <time>2012-11-04T10:40:59Z</time>
      </trkpt>
      <trkpt lat="45.27454" lon="5.571">
        <ele>714</ele>
        <time>2012-11-04T10:41:00Z</time>
      </trkpt>
      <trkpt lat="45.27454" lon="5.57106">
        <ele>713</ele>
        <time>2012-11-04T10:41:01Z</time>
      </trkpt>
      <trkpt lat="45.27454" lon="5.57111">
        <ele>711</ele>
        <time>2012-11-04T10:41:02Z</time>
      </trkpt>
      <trkpt lat="45.27454" lon="5.57117">
        <ele>711</ele>
        <time>2012-11-04T10:41:03Z</time>
      </trkpt>
      <trkpt lat="45.27454" lon="5.57124">
        <ele>710</ele>
        <time>2012-11-04T10:41:04Z</time>
      </trkpt>
      <trkpt lat="45.27454" lon="5.57128">
        <ele>710</ele>
        <time>2012-11-04T10:41:05Z</time>
      </trkpt>
      <trkpt lat="45.27454" lon="5.57134">
        <ele>709</ele>
        <time>2012-11-04T10:41:06Z</time>
      </trkpt>
      <trkpt lat="45.27454" lon="5.5714">
        <ele>708</ele>
        <time>2012-11-04T10:41:07Z</time>
      </trkpt>
      <trkpt lat="45.27455" lon="5.57144">
        <ele>708</ele>
        <time>2012-11-04T10:41:08Z</time>
      </trkpt>
      <trkpt lat="45.27456" lon="5.57147">
        <ele>707</ele>
        <time>2012-11-04T10:41:09Z</time>
      </trkpt>
      <trkpt lat="45.27458" lon="5.5715">
        <ele>707</ele>
        <time>2012-11-04T10:41:10Z</time>
      </trkpt>
      <trkpt lat="45.2746" lon="5.57152">
        <ele>708</ele>
        <time>2012-11-04T10:41:11Z</time>
      </trkpt>
      <trkpt lat="45.27463" lon="5.57154">
        <ele>707</ele>
        <time>2012-11-04T10:41:12Z</time>
      </trkpt>
      <trkpt lat="45.27466" lon="5.57156">
        <ele>706</ele>
        <time>2012-11-04T10:41:13Z</time>
      </trkpt>
      <trkpt lat="45.2747" lon="5.57158">
        <ele>705</ele>
        <time>2012-11-04T10:41:14Z</time>
      </trkpt>
      <trkpt lat="45.27473" lon="5.57161">
        <ele>707</ele>
        <time>2012-11-04T10:41:15Z</time>
      </trkpt>
      <trkpt lat="45.27476" lon="5.57164">
        <ele>706</ele>
        <time>2012-11-04T10:41:16Z</time>
      </trkpt>
      <trkpt lat="45.27478" lon="5.57166">
        <ele>706</ele>
        <time>2012-11-04T10:41:17Z</time>
      </trkpt>
      <trkpt lat="45.2748" lon="5.57169">
        <ele>705</ele>
        <time>2012-11-04T10:41:18Z</time>
      </trkpt>
      <trkpt lat="45.27482" lon="5.57172">
        <ele>705</ele>
        <time>2012-11-04T10:41:19Z</time>
      </trkpt>
      <trkpt lat="45.27486" lon="5.57174">
        <ele>705</ele>
        <time>2012-11-04T10:41:20Z</time>
      </trkpt>
      <trkpt lat="45.27489" lon="5.57177">
        <ele>705</ele>
        <time>2012-11-04T10:41:21Z</time>
      </trkpt>
      <trkpt lat="45.27493" lon="5.57179">
        <ele>705</ele>
        <time>2012-11-04T10:41:22Z</time>
      </trkpt>
      <trkpt lat="45.27496" lon="5.57179">
        <ele>702</ele>
        <time>2012-11-04T10:41:23Z</time>
      </trkpt>
      <trkpt lat="45.27499" lon="5.57181">
        <ele>702</ele>
        <time>2012-11-04T10:41:24Z</time>
      </trkpt>
      <trkpt lat="45.27501" lon="5.5718">
        <ele>702</ele>
        <time>2012-11-04T10:41:25Z</time>
      </trkpt>
      <trkpt lat="45.27504" lon="5.57179">
        <ele>702</ele>
        <time>2012-11-04T10:41:26Z</time>
      </trkpt>
      <trkpt lat="45.27506" lon="5.57178">
        <ele>701</ele>
        <time>2012-11-04T10:41:27Z</time>
      </trkpt>
      <trkpt lat="45.27509" lon="5.57177">
        <ele>700</ele>
        <time>2012-11-04T10:41:28Z</time>
      </trkpt>
      <trkpt lat="45.27512" lon="5.57176">
        <ele>700</ele>
        <time>2012-11-04T10:41:29Z</time>
      </trkpt>
      <trkpt lat="45.27532" lon="5.57171">
        <ele>697</ele>
        <time>2012-11-04T10:41:34Z</time>
      </trkpt>
      <trkpt lat="45.27535" lon="5.57169">
        <ele>698</ele>
        <time>2012-11-04T10:41:35Z</time>
      </trkpt>
      <trkpt lat="45.27538" lon="5.57167">
        <ele>698</ele>
        <time>2012-11-04T10:41:36Z</time>
      </trkpt>
      <trkpt lat="45.27541" lon="5.57166">
        <ele>698</ele>
        <time>2012-11-04T10:41:37Z</time>
      </trkpt>
      <trkpt lat="45.27544" lon="5.57163">
        <ele>697</ele>
        <time>2012-11-04T10:41:38Z</time>
      </trkpt>
      <trkpt lat="45.27547" lon="5.5716">
        <ele>697</ele>
        <time>2012-11-04T10:41:39Z</time>
      </trkpt>
      <trkpt lat="45.2755" lon="5.57156">
        <ele>696</ele>
        <time>2012-11-04T10:41:40Z</time>
      </trkpt>
      <trkpt lat="45.27552" lon="5.57151">
        <ele>695</ele>
        <time>2012-11-04T10:41:41Z</time>
      </trkpt>
      <trkpt lat="45.27555" lon="5.57148">
        <ele>694</ele>
        <time>2012-11-04T10:41:42Z</time>
      </trkpt>
      <trkpt lat="45.27558" lon="5.57145">
        <ele>694</ele>
        <time>2012-11-04T10:41:43Z</time>
      </trkpt>
      <trkpt lat="45.27561" lon="5.57143">
        <ele>694</ele>
        <time>2012-11-04T10:41:44Z</time>
      </trkpt>
      <trkpt lat="45.27564" lon="5.57142">
        <ele>694</ele>
        <time>2012-11-04T10:41:45Z</time>
      </trkpt>
      <trkpt lat="45.27566" lon="5.5714">
        <ele>694</ele>
        <time>2012-11-04T10:41:46Z</time>
      </trkpt>
      <trkpt lat="45.27571" lon="5.57139">
        <ele>694</ele>
        <time>2012-11-04T10:41:48Z</time>
      </trkpt>
      <trkpt lat="45.27573" lon="5.57138">
        <ele>694</ele>
        <time>2012-11-04T10:41:49Z</time>
      </trkpt>
      <trkpt lat="45.27575" lon="5.57137">
        <ele>693</ele>
        <time>2012-11-04T10:41:50Z</time>
      </trkpt>
      <trkpt lat="45.27577" lon="5.57136">
        <ele>692</ele>
        <time>2012-11-04T10:41:51Z</time>
      </trkpt>
      <trkpt lat="45.27578" lon="5.57135">
        <ele>691</ele>
        <time>2012-11-04T10:41:52Z</time>
      </trkpt>
      <trkpt lat="45.27579" lon="5.57134">
        <ele>689</ele>
        <time>2012-11-04T10:41:53Z</time>
      </trkpt>
      <trkpt lat="45.27581" lon="5.57133">
        <ele>686</ele>
        <time>2012-11-04T10:41:54Z</time>
      </trkpt>
      <trkpt lat="45.27582" lon="5.57133">
        <ele>686</ele>
        <time>2012-11-04T10:41:55Z</time>
      </trkpt>
      <trkpt lat="45.27582" lon="5.57132">
        <ele>686</ele>
        <time>2012-11-04T10:41:56Z</time>
      </trkpt>
      <trkpt lat="45.27583" lon="5.57131">
        <ele>685</ele>
        <time>2012-11-04T10:41:57Z</time>
      </trkpt>
      <trkpt lat="45.27584" lon="5.57131">
        <ele>686</ele>
        <time>2012-11-04T10:41:58Z</time>
      </trkpt>
      <trkpt lat="45.27586" lon="5.5713">
        <ele>687</ele>
        <time>2012-11-04T10:41:59Z</time>
      </trkpt>
      <trkpt lat="45.27587" lon="5.57128">
        <ele>687</ele>
        <time>2012-11-04T10:42:00Z</time>
      </trkpt>
      <trkpt lat="45.27588" lon="5.57127">
        <ele>687</ele>
        <time>2012-11-04T10:42:01Z</time>
      </trkpt>
      <trkpt lat="45.2759" lon="5.57124">
        <ele>688</ele>
        <time>2012-11-04T10:42:02Z</time>
      </trkpt>
      <trkpt lat="45.27593" lon="5.57123">
        <ele>689</ele>
        <time>2012-11-04T10:42:03Z</time>
      </trkpt>
      <trkpt lat="45.27595" lon="5.57121">
        <ele>688</ele>
        <time>2012-11-04T10:42:04Z</time>
      </trkpt>
      <trkpt lat="45.27597" lon="5.5712">
        <ele>688</ele>
        <time>2012-11-04T10:42:05Z</time>
      </trkpt>
      <trkpt lat="45.276" lon="5.57119">
        <ele>688</ele>
        <time>2012-11-04T10:42:06Z</time>
      </trkpt>
      <trkpt lat="45.27602" lon="5.57117">
        <ele>687</ele>
        <time>2012-11-04T10:42:07Z</time>
      </trkpt>
      <trkpt lat="45.27604" lon="5.57116">
        <ele>686</ele>
        <time>2012-11-04T10:42:08Z</time>
      </trkpt>
      <trkpt lat="45.27607" lon="5.57115">
        <ele>687</ele>
        <time>2012-11-04T10:42:09Z</time>
      </trkpt>
      <trkpt lat="45.27609" lon="5.57114">
        <ele>687</ele>
        <time>2012-11-04T10:42:10Z</time>
      </trkpt>
      <trkpt lat="45.27612" lon="5.57113">
        <ele>686</ele>
        <time>2012-11-04T10:42:11Z</time>
      </trkpt>
      <trkpt lat="45.27615" lon="5.57112">
        <ele>686</ele>
        <time>2012-11-04T10:42:12Z</time>
      </trkpt>
      <trkpt lat="45.27616" lon="5.57111">
        <ele>686</ele>
        <time>2012-11-04T10:42:13Z</time>
      </trkpt>
      <trkpt lat="45.27624" lon="5.57109">
        <ele>690</ele>
        <time>2012-11-04T10:42:16Z</time>
      </trkpt>
      <trkpt lat="45.27627" lon="5.57107">
        <ele>691</ele>
        <time>2012-11-04T10:42:17Z</time>
      </trkpt>
      <trkpt lat="45.27631" lon="5.57106">
        <ele>691</ele>
        <time>2012-11-04T10:42:18Z</time>
      </trkpt>
      <trkpt lat="45.27634" lon="5.57105">
        <ele>690</ele>
        <time>2012-11-04T10:42:19Z</time>
      </trkpt>
      <trkpt lat="45.27636" lon="5.57103">
        <ele>690</ele>
        <time>2012-11-04T10:42:20Z</time>
      </trkpt>
      <trkpt lat="45.27639" lon="5.57102">
        <ele>688</ele>
        <time>2012-11-04T10:42:21Z</time>
      </trkpt>
      <trkpt lat="45.27641" lon="5.571">
        <ele>688</ele>
        <time>2012-11-04T10:42:22Z</time>
      </trkpt>
      <trkpt lat="45.27643" lon="5.57099">
        <ele>688</ele>
        <time>2012-11-04T10:42:23Z</time>
      </trkpt>
      <trkpt lat="45.27645" lon="5.57097">
        <ele>687</ele>
        <time>2012-11-04T10:42:24Z</time>
      </trkpt>
      <trkpt lat="45.27647" lon="5.57096">
        <ele>687</ele>
        <time>2012-11-04T10:42:25Z</time>
      </trkpt>
      <trkpt lat="45.2765" lon="5.57095">
        <ele>691</ele>
        <time>2012-11-04T10:42:26Z</time>
      </trkpt>
      <trkpt lat="45.27653" lon="5.57093">
        <ele>691</ele>
        <time>2012-11-04T10:42:27Z</time>
      </trkpt>
      <trkpt lat="45.27656" lon="5.57091">
        <ele>692</ele>
        <time>2012-11-04T10:42:28Z</time>
      </trkpt>
      <trkpt lat="45.27659" lon="5.57089">
        <ele>689</ele>
        <time>2012-11-04T10:42:29Z</time>
      </trkpt>
      <trkpt lat="45.27661" lon="5.57088">
        <ele>688</ele>
        <time>2012-11-04T10:42:30Z</time>
      </trkpt>
      <trkpt lat="45.27663" lon="5.57085">
        <ele>687</ele>
        <time>2012-11-04T10:42:31Z</time>
      </trkpt>
      <trkpt lat="45.27665" lon="5.57083">
        <ele>686</ele>
        <time>2012-11-04T10:42:32Z</time>
      </trkpt>
      <trkpt lat="45.27667" lon="5.5708">
        <ele>687</ele>
        <time>2012-11-04T10:42:33Z</time>
      </trkpt>
      <trkpt lat="45.27669" lon="5.57077">
        <ele>686</ele>
        <time>2012-11-04T10:42:34Z</time>
      </trkpt>
      <trkpt lat="45.2767" lon="5.57074">
        <ele>686</ele>
        <time>2012-11-04T10:42:35Z</time>
      </trkpt>
      <trkpt lat="45.27672" lon="5.57071">
        <ele>687</ele>
        <time>2012-11-04T10:42:36Z</time>
      </trkpt>
      <trkpt lat="45.27674" lon="5.57068">
        <ele>687</ele>
        <time>2012-11-04T10:42:37Z</time>
      </trkpt>
      <trkpt lat="45.27675" lon="5.57066">
        <ele>687</ele>
        <time>2012-11-04T10:42:38Z</time>
      </trkpt>
      <trkpt lat="45.27677" lon="5.57064">
        <ele>687</ele>
        <time>2012-11-04T10:42:39Z</time>
      </trkpt>
      <trkpt lat="45.27679" lon="5.57062">
        <ele>688</ele>
        <time>2012-11-04T10:42:40Z</time>
      </trkpt>
      <trkpt lat="45.2768" lon="5.5706">
        <ele>688</ele>
        <time>2012-11-04T10:42:41Z</time>
      </trkpt>
      <trkpt lat="45.27682" lon="5.57058">
        <ele>687</ele>
        <time>2012-11-04T10:42:42Z</time>
      </trkpt>
      <trkpt lat="45.27684" lon="5.57056">
        <ele>687</ele>
        <time>2012-11-04T10:42:43Z</time>
      </trkpt>
      <trkpt lat="45.27686" lon="5.57053">
        <ele>687</ele>
        <time>2012-11-04T10:42:44Z</time>
      </trkpt>
      <trkpt lat="45.27689" lon="5.5705">
        <ele>682</ele>
        <time>2012-11-04T10:42:45Z</time>
      </trkpt>
      <trkpt lat="45.27691" lon="5.57048">
        <ele>681</ele>
        <time>2012-11-04T10:42:46Z</time>
      </trkpt>
      <trkpt lat="45.27694" lon="5.57044">
        <ele>681</ele>
        <time>2012-11-04T10:42:47Z</time>
      </trkpt>
      <trkpt lat="45.27697" lon="5.5704">
        <ele>681</ele>
        <time>2012-11-04T10:42:48Z</time>
      </trkpt>
      <trkpt lat="45.277" lon="5.57037">
        <ele>678</ele>
        <time>2012-11-04T10:42:49Z</time>
      </trkpt>
      <trkpt lat="45.27703" lon="5.57034">
        <ele>676</ele>
        <time>2012-11-04T10:42:50Z</time>
      </trkpt>
      <trkpt lat="45.27707" lon="5.57031">
        <ele>676</ele>
        <time>2012-11-04T10:42:51Z</time>
      </trkpt>
      <trkpt lat="45.2771" lon="5.57029">
        <ele>675</ele>
        <time>2012-11-04T10:42:52Z</time>
      </trkpt>
      <trkpt lat="45.27713" lon="5.57026">
        <ele>674</ele>
        <time>2012-11-04T10:42:53Z</time>
      </trkpt>
      <trkpt lat="45.27716" lon="5.57026">
        <ele>676</ele>
        <time>2012-11-04T10:42:54Z</time>
      </trkpt>
      <trkpt lat="45.27725" lon="5.57023">
        <ele>675</ele>
        <time>2012-11-04T10:42:58Z</time>
      </trkpt>
      <trkpt lat="45.27727" lon="5.57021">
        <ele>675</ele>
        <time>2012-11-04T10:42:59Z</time>
      </trkpt>
      <trkpt lat="45.2773" lon="5.57018">
        <ele>675</ele>
        <time>2012-11-04T10:43:00Z</time>
      </trkpt>
      <trkpt lat="45.27734" lon="5.57016">
        <ele>672</ele>
        <time>2012-11-04T10:43:01Z</time>
      </trkpt>
      <trkpt lat="45.27737" lon="5.57014">
        <ele>671</ele>
        <time>2012-11-04T10:43:02Z</time>
      </trkpt>
      <trkpt lat="45.2774" lon="5.57012">
        <ele>671</ele>
        <time>2012-11-04T10:43:03Z</time>
      </trkpt>
      <trkpt lat="45.27743" lon="5.57008">
        <ele>671</ele>
        <time>2012-11-04T10:43:04Z</time>
      </trkpt>
      <trkpt lat="45.27745" lon="5.57005">
        <ele>672</ele>
        <time>2012-11-04T10:43:05Z</time>
      </trkpt>
      <trkpt lat="45.27747" lon="5.57002">
        <ele>672</ele>
        <time>2012-11-04T10:43:06Z</time>
      </trkpt>
      <trkpt lat="45.27749" lon="5.56999">
        <ele>672</ele>
        <time>2012-11-04T10:43:07Z</time>
      </trkpt>
      <trkpt lat="45.27751" lon="5.56995">
        <ele>675</ele>
        <time>2012-11-04T10:43:08Z</time>
      </trkpt>
      <trkpt lat="45.27753" lon="5.56993">
        <ele>674</ele>
        <time>2012-11-04T10:43:09Z</time>
      </trkpt>
      <trkpt lat="45.27754" lon="5.56991">
        <ele>674</ele>
        <time>2012-11-04T10:43:10Z</time>
      </trkpt>
      <trkpt lat="45.27755" lon="5.56988">
        <ele>673</ele>
        <time>2012-11-04T10:43:11Z</time>
      </trkpt>
      <trkpt lat="45.27756" lon="5.56985">
        <ele>675</ele>
        <time>2012-11-04T10:43:12Z</time>
      </trkpt>
      <trkpt lat="45.27757" lon="5.56983">
        <ele>676</ele>
        <time>2012-11-04T10:43:13Z</time>
      </trkpt>
      <trkpt lat="45.27758" lon="5.56981">
        <ele>677</ele>
        <time>2012-11-04T10:43:14Z</time>
      </trkpt>
      <trkpt lat="45.27759" lon="5.56978">
        <ele>675</ele>
        <time>2012-11-04T10:43:15Z</time>
      </trkpt>
      <trkpt lat="45.2776" lon="5.56975">
        <ele>675</ele>
        <time>2012-11-04T10:43:16Z</time>
      </trkpt>
      <trkpt lat="45.27761" lon="5.56972">
        <ele>675</ele>
        <time>2012-11-04T10:43:17Z</time>
      </trkpt>
      <trkpt lat="45.27763" lon="5.56969">
        <ele>674</ele>
        <time>2012-11-04T10:43:18Z</time>
      </trkpt>
      <trkpt lat="45.27764" lon="5.56966">
        <ele>674</ele>
        <time>2012-11-04T10:43:19Z</time>
      </trkpt>
      <trkpt lat="45.27765" lon="5.56963">
        <ele>674</ele>
        <time>2012-11-04T10:43:20Z</time>
      </trkpt>
      <trkpt lat="45.27766" lon="5.56961">
        <ele>674</ele>
        <time>2012-11-04T10:43:21Z</time>
      </trkpt>
      <trkpt lat="45.27766" lon="5.56959">
        <ele>674</ele>
        <time>2012-11-04T10:43:22Z</time>
      </trkpt>
      <trkpt lat="45.27766" lon="5.56956">
        <ele>673</ele>
        <time>2012-11-04T10:43:23Z</time>
      </trkpt>
      <trkpt lat="45.27765" lon="5.56954">
        <ele>674</ele>
        <time>2012-11-04T10:43:24Z</time>
      </trkpt>
      <trkpt lat="45.27765" lon="5.56952">
        <ele>673</ele>
        <time>2012-11-04T10:43:25Z</time>
      </trkpt>
      <trkpt lat="45.27764" lon="5.5695">
        <ele>673</ele>
        <time>2012-11-04T10:43:26Z</time>
      </trkpt>
      <trkpt lat="45.27763" lon="5.56948">
        <ele>672</ele>
        <time>2012-11-04T10:43:27Z</time>
      </trkpt>
      <trkpt lat="45.27762" lon="5.56946">
        <ele>672</ele>
        <time>2012-11-04T10:43:28Z</time>
      </trkpt>
      <trkpt lat="45.27761" lon="5.56944">
        <ele>673</ele>
        <time>2012-11-04T10:43:29Z</time>
      </trkpt>
      <trkpt lat="45.27759" lon="5.56942">
        <ele>673</ele>
        <time>2012-11-04T10:43:30Z</time>
      </trkpt>
      <trkpt lat="45.27758" lon="5.56941">
        <ele>673</ele>
        <time>2012-11-04T10:43:31Z</time>
      </trkpt>
      <trkpt lat="45.27756" lon="5.56939">
        <ele>673</ele>
        <time>2012-11-04T10:43:32Z</time>
      </trkpt>
      <trkpt lat="45.27754" lon="5.56937">
        <ele>672</ele>
        <time>2012-11-04T10:43:33Z</time>
      </trkpt>
      <trkpt lat="45.27751" lon="5.56934">
        <ele>671</ele>
        <time>2012-11-04T10:43:34Z</time>
      </trkpt>
      <trkpt lat="45.27749" lon="5.56932">
        <ele>671</ele>
        <time>2012-11-04T10:43:35Z</time>
      </trkpt>
      <trkpt lat="45.27746" lon="5.56929">
        <ele>670</ele>
        <time>2012-11-04T10:43:36Z</time>
      </trkpt>
      <trkpt lat="45.27743" lon="5.56926">
        <ele>670</ele>
        <time>2012-11-04T10:43:37Z</time>
      </trkpt>
      <trkpt lat="45.27741" lon="5.56924">
        <ele>670</ele>
        <time>2012-11-04T10:43:38Z</time>
      </trkpt>
      <trkpt lat="45.27739" lon="5.56922">
        <ele>667</ele>
        <time>2012-11-04T10:43:39Z</time>
      </trkpt>
      <trkpt lat="45.27737" lon="5.56921">
        <ele>666</ele>
        <time>2012-11-04T10:43:40Z</time>
      </trkpt>
      <trkpt lat="45.27736" lon="5.56919">
        <ele>665</ele>
        <time>2012-11-04T10:43:41Z</time>
      </trkpt>
      <trkpt lat="45.27734" lon="5.56917">
        <ele>667</ele>
        <time>2012-11-04T10:43:42Z</time>
      </trkpt>
      <trkpt lat="45.27733" lon="5.56915">
        <ele>668</ele>
        <time>2012-11-04T10:43:43Z</time>
      </trkpt>
      <trkpt lat="45.27732" lon="5.56912">
        <ele>668</ele>
        <time>2012-11-04T10:43:44Z</time>
      </trkpt>
      <trkpt lat="45.2773" lon="5.56908">
        <ele>668</ele>
        <time>2012-11-04T10:43:45Z</time>
      </trkpt>
      <trkpt lat="45.27729" lon="5.56905">
        <ele>670</ele>
        <time>2012-11-04T10:43:46Z</time>
      </trkpt>
      <trkpt lat="45.27727" lon="5.56902">
        <ele>670</ele>
        <time>2012-11-04T10:43:47Z</time>
      </trkpt>
      <trkpt lat="45.27726" lon="5.56899">
        <ele>669</ele>
        <time>2012-11-04T10:43:48Z</time>
      </trkpt>
      <trkpt lat="45.27726" lon="5.56896">
        <ele>669</ele>
        <time>2012-11-04T10:43:49Z</time>
      </trkpt>
      <trkpt lat="45.27726" lon="5.56894">
        <ele>669</ele>
        <time>2012-11-04T10:43:50Z</time>
      </trkpt>
      <trkpt lat="45.27726" lon="5.56891">
        <ele>669</ele>
        <time>2012-11-04T10:43:51Z</time>
      </trkpt>
      <trkpt lat="45.27726" lon="5.56889">
        <ele>670</ele>
        <time>2012-11-04T10:43:52Z</time>
      </trkpt>
      <trkpt lat="45.27726" lon="5.56888">
        <ele>669</ele>
        <time>2012-11-04T10:43:53Z</time>
      </trkpt>
      <trkpt lat="45.27726" lon="5.56886">
        <ele>669</ele>
        <time>2012-11-04T10:43:54Z</time>
      </trkpt>
      <trkpt lat="45.27726" lon="5.56886">
        <ele>667</ele>
        <time>2012-11-04T10:43:55Z</time>
      </trkpt>
      <trkpt lat="45.27726" lon="5.56886">
        <ele>667</ele>
        <time>2012-11-04T10:43:56Z</time>
      </trkpt>
      <trkpt lat="45.27726" lon="5.56886">
        <ele>667</ele>
        <time>2012-11-04T10:43:57Z</time>
      </trkpt>
      <trkpt lat="45.27726" lon="5.56886">
        <ele>667</ele>
        <time>2012-11-04T10:43:58Z</time>
      </trkpt>
      <trkpt lat="45.27726" lon="5.56886">
        <ele>667</ele>
        <time>2012-11-04T10:43:59Z</time>
      </trkpt>
      <trkpt lat="45.27726" lon="5.56886">
        <ele>667</ele>
        <time>2012-11-04T10:44:00Z</time>
      </trkpt>
      <trkpt lat="45.27728" lon="5.56886">
        <ele>668</ele>
        <time>2012-11-04T10:44:01Z</time>
      </trkpt>
      <trkpt lat="45.27728" lon="5.56885">
        <ele>666</ele>
        <time>2012-11-04T10:44:02Z</time>
      </trkpt>
      <trkpt lat="45.27728" lon="5.56884">
        <ele>667</ele>
        <time>2012-11-04T10:44:03Z</time>
      </trkpt>
      <trkpt lat="45.27728" lon="5.56883">
        <ele>666</ele>
        <time>2012-11-04T10:44:04Z</time>
      </trkpt>
      <trkpt lat="45.27729" lon="5.56882">
        <ele>666</ele>
        <time>2012-11-04T10:44:05Z</time>
      </trkpt>
      <trkpt lat="45.2773" lon="5.56881">
        <ele>667</ele>
        <time>2012-11-04T10:44:06Z</time>
      </trkpt>
      <trkpt lat="45.27731" lon="5.5688">
        <ele>667</ele>
        <time>2012-11-04T10:44:07Z</time>
      </trkpt>
      <trkpt lat="45.27732" lon="5.56879">
        <ele>667</ele>
        <time>2012-11-04T10:44:08Z</time>
      </trkpt>
      <trkpt lat="45.27733" lon="5.56878">
        <ele>667</ele>
        <time>2012-11-04T10:44:09Z</time>
      </trkpt>
      <trkpt lat="45.27734" lon="5.56878">
        <ele>667</ele>
        <time>2012-11-04T10:44:10Z</time>
      </trkpt>
      <trkpt lat="45.27736" lon="5.56876">
        <ele>667</ele>
        <time>2012-11-04T10:44:11Z</time>
      </trkpt>
      <trkpt lat="45.27737" lon="5.56872">
        <ele>667</ele>
        <time>2012-11-04T10:44:12Z</time>
      </trkpt>
      <trkpt lat="45.27737" lon="5.56868">
        <ele>668</ele>
        <time>2012-11-04T10:44:13Z</time>
      </trkpt>
      <trkpt lat="45.27738" lon="5.56865">
        <ele>669</ele>
        <time>2012-11-04T10:44:14Z</time>
      </trkpt>
      <trkpt lat="45.27738" lon="5.5686">
        <ele>669</ele>
        <time>2012-11-04T10:44:15Z</time>
      </trkpt>
      <trkpt lat="45.27737" lon="5.56855">
        <ele>670</ele>
        <time>2012-11-04T10:44:16Z</time>
      </trkpt>
      <trkpt lat="45.27738" lon="5.56852">
        <ele>670</ele>
        <time>2012-11-04T10:44:17Z</time>
      </trkpt>
      <trkpt lat="45.27736" lon="5.56849">
        <ele>670</ele>
        <time>2012-11-04T10:44:18Z</time>
      </trkpt>
      <trkpt lat="45.27733" lon="5.56846">
        <ele>669</ele>
        <time>2012-11-04T10:44:19Z</time>
      </trkpt>
      <trkpt lat="45.27731" lon="5.56843">
        <ele>669</ele>
        <time>2012-11-04T10:44:20Z</time>
      </trkpt>
      <trkpt lat="45.27729" lon="5.56841">
        <ele>671</ele>
        <time>2012-11-04T10:44:21Z</time>
      </trkpt>
      <trkpt lat="45.27729" lon="5.56841">
        <ele>670</ele>
        <time>2012-11-04T10:44:22Z</time>
      </trkpt>
      <trkpt lat="45.27728" lon="5.5684">
        <ele>671</ele>
        <time>2012-11-04T10:44:23Z</time>
      </trkpt>
      <trkpt lat="45.27728" lon="5.5684">
        <ele>671</ele>
        <time>2012-11-04T10:44:24Z</time>
      </trkpt>
      <trkpt lat="45.27728" lon="5.56841">
        <ele>670</ele>
        <time>2012-11-04T10:44:25Z</time>
      </trkpt>
      <trkpt lat="45.27728" lon="5.56841">
        <ele>669</ele>
        <time>2012-11-04T10:44:26Z</time>
      </trkpt>
      <trkpt lat="45.27727" lon="5.56842">
        <ele>668</ele>
        <time>2012-11-04T10:44:27Z</time>
      </trkpt>
      <trkpt lat="45.27727" lon="5.56842">
        <ele>668</ele>
        <time>2012-11-04T10:44:28Z</time>
      </trkpt>
      <trkpt lat="45.27726" lon="5.56844">
        <ele>666</ele>
        <time>2012-11-04T10:44:29Z</time>
      </trkpt>
      <trkpt lat="45.27725" lon="5.56844">
        <ele>666</ele>
        <time>2012-11-04T10:44:30Z</time>
      </trkpt>
      <trkpt lat="45.27725" lon="5.56844">
        <ele>663</ele>
        <time>2012-11-04T10:44:31Z</time>
      </trkpt>
      <trkpt lat="45.27725" lon="5.56844">
        <ele>662</ele>
        <time>2012-11-04T10:44:32Z</time>
      </trkpt>
      <trkpt lat="45.27726" lon="5.56843">
        <ele>661</ele>
        <time>2012-11-04T10:44:33Z</time>
      </trkpt>
      <trkpt lat="45.27726" lon="5.56842">
        <ele>662</ele>
        <time>2012-11-04T10:44:34Z</time>
      </trkpt>
      <trkpt lat="45.27726" lon="5.5684">
        <ele>660</ele>
        <time>2012-11-04T10:44:35Z</time>
      </trkpt>
      <trkpt lat="45.27726" lon="5.56839">
        <ele>660</ele>
        <time>2012-11-04T10:44:36Z</time>
      </trkpt>
      <trkpt lat="45.27726" lon="5.56836">
        <ele>661</ele>
        <time>2012-11-04T10:44:37Z</time>
      </trkpt>
      <trkpt lat="45.27727" lon="5.56833">
        <ele>661</ele>
        <time>2012-11-04T10:44:38Z</time>
      </trkpt>
      <trkpt lat="45.27727" lon="5.56832">
        <ele>661</ele>
        <time>2012-11-04T10:44:39Z</time>
      </trkpt>
      <trkpt lat="45.27727" lon="5.56827">
        <ele>660</ele>
        <time>2012-11-04T10:44:40Z</time>
      </trkpt>
      <trkpt lat="45.27728" lon="5.56824">
        <ele>661</ele>
        <time>2012-11-04T10:44:41Z</time>
      </trkpt>
      <trkpt lat="45.27728" lon="5.56823">
        <ele>659</ele>
        <time>2012-11-04T10:44:42Z</time>
      </trkpt>
      <trkpt lat="45.27729" lon="5.56821">
        <ele>659</ele>
        <time>2012-11-04T10:44:43Z</time>
      </trkpt>
      <trkpt lat="45.27729" lon="5.5682">
        <ele>658</ele>
        <time>2012-11-04T10:44:44Z</time>
      </trkpt>
      <trkpt lat="45.2773" lon="5.56819">
        <ele>658</ele>
        <time>2012-11-04T10:44:45Z</time>
      </trkpt>
      <trkpt lat="45.27731" lon="5.56817">
        <ele>658</ele>
        <time>2012-11-04T10:44:46Z</time>
      </trkpt>
      <trkpt lat="45.27731" lon="5.56815">
        <ele>657</ele>
        <time>2012-11-04T10:44:47Z</time>
      </trkpt>
      <trkpt lat="45.27732" lon="5.56812">
        <ele>658</ele>
        <time>2012-11-04T10:44:48Z</time>
      </trkpt>
      <trkpt lat="45.27732" lon="5.56809">
        <ele>658</ele>
        <time>2012-11-04T10:44:49Z</time>
      </trkpt>
      <trkpt lat="45.27732" lon="5.56806">
        <ele>658</ele>
        <time>2012-11-04T10:44:50Z</time>
      </trkpt>
      <trkpt lat="45.27732" lon="5.56802">
        <ele>658</ele>
        <time>2012-11-04T10:44:51Z</time>
      </trkpt>
      <trkpt lat="45.27731" lon="5.56799">
        <ele>660</ele>
        <time>2012-11-04T10:44:52Z</time>
      </trkpt>
      <trkpt lat="45.27731" lon="5.56796">
        <ele>662</ele>
        <time>2012-11-04T10:44:53Z</time>
      </trkpt>
      <trkpt lat="45.2773" lon="5.56794">
        <ele>662</ele>
        <time>2012-11-04T10:44:54Z</time>
      </trkpt>
      <trkpt lat="45.27729" lon="5.56791">
        <ele>662</ele>
        <time>2012-11-04T10:44:55Z</time>
      </trkpt>
      <trkpt lat="45.27728" lon="5.56789">
        <ele>663</ele>
        <time>2012-11-04T10:44:56Z</time>
      </trkpt>
      <trkpt lat="45.27728" lon="5.56787">
        <ele>664</ele>
        <time>2012-11-04T10:44:57Z</time>
      </trkpt>
      <trkpt lat="45.27727" lon="5.56786">
        <ele>663</ele>
        <time>2012-11-04T10:44:58Z</time>
      </trkpt>
      <trkpt lat="45.27727" lon="5.56786">
        <ele>664</ele>
        <time>2012-11-04T10:44:59Z</time>
      </trkpt>
      <trkpt lat="45.27727" lon="5.56786">
        <ele>664</ele>
        <time>2012-11-04T10:45:00Z</time>
      </trkpt>
      <trkpt lat="45.27727" lon="5.56786">
        <ele>664</ele>
        <time>2012-11-04T10:45:01Z</time>
      </trkpt>
      <trkpt lat="45.27727" lon="5.56784">
        <ele>664</ele>
        <time>2012-11-04T10:45:02Z</time>
      </trkpt>
      <trkpt lat="45.27727" lon="5.56783">
        <ele>664</ele>
        <time>2012-11-04T10:45:03Z</time>
      </trkpt>
      <trkpt lat="45.27727" lon="5.5678">
        <ele>665</ele>
        <time>2012-11-04T10:45:04Z</time>
      </trkpt>
      <trkpt lat="45.27727" lon="5.56777">
        <ele>665</ele>
        <time>2012-11-04T10:45:05Z</time>
      </trkpt>
      <trkpt lat="45.27728" lon="5.56775">
        <ele>665</ele>
        <time>2012-11-04T10:45:06Z</time>
      </trkpt>
      <trkpt lat="45.27729" lon="5.56772">
        <ele>665</ele>
        <time>2012-11-04T10:45:07Z</time>
      </trkpt>
      <trkpt lat="45.2773" lon="5.5677">
        <ele>665</ele>
        <time>2012-11-04T10:45:08Z</time>
      </trkpt>
      <trkpt lat="45.2773" lon="5.56768">
        <ele>665</ele>
        <time>2012-11-04T10:45:09Z</time>
      </trkpt>
      <trkpt lat="45.2773" lon="5.56767">
        <ele>666</ele>
        <time>2012-11-04T10:45:10Z</time>
      </trkpt>
      <trkpt lat="45.27729" lon="5.56765">
        <ele>666</ele>
        <time>2012-11-04T10:45:11Z</time>
      </trkpt>
      <trkpt lat="45.27728" lon="5.56763">
        <ele>666</ele>
        <time>2012-11-04T10:45:12Z</time>
      </trkpt>
      <trkpt lat="45.27727" lon="5.56761">
        <ele>666</ele>
        <time>2012-11-04T10:45:13Z</time>
      </trkpt>
      <trkpt lat="45.27726" lon="5.56759">
        <ele>667</ele>
        <time>2012-11-04T10:45:14Z</time>
      </trkpt>
      <trkpt lat="45.27725" lon="5.56757">
        <ele>667</ele>
        <time>2012-11-04T10:45:15Z</time>
      </trkpt>
      <trkpt lat="45.27724" lon="5.56756">
        <ele>668</ele>
        <time>2012-11-04T10:45:16Z</time>
      </trkpt>
      <trkpt lat="45.27722" lon="5.56754">
        <ele>668</ele>
        <time>2012-11-04T10:45:17Z</time>
      </trkpt>
      <trkpt lat="45.27721" lon="5.56753">
        <ele>668</ele>
        <time>2012-11-04T10:45:18Z</time>
      </trkpt>
      <trkpt lat="45.27719" lon="5.56752">
        <ele>667</ele>
        <time>2012-11-04T10:45:19Z</time>
      </trkpt>
      <trkpt lat="45.27717" lon="5.5675">
        <ele>667</ele>
        <time>2012-11-04T10:45:20Z</time>
      </trkpt>
      <trkpt lat="45.27716" lon="5.56749">
        <ele>666</ele>
        <time>2012-11-04T10:45:21Z</time>
      </trkpt>
      <trkpt lat="45.27715" lon="5.56749">
        <ele>666</ele>
        <time>2012-11-04T10:45:22Z</time>
      </trkpt>
      <trkpt lat="45.27714" lon="5.56748">
        <ele>665</ele>
        <time>2012-11-04T10:45:23Z</time>
      </trkpt>
      <trkpt lat="45.27714" lon="5.56747">
        <ele>664</ele>
        <time>2012-11-04T10:45:24Z</time>
      </trkpt>
      <trkpt lat="45.27713" lon="5.56746">
        <ele>664</ele>
        <time>2012-11-04T10:45:25Z</time>
      </trkpt>
      <trkpt lat="45.27712" lon="5.56746">
        <ele>664</ele>
        <time>2012-11-04T10:45:26Z</time>
      </trkpt>
      <trkpt lat="45.2771" lon="5.56745">
        <ele>664</ele>
        <time>2012-11-04T10:45:27Z</time>
      </trkpt>
      <trkpt lat="45.27709" lon="5.56744">
        <ele>664</ele>
        <time>2012-11-04T10:45:28Z</time>
      </trkpt>
      <trkpt lat="45.27707" lon="5.56743">
        <ele>663</ele>
        <time>2012-11-04T10:45:29Z</time>
      </trkpt>
      <trkpt lat="45.27705" lon="5.56742">
        <ele>663</ele>
        <time>2012-11-04T10:45:30Z</time>
      </trkpt>
      <trkpt lat="45.27704" lon="5.56742">
        <ele>663</ele>
        <time>2012-11-04T10:45:31Z</time>
      </trkpt>
      <trkpt lat="45.27702" lon="5.56741">
        <ele>663</ele>
        <time>2012-11-04T10:45:32Z</time>
      </trkpt>
      <trkpt lat="45.27701" lon="5.56741">
        <ele>664</ele>
        <time>2012-11-04T10:45:33Z</time>
      </trkpt>
      <trkpt lat="45.27699" lon="5.5674">
        <ele>664</ele>
        <time>2012-11-04T10:45:34Z</time>
      </trkpt>
      <trkpt lat="45.27698" lon="5.56739">
        <ele>663</ele>
        <time>2012-11-04T10:45:35Z</time>
      </trkpt>
      <trkpt lat="45.27696" lon="5.56738">
        <ele>663</ele>
        <time>2012-11-04T10:45:36Z</time>
      </trkpt>
      <trkpt lat="45.27695" lon="5.56737">
        <ele>663</ele>
        <time>2012-11-04T10:45:37Z</time>
      </trkpt>
      <trkpt lat="45.27694" lon="5.56736">
        <ele>664</ele>
        <time>2012-11-04T10:45:38Z</time>
      </trkpt>
      <trkpt lat="45.27692" lon="5.56735">
        <ele>663</ele>
        <time>2012-11-04T10:45:39Z</time>
      </trkpt>
      <trkpt lat="45.27691" lon="5.56735">
        <ele>664</ele>
        <time>2012-11-04T10:45:40Z</time>
      </trkpt>
      <trkpt lat="45.2769" lon="5.56734">
        <ele>664</ele>
        <time>2012-11-04T10:45:41Z</time>
      </trkpt>
      <trkpt lat="45.27689" lon="5.56734">
        <ele>664</ele>
        <time>2012-11-04T10:45:42Z</time>
      </trkpt>
      <trkpt lat="45.27688" lon="5.56734">
        <ele>664</ele>
        <time>2012-11-04T10:45:43Z</time>
      </trkpt>
      <trkpt lat="45.27687" lon="5.56734">
        <ele>665</ele>
        <time>2012-11-04T10:45:44Z</time>
      </trkpt>
      <trkpt lat="45.27686" lon="5.56734">
        <ele>665</ele>
        <time>2012-11-04T10:45:45Z</time>
      </trkpt>
      <trkpt lat="45.27686" lon="5.56734">
        <ele>665</ele>
        <time>2012-11-04T10:45:46Z</time>
      </trkpt>
      <trkpt lat="45.27686" lon="5.56734">
        <ele>665</ele>
        <time>2012-11-04T10:45:47Z</time>
      </trkpt>
      <trkpt lat="45.27686" lon="5.56734">
        <ele>664</ele>
        <time>2012-11-04T10:45:48Z</time>
      </trkpt>
      <trkpt lat="45.27686" lon="5.56734">
        <ele>664</ele>
        <time>2012-11-04T10:45:49Z</time>
      </trkpt>
      <trkpt lat="45.27686" lon="5.56734">
        <ele>664</ele>
        <time>2012-11-04T10:45:50Z</time>
      </trkpt>
      <trkpt lat="45.27686" lon="5.56734">
        <ele>665</ele>
        <time>2012-11-04T10:45:51Z</time>
      </trkpt>
      <trkpt lat="45.27686" lon="5.56734">
        <ele>665</ele>
        <time>2012-11-04T10:45:52Z</time>
      </trkpt>
      <trkpt lat="45.27686" lon="5.56734">
        <ele>665</ele>
        <time>2012-11-04T10:45:53Z</time>
      </trkpt>
      <trkpt lat="45.27686" lon="5.56734">
        <ele>665</ele>
        <time>2012-11-04T10:45:54Z</time>
      </trkpt>
      <trkpt lat="45.27686" lon="5.56734">
        <ele>665</ele>
        <time>2012-11-04T10:45:55Z</time>
      </trkpt>
      <trkpt lat="45.27686" lon="5.56734">
        <ele>665</ele>
        <time>2012-11-04T10:45:56Z</time>
      </trkpt>
      <trkpt lat="45.27686" lon="5.56734">
        <ele>665</ele>
        <time>2012-11-04T10:45:57Z</time>
      </trkpt>
      <trkpt lat="45.27686" lon="5.56734">
        <ele>665</ele>
        <time>2012-11-04T10:45:58Z</time>
      </trkpt>
      <trkpt lat="45.27686" lon="5.56736">
        <ele>665</ele>
        <time>2012-11-04T10:45:59Z</time>
      </trkpt>
      <trkpt lat="45.27687" lon="5.56737">
        <ele>666</ele>
        <time>2012-11-04T10:46:00Z</time>
      </trkpt>
      <trkpt lat="45.27689" lon="5.56739">
        <ele>665</ele>
        <time>2012-11-04T10:46:01Z</time>
      </trkpt>
      <trkpt lat="45.2769" lon="5.56739">
        <ele>665</ele>
        <time>2012-11-04T10:46:02Z</time>
      </trkpt>
      <trkpt lat="45.27691" lon="5.5674">
        <ele>664</ele>
        <time>2012-11-04T10:46:03Z</time>
      </trkpt>
      <trkpt lat="45.27692" lon="5.5674">
        <ele>664</ele>
        <time>2012-11-04T10:46:04Z</time>
      </trkpt>
      <trkpt lat="45.27694" lon="5.5674">
        <ele>664</ele>
        <time>2012-11-04T10:46:05Z</time>
      </trkpt>
      <trkpt lat="45.27695" lon="5.56741">
        <ele>664</ele>
        <time>2012-11-04T10:46:06Z</time>
      </trkpt>
      <trkpt lat="45.27697" lon="5.56742">
        <ele>664</ele>
        <time>2012-11-04T10:46:07Z</time>
      </trkpt>
      <trkpt lat="45.27699" lon="5.56743">
        <ele>664</ele>
        <time>2012-11-04T10:46:08Z</time>
      </trkpt>
      <trkpt lat="45.27702" lon="5.56744">
        <ele>663</ele>
        <time>2012-11-04T10:46:09Z</time>
      </trkpt>
      <trkpt lat="45.27704" lon="5.56745">
        <ele>663</ele>
        <time>2012-11-04T10:46:10Z</time>
      </trkpt>
      <trkpt lat="45.27707" lon="5.56747">
        <ele>665</ele>
        <time>2012-11-04T10:46:11Z</time>
      </trkpt>
      <trkpt lat="45.2771" lon="5.56749">
        <ele>665</ele>
        <time>2012-11-04T10:46:12Z</time>
      </trkpt>
      <trkpt lat="45.27712" lon="5.56752">
        <ele>666</ele>
        <time>2012-11-04T10:46:13Z</time>
      </trkpt>
      <trkpt lat="45.27715" lon="5.56755">
        <ele>665</ele>
        <time>2012-11-04T10:46:14Z</time>
      </trkpt>
      <trkpt lat="45.27717" lon="5.56758">
        <ele>665</ele>
        <time>2012-11-04T10:46:15Z</time>
      </trkpt>
      <trkpt lat="45.27719" lon="5.56761">
        <ele>663</ele>
        <time>2012-11-04T10:46:16Z</time>
      </trkpt>
      <trkpt lat="45.27721" lon="5.56763">
        <ele>663</ele>
        <time>2012-11-04T10:46:17Z</time>
      </trkpt>
      <trkpt lat="45.27724" lon="5.56767">
        <ele>663</ele>
        <time>2012-11-04T10:46:18Z</time>
      </trkpt>
      <trkpt lat="45.27726" lon="5.56771">
        <ele>664</ele>
        <time>2012-11-04T10:46:19Z</time>
      </trkpt>
      <trkpt lat="45.27727" lon="5.56774">
        <ele>664</ele>
        <time>2012-11-04T10:46:20Z</time>
      </trkpt>
      <trkpt lat="45.27728" lon="5.56778">
        <ele>664</ele>
        <time>2012-11-04T10:46:21Z</time>
      </trkpt>
      <trkpt lat="45.27729" lon="5.56781">
        <ele>665</ele>
        <time>2012-11-04T10:46:22Z</time>
      </trkpt>
      <trkpt lat="45.27729" lon="5.56784">
        <ele>667</ele>
        <time>2012-11-04T10:46:23Z</time>
      </trkpt>
      <trkpt lat="45.2773" lon="5.56787">
        <ele>668</ele>
        <time>2012-11-04T10:46:24Z</time>
      </trkpt>
      <trkpt lat="45.2773" lon="5.5679">
        <ele>667</ele>
        <time>2012-11-04T10:46:25Z</time>
      </trkpt>
      <trkpt lat="45.2773" lon="5.56795">
        <ele>666</ele>
        <time>2012-11-04T10:46:26Z</time>
      </trkpt>
      <trkpt lat="45.2773" lon="5.56799">
        <ele>666</ele>
        <time>2012-11-04T10:46:27Z</time>
      </trkpt>
      <trkpt lat="45.2773" lon="5.56804">
        <ele>666</ele>
        <time>2012-11-04T10:46:28Z</time>
      </trkpt>
      <trkpt lat="45.2773" lon="5.56808">
        <ele>666</ele>
        <time>2012-11-04T10:46:29Z</time>
      </trkpt>
      <trkpt lat="45.27728" lon="5.56812">
        <ele>666</ele>
        <time>2012-11-04T10:46:30Z</time>
      </trkpt>
      <trkpt lat="45.27727" lon="5.56815">
        <ele>667</ele>
        <time>2012-11-04T10:46:31Z</time>
      </trkpt>
      <trkpt lat="45.27726" lon="5.56819">
        <ele>667</ele>
        <time>2012-11-04T10:46:32Z</time>
      </trkpt>
      <trkpt lat="45.27725" lon="5.56822">
        <ele>668</ele>
        <time>2012-11-04T10:46:33Z</time>
      </trkpt>
      <trkpt lat="45.27725" lon="5.56826">
        <ele>669</ele>
        <time>2012-11-04T10:46:34Z</time>
      </trkpt>
      <trkpt lat="45.27724" lon="5.56829">
        <ele>669</ele>
        <time>2012-11-04T10:46:35Z</time>
      </trkpt>
      <trkpt lat="45.27724" lon="5.56833">
        <ele>669</ele>
        <time>2012-11-04T10:46:36Z</time>
      </trkpt>
      <trkpt lat="45.27725" lon="5.56837">
        <ele>670</ele>
        <time>2012-11-04T10:46:37Z</time>
      </trkpt>
      <trkpt lat="45.27725" lon="5.56841">
        <ele>670</ele>
        <time>2012-11-04T10:46:38Z</time>
      </trkpt>
      <trkpt lat="45.27726" lon="5.56844">
        <ele>670</ele>
        <time>2012-11-04T10:46:39Z</time>
      </trkpt>
      <trkpt lat="45.2773" lon="5.56847">
        <ele>669</ele>
        <time>2012-11-04T10:46:40Z</time>
      </trkpt>
      <trkpt lat="45.27733" lon="5.56849">
        <ele>669</ele>
        <time>2012-11-04T10:46:41Z</time>
      </trkpt>
      <trkpt lat="45.27736" lon="5.56851">
        <ele>668</ele>
        <time>2012-11-04T10:46:42Z</time>
      </trkpt>
      <trkpt lat="45.27738" lon="5.56854">
        <ele>667</ele>
        <time>2012-11-04T10:46:43Z</time>
      </trkpt>
      <trkpt lat="45.27739" lon="5.56857">
        <ele>666</ele>
        <time>2012-11-04T10:46:44Z</time>
      </trkpt>
      <trkpt lat="45.2774" lon="5.5686">
        <ele>666</ele>
        <time>2012-11-04T10:46:45Z</time>
      </trkpt>
      <trkpt lat="45.2774" lon="5.56864">
        <ele>665</ele>
        <time>2012-11-04T10:46:46Z</time>
      </trkpt>
      <trkpt lat="45.27741" lon="5.56866">
        <ele>665</ele>
        <time>2012-11-04T10:46:47Z</time>
      </trkpt>
      <trkpt lat="45.2774" lon="5.56869">
        <ele>662</ele>
        <time>2012-11-04T10:46:48Z</time>
      </trkpt>
      <trkpt lat="45.27739" lon="5.56871">
        <ele>661</ele>
        <time>2012-11-04T10:46:49Z</time>
      </trkpt>
      <trkpt lat="45.27738" lon="5.56873">
        <ele>662</ele>
        <time>2012-11-04T10:46:50Z</time>
      </trkpt>
      <trkpt lat="45.27736" lon="5.56874">
        <ele>663</ele>
        <time>2012-11-04T10:46:51Z</time>
      </trkpt>
      <trkpt lat="45.27734" lon="5.56876">
        <ele>662</ele>
        <time>2012-11-04T10:46:52Z</time>
      </trkpt>
      <trkpt lat="45.27731" lon="5.56878">
        <ele>661</ele>
        <time>2012-11-04T10:46:53Z</time>
      </trkpt>
      <trkpt lat="45.27728" lon="5.56881">
        <ele>664</ele>
        <time>2012-11-04T10:46:54Z</time>
      </trkpt>
      <trkpt lat="45.27727" lon="5.56883">
        <ele>664</ele>
        <time>2012-11-04T10:46:55Z</time>
      </trkpt>
      <trkpt lat="45.27724" lon="5.56885">
        <ele>663</ele>
        <time>2012-11-04T10:46:56Z</time>
      </trkpt>
      <trkpt lat="45.2772" lon="5.56888">
        <ele>663</ele>
        <time>2012-11-04T10:46:57Z</time>
      </trkpt>
      <trkpt lat="45.27718" lon="5.5689">
        <ele>663</ele>
        <time>2012-11-04T10:46:58Z</time>
      </trkpt>
      <trkpt lat="45.27714" lon="5.56889">
        <ele>663</ele>
        <time>2012-11-04T10:46:59Z</time>
      </trkpt>
      <trkpt lat="45.2771" lon="5.56887">
        <ele>662</ele>
        <time>2012-11-04T10:47:00Z</time>
      </trkpt>
      <trkpt lat="45.27706" lon="5.56881">
        <ele>662</ele>
        <time>2012-11-04T10:47:01Z</time>
      </trkpt>
      <trkpt lat="45.27703" lon="5.56877">
        <ele>661</ele>
        <time>2012-11-04T10:47:02Z</time>
      </trkpt>
      <trkpt lat="45.277" lon="5.56875">
        <ele>661</ele>
        <time>2012-11-04T10:47:03Z</time>
      </trkpt>
      <trkpt lat="45.27697" lon="5.56872">
        <ele>661</ele>
        <time>2012-11-04T10:47:04Z</time>
      </trkpt>
      <trkpt lat="45.27695" lon="5.56871">
        <ele>662</ele>
        <time>2012-11-04T10:47:05Z</time>
      </trkpt>
      <trkpt lat="45.27693" lon="5.56868">
        <ele>662</ele>
        <time>2012-11-04T10:47:06Z</time>
      </trkpt>
      <trkpt lat="45.27691" lon="5.56867">
        <ele>660</ele>
        <time>2012-11-04T10:47:07Z</time>
      </trkpt>
      <trkpt lat="45.2769" lon="5.56865">
        <ele>659</ele>
        <time>2012-11-04T10:47:08Z</time>
      </trkpt>
      <trkpt lat="45.27687" lon="5.56861">
        <ele>660</ele>
        <time>2012-11-04T10:47:09Z</time>
      </trkpt>
      <trkpt lat="45.27685" lon="5.56858">
        <ele>660</ele>
        <time>2012-11-04T10:47:10Z</time>
      </trkpt>
      <trkpt lat="45.27681" lon="5.56854">
        <ele>660</ele>
        <time>2012-11-04T10:47:11Z</time>
      </trkpt>
      <trkpt lat="45.27678" lon="5.56851">
        <ele>660</ele>
        <time>2012-11-04T10:47:12Z</time>
      </trkpt>
      <trkpt lat="45.27676" lon="5.56847">
        <ele>661</ele>
        <time>2012-11-04T10:47:13Z</time>
      </trkpt>
      <trkpt lat="45.27673" lon="5.56843">
        <ele>660</ele>
        <time>2012-11-04T10:47:14Z</time>
      </trkpt>
      <trkpt lat="45.27671" lon="5.5684">
        <ele>660</ele>
        <time>2012-11-04T10:47:15Z</time>
      </trkpt>
      <trkpt lat="45.27668" lon="5.56837">
        <ele>660</ele>
        <time>2012-11-04T10:47:16Z</time>
      </trkpt>
      <trkpt lat="45.27666" lon="5.56833">
        <ele>660</ele>
        <time>2012-11-04T10:47:17Z</time>
      </trkpt>
      <trkpt lat="45.27663" lon="5.56831">
        <ele>660</ele>
        <time>2012-11-04T10:47:18Z</time>
      </trkpt>
      <trkpt lat="45.27661" lon="5.56828">
        <ele>662</ele>
        <time>2012-11-04T10:47:19Z</time>
      </trkpt>
      <trkpt lat="45.27658" lon="5.56826">
        <ele>663</ele>
        <time>2012-11-04T10:47:20Z</time>
      </trkpt>
      <trkpt lat="45.27656" lon="5.56823">
        <ele>663</ele>
        <time>2012-11-04T10:47:21Z</time>
      </trkpt>
      <trkpt lat="45.27653" lon="5.5682">
        <ele>663</ele>
        <time>2012-11-04T10:47:22Z</time>
      </trkpt>
      <trkpt lat="45.27651" lon="5.56817">
        <ele>666</ele>
        <time>2012-11-04T10:47:23Z</time>
      </trkpt>
      <trkpt lat="45.2765" lon="5.56814">
        <ele>667</ele>
        <time>2012-11-04T10:47:24Z</time>
      </trkpt>
      <trkpt lat="45.27648" lon="5.56811">
        <ele>669</ele>
        <time>2012-11-04T10:47:25Z</time>
      </trkpt>
      <trkpt lat="45.27646" lon="5.56809">
        <ele>671</ele>
        <time>2012-11-04T10:47:26Z</time>
      </trkpt>
      <trkpt lat="45.27644" lon="5.56807">
        <ele>672</ele>
        <time>2012-11-04T10:47:27Z</time>
      </trkpt>
      <trkpt lat="45.27643" lon="5.56805">
        <ele>669</ele>
        <time>2012-11-04T10:47:28Z</time>
      </trkpt>
      <trkpt lat="45.27641" lon="5.56802">
        <ele>669</ele>
        <time>2012-11-04T10:47:29Z</time>
      </trkpt>
      <trkpt lat="45.27639" lon="5.56801">
        <ele>668</ele>
        <time>2012-11-04T10:47:30Z</time>
      </trkpt>
      <trkpt lat="45.27637" lon="5.568">
        <ele>670</ele>
        <time>2012-11-04T10:47:31Z</time>
      </trkpt>
      <trkpt lat="45.27636" lon="5.56798">
        <ele>672</ele>
        <time>2012-11-04T10:47:32Z</time>
      </trkpt>
      <trkpt lat="45.27634" lon="5.56796">
        <ele>673</ele>
        <time>2012-11-04T10:47:33Z</time>
      </trkpt>
      <trkpt lat="45.27632" lon="5.56794">
        <ele>673</ele>
        <time>2012-11-04T10:47:34Z</time>
      </trkpt>
      <trkpt lat="45.27629" lon="5.56792">
        <ele>673</ele>
        <time>2012-11-04T10:47:35Z</time>
      </trkpt>
      <trkpt lat="45.27627" lon="5.56789">
        <ele>673</ele>
        <time>2012-11-04T10:47:36Z</time>
      </trkpt>
      <trkpt lat="45.27624" lon="5.56788">
        <ele>671</ele>
        <time>2012-11-04T10:47:37Z</time>
      </trkpt>
      <trkpt lat="45.27622" lon="5.56786">
        <ele>671</ele>
        <time>2012-11-04T10:47:38Z</time>
      </trkpt>
      <trkpt lat="45.2762" lon="5.56785">
        <ele>673</ele>
        <time>2012-11-04T10:47:39Z</time>
      </trkpt>
      <trkpt lat="45.27618" lon="5.56783">
        <ele>674</ele>
        <time>2012-11-04T10:47:40Z</time>
      </trkpt>
      <trkpt lat="45.27616" lon="5.56782">
        <ele>674</ele>
        <time>2012-11-04T10:47:41Z</time>
      </trkpt>
      <trkpt lat="45.27613" lon="5.5678">
        <ele>674</ele>
        <time>2012-11-04T10:47:42Z</time>
      </trkpt>
      <trkpt lat="45.27611" lon="5.56778">
        <ele>674</ele>
        <time>2012-11-04T10:47:43Z</time>
      </trkpt>
      <trkpt lat="45.27609" lon="5.56776">
        <ele>674</ele>
        <time>2012-11-04T10:47:44Z</time>
      </trkpt>
      <trkpt lat="45.27606" lon="5.56775">
        <ele>673</ele>
        <time>2012-11-04T10:47:45Z</time>
      </trkpt>
      <trkpt lat="45.27603" lon="5.56773">
        <ele>673</ele>
        <time>2012-11-04T10:47:46Z</time>
      </trkpt>
      <trkpt lat="45.276" lon="5.56773">
        <ele>674</ele>
        <time>2012-11-04T10:47:47Z</time>
      </trkpt>
      <trkpt lat="45.27598" lon="5.56772">
        <ele>674</ele>
        <time>2012-11-04T10:47:48Z</time>
      </trkpt>
      <trkpt lat="45.27594" lon="5.56772">
        <ele>676</ele>
        <time>2012-11-04T10:47:49Z</time>
      </trkpt>
      <trkpt lat="45.27591" lon="5.56771">
        <ele>677</ele>
        <time>2012-11-04T10:47:50Z</time>
      </trkpt>
      <trkpt lat="45.27588" lon="5.5677">
        <ele>677</ele>
        <time>2012-11-04T10:47:51Z</time>
      </trkpt>
      <trkpt lat="45.27586" lon="5.56769">
        <ele>677</ele>
        <time>2012-11-04T10:47:52Z</time>
      </trkpt>
      <trkpt lat="45.27583" lon="5.56767">
        <ele>678</ele>
        <time>2012-11-04T10:47:53Z</time>
      </trkpt>
      <trkpt lat="45.27581" lon="5.56766">
        <ele>678</ele>
        <time>2012-11-04T10:47:54Z</time>
      </trkpt>
      <trkpt lat="45.27578" lon="5.56764">
        <ele>677</ele>
        <time>2012-11-04T10:47:55Z</time>
      </trkpt>
      <trkpt lat="45.27572" lon="5.5676">
        <ele>672</ele>
        <time>2012-11-04T10:47:56Z</time>
      </trkpt>
      <trkpt lat="45.27569" lon="5.56758">
        <ele>671</ele>
        <time>2012-11-04T10:47:57Z</time>
      </trkpt>
      <trkpt lat="45.27565" lon="5.56755">
        <ele>671</ele>
        <time>2012-11-04T10:47:58Z</time>
      </trkpt>
      <trkpt lat="45.27564" lon="5.56754">
        <ele>671</ele>
        <time>2012-11-04T10:47:59Z</time>
      </trkpt>
      <trkpt lat="45.27562" lon="5.56751">
        <ele>671</ele>
        <time>2012-11-04T10:48:00Z</time>
      </trkpt>
      <trkpt lat="45.27559" lon="5.5675">
        <ele>672</ele>
        <time>2012-11-04T10:48:01Z</time>
      </trkpt>
      <trkpt lat="45.27556" lon="5.56748">
        <ele>671</ele>
        <time>2012-11-04T10:48:02Z</time>
      </trkpt>
      <trkpt lat="45.27554" lon="5.56747">
        <ele>671</ele>
        <time>2012-11-04T10:48:03Z</time>
      </trkpt>
      <trkpt lat="45.27551" lon="5.56744">
        <ele>671</ele>
        <time>2012-11-04T10:48:04Z</time>
      </trkpt>
      <trkpt lat="45.27549" lon="5.56743">
        <ele>671</ele>
        <time>2012-11-04T10:48:05Z</time>
      </trkpt>
      <trkpt lat="45.27547" lon="5.56741">
        <ele>671</ele>
        <time>2012-11-04T10:48:06Z</time>
      </trkpt>
      <trkpt lat="45.27545" lon="5.56739">
        <ele>671</ele>
        <time>2012-11-04T10:48:07Z</time>
      </trkpt>
      <trkpt lat="45.27543" lon="5.56737">
        <ele>671</ele>
        <time>2012-11-04T10:48:08Z</time>
      </trkpt>
      <trkpt lat="45.27541" lon="5.56735">
        <ele>671</ele>
        <time>2012-11-04T10:48:09Z</time>
      </trkpt>
      <trkpt lat="45.27539" lon="5.56733">
        <ele>669</ele>
        <time>2012-11-04T10:48:10Z</time>
      </trkpt>
      <trkpt lat="45.27537" lon="5.56731">
        <ele>671</ele>
        <time>2012-11-04T10:48:11Z</time>
      </trkpt>
      <trkpt lat="45.27535" lon="5.56729">
        <ele>672</ele>
        <time>2012-11-04T10:48:12Z</time>
      </trkpt>
      <trkpt lat="45.27533" lon="5.56726">
        <ele>673</ele>
        <time>2012-11-04T10:48:13Z</time>
      </trkpt>
      <trkpt lat="45.27531" lon="5.56723">
        <ele>673</ele>
        <time>2012-11-04T10:48:14Z</time>
      </trkpt>
      <trkpt lat="45.27529" lon="5.5672">
        <ele>673</ele>
        <time>2012-11-04T10:48:15Z</time>
      </trkpt>
      <trkpt lat="45.27527" lon="5.56718">
        <ele>673</ele>
        <time>2012-11-04T10:48:16Z</time>
      </trkpt>
      <trkpt lat="45.27525" lon="5.56716">
        <ele>672</ele>
        <time>2012-11-04T10:48:17Z</time>
      </trkpt>
      <trkpt lat="45.27523" lon="5.56715">
        <ele>672</ele>
        <time>2012-11-04T10:48:18Z</time>
      </trkpt>
      <trkpt lat="45.27522" lon="5.56713">
        <ele>670</ele>
        <time>2012-11-04T10:48:19Z</time>
      </trkpt>
      <trkpt lat="45.27521" lon="5.56712">
        <ele>671</ele>
        <time>2012-11-04T10:48:20Z</time>
      </trkpt>
      <trkpt lat="45.27519" lon="5.5671">
        <ele>671</ele>
        <time>2012-11-04T10:48:21Z</time>
      </trkpt>
      <trkpt lat="45.27517" lon="5.56709">
        <ele>670</ele>
        <time>2012-11-04T10:48:22Z</time>
      </trkpt>
      <trkpt lat="45.27515" lon="5.56705">
        <ele>670</ele>
        <time>2012-11-04T10:48:23Z</time>
      </trkpt>
      <trkpt lat="45.27512" lon="5.56702">
        <ele>670</ele>
        <time>2012-11-04T10:48:24Z</time>
      </trkpt>
      <trkpt lat="45.2751" lon="5.567">
        <ele>670</ele>
        <time>2012-11-04T10:48:25Z</time>
      </trkpt>
      <trkpt lat="45.27507" lon="5.56696">
        <ele>672</ele>
        <time>2012-11-04T10:48:26Z</time>
      </trkpt>
      <trkpt lat="45.27505" lon="5.56692">
        <ele>673</ele>
        <time>2012-11-04T10:48:27Z</time>
      </trkpt>
      <trkpt lat="45.27504" lon="5.56688">
        <ele>673</ele>
        <time>2012-11-04T10:48:28Z</time>
      </trkpt>
      <trkpt lat="45.27502" lon="5.56685">
        <ele>674</ele>
        <time>2012-11-04T10:48:29Z</time>
      </trkpt>
      <trkpt lat="45.27501" lon="5.56681">
        <ele>674</ele>
        <time>2012-11-04T10:48:30Z</time>
      </trkpt>
      <trkpt lat="45.275" lon="5.56679">
        <ele>674</ele>
        <time>2012-11-04T10:48:31Z</time>
      </trkpt>
      <trkpt lat="45.27498" lon="5.56676">
        <ele>674</ele>
        <time>2012-11-04T10:48:32Z</time>
      </trkpt>
      <trkpt lat="45.27496" lon="5.56674">
        <ele>675</ele>
        <time>2012-11-04T10:48:33Z</time>
      </trkpt>
      <trkpt lat="45.27495" lon="5.56671">
        <ele>676</ele>
        <time>2012-11-04T10:48:34Z</time>
      </trkpt>
      <trkpt lat="45.27493" lon="5.56668">
        <ele>676</ele>
        <time>2012-11-04T10:48:35Z</time>
      </trkpt>
      <trkpt lat="45.27491" lon="5.56666">
        <ele>676</ele>
        <time>2012-11-04T10:48:36Z</time>
      </trkpt>
      <trkpt lat="45.27489" lon="5.56663">
        <ele>675</ele>
        <time>2012-11-04T10:48:37Z</time>
      </trkpt>
      <trkpt lat="45.27487" lon="5.56661">
        <ele>675</ele>
        <time>2012-11-04T10:48:38Z</time>
      </trkpt>
      <trkpt lat="45.27485" lon="5.56659">
        <ele>676</ele>
        <time>2012-11-04T10:48:39Z</time>
      </trkpt>
      <trkpt lat="45.27483" lon="5.56657">
        <ele>676</ele>
        <time>2012-11-04T10:48:40Z</time>
      </trkpt>
      <trkpt lat="45.27481" lon="5.56655">
        <ele>676</ele>
        <time>2012-11-04T10:48:41Z</time>
      </trkpt>
      <trkpt lat="45.27479" lon="5.56653">
        <ele>677</ele>
        <time>2012-11-04T10:48:42Z</time>
      </trkpt>
      <trkpt lat="45.27476" lon="5.56651">
        <ele>676</ele>
        <time>2012-11-04T10:48:43Z</time>
      </trkpt>
      <trkpt lat="45.27474" lon="5.5665">
        <ele>676</ele>
        <time>2012-11-04T10:48:44Z</time>
      </trkpt>
      <trkpt lat="45.27471" lon="5.56648">
        <ele>674</ele>
        <time>2012-11-04T10:48:45Z</time>
      </trkpt>
      <trkpt lat="45.27469" lon="5.56648">
        <ele>673</ele>
        <time>2012-11-04T10:48:46Z</time>
      </trkpt>
      <trkpt lat="45.27467" lon="5.56646">
        <ele>673</ele>
        <time>2012-11-04T10:48:47Z</time>
      </trkpt>
      <trkpt lat="45.27465" lon="5.56645">
        <ele>673</ele>
        <time>2012-11-04T10:48:48Z</time>
      </trkpt>
      <trkpt lat="45.27463" lon="5.56644">
        <ele>672</ele>
        <time>2012-11-04T10:48:49Z</time>
      </trkpt>
      <trkpt lat="45.2746" lon="5.56644">
        <ele>670</ele>
        <time>2012-11-04T10:48:50Z</time>
      </trkpt>
      <trkpt lat="45.27458" lon="5.56643">
        <ele>668</ele>
        <time>2012-11-04T10:48:51Z</time>
      </trkpt>
      <trkpt lat="45.27456" lon="5.56642">
        <ele>667</ele>
        <time>2012-11-04T10:48:52Z</time>
      </trkpt>
      <trkpt lat="45.27454" lon="5.56641">
        <ele>667</ele>
        <time>2012-11-04T10:48:53Z</time>
      </trkpt>
      <trkpt lat="45.27452" lon="5.5664">
        <ele>667</ele>
        <time>2012-11-04T10:48:54Z</time>
      </trkpt>
      <trkpt lat="45.27451" lon="5.56639">
        <ele>667</ele>
        <time>2012-11-04T10:48:55Z</time>
      </trkpt>
      <trkpt lat="45.27448" lon="5.56637">
        <ele>666</ele>
        <time>2012-11-04T10:48:56Z</time>
      </trkpt>
      <trkpt lat="45.27446" lon="5.56635">
        <ele>666</ele>
        <time>2012-11-04T10:48:57Z</time>
      </trkpt>
      <trkpt lat="45.27445" lon="5.56634">
        <ele>665</ele>
        <time>2012-11-04T10:48:58Z</time>
      </trkpt>
      <trkpt lat="45.27444" lon="5.56633">
        <ele>666</ele>
        <time>2012-11-04T10:48:59Z</time>
      </trkpt>
      <trkpt lat="45.27442" lon="5.56633">
        <ele>666</ele>
        <time>2012-11-04T10:49:00Z</time>
      </trkpt>
      <trkpt lat="45.27441" lon="5.56632">
        <ele>666</ele>
        <time>2012-11-04T10:49:01Z</time>
      </trkpt>
      <trkpt lat="45.2744" lon="5.56631">
        <ele>666</ele>
        <time>2012-11-04T10:49:02Z</time>
      </trkpt>
      <trkpt lat="45.27439" lon="5.56631">
        <ele>666</ele>
        <time>2012-11-04T10:49:03Z</time>
      </trkpt>
      <trkpt lat="45.27438" lon="5.56631">
        <ele>666</ele>
        <time>2012-11-04T10:49:04Z</time>
      </trkpt>
      <trkpt lat="45.27437" lon="5.56631">
        <ele>666</ele>
        <time>2012-11-04T10:49:05Z</time>
      </trkpt>
      <trkpt lat="45.27436" lon="5.5663">
        <ele>666</ele>
        <time>2012-11-04T10:49:06Z</time>
      </trkpt>
      <trkpt lat="45.27435" lon="5.5663">
        <ele>665</ele>
        <time>2012-11-04T10:49:07Z</time>
      </trkpt>
      <trkpt lat="45.27433" lon="5.56629">
        <ele>664</ele>
        <time>2012-11-04T10:49:08Z</time>
      </trkpt>
      <trkpt lat="45.27431" lon="5.56628">
        <ele>660</ele>
        <time>2012-11-04T10:49:09Z</time>
      </trkpt>
      <trkpt lat="45.2743" lon="5.56628">
        <ele>662</ele>
        <time>2012-11-04T10:49:10Z</time>
      </trkpt>
      <trkpt lat="45.27429" lon="5.56627">
        <ele>662</ele>
        <time>2012-11-04T10:49:11Z</time>
      </trkpt>
      <trkpt lat="45.27427" lon="5.56627">
        <ele>661</ele>
        <time>2012-11-04T10:49:12Z</time>
      </trkpt>
      <trkpt lat="45.27426" lon="5.56626">
        <ele>658</ele>
        <time>2012-11-04T10:49:13Z</time>
      </trkpt>
      <trkpt lat="45.27426" lon="5.56626">
        <ele>658</ele>
        <time>2012-11-04T10:49:14Z</time>
      </trkpt>
      <trkpt lat="45.27426" lon="5.56626">
        <ele>657</ele>
        <time>2012-11-04T10:49:15Z</time>
      </trkpt>
      <trkpt lat="45.27426" lon="5.56626">
        <ele>657</ele>
        <time>2012-11-04T10:49:16Z</time>
      </trkpt>
      <trkpt lat="45.27426" lon="5.56626">
        <ele>657</ele>
        <time>2012-11-04T10:49:17Z</time>
      </trkpt>
      <trkpt lat="45.27423" lon="5.56621">
        <ele>657</ele>
        <time>2012-11-04T10:49:18Z</time>
      </trkpt>
      <trkpt lat="45.27418" lon="5.56617">
        <ele>658</ele>
        <time>2012-11-04T10:49:19Z</time>
      </trkpt>
      <trkpt lat="45.27415" lon="5.56614">
        <ele>657</ele>
        <time>2012-11-04T10:49:20Z</time>
      </trkpt>
      <trkpt lat="45.27413" lon="5.56615">
        <ele>661</ele>
        <time>2012-11-04T10:49:21Z</time>
      </trkpt>
      <trkpt lat="45.2741" lon="5.56614">
        <ele>662</ele>
        <time>2012-11-04T10:49:22Z</time>
      </trkpt>
      <trkpt lat="45.27407" lon="5.56613">
        <ele>664</ele>
        <time>2012-11-04T10:49:23Z</time>
      </trkpt>
      <trkpt lat="45.27404" lon="5.56612">
        <ele>662</ele>
        <time>2012-11-04T10:49:24Z</time>
      </trkpt>
      <trkpt lat="45.27402" lon="5.56611">
        <ele>663</ele>
        <time>2012-11-04T10:49:25Z</time>
      </trkpt>
      <trkpt lat="45.27395" lon="5.56604">
        <ele>662</ele>
        <time>2012-11-04T10:49:26Z</time>
      </trkpt>
      <trkpt lat="45.27392" lon="5.56601">
        <ele>662</ele>
        <time>2012-11-04T10:49:27Z</time>
      </trkpt>
      <trkpt lat="45.27389" lon="5.56598">
        <ele>661</ele>
        <time>2012-11-04T10:49:28Z</time>
      </trkpt>
      <trkpt lat="45.27385" lon="5.56595">
        <ele>661</ele>
        <time>2012-11-04T10:49:29Z</time>
      </trkpt>
      <trkpt lat="45.27383" lon="5.56594">
        <ele>661</ele>
        <time>2012-11-04T10:49:30Z</time>
      </trkpt>
      <trkpt lat="45.2738" lon="5.56591">
        <ele>660</ele>
        <time>2012-11-04T10:49:31Z</time>
      </trkpt>
      <trkpt lat="45.27378" lon="5.56589">
        <ele>660</ele>
        <time>2012-11-04T10:49:32Z</time>
      </trkpt>
      <trkpt lat="45.27375" lon="5.56587">
        <ele>660</ele>
        <time>2012-11-04T10:49:33Z</time>
      </trkpt>
      <trkpt lat="45.27373" lon="5.56586">
        <ele>659</ele>
        <time>2012-11-04T10:49:34Z</time>
      </trkpt>
      <trkpt lat="45.2737" lon="5.56584">
        <ele>659</ele>
        <time>2012-11-04T10:49:35Z</time>
      </trkpt>
      <trkpt lat="45.27368" lon="5.56582">
        <ele>658</ele>
        <time>2012-11-04T10:49:36Z</time>
      </trkpt>
      <trkpt lat="45.27365" lon="5.5658">
        <ele>658</ele>
        <time>2012-11-04T10:49:37Z</time>
      </trkpt>
      <trkpt lat="45.27363" lon="5.56579">
        <ele>658</ele>
        <time>2012-11-04T10:49:38Z</time>
      </trkpt>
      <trkpt lat="45.2736" lon="5.56577">
        <ele>658</ele>
        <time>2012-11-04T10:49:39Z</time>
      </trkpt>
      <trkpt lat="45.27358" lon="5.56575">
        <ele>657</ele>
        <time>2012-11-04T10:49:40Z</time>
      </trkpt>
      <trkpt lat="45.27355" lon="5.56574">
        <ele>659</ele>
        <time>2012-11-04T10:49:41Z</time>
      </trkpt>
      <trkpt lat="45.27353" lon="5.56572">
        <ele>659</ele>
        <time>2012-11-04T10:49:42Z</time>
      </trkpt>
      <trkpt lat="45.27351" lon="5.56571">
        <ele>660</ele>
        <time>2012-11-04T10:49:43Z</time>
      </trkpt>
      <trkpt lat="45.27348" lon="5.56569">
        <ele>659</ele>
        <time>2012-11-04T10:49:44Z</time>
      </trkpt>
      <trkpt lat="45.27346" lon="5.56567">
        <ele>660</ele>
        <time>2012-11-04T10:49:45Z</time>
      </trkpt>
      <trkpt lat="45.27344" lon="5.56565">
        <ele>660</ele>
        <time>2012-11-04T10:49:46Z</time>
      </trkpt>
      <trkpt lat="45.27341" lon="5.56562">
        <ele>660</ele>
        <time>2012-11-04T10:49:47Z</time>
      </trkpt>
      <trkpt lat="45.27339" lon="5.5656">
        <ele>660</ele>
        <time>2012-11-04T10:49:48Z</time>
      </trkpt>
      <trkpt lat="45.27337" lon="5.56558">
        <ele>660</ele>
        <time>2012-11-04T10:49:49Z</time>
      </trkpt>
      <trkpt lat="45.27335" lon="5.56556">
        <ele>660</ele>
        <time>2012-11-04T10:49:50Z</time>
      </trkpt>
      <trkpt lat="45.27333" lon="5.56554">
        <ele>660</ele>
        <time>2012-11-04T10:49:51Z</time>
      </trkpt>
      <trkpt lat="45.27331" lon="5.56552">
        <ele>661</ele>
        <time>2012-11-04T10:49:52Z</time>
      </trkpt>
      <trkpt lat="45.27328" lon="5.56549">
        <ele>660</ele>
        <time>2012-11-04T10:49:53Z</time>
      </trkpt>
      <trkpt lat="45.27326" lon="5.56547">
        <ele>659</ele>
        <time>2012-11-04T10:49:54Z</time>
      </trkpt>
      <trkpt lat="45.27324" lon="5.56544">
        <ele>659</ele>
        <time>2012-11-04T10:49:55Z</time>
      </trkpt>
      <trkpt lat="45.27322" lon="5.56541">
        <ele>658</ele>
        <time>2012-11-04T10:49:56Z</time>
      </trkpt>
      <trkpt lat="45.27321" lon="5.56539">
        <ele>658</ele>
        <time>2012-11-04T10:49:57Z</time>
      </trkpt>
      <trkpt lat="45.27319" lon="5.56537">
        <ele>658</ele>
        <time>2012-11-04T10:49:58Z</time>
      </trkpt>
      <trkpt lat="45.27318" lon="5.56536">
        <ele>658</ele>
        <time>2012-11-04T10:49:59Z</time>
      </trkpt>
      <trkpt lat="45.27316" lon="5.56534">
        <ele>657</ele>
        <time>2012-11-04T10:50:00Z</time>
      </trkpt>
      <trkpt lat="45.27314" lon="5.56533">
        <ele>657</ele>
        <time>2012-11-04T10:50:01Z</time>
      </trkpt>
      <trkpt lat="45.27312" lon="5.56531">
        <ele>657</ele>
        <time>2012-11-04T10:50:02Z</time>
      </trkpt>
      <trkpt lat="45.2731" lon="5.5653">
        <ele>657</ele>
        <time>2012-11-04T10:50:03Z</time>
      </trkpt>
      <trkpt lat="45.27308" lon="5.56528">
        <ele>656</ele>
        <time>2012-11-04T10:50:04Z</time>
      </trkpt>
      <trkpt lat="45.27305" lon="5.56526">
        <ele>655</ele>
        <time>2012-11-04T10:50:05Z</time>
      </trkpt>
      <trkpt lat="45.27303" lon="5.56524">
        <ele>655</ele>
        <time>2012-11-04T10:50:06Z</time>
      </trkpt>
      <trkpt lat="45.273" lon="5.56521">
        <ele>655</ele>
        <time>2012-11-04T10:50:07Z</time>
      </trkpt>
      <trkpt lat="45.27298" lon="5.56519">
        <ele>655</ele>
        <time>2012-11-04T10:50:08Z</time>
      </trkpt>
      <trkpt lat="45.27296" lon="5.56516">
        <ele>654</ele>
        <time>2012-11-04T10:50:09Z</time>
      </trkpt>
      <trkpt lat="45.27293" lon="5.56514">
        <ele>655</ele>
        <time>2012-11-04T10:50:10Z</time>
      </trkpt>
      <trkpt lat="45.2729" lon="5.56511">
        <ele>655</ele>
        <time>2012-11-04T10:50:11Z</time>
      </trkpt>
      <trkpt lat="45.27288" lon="5.56508">
        <ele>654</ele>
        <time>2012-11-04T10:50:12Z</time>
      </trkpt>
      <trkpt lat="45.27285" lon="5.56506">
        <ele>654</ele>
        <time>2012-11-04T10:50:13Z</time>
      </trkpt>
      <trkpt lat="45.27283" lon="5.56503">
        <ele>653</ele>
        <time>2012-11-04T10:50:14Z</time>
      </trkpt>
      <trkpt lat="45.27282" lon="5.56501">
        <ele>653</ele>
        <time>2012-11-04T10:50:15Z</time>
      </trkpt>
      <trkpt lat="45.2728" lon="5.56499">
        <ele>651</ele>
        <time>2012-11-04T10:50:16Z</time>
      </trkpt>
      <trkpt lat="45.27278" lon="5.56496">
        <ele>649</ele>
        <time>2012-11-04T10:50:17Z</time>
      </trkpt>
      <trkpt lat="45.27276" lon="5.56493">
        <ele>649</ele>
        <time>2012-11-04T10:50:18Z</time>
      </trkpt>
      <trkpt lat="45.27274" lon="5.5649">
        <ele>648</ele>
        <time>2012-11-04T10:50:19Z</time>
      </trkpt>
      <trkpt lat="45.27272" lon="5.56488">
        <ele>647</ele>
        <time>2012-11-04T10:50:20Z</time>
      </trkpt>
      <trkpt lat="45.2727" lon="5.56485">
        <ele>647</ele>
        <time>2012-11-04T10:50:21Z</time>
      </trkpt>
      <trkpt lat="45.27268" lon="5.56483">
        <ele>647</ele>
        <time>2012-11-04T10:50:22Z</time>
      </trkpt>
      <trkpt lat="45.27266" lon="5.56481">
        <ele>646</ele>
        <time>2012-11-04T10:50:23Z</time>
      </trkpt>
      <trkpt lat="45.27264" lon="5.56478">
        <ele>647</ele>
        <time>2012-11-04T10:50:24Z</time>
      </trkpt>
      <trkpt lat="45.27262" lon="5.56475">
        <ele>646</ele>
        <time>2012-11-04T10:50:25Z</time>
      </trkpt>
      <trkpt lat="45.2726" lon="5.56472">
        <ele>646</ele>
        <time>2012-11-04T10:50:26Z</time>
      </trkpt>
      <trkpt lat="45.27258" lon="5.5647">
        <ele>646</ele>
        <time>2012-11-04T10:50:27Z</time>
      </trkpt>
      <trkpt lat="45.27256" lon="5.56467">
        <ele>646</ele>
        <time>2012-11-04T10:50:28Z</time>
      </trkpt>
      <trkpt lat="45.27254" lon="5.56465">
        <ele>646</ele>
        <time>2012-11-04T10:50:29Z</time>
      </trkpt>
      <trkpt lat="45.27251" lon="5.56463">
        <ele>646</ele>
        <time>2012-11-04T10:50:30Z</time>
      </trkpt>
      <trkpt lat="45.27249" lon="5.56461">
        <ele>646</ele>
        <time>2012-11-04T10:50:31Z</time>
      </trkpt>
      <trkpt lat="45.27247" lon="5.56459">
        <ele>646</ele>
        <time>2012-11-04T10:50:32Z</time>
      </trkpt>
      <trkpt lat="45.27245" lon="5.56458">
        <ele>646</ele>
        <time>2012-11-04T10:50:33Z</time>
      </trkpt>
      <trkpt lat="45.27244" lon="5.56457">
        <ele>645</ele>
        <time>2012-11-04T10:50:34Z</time>
      </trkpt>
      <trkpt lat="45.27242" lon="5.56455">
        <ele>646</ele>
        <time>2012-11-04T10:50:35Z</time>
      </trkpt>
      <trkpt lat="45.2724" lon="5.56453">
        <ele>646</ele>
        <time>2012-11-04T10:50:36Z</time>
      </trkpt>
      <trkpt lat="45.27237" lon="5.56451">
        <ele>646</ele>
        <time>2012-11-04T10:50:37Z</time>
      </trkpt>
      <trkpt lat="45.27235" lon="5.56449">
        <ele>645</ele>
        <time>2012-11-04T10:50:38Z</time>
      </trkpt>
      <trkpt lat="45.27233" lon="5.56447">
        <ele>645</ele>
        <time>2012-11-04T10:50:39Z</time>
      </trkpt>
      <trkpt lat="45.2723" lon="5.56445">
        <ele>645</ele>
        <time>2012-11-04T10:50:40Z</time>
      </trkpt>
      <trkpt lat="45.27228" lon="5.56443">
        <ele>645</ele>
        <time>2012-11-04T10:50:41Z</time>
      </trkpt>
      <trkpt lat="45.27226" lon="5.56441">
        <ele>645</ele>
        <time>2012-11-04T10:50:42Z</time>
      </trkpt>
      <trkpt lat="45.27224" lon="5.56439">
        <ele>644</ele>
        <time>2012-11-04T10:50:43Z</time>
      </trkpt>
      <trkpt lat="45.27221" lon="5.56438">
        <ele>645</ele>
        <time>2012-11-04T10:50:44Z</time>
      </trkpt>
      <trkpt lat="45.27219" lon="5.56436">
        <ele>644</ele>
        <time>2012-11-04T10:50:45Z</time>
      </trkpt>
      <trkpt lat="45.27217" lon="5.56434">
        <ele>645</ele>
        <time>2012-11-04T10:50:46Z</time>
      </trkpt>
      <trkpt lat="45.27215" lon="5.56432">
        <ele>645</ele>
        <time>2012-11-04T10:50:47Z</time>
      </trkpt>
      <trkpt lat="45.27213" lon="5.5643">
        <ele>645</ele>
        <time>2012-11-04T10:50:48Z</time>
      </trkpt>
      <trkpt lat="45.27211" lon="5.56428">
        <ele>645</ele>
        <time>2012-11-04T10:50:49Z</time>
      </trkpt>
      <trkpt lat="45.27209" lon="5.56426">
        <ele>646</ele>
        <time>2012-11-04T10:50:50Z</time>
      </trkpt>
      <trkpt lat="45.27208" lon="5.56424">
        <ele>645</ele>
        <time>2012-11-04T10:50:51Z</time>
      </trkpt>
      <trkpt lat="45.27206" lon="5.56422">
        <ele>645</ele>
        <time>2012-11-04T10:50:52Z</time>
      </trkpt>
      <trkpt lat="45.27204" lon="5.56419">
        <ele>645</ele>
        <time>2012-11-04T10:50:53Z</time>
      </trkpt>
      <trkpt lat="45.27202" lon="5.56416">
        <ele>644</ele>
        <time>2012-11-04T10:50:54Z</time>
      </trkpt>
      <trkpt lat="45.272" lon="5.56414">
        <ele>644</ele>
        <time>2012-11-04T10:50:55Z</time>
      </trkpt>
      <trkpt lat="45.27198" lon="5.56411">
        <ele>643</ele>
        <time>2012-11-04T10:50:56Z</time>
      </trkpt>
      <trkpt lat="45.27196" lon="5.56409">
        <ele>642</ele>
        <time>2012-11-04T10:50:57Z</time>
      </trkpt>
      <trkpt lat="45.27194" lon="5.56407">
        <ele>642</ele>
        <time>2012-11-04T10:50:58Z</time>
      </trkpt>
      <trkpt lat="45.27192" lon="5.56406">
        <ele>642</ele>
        <time>2012-11-04T10:50:59Z</time>
      </trkpt>
      <trkpt lat="45.2719" lon="5.56404">
        <ele>642</ele>
        <time>2012-11-04T10:51:00Z</time>
      </trkpt>
      <trkpt lat="45.27189" lon="5.56403">
        <ele>642</ele>
        <time>2012-11-04T10:51:01Z</time>
      </trkpt>
      <trkpt lat="45.27187" lon="5.56402">
        <ele>641</ele>
        <time>2012-11-04T10:51:02Z</time>
      </trkpt>
      <trkpt lat="45.27187" lon="5.56401">
        <ele>641</ele>
        <time>2012-11-04T10:51:03Z</time>
      </trkpt>
      <trkpt lat="45.27186" lon="5.564">
        <ele>641</ele>
        <time>2012-11-04T10:51:04Z</time>
      </trkpt>
      <trkpt lat="45.27185" lon="5.56399">
        <ele>641</ele>
        <time>2012-11-04T10:51:05Z</time>
      </trkpt>
      <trkpt lat="45.27184" lon="5.56399">
        <ele>642</ele>
        <time>2012-11-04T10:51:06Z</time>
      </trkpt>
      <trkpt lat="45.27183" lon="5.56399">
        <ele>642</ele>
        <time>2012-11-04T10:51:07Z</time>
      </trkpt>
      <trkpt lat="45.27182" lon="5.564">
        <ele>642</ele>
        <time>2012-11-04T10:51:08Z</time>
      </trkpt>
      <trkpt lat="45.27181" lon="5.56401">
        <ele>642</ele>
        <time>2012-11-04T10:51:09Z</time>
      </trkpt>
      <trkpt lat="45.2718" lon="5.56403">
        <ele>643</ele>
        <time>2012-11-04T10:51:10Z</time>
      </trkpt>
      <trkpt lat="45.2718" lon="5.56405">
        <ele>644</ele>
        <time>2012-11-04T10:51:11Z</time>
      </trkpt>
      <trkpt lat="45.27179" lon="5.56408">
        <ele>644</ele>
        <time>2012-11-04T10:51:12Z</time>
      </trkpt>
      <trkpt lat="45.27178" lon="5.56409">
        <ele>645</ele>
        <time>2012-11-04T10:51:13Z</time>
      </trkpt>
      <trkpt lat="45.27178" lon="5.56411">
        <ele>644</ele>
        <time>2012-11-04T10:51:14Z</time>
      </trkpt>
      <trkpt lat="45.27177" lon="5.56411">
        <ele>644</ele>
        <time>2012-11-04T10:51:15Z</time>
      </trkpt>
      <trkpt lat="45.27177" lon="5.56412">
        <ele>643</ele>
        <time>2012-11-04T10:51:16Z</time>
      </trkpt>
      <trkpt lat="45.27176" lon="5.56411">
        <ele>645</ele>
        <time>2012-11-04T10:51:18Z</time>
      </trkpt>
      <trkpt lat="45.27177" lon="5.56412">
        <ele>645</ele>
        <time>2012-11-04T10:51:19Z</time>
      </trkpt>
      <trkpt lat="45.27176" lon="5.56414">
        <ele>646</ele>
        <time>2012-11-04T10:51:20Z</time>
      </trkpt>
      <trkpt lat="45.27176" lon="5.56415">
        <ele>645</ele>
        <time>2012-11-04T10:51:21Z</time>
      </trkpt>
      <trkpt lat="45.27175" lon="5.56416">
        <ele>645</ele>
        <time>2012-11-04T10:51:22Z</time>
      </trkpt>
      <trkpt lat="45.27175" lon="5.56417">
        <ele>645</ele>
        <time>2012-11-04T10:51:23Z</time>
      </trkpt>
      <trkpt lat="45.27175" lon="5.56417">
        <ele>644</ele>
        <time>2012-11-04T10:51:24Z</time>
      </trkpt>
      <trkpt lat="45.27175" lon="5.56417">
        <ele>644</ele>
        <time>2012-11-04T10:51:25Z</time>
      </trkpt>
      <trkpt lat="45.27175" lon="5.56417">
        <ele>643</ele>
        <time>2012-11-04T10:51:26Z</time>
      </trkpt>
      <trkpt lat="45.27175" lon="5.56417">
        <ele>643</ele>
        <time>2012-11-04T10:51:27Z</time>
      </trkpt>
      <trkpt lat="45.27175" lon="5.56417">
        <ele>643</ele>
        <time>2012-11-04T10:51:28Z</time>
      </trkpt>
      <trkpt lat="45.27175" lon="5.56417">
        <ele>643</ele>
        <time>2012-11-04T10:51:29Z</time>
      </trkpt>
      <trkpt lat="45.27175" lon="5.56417">
        <ele>642</ele>
        <time>2012-11-04T10:51:30Z</time>
      </trkpt>
      <trkpt lat="45.27175" lon="5.56417">
        <ele>643</ele>
        <time>2012-11-04T10:51:31Z</time>
      </trkpt>
      <trkpt lat="45.27175" lon="5.56417">
        <ele>642</ele>
        <time>2012-11-04T10:51:32Z</time>
      </trkpt>
      <trkpt lat="45.27175" lon="5.56417">
        <ele>642</ele>
        <time>2012-11-04T10:51:33Z</time>
      </trkpt>
      <trkpt lat="45.27175" lon="5.56417">
        <ele>642</ele>
        <time>2012-11-04T10:51:34Z</time>
      </trkpt>
      <trkpt lat="45.27175" lon="5.56417">
        <ele>642</ele>
        <time>2012-11-04T10:51:35Z</time>
      </trkpt>
      <trkpt lat="45.27175" lon="5.56417">
        <ele>642</ele>
        <time>2012-11-04T10:51:36Z</time>
      </trkpt>
      <trkpt lat="45.27175" lon="5.56417">
        <ele>643</ele>
        <time>2012-11-04T10:51:37Z</time>
      </trkpt>
      <trkpt lat="45.27175" lon="5.56417">
        <ele>643</ele>
        <time>2012-11-04T10:51:38Z</time>
      </trkpt>
      <trkpt lat="45.27179" lon="5.56413">
        <ele>643</ele>
        <time>2012-11-04T10:51:39Z</time>
      </trkpt>
      <trkpt lat="45.2718" lon="5.5641">
        <ele>645</ele>
        <time>2012-11-04T10:51:40Z</time>
      </trkpt>
      <trkpt lat="45.2718" lon="5.56408">
        <ele>645</ele>
        <time>2012-11-04T10:51:41Z</time>
      </trkpt>
      <trkpt lat="45.27181" lon="5.56406">
        <ele>642</ele>
        <time>2012-11-04T10:51:42Z</time>
      </trkpt>
      <trkpt lat="45.27182" lon="5.56403">
        <ele>641</ele>
        <time>2012-11-04T10:51:43Z</time>
      </trkpt>
      <trkpt lat="45.27182" lon="5.564">
        <ele>643</ele>
        <time>2012-11-04T10:51:44Z</time>
      </trkpt>
      <trkpt lat="45.27182" lon="5.56397">
        <ele>643</ele>
        <time>2012-11-04T10:51:45Z</time>
      </trkpt>
      <trkpt lat="45.27182" lon="5.56396">
        <ele>644</ele>
        <time>2012-11-04T10:51:46Z</time>
      </trkpt>
      <trkpt lat="45.27181" lon="5.56394">
        <ele>644</ele>
        <time>2012-11-04T10:51:47Z</time>
      </trkpt>
      <trkpt lat="45.2718" lon="5.56392">
        <ele>644</ele>
        <time>2012-11-04T10:51:48Z</time>
      </trkpt>
      <trkpt lat="45.27179" lon="5.5639">
        <ele>644</ele>
        <time>2012-11-04T10:51:49Z</time>
      </trkpt>
      <trkpt lat="45.27178" lon="5.56387">
        <ele>644</ele>
        <time>2012-11-04T10:51:50Z</time>
      </trkpt>
      <trkpt lat="45.27178" lon="5.56385">
        <ele>644</ele>
        <time>2012-11-04T10:51:51Z</time>
      </trkpt>
      <trkpt lat="45.27177" lon="5.56383">
        <ele>644</ele>
        <time>2012-11-04T10:51:52Z</time>
      </trkpt>
      <trkpt lat="45.27176" lon="5.56381">
        <ele>644</ele>
        <time>2012-11-04T10:51:53Z</time>
      </trkpt>
      <trkpt lat="45.27175" lon="5.56379">
        <ele>645</ele>
        <time>2012-11-04T10:51:54Z</time>
      </trkpt>
      <trkpt lat="45.27174" lon="5.56378">
        <ele>644</ele>
        <time>2012-11-04T10:51:55Z</time>
      </trkpt>
      <trkpt lat="45.27173" lon="5.56376">
        <ele>642</ele>
        <time>2012-11-04T10:51:56Z</time>
      </trkpt>
      <trkpt lat="45.27171" lon="5.56375">
        <ele>641</ele>
        <time>2012-11-04T10:51:57Z</time>
      </trkpt>
      <trkpt lat="45.2717" lon="5.56373">
        <ele>641</ele>
        <time>2012-11-04T10:51:58Z</time>
      </trkpt>
      <trkpt lat="45.2717" lon="5.56372">
        <ele>640</ele>
        <time>2012-11-04T10:51:59Z</time>
      </trkpt>
      <trkpt lat="45.27169" lon="5.5637">
        <ele>640</ele>
        <time>2012-11-04T10:52:00Z</time>
      </trkpt>
      <trkpt lat="45.27169" lon="5.56369">
        <ele>639</ele>
        <time>2012-11-04T10:52:01Z</time>
      </trkpt>
      <trkpt lat="45.27169" lon="5.56368">
        <ele>640</ele>
        <time>2012-11-04T10:52:02Z</time>
      </trkpt>
      <trkpt lat="45.27169" lon="5.56367">
        <ele>640</ele>
        <time>2012-11-04T10:52:03Z</time>
      </trkpt>
      <trkpt lat="45.27169" lon="5.56366">
        <ele>640</ele>
        <time>2012-11-04T10:52:04Z</time>
      </trkpt>
      <trkpt lat="45.27168" lon="5.56365">
        <ele>640</ele>
        <time>2012-11-04T10:52:05Z</time>
      </trkpt>
      <trkpt lat="45.27168" lon="5.56363">
        <ele>640</ele>
        <time>2012-11-04T10:52:06Z</time>
      </trkpt>
      <trkpt lat="45.27167" lon="5.56361">
        <ele>639</ele>
        <time>2012-11-04T10:52:07Z</time>
      </trkpt>
      <trkpt lat="45.27166" lon="5.5636">
        <ele>642</ele>
        <time>2012-11-04T10:52:08Z</time>
      </trkpt>
      <trkpt lat="45.27165" lon="5.56358">
        <ele>640</ele>
        <time>2012-11-04T10:52:09Z</time>
      </trkpt>
      <trkpt lat="45.27164" lon="5.56356">
        <ele>640</ele>
        <time>2012-11-04T10:52:10Z</time>
      </trkpt>
      <trkpt lat="45.27164" lon="5.56354">
        <ele>640</ele>
        <time>2012-11-04T10:52:11Z</time>
      </trkpt>
      <trkpt lat="45.27163" lon="5.56353">
        <ele>640</ele>
        <time>2012-11-04T10:52:12Z</time>
      </trkpt>
      <trkpt lat="45.27163" lon="5.5635">
        <ele>640</ele>
        <time>2012-11-04T10:52:13Z</time>
      </trkpt>
      <trkpt lat="45.27163" lon="5.56348">
        <ele>640</ele>
        <time>2012-11-04T10:52:14Z</time>
      </trkpt>
      <trkpt lat="45.27162" lon="5.56347">
        <ele>641</ele>
        <time>2012-11-04T10:52:15Z</time>
      </trkpt>
      <trkpt lat="45.27162" lon="5.56345">
        <ele>640</ele>
        <time>2012-11-04T10:52:16Z</time>
      </trkpt>
      <trkpt lat="45.27161" lon="5.56343">
        <ele>640</ele>
        <time>2012-11-04T10:52:17Z</time>
      </trkpt>
      <trkpt lat="45.27161" lon="5.56342">
        <ele>641</ele>
        <time>2012-11-04T10:52:18Z</time>
      </trkpt>
      <trkpt lat="45.2716" lon="5.5634">
        <ele>640</ele>
        <time>2012-11-04T10:52:19Z</time>
      </trkpt>
      <trkpt lat="45.27159" lon="5.56338">
        <ele>640</ele>
        <time>2012-11-04T10:52:20Z</time>
      </trkpt>
      <trkpt lat="45.27158" lon="5.56337">
        <ele>641</ele>
        <time>2012-11-04T10:52:21Z</time>
      </trkpt>
      <trkpt lat="45.27157" lon="5.56335">
        <ele>641</ele>
        <time>2012-11-04T10:52:22Z</time>
      </trkpt>
      <trkpt lat="45.27157" lon="5.56334">
        <ele>641</ele>
        <time>2012-11-04T10:52:23Z</time>
      </trkpt>
      <trkpt lat="45.27157" lon="5.56333">
        <ele>641</ele>
        <time>2012-11-04T10:52:24Z</time>
      </trkpt>
      <trkpt lat="45.27157" lon="5.56333">
        <ele>641</ele>
        <time>2012-11-04T10:52:25Z</time>
      </trkpt>
      <trkpt lat="45.27157" lon="5.56332">
        <ele>641</ele>
        <time>2012-11-04T10:52:26Z</time>
      </trkpt>
      <trkpt lat="45.27157" lon="5.56331">
        <ele>641</ele>
        <time>2012-11-04T10:52:27Z</time>
      </trkpt>
      <trkpt lat="45.27156" lon="5.56329">
        <ele>640</ele>
        <time>2012-11-04T10:52:28Z</time>
      </trkpt>
      <trkpt lat="45.27156" lon="5.56327">
        <ele>640</ele>
        <time>2012-11-04T10:52:29Z</time>
      </trkpt>
      <trkpt lat="45.27155" lon="5.56325">
        <ele>639</ele>
        <time>2012-11-04T10:52:30Z</time>
      </trkpt>
      <trkpt lat="45.27155" lon="5.56322">
        <ele>639</ele>
        <time>2012-11-04T10:52:31Z</time>
      </trkpt>
      <trkpt lat="45.27155" lon="5.56318">
        <ele>639</ele>
        <time>2012-11-04T10:52:32Z</time>
      </trkpt>
      <trkpt lat="45.27154" lon="5.56314">
        <ele>640</ele>
        <time>2012-11-04T10:52:33Z</time>
      </trkpt>
      <trkpt lat="45.27153" lon="5.56308">
        <ele>640</ele>
        <time>2012-11-04T10:52:34Z</time>
      </trkpt>
      <trkpt lat="45.27152" lon="5.56302">
        <ele>640</ele>
        <time>2012-11-04T10:52:35Z</time>
      </trkpt>
      <trkpt lat="45.27151" lon="5.56295">
        <ele>639</ele>
        <time>2012-11-04T10:52:36Z</time>
      </trkpt>
      <trkpt lat="45.2715" lon="5.5629">
        <ele>638</ele>
        <time>2012-11-04T10:52:37Z</time>
      </trkpt>
      <trkpt lat="45.27148" lon="5.56285">
        <ele>638</ele>
        <time>2012-11-04T10:52:38Z</time>
      </trkpt>
      <trkpt lat="45.27147" lon="5.5628">
        <ele>637</ele>
        <time>2012-11-04T10:52:39Z</time>
      </trkpt>
      <trkpt lat="45.27146" lon="5.56276">
        <ele>636</ele>
        <time>2012-11-04T10:52:40Z</time>
      </trkpt>
      <trkpt lat="45.27145" lon="5.56272">
        <ele>635</ele>
        <time>2012-11-04T10:52:41Z</time>
      </trkpt>
      <trkpt lat="45.27144" lon="5.56268">
        <ele>635</ele>
        <time>2012-11-04T10:52:42Z</time>
      </trkpt>
      <trkpt lat="45.27144" lon="5.56264">
        <ele>636</ele>
        <time>2012-11-04T10:52:43Z</time>
      </trkpt>
      <trkpt lat="45.27143" lon="5.56259">
        <ele>635</ele>
        <time>2012-11-04T10:52:44Z</time>
      </trkpt>
      <trkpt lat="45.27142" lon="5.56253">
        <ele>635</ele>
        <time>2012-11-04T10:52:45Z</time>
      </trkpt>
      <trkpt lat="45.27142" lon="5.56249">
        <ele>634</ele>
        <time>2012-11-04T10:52:46Z</time>
      </trkpt>
      <trkpt lat="45.27141" lon="5.56244">
        <ele>634</ele>
        <time>2012-11-04T10:52:47Z</time>
      </trkpt>
      <trkpt lat="45.2714" lon="5.5624">
        <ele>633</ele>
        <time>2012-11-04T10:52:48Z</time>
      </trkpt>
      <trkpt lat="45.27141" lon="5.56235">
        <ele>633</ele>
        <time>2012-11-04T10:52:49Z</time>
      </trkpt>
      <trkpt lat="45.27142" lon="5.56231">
        <ele>634</ele>
        <time>2012-11-04T10:52:50Z</time>
      </trkpt>
      <trkpt lat="45.27143" lon="5.56226">
        <ele>634</ele>
        <time>2012-11-04T10:52:51Z</time>
      </trkpt>
      <trkpt lat="45.27145" lon="5.56222">
        <ele>634</ele>
        <time>2012-11-04T10:52:52Z</time>
      </trkpt>
      <trkpt lat="45.27146" lon="5.56218">
        <ele>633</ele>
        <time>2012-11-04T10:52:53Z</time>
      </trkpt>
      <trkpt lat="45.27148" lon="5.56214">
        <ele>633</ele>
        <time>2012-11-04T10:52:54Z</time>
      </trkpt>
      <trkpt lat="45.27149" lon="5.5621">
        <ele>632</ele>
        <time>2012-11-04T10:52:55Z</time>
      </trkpt>
      <trkpt lat="45.2715" lon="5.56207">
        <ele>632</ele>
        <time>2012-11-04T10:52:56Z</time>
      </trkpt>
      <trkpt lat="45.27151" lon="5.56203">
        <ele>632</ele>
        <time>2012-11-04T10:52:57Z</time>
      </trkpt>
      <trkpt lat="45.27151" lon="5.562">
        <ele>632</ele>
        <time>2012-11-04T10:52:58Z</time>
      </trkpt>
      <trkpt lat="45.27153" lon="5.56195">
        <ele>632</ele>
        <time>2012-11-04T10:52:59Z</time>
      </trkpt>
      <trkpt lat="45.27154" lon="5.5619">
        <ele>632</ele>
        <time>2012-11-04T10:53:00Z</time>
      </trkpt>
      <trkpt lat="45.27155" lon="5.56186">
        <ele>632</ele>
        <time>2012-11-04T10:53:01Z</time>
      </trkpt>
      <trkpt lat="45.27155" lon="5.56182">
        <ele>635</ele>
        <time>2012-11-04T10:53:02Z</time>
      </trkpt>
      <trkpt lat="45.27154" lon="5.56178">
        <ele>635</ele>
        <time>2012-11-04T10:53:03Z</time>
      </trkpt>
      <trkpt lat="45.27154" lon="5.56174">
        <ele>635</ele>
        <time>2012-11-04T10:53:04Z</time>
      </trkpt>
      <trkpt lat="45.27153" lon="5.5617">
        <ele>635</ele>
        <time>2012-11-04T10:53:05Z</time>
      </trkpt>
      <trkpt lat="45.27152" lon="5.56166">
        <ele>635</ele>
        <time>2012-11-04T10:53:06Z</time>
      </trkpt>
      <trkpt lat="45.27152" lon="5.56161">
        <ele>635</ele>
        <time>2012-11-04T10:53:07Z</time>
      </trkpt>
      <trkpt lat="45.27152" lon="5.56158">
        <ele>634</ele>
        <time>2012-11-04T10:53:08Z</time>
      </trkpt>
      <trkpt lat="45.27152" lon="5.56154">
        <ele>634</ele>
        <time>2012-11-04T10:53:09Z</time>
      </trkpt>
      <trkpt lat="45.27153" lon="5.56152">
        <ele>629</ele>
        <time>2012-11-04T10:53:10Z</time>
      </trkpt>
      <trkpt lat="45.27152" lon="5.56149">
        <ele>630</ele>
        <time>2012-11-04T10:53:11Z</time>
      </trkpt>
      <trkpt lat="45.27153" lon="5.56145">
        <ele>631</ele>
        <time>2012-11-04T10:53:12Z</time>
      </trkpt>
      <trkpt lat="45.27152" lon="5.56141">
        <ele>633</ele>
        <time>2012-11-04T10:53:13Z</time>
      </trkpt>
      <trkpt lat="45.27152" lon="5.56137">
        <ele>634</ele>
        <time>2012-11-04T10:53:14Z</time>
      </trkpt>
      <trkpt lat="45.27151" lon="5.56133">
        <ele>631</ele>
        <time>2012-11-04T10:53:15Z</time>
      </trkpt>
      <trkpt lat="45.2715" lon="5.56129">
        <ele>631</ele>
        <time>2012-11-04T10:53:16Z</time>
      </trkpt>
      <trkpt lat="45.27149" lon="5.56125">
        <ele>631</ele>
        <time>2012-11-04T10:53:17Z</time>
      </trkpt>
      <trkpt lat="45.27147" lon="5.56121">
        <ele>631</ele>
        <time>2012-11-04T10:53:18Z</time>
      </trkpt>
      <trkpt lat="45.27146" lon="5.56117">
        <ele>632</ele>
        <time>2012-11-04T10:53:19Z</time>
      </trkpt>
      <trkpt lat="45.27145" lon="5.56113">
        <ele>632</ele>
        <time>2012-11-04T10:53:20Z</time>
      </trkpt>
      <trkpt lat="45.27144" lon="5.56109">
        <ele>632</ele>
        <time>2012-11-04T10:53:21Z</time>
      </trkpt>
      <trkpt lat="45.27143" lon="5.56105">
        <ele>633</ele>
        <time>2012-11-04T10:53:22Z</time>
      </trkpt>
      <trkpt lat="45.27142" lon="5.56102">
        <ele>634</ele>
        <time>2012-11-04T10:53:23Z</time>
      </trkpt>
      <trkpt lat="45.27141" lon="5.56098">
        <ele>634</ele>
        <time>2012-11-04T10:53:24Z</time>
      </trkpt>
      <trkpt lat="45.27141" lon="5.56095">
        <ele>635</ele>
        <time>2012-11-04T10:53:25Z</time>
      </trkpt>
      <trkpt lat="45.2714" lon="5.56094">
        <ele>632</ele>
        <time>2012-11-04T10:53:26Z</time>
      </trkpt>
      <trkpt lat="45.2714" lon="5.56093">
        <ele>633</ele>
        <time>2012-11-04T10:53:27Z</time>
      </trkpt>
      <trkpt lat="45.27139" lon="5.56092">
        <ele>631</ele>
        <time>2012-11-04T10:53:28Z</time>
      </trkpt>
      <trkpt lat="45.27138" lon="5.56092">
        <ele>630</ele>
        <time>2012-11-04T10:53:29Z</time>
      </trkpt>
      <trkpt lat="45.27137" lon="5.56092">
        <ele>631</ele>
        <time>2012-11-04T10:53:30Z</time>
      </trkpt>
      <trkpt lat="45.27136" lon="5.56091">
        <ele>631</ele>
        <time>2012-11-04T10:53:31Z</time>
      </trkpt>
      <trkpt lat="45.27136" lon="5.56091">
        <ele>628</ele>
        <time>2012-11-04T10:53:32Z</time>
      </trkpt>
      <trkpt lat="45.27134" lon="5.56092">
        <ele>628</ele>
        <time>2012-11-04T10:53:33Z</time>
      </trkpt>
      <trkpt lat="45.27134" lon="5.56091">
        <ele>630</ele>
        <time>2012-11-04T10:53:34Z</time>
      </trkpt>
      <trkpt lat="45.27133" lon="5.56091">
        <ele>630</ele>
        <time>2012-11-04T10:53:35Z</time>
      </trkpt>
      <trkpt lat="45.27133" lon="5.5609">
        <ele>630</ele>
        <time>2012-11-04T10:53:36Z</time>
      </trkpt>
      <trkpt lat="45.27132" lon="5.56088">
        <ele>631</ele>
        <time>2012-11-04T10:53:37Z</time>
      </trkpt>
      <trkpt lat="45.27131" lon="5.56087">
        <ele>630</ele>
        <time>2012-11-04T10:53:38Z</time>
      </trkpt>
      <trkpt lat="45.2713" lon="5.56085">
        <ele>631</ele>
        <time>2012-11-04T10:53:39Z</time>
      </trkpt>
      <trkpt lat="45.27129" lon="5.56084">
        <ele>631</ele>
        <time>2012-11-04T10:53:40Z</time>
      </trkpt>
      <trkpt lat="45.27128" lon="5.56082">
        <ele>632</ele>
        <time>2012-11-04T10:53:41Z</time>
      </trkpt>
      <trkpt lat="45.27127" lon="5.5608">
        <ele>631</ele>
        <time>2012-11-04T10:53:42Z</time>
      </trkpt>
      <trkpt lat="45.27126" lon="5.56078">
        <ele>632</ele>
        <time>2012-11-04T10:53:43Z</time>
      </trkpt>
      <trkpt lat="45.27125" lon="5.56077">
        <ele>632</ele>
        <time>2012-11-04T10:53:44Z</time>
      </trkpt>
      <trkpt lat="45.27124" lon="5.56075">
        <ele>631</ele>
        <time>2012-11-04T10:53:45Z</time>
      </trkpt>
      <trkpt lat="45.27123" lon="5.56074">
        <ele>631</ele>
        <time>2012-11-04T10:53:46Z</time>
      </trkpt>
      <trkpt lat="45.27122" lon="5.56073">
        <ele>631</ele>
        <time>2012-11-04T10:53:47Z</time>
      </trkpt>
      <trkpt lat="45.27121" lon="5.56072">
        <ele>631</ele>
        <time>2012-11-04T10:53:48Z</time>
      </trkpt>
      <trkpt lat="45.2712" lon="5.5607">
        <ele>632</ele>
        <time>2012-11-04T10:53:49Z</time>
      </trkpt>
      <trkpt lat="45.27119" lon="5.56069">
        <ele>631</ele>
        <time>2012-11-04T10:53:50Z</time>
      </trkpt>
      <trkpt lat="45.27118" lon="5.56068">
        <ele>631</ele>
        <time>2012-11-04T10:53:51Z</time>
      </trkpt>
      <trkpt lat="45.27117" lon="5.56066">
        <ele>631</ele>
        <time>2012-11-04T10:53:52Z</time>
      </trkpt>
      <trkpt lat="45.27116" lon="5.56065">
        <ele>631</ele>
        <time>2012-11-04T10:53:53Z</time>
      </trkpt>
      <trkpt lat="45.27115" lon="5.56063">
        <ele>631</ele>
        <time>2012-11-04T10:53:54Z</time>
      </trkpt>
      <trkpt lat="45.27113" lon="5.56062">
        <ele>631</ele>
        <time>2012-11-04T10:53:55Z</time>
      </trkpt>
      <trkpt lat="45.27112" lon="5.56061">
        <ele>631</ele>
        <time>2012-11-04T10:53:56Z</time>
      </trkpt>
      <trkpt lat="45.27111" lon="5.56059">
        <ele>631</ele>
        <time>2012-11-04T10:53:57Z</time>
      </trkpt>
      <trkpt lat="45.2711" lon="5.56058">
        <ele>631</ele>
        <time>2012-11-04T10:53:58Z</time>
      </trkpt>
      <trkpt lat="45.27108" lon="5.56056">
        <ele>631</ele>
        <time>2012-11-04T10:53:59Z</time>
      </trkpt>
      <trkpt lat="45.27107" lon="5.56054">
        <ele>630</ele>
        <time>2012-11-04T10:54:00Z</time>
      </trkpt>
      <trkpt lat="45.27105" lon="5.56051">
        <ele>630</ele>
        <time>2012-11-04T10:54:01Z</time>
      </trkpt>
      <trkpt lat="45.27102" lon="5.56048">
        <ele>628</ele>
        <time>2012-11-04T10:54:02Z</time>
      </trkpt>
      <trkpt lat="45.27099" lon="5.56045">
        <ele>627</ele>
        <time>2012-11-04T10:54:03Z</time>
      </trkpt>
      <trkpt lat="45.27096" lon="5.56042">
        <ele>627</ele>
        <time>2012-11-04T10:54:04Z</time>
      </trkpt>
      <trkpt lat="45.27093" lon="5.56039">
        <ele>626</ele>
        <time>2012-11-04T10:54:05Z</time>
      </trkpt>
      <trkpt lat="45.2709" lon="5.56036">
        <ele>626</ele>
        <time>2012-11-04T10:54:06Z</time>
      </trkpt>
      <trkpt lat="45.27088" lon="5.56034">
        <ele>626</ele>
        <time>2012-11-04T10:54:07Z</time>
      </trkpt>
      <trkpt lat="45.27085" lon="5.56031">
        <ele>626</ele>
        <time>2012-11-04T10:54:08Z</time>
      </trkpt>
      <trkpt lat="45.27083" lon="5.56029">
        <ele>625</ele>
        <time>2012-11-04T10:54:09Z</time>
      </trkpt>
      <trkpt lat="45.2708" lon="5.56026">
        <ele>626</ele>
        <time>2012-11-04T10:54:10Z</time>
      </trkpt>
      <trkpt lat="45.27078" lon="5.56024">
        <ele>626</ele>
        <time>2012-11-04T10:54:11Z</time>
      </trkpt>
      <trkpt lat="45.27076" lon="5.56021">
        <ele>626</ele>
        <time>2012-11-04T10:54:12Z</time>
      </trkpt>
      <trkpt lat="45.27074" lon="5.56019">
        <ele>626</ele>
        <time>2012-11-04T10:54:13Z</time>
      </trkpt>
      <trkpt lat="45.27073" lon="5.56016">
        <ele>626</ele>
        <time>2012-11-04T10:54:14Z</time>
      </trkpt>
      <trkpt lat="45.27071" lon="5.56014">
        <ele>627</ele>
        <time>2012-11-04T10:54:15Z</time>
      </trkpt>
      <trkpt lat="45.2707" lon="5.56011">
        <ele>627</ele>
        <time>2012-11-04T10:54:16Z</time>
      </trkpt>
      <trkpt lat="45.27068" lon="5.56008">
        <ele>627</ele>
        <time>2012-11-04T10:54:17Z</time>
      </trkpt>
      <trkpt lat="45.27066" lon="5.56005">
        <ele>627</ele>
        <time>2012-11-04T10:54:18Z</time>
      </trkpt>
      <trkpt lat="45.27065" lon="5.56003">
        <ele>627</ele>
        <time>2012-11-04T10:54:19Z</time>
      </trkpt>
      <trkpt lat="45.27063" lon="5.56">
        <ele>626</ele>
        <time>2012-11-04T10:54:20Z</time>
      </trkpt>
      <trkpt lat="45.27062" lon="5.55998">
        <ele>625</ele>
        <time>2012-11-04T10:54:21Z</time>
      </trkpt>
      <trkpt lat="45.2706" lon="5.55995">
        <ele>626</ele>
        <time>2012-11-04T10:54:22Z</time>
      </trkpt>
      <trkpt lat="45.27059" lon="5.55993">
        <ele>626</ele>
        <time>2012-11-04T10:54:23Z</time>
      </trkpt>
      <trkpt lat="45.27058" lon="5.5599">
        <ele>625</ele>
        <time>2012-11-04T10:54:24Z</time>
      </trkpt>
      <trkpt lat="45.27056" lon="5.55988">
        <ele>625</ele>
        <time>2012-11-04T10:54:25Z</time>
      </trkpt>
      <trkpt lat="45.27054" lon="5.55985">
        <ele>625</ele>
        <time>2012-11-04T10:54:26Z</time>
      </trkpt>
      <trkpt lat="45.27053" lon="5.55982">
        <ele>625</ele>
        <time>2012-11-04T10:54:27Z</time>
      </trkpt>
      <trkpt lat="45.27051" lon="5.55978">
        <ele>626</ele>
        <time>2012-11-04T10:54:28Z</time>
      </trkpt>
      <trkpt lat="45.2705" lon="5.55975">
        <ele>625</ele>
        <time>2012-11-04T10:54:29Z</time>
      </trkpt>
      <trkpt lat="45.27048" lon="5.55972">
        <ele>625</ele>
        <time>2012-11-04T10:54:30Z</time>
      </trkpt>
      <trkpt lat="45.27047" lon="5.55968">
        <ele>626</ele>
        <time>2012-11-04T10:54:31Z</time>
      </trkpt>
      <trkpt lat="45.27047" lon="5.55965">
        <ele>626</ele>
        <time>2012-11-04T10:54:32Z</time>
      </trkpt>
      <trkpt lat="45.27047" lon="5.55962">
        <ele>626</ele>
        <time>2012-11-04T10:54:33Z</time>
      </trkpt>
      <trkpt lat="45.27047" lon="5.55958">
        <ele>625</ele>
        <time>2012-11-04T10:54:34Z</time>
      </trkpt>
      <trkpt lat="45.27047" lon="5.55955">
        <ele>625</ele>
        <time>2012-11-04T10:54:35Z</time>
      </trkpt>
      <trkpt lat="45.27046" lon="5.55951">
        <ele>624</ele>
        <time>2012-11-04T10:54:36Z</time>
      </trkpt>
      <trkpt lat="45.27046" lon="5.55946">
        <ele>623</ele>
        <time>2012-11-04T10:54:37Z</time>
      </trkpt>
      <trkpt lat="45.27045" lon="5.55942">
        <ele>623</ele>
        <time>2012-11-04T10:54:38Z</time>
      </trkpt>
      <trkpt lat="45.27045" lon="5.55937">
        <ele>623</ele>
        <time>2012-11-04T10:54:39Z</time>
      </trkpt>
      <trkpt lat="45.27045" lon="5.55932">
        <ele>623</ele>
        <time>2012-11-04T10:54:40Z</time>
      </trkpt>
      <trkpt lat="45.27044" lon="5.55928">
        <ele>622</ele>
        <time>2012-11-04T10:54:41Z</time>
      </trkpt>
      <trkpt lat="45.27044" lon="5.55923">
        <ele>622</ele>
        <time>2012-11-04T10:54:42Z</time>
      </trkpt>
      <trkpt lat="45.27044" lon="5.55919">
        <ele>621</ele>
        <time>2012-11-04T10:54:43Z</time>
      </trkpt>
      <trkpt lat="45.27044" lon="5.55915">
        <ele>621</ele>
        <time>2012-11-04T10:54:44Z</time>
      </trkpt>
      <trkpt lat="45.27044" lon="5.55911">
        <ele>620</ele>
        <time>2012-11-04T10:54:45Z</time>
      </trkpt>
      <trkpt lat="45.27044" lon="5.55907">
        <ele>620</ele>
        <time>2012-11-04T10:54:46Z</time>
      </trkpt>
      <trkpt lat="45.27044" lon="5.55902">
        <ele>620</ele>
        <time>2012-11-04T10:54:47Z</time>
      </trkpt>
      <trkpt lat="45.27044" lon="5.55897">
        <ele>620</ele>
        <time>2012-11-04T10:54:48Z</time>
      </trkpt>
      <trkpt lat="45.27045" lon="5.55892">
        <ele>619</ele>
        <time>2012-11-04T10:54:49Z</time>
      </trkpt>
      <trkpt lat="45.27046" lon="5.55888">
        <ele>619</ele>
        <time>2012-11-04T10:54:50Z</time>
      </trkpt>
      <trkpt lat="45.27045" lon="5.55883">
        <ele>618</ele>
        <time>2012-11-04T10:54:51Z</time>
      </trkpt>
      <trkpt lat="45.27045" lon="5.55879">
        <ele>618</ele>
        <time>2012-11-04T10:54:52Z</time>
      </trkpt>
      <trkpt lat="45.27045" lon="5.55874">
        <ele>618</ele>
        <time>2012-11-04T10:54:53Z</time>
      </trkpt>
      <trkpt lat="45.27044" lon="5.55869">
        <ele>618</ele>
        <time>2012-11-04T10:54:54Z</time>
      </trkpt>
      <trkpt lat="45.27043" lon="5.55865">
        <ele>618</ele>
        <time>2012-11-04T10:54:55Z</time>
      </trkpt>
      <trkpt lat="45.27042" lon="5.55861">
        <ele>617</ele>
        <time>2012-11-04T10:54:56Z</time>
      </trkpt>
      <trkpt lat="45.27041" lon="5.55857">
        <ele>617</ele>
        <time>2012-11-04T10:54:57Z</time>
      </trkpt>
      <trkpt lat="45.27041" lon="5.55853">
        <ele>617</ele>
        <time>2012-11-04T10:54:58Z</time>
      </trkpt>
      <trkpt lat="45.2704" lon="5.55849">
        <ele>616</ele>
        <time>2012-11-04T10:54:59Z</time>
      </trkpt>
      <trkpt lat="45.27039" lon="5.55845">
        <ele>615</ele>
        <time>2012-11-04T10:55:00Z</time>
      </trkpt>
      <trkpt lat="45.27038" lon="5.55841">
        <ele>615</ele>
        <time>2012-11-04T10:55:01Z</time>
      </trkpt>
      <trkpt lat="45.27037" lon="5.55838">
        <ele>614</ele>
        <time>2012-11-04T10:55:02Z</time>
      </trkpt>
      <trkpt lat="45.27035" lon="5.55834">
        <ele>614</ele>
        <time>2012-11-04T10:55:03Z</time>
      </trkpt>
      <trkpt lat="45.27034" lon="5.5583">
        <ele>614</ele>
        <time>2012-11-04T10:55:04Z</time>
      </trkpt>
      <trkpt lat="45.27033" lon="5.55826">
        <ele>613</ele>
        <time>2012-11-04T10:55:05Z</time>
      </trkpt>
      <trkpt lat="45.27031" lon="5.55822">
        <ele>612</ele>
        <time>2012-11-04T10:55:06Z</time>
      </trkpt>
      <trkpt lat="45.27029" lon="5.55818">
        <ele>612</ele>
        <time>2012-11-04T10:55:07Z</time>
      </trkpt>
      <trkpt lat="45.27028" lon="5.55815">
        <ele>611</ele>
        <time>2012-11-04T10:55:08Z</time>
      </trkpt>
      <trkpt lat="45.27026" lon="5.55812">
        <ele>611</ele>
        <time>2012-11-04T10:55:09Z</time>
      </trkpt>
      <trkpt lat="45.27025" lon="5.55809">
        <ele>611</ele>
        <time>2012-11-04T10:55:10Z</time>
      </trkpt>
      <trkpt lat="45.27024" lon="5.55806">
        <ele>610</ele>
        <time>2012-11-04T10:55:11Z</time>
      </trkpt>
      <trkpt lat="45.27022" lon="5.55803">
        <ele>611</ele>
        <time>2012-11-04T10:55:12Z</time>
      </trkpt>
      <trkpt lat="45.27021" lon="5.558">
        <ele>611</ele>
        <time>2012-11-04T10:55:13Z</time>
      </trkpt>
      <trkpt lat="45.2702" lon="5.55797">
        <ele>612</ele>
        <time>2012-11-04T10:55:14Z</time>
      </trkpt>
      <trkpt lat="45.27018" lon="5.55794">
        <ele>612</ele>
        <time>2012-11-04T10:55:15Z</time>
      </trkpt>
      <trkpt lat="45.27017" lon="5.55791">
        <ele>611</ele>
        <time>2012-11-04T10:55:16Z</time>
      </trkpt>
      <trkpt lat="45.27015" lon="5.55788">
        <ele>611</ele>
        <time>2012-11-04T10:55:17Z</time>
      </trkpt>
      <trkpt lat="45.27014" lon="5.55785">
        <ele>611</ele>
        <time>2012-11-04T10:55:18Z</time>
      </trkpt>
      <trkpt lat="45.27013" lon="5.55782">
        <ele>611</ele>
        <time>2012-11-04T10:55:19Z</time>
      </trkpt>
      <trkpt lat="45.27011" lon="5.5578">
        <ele>611</ele>
        <time>2012-11-04T10:55:20Z</time>
      </trkpt>
      <trkpt lat="45.2701" lon="5.55777">
        <ele>612</ele>
        <time>2012-11-04T10:55:21Z</time>
      </trkpt>
      <trkpt lat="45.27009" lon="5.55775">
        <ele>612</ele>
        <time>2012-11-04T10:55:22Z</time>
      </trkpt>
      <trkpt lat="45.27007" lon="5.55772">
        <ele>611</ele>
        <time>2012-11-04T10:55:23Z</time>
      </trkpt>
      <trkpt lat="45.27006" lon="5.55769">
        <ele>610</ele>
        <time>2012-11-04T10:55:24Z</time>
      </trkpt>
      <trkpt lat="45.27004" lon="5.55766">
        <ele>610</ele>
        <time>2012-11-04T10:55:25Z</time>
      </trkpt>
      <trkpt lat="45.27003" lon="5.55764">
        <ele>608</ele>
        <time>2012-11-04T10:55:26Z</time>
      </trkpt>
      <trkpt lat="45.27002" lon="5.55761">
        <ele>609</ele>
        <time>2012-11-04T10:55:27Z</time>
      </trkpt>
      <trkpt lat="45.27001" lon="5.55757">
        <ele>608</ele>
        <time>2012-11-04T10:55:28Z</time>
      </trkpt>
      <trkpt lat="45.27" lon="5.55754">
        <ele>607</ele>
        <time>2012-11-04T10:55:29Z</time>
      </trkpt>
      <trkpt lat="45.26999" lon="5.5575">
        <ele>606</ele>
        <time>2012-11-04T10:55:30Z</time>
      </trkpt>
      <trkpt lat="45.26998" lon="5.55746">
        <ele>605</ele>
        <time>2012-11-04T10:55:31Z</time>
      </trkpt>
      <trkpt lat="45.26997" lon="5.55742">
        <ele>605</ele>
        <time>2012-11-04T10:55:32Z</time>
      </trkpt>
      <trkpt lat="45.26996" lon="5.55737">
        <ele>605</ele>
        <time>2012-11-04T10:55:33Z</time>
      </trkpt>
      <trkpt lat="45.26994" lon="5.55733">
        <ele>604</ele>
        <time>2012-11-04T10:55:34Z</time>
      </trkpt>
      <trkpt lat="45.26994" lon="5.55729">
        <ele>605</ele>
        <time>2012-11-04T10:55:35Z</time>
      </trkpt>
      <trkpt lat="45.26993" lon="5.55725">
        <ele>606</ele>
        <time>2012-11-04T10:55:36Z</time>
      </trkpt>
      <trkpt lat="45.26992" lon="5.55721">
        <ele>606</ele>
        <time>2012-11-04T10:55:37Z</time>
      </trkpt>
      <trkpt lat="45.26992" lon="5.55717">
        <ele>607</ele>
        <time>2012-11-04T10:55:38Z</time>
      </trkpt>
      <trkpt lat="45.26992" lon="5.55713">
        <ele>607</ele>
        <time>2012-11-04T10:55:39Z</time>
      </trkpt>
      <trkpt lat="45.26992" lon="5.55709">
        <ele>607</ele>
        <time>2012-11-04T10:55:40Z</time>
      </trkpt>
      <trkpt lat="45.26992" lon="5.55704">
        <ele>607</ele>
        <time>2012-11-04T10:55:41Z</time>
      </trkpt>
      <trkpt lat="45.26992" lon="5.557">
        <ele>607</ele>
        <time>2012-11-04T10:55:42Z</time>
      </trkpt>
      <trkpt lat="45.26992" lon="5.55697">
        <ele>607</ele>
        <time>2012-11-04T10:55:43Z</time>
      </trkpt>
      <trkpt lat="45.26991" lon="5.55693">
        <ele>607</ele>
        <time>2012-11-04T10:55:44Z</time>
      </trkpt>
      <trkpt lat="45.2699" lon="5.5569">
        <ele>605</ele>
        <time>2012-11-04T10:55:45Z</time>
      </trkpt>
      <trkpt lat="45.26989" lon="5.55686">
        <ele>604</ele>
        <time>2012-11-04T10:55:46Z</time>
      </trkpt>
      <trkpt lat="45.26987" lon="5.55683">
        <ele>604</ele>
        <time>2012-11-04T10:55:47Z</time>
      </trkpt>
      <trkpt lat="45.26985" lon="5.5568">
        <ele>603</ele>
        <time>2012-11-04T10:55:48Z</time>
      </trkpt>
      <trkpt lat="45.26984" lon="5.55676">
        <ele>603</ele>
        <time>2012-11-04T10:55:49Z</time>
      </trkpt>
      <trkpt lat="45.26982" lon="5.55673">
        <ele>602</ele>
        <time>2012-11-04T10:55:50Z</time>
      </trkpt>
      <trkpt lat="45.2698" lon="5.55671">
        <ele>603</ele>
        <time>2012-11-04T10:55:51Z</time>
      </trkpt>
      <trkpt lat="45.26979" lon="5.55668">
        <ele>602</ele>
        <time>2012-11-04T10:55:52Z</time>
      </trkpt>
      <trkpt lat="45.26977" lon="5.55666">
        <ele>602</ele>
        <time>2012-11-04T10:55:53Z</time>
      </trkpt>
      <trkpt lat="45.26975" lon="5.55664">
        <ele>602</ele>
        <time>2012-11-04T10:55:54Z</time>
      </trkpt>
      <trkpt lat="45.26974" lon="5.55662">
        <ele>602</ele>
        <time>2012-11-04T10:55:55Z</time>
      </trkpt>
      <trkpt lat="45.26972" lon="5.5566">
        <ele>602</ele>
        <time>2012-11-04T10:55:56Z</time>
      </trkpt>
      <trkpt lat="45.26971" lon="5.55656">
        <ele>604</ele>
        <time>2012-11-04T10:55:57Z</time>
      </trkpt>
      <trkpt lat="45.26969" lon="5.55653">
        <ele>603</ele>
        <time>2012-11-04T10:55:58Z</time>
      </trkpt>
      <trkpt lat="45.26968" lon="5.55651">
        <ele>603</ele>
        <time>2012-11-04T10:55:59Z</time>
      </trkpt>
      <trkpt lat="45.26967" lon="5.5565">
        <ele>605</ele>
        <time>2012-11-04T10:56:00Z</time>
      </trkpt>
      <trkpt lat="45.26966" lon="5.55649">
        <ele>604</ele>
        <time>2012-11-04T10:56:01Z</time>
      </trkpt>
      <trkpt lat="45.26965" lon="5.55648">
        <ele>604</ele>
        <time>2012-11-04T10:56:02Z</time>
      </trkpt>
      <trkpt lat="45.26965" lon="5.55647">
        <ele>604</ele>
        <time>2012-11-04T10:56:03Z</time>
      </trkpt>
      <trkpt lat="45.26964" lon="5.55646">
        <ele>605</ele>
        <time>2012-11-04T10:56:04Z</time>
      </trkpt>
      <trkpt lat="45.26963" lon="5.55645">
        <ele>605</ele>
        <time>2012-11-04T10:56:05Z</time>
      </trkpt>
      <trkpt lat="45.26962" lon="5.55644">
        <ele>606</ele>
        <time>2012-11-04T10:56:06Z</time>
      </trkpt>
      <trkpt lat="45.26962" lon="5.55643">
        <ele>607</ele>
        <time>2012-11-04T10:56:07Z</time>
      </trkpt>
      <trkpt lat="45.26961" lon="5.55642">
        <ele>607</ele>
        <time>2012-11-04T10:56:08Z</time>
      </trkpt>
      <trkpt lat="45.2696" lon="5.55641">
        <ele>607</ele>
        <time>2012-11-04T10:56:09Z</time>
      </trkpt>
      <trkpt lat="45.26959" lon="5.5564">
        <ele>607</ele>
        <time>2012-11-04T10:56:10Z</time>
      </trkpt>
      <trkpt lat="45.26958" lon="5.55639">
        <ele>607</ele>
        <time>2012-11-04T10:56:11Z</time>
      </trkpt>
      <trkpt lat="45.26957" lon="5.55638">
        <ele>608</ele>
        <time>2012-11-04T10:56:12Z</time>
      </trkpt>
      <trkpt lat="45.26956" lon="5.55637">
        <ele>607</ele>
        <time>2012-11-04T10:56:13Z</time>
      </trkpt>
      <trkpt lat="45.26955" lon="5.55636">
        <ele>607</ele>
        <time>2012-11-04T10:56:14Z</time>
      </trkpt>
      <trkpt lat="45.26954" lon="5.55635">
        <ele>607</ele>
        <time>2012-11-04T10:56:15Z</time>
      </trkpt>
      <trkpt lat="45.26953" lon="5.55634">
        <ele>607</ele>
        <time>2012-11-04T10:56:16Z</time>
      </trkpt>
      <trkpt lat="45.26953" lon="5.55633">
        <ele>607</ele>
        <time>2012-11-04T10:56:17Z</time>
      </trkpt>
      <trkpt lat="45.26953" lon="5.55633">
        <ele>608</ele>
        <time>2012-11-04T10:56:18Z</time>
      </trkpt>
      <trkpt lat="45.26953" lon="5.55633">
        <ele>608</ele>
        <time>2012-11-04T10:56:19Z</time>
      </trkpt>
      <trkpt lat="45.26953" lon="5.55633">
        <ele>608</ele>
        <time>2012-11-04T10:56:20Z</time>
      </trkpt>
      <trkpt lat="45.26953" lon="5.55633">
        <ele>607</ele>
        <time>2012-11-04T10:56:21Z</time>
      </trkpt>
      <trkpt lat="45.26953" lon="5.55633">
        <ele>608</ele>
        <time>2012-11-04T10:56:22Z</time>
      </trkpt>
      <trkpt lat="45.26953" lon="5.55633">
        <ele>608</ele>
        <time>2012-11-04T10:56:23Z</time>
      </trkpt>
      <trkpt lat="45.26953" lon="5.55633">
        <ele>608</ele>
        <time>2012-11-04T10:56:24Z</time>
      </trkpt>
      <trkpt lat="45.26953" lon="5.55633">
        <ele>607</ele>
        <time>2012-11-04T10:56:25Z</time>
      </trkpt>
      <trkpt lat="45.26953" lon="5.55633">
        <ele>607</ele>
        <time>2012-11-04T10:56:26Z</time>
      </trkpt>
      <trkpt lat="45.26953" lon="5.55633">
        <ele>607</ele>
        <time>2012-11-04T10:56:27Z</time>
      </trkpt>
      <trkpt lat="45.26953" lon="5.55633">
        <ele>607</ele>
        <time>2012-11-04T10:56:28Z</time>
      </trkpt>
      <trkpt lat="45.26953" lon="5.55633">
        <ele>607</ele>
        <time>2012-11-04T10:56:29Z</time>
      </trkpt>
      <trkpt lat="45.26953" lon="5.55633">
        <ele>607</ele>
        <time>2012-11-04T10:56:30Z</time>
      </trkpt>
      <trkpt lat="45.26953" lon="5.55633">
        <ele>607</ele>
        <time>2012-11-04T10:56:31Z</time>
      </trkpt>
      <trkpt lat="45.26953" lon="5.55633">
        <ele>607</ele>
        <time>2012-11-04T10:56:32Z</time>
      </trkpt>
      <trkpt lat="45.26953" lon="5.55633">
        <ele>607</ele>
        <time>2012-11-04T10:56:33Z</time>
      </trkpt>
      <trkpt lat="45.26955" lon="5.55628">
        <ele>607</ele>
        <time>2012-11-04T10:56:34Z</time>
      </trkpt>
      <trkpt lat="45.26956" lon="5.55626">
        <ele>608</ele>
        <time>2012-11-04T10:56:35Z</time>
      </trkpt>
      <trkpt lat="45.26957" lon="5.55624">
        <ele>608</ele>
        <time>2012-11-04T10:56:36Z</time>
      </trkpt>
      <trkpt lat="45.26957" lon="5.55624">
        <ele>607</ele>
        <time>2012-11-04T10:56:37Z</time>
      </trkpt>
      <trkpt lat="45.26958" lon="5.55621">
        <ele>607</ele>
        <time>2012-11-04T10:56:38Z</time>
      </trkpt>
      <trkpt lat="45.26961" lon="5.55621">
        <ele>605</ele>
        <time>2012-11-04T10:56:41Z</time>
      </trkpt>
      <trkpt lat="45.26962" lon="5.55622">
        <ele>604</ele>
        <time>2012-11-04T10:56:42Z</time>
      </trkpt>
      <trkpt lat="45.26963" lon="5.55622">
        <ele>604</ele>
        <time>2012-11-04T10:56:43Z</time>
      </trkpt>
      <trkpt lat="45.26964" lon="5.55623">
        <ele>603</ele>
        <time>2012-11-04T10:56:44Z</time>
      </trkpt>
      <trkpt lat="45.26966" lon="5.55623">
        <ele>602</ele>
        <time>2012-11-04T10:56:45Z</time>
      </trkpt>
      <trkpt lat="45.26967" lon="5.55623">
        <ele>602</ele>
        <time>2012-11-04T10:56:46Z</time>
      </trkpt>
      <trkpt lat="45.26967" lon="5.55622">
        <ele>601</ele>
        <time>2012-11-04T10:56:47Z</time>
      </trkpt>
      <trkpt lat="45.26967" lon="5.5562">
        <ele>601</ele>
        <time>2012-11-04T10:56:48Z</time>
      </trkpt>
      <trkpt lat="45.26966" lon="5.55618">
        <ele>600</ele>
        <time>2012-11-04T10:56:49Z</time>
      </trkpt>
      <trkpt lat="45.26967" lon="5.55618">
        <ele>599</ele>
        <time>2012-11-04T10:56:50Z</time>
      </trkpt>
      <trkpt lat="45.26966" lon="5.55616">
        <ele>598</ele>
        <time>2012-11-04T10:56:51Z</time>
      </trkpt>
      <trkpt lat="45.26966" lon="5.55616">
        <ele>598</ele>
        <time>2012-11-04T10:56:52Z</time>
      </trkpt>
      <trkpt lat="45.26965" lon="5.55615">
        <ele>598</ele>
        <time>2012-11-04T10:56:54Z</time>
      </trkpt>
      <trkpt lat="45.26964" lon="5.55614">
        <ele>598</ele>
        <time>2012-11-04T10:56:55Z</time>
      </trkpt>
      <trkpt lat="45.26961" lon="5.55611">
        <ele>599</ele>
        <time>2012-11-04T10:56:56Z</time>
      </trkpt>
      <trkpt lat="45.26959" lon="5.55609">
        <ele>599</ele>
        <time>2012-11-04T10:56:57Z</time>
      </trkpt>
      <trkpt lat="45.26956" lon="5.55607">
        <ele>598</ele>
        <time>2012-11-04T10:56:58Z</time>
      </trkpt>
      <trkpt lat="45.26955" lon="5.55606">
        <ele>598</ele>
        <time>2012-11-04T10:56:59Z</time>
      </trkpt>
      <trkpt lat="45.26952" lon="5.55604">
        <ele>599</ele>
        <time>2012-11-04T10:57:00Z</time>
      </trkpt>
      <trkpt lat="45.26949" lon="5.55602">
        <ele>598</ele>
        <time>2012-11-04T10:57:01Z</time>
      </trkpt>
      <trkpt lat="45.26946" lon="5.556">
        <ele>598</ele>
        <time>2012-11-04T10:57:02Z</time>
      </trkpt>
      <trkpt lat="45.26943" lon="5.55597">
        <ele>599</ele>
        <time>2012-11-04T10:57:03Z</time>
      </trkpt>
      <trkpt lat="45.2694" lon="5.55595">
        <ele>599</ele>
        <time>2012-11-04T10:57:04Z</time>
      </trkpt>
      <trkpt lat="45.26937" lon="5.55592">
        <ele>601</ele>
        <time>2012-11-04T10:57:05Z</time>
      </trkpt>
      <trkpt lat="45.26934" lon="5.5559">
        <ele>602</ele>
        <time>2012-11-04T10:57:06Z</time>
      </trkpt>
      <trkpt lat="45.26931" lon="5.55588">
        <ele>601</ele>
        <time>2012-11-04T10:57:07Z</time>
      </trkpt>
      <trkpt lat="45.26929" lon="5.55586">
        <ele>600</ele>
        <time>2012-11-04T10:57:08Z</time>
      </trkpt>
      <trkpt lat="45.26929" lon="5.55586">
        <ele>599</ele>
        <time>2012-11-04T10:57:09Z</time>
      </trkpt>
      <trkpt lat="45.26929" lon="5.55586">
        <ele>599</ele>
        <time>2012-11-04T10:57:10Z</time>
      </trkpt>
      <trkpt lat="45.26929" lon="5.55586">
        <ele>599</ele>
        <time>2012-11-04T10:57:11Z</time>
      </trkpt>
      <trkpt lat="45.26926" lon="5.55584">
        <ele>599</ele>
        <time>2012-11-04T10:57:12Z</time>
      </trkpt>
      <trkpt lat="45.26924" lon="5.55583">
        <ele>598</ele>
        <time>2012-11-04T10:57:13Z</time>
      </trkpt>
      <trkpt lat="45.26924" lon="5.55583">
        <ele>598</ele>
        <time>2012-11-04T10:57:14Z</time>
      </trkpt>
      <trkpt lat="45.26923" lon="5.55583">
        <ele>597</ele>
        <time>2012-11-04T10:57:15Z</time>
      </trkpt>
      <trkpt lat="45.26923" lon="5.55583">
        <ele>598</ele>
        <time>2012-11-04T10:57:16Z</time>
      </trkpt>
      <trkpt lat="45.26923" lon="5.55583">
        <ele>598</ele>
        <time>2012-11-04T10:57:17Z</time>
      </trkpt>
      <trkpt lat="45.26923" lon="5.55583">
        <ele>597</ele>
        <time>2012-11-04T10:57:18Z</time>
      </trkpt>
      <trkpt lat="45.26923" lon="5.55583">
        <ele>597</ele>
        <time>2012-11-04T10:57:19Z</time>
      </trkpt>
      <trkpt lat="45.26923" lon="5.55583">
        <ele>598</ele>
        <time>2012-11-04T10:57:20Z</time>
      </trkpt>
      <trkpt lat="45.26923" lon="5.55583">
        <ele>598</ele>
        <time>2012-11-04T10:57:21Z</time>
      </trkpt>
      <trkpt lat="45.26923" lon="5.55583">
        <ele>598</ele>
        <time>2012-11-04T10:57:22Z</time>
      </trkpt>
      <trkpt lat="45.26923" lon="5.55583">
        <ele>599</ele>
        <time>2012-11-04T10:57:23Z</time>
      </trkpt>
      <trkpt lat="45.26923" lon="5.55583">
        <ele>599</ele>
        <time>2012-11-04T10:57:24Z</time>
      </trkpt>
      <trkpt lat="45.26923" lon="5.55583">
        <ele>599</ele>
        <time>2012-11-04T10:57:25Z</time>
      </trkpt>
      <trkpt lat="45.26923" lon="5.55583">
        <ele>600</ele>
        <time>2012-11-04T10:57:26Z</time>
      </trkpt>
      <trkpt lat="45.26923" lon="5.55583">
        <ele>599</ele>
        <time>2012-11-04T10:57:27Z</time>
      </trkpt>
      <trkpt lat="45.26922" lon="5.55582">
        <ele>598</ele>
        <time>2012-11-04T10:57:28Z</time>
      </trkpt>
      <trkpt lat="45.26921" lon="5.55582">
        <ele>598</ele>
        <time>2012-11-04T10:57:29Z</time>
      </trkpt>
      <trkpt lat="45.26919" lon="5.55581">
        <ele>601</ele>
        <time>2012-11-04T10:57:30Z</time>
      </trkpt>
      <trkpt lat="45.26917" lon="5.55581">
        <ele>600</ele>
        <time>2012-11-04T10:57:31Z</time>
      </trkpt>
      <trkpt lat="45.26915" lon="5.5558">
        <ele>601</ele>
        <time>2012-11-04T10:57:32Z</time>
      </trkpt>
      <trkpt lat="45.26913" lon="5.5558">
        <ele>601</ele>
        <time>2012-11-04T10:57:33Z</time>
      </trkpt>
      <trkpt lat="45.26911" lon="5.55579">
        <ele>602</ele>
        <time>2012-11-04T10:57:34Z</time>
      </trkpt>
      <trkpt lat="45.26909" lon="5.55577">
        <ele>602</ele>
        <time>2012-11-04T10:57:35Z</time>
      </trkpt>
      <trkpt lat="45.26907" lon="5.55576">
        <ele>602</ele>
        <time>2012-11-04T10:57:36Z</time>
      </trkpt>
      <trkpt lat="45.26905" lon="5.55575">
        <ele>602</ele>
        <time>2012-11-04T10:57:37Z</time>
      </trkpt>
      <trkpt lat="45.26904" lon="5.55573">
        <ele>602</ele>
        <time>2012-11-04T10:57:38Z</time>
      </trkpt>
      <trkpt lat="45.26902" lon="5.55572">
        <ele>602</ele>
        <time>2012-11-04T10:57:39Z</time>
      </trkpt>
      <trkpt lat="45.269" lon="5.55569">
        <ele>603</ele>
        <time>2012-11-04T10:57:40Z</time>
      </trkpt>
      <trkpt lat="45.26898" lon="5.55566">
        <ele>602</ele>
        <time>2012-11-04T10:57:41Z</time>
      </trkpt>
      <trkpt lat="45.26897" lon="5.55564">
        <ele>602</ele>
        <time>2012-11-04T10:57:42Z</time>
      </trkpt>
      <trkpt lat="45.26896" lon="5.55563">
        <ele>602</ele>
        <time>2012-11-04T10:57:43Z</time>
      </trkpt>
      <trkpt lat="45.26895" lon="5.55561">
        <ele>602</ele>
        <time>2012-11-04T10:57:44Z</time>
      </trkpt>
      <trkpt lat="45.26895" lon="5.5556">
        <ele>602</ele>
        <time>2012-11-04T10:57:45Z</time>
      </trkpt>
      <trkpt lat="45.26896" lon="5.55561">
        <ele>601</ele>
        <time>2012-11-04T10:57:46Z</time>
      </trkpt>
      <trkpt lat="45.26895" lon="5.5556">
        <ele>601</ele>
        <time>2012-11-04T10:57:47Z</time>
      </trkpt>
      <trkpt lat="45.26896" lon="5.5556">
        <ele>601</ele>
        <time>2012-11-04T10:57:48Z</time>
      </trkpt>
      <trkpt lat="45.26896" lon="5.55559">
        <ele>600</ele>
        <time>2012-11-04T10:57:49Z</time>
      </trkpt>
      <trkpt lat="45.26896" lon="5.55557">
        <ele>599</ele>
        <time>2012-11-04T10:57:50Z</time>
      </trkpt>
      <trkpt lat="45.26897" lon="5.55555">
        <ele>599</ele>
        <time>2012-11-04T10:57:51Z</time>
      </trkpt>
      <trkpt lat="45.26898" lon="5.55552">
        <ele>599</ele>
        <time>2012-11-04T10:57:52Z</time>
      </trkpt>
      <trkpt lat="45.26898" lon="5.55549">
        <ele>598</ele>
        <time>2012-11-04T10:57:53Z</time>
      </trkpt>
      <trkpt lat="45.26899" lon="5.55545">
        <ele>598</ele>
        <time>2012-11-04T10:57:54Z</time>
      </trkpt>
      <trkpt lat="45.269" lon="5.55541">
        <ele>597</ele>
        <time>2012-11-04T10:57:55Z</time>
      </trkpt>
      <trkpt lat="45.26901" lon="5.55537">
        <ele>600</ele>
        <time>2012-11-04T10:57:56Z</time>
      </trkpt>
      <trkpt lat="45.26902" lon="5.55532">
        <ele>600</ele>
        <time>2012-11-04T10:57:57Z</time>
      </trkpt>
      <trkpt lat="45.26902" lon="5.55528">
        <ele>601</ele>
        <time>2012-11-04T10:57:58Z</time>
      </trkpt>
      <trkpt lat="45.26903" lon="5.55523">
        <ele>600</ele>
        <time>2012-11-04T10:57:59Z</time>
      </trkpt>
      <trkpt lat="45.26903" lon="5.55516">
        <ele>600</ele>
        <time>2012-11-04T10:58:00Z</time>
      </trkpt>
      <trkpt lat="45.26903" lon="5.55511">
        <ele>600</ele>
        <time>2012-11-04T10:58:01Z</time>
      </trkpt>
      <trkpt lat="45.26903" lon="5.55506">
        <ele>600</ele>
        <time>2012-11-04T10:58:02Z</time>
      </trkpt>
      <trkpt lat="45.26902" lon="5.55502">
        <ele>600</ele>
        <time>2012-11-04T10:58:03Z</time>
      </trkpt>
      <trkpt lat="45.26902" lon="5.55498">
        <ele>600</ele>
        <time>2012-11-04T10:58:04Z</time>
      </trkpt>
      <trkpt lat="45.26901" lon="5.55493">
        <ele>599</ele>
        <time>2012-11-04T10:58:05Z</time>
      </trkpt>
      <trkpt lat="45.269" lon="5.55488">
        <ele>598</ele>
        <time>2012-11-04T10:58:06Z</time>
      </trkpt>
      <trkpt lat="45.26899" lon="5.55484">
        <ele>598</ele>
        <time>2012-11-04T10:58:07Z</time>
      </trkpt>
      <trkpt lat="45.26898" lon="5.5548">
        <ele>599</ele>
        <time>2012-11-04T10:58:08Z</time>
      </trkpt>
      <trkpt lat="45.26897" lon="5.55475">
        <ele>598</ele>
        <time>2012-11-04T10:58:09Z</time>
      </trkpt>
      <trkpt lat="45.26897" lon="5.5547">
        <ele>598</ele>
        <time>2012-11-04T10:58:10Z</time>
      </trkpt>
      <trkpt lat="45.26895" lon="5.55466">
        <ele>599</ele>
        <time>2012-11-04T10:58:11Z</time>
      </trkpt>
      <trkpt lat="45.26894" lon="5.55461">
        <ele>599</ele>
        <time>2012-11-04T10:58:12Z</time>
      </trkpt>
      <trkpt lat="45.26892" lon="5.55457">
        <ele>603</ele>
        <time>2012-11-04T10:58:13Z</time>
      </trkpt>
      <trkpt lat="45.26891" lon="5.55453">
        <ele>605</ele>
        <time>2012-11-04T10:58:14Z</time>
      </trkpt>
      <trkpt lat="45.2689" lon="5.55449">
        <ele>606</ele>
        <time>2012-11-04T10:58:15Z</time>
      </trkpt>
      <trkpt lat="45.26889" lon="5.55445">
        <ele>608</ele>
        <time>2012-11-04T10:58:16Z</time>
      </trkpt>
      <trkpt lat="45.26888" lon="5.55442">
        <ele>606</ele>
        <time>2012-11-04T10:58:17Z</time>
      </trkpt>
      <trkpt lat="45.26886" lon="5.55438">
        <ele>603</ele>
        <time>2012-11-04T10:58:18Z</time>
      </trkpt>
      <trkpt lat="45.26886" lon="5.55434">
        <ele>603</ele>
        <time>2012-11-04T10:58:19Z</time>
      </trkpt>
      <trkpt lat="45.26884" lon="5.5543">
        <ele>605</ele>
        <time>2012-11-04T10:58:20Z</time>
      </trkpt>
      <trkpt lat="45.26884" lon="5.55427">
        <ele>605</ele>
        <time>2012-11-04T10:58:21Z</time>
      </trkpt>
      <trkpt lat="45.26883" lon="5.55423">
        <ele>606</ele>
        <time>2012-11-04T10:58:22Z</time>
      </trkpt>
      <trkpt lat="45.26883" lon="5.55419">
        <ele>606</ele>
        <time>2012-11-04T10:58:23Z</time>
      </trkpt>
      <trkpt lat="45.26883" lon="5.55416">
        <ele>606</ele>
        <time>2012-11-04T10:58:24Z</time>
      </trkpt>
      <trkpt lat="45.26883" lon="5.55413">
        <ele>606</ele>
        <time>2012-11-04T10:58:25Z</time>
      </trkpt>
      <trkpt lat="45.26882" lon="5.5541">
        <ele>605</ele>
        <time>2012-11-04T10:58:26Z</time>
      </trkpt>
      <trkpt lat="45.26881" lon="5.55408">
        <ele>605</ele>
        <time>2012-11-04T10:58:27Z</time>
      </trkpt>
      <trkpt lat="45.26879" lon="5.55406">
        <ele>605</ele>
        <time>2012-11-04T10:58:28Z</time>
      </trkpt>
      <trkpt lat="45.26878" lon="5.55405">
        <ele>606</ele>
        <time>2012-11-04T10:58:29Z</time>
      </trkpt>
      <trkpt lat="45.26876" lon="5.55403">
        <ele>606</ele>
        <time>2012-11-04T10:58:30Z</time>
      </trkpt>
      <trkpt lat="45.26875" lon="5.55402">
        <ele>604</ele>
        <time>2012-11-04T10:58:31Z</time>
      </trkpt>
      <trkpt lat="45.26873" lon="5.55401">
        <ele>604</ele>
        <time>2012-11-04T10:58:32Z</time>
      </trkpt>
      <trkpt lat="45.26872" lon="5.554">
        <ele>603</ele>
        <time>2012-11-04T10:58:33Z</time>
      </trkpt>
      <trkpt lat="45.26871" lon="5.55399">
        <ele>603</ele>
        <time>2012-11-04T10:58:34Z</time>
      </trkpt>
      <trkpt lat="45.2687" lon="5.55397">
        <ele>601</ele>
        <time>2012-11-04T10:58:35Z</time>
      </trkpt>
      <trkpt lat="45.26868" lon="5.55396">
        <ele>601</ele>
        <time>2012-11-04T10:58:36Z</time>
      </trkpt>
      <trkpt lat="45.26867" lon="5.55394">
        <ele>601</ele>
        <time>2012-11-04T10:58:37Z</time>
      </trkpt>
      <trkpt lat="45.26866" lon="5.55393">
        <ele>600</ele>
        <time>2012-11-04T10:58:38Z</time>
      </trkpt>
      <trkpt lat="45.26864" lon="5.55391">
        <ele>601</ele>
        <time>2012-11-04T10:58:39Z</time>
      </trkpt>
      <trkpt lat="45.26863" lon="5.5539">
        <ele>599</ele>
        <time>2012-11-04T10:58:40Z</time>
      </trkpt>
      <trkpt lat="45.26862" lon="5.55388">
        <ele>600</ele>
        <time>2012-11-04T10:58:41Z</time>
      </trkpt>
      <trkpt lat="45.26862" lon="5.55387">
        <ele>601</ele>
        <time>2012-11-04T10:58:42Z</time>
      </trkpt>
      <trkpt lat="45.26862" lon="5.55386">
        <ele>599</ele>
        <time>2012-11-04T10:58:43Z</time>
      </trkpt>
      <trkpt lat="45.26861" lon="5.55385">
        <ele>598</ele>
        <time>2012-11-04T10:58:44Z</time>
      </trkpt>
      <trkpt lat="45.2686" lon="5.55385">
        <ele>597</ele>
        <time>2012-11-04T10:58:45Z</time>
      </trkpt>
      <trkpt lat="45.26858" lon="5.55384">
        <ele>601</ele>
        <time>2012-11-04T10:58:46Z</time>
      </trkpt>
      <trkpt lat="45.26857" lon="5.55383">
        <ele>602</ele>
        <time>2012-11-04T10:58:47Z</time>
      </trkpt>
      <trkpt lat="45.26855" lon="5.55382">
        <ele>602</ele>
        <time>2012-11-04T10:58:48Z</time>
      </trkpt>
      <trkpt lat="45.26854" lon="5.5538">
        <ele>603</ele>
        <time>2012-11-04T10:58:49Z</time>
      </trkpt>
      <trkpt lat="45.26853" lon="5.55379">
        <ele>604</ele>
        <time>2012-11-04T10:58:50Z</time>
      </trkpt>
      <trkpt lat="45.26852" lon="5.55377">
        <ele>605</ele>
        <time>2012-11-04T10:58:51Z</time>
      </trkpt>
      <trkpt lat="45.26851" lon="5.55375">
        <ele>605</ele>
        <time>2012-11-04T10:58:52Z</time>
      </trkpt>
      <trkpt lat="45.26851" lon="5.55374">
        <ele>605</ele>
        <time>2012-11-04T10:58:53Z</time>
      </trkpt>
      <trkpt lat="45.2685" lon="5.55373">
        <ele>606</ele>
        <time>2012-11-04T10:58:54Z</time>
      </trkpt>
      <trkpt lat="45.2685" lon="5.55372">
        <ele>606</ele>
        <time>2012-11-04T10:58:55Z</time>
      </trkpt>
      <trkpt lat="45.26848" lon="5.55371">
        <ele>607</ele>
        <time>2012-11-04T10:58:56Z</time>
      </trkpt>
      <trkpt lat="45.26847" lon="5.5537">
        <ele>607</ele>
        <time>2012-11-04T10:58:57Z</time>
      </trkpt>
      <trkpt lat="45.26846" lon="5.55369">
        <ele>607</ele>
        <time>2012-11-04T10:58:58Z</time>
      </trkpt>
      <trkpt lat="45.26844" lon="5.55367">
        <ele>608</ele>
        <time>2012-11-04T10:58:59Z</time>
      </trkpt>
      <trkpt lat="45.26843" lon="5.55366">
        <ele>609</ele>
        <time>2012-11-04T10:59:00Z</time>
      </trkpt>
      <trkpt lat="45.26842" lon="5.55366">
        <ele>608</ele>
        <time>2012-11-04T10:59:01Z</time>
      </trkpt>
      <trkpt lat="45.2684" lon="5.55366">
        <ele>608</ele>
        <time>2012-11-04T10:59:02Z</time>
      </trkpt>
      <trkpt lat="45.26839" lon="5.55367">
        <ele>608</ele>
        <time>2012-11-04T10:59:03Z</time>
      </trkpt>
      <trkpt lat="45.26837" lon="5.55367">
        <ele>608</ele>
        <time>2012-11-04T10:59:04Z</time>
      </trkpt>
      <trkpt lat="45.26837" lon="5.55368">
        <ele>607</ele>
        <time>2012-11-04T10:59:05Z</time>
      </trkpt>
      <trkpt lat="45.26836" lon="5.55368">
        <ele>607</ele>
        <time>2012-11-04T10:59:06Z</time>
      </trkpt>
      <trkpt lat="45.26835" lon="5.55368">
        <ele>607</ele>
        <time>2012-11-04T10:59:07Z</time>
      </trkpt>
      <trkpt lat="45.26835" lon="5.55368">
        <ele>609</ele>
        <time>2012-11-04T10:59:08Z</time>
      </trkpt>
      <trkpt lat="45.26835" lon="5.55368">
        <ele>610</ele>
        <time>2012-11-04T10:59:09Z</time>
      </trkpt>
      <trkpt lat="45.26835" lon="5.55368">
        <ele>610</ele>
        <time>2012-11-04T10:59:10Z</time>
      </trkpt>
      <trkpt lat="45.26835" lon="5.55368">
        <ele>610</ele>
        <time>2012-11-04T10:59:11Z</time>
      </trkpt>
      <trkpt lat="45.26835" lon="5.55368">
        <ele>610</ele>
        <time>2012-11-04T10:59:12Z</time>
      </trkpt>
      <trkpt lat="45.26835" lon="5.55368">
        <ele>610</ele>
        <time>2012-11-04T10:59:13Z</time>
      </trkpt>
      <trkpt lat="45.26835" lon="5.55368">
        <ele>610</ele>
        <time>2012-11-04T10:59:14Z</time>
      </trkpt>
      <trkpt lat="45.26835" lon="5.55368">
        <ele>610</ele>
        <time>2012-11-04T10:59:15Z</time>
      </trkpt>
      <trkpt lat="45.26832" lon="5.55359">
        <ele>610</ele>
        <time>2012-11-04T10:59:16Z</time>
      </trkpt>
      <trkpt lat="45.2683" lon="5.55358">
        <ele>611</ele>
        <time>2012-11-04T10:59:17Z</time>
      </trkpt>
      <trkpt lat="45.26829" lon="5.55358">
        <ele>611</ele>
        <time>2012-11-04T10:59:18Z</time>
      </trkpt>
      <trkpt lat="45.26828" lon="5.55356">
        <ele>611</ele>
        <time>2012-11-04T10:59:19Z</time>
      </trkpt>
      <trkpt lat="45.26827" lon="5.55356">
        <ele>610</ele>
        <time>2012-11-04T10:59:20Z</time>
      </trkpt>
      <trkpt lat="45.26827" lon="5.55356">
        <ele>610</ele>
        <time>2012-11-04T10:59:21Z</time>
      </trkpt>
      <trkpt lat="45.26826" lon="5.55356">
        <ele>611</ele>
        <time>2012-11-04T10:59:22Z</time>
      </trkpt>
      <trkpt lat="45.26825" lon="5.55356">
        <ele>611</ele>
        <time>2012-11-04T10:59:23Z</time>
      </trkpt>
      <trkpt lat="45.26824" lon="5.55356">
        <ele>611</ele>
        <time>2012-11-04T10:59:24Z</time>
      </trkpt>
      <trkpt lat="45.26824" lon="5.55355">
        <ele>612</ele>
        <time>2012-11-04T10:59:25Z</time>
      </trkpt>
      <trkpt lat="45.26823" lon="5.55355">
        <ele>611</ele>
        <time>2012-11-04T10:59:26Z</time>
      </trkpt>
      <trkpt lat="45.26821" lon="5.55354">
        <ele>611</ele>
        <time>2012-11-04T10:59:27Z</time>
      </trkpt>
      <trkpt lat="45.2682" lon="5.55354">
        <ele>610</ele>
        <time>2012-11-04T10:59:28Z</time>
      </trkpt>
      <trkpt lat="45.26819" lon="5.55353">
        <ele>610</ele>
        <time>2012-11-04T10:59:29Z</time>
      </trkpt>
      <trkpt lat="45.26817" lon="5.55352">
        <ele>611</ele>
        <time>2012-11-04T10:59:30Z</time>
      </trkpt>
      <trkpt lat="45.26816" lon="5.55352">
        <ele>611</ele>
        <time>2012-11-04T10:59:31Z</time>
      </trkpt>
      <trkpt lat="45.26815" lon="5.55351">
        <ele>609</ele>
        <time>2012-11-04T10:59:32Z</time>
      </trkpt>
      <trkpt lat="45.26813" lon="5.55351">
        <ele>608</ele>
        <time>2012-11-04T10:59:33Z</time>
      </trkpt>
      <trkpt lat="45.26812" lon="5.5535">
        <ele>609</ele>
        <time>2012-11-04T10:59:34Z</time>
      </trkpt>
      <trkpt lat="45.2681" lon="5.55349">
        <ele>609</ele>
        <time>2012-11-04T10:59:35Z</time>
      </trkpt>
      <trkpt lat="45.26808" lon="5.55347">
        <ele>609</ele>
        <time>2012-11-04T10:59:36Z</time>
      </trkpt>
      <trkpt lat="45.26807" lon="5.55346">
        <ele>609</ele>
        <time>2012-11-04T10:59:37Z</time>
      </trkpt>
      <trkpt lat="45.26805" lon="5.55345">
        <ele>609</ele>
        <time>2012-11-04T10:59:38Z</time>
      </trkpt>
      <trkpt lat="45.26804" lon="5.55344">
        <ele>608</ele>
        <time>2012-11-04T10:59:39Z</time>
      </trkpt>
      <trkpt lat="45.26804" lon="5.55344">
        <ele>608</ele>
        <time>2012-11-04T10:59:40Z</time>
      </trkpt>
      <trkpt lat="45.26804" lon="5.55344">
        <ele>608</ele>
        <time>2012-11-04T10:59:41Z</time>
      </trkpt>
      <trkpt lat="45.26804" lon="5.55344">
        <ele>608</ele>
        <time>2012-11-04T10:59:42Z</time>
      </trkpt>
      <trkpt lat="45.26804" lon="5.55344">
        <ele>608</ele>
        <time>2012-11-04T10:59:43Z</time>
      </trkpt>
      <trkpt lat="45.26804" lon="5.55344">
        <ele>608</ele>
        <time>2012-11-04T10:59:44Z</time>
      </trkpt>
      <trkpt lat="45.26804" lon="5.55344">
        <ele>609</ele>
        <time>2012-11-04T10:59:45Z</time>
      </trkpt>
      <trkpt lat="45.26804" lon="5.55344">
        <ele>609</ele>
        <time>2012-11-04T10:59:46Z</time>
      </trkpt>
      <trkpt lat="45.26804" lon="5.55344">
        <ele>610</ele>
        <time>2012-11-04T10:59:47Z</time>
      </trkpt>
      <trkpt lat="45.26804" lon="5.55344">
        <ele>610</ele>
        <time>2012-11-04T10:59:48Z</time>
      </trkpt>
      <trkpt lat="45.26804" lon="5.55344">
        <ele>610</ele>
        <time>2012-11-04T10:59:49Z</time>
      </trkpt>
      <trkpt lat="45.26804" lon="5.55344">
        <ele>610</ele>
        <time>2012-11-04T10:59:50Z</time>
      </trkpt>
      <trkpt lat="45.26802" lon="5.55339">
        <ele>610</ele>
        <time>2012-11-04T10:59:51Z</time>
      </trkpt>
      <trkpt lat="45.268" lon="5.55338">
        <ele>610</ele>
        <time>2012-11-04T10:59:52Z</time>
      </trkpt>
      <trkpt lat="45.26799" lon="5.55336">
        <ele>610</ele>
        <time>2012-11-04T10:59:53Z</time>
      </trkpt>
      <trkpt lat="45.26798" lon="5.55335">
        <ele>610</ele>
        <time>2012-11-04T10:59:54Z</time>
      </trkpt>
      <trkpt lat="45.26796" lon="5.55333">
        <ele>610</ele>
        <time>2012-11-04T10:59:55Z</time>
      </trkpt>
      <trkpt lat="45.26795" lon="5.55331">
        <ele>609</ele>
        <time>2012-11-04T10:59:56Z</time>
      </trkpt>
      <trkpt lat="45.26793" lon="5.55329">
        <ele>611</ele>
        <time>2012-11-04T10:59:57Z</time>
      </trkpt>
      <trkpt lat="45.26791" lon="5.55328">
        <ele>612</ele>
        <time>2012-11-04T10:59:58Z</time>
      </trkpt>
      <trkpt lat="45.2679" lon="5.55327">
        <ele>613</ele>
        <time>2012-11-04T10:59:59Z</time>
      </trkpt>
      <trkpt lat="45.26789" lon="5.55325">
        <ele>614</ele>
        <time>2012-11-04T11:00:00Z</time>
      </trkpt>
      <trkpt lat="45.26788" lon="5.55324">
        <ele>614</ele>
        <time>2012-11-04T11:00:01Z</time>
      </trkpt>
      <trkpt lat="45.26787" lon="5.55323">
        <ele>615</ele>
        <time>2012-11-04T11:00:02Z</time>
      </trkpt>
      <trkpt lat="45.26786" lon="5.55322">
        <ele>615</ele>
        <time>2012-11-04T11:00:03Z</time>
      </trkpt>
      <trkpt lat="45.26785" lon="5.5532">
        <ele>615</ele>
        <time>2012-11-04T11:00:04Z</time>
      </trkpt>
      <trkpt lat="45.26784" lon="5.5532">
        <ele>615</ele>
        <time>2012-11-04T11:00:05Z</time>
      </trkpt>
      <trkpt lat="45.26782" lon="5.55319">
        <ele>614</ele>
        <time>2012-11-04T11:00:06Z</time>
      </trkpt>
      <trkpt lat="45.26781" lon="5.55319">
        <ele>613</ele>
        <time>2012-11-04T11:00:07Z</time>
      </trkpt>
      <trkpt lat="45.26779" lon="5.55318">
        <ele>613</ele>
        <time>2012-11-04T11:00:08Z</time>
      </trkpt>
      <trkpt lat="45.26778" lon="5.55317">
        <ele>613</ele>
        <time>2012-11-04T11:00:09Z</time>
      </trkpt>
      <trkpt lat="45.26777" lon="5.55318">
        <ele>612</ele>
        <time>2012-11-04T11:00:10Z</time>
      </trkpt>
      <trkpt lat="45.26777" lon="5.55318">
        <ele>612</ele>
        <time>2012-11-04T11:00:11Z</time>
      </trkpt>
      <trkpt lat="45.26777" lon="5.55318">
        <ele>613</ele>
        <time>2012-11-04T11:00:12Z</time>
      </trkpt>
      <trkpt lat="45.26777" lon="5.55318">
        <ele>613</ele>
        <time>2012-11-04T11:00:13Z</time>
      </trkpt>
      <trkpt lat="45.26777" lon="5.55318">
        <ele>612</ele>
        <time>2012-11-04T11:00:14Z</time>
      </trkpt>
      <trkpt lat="45.26777" lon="5.55318">
        <ele>612</ele>
        <time>2012-11-04T11:00:15Z</time>
      </trkpt>
      <trkpt lat="45.26777" lon="5.55318">
        <ele>612</ele>
        <time>2012-11-04T11:00:16Z</time>
      </trkpt>
      <trkpt lat="45.26777" lon="5.55318">
        <ele>612</ele>
        <time>2012-11-04T11:00:17Z</time>
      </trkpt>
      <trkpt lat="45.26777" lon="5.55318">
        <ele>612</ele>
        <time>2012-11-04T11:00:18Z</time>
      </trkpt>
      <trkpt lat="45.26777" lon="5.55318">
        <ele>611</ele>
        <time>2012-11-04T11:00:19Z</time>
      </trkpt>
      <trkpt lat="45.26772" lon="5.55319">
        <ele>611</ele>
        <time>2012-11-04T11:00:20Z</time>
      </trkpt>
      <trkpt lat="45.26772" lon="5.55319">
        <ele>611</ele>
        <time>2012-11-04T11:00:21Z</time>
      </trkpt>
      <trkpt lat="45.26772" lon="5.55319">
        <ele>611</ele>
        <time>2012-11-04T11:00:22Z</time>
      </trkpt>
      <trkpt lat="45.26772" lon="5.55321">
        <ele>611</ele>
        <time>2012-11-04T11:00:23Z</time>
      </trkpt>
      <trkpt lat="45.26773" lon="5.55323">
        <ele>611</ele>
        <time>2012-11-04T11:00:24Z</time>
      </trkpt>
      <trkpt lat="45.26773" lon="5.55325">
        <ele>612</ele>
        <time>2012-11-04T11:00:25Z</time>
      </trkpt>
      <trkpt lat="45.26773" lon="5.55326">
        <ele>613</ele>
        <time>2012-11-04T11:00:26Z</time>
      </trkpt>
      <trkpt lat="45.26774" lon="5.55328">
        <ele>614</ele>
        <time>2012-11-04T11:00:27Z</time>
      </trkpt>
      <trkpt lat="45.26774" lon="5.55329">
        <ele>614</ele>
        <time>2012-11-04T11:00:28Z</time>
      </trkpt>
      <trkpt lat="45.26774" lon="5.55331">
        <ele>614</ele>
        <time>2012-11-04T11:00:29Z</time>
      </trkpt>
      <trkpt lat="45.26773" lon="5.55333">
        <ele>613</ele>
        <time>2012-11-04T11:00:30Z</time>
      </trkpt>
      <trkpt lat="45.26772" lon="5.55335">
        <ele>612</ele>
        <time>2012-11-04T11:00:31Z</time>
      </trkpt>
      <trkpt lat="45.26772" lon="5.55337">
        <ele>612</ele>
        <time>2012-11-04T11:00:32Z</time>
      </trkpt>
      <trkpt lat="45.26771" lon="5.55338">
        <ele>612</ele>
        <time>2012-11-04T11:00:33Z</time>
      </trkpt>
      <trkpt lat="45.2677" lon="5.5534">
        <ele>612</ele>
        <time>2012-11-04T11:00:34Z</time>
      </trkpt>
      <trkpt lat="45.2677" lon="5.55341">
        <ele>612</ele>
        <time>2012-11-04T11:00:35Z</time>
      </trkpt>
      <trkpt lat="45.2677" lon="5.55342">
        <ele>612</ele>
        <time>2012-11-04T11:00:36Z</time>
      </trkpt>
      <trkpt lat="45.2677" lon="5.55344">
        <ele>612</ele>
        <time>2012-11-04T11:00:37Z</time>
      </trkpt>
      <trkpt lat="45.2677" lon="5.55344">
        <ele>612</ele>
        <time>2012-11-04T11:00:38Z</time>
      </trkpt>
      <trkpt lat="45.2677" lon="5.55344">
        <ele>612</ele>
        <time>2012-11-04T11:00:39Z</time>
      </trkpt>
      <trkpt lat="45.2677" lon="5.55344">
        <ele>612</ele>
        <time>2012-11-04T11:00:40Z</time>
      </trkpt>
      <trkpt lat="45.2677" lon="5.55344">
        <ele>611</ele>
        <time>2012-11-04T11:00:41Z</time>
      </trkpt>
      <trkpt lat="45.2677" lon="5.55344">
        <ele>611</ele>
        <time>2012-11-04T11:00:42Z</time>
      </trkpt>
      <trkpt lat="45.26768" lon="5.5535">
        <ele>611</ele>
        <time>2012-11-04T11:00:43Z</time>
      </trkpt>
      <trkpt lat="45.26768" lon="5.5535">
        <ele>611</ele>
        <time>2012-11-04T11:00:44Z</time>
      </trkpt>
      <trkpt lat="45.26768" lon="5.5535">
        <ele>611</ele>
        <time>2012-11-04T11:00:45Z</time>
      </trkpt>
      <trkpt lat="45.26768" lon="5.5535">
        <ele>610</ele>
        <time>2012-11-04T11:00:46Z</time>
      </trkpt>
      <trkpt lat="45.26768" lon="5.5535">
        <ele>610</ele>
        <time>2012-11-04T11:00:47Z</time>
      </trkpt>
      <trkpt lat="45.26768" lon="5.5535">
        <ele>610</ele>
        <time>2012-11-04T11:00:48Z</time>
      </trkpt>
      <trkpt lat="45.26768" lon="5.5535">
        <ele>610</ele>
        <time>2012-11-04T11:00:49Z</time>
      </trkpt>
      <trkpt lat="45.26768" lon="5.5535">
        <ele>610</ele>
        <time>2012-11-04T11:00:50Z</time>
      </trkpt>
      <trkpt lat="45.26768" lon="5.5535">
        <ele>611</ele>
        <time>2012-11-04T11:00:51Z</time>
      </trkpt>
      <trkpt lat="45.26768" lon="5.5535">
        <ele>611</ele>
        <time>2012-11-04T11:00:52Z</time>
      </trkpt>
      <trkpt lat="45.26768" lon="5.5535">
        <ele>611</ele>
        <time>2012-11-04T11:00:53Z</time>
      </trkpt>
      <trkpt lat="45.26768" lon="5.5535">
        <ele>611</ele>
        <time>2012-11-04T11:00:54Z</time>
      </trkpt>
      <trkpt lat="45.26768" lon="5.5535">
        <ele>611</ele>
        <time>2012-11-04T11:00:55Z</time>
      </trkpt>
      <trkpt lat="45.26768" lon="5.5535">
        <ele>611</ele>
        <time>2012-11-04T11:00:56Z</time>
      </trkpt>
      <trkpt lat="45.26768" lon="5.5535">
        <ele>611</ele>
        <time>2012-11-04T11:00:57Z</time>
      </trkpt>
      <trkpt lat="45.26768" lon="5.5535">
        <ele>611</ele>
        <time>2012-11-04T11:00:58Z</time>
      </trkpt>
      <trkpt lat="45.26768" lon="5.5535">
        <ele>611</ele>
        <time>2012-11-04T11:00:59Z</time>
      </trkpt>
      <trkpt lat="45.26768" lon="5.5535">
        <ele>611</ele>
        <time>2012-11-04T11:01:00Z</time>
      </trkpt>
      <trkpt lat="45.2677" lon="5.55356">
        <ele>609</ele>
        <time>2012-11-04T11:01:01Z</time>
      </trkpt>
      <trkpt lat="45.26771" lon="5.55358">
        <ele>609</ele>
        <time>2012-11-04T11:01:02Z</time>
      </trkpt>
      <trkpt lat="45.26773" lon="5.55361">
        <ele>609</ele>
        <time>2012-11-04T11:01:03Z</time>
      </trkpt>
      <trkpt lat="45.26774" lon="5.55363">
        <ele>609</ele>
        <time>2012-11-04T11:01:04Z</time>
      </trkpt>
      <trkpt lat="45.26774" lon="5.55366">
        <ele>609</ele>
        <time>2012-11-04T11:01:05Z</time>
      </trkpt>
      <trkpt lat="45.26774" lon="5.55369">
        <ele>607</ele>
        <time>2012-11-04T11:01:06Z</time>
      </trkpt>
      <trkpt lat="45.26774" lon="5.55373">
        <ele>608</ele>
        <time>2012-11-04T11:01:07Z</time>
      </trkpt>
      <trkpt lat="45.26774" lon="5.55376">
        <ele>608</ele>
        <time>2012-11-04T11:01:08Z</time>
      </trkpt>
      <trkpt lat="45.26773" lon="5.55378">
        <ele>608</ele>
        <time>2012-11-04T11:01:09Z</time>
      </trkpt>
      <trkpt lat="45.26773" lon="5.5538">
        <ele>607</ele>
        <time>2012-11-04T11:01:10Z</time>
      </trkpt>
      <trkpt lat="45.26773" lon="5.5538">
        <ele>607</ele>
        <time>2012-11-04T11:01:11Z</time>
      </trkpt>
      <trkpt lat="45.26773" lon="5.5538">
        <ele>607</ele>
        <time>2012-11-04T11:01:12Z</time>
      </trkpt>
      <trkpt lat="45.26773" lon="5.5538">
        <ele>607</ele>
        <time>2012-11-04T11:01:13Z</time>
      </trkpt>
      <trkpt lat="45.26773" lon="5.5538">
        <ele>607</ele>
        <time>2012-11-04T11:01:14Z</time>
      </trkpt>
      <trkpt lat="45.26773" lon="5.5538">
        <ele>607</ele>
        <time>2012-11-04T11:01:15Z</time>
      </trkpt>
      <trkpt lat="45.26773" lon="5.5538">
        <ele>606</ele>
        <time>2012-11-04T11:01:16Z</time>
      </trkpt>
      <trkpt lat="45.26773" lon="5.5538">
        <ele>606</ele>
        <time>2012-11-04T11:01:17Z</time>
      </trkpt>
      <trkpt lat="45.26773" lon="5.5538">
        <ele>606</ele>
        <time>2012-11-04T11:01:18Z</time>
      </trkpt>
      <trkpt lat="45.26773" lon="5.5538">
        <ele>606</ele>
        <time>2012-11-04T11:01:19Z</time>
      </trkpt>
      <trkpt lat="45.26773" lon="5.5538">
        <ele>606</ele>
        <time>2012-11-04T11:01:20Z</time>
      </trkpt>
      <trkpt lat="45.26773" lon="5.5538">
        <ele>605</ele>
        <time>2012-11-04T11:01:21Z</time>
      </trkpt>
      <trkpt lat="45.26773" lon="5.5538">
        <ele>606</ele>
        <time>2012-11-04T11:01:22Z</time>
      </trkpt>
      <trkpt lat="45.26771" lon="5.55386">
        <ele>605</ele>
        <time>2012-11-04T11:01:23Z</time>
      </trkpt>
      <trkpt lat="45.26771" lon="5.55386">
        <ele>605</ele>
        <time>2012-11-04T11:01:24Z</time>
      </trkpt>
      <trkpt lat="45.26771" lon="5.55386">
        <ele>606</ele>
        <time>2012-11-04T11:01:25Z</time>
      </trkpt>
      <trkpt lat="45.26771" lon="5.55386">
        <ele>606</ele>
        <time>2012-11-04T11:01:26Z</time>
      </trkpt>
      <trkpt lat="45.26771" lon="5.55386">
        <ele>606</ele>
        <time>2012-11-04T11:01:27Z</time>
      </trkpt>
      <trkpt lat="45.26771" lon="5.55386">
        <ele>606</ele>
        <time>2012-11-04T11:01:28Z</time>
      </trkpt>
      <trkpt lat="45.26771" lon="5.55386">
        <ele>606</ele>
        <time>2012-11-04T11:01:29Z</time>
      </trkpt>
      <trkpt lat="45.26771" lon="5.55386">
        <ele>605</ele>
        <time>2012-11-04T11:01:30Z</time>
      </trkpt>
      <trkpt lat="45.26771" lon="5.55386">
        <ele>605</ele>
        <time>2012-11-04T11:01:31Z</time>
      </trkpt>
      <trkpt lat="45.26771" lon="5.55386">
        <ele>606</ele>
        <time>2012-11-04T11:01:32Z</time>
      </trkpt>
      <trkpt lat="45.26771" lon="5.55386">
        <ele>606</ele>
        <time>2012-11-04T11:01:33Z</time>
      </trkpt>
      <trkpt lat="45.26771" lon="5.55386">
        <ele>606</ele>
        <time>2012-11-04T11:01:34Z</time>
      </trkpt>
      <trkpt lat="45.26771" lon="5.55386">
        <ele>606</ele>
        <time>2012-11-04T11:01:35Z</time>
      </trkpt>
      <trkpt lat="45.26771" lon="5.55386">
        <ele>606</ele>
        <time>2012-11-04T11:01:36Z</time>
      </trkpt>
      <trkpt lat="45.2677" lon="5.55389">
        <ele>605</ele>
        <time>2012-11-04T11:01:37Z</time>
      </trkpt>
      <trkpt lat="45.26769" lon="5.5539">
        <ele>605</ele>
        <time>2012-11-04T11:01:38Z</time>
      </trkpt>
      <trkpt lat="45.26768" lon="5.55392">
        <ele>606</ele>
        <time>2012-11-04T11:01:39Z</time>
      </trkpt>
      <trkpt lat="45.26768" lon="5.55395">
        <ele>606</ele>
        <time>2012-11-04T11:01:40Z</time>
      </trkpt>
      <trkpt lat="45.26767" lon="5.55397">
        <ele>605</ele>
        <time>2012-11-04T11:01:41Z</time>
      </trkpt>
      <trkpt lat="45.26767" lon="5.55401">
        <ele>607</ele>
        <time>2012-11-04T11:01:42Z</time>
      </trkpt>
      <trkpt lat="45.26767" lon="5.55404">
        <ele>607</ele>
        <time>2012-11-04T11:01:43Z</time>
      </trkpt>
      <trkpt lat="45.26767" lon="5.55407">
        <ele>609</ele>
        <time>2012-11-04T11:01:44Z</time>
      </trkpt>
      <trkpt lat="45.26767" lon="5.55407">
        <ele>610</ele>
        <time>2012-11-04T11:01:45Z</time>
      </trkpt>
      <trkpt lat="45.26766" lon="5.55415">
        <ele>610</ele>
        <time>2012-11-04T11:01:46Z</time>
      </trkpt>
      <trkpt lat="45.26766" lon="5.55415">
        <ele>610</ele>
        <time>2012-11-04T11:01:47Z</time>
      </trkpt>
      <trkpt lat="45.26766" lon="5.55415">
        <ele>610</ele>
        <time>2012-11-04T11:01:48Z</time>
      </trkpt>
      <trkpt lat="45.26766" lon="5.55415">
        <ele>610</ele>
        <time>2012-11-04T11:01:49Z</time>
      </trkpt>
      <trkpt lat="45.26766" lon="5.55415">
        <ele>610</ele>
        <time>2012-11-04T11:01:50Z</time>
      </trkpt>
      <trkpt lat="45.26766" lon="5.55415">
        <ele>610</ele>
        <time>2012-11-04T11:01:51Z</time>
      </trkpt>
      <trkpt lat="45.26766" lon="5.55415">
        <ele>610</ele>
        <time>2012-11-04T11:01:52Z</time>
      </trkpt>
      <trkpt lat="45.26765" lon="5.55422">
        <ele>610</ele>
        <time>2012-11-04T11:01:53Z</time>
      </trkpt>
      <trkpt lat="45.26764" lon="5.55423">
        <ele>611</ele>
        <time>2012-11-04T11:01:54Z</time>
      </trkpt>
      <trkpt lat="45.26763" lon="5.55424">
        <ele>612</ele>
        <time>2012-11-04T11:01:55Z</time>
      </trkpt>
      <trkpt lat="45.26762" lon="5.55426">
        <ele>613</ele>
        <time>2012-11-04T11:01:56Z</time>
      </trkpt>
      <trkpt lat="45.26762" lon="5.55427">
        <ele>613</ele>
        <time>2012-11-04T11:01:57Z</time>
      </trkpt>
      <trkpt lat="45.26761" lon="5.55429">
        <ele>614</ele>
        <time>2012-11-04T11:01:58Z</time>
      </trkpt>
      <trkpt lat="45.26761" lon="5.55431">
        <ele>614</ele>
        <time>2012-11-04T11:01:59Z</time>
      </trkpt>
      <trkpt lat="45.26761" lon="5.55435">
        <ele>613</ele>
        <time>2012-11-04T11:02:00Z</time>
      </trkpt>
      <trkpt lat="45.26761" lon="5.55437">
        <ele>613</ele>
        <time>2012-11-04T11:02:01Z</time>
      </trkpt>
      <trkpt lat="45.26762" lon="5.55438">
        <ele>614</ele>
        <time>2012-11-04T11:02:02Z</time>
      </trkpt>
      <trkpt lat="45.26762" lon="5.5544">
        <ele>615</ele>
        <time>2012-11-04T11:02:03Z</time>
      </trkpt>
      <trkpt lat="45.26761" lon="5.55443">
        <ele>615</ele>
        <time>2012-11-04T11:02:04Z</time>
      </trkpt>
      <trkpt lat="45.26761" lon="5.55445">
        <ele>615</ele>
        <time>2012-11-04T11:02:05Z</time>
      </trkpt>
      <trkpt lat="45.2676" lon="5.55447">
        <ele>616</ele>
        <time>2012-11-04T11:02:06Z</time>
      </trkpt>
      <trkpt lat="45.26759" lon="5.55449">
        <ele>616</ele>
        <time>2012-11-04T11:02:07Z</time>
      </trkpt>
      <trkpt lat="45.26758" lon="5.55451">
        <ele>616</ele>
        <time>2012-11-04T11:02:08Z</time>
      </trkpt>
      <trkpt lat="45.26757" lon="5.55453">
        <ele>615</ele>
        <time>2012-11-04T11:02:09Z</time>
      </trkpt>
      <trkpt lat="45.26757" lon="5.55454">
        <ele>616</ele>
        <time>2012-11-04T11:02:10Z</time>
      </trkpt>
      <trkpt lat="45.26756" lon="5.55456">
        <ele>617</ele>
        <time>2012-11-04T11:02:11Z</time>
      </trkpt>
      <trkpt lat="45.26756" lon="5.55457">
        <ele>615</ele>
        <time>2012-11-04T11:02:12Z</time>
      </trkpt>
      <trkpt lat="45.26756" lon="5.55459">
        <ele>615</ele>
        <time>2012-11-04T11:02:13Z</time>
      </trkpt>
      <trkpt lat="45.26756" lon="5.5546">
        <ele>616</ele>
        <time>2012-11-04T11:02:14Z</time>
      </trkpt>
      <trkpt lat="45.26756" lon="5.55462">
        <ele>618</ele>
        <time>2012-11-04T11:02:15Z</time>
      </trkpt>
      <trkpt lat="45.26756" lon="5.55464">
        <ele>618</ele>
        <time>2012-11-04T11:02:16Z</time>
      </trkpt>
      <trkpt lat="45.26756" lon="5.55466">
        <ele>620</ele>
        <time>2012-11-04T11:02:17Z</time>
      </trkpt>
      <trkpt lat="45.26756" lon="5.55468">
        <ele>619</ele>
        <time>2012-11-04T11:02:18Z</time>
      </trkpt>
      <trkpt lat="45.26756" lon="5.5547">
        <ele>619</ele>
        <time>2012-11-04T11:02:19Z</time>
      </trkpt>
      <trkpt lat="45.26755" lon="5.55472">
        <ele>621</ele>
        <time>2012-11-04T11:02:20Z</time>
      </trkpt>
      <trkpt lat="45.26755" lon="5.55473">
        <ele>622</ele>
        <time>2012-11-04T11:02:21Z</time>
      </trkpt>
      <trkpt lat="45.26755" lon="5.55475">
        <ele>623</ele>
        <time>2012-11-04T11:02:22Z</time>
      </trkpt>
      <trkpt lat="45.26755" lon="5.55475">
        <ele>623</ele>
        <time>2012-11-04T11:02:23Z</time>
      </trkpt>
      <trkpt lat="45.26756" lon="5.55476">
        <ele>623</ele>
        <time>2012-11-04T11:02:24Z</time>
      </trkpt>
      <trkpt lat="45.26756" lon="5.55477">
        <ele>625</ele>
        <time>2012-11-04T11:02:25Z</time>
      </trkpt>
      <trkpt lat="45.26756" lon="5.55478">
        <ele>625</ele>
        <time>2012-11-04T11:02:26Z</time>
      </trkpt>
      <trkpt lat="45.26756" lon="5.55479">
        <ele>625</ele>
        <time>2012-11-04T11:02:27Z</time>
      </trkpt>
      <trkpt lat="45.26756" lon="5.5548">
        <ele>625</ele>
        <time>2012-11-04T11:02:28Z</time>
      </trkpt>
      <trkpt lat="45.26756" lon="5.55481">
        <ele>626</ele>
        <time>2012-11-04T11:02:29Z</time>
      </trkpt>
      <trkpt lat="45.26756" lon="5.55482">
        <ele>626</ele>
        <time>2012-11-04T11:02:30Z</time>
      </trkpt>
      <trkpt lat="45.26756" lon="5.55483">
        <ele>626</ele>
        <time>2012-11-04T11:02:31Z</time>
      </trkpt>
      <trkpt lat="45.26756" lon="5.55483">
        <ele>627</ele>
        <time>2012-11-04T11:02:32Z</time>
      </trkpt>
      <trkpt lat="45.26756" lon="5.55484">
        <ele>627</ele>
        <time>2012-11-04T11:02:33Z</time>
      </trkpt>
      <trkpt lat="45.26756" lon="5.55485">
        <ele>627</ele>
        <time>2012-11-04T11:02:34Z</time>
      </trkpt>
      <trkpt lat="45.26756" lon="5.55485">
        <ele>627</ele>
        <time>2012-11-04T11:02:35Z</time>
      </trkpt>
      <trkpt lat="45.26756" lon="5.55487">
        <ele>627</ele>
        <time>2012-11-04T11:02:36Z</time>
      </trkpt>
      <trkpt lat="45.26755" lon="5.55488">
        <ele>627</ele>
        <time>2012-11-04T11:02:37Z</time>
      </trkpt>
      <trkpt lat="45.26755" lon="5.55488">
        <ele>627</ele>
        <time>2012-11-04T11:02:38Z</time>
      </trkpt>
      <trkpt lat="45.26754" lon="5.55489">
        <ele>627</ele>
        <time>2012-11-04T11:02:39Z</time>
      </trkpt>
      <trkpt lat="45.26754" lon="5.55489">
        <ele>626</ele>
        <time>2012-11-04T11:02:40Z</time>
      </trkpt>
      <trkpt lat="45.26754" lon="5.55489">
        <ele>627</ele>
        <time>2012-11-04T11:02:41Z</time>
      </trkpt>
      <trkpt lat="45.26754" lon="5.55489">
        <ele>628</ele>
        <time>2012-11-04T11:02:42Z</time>
      </trkpt>
      <trkpt lat="45.26754" lon="5.55489">
        <ele>629</ele>
        <time>2012-11-04T11:02:43Z</time>
      </trkpt>
      <trkpt lat="45.26754" lon="5.55489">
        <ele>629</ele>
        <time>2012-11-04T11:02:44Z</time>
      </trkpt>
      <trkpt lat="45.26754" lon="5.55489">
        <ele>629</ele>
        <time>2012-11-04T11:02:45Z</time>
      </trkpt>
      <trkpt lat="45.26754" lon="5.55489">
        <ele>629</ele>
        <time>2012-11-04T11:02:46Z</time>
      </trkpt>
      <trkpt lat="45.26754" lon="5.55489">
        <ele>629</ele>
        <time>2012-11-04T11:02:47Z</time>
      </trkpt>
      <trkpt lat="45.26754" lon="5.55489">
        <ele>629</ele>
        <time>2012-11-04T11:02:48Z</time>
      </trkpt>
      <trkpt lat="45.26754" lon="5.55489">
        <ele>629</ele>
        <time>2012-11-04T11:02:49Z</time>
      </trkpt>
      <trkpt lat="45.26754" lon="5.55489">
        <ele>629</ele>
        <time>2012-11-04T11:02:50Z</time>
      </trkpt>
      <trkpt lat="45.26754" lon="5.55489">
        <ele>629</ele>
        <time>2012-11-04T11:02:51Z</time>
      </trkpt>
      <trkpt lat="45.26754" lon="5.55489">
        <ele>629</ele>
        <time>2012-11-04T11:02:52Z</time>
      </trkpt>
      <trkpt lat="45.26754" lon="5.55489">
        <ele>629</ele>
        <time>2012-11-04T11:02:53Z</time>
      </trkpt>
      <trkpt lat="45.26754" lon="5.55489">
        <ele>628</ele>
        <time>2012-11-04T11:02:54Z</time>
      </trkpt>
      <trkpt lat="45.26754" lon="5.55489">
        <ele>628</ele>
        <time>2012-11-04T11:02:55Z</time>
      </trkpt>
      <trkpt lat="45.26754" lon="5.55489">
        <ele>628</ele>
        <time>2012-11-04T11:02:56Z</time>
      </trkpt>
      <trkpt lat="45.26754" lon="5.55489">
        <ele>628</ele>
        <time>2012-11-04T11:02:57Z</time>
      </trkpt>
      <trkpt lat="45.26754" lon="5.55489">
        <ele>628</ele>
        <time>2012-11-04T11:02:58Z</time>
      </trkpt>
      <trkpt lat="45.26754" lon="5.55489">
        <ele>628</ele>
        <time>2012-11-04T11:02:59Z</time>
      </trkpt>
      <trkpt lat="45.26754" lon="5.55489">
        <ele>628</ele>
        <time>2012-11-04T11:03:00Z</time>
      </trkpt>
      <trkpt lat="45.26754" lon="5.55489">
        <ele>628</ele>
        <time>2012-11-04T11:03:01Z</time>
      </trkpt>
      <trkpt lat="45.26754" lon="5.55489">
        <ele>628</ele>
        <time>2012-11-04T11:03:02Z</time>
      </trkpt>
      <trkpt lat="45.26754" lon="5.55489">
        <ele>628</ele>
        <time>2012-11-04T11:03:03Z</time>
      </trkpt>
      <trkpt lat="45.26754" lon="5.55489">
        <ele>628</ele>
        <time>2012-11-04T11:03:04Z</time>
      </trkpt>
      <trkpt lat="45.26754" lon="5.55489">
        <ele>628</ele>
        <time>2012-11-04T11:03:05Z</time>
      </trkpt>
      <trkpt lat="45.26754" lon="5.55489">
        <ele>628</ele>
        <time>2012-11-04T11:03:06Z</time>
      </trkpt>
      <trkpt lat="45.26754" lon="5.55489">
        <ele>628</ele>
        <time>2012-11-04T11:03:07Z</time>
      </trkpt>
      <trkpt lat="45.26754" lon="5.55489">
        <ele>628</ele>
        <time>2012-11-04T11:03:08Z</time>
      </trkpt>
      <trkpt lat="45.26754" lon="5.55489">
        <ele>628</ele>
        <time>2012-11-04T11:03:09Z</time>
      </trkpt>
      <trkpt lat="45.26754" lon="5.55489">
        <ele>628</ele>
        <time>2012-11-04T11:03:10Z</time>
      </trkpt>
      <trkpt lat="45.26754" lon="5.55489">
        <ele>628</ele>
        <time>2012-11-04T11:03:11Z</time>
      </trkpt>
      <trkpt lat="45.26754" lon="5.55489">
        <ele>628</ele>
        <time>2012-11-04T11:03:12Z</time>
      </trkpt>
      <trkpt lat="45.26754" lon="5.55489">
        <ele>628</ele>
        <time>2012-11-04T11:03:13Z</time>
      </trkpt>
      <trkpt lat="45.26754" lon="5.55489">
        <ele>628</ele>
        <time>2012-11-04T11:03:14Z</time>
      </trkpt>
      <trkpt lat="45.26754" lon="5.55489">
        <ele>628</ele>
        <time>2012-11-04T11:03:15Z</time>
      </trkpt>
      <trkpt lat="45.26754" lon="5.55489">
        <ele>628</ele>
        <time>2012-11-04T11:03:16Z</time>
      </trkpt>
      <trkpt lat="45.26754" lon="5.55489">
        <ele>628</ele>
        <time>2012-11-04T11:03:17Z</time>
      </trkpt>
      <trkpt lat="45.26754" lon="5.55489">
        <ele>628</ele>
        <time>2012-11-04T11:03:18Z</time>
      </trkpt>
      <trkpt lat="45.26754" lon="5.55489">
        <ele>628</ele>
        <time>2012-11-04T11:03:19Z</time>
      </trkpt>
      <trkpt lat="45.26754" lon="5.55489">
        <ele>628</ele>
        <time>2012-11-04T11:03:20Z</time>
      </trkpt>
      <trkpt lat="45.26754" lon="5.55489">
        <ele>628</ele>
        <time>2012-11-04T11:03:21Z</time>
      </trkpt>
      <trkpt lat="45.2675" lon="5.55499">
        <ele>627</ele>
        <time>2012-11-04T11:03:22Z</time>
      </trkpt>
      <trkpt lat="45.2675" lon="5.55499">
        <ele>627</ele>
        <time>2012-11-04T11:03:23Z</time>
      </trkpt>
      <trkpt lat="45.26747" lon="5.55506">
        <ele>627</ele>
        <time>2012-11-04T11:03:24Z</time>
      </trkpt>
      <trkpt lat="45.26747" lon="5.55506">
        <ele>627</ele>
        <time>2012-11-04T11:03:25Z</time>
      </trkpt>
      <trkpt lat="45.26747" lon="5.55506">
        <ele>627</ele>
        <time>2012-11-04T11:03:26Z</time>
      </trkpt>
      <trkpt lat="45.26747" lon="5.55506">
        <ele>628</ele>
        <time>2012-11-04T11:03:27Z</time>
      </trkpt>
      <trkpt lat="45.26747" lon="5.55506">
        <ele>628</ele>
        <time>2012-11-04T11:03:28Z</time>
      </trkpt>
      <trkpt lat="45.26747" lon="5.55506">
        <ele>627</ele>
        <time>2012-11-04T11:03:29Z</time>
      </trkpt>
      <trkpt lat="45.26747" lon="5.55506">
        <ele>628</ele>
        <time>2012-11-04T11:03:30Z</time>
      </trkpt>
      <trkpt lat="45.26743" lon="5.55511">
        <ele>628</ele>
        <time>2012-11-04T11:03:31Z</time>
      </trkpt>
      <trkpt lat="45.26743" lon="5.55511">
        <ele>626</ele>
        <time>2012-11-04T11:03:32Z</time>
      </trkpt>
      <trkpt lat="45.26742" lon="5.55512">
        <ele>626</ele>
        <time>2012-11-04T11:03:33Z</time>
      </trkpt>
      <trkpt lat="45.26741" lon="5.55514">
        <ele>626</ele>
        <time>2012-11-04T11:03:34Z</time>
      </trkpt>
      <trkpt lat="45.2674" lon="5.55517">
        <ele>625</ele>
        <time>2012-11-04T11:03:35Z</time>
      </trkpt>
      <trkpt lat="45.26739" lon="5.5552">
        <ele>627</ele>
        <time>2012-11-04T11:03:36Z</time>
      </trkpt>
      <trkpt lat="45.26735" lon="5.55524">
        <ele>627</ele>
        <time>2012-11-04T11:03:37Z</time>
      </trkpt>
      <trkpt lat="45.26733" lon="5.55527">
        <ele>627</ele>
        <time>2012-11-04T11:03:38Z</time>
      </trkpt>
      <trkpt lat="45.26731" lon="5.55531">
        <ele>627</ele>
        <time>2012-11-04T11:03:39Z</time>
      </trkpt>
      <trkpt lat="45.2673" lon="5.55534">
        <ele>628</ele>
        <time>2012-11-04T11:03:40Z</time>
      </trkpt>
      <trkpt lat="45.26729" lon="5.55536">
        <ele>628</ele>
        <time>2012-11-04T11:03:41Z</time>
      </trkpt>
      <trkpt lat="45.2673" lon="5.55538">
        <ele>629</ele>
        <time>2012-11-04T11:03:42Z</time>
      </trkpt>
      <trkpt lat="45.2673" lon="5.55539">
        <ele>628</ele>
        <time>2012-11-04T11:03:43Z</time>
      </trkpt>
      <trkpt lat="45.2673" lon="5.5554">
        <ele>628</ele>
        <time>2012-11-04T11:03:44Z</time>
      </trkpt>
      <trkpt lat="45.26731" lon="5.5554">
        <ele>628</ele>
        <time>2012-11-04T11:03:45Z</time>
      </trkpt>
      <trkpt lat="45.26731" lon="5.5554">
        <ele>628</ele>
        <time>2012-11-04T11:03:46Z</time>
      </trkpt>
      <trkpt lat="45.26731" lon="5.5554">
        <ele>628</ele>
        <time>2012-11-04T11:03:47Z</time>
      </trkpt>
      <trkpt lat="45.26732" lon="5.55539">
        <ele>628</ele>
        <time>2012-11-04T11:03:48Z</time>
      </trkpt>
      <trkpt lat="45.26731" lon="5.55539">
        <ele>628</ele>
        <time>2012-11-04T11:03:49Z</time>
      </trkpt>
      <trkpt lat="45.26731" lon="5.5554">
        <ele>628</ele>
        <time>2012-11-04T11:03:50Z</time>
      </trkpt>
      <trkpt lat="45.26731" lon="5.55541">
        <ele>627</ele>
        <time>2012-11-04T11:03:51Z</time>
      </trkpt>
      <trkpt lat="45.2673" lon="5.55541">
        <ele>627</ele>
        <time>2012-11-04T11:03:52Z</time>
      </trkpt>
      <trkpt lat="45.2673" lon="5.55541">
        <ele>629</ele>
        <time>2012-11-04T11:03:53Z</time>
      </trkpt>
      <trkpt lat="45.2673" lon="5.55541">
        <ele>627</ele>
        <time>2012-11-04T11:03:54Z</time>
      </trkpt>
      <trkpt lat="45.2673" lon="5.55539">
        <ele>627</ele>
        <time>2012-11-04T11:03:55Z</time>
      </trkpt>
      <trkpt lat="45.2673" lon="5.55538">
        <ele>627</ele>
        <time>2012-11-04T11:03:56Z</time>
      </trkpt>
      <trkpt lat="45.2673" lon="5.55536">
        <ele>626</ele>
        <time>2012-11-04T11:03:57Z</time>
      </trkpt>
      <trkpt lat="45.2673" lon="5.55535">
        <ele>627</ele>
        <time>2012-11-04T11:03:58Z</time>
      </trkpt>
      <trkpt lat="45.2673" lon="5.55535">
        <ele>626</ele>
        <time>2012-11-04T11:03:59Z</time>
      </trkpt>
      <trkpt lat="45.2673" lon="5.55535">
        <ele>622</ele>
        <time>2012-11-04T11:04:00Z</time>
      </trkpt>
      <trkpt lat="45.2673" lon="5.55535">
        <ele>622</ele>
        <time>2012-11-04T11:04:01Z</time>
      </trkpt>
      <trkpt lat="45.2673" lon="5.55535">
        <ele>623</ele>
        <time>2012-11-04T11:04:02Z</time>
      </trkpt>
      <trkpt lat="45.2673" lon="5.55535">
        <ele>623</ele>
        <time>2012-11-04T11:04:03Z</time>
      </trkpt>
      <trkpt lat="45.2673" lon="5.55535">
        <ele>624</ele>
        <time>2012-11-04T11:04:04Z</time>
      </trkpt>
      <trkpt lat="45.2673" lon="5.55535">
        <ele>625</ele>
        <time>2012-11-04T11:04:05Z</time>
      </trkpt>
      <trkpt lat="45.2673" lon="5.55535">
        <ele>625</ele>
        <time>2012-11-04T11:04:06Z</time>
      </trkpt>
      <trkpt lat="45.2673" lon="5.55535">
        <ele>626</ele>
        <time>2012-11-04T11:04:07Z</time>
      </trkpt>
      <trkpt lat="45.2673" lon="5.55535">
        <ele>626</ele>
        <time>2012-11-04T11:04:08Z</time>
      </trkpt>
      <trkpt lat="45.2673" lon="5.55535">
        <ele>627</ele>
        <time>2012-11-04T11:04:09Z</time>
      </trkpt>
      <trkpt lat="45.2673" lon="5.55535">
        <ele>627</ele>
        <time>2012-11-04T11:04:10Z</time>
      </trkpt>
      <trkpt lat="45.2673" lon="5.55535">
        <ele>627</ele>
        <time>2012-11-04T11:04:11Z</time>
      </trkpt>
      <trkpt lat="45.26733" lon="5.5554">
        <ele>627</ele>
        <time>2012-11-04T11:04:12Z</time>
      </trkpt>
      <trkpt lat="45.26733" lon="5.5554">
        <ele>627</ele>
        <time>2012-11-04T11:04:13Z</time>
      </trkpt>
      <trkpt lat="45.26733" lon="5.5554">
        <ele>627</ele>
        <time>2012-11-04T11:04:14Z</time>
      </trkpt>
      <trkpt lat="45.26733" lon="5.5554">
        <ele>627</ele>
        <time>2012-11-04T11:04:15Z</time>
      </trkpt>
      <trkpt lat="45.26733" lon="5.5554">
        <ele>627</ele>
        <time>2012-11-04T11:04:16Z</time>
      </trkpt>
      <trkpt lat="45.26733" lon="5.5554">
        <ele>627</ele>
        <time>2012-11-04T11:04:17Z</time>
      </trkpt>
      <trkpt lat="45.26733" lon="5.5554">
        <ele>627</ele>
        <time>2012-11-04T11:04:18Z</time>
      </trkpt>
      <trkpt lat="45.26733" lon="5.5554">
        <ele>627</ele>
        <time>2012-11-04T11:04:19Z</time>
      </trkpt>
      <trkpt lat="45.26733" lon="5.5554">
        <ele>627</ele>
        <time>2012-11-04T11:04:20Z</time>
      </trkpt>
      <trkpt lat="45.26733" lon="5.5554">
        <ele>627</ele>
        <time>2012-11-04T11:04:21Z</time>
      </trkpt>
      <trkpt lat="45.26733" lon="5.5554">
        <ele>628</ele>
        <time>2012-11-04T11:04:22Z</time>
      </trkpt>
      <trkpt lat="45.26733" lon="5.5554">
        <ele>628</ele>
        <time>2012-11-04T11:04:23Z</time>
      </trkpt>
      <trkpt lat="45.26733" lon="5.5554">
        <ele>628</ele>
        <time>2012-11-04T11:04:24Z</time>
      </trkpt>
      <trkpt lat="45.26733" lon="5.5554">
        <ele>628</ele>
        <time>2012-11-04T11:04:25Z</time>
      </trkpt>
      <trkpt lat="45.26733" lon="5.5554">
        <ele>628</ele>
        <time>2012-11-04T11:04:26Z</time>
      </trkpt>
      <trkpt lat="45.26733" lon="5.5554">
        <ele>628</ele>
        <time>2012-11-04T11:04:27Z</time>
      </trkpt>
      <trkpt lat="45.26733" lon="5.5554">
        <ele>628</ele>
        <time>2012-11-04T11:04:28Z</time>
      </trkpt>
      <trkpt lat="45.26733" lon="5.5554">
        <ele>629</ele>
        <time>2012-11-04T11:04:29Z</time>
      </trkpt>
      <trkpt lat="45.26733" lon="5.5554">
        <ele>629</ele>
        <time>2012-11-04T11:04:30Z</time>
      </trkpt>
      <trkpt lat="45.26733" lon="5.5554">
        <ele>629</ele>
        <time>2012-11-04T11:04:31Z</time>
      </trkpt>
      <trkpt lat="45.26733" lon="5.5554">
        <ele>629</ele>
        <time>2012-11-04T11:04:32Z</time>
      </trkpt>
      <trkpt lat="45.26733" lon="5.5554">
        <ele>629</ele>
        <time>2012-11-04T11:04:33Z</time>
      </trkpt>
      <trkpt lat="45.26733" lon="5.5554">
        <ele>629</ele>
        <time>2012-11-04T11:04:34Z</time>
      </trkpt>
      <trkpt lat="45.26733" lon="5.5554">
        <ele>629</ele>
        <time>2012-11-04T11:04:35Z</time>
      </trkpt>
      <trkpt lat="45.26733" lon="5.5554">
        <ele>629</ele>
        <time>2012-11-04T11:04:36Z</time>
      </trkpt>
      <trkpt lat="45.26732" lon="5.55543">
        <ele>628</ele>
        <time>2012-11-04T11:04:37Z</time>
      </trkpt>
      <trkpt lat="45.26732" lon="5.55545">
        <ele>628</ele>
        <time>2012-11-04T11:04:38Z</time>
      </trkpt>
      <trkpt lat="45.26732" lon="5.55547">
        <ele>627</ele>
        <time>2012-11-04T11:04:39Z</time>
      </trkpt>
      <trkpt lat="45.26733" lon="5.55549">
        <ele>627</ele>
        <time>2012-11-04T11:04:40Z</time>
      </trkpt>
      <trkpt lat="45.26733" lon="5.55551">
        <ele>627</ele>
        <time>2012-11-04T11:04:41Z</time>
      </trkpt>
      <trkpt lat="45.26733" lon="5.55552">
        <ele>629</ele>
        <time>2012-11-04T11:04:42Z</time>
      </trkpt>
      <trkpt lat="45.26733" lon="5.55554">
        <ele>628</ele>
        <time>2012-11-04T11:04:43Z</time>
      </trkpt>
      <trkpt lat="45.26733" lon="5.55556">
        <ele>628</ele>
        <time>2012-11-04T11:04:44Z</time>
      </trkpt>
      <trkpt lat="45.26733" lon="5.55557">
        <ele>629</ele>
        <time>2012-11-04T11:04:45Z</time>
      </trkpt>
      <trkpt lat="45.26733" lon="5.55558">
        <ele>629</ele>
        <time>2012-11-04T11:04:46Z</time>
      </trkpt>
      <trkpt lat="45.26733" lon="5.55558">
        <ele>629</ele>
        <time>2012-11-04T11:04:47Z</time>
      </trkpt>
      <trkpt lat="45.26732" lon="5.55559">
        <ele>629</ele>
        <time>2012-11-04T11:04:48Z</time>
      </trkpt>
      <trkpt lat="45.26731" lon="5.55558">
        <ele>630</ele>
        <time>2012-11-04T11:04:49Z</time>
      </trkpt>
      <trkpt lat="45.2673" lon="5.55559">
        <ele>629</ele>
        <time>2012-11-04T11:04:50Z</time>
      </trkpt>
      <trkpt lat="45.2673" lon="5.5556">
        <ele>629</ele>
        <time>2012-11-04T11:04:51Z</time>
      </trkpt>
      <trkpt lat="45.26729" lon="5.55561">
        <ele>630</ele>
        <time>2012-11-04T11:04:52Z</time>
      </trkpt>
      <trkpt lat="45.26728" lon="5.55562">
        <ele>630</ele>
        <time>2012-11-04T11:04:53Z</time>
      </trkpt>
      <trkpt lat="45.26727" lon="5.55564">
        <ele>631</ele>
        <time>2012-11-04T11:04:54Z</time>
      </trkpt>
      <trkpt lat="45.26726" lon="5.55565">
        <ele>630</ele>
        <time>2012-11-04T11:04:55Z</time>
      </trkpt>
      <trkpt lat="45.26726" lon="5.55566">
        <ele>630</ele>
        <time>2012-11-04T11:04:56Z</time>
      </trkpt>
      <trkpt lat="45.26726" lon="5.55567">
        <ele>629</ele>
        <time>2012-11-04T11:04:57Z</time>
      </trkpt>
      <trkpt lat="45.26725" lon="5.55568">
        <ele>628</ele>
        <time>2012-11-04T11:04:58Z</time>
      </trkpt>
      <trkpt lat="45.26725" lon="5.5557">
        <ele>627</ele>
        <time>2012-11-04T11:04:59Z</time>
      </trkpt>
      <trkpt lat="45.26724" lon="5.55572">
        <ele>627</ele>
        <time>2012-11-04T11:05:00Z</time>
      </trkpt>
      <trkpt lat="45.26723" lon="5.55573">
        <ele>628</ele>
        <time>2012-11-04T11:05:01Z</time>
      </trkpt>
      <trkpt lat="45.26723" lon="5.55574">
        <ele>627</ele>
        <time>2012-11-04T11:05:02Z</time>
      </trkpt>
      <trkpt lat="45.26722" lon="5.55575">
        <ele>628</ele>
        <time>2012-11-04T11:05:03Z</time>
      </trkpt>
      <trkpt lat="45.26721" lon="5.55575">
        <ele>628</ele>
        <time>2012-11-04T11:05:04Z</time>
      </trkpt>
      <trkpt lat="45.2672" lon="5.55576">
        <ele>629</ele>
        <time>2012-11-04T11:05:05Z</time>
      </trkpt>
      <trkpt lat="45.26719" lon="5.55576">
        <ele>628</ele>
        <time>2012-11-04T11:05:06Z</time>
      </trkpt>
      <trkpt lat="45.26719" lon="5.55577">
        <ele>628</ele>
        <time>2012-11-04T11:05:07Z</time>
      </trkpt>
      <trkpt lat="45.26718" lon="5.55577">
        <ele>628</ele>
        <time>2012-11-04T11:05:08Z</time>
      </trkpt>
      <trkpt lat="45.26718" lon="5.55577">
        <ele>628</ele>
        <time>2012-11-04T11:05:09Z</time>
      </trkpt>
      <trkpt lat="45.26718" lon="5.55577">
        <ele>629</ele>
        <time>2012-11-04T11:05:10Z</time>
      </trkpt>
      <trkpt lat="45.26718" lon="5.55577">
        <ele>629</ele>
        <time>2012-11-04T11:05:11Z</time>
      </trkpt>
      <trkpt lat="45.26718" lon="5.55577">
        <ele>630</ele>
        <time>2012-11-04T11:05:12Z</time>
      </trkpt>
      <trkpt lat="45.26718" lon="5.55578">
        <ele>630</ele>
        <time>2012-11-04T11:05:13Z</time>
      </trkpt>
      <trkpt lat="45.26718" lon="5.55578">
        <ele>630</ele>
        <time>2012-11-04T11:05:14Z</time>
      </trkpt>
      <trkpt lat="45.26718" lon="5.55578">
        <ele>631</ele>
        <time>2012-11-04T11:05:15Z</time>
      </trkpt>
      <trkpt lat="45.26713" lon="5.55581">
        <ele>631</ele>
        <time>2012-11-04T11:05:16Z</time>
      </trkpt>
      <trkpt lat="45.26713" lon="5.55581">
        <ele>631</ele>
        <time>2012-11-04T11:05:17Z</time>
      </trkpt>
      <trkpt lat="45.26713" lon="5.55581">
        <ele>630</ele>
        <time>2012-11-04T11:05:18Z</time>
      </trkpt>
      <trkpt lat="45.26713" lon="5.55581">
        <ele>631</ele>
        <time>2012-11-04T11:05:19Z</time>
      </trkpt>
      <trkpt lat="45.26713" lon="5.55581">
        <ele>631</ele>
        <time>2012-11-04T11:05:20Z</time>
      </trkpt>
      <trkpt lat="45.26713" lon="5.55581">
        <ele>631</ele>
        <time>2012-11-04T11:05:21Z</time>
      </trkpt>
      <trkpt lat="45.26713" lon="5.55581">
        <ele>631</ele>
        <time>2012-11-04T11:05:22Z</time>
      </trkpt>
      <trkpt lat="45.26709" lon="5.55585">
        <ele>631</ele>
        <time>2012-11-04T11:05:23Z</time>
      </trkpt>
      <trkpt lat="45.26709" lon="5.55585">
        <ele>631</ele>
        <time>2012-11-04T11:05:24Z</time>
      </trkpt>
      <trkpt lat="45.26709" lon="5.55585">
        <ele>631</ele>
        <time>2012-11-04T11:05:25Z</time>
      </trkpt>
      <trkpt lat="45.26709" lon="5.55585">
        <ele>631</ele>
        <time>2012-11-04T11:05:26Z</time>
      </trkpt>
      <trkpt lat="45.26709" lon="5.55585">
        <ele>631</ele>
        <time>2012-11-04T11:05:27Z</time>
      </trkpt>
      <trkpt lat="45.26709" lon="5.55585">
        <ele>631</ele>
        <time>2012-11-04T11:05:28Z</time>
      </trkpt>
      <trkpt lat="45.26709" lon="5.55585">
        <ele>631</ele>
        <time>2012-11-04T11:05:29Z</time>
      </trkpt>
      <trkpt lat="45.26709" lon="5.55585">
        <ele>631</ele>
        <time>2012-11-04T11:05:30Z</time>
      </trkpt>
      <trkpt lat="45.26709" lon="5.55585">
        <ele>631</ele>
        <time>2012-11-04T11:05:31Z</time>
      </trkpt>
      <trkpt lat="45.26709" lon="5.55585">
        <ele>631</ele>
        <time>2012-11-04T11:05:32Z</time>
      </trkpt>
      <trkpt lat="45.26709" lon="5.55585">
        <ele>631</ele>
        <time>2012-11-04T11:05:33Z</time>
      </trkpt>
      <trkpt lat="45.26709" lon="5.55585">
        <ele>631</ele>
        <time>2012-11-04T11:05:34Z</time>
      </trkpt>
      <trkpt lat="45.26709" lon="5.55585">
        <ele>631</ele>
        <time>2012-11-04T11:05:35Z</time>
      </trkpt>
      <trkpt lat="45.26709" lon="5.55585">
        <ele>631</ele>
        <time>2012-11-04T11:05:36Z</time>
      </trkpt>
      <trkpt lat="45.26709" lon="5.55585">
        <ele>631</ele>
        <time>2012-11-04T11:05:37Z</time>
      </trkpt>
      <trkpt lat="45.26709" lon="5.55585">
        <ele>631</ele>
        <time>2012-11-04T11:05:38Z</time>
      </trkpt>
      <trkpt lat="45.26709" lon="5.55585">
        <ele>631</ele>
        <time>2012-11-04T11:05:39Z</time>
      </trkpt>
      <trkpt lat="45.26709" lon="5.55585">
        <ele>631</ele>
        <time>2012-11-04T11:05:40Z</time>
      </trkpt>
      <trkpt lat="45.26709" lon="5.55585">
        <ele>632</ele>
        <time>2012-11-04T11:05:41Z</time>
      </trkpt>
      <trkpt lat="45.26709" lon="5.55585">
        <ele>630</ele>
        <time>2012-11-04T11:05:42Z</time>
      </trkpt>
      <trkpt lat="45.26709" lon="5.55585">
        <ele>631</ele>
        <time>2012-11-04T11:05:43Z</time>
      </trkpt>
      <trkpt lat="45.26709" lon="5.55585">
        <ele>631</ele>
        <time>2012-11-04T11:05:44Z</time>
      </trkpt>
      <trkpt lat="45.26709" lon="5.55585">
        <ele>631</ele>
        <time>2012-11-04T11:05:45Z</time>
      </trkpt>
      <trkpt lat="45.26705" lon="5.55586">
        <ele>631</ele>
        <time>2012-11-04T11:05:46Z</time>
      </trkpt>
      <trkpt lat="45.26705" lon="5.55586">
        <ele>631</ele>
        <time>2012-11-04T11:05:47Z</time>
      </trkpt>
      <trkpt lat="45.26705" lon="5.55586">
        <ele>631</ele>
        <time>2012-11-04T11:05:48Z</time>
      </trkpt>
      <trkpt lat="45.26705" lon="5.55586">
        <ele>632</ele>
        <time>2012-11-04T11:05:49Z</time>
      </trkpt>
      <trkpt lat="45.26705" lon="5.55586">
        <ele>632</ele>
        <time>2012-11-04T11:05:50Z</time>
      </trkpt>
      <trkpt lat="45.26699" lon="5.55586">
        <ele>632</ele>
        <time>2012-11-04T11:05:51Z</time>
      </trkpt>
      <trkpt lat="45.26697" lon="5.55586">
        <ele>631</ele>
        <time>2012-11-04T11:05:52Z</time>
      </trkpt>
      <trkpt lat="45.26696" lon="5.55587">
        <ele>631</ele>
        <time>2012-11-04T11:05:53Z</time>
      </trkpt>
      <trkpt lat="45.26695" lon="5.55587">
        <ele>632</ele>
        <time>2012-11-04T11:05:54Z</time>
      </trkpt>
      <trkpt lat="45.26693" lon="5.55587">
        <ele>633</ele>
        <time>2012-11-04T11:05:55Z</time>
      </trkpt>
      <trkpt lat="45.26692" lon="5.55587">
        <ele>633</ele>
        <time>2012-11-04T11:05:56Z</time>
      </trkpt>
      <trkpt lat="45.2669" lon="5.55586">
        <ele>633</ele>
        <time>2012-11-04T11:05:57Z</time>
      </trkpt>
      <trkpt lat="45.26689" lon="5.55586">
        <ele>634</ele>
        <time>2012-11-04T11:05:58Z</time>
      </trkpt>
      <trkpt lat="45.26688" lon="5.55585">
        <ele>633</ele>
        <time>2012-11-04T11:05:59Z</time>
      </trkpt>
      <trkpt lat="45.26688" lon="5.55585">
        <ele>633</ele>
        <time>2012-11-04T11:06:00Z</time>
      </trkpt>
      <trkpt lat="45.26687" lon="5.55586">
        <ele>634</ele>
        <time>2012-11-04T11:06:01Z</time>
      </trkpt>
      <trkpt lat="45.26686" lon="5.55587">
        <ele>635</ele>
        <time>2012-11-04T11:06:02Z</time>
      </trkpt>
      <trkpt lat="45.26686" lon="5.55588">
        <ele>635</ele>
        <time>2012-11-04T11:06:03Z</time>
      </trkpt>
      <trkpt lat="45.26684" lon="5.55589">
        <ele>639</ele>
        <time>2012-11-04T11:06:04Z</time>
      </trkpt>
      <trkpt lat="45.26682" lon="5.5559">
        <ele>641</ele>
        <time>2012-11-04T11:06:05Z</time>
      </trkpt>
      <trkpt lat="45.2668" lon="5.55591">
        <ele>644</ele>
        <time>2012-11-04T11:06:06Z</time>
      </trkpt>
      <trkpt lat="45.26678" lon="5.55592">
        <ele>645</ele>
        <time>2012-11-04T11:06:07Z</time>
      </trkpt>
      <trkpt lat="45.26676" lon="5.55593">
        <ele>647</ele>
        <time>2012-11-04T11:06:08Z</time>
      </trkpt>
      <trkpt lat="45.26674" lon="5.55593">
        <ele>648</ele>
        <time>2012-11-04T11:06:09Z</time>
      </trkpt>
      <trkpt lat="45.26672" lon="5.55593">
        <ele>649</ele>
        <time>2012-11-04T11:06:10Z</time>
      </trkpt>
      <trkpt lat="45.26671" lon="5.55593">
        <ele>650</ele>
        <time>2012-11-04T11:06:11Z</time>
      </trkpt>
      <trkpt lat="45.26669" lon="5.55593">
        <ele>650</ele>
        <time>2012-11-04T11:06:12Z</time>
      </trkpt>
      <trkpt lat="45.26668" lon="5.55593">
        <ele>650</ele>
        <time>2012-11-04T11:06:13Z</time>
      </trkpt>
      <trkpt lat="45.26667" lon="5.55593">
        <ele>651</ele>
        <time>2012-11-04T11:06:14Z</time>
      </trkpt>
      <trkpt lat="45.26666" lon="5.55593">
        <ele>652</ele>
        <time>2012-11-04T11:06:15Z</time>
      </trkpt>
      <trkpt lat="45.26665" lon="5.55593">
        <ele>655</ele>
        <time>2012-11-04T11:06:16Z</time>
      </trkpt>
      <trkpt lat="45.26665" lon="5.55593">
        <ele>659</ele>
        <time>2012-11-04T11:06:17Z</time>
      </trkpt>
      <trkpt lat="45.26665" lon="5.55593">
        <ele>662</ele>
        <time>2012-11-04T11:06:18Z</time>
      </trkpt>
      <trkpt lat="45.26665" lon="5.55593">
        <ele>664</ele>
        <time>2012-11-04T11:06:19Z</time>
      </trkpt>
      <trkpt lat="45.26665" lon="5.55593">
        <ele>664</ele>
        <time>2012-11-04T11:06:20Z</time>
      </trkpt>
      <trkpt lat="45.26665" lon="5.55593">
        <ele>664</ele>
        <time>2012-11-04T11:06:21Z</time>
      </trkpt>
      <trkpt lat="45.26661" lon="5.55595">
        <ele>664</ele>
        <time>2012-11-04T11:06:22Z</time>
      </trkpt>
      <trkpt lat="45.26661" lon="5.55595">
        <ele>664</ele>
        <time>2012-11-04T11:06:23Z</time>
      </trkpt>
      <trkpt lat="45.26661" lon="5.55595">
        <ele>664</ele>
        <time>2012-11-04T11:06:24Z</time>
      </trkpt>
      <trkpt lat="45.26661" lon="5.55595">
        <ele>664</ele>
        <time>2012-11-04T11:06:25Z</time>
      </trkpt>
      <trkpt lat="45.26661" lon="5.55595">
        <ele>664</ele>
        <time>2012-11-04T11:06:26Z</time>
      </trkpt>
      <trkpt lat="45.26661" lon="5.55595">
        <ele>665</ele>
        <time>2012-11-04T11:06:27Z</time>
      </trkpt>
      <trkpt lat="45.26661" lon="5.55595">
        <ele>665</ele>
        <time>2012-11-04T11:06:28Z</time>
      </trkpt>
      <trkpt lat="45.26661" lon="5.55595">
        <ele>665</ele>
        <time>2012-11-04T11:06:29Z</time>
      </trkpt>
      <trkpt lat="45.26661" lon="5.55595">
        <ele>665</ele>
        <time>2012-11-04T11:06:30Z</time>
      </trkpt>
      <trkpt lat="45.26661" lon="5.55595">
        <ele>665</ele>
        <time>2012-11-04T11:06:31Z</time>
      </trkpt>
      <trkpt lat="45.26661" lon="5.55595">
        <ele>665</ele>
        <time>2012-11-04T11:06:32Z</time>
      </trkpt>
      <trkpt lat="45.26661" lon="5.55595">
        <ele>665</ele>
        <time>2012-11-04T11:06:33Z</time>
      </trkpt>
      <trkpt lat="45.26661" lon="5.55595">
        <ele>665</ele>
        <time>2012-11-04T11:06:34Z</time>
      </trkpt>
      <trkpt lat="45.26661" lon="5.55595">
        <ele>665</ele>
        <time>2012-11-04T11:06:35Z</time>
      </trkpt>
      <trkpt lat="45.26661" lon="5.55595">
        <ele>665</ele>
        <time>2012-11-04T11:06:36Z</time>
      </trkpt>
      <trkpt lat="45.26661" lon="5.55595">
        <ele>665</ele>
        <time>2012-11-04T11:06:37Z</time>
      </trkpt>
      <trkpt lat="45.26661" lon="5.55595">
        <ele>665</ele>
        <time>2012-11-04T11:06:38Z</time>
      </trkpt>
      <trkpt lat="45.26661" lon="5.55595">
        <ele>665</ele>
        <time>2012-11-04T11:06:39Z</time>
      </trkpt>
      <trkpt lat="45.26661" lon="5.55595">
        <ele>665</ele>
        <time>2012-11-04T11:06:40Z</time>
      </trkpt>
      <trkpt lat="45.26661" lon="5.55595">
        <ele>665</ele>
        <time>2012-11-04T11:06:41Z</time>
      </trkpt>
      <trkpt lat="45.26661" lon="5.55595">
        <ele>665</ele>
        <time>2012-11-04T11:06:42Z</time>
      </trkpt>
      <trkpt lat="45.26661" lon="5.55595">
        <ele>664</ele>
        <time>2012-11-04T11:06:43Z</time>
      </trkpt>
      <trkpt lat="45.2666" lon="5.55596">
        <ele>664</ele>
        <time>2012-11-04T11:06:44Z</time>
      </trkpt>
      <trkpt lat="45.26658" lon="5.55599">
        <ele>663</ele>
        <time>2012-11-04T11:06:45Z</time>
      </trkpt>
      <trkpt lat="45.26658" lon="5.556">
        <ele>663</ele>
        <time>2012-11-04T11:06:46Z</time>
      </trkpt>
      <trkpt lat="45.26657" lon="5.55603">
        <ele>659</ele>
        <time>2012-11-04T11:06:47Z</time>
      </trkpt>
      <trkpt lat="45.26657" lon="5.55605">
        <ele>658</ele>
        <time>2012-11-04T11:06:48Z</time>
      </trkpt>
      <trkpt lat="45.26657" lon="5.55608">
        <ele>657</ele>
        <time>2012-11-04T11:06:49Z</time>
      </trkpt>
      <trkpt lat="45.26657" lon="5.5561">
        <ele>656</ele>
        <time>2012-11-04T11:06:50Z</time>
      </trkpt>
      <trkpt lat="45.26657" lon="5.55611">
        <ele>655</ele>
        <time>2012-11-04T11:06:51Z</time>
      </trkpt>
      <trkpt lat="45.26657" lon="5.55613">
        <ele>654</ele>
        <time>2012-11-04T11:06:52Z</time>
      </trkpt>
      <trkpt lat="45.26658" lon="5.55614">
        <ele>655</ele>
        <time>2012-11-04T11:06:53Z</time>
      </trkpt>
      <trkpt lat="45.26658" lon="5.55616">
        <ele>655</ele>
        <time>2012-11-04T11:06:54Z</time>
      </trkpt>
      <trkpt lat="45.26658" lon="5.55618">
        <ele>653</ele>
        <time>2012-11-04T11:06:55Z</time>
      </trkpt>
      <trkpt lat="45.26659" lon="5.55619">
        <ele>653</ele>
        <time>2012-11-04T11:06:56Z</time>
      </trkpt>
      <trkpt lat="45.26659" lon="5.5562">
        <ele>653</ele>
        <time>2012-11-04T11:06:57Z</time>
      </trkpt>
      <trkpt lat="45.26659" lon="5.55621">
        <ele>653</ele>
        <time>2012-11-04T11:06:58Z</time>
      </trkpt>
      <trkpt lat="45.26659" lon="5.55622">
        <ele>652</ele>
        <time>2012-11-04T11:06:59Z</time>
      </trkpt>
      <trkpt lat="45.2666" lon="5.55624">
        <ele>652</ele>
        <time>2012-11-04T11:07:00Z</time>
      </trkpt>
      <trkpt lat="45.2666" lon="5.55625">
        <ele>652</ele>
        <time>2012-11-04T11:07:01Z</time>
      </trkpt>
      <trkpt lat="45.2666" lon="5.55626">
        <ele>651</ele>
        <time>2012-11-04T11:07:02Z</time>
      </trkpt>
      <trkpt lat="45.26661" lon="5.55628">
        <ele>650</ele>
        <time>2012-11-04T11:07:03Z</time>
      </trkpt>
      <trkpt lat="45.26661" lon="5.55629">
        <ele>650</ele>
        <time>2012-11-04T11:07:04Z</time>
      </trkpt>
      <trkpt lat="45.26661" lon="5.55631">
        <ele>650</ele>
        <time>2012-11-04T11:07:05Z</time>
      </trkpt>
      <trkpt lat="45.26661" lon="5.55632">
        <ele>650</ele>
        <time>2012-11-04T11:07:06Z</time>
      </trkpt>
      <trkpt lat="45.26661" lon="5.55634">
        <ele>650</ele>
        <time>2012-11-04T11:07:07Z</time>
      </trkpt>
      <trkpt lat="45.26662" lon="5.55635">
        <ele>652</ele>
        <time>2012-11-04T11:07:08Z</time>
      </trkpt>
      <trkpt lat="45.26662" lon="5.55636">
        <ele>652</ele>
        <time>2012-11-04T11:07:09Z</time>
      </trkpt>
      <trkpt lat="45.26662" lon="5.55638">
        <ele>653</ele>
        <time>2012-11-04T11:07:10Z</time>
      </trkpt>
      <trkpt lat="45.26662" lon="5.55638">
        <ele>652</ele>
        <time>2012-11-04T11:07:11Z</time>
      </trkpt>
      <trkpt lat="45.26663" lon="5.5564">
        <ele>652</ele>
        <time>2012-11-04T11:07:12Z</time>
      </trkpt>
      <trkpt lat="45.26662" lon="5.55641">
        <ele>652</ele>
        <time>2012-11-04T11:07:13Z</time>
      </trkpt>
      <trkpt lat="45.26662" lon="5.55642">
        <ele>653</ele>
        <time>2012-11-04T11:07:14Z</time>
      </trkpt>
      <trkpt lat="45.26661" lon="5.55644">
        <ele>652</ele>
        <time>2012-11-04T11:07:15Z</time>
      </trkpt>
      <trkpt lat="45.26661" lon="5.55644">
        <ele>652</ele>
        <time>2012-11-04T11:07:16Z</time>
      </trkpt>
      <trkpt lat="45.26661" lon="5.55647">
        <ele>651</ele>
        <time>2012-11-04T11:07:17Z</time>
      </trkpt>
      <trkpt lat="45.26662" lon="5.55648">
        <ele>650</ele>
        <time>2012-11-04T11:07:18Z</time>
      </trkpt>
      <trkpt lat="45.26662" lon="5.55649">
        <ele>649</ele>
        <time>2012-11-04T11:07:19Z</time>
      </trkpt>
      <trkpt lat="45.26662" lon="5.55651">
        <ele>649</ele>
        <time>2012-11-04T11:07:20Z</time>
      </trkpt>
      <trkpt lat="45.26662" lon="5.55652">
        <ele>649</ele>
        <time>2012-11-04T11:07:21Z</time>
      </trkpt>
      <trkpt lat="45.26662" lon="5.55653">
        <ele>648</ele>
        <time>2012-11-04T11:07:22Z</time>
      </trkpt>
      <trkpt lat="45.26662" lon="5.55654">
        <ele>648</ele>
        <time>2012-11-04T11:07:23Z</time>
      </trkpt>
      <trkpt lat="45.26661" lon="5.55656">
        <ele>649</ele>
        <time>2012-11-04T11:07:24Z</time>
      </trkpt>
      <trkpt lat="45.26661" lon="5.55657">
        <ele>650</ele>
        <time>2012-11-04T11:07:25Z</time>
      </trkpt>
      <trkpt lat="45.2666" lon="5.55657">
        <ele>650</ele>
        <time>2012-11-04T11:07:26Z</time>
      </trkpt>
      <trkpt lat="45.26659" lon="5.55658">
        <ele>651</ele>
        <time>2012-11-04T11:07:27Z</time>
      </trkpt>
      <trkpt lat="45.26659" lon="5.5566">
        <ele>653</ele>
        <time>2012-11-04T11:07:28Z</time>
      </trkpt>
      <trkpt lat="45.26659" lon="5.55662">
        <ele>655</ele>
        <time>2012-11-04T11:07:29Z</time>
      </trkpt>
      <trkpt lat="45.2666" lon="5.55664">
        <ele>656</ele>
        <time>2012-11-04T11:07:30Z</time>
      </trkpt>
      <trkpt lat="45.26662" lon="5.55667">
        <ele>657</ele>
        <time>2012-11-04T11:07:31Z</time>
      </trkpt>
      <trkpt lat="45.26663" lon="5.55669">
        <ele>658</ele>
        <time>2012-11-04T11:07:32Z</time>
      </trkpt>
      <trkpt lat="45.26664" lon="5.5567">
        <ele>659</ele>
        <time>2012-11-04T11:07:33Z</time>
      </trkpt>
      <trkpt lat="45.26664" lon="5.55671">
        <ele>659</ele>
        <time>2012-11-04T11:07:34Z</time>
      </trkpt>
      <trkpt lat="45.26664" lon="5.55672">
        <ele>659</ele>
        <time>2012-11-04T11:07:35Z</time>
      </trkpt>
      <trkpt lat="45.26665" lon="5.55674">
        <ele>657</ele>
        <time>2012-11-04T11:07:36Z</time>
      </trkpt>
      <trkpt lat="45.26665" lon="5.55676">
        <ele>657</ele>
        <time>2012-11-04T11:07:37Z</time>
      </trkpt>
      <trkpt lat="45.26666" lon="5.55677">
        <ele>656</ele>
        <time>2012-11-04T11:07:38Z</time>
      </trkpt>
      <trkpt lat="45.26667" lon="5.55679">
        <ele>657</ele>
        <time>2012-11-04T11:07:39Z</time>
      </trkpt>
      <trkpt lat="45.26668" lon="5.55681">
        <ele>657</ele>
        <time>2012-11-04T11:07:40Z</time>
      </trkpt>
      <trkpt lat="45.26668" lon="5.55682">
        <ele>657</ele>
        <time>2012-11-04T11:07:41Z</time>
      </trkpt>
      <trkpt lat="45.26669" lon="5.55683">
        <ele>657</ele>
        <time>2012-11-04T11:07:42Z</time>
      </trkpt>
      <trkpt lat="45.2667" lon="5.55684">
        <ele>657</ele>
        <time>2012-11-04T11:07:43Z</time>
      </trkpt>
      <trkpt lat="45.2667" lon="5.55684">
        <ele>657</ele>
        <time>2012-11-04T11:07:44Z</time>
      </trkpt>
      <trkpt lat="45.26671" lon="5.55685">
        <ele>657</ele>
        <time>2012-11-04T11:07:45Z</time>
      </trkpt>
      <trkpt lat="45.26671" lon="5.55685">
        <ele>657</ele>
        <time>2012-11-04T11:07:46Z</time>
      </trkpt>
      <trkpt lat="45.26672" lon="5.55686">
        <ele>657</ele>
        <time>2012-11-04T11:07:47Z</time>
      </trkpt>
      <trkpt lat="45.26672" lon="5.55687">
        <ele>657</ele>
        <time>2012-11-04T11:07:48Z</time>
      </trkpt>
      <trkpt lat="45.26673" lon="5.55688">
        <ele>657</ele>
        <time>2012-11-04T11:07:49Z</time>
      </trkpt>
      <trkpt lat="45.26673" lon="5.55689">
        <ele>657</ele>
        <time>2012-11-04T11:07:50Z</time>
      </trkpt>
      <trkpt lat="45.26674" lon="5.5569">
        <ele>657</ele>
        <time>2012-11-04T11:07:51Z</time>
      </trkpt>
      <trkpt lat="45.26675" lon="5.55691">
        <ele>657</ele>
        <time>2012-11-04T11:07:52Z</time>
      </trkpt>
      <trkpt lat="45.26677" lon="5.55692">
        <ele>657</ele>
        <time>2012-11-04T11:07:53Z</time>
      </trkpt>
      <trkpt lat="45.26678" lon="5.55693">
        <ele>656</ele>
        <time>2012-11-04T11:07:54Z</time>
      </trkpt>
      <trkpt lat="45.2668" lon="5.55695">
        <ele>656</ele>
        <time>2012-11-04T11:07:55Z</time>
      </trkpt>
      <trkpt lat="45.26682" lon="5.55697">
        <ele>657</ele>
        <time>2012-11-04T11:07:56Z</time>
      </trkpt>
      <trkpt lat="45.26683" lon="5.55698">
        <ele>657</ele>
        <time>2012-11-04T11:07:57Z</time>
      </trkpt>
      <trkpt lat="45.26685" lon="5.557">
        <ele>657</ele>
        <time>2012-11-04T11:07:58Z</time>
      </trkpt>
      <trkpt lat="45.26687" lon="5.55702">
        <ele>656</ele>
        <time>2012-11-04T11:07:59Z</time>
      </trkpt>
      <trkpt lat="45.26688" lon="5.55703">
        <ele>656</ele>
        <time>2012-11-04T11:08:00Z</time>
      </trkpt>
      <trkpt lat="45.26689" lon="5.55705">
        <ele>656</ele>
        <time>2012-11-04T11:08:01Z</time>
      </trkpt>
      <trkpt lat="45.2669" lon="5.55706">
        <ele>656</ele>
        <time>2012-11-04T11:08:02Z</time>
      </trkpt>
      <trkpt lat="45.26691" lon="5.55706">
        <ele>655</ele>
        <time>2012-11-04T11:08:03Z</time>
      </trkpt>
      <trkpt lat="45.26692" lon="5.55705">
        <ele>655</ele>
        <time>2012-11-04T11:08:04Z</time>
      </trkpt>
      <trkpt lat="45.26693" lon="5.55705">
        <ele>655</ele>
        <time>2012-11-04T11:08:05Z</time>
      </trkpt>
      <trkpt lat="45.26694" lon="5.55704">
        <ele>655</ele>
        <time>2012-11-04T11:08:06Z</time>
      </trkpt>
      <trkpt lat="45.26695" lon="5.55703">
        <ele>655</ele>
        <time>2012-11-04T11:08:07Z</time>
      </trkpt>
      <trkpt lat="45.26695" lon="5.55702">
        <ele>655</ele>
        <time>2012-11-04T11:08:08Z</time>
      </trkpt>
      <trkpt lat="45.26695" lon="5.55702">
        <ele>655</ele>
        <time>2012-11-04T11:08:09Z</time>
      </trkpt>
      <trkpt lat="45.26698" lon="5.55703">
        <ele>655</ele>
        <time>2012-11-04T11:08:11Z</time>
      </trkpt>
      <trkpt lat="45.26699" lon="5.55703">
        <ele>655</ele>
        <time>2012-11-04T11:08:12Z</time>
      </trkpt>
      <trkpt lat="45.267" lon="5.55703">
        <ele>656</ele>
        <time>2012-11-04T11:08:13Z</time>
      </trkpt>
      <trkpt lat="45.26702" lon="5.55704">
        <ele>656</ele>
        <time>2012-11-04T11:08:14Z</time>
      </trkpt>
      <trkpt lat="45.26703" lon="5.55704">
        <ele>656</ele>
        <time>2012-11-04T11:08:15Z</time>
      </trkpt>
      <trkpt lat="45.26704" lon="5.55704">
        <ele>657</ele>
        <time>2012-11-04T11:08:16Z</time>
      </trkpt>
      <trkpt lat="45.26705" lon="5.55705">
        <ele>657</ele>
        <time>2012-11-04T11:08:17Z</time>
      </trkpt>
      <trkpt lat="45.26706" lon="5.55705">
        <ele>658</ele>
        <time>2012-11-04T11:08:18Z</time>
      </trkpt>
      <trkpt lat="45.26707" lon="5.55705">
        <ele>658</ele>
        <time>2012-11-04T11:08:19Z</time>
      </trkpt>
      <trkpt lat="45.26708" lon="5.55705">
        <ele>658</ele>
        <time>2012-11-04T11:08:20Z</time>
      </trkpt>
      <trkpt lat="45.26708" lon="5.55705">
        <ele>659</ele>
        <time>2012-11-04T11:08:21Z</time>
      </trkpt>
      <trkpt lat="45.26707" lon="5.55706">
        <ele>659</ele>
        <time>2012-11-04T11:08:22Z</time>
      </trkpt>
      <trkpt lat="45.26706" lon="5.55707">
        <ele>657</ele>
        <time>2012-11-04T11:08:23Z</time>
      </trkpt>
      <trkpt lat="45.26706" lon="5.55708">
        <ele>656</ele>
        <time>2012-11-04T11:08:24Z</time>
      </trkpt>
      <trkpt lat="45.26705" lon="5.55709">
        <ele>657</ele>
        <time>2012-11-04T11:08:25Z</time>
      </trkpt>
      <trkpt lat="45.26703" lon="5.55709">
        <ele>656</ele>
        <time>2012-11-04T11:08:26Z</time>
      </trkpt>
      <trkpt lat="45.26703" lon="5.55709">
        <ele>655</ele>
        <time>2012-11-04T11:08:27Z</time>
      </trkpt>
      <trkpt lat="45.26703" lon="5.55709">
        <ele>655</ele>
        <time>2012-11-04T11:08:28Z</time>
      </trkpt>
      <trkpt lat="45.26698" lon="5.55711">
        <ele>655</ele>
        <time>2012-11-04T11:08:29Z</time>
      </trkpt>
      <trkpt lat="45.26698" lon="5.55711">
        <ele>655</ele>
        <time>2012-11-04T11:08:30Z</time>
      </trkpt>
      <trkpt lat="45.26698" lon="5.55711">
        <ele>655</ele>
        <time>2012-11-04T11:08:31Z</time>
      </trkpt>
      <trkpt lat="45.26698" lon="5.55711">
        <ele>654</ele>
        <time>2012-11-04T11:08:32Z</time>
      </trkpt>
      <trkpt lat="45.26698" lon="5.55711">
        <ele>654</ele>
        <time>2012-11-04T11:08:33Z</time>
      </trkpt>
      <trkpt lat="45.26698" lon="5.55711">
        <ele>655</ele>
        <time>2012-11-04T11:08:34Z</time>
      </trkpt>
      <trkpt lat="45.26698" lon="5.55711">
        <ele>655</ele>
        <time>2012-11-04T11:08:35Z</time>
      </trkpt>
      <trkpt lat="45.26698" lon="5.55711">
        <ele>654</ele>
        <time>2012-11-04T11:08:36Z</time>
      </trkpt>
      <trkpt lat="45.26698" lon="5.55711">
        <ele>654</ele>
        <time>2012-11-04T11:08:37Z</time>
      </trkpt>
      <trkpt lat="45.26698" lon="5.55711">
        <ele>654</ele>
        <time>2012-11-04T11:08:38Z</time>
      </trkpt>
      <trkpt lat="45.26694" lon="5.55714">
        <ele>654</ele>
        <time>2012-11-04T11:08:39Z</time>
      </trkpt>
      <trkpt lat="45.26693" lon="5.55715">
        <ele>654</ele>
        <time>2012-11-04T11:08:40Z</time>
      </trkpt>
      <trkpt lat="45.26692" lon="5.55716">
        <ele>652</ele>
        <time>2012-11-04T11:08:41Z</time>
      </trkpt>
      <trkpt lat="45.2669" lon="5.55717">
        <ele>651</ele>
        <time>2012-11-04T11:08:42Z</time>
      </trkpt>
      <trkpt lat="45.26688" lon="5.55719">
        <ele>650</ele>
        <time>2012-11-04T11:08:43Z</time>
      </trkpt>
      <trkpt lat="45.26686" lon="5.55721">
        <ele>647</ele>
        <time>2012-11-04T11:08:44Z</time>
      </trkpt>
      <trkpt lat="45.26684" lon="5.55722">
        <ele>646</ele>
        <time>2012-11-04T11:08:45Z</time>
      </trkpt>
      <trkpt lat="45.26682" lon="5.55724">
        <ele>648</ele>
        <time>2012-11-04T11:08:46Z</time>
      </trkpt>
      <trkpt lat="45.26681" lon="5.55725">
        <ele>647</ele>
        <time>2012-11-04T11:08:47Z</time>
      </trkpt>
      <trkpt lat="45.26679" lon="5.55727">
        <ele>649</ele>
        <time>2012-11-04T11:08:48Z</time>
      </trkpt>
      <trkpt lat="45.26677" lon="5.55728">
        <ele>649</ele>
        <time>2012-11-04T11:08:49Z</time>
      </trkpt>
      <trkpt lat="45.26676" lon="5.5573">
        <ele>650</ele>
        <time>2012-11-04T11:08:50Z</time>
      </trkpt>
      <trkpt lat="45.26674" lon="5.55732">
        <ele>651</ele>
        <time>2012-11-04T11:08:51Z</time>
      </trkpt>
      <trkpt lat="45.26673" lon="5.55734">
        <ele>651</ele>
        <time>2012-11-04T11:08:52Z</time>
      </trkpt>
      <trkpt lat="45.26672" lon="5.55736">
        <ele>651</ele>
        <time>2012-11-04T11:08:53Z</time>
      </trkpt>
      <trkpt lat="45.26672" lon="5.55738">
        <ele>652</ele>
        <time>2012-11-04T11:08:54Z</time>
      </trkpt>
      <trkpt lat="45.26671" lon="5.55739">
        <ele>652</ele>
        <time>2012-11-04T11:08:55Z</time>
      </trkpt>
      <trkpt lat="45.2667" lon="5.55741">
        <ele>653</ele>
        <time>2012-11-04T11:08:56Z</time>
      </trkpt>
      <trkpt lat="45.26668" lon="5.55741">
        <ele>651</ele>
        <time>2012-11-04T11:08:57Z</time>
      </trkpt>
      <trkpt lat="45.26666" lon="5.5574">
        <ele>651</ele>
        <time>2012-11-04T11:08:58Z</time>
      </trkpt>
      <trkpt lat="45.26664" lon="5.55739">
        <ele>651</ele>
        <time>2012-11-04T11:08:59Z</time>
      </trkpt>
      <trkpt lat="45.26662" lon="5.55738">
        <ele>651</ele>
        <time>2012-11-04T11:09:00Z</time>
      </trkpt>
      <trkpt lat="45.2666" lon="5.55737">
        <ele>653</ele>
        <time>2012-11-04T11:09:01Z</time>
      </trkpt>
      <trkpt lat="45.26657" lon="5.55737">
        <ele>653</ele>
        <time>2012-11-04T11:09:02Z</time>
      </trkpt>
      <trkpt lat="45.26655" lon="5.55737">
        <ele>653</ele>
        <time>2012-11-04T11:09:03Z</time>
      </trkpt>
      <trkpt lat="45.26653" lon="5.55738">
        <ele>653</ele>
        <time>2012-11-04T11:09:04Z</time>
      </trkpt>
      <trkpt lat="45.26651" lon="5.55739">
        <ele>654</ele>
        <time>2012-11-04T11:09:05Z</time>
      </trkpt>
      <trkpt lat="45.2665" lon="5.5574">
        <ele>654</ele>
        <time>2012-11-04T11:09:06Z</time>
      </trkpt>
      <trkpt lat="45.26649" lon="5.55741">
        <ele>654</ele>
        <time>2012-11-04T11:09:07Z</time>
      </trkpt>
      <trkpt lat="45.26648" lon="5.55742">
        <ele>654</ele>
        <time>2012-11-04T11:09:08Z</time>
      </trkpt>
      <trkpt lat="45.26646" lon="5.55743">
        <ele>656</ele>
        <time>2012-11-04T11:09:09Z</time>
      </trkpt>
      <trkpt lat="45.26645" lon="5.55744">
        <ele>656</ele>
        <time>2012-11-04T11:09:10Z</time>
      </trkpt>
      <trkpt lat="45.26643" lon="5.55746">
        <ele>657</ele>
        <time>2012-11-04T11:09:11Z</time>
      </trkpt>
      <trkpt lat="45.26642" lon="5.55747">
        <ele>656</ele>
        <time>2012-11-04T11:09:12Z</time>
      </trkpt>
      <trkpt lat="45.26642" lon="5.55749">
        <ele>656</ele>
        <time>2012-11-04T11:09:13Z</time>
      </trkpt>
      <trkpt lat="45.26641" lon="5.55752">
        <ele>655</ele>
        <time>2012-11-04T11:09:14Z</time>
      </trkpt>
      <trkpt lat="45.26641" lon="5.55754">
        <ele>655</ele>
        <time>2012-11-04T11:09:15Z</time>
      </trkpt>
      <trkpt lat="45.2664" lon="5.55756">
        <ele>655</ele>
        <time>2012-11-04T11:09:16Z</time>
      </trkpt>
      <trkpt lat="45.26639" lon="5.55757">
        <ele>656</ele>
        <time>2012-11-04T11:09:17Z</time>
      </trkpt>
      <trkpt lat="45.26638" lon="5.55759">
        <ele>655</ele>
        <time>2012-11-04T11:09:18Z</time>
      </trkpt>
      <trkpt lat="45.26638" lon="5.5576">
        <ele>656</ele>
        <time>2012-11-04T11:09:19Z</time>
      </trkpt>
      <trkpt lat="45.26638" lon="5.55761">
        <ele>656</ele>
        <time>2012-11-04T11:09:20Z</time>
      </trkpt>
      <trkpt lat="45.26638" lon="5.55763">
        <ele>656</ele>
        <time>2012-11-04T11:09:21Z</time>
      </trkpt>
      <trkpt lat="45.26638" lon="5.55764">
        <ele>655</ele>
        <time>2012-11-04T11:09:22Z</time>
      </trkpt>
      <trkpt lat="45.26638" lon="5.55766">
        <ele>655</ele>
        <time>2012-11-04T11:09:23Z</time>
      </trkpt>
      <trkpt lat="45.26639" lon="5.5577">
        <ele>655</ele>
        <time>2012-11-04T11:09:24Z</time>
      </trkpt>
      <trkpt lat="45.26639" lon="5.55772">
        <ele>655</ele>
        <time>2012-11-04T11:09:25Z</time>
      </trkpt>
      <trkpt lat="45.26638" lon="5.55774">
        <ele>654</ele>
        <time>2012-11-04T11:09:26Z</time>
      </trkpt>
      <trkpt lat="45.26638" lon="5.55777">
        <ele>655</ele>
        <time>2012-11-04T11:09:27Z</time>
      </trkpt>
      <trkpt lat="45.26638" lon="5.55779">
        <ele>655</ele>
        <time>2012-11-04T11:09:28Z</time>
      </trkpt>
      <trkpt lat="45.26637" lon="5.55782">
        <ele>656</ele>
        <time>2012-11-04T11:09:29Z</time>
      </trkpt>
      <trkpt lat="45.26637" lon="5.55784">
        <ele>655</ele>
        <time>2012-11-04T11:09:30Z</time>
      </trkpt>
      <trkpt lat="45.26636" lon="5.55787">
        <ele>656</ele>
        <time>2012-11-04T11:09:31Z</time>
      </trkpt>
      <trkpt lat="45.26636" lon="5.55789">
        <ele>656</ele>
        <time>2012-11-04T11:09:32Z</time>
      </trkpt>
      <trkpt lat="45.26635" lon="5.55791">
        <ele>655</ele>
        <time>2012-11-04T11:09:33Z</time>
      </trkpt>
      <trkpt lat="45.26635" lon="5.55792">
        <ele>655</ele>
        <time>2012-11-04T11:09:34Z</time>
      </trkpt>
      <trkpt lat="45.26634" lon="5.55795">
        <ele>654</ele>
        <time>2012-11-04T11:09:35Z</time>
      </trkpt>
      <trkpt lat="45.26634" lon="5.55796">
        <ele>653</ele>
        <time>2012-11-04T11:09:36Z</time>
      </trkpt>
      <trkpt lat="45.26634" lon="5.55798">
        <ele>653</ele>
        <time>2012-11-04T11:09:37Z</time>
      </trkpt>
      <trkpt lat="45.26633" lon="5.55799">
        <ele>653</ele>
        <time>2012-11-04T11:09:38Z</time>
      </trkpt>
      <trkpt lat="45.26633" lon="5.55801">
        <ele>653</ele>
        <time>2012-11-04T11:09:39Z</time>
      </trkpt>
      <trkpt lat="45.26632" lon="5.55802">
        <ele>653</ele>
        <time>2012-11-04T11:09:40Z</time>
      </trkpt>
      <trkpt lat="45.26631" lon="5.55804">
        <ele>653</ele>
        <time>2012-11-04T11:09:41Z</time>
      </trkpt>
      <trkpt lat="45.26631" lon="5.55805">
        <ele>652</ele>
        <time>2012-11-04T11:09:42Z</time>
      </trkpt>
      <trkpt lat="45.2663" lon="5.55807">
        <ele>653</ele>
        <time>2012-11-04T11:09:43Z</time>
      </trkpt>
      <trkpt lat="45.26629" lon="5.55809">
        <ele>654</ele>
        <time>2012-11-04T11:09:44Z</time>
      </trkpt>
      <trkpt lat="45.26628" lon="5.5581">
        <ele>653</ele>
        <time>2012-11-04T11:09:45Z</time>
      </trkpt>
      <trkpt lat="45.26627" lon="5.55811">
        <ele>654</ele>
        <time>2012-11-04T11:09:46Z</time>
      </trkpt>
      <trkpt lat="45.26626" lon="5.55812">
        <ele>653</ele>
        <time>2012-11-04T11:09:47Z</time>
      </trkpt>
      <trkpt lat="45.26625" lon="5.55813">
        <ele>654</ele>
        <time>2012-11-04T11:09:48Z</time>
      </trkpt>
      <trkpt lat="45.26623" lon="5.55814">
        <ele>654</ele>
        <time>2012-11-04T11:09:49Z</time>
      </trkpt>
      <trkpt lat="45.26622" lon="5.55815">
        <ele>654</ele>
        <time>2012-11-04T11:09:50Z</time>
      </trkpt>
      <trkpt lat="45.26621" lon="5.55816">
        <ele>653</ele>
        <time>2012-11-04T11:09:51Z</time>
      </trkpt>
      <trkpt lat="45.2662" lon="5.55818">
        <ele>653</ele>
        <time>2012-11-04T11:09:52Z</time>
      </trkpt>
      <trkpt lat="45.26619" lon="5.5582">
        <ele>653</ele>
        <time>2012-11-04T11:09:53Z</time>
      </trkpt>
      <trkpt lat="45.26619" lon="5.55823">
        <ele>654</ele>
        <time>2012-11-04T11:09:54Z</time>
      </trkpt>
      <trkpt lat="45.26618" lon="5.55824">
        <ele>654</ele>
        <time>2012-11-04T11:09:55Z</time>
      </trkpt>
      <trkpt lat="45.26618" lon="5.55826">
        <ele>654</ele>
        <time>2012-11-04T11:09:56Z</time>
      </trkpt>
      <trkpt lat="45.26618" lon="5.55828">
        <ele>655</ele>
        <time>2012-11-04T11:09:57Z</time>
      </trkpt>
      <trkpt lat="45.26618" lon="5.55831">
        <ele>654</ele>
        <time>2012-11-04T11:09:58Z</time>
      </trkpt>
      <trkpt lat="45.26618" lon="5.55833">
        <ele>655</ele>
        <time>2012-11-04T11:09:59Z</time>
      </trkpt>
      <trkpt lat="45.26617" lon="5.55835">
        <ele>655</ele>
        <time>2012-11-04T11:10:00Z</time>
      </trkpt>
      <trkpt lat="45.26617" lon="5.55838">
        <ele>656</ele>
        <time>2012-11-04T11:10:01Z</time>
      </trkpt>
      <trkpt lat="45.26618" lon="5.55841">
        <ele>656</ele>
        <time>2012-11-04T11:10:02Z</time>
      </trkpt>
      <trkpt lat="45.26617" lon="5.55844">
        <ele>656</ele>
        <time>2012-11-04T11:10:03Z</time>
      </trkpt>
      <trkpt lat="45.26616" lon="5.55846">
        <ele>656</ele>
        <time>2012-11-04T11:10:04Z</time>
      </trkpt>
      <trkpt lat="45.26616" lon="5.55849">
        <ele>657</ele>
        <time>2012-11-04T11:10:05Z</time>
      </trkpt>
      <trkpt lat="45.26615" lon="5.55851">
        <ele>658</ele>
        <time>2012-11-04T11:10:06Z</time>
      </trkpt>
      <trkpt lat="45.26614" lon="5.55854">
        <ele>657</ele>
        <time>2012-11-04T11:10:07Z</time>
      </trkpt>
      <trkpt lat="45.26613" lon="5.55855">
        <ele>658</ele>
        <time>2012-11-04T11:10:08Z</time>
      </trkpt>
      <trkpt lat="45.26612" lon="5.55857">
        <ele>657</ele>
        <time>2012-11-04T11:10:09Z</time>
      </trkpt>
      <trkpt lat="45.26611" lon="5.55859">
        <ele>659</ele>
        <time>2012-11-04T11:10:10Z</time>
      </trkpt>
      <trkpt lat="45.2661" lon="5.5586">
        <ele>659</ele>
        <time>2012-11-04T11:10:11Z</time>
      </trkpt>
      <trkpt lat="45.2661" lon="5.55861">
        <ele>660</ele>
        <time>2012-11-04T11:10:12Z</time>
      </trkpt>
      <trkpt lat="45.2661" lon="5.55862">
        <ele>660</ele>
        <time>2012-11-04T11:10:13Z</time>
      </trkpt>
      <trkpt lat="45.2661" lon="5.55863">
        <ele>659</ele>
        <time>2012-11-04T11:10:14Z</time>
      </trkpt>
      <trkpt lat="45.2661" lon="5.55865">
        <ele>659</ele>
        <time>2012-11-04T11:10:15Z</time>
      </trkpt>
      <trkpt lat="45.2661" lon="5.55866">
        <ele>658</ele>
        <time>2012-11-04T11:10:16Z</time>
      </trkpt>
      <trkpt lat="45.2661" lon="5.55868">
        <ele>660</ele>
        <time>2012-11-04T11:10:17Z</time>
      </trkpt>
      <trkpt lat="45.2661" lon="5.55869">
        <ele>660</ele>
        <time>2012-11-04T11:10:18Z</time>
      </trkpt>
      <trkpt lat="45.26611" lon="5.55873">
        <ele>655</ele>
        <time>2012-11-04T11:10:19Z</time>
      </trkpt>
      <trkpt lat="45.2661" lon="5.55874">
        <ele>655</ele>
        <time>2012-11-04T11:10:20Z</time>
      </trkpt>
      <trkpt lat="45.2661" lon="5.55876">
        <ele>656</ele>
        <time>2012-11-04T11:10:21Z</time>
      </trkpt>
      <trkpt lat="45.2661" lon="5.55877">
        <ele>656</ele>
        <time>2012-11-04T11:10:22Z</time>
      </trkpt>
      <trkpt lat="45.2661" lon="5.55879">
        <ele>657</ele>
        <time>2012-11-04T11:10:23Z</time>
      </trkpt>
      <trkpt lat="45.26609" lon="5.55881">
        <ele>658</ele>
        <time>2012-11-04T11:10:24Z</time>
      </trkpt>
      <trkpt lat="45.26608" lon="5.55883">
        <ele>659</ele>
        <time>2012-11-04T11:10:25Z</time>
      </trkpt>
      <trkpt lat="45.26608" lon="5.55885">
        <ele>659</ele>
        <time>2012-11-04T11:10:26Z</time>
      </trkpt>
      <trkpt lat="45.26608" lon="5.55887">
        <ele>659</ele>
        <time>2012-11-04T11:10:27Z</time>
      </trkpt>
      <trkpt lat="45.26607" lon="5.5589">
        <ele>659</ele>
        <time>2012-11-04T11:10:28Z</time>
      </trkpt>
      <trkpt lat="45.26607" lon="5.55893">
        <ele>660</ele>
        <time>2012-11-04T11:10:29Z</time>
      </trkpt>
      <trkpt lat="45.26607" lon="5.55896">
        <ele>660</ele>
        <time>2012-11-04T11:10:30Z</time>
      </trkpt>
      <trkpt lat="45.26607" lon="5.559">
        <ele>661</ele>
        <time>2012-11-04T11:10:31Z</time>
      </trkpt>
      <trkpt lat="45.26607" lon="5.55903">
        <ele>661</ele>
        <time>2012-11-04T11:10:32Z</time>
      </trkpt>
      <trkpt lat="45.26607" lon="5.55906">
        <ele>660</ele>
        <time>2012-11-04T11:10:33Z</time>
      </trkpt>
      <trkpt lat="45.26606" lon="5.55909">
        <ele>660</ele>
        <time>2012-11-04T11:10:34Z</time>
      </trkpt>
      <trkpt lat="45.26605" lon="5.55911">
        <ele>660</ele>
        <time>2012-11-04T11:10:35Z</time>
      </trkpt>
      <trkpt lat="45.26605" lon="5.55914">
        <ele>659</ele>
        <time>2012-11-04T11:10:36Z</time>
      </trkpt>
      <trkpt lat="45.26604" lon="5.55916">
        <ele>660</ele>
        <time>2012-11-04T11:10:37Z</time>
      </trkpt>
      <trkpt lat="45.26604" lon="5.55918">
        <ele>660</ele>
        <time>2012-11-04T11:10:38Z</time>
      </trkpt>
      <trkpt lat="45.26604" lon="5.55919">
        <ele>660</ele>
        <time>2012-11-04T11:10:39Z</time>
      </trkpt>
      <trkpt lat="45.26604" lon="5.5592">
        <ele>659</ele>
        <time>2012-11-04T11:10:40Z</time>
      </trkpt>
      <trkpt lat="45.26604" lon="5.55922">
        <ele>660</ele>
        <time>2012-11-04T11:10:41Z</time>
      </trkpt>
      <trkpt lat="45.26605" lon="5.55924">
        <ele>660</ele>
        <time>2012-11-04T11:10:42Z</time>
      </trkpt>
      <trkpt lat="45.26606" lon="5.55926">
        <ele>660</ele>
        <time>2012-11-04T11:10:43Z</time>
      </trkpt>
      <trkpt lat="45.26607" lon="5.55929">
        <ele>661</ele>
        <time>2012-11-04T11:10:44Z</time>
      </trkpt>
      <trkpt lat="45.26608" lon="5.55931">
        <ele>661</ele>
        <time>2012-11-04T11:10:45Z</time>
      </trkpt>
      <trkpt lat="45.26608" lon="5.55934">
        <ele>664</ele>
        <time>2012-11-04T11:10:46Z</time>
      </trkpt>
      <trkpt lat="45.26609" lon="5.55937">
        <ele>664</ele>
        <time>2012-11-04T11:10:47Z</time>
      </trkpt>
      <trkpt lat="45.26609" lon="5.55938">
        <ele>663</ele>
        <time>2012-11-04T11:10:48Z</time>
      </trkpt>
      <trkpt lat="45.2661" lon="5.5594">
        <ele>664</ele>
        <time>2012-11-04T11:10:49Z</time>
      </trkpt>
      <trkpt lat="45.26611" lon="5.55942">
        <ele>665</ele>
        <time>2012-11-04T11:10:50Z</time>
      </trkpt>
      <trkpt lat="45.26611" lon="5.55943">
        <ele>665</ele>
        <time>2012-11-04T11:10:51Z</time>
      </trkpt>
      <trkpt lat="45.26612" lon="5.55944">
        <ele>665</ele>
        <time>2012-11-04T11:10:52Z</time>
      </trkpt>
      <trkpt lat="45.26612" lon="5.55945">
        <ele>665</ele>
        <time>2012-11-04T11:10:53Z</time>
      </trkpt>
      <trkpt lat="45.26612" lon="5.55946">
        <ele>666</ele>
        <time>2012-11-04T11:10:54Z</time>
      </trkpt>
      <trkpt lat="45.26612" lon="5.55948">
        <ele>666</ele>
        <time>2012-11-04T11:10:55Z</time>
      </trkpt>
      <trkpt lat="45.26612" lon="5.55949">
        <ele>667</ele>
        <time>2012-11-04T11:10:56Z</time>
      </trkpt>
      <trkpt lat="45.26613" lon="5.55951">
        <ele>668</ele>
        <time>2012-11-04T11:10:57Z</time>
      </trkpt>
      <trkpt lat="45.26612" lon="5.55953">
        <ele>668</ele>
        <time>2012-11-04T11:10:58Z</time>
      </trkpt>
      <trkpt lat="45.26612" lon="5.55955">
        <ele>668</ele>
        <time>2012-11-04T11:10:59Z</time>
      </trkpt>
      <trkpt lat="45.26612" lon="5.55957">
        <ele>669</ele>
        <time>2012-11-04T11:11:00Z</time>
      </trkpt>
      <trkpt lat="45.26611" lon="5.55959">
        <ele>669</ele>
        <time>2012-11-04T11:11:01Z</time>
      </trkpt>
      <trkpt lat="45.2661" lon="5.55961">
        <ele>669</ele>
        <time>2012-11-04T11:11:02Z</time>
      </trkpt>
      <trkpt lat="45.2661" lon="5.55963">
        <ele>668</ele>
        <time>2012-11-04T11:11:03Z</time>
      </trkpt>
      <trkpt lat="45.2661" lon="5.55965">
        <ele>668</ele>
        <time>2012-11-04T11:11:04Z</time>
      </trkpt>
      <trkpt lat="45.2661" lon="5.55966">
        <ele>668</ele>
        <time>2012-11-04T11:11:05Z</time>
      </trkpt>
      <trkpt lat="45.2661" lon="5.55967">
        <ele>669</ele>
        <time>2012-11-04T11:11:06Z</time>
      </trkpt>
      <trkpt lat="45.2661" lon="5.55969">
        <ele>669</ele>
        <time>2012-11-04T11:11:07Z</time>
      </trkpt>
      <trkpt lat="45.2661" lon="5.5597">
        <ele>669</ele>
        <time>2012-11-04T11:11:08Z</time>
      </trkpt>
      <trkpt lat="45.2661" lon="5.55971">
        <ele>668</ele>
        <time>2012-11-04T11:11:09Z</time>
      </trkpt>
      <trkpt lat="45.2661" lon="5.55972">
        <ele>669</ele>
        <time>2012-11-04T11:11:10Z</time>
      </trkpt>
      <trkpt lat="45.26611" lon="5.55974">
        <ele>669</ele>
        <time>2012-11-04T11:11:11Z</time>
      </trkpt>
      <trkpt lat="45.26611" lon="5.55975">
        <ele>669</ele>
        <time>2012-11-04T11:11:12Z</time>
      </trkpt>
      <trkpt lat="45.26611" lon="5.55976">
        <ele>669</ele>
        <time>2012-11-04T11:11:13Z</time>
      </trkpt>
      <trkpt lat="45.26612" lon="5.55976">
        <ele>670</ele>
        <time>2012-11-04T11:11:14Z</time>
      </trkpt>
      <trkpt lat="45.26612" lon="5.55978">
        <ele>669</ele>
        <time>2012-11-04T11:11:15Z</time>
      </trkpt>
      <trkpt lat="45.26612" lon="5.55979">
        <ele>669</ele>
        <time>2012-11-04T11:11:16Z</time>
      </trkpt>
      <trkpt lat="45.26612" lon="5.5598">
        <ele>669</ele>
        <time>2012-11-04T11:11:17Z</time>
      </trkpt>
      <trkpt lat="45.26613" lon="5.55981">
        <ele>670</ele>
        <time>2012-11-04T11:11:18Z</time>
      </trkpt>
      <trkpt lat="45.26613" lon="5.55983">
        <ele>670</ele>
        <time>2012-11-04T11:11:19Z</time>
      </trkpt>
      <trkpt lat="45.26613" lon="5.55985">
        <ele>670</ele>
        <time>2012-11-04T11:11:20Z</time>
      </trkpt>
      <trkpt lat="45.26613" lon="5.55987">
        <ele>671</ele>
        <time>2012-11-04T11:11:21Z</time>
      </trkpt>
      <trkpt lat="45.26614" lon="5.55989">
        <ele>671</ele>
        <time>2012-11-04T11:11:22Z</time>
      </trkpt>
      <trkpt lat="45.26615" lon="5.55991">
        <ele>671</ele>
        <time>2012-11-04T11:11:23Z</time>
      </trkpt>
      <trkpt lat="45.26616" lon="5.55993">
        <ele>671</ele>
        <time>2012-11-04T11:11:24Z</time>
      </trkpt>
      <trkpt lat="45.26617" lon="5.55995">
        <ele>671</ele>
        <time>2012-11-04T11:11:25Z</time>
      </trkpt>
      <trkpt lat="45.26617" lon="5.55996">
        <ele>670</ele>
        <time>2012-11-04T11:11:26Z</time>
      </trkpt>
      <trkpt lat="45.26618" lon="5.55997">
        <ele>670</ele>
        <time>2012-11-04T11:11:27Z</time>
      </trkpt>
      <trkpt lat="45.26619" lon="5.55998">
        <ele>670</ele>
        <time>2012-11-04T11:11:28Z</time>
      </trkpt>
      <trkpt lat="45.26619" lon="5.55999">
        <ele>670</ele>
        <time>2012-11-04T11:11:29Z</time>
      </trkpt>
      <trkpt lat="45.2662" lon="5.55999">
        <ele>670</ele>
        <time>2012-11-04T11:11:30Z</time>
      </trkpt>
      <trkpt lat="45.2662" lon="5.56">
        <ele>670</ele>
        <time>2012-11-04T11:11:31Z</time>
      </trkpt>
      <trkpt lat="45.2662" lon="5.56002">
        <ele>670</ele>
        <time>2012-11-04T11:11:32Z</time>
      </trkpt>
      <trkpt lat="45.26619" lon="5.56003">
        <ele>671</ele>
        <time>2012-11-04T11:11:33Z</time>
      </trkpt>
      <trkpt lat="45.2662" lon="5.56004">
        <ele>671</ele>
        <time>2012-11-04T11:11:34Z</time>
      </trkpt>
      <trkpt lat="45.2662" lon="5.56006">
        <ele>671</ele>
        <time>2012-11-04T11:11:35Z</time>
      </trkpt>
      <trkpt lat="45.2662" lon="5.56007">
        <ele>671</ele>
        <time>2012-11-04T11:11:36Z</time>
      </trkpt>
      <trkpt lat="45.2662" lon="5.56008">
        <ele>672</ele>
        <time>2012-11-04T11:11:37Z</time>
      </trkpt>
      <trkpt lat="45.2662" lon="5.56008">
        <ele>673</ele>
        <time>2012-11-04T11:11:38Z</time>
      </trkpt>
      <trkpt lat="45.26621" lon="5.56009">
        <ele>673</ele>
        <time>2012-11-04T11:11:39Z</time>
      </trkpt>
      <trkpt lat="45.26621" lon="5.5601">
        <ele>673</ele>
        <time>2012-11-04T11:11:40Z</time>
      </trkpt>
      <trkpt lat="45.26621" lon="5.56011">
        <ele>673</ele>
        <time>2012-11-04T11:11:41Z</time>
      </trkpt>
      <trkpt lat="45.26621" lon="5.56011">
        <ele>673</ele>
        <time>2012-11-04T11:11:42Z</time>
      </trkpt>
      <trkpt lat="45.26621" lon="5.56012">
        <ele>673</ele>
        <time>2012-11-04T11:11:43Z</time>
      </trkpt>
      <trkpt lat="45.26621" lon="5.56013">
        <ele>673</ele>
        <time>2012-11-04T11:11:44Z</time>
      </trkpt>
      <trkpt lat="45.26621" lon="5.56013">
        <ele>674</ele>
        <time>2012-11-04T11:11:45Z</time>
      </trkpt>
      <trkpt lat="45.26622" lon="5.56014">
        <ele>674</ele>
        <time>2012-11-04T11:11:46Z</time>
      </trkpt>
      <trkpt lat="45.26622" lon="5.56015">
        <ele>676</ele>
        <time>2012-11-04T11:11:47Z</time>
      </trkpt>
      <trkpt lat="45.26622" lon="5.56016">
        <ele>677</ele>
        <time>2012-11-04T11:11:48Z</time>
      </trkpt>
      <trkpt lat="45.26622" lon="5.56018">
        <ele>676</ele>
        <time>2012-11-04T11:11:49Z</time>
      </trkpt>
      <trkpt lat="45.26622" lon="5.56019">
        <ele>678</ele>
        <time>2012-11-04T11:11:50Z</time>
      </trkpt>
      <trkpt lat="45.26623" lon="5.56021">
        <ele>679</ele>
        <time>2012-11-04T11:11:51Z</time>
      </trkpt>
      <trkpt lat="45.26623" lon="5.56023">
        <ele>679</ele>
        <time>2012-11-04T11:11:52Z</time>
      </trkpt>
      <trkpt lat="45.26623" lon="5.56024">
        <ele>679</ele>
        <time>2012-11-04T11:11:53Z</time>
      </trkpt>
      <trkpt lat="45.26623" lon="5.56025">
        <ele>680</ele>
        <time>2012-11-04T11:11:54Z</time>
      </trkpt>
      <trkpt lat="45.26623" lon="5.56026">
        <ele>679</ele>
        <time>2012-11-04T11:11:55Z</time>
      </trkpt>
      <trkpt lat="45.26623" lon="5.56027">
        <ele>680</ele>
        <time>2012-11-04T11:11:56Z</time>
      </trkpt>
      <trkpt lat="45.26623" lon="5.56028">
        <ele>680</ele>
        <time>2012-11-04T11:11:57Z</time>
      </trkpt>
      <trkpt lat="45.26623" lon="5.56029">
        <ele>680</ele>
        <time>2012-11-04T11:11:58Z</time>
      </trkpt>
      <trkpt lat="45.26623" lon="5.5603">
        <ele>680</ele>
        <time>2012-11-04T11:11:59Z</time>
      </trkpt>
      <trkpt lat="45.26623" lon="5.56031">
        <ele>680</ele>
        <time>2012-11-04T11:12:00Z</time>
      </trkpt>
      <trkpt lat="45.26623" lon="5.56032">
        <ele>681</ele>
        <time>2012-11-04T11:12:01Z</time>
      </trkpt>
      <trkpt lat="45.26622" lon="5.56033">
        <ele>680</ele>
        <time>2012-11-04T11:12:02Z</time>
      </trkpt>
      <trkpt lat="45.26622" lon="5.56034">
        <ele>681</ele>
        <time>2012-11-04T11:12:03Z</time>
      </trkpt>
      <trkpt lat="45.26622" lon="5.56035">
        <ele>681</ele>
        <time>2012-11-04T11:12:04Z</time>
      </trkpt>
      <trkpt lat="45.26622" lon="5.56037">
        <ele>682</ele>
        <time>2012-11-04T11:12:05Z</time>
      </trkpt>
      <trkpt lat="45.26622" lon="5.56038">
        <ele>683</ele>
        <time>2012-11-04T11:12:06Z</time>
      </trkpt>
      <trkpt lat="45.26622" lon="5.56039">
        <ele>683</ele>
        <time>2012-11-04T11:12:07Z</time>
      </trkpt>
      <trkpt lat="45.26621" lon="5.5604">
        <ele>682</ele>
        <time>2012-11-04T11:12:08Z</time>
      </trkpt>
      <trkpt lat="45.26621" lon="5.56042">
        <ele>681</ele>
        <time>2012-11-04T11:12:09Z</time>
      </trkpt>
      <trkpt lat="45.26621" lon="5.56043">
        <ele>680</ele>
        <time>2012-11-04T11:12:10Z</time>
      </trkpt>
      <trkpt lat="45.2662" lon="5.56045">
        <ele>680</ele>
        <time>2012-11-04T11:12:11Z</time>
      </trkpt>
      <trkpt lat="45.2662" lon="5.56046">
        <ele>683</ele>
        <time>2012-11-04T11:12:12Z</time>
      </trkpt>
      <trkpt lat="45.26619" lon="5.56047">
        <ele>683</ele>
        <time>2012-11-04T11:12:13Z</time>
      </trkpt>
      <trkpt lat="45.26619" lon="5.56048">
        <ele>683</ele>
        <time>2012-11-04T11:12:14Z</time>
      </trkpt>
      <trkpt lat="45.26619" lon="5.56048">
        <ele>684</ele>
        <time>2012-11-04T11:12:15Z</time>
      </trkpt>
      <trkpt lat="45.26619" lon="5.56049">
        <ele>683</ele>
        <time>2012-11-04T11:12:16Z</time>
      </trkpt>
      <trkpt lat="45.26619" lon="5.56049">
        <ele>683</ele>
        <time>2012-11-04T11:12:17Z</time>
      </trkpt>
      <trkpt lat="45.26618" lon="5.5605">
        <ele>683</ele>
        <time>2012-11-04T11:12:18Z</time>
      </trkpt>
      <trkpt lat="45.26618" lon="5.56051">
        <ele>681</ele>
        <time>2012-11-04T11:12:19Z</time>
      </trkpt>
      <trkpt lat="45.26618" lon="5.56052">
        <ele>683</ele>
        <time>2012-11-04T11:12:20Z</time>
      </trkpt>
      <trkpt lat="45.26617" lon="5.56053">
        <ele>683</ele>
        <time>2012-11-04T11:12:21Z</time>
      </trkpt>
      <trkpt lat="45.26617" lon="5.56053">
        <ele>684</ele>
        <time>2012-11-04T11:12:22Z</time>
      </trkpt>
      <trkpt lat="45.26617" lon="5.56054">
        <ele>684</ele>
        <time>2012-11-04T11:12:23Z</time>
      </trkpt>
      <trkpt lat="45.26616" lon="5.56054">
        <ele>684</ele>
        <time>2012-11-04T11:12:24Z</time>
      </trkpt>
      <trkpt lat="45.26616" lon="5.56055">
        <ele>684</ele>
        <time>2012-11-04T11:12:25Z</time>
      </trkpt>
      <trkpt lat="45.26616" lon="5.56056">
        <ele>684</ele>
        <time>2012-11-04T11:12:26Z</time>
      </trkpt>
      <trkpt lat="45.26616" lon="5.56058">
        <ele>685</ele>
        <time>2012-11-04T11:12:27Z</time>
      </trkpt>
      <trkpt lat="45.26616" lon="5.5606">
        <ele>684</ele>
        <time>2012-11-04T11:12:28Z</time>
      </trkpt>
      <trkpt lat="45.26616" lon="5.56061">
        <ele>685</ele>
        <time>2012-11-04T11:12:29Z</time>
      </trkpt>
      <trkpt lat="45.26616" lon="5.56063">
        <ele>686</ele>
        <time>2012-11-04T11:12:30Z</time>
      </trkpt>
      <trkpt lat="45.26616" lon="5.56064">
        <ele>686</ele>
        <time>2012-11-04T11:12:31Z</time>
      </trkpt>
      <trkpt lat="45.26617" lon="5.56065">
        <ele>686</ele>
        <time>2012-11-04T11:12:32Z</time>
      </trkpt>
      <trkpt lat="45.26616" lon="5.56067">
        <ele>686</ele>
        <time>2012-11-04T11:12:33Z</time>
      </trkpt>
      <trkpt lat="45.26616" lon="5.56068">
        <ele>685</ele>
        <time>2012-11-04T11:12:34Z</time>
      </trkpt>
      <trkpt lat="45.26614" lon="5.56069">
        <ele>687</ele>
        <time>2012-11-04T11:12:35Z</time>
      </trkpt>
      <trkpt lat="45.26613" lon="5.56069">
        <ele>688</ele>
        <time>2012-11-04T11:12:36Z</time>
      </trkpt>
      <trkpt lat="45.26611" lon="5.56069">
        <ele>688</ele>
        <time>2012-11-04T11:12:37Z</time>
      </trkpt>
      <trkpt lat="45.26609" lon="5.5607">
        <ele>687</ele>
        <time>2012-11-04T11:12:38Z</time>
      </trkpt>
      <trkpt lat="45.26608" lon="5.5607">
        <ele>688</ele>
        <time>2012-11-04T11:12:39Z</time>
      </trkpt>
      <trkpt lat="45.26607" lon="5.5607">
        <ele>688</ele>
        <time>2012-11-04T11:12:40Z</time>
      </trkpt>
      <trkpt lat="45.26606" lon="5.5607">
        <ele>688</ele>
        <time>2012-11-04T11:12:41Z</time>
      </trkpt>
      <trkpt lat="45.26605" lon="5.56071">
        <ele>688</ele>
        <time>2012-11-04T11:12:42Z</time>
      </trkpt>
      <trkpt lat="45.26603" lon="5.56072">
        <ele>689</ele>
        <time>2012-11-04T11:12:43Z</time>
      </trkpt>
      <trkpt lat="45.26602" lon="5.56072">
        <ele>689</ele>
        <time>2012-11-04T11:12:44Z</time>
      </trkpt>
      <trkpt lat="45.26601" lon="5.56073">
        <ele>689</ele>
        <time>2012-11-04T11:12:45Z</time>
      </trkpt>
      <trkpt lat="45.266" lon="5.56073">
        <ele>689</ele>
        <time>2012-11-04T11:12:46Z</time>
      </trkpt>
      <trkpt lat="45.266" lon="5.56074">
        <ele>689</ele>
        <time>2012-11-04T11:12:47Z</time>
      </trkpt>
      <trkpt lat="45.26599" lon="5.56074">
        <ele>689</ele>
        <time>2012-11-04T11:12:48Z</time>
      </trkpt>
      <trkpt lat="45.26598" lon="5.56075">
        <ele>689</ele>
        <time>2012-11-04T11:12:49Z</time>
      </trkpt>
      <trkpt lat="45.26598" lon="5.56075">
        <ele>688</ele>
        <time>2012-11-04T11:12:50Z</time>
      </trkpt>
      <trkpt lat="45.26597" lon="5.56076">
        <ele>687</ele>
        <time>2012-11-04T11:12:51Z</time>
      </trkpt>
      <trkpt lat="45.26596" lon="5.56076">
        <ele>688</ele>
        <time>2012-11-04T11:12:52Z</time>
      </trkpt>
      <trkpt lat="45.26595" lon="5.56077">
        <ele>687</ele>
        <time>2012-11-04T11:12:53Z</time>
      </trkpt>
      <trkpt lat="45.26594" lon="5.56077">
        <ele>688</ele>
        <time>2012-11-04T11:12:54Z</time>
      </trkpt>
      <trkpt lat="45.26593" lon="5.56078">
        <ele>688</ele>
        <time>2012-11-04T11:12:55Z</time>
      </trkpt>
      <trkpt lat="45.26592" lon="5.56078">
        <ele>690</ele>
        <time>2012-11-04T11:12:56Z</time>
      </trkpt>
      <trkpt lat="45.26592" lon="5.56078">
        <ele>691</ele>
        <time>2012-11-04T11:12:57Z</time>
      </trkpt>
      <trkpt lat="45.26591" lon="5.56078">
        <ele>691</ele>
        <time>2012-11-04T11:12:58Z</time>
      </trkpt>
      <trkpt lat="45.2659" lon="5.56078">
        <ele>691</ele>
        <time>2012-11-04T11:12:59Z</time>
      </trkpt>
      <trkpt lat="45.2659" lon="5.56078">
        <ele>692</ele>
        <time>2012-11-04T11:13:00Z</time>
      </trkpt>
      <trkpt lat="45.26589" lon="5.56078">
        <ele>693</ele>
        <time>2012-11-04T11:13:01Z</time>
      </trkpt>
      <trkpt lat="45.26588" lon="5.56078">
        <ele>693</ele>
        <time>2012-11-04T11:13:02Z</time>
      </trkpt>
      <trkpt lat="45.26587" lon="5.56078">
        <ele>693</ele>
        <time>2012-11-04T11:13:03Z</time>
      </trkpt>
      <trkpt lat="45.26586" lon="5.56078">
        <ele>693</ele>
        <time>2012-11-04T11:13:04Z</time>
      </trkpt>
      <trkpt lat="45.26585" lon="5.56078">
        <ele>695</ele>
        <time>2012-11-04T11:13:05Z</time>
      </trkpt>
      <trkpt lat="45.26584" lon="5.56078">
        <ele>695</ele>
        <time>2012-11-04T11:13:06Z</time>
      </trkpt>
      <trkpt lat="45.26582" lon="5.56077">
        <ele>695</ele>
        <time>2012-11-04T11:13:07Z</time>
      </trkpt>
      <trkpt lat="45.26581" lon="5.56077">
        <ele>695</ele>
        <time>2012-11-04T11:13:08Z</time>
      </trkpt>
      <trkpt lat="45.2658" lon="5.56077">
        <ele>695</ele>
        <time>2012-11-04T11:13:09Z</time>
      </trkpt>
      <trkpt lat="45.26579" lon="5.56077">
        <ele>696</ele>
        <time>2012-11-04T11:13:10Z</time>
      </trkpt>
      <trkpt lat="45.26578" lon="5.56077">
        <ele>696</ele>
        <time>2012-11-04T11:13:11Z</time>
      </trkpt>
      <trkpt lat="45.26577" lon="5.56077">
        <ele>696</ele>
        <time>2012-11-04T11:13:12Z</time>
      </trkpt>
      <trkpt lat="45.26576" lon="5.56077">
        <ele>696</ele>
        <time>2012-11-04T11:13:13Z</time>
      </trkpt>
      <trkpt lat="45.26575" lon="5.56078">
        <ele>696</ele>
        <time>2012-11-04T11:13:14Z</time>
      </trkpt>
      <trkpt lat="45.26574" lon="5.56078">
        <ele>696</ele>
        <time>2012-11-04T11:13:15Z</time>
      </trkpt>
      <trkpt lat="45.26573" lon="5.56079">
        <ele>696</ele>
        <time>2012-11-04T11:13:16Z</time>
      </trkpt>
      <trkpt lat="45.26571" lon="5.56079">
        <ele>696</ele>
        <time>2012-11-04T11:13:17Z</time>
      </trkpt>
      <trkpt lat="45.2657" lon="5.5608">
        <ele>695</ele>
        <time>2012-11-04T11:13:18Z</time>
      </trkpt>
      <trkpt lat="45.26569" lon="5.5608">
        <ele>696</ele>
        <time>2012-11-04T11:13:19Z</time>
      </trkpt>
      <trkpt lat="45.26568" lon="5.56081">
        <ele>696</ele>
        <time>2012-11-04T11:13:20Z</time>
      </trkpt>
      <trkpt lat="45.26567" lon="5.56083">
        <ele>697</ele>
        <time>2012-11-04T11:13:21Z</time>
      </trkpt>
      <trkpt lat="45.26566" lon="5.56085">
        <ele>698</ele>
        <time>2012-11-04T11:13:22Z</time>
      </trkpt>
      <trkpt lat="45.26565" lon="5.56087">
        <ele>698</ele>
        <time>2012-11-04T11:13:23Z</time>
      </trkpt>
      <trkpt lat="45.26564" lon="5.56089">
        <ele>697</ele>
        <time>2012-11-04T11:13:24Z</time>
      </trkpt>
      <trkpt lat="45.26563" lon="5.56091">
        <ele>698</ele>
        <time>2012-11-04T11:13:25Z</time>
      </trkpt>
      <trkpt lat="45.26561" lon="5.56093">
        <ele>699</ele>
        <time>2012-11-04T11:13:26Z</time>
      </trkpt>
      <trkpt lat="45.2656" lon="5.56095">
        <ele>699</ele>
        <time>2012-11-04T11:13:27Z</time>
      </trkpt>
      <trkpt lat="45.26559" lon="5.56097">
        <ele>695</ele>
        <time>2012-11-04T11:13:28Z</time>
      </trkpt>
      <trkpt lat="45.26558" lon="5.56099">
        <ele>693</ele>
        <time>2012-11-04T11:13:29Z</time>
      </trkpt>
      <trkpt lat="45.26557" lon="5.561">
        <ele>692</ele>
        <time>2012-11-04T11:13:30Z</time>
      </trkpt>
      <trkpt lat="45.26556" lon="5.561">
        <ele>691</ele>
        <time>2012-11-04T11:13:31Z</time>
      </trkpt>
      <trkpt lat="45.26555" lon="5.56102">
        <ele>690</ele>
        <time>2012-11-04T11:13:32Z</time>
      </trkpt>
      <trkpt lat="45.26555" lon="5.56103">
        <ele>691</ele>
        <time>2012-11-04T11:13:33Z</time>
      </trkpt>
      <trkpt lat="45.26554" lon="5.56104">
        <ele>691</ele>
        <time>2012-11-04T11:13:34Z</time>
      </trkpt>
      <trkpt lat="45.26553" lon="5.56105">
        <ele>689</ele>
        <time>2012-11-04T11:13:35Z</time>
      </trkpt>
      <trkpt lat="45.26553" lon="5.56106">
        <ele>688</ele>
        <time>2012-11-04T11:13:36Z</time>
      </trkpt>
      <trkpt lat="45.26553" lon="5.56106">
        <ele>688</ele>
        <time>2012-11-04T11:13:37Z</time>
      </trkpt>
      <trkpt lat="45.26552" lon="5.56106">
        <ele>687</ele>
        <time>2012-11-04T11:13:38Z</time>
      </trkpt>
      <trkpt lat="45.26551" lon="5.56107">
        <ele>687</ele>
        <time>2012-11-04T11:13:39Z</time>
      </trkpt>
      <trkpt lat="45.26551" lon="5.56108">
        <ele>687</ele>
        <time>2012-11-04T11:13:40Z</time>
      </trkpt>
      <trkpt lat="45.2655" lon="5.56109">
        <ele>687</ele>
        <time>2012-11-04T11:13:41Z</time>
      </trkpt>
      <trkpt lat="45.2655" lon="5.5611">
        <ele>687</ele>
        <time>2012-11-04T11:13:42Z</time>
      </trkpt>
      <trkpt lat="45.2655" lon="5.5611">
        <ele>687</ele>
        <time>2012-11-04T11:13:43Z</time>
      </trkpt>
      <trkpt lat="45.2655" lon="5.5611">
        <ele>687</ele>
        <time>2012-11-04T11:13:44Z</time>
      </trkpt>
      <trkpt lat="45.2655" lon="5.5611">
        <ele>685</ele>
        <time>2012-11-04T11:13:45Z</time>
      </trkpt>
      <trkpt lat="45.2655" lon="5.5611">
        <ele>685</ele>
        <time>2012-11-04T11:13:46Z</time>
      </trkpt>
      <trkpt lat="45.2655" lon="5.5611">
        <ele>685</ele>
        <time>2012-11-04T11:13:47Z</time>
      </trkpt>
      <trkpt lat="45.2655" lon="5.5611">
        <ele>685</ele>
        <time>2012-11-04T11:13:48Z</time>
      </trkpt>
      <trkpt lat="45.2655" lon="5.5611">
        <ele>685</ele>
        <time>2012-11-04T11:13:49Z</time>
      </trkpt>
      <trkpt lat="45.2655" lon="5.5611">
        <ele>685</ele>
        <time>2012-11-04T11:13:50Z</time>
      </trkpt>
      <trkpt lat="45.2655" lon="5.5611">
        <ele>685</ele>
        <time>2012-11-04T11:13:51Z</time>
      </trkpt>
      <trkpt lat="45.26546" lon="5.56114">
        <ele>686</ele>
        <time>2012-11-04T11:13:52Z</time>
      </trkpt>
      <trkpt lat="45.26546" lon="5.56114">
        <ele>685</ele>
        <time>2012-11-04T11:13:53Z</time>
      </trkpt>
      <trkpt lat="45.26546" lon="5.56114">
        <ele>685</ele>
        <time>2012-11-04T11:13:54Z</time>
      </trkpt>
      <trkpt lat="45.26546" lon="5.56114">
        <ele>685</ele>
        <time>2012-11-04T11:13:55Z</time>
      </trkpt>
      <trkpt lat="45.26546" lon="5.56114">
        <ele>686</ele>
        <time>2012-11-04T11:13:56Z</time>
      </trkpt>
      <trkpt lat="45.26543" lon="5.56115">
        <ele>685</ele>
        <time>2012-11-04T11:13:57Z</time>
      </trkpt>
      <trkpt lat="45.26542" lon="5.56116">
        <ele>684</ele>
        <time>2012-11-04T11:13:58Z</time>
      </trkpt>
      <trkpt lat="45.2654" lon="5.56117">
        <ele>684</ele>
        <time>2012-11-04T11:13:59Z</time>
      </trkpt>
      <trkpt lat="45.26538" lon="5.56118">
        <ele>684</ele>
        <time>2012-11-04T11:14:00Z</time>
      </trkpt>
      <trkpt lat="45.26536" lon="5.56119">
        <ele>683</ele>
        <time>2012-11-04T11:14:01Z</time>
      </trkpt>
      <trkpt lat="45.26534" lon="5.5612">
        <ele>684</ele>
        <time>2012-11-04T11:14:02Z</time>
      </trkpt>
      <trkpt lat="45.26532" lon="5.56122">
        <ele>684</ele>
        <time>2012-11-04T11:14:03Z</time>
      </trkpt>
      <trkpt lat="45.2653" lon="5.56123">
        <ele>684</ele>
        <time>2012-11-04T11:14:04Z</time>
      </trkpt>
      <trkpt lat="45.26528" lon="5.56124">
        <ele>684</ele>
        <time>2012-11-04T11:14:05Z</time>
      </trkpt>
      <trkpt lat="45.26526" lon="5.56125">
        <ele>684</ele>
        <time>2012-11-04T11:14:06Z</time>
      </trkpt>
      <trkpt lat="45.26524" lon="5.56126">
        <ele>684</ele>
        <time>2012-11-04T11:14:07Z</time>
      </trkpt>
      <trkpt lat="45.26522" lon="5.56126">
        <ele>684</ele>
        <time>2012-11-04T11:14:08Z</time>
      </trkpt>
      <trkpt lat="45.2652" lon="5.56127">
        <ele>684</ele>
        <time>2012-11-04T11:14:09Z</time>
      </trkpt>
      <trkpt lat="45.26519" lon="5.56127">
        <ele>685</ele>
        <time>2012-11-04T11:14:10Z</time>
      </trkpt>
      <trkpt lat="45.26517" lon="5.56129">
        <ele>685</ele>
        <time>2012-11-04T11:14:11Z</time>
      </trkpt>
      <trkpt lat="45.26515" lon="5.5613">
        <ele>686</ele>
        <time>2012-11-04T11:14:12Z</time>
      </trkpt>
      <trkpt lat="45.26513" lon="5.56131">
        <ele>685</ele>
        <time>2012-11-04T11:14:13Z</time>
      </trkpt>
      <trkpt lat="45.26511" lon="5.56132">
        <ele>685</ele>
        <time>2012-11-04T11:14:14Z</time>
      </trkpt>
      <trkpt lat="45.26509" lon="5.56133">
        <ele>687</ele>
        <time>2012-11-04T11:14:15Z</time>
      </trkpt>
      <trkpt lat="45.26508" lon="5.56134">
        <ele>685</ele>
        <time>2012-11-04T11:14:16Z</time>
      </trkpt>
      <trkpt lat="45.26506" lon="5.56134">
        <ele>684</ele>
        <time>2012-11-04T11:14:17Z</time>
      </trkpt>
      <trkpt lat="45.26505" lon="5.56135">
        <ele>683</ele>
        <time>2012-11-04T11:14:18Z</time>
      </trkpt>
      <trkpt lat="45.26504" lon="5.56136">
        <ele>686</ele>
        <time>2012-11-04T11:14:19Z</time>
      </trkpt>
      <trkpt lat="45.26503" lon="5.56138">
        <ele>687</ele>
        <time>2012-11-04T11:14:20Z</time>
      </trkpt>
      <trkpt lat="45.26502" lon="5.56139">
        <ele>687</ele>
        <time>2012-11-04T11:14:21Z</time>
      </trkpt>
      <trkpt lat="45.26501" lon="5.56141">
        <ele>687</ele>
        <time>2012-11-04T11:14:22Z</time>
      </trkpt>
      <trkpt lat="45.265" lon="5.56142">
        <ele>687</ele>
        <time>2012-11-04T11:14:23Z</time>
      </trkpt>
      <trkpt lat="45.26499" lon="5.56144">
        <ele>690</ele>
        <time>2012-11-04T11:14:24Z</time>
      </trkpt>
      <trkpt lat="45.26498" lon="5.56146">
        <ele>690</ele>
        <time>2012-11-04T11:14:25Z</time>
      </trkpt>
      <trkpt lat="45.26497" lon="5.56149">
        <ele>689</ele>
        <time>2012-11-04T11:14:26Z</time>
      </trkpt>
      <trkpt lat="45.26496" lon="5.56152">
        <ele>689</ele>
        <time>2012-11-04T11:14:27Z</time>
      </trkpt>
      <trkpt lat="45.26496" lon="5.56154">
        <ele>688</ele>
        <time>2012-11-04T11:14:28Z</time>
      </trkpt>
      <trkpt lat="45.26496" lon="5.56156">
        <ele>689</ele>
        <time>2012-11-04T11:14:29Z</time>
      </trkpt>
      <trkpt lat="45.26496" lon="5.56159">
        <ele>688</ele>
        <time>2012-11-04T11:14:30Z</time>
      </trkpt>
      <trkpt lat="45.26496" lon="5.56159">
        <ele>688</ele>
        <time>2012-11-04T11:14:31Z</time>
      </trkpt>
      <trkpt lat="45.26496" lon="5.56159">
        <ele>688</ele>
        <time>2012-11-04T11:14:32Z</time>
      </trkpt>
      <trkpt lat="45.26496" lon="5.56159">
        <ele>688</ele>
        <time>2012-11-04T11:14:33Z</time>
      </trkpt>
      <trkpt lat="45.26495" lon="5.56165">
        <ele>688</ele>
        <time>2012-11-04T11:14:34Z</time>
      </trkpt>
      <trkpt lat="45.26495" lon="5.56165">
        <ele>688</ele>
        <time>2012-11-04T11:14:35Z</time>
      </trkpt>
      <trkpt lat="45.26495" lon="5.56169">
        <ele>688</ele>
        <time>2012-11-04T11:14:36Z</time>
      </trkpt>
      <trkpt lat="45.26495" lon="5.5617">
        <ele>688</ele>
        <time>2012-11-04T11:14:37Z</time>
      </trkpt>
      <trkpt lat="45.26495" lon="5.56173">
        <ele>688</ele>
        <time>2012-11-04T11:14:38Z</time>
      </trkpt>
      <trkpt lat="45.26494" lon="5.56177">
        <ele>687</ele>
        <time>2012-11-04T11:14:39Z</time>
      </trkpt>
      <trkpt lat="45.26493" lon="5.56181">
        <ele>687</ele>
        <time>2012-11-04T11:14:40Z</time>
      </trkpt>
      <trkpt lat="45.26492" lon="5.56185">
        <ele>687</ele>
        <time>2012-11-04T11:14:41Z</time>
      </trkpt>
      <trkpt lat="45.26491" lon="5.56189">
        <ele>687</ele>
        <time>2012-11-04T11:14:42Z</time>
      </trkpt>
      <trkpt lat="45.26491" lon="5.56193">
        <ele>688</ele>
        <time>2012-11-04T11:14:43Z</time>
      </trkpt>
      <trkpt lat="45.26491" lon="5.56197">
        <ele>688</ele>
        <time>2012-11-04T11:14:44Z</time>
      </trkpt>
      <trkpt lat="45.2649" lon="5.562">
        <ele>688</ele>
        <time>2012-11-04T11:14:45Z</time>
      </trkpt>
      <trkpt lat="45.2649" lon="5.56204">
        <ele>687</ele>
        <time>2012-11-04T11:14:46Z</time>
      </trkpt>
      <trkpt lat="45.26489" lon="5.56207">
        <ele>687</ele>
        <time>2012-11-04T11:14:47Z</time>
      </trkpt>
      <trkpt lat="45.26487" lon="5.56211">
        <ele>687</ele>
        <time>2012-11-04T11:14:48Z</time>
      </trkpt>
      <trkpt lat="45.26484" lon="5.56215">
        <ele>686</ele>
        <time>2012-11-04T11:14:49Z</time>
      </trkpt>
      <trkpt lat="45.2648" lon="5.56218">
        <ele>685</ele>
        <time>2012-11-04T11:14:50Z</time>
      </trkpt>
      <trkpt lat="45.26477" lon="5.56221">
        <ele>685</ele>
        <time>2012-11-04T11:14:51Z</time>
      </trkpt>
      <trkpt lat="45.26474" lon="5.56224">
        <ele>684</ele>
        <time>2012-11-04T11:14:52Z</time>
      </trkpt>
      <trkpt lat="45.26471" lon="5.56227">
        <ele>684</ele>
        <time>2012-11-04T11:14:53Z</time>
      </trkpt>
      <trkpt lat="45.26468" lon="5.5623">
        <ele>684</ele>
        <time>2012-11-04T11:14:54Z</time>
      </trkpt>
      <trkpt lat="45.26466" lon="5.56233">
        <ele>684</ele>
        <time>2012-11-04T11:14:55Z</time>
      </trkpt>
      <trkpt lat="45.26464" lon="5.56235">
        <ele>685</ele>
        <time>2012-11-04T11:14:56Z</time>
      </trkpt>
      <trkpt lat="45.26462" lon="5.56239">
        <ele>684</ele>
        <time>2012-11-04T11:14:57Z</time>
      </trkpt>
      <trkpt lat="45.2646" lon="5.56242">
        <ele>683</ele>
        <time>2012-11-04T11:14:58Z</time>
      </trkpt>
      <trkpt lat="45.26458" lon="5.56244">
        <ele>683</ele>
        <time>2012-11-04T11:14:59Z</time>
      </trkpt>
      <trkpt lat="45.26456" lon="5.56246">
        <ele>683</ele>
        <time>2012-11-04T11:15:00Z</time>
      </trkpt>
      <trkpt lat="45.26453" lon="5.56249">
        <ele>682</ele>
        <time>2012-11-04T11:15:01Z</time>
      </trkpt>
      <trkpt lat="45.2645" lon="5.56251">
        <ele>681</ele>
        <time>2012-11-04T11:15:02Z</time>
      </trkpt>
      <trkpt lat="45.26447" lon="5.56253">
        <ele>681</ele>
        <time>2012-11-04T11:15:03Z</time>
      </trkpt>
      <trkpt lat="45.26445" lon="5.56256">
        <ele>687</ele>
        <time>2012-11-04T11:15:04Z</time>
      </trkpt>
      <trkpt lat="45.26443" lon="5.56258">
        <ele>689</ele>
        <time>2012-11-04T11:15:05Z</time>
      </trkpt>
      <trkpt lat="45.26441" lon="5.56262">
        <ele>689</ele>
        <time>2012-11-04T11:15:06Z</time>
      </trkpt>
      <trkpt lat="45.2644" lon="5.56265">
        <ele>690</ele>
        <time>2012-11-04T11:15:07Z</time>
      </trkpt>
      <trkpt lat="45.26439" lon="5.56269">
        <ele>688</ele>
        <time>2012-11-04T11:15:08Z</time>
      </trkpt>
      <trkpt lat="45.26437" lon="5.56272">
        <ele>684</ele>
        <time>2012-11-04T11:15:09Z</time>
      </trkpt>
      <trkpt lat="45.26436" lon="5.56276">
        <ele>683</ele>
        <time>2012-11-04T11:15:10Z</time>
      </trkpt>
      <trkpt lat="45.26435" lon="5.5628">
        <ele>686</ele>
        <time>2012-11-04T11:15:11Z</time>
      </trkpt>
      <trkpt lat="45.26434" lon="5.56282">
        <ele>687</ele>
        <time>2012-11-04T11:15:12Z</time>
      </trkpt>
      <trkpt lat="45.26433" lon="5.56287">
        <ele>687</ele>
        <time>2012-11-04T11:15:13Z</time>
      </trkpt>
      <trkpt lat="45.26433" lon="5.56292">
        <ele>686</ele>
        <time>2012-11-04T11:15:14Z</time>
      </trkpt>
      <trkpt lat="45.26432" lon="5.56297">
        <ele>685</ele>
        <time>2012-11-04T11:15:15Z</time>
      </trkpt>
      <trkpt lat="45.26432" lon="5.56302">
        <ele>685</ele>
        <time>2012-11-04T11:15:16Z</time>
      </trkpt>
      <trkpt lat="45.26431" lon="5.56306">
        <ele>683</ele>
        <time>2012-11-04T11:15:17Z</time>
      </trkpt>
      <trkpt lat="45.2643" lon="5.56311">
        <ele>679</ele>
        <time>2012-11-04T11:15:18Z</time>
      </trkpt>
      <trkpt lat="45.26428" lon="5.56316">
        <ele>677</ele>
        <time>2012-11-04T11:15:19Z</time>
      </trkpt>
      <trkpt lat="45.26426" lon="5.5632">
        <ele>675</ele>
        <time>2012-11-04T11:15:20Z</time>
      </trkpt>
      <trkpt lat="45.26424" lon="5.56323">
        <ele>673</ele>
        <time>2012-11-04T11:15:21Z</time>
      </trkpt>
      <trkpt lat="45.26423" lon="5.56326">
        <ele>672</ele>
        <time>2012-11-04T11:15:22Z</time>
      </trkpt>
      <trkpt lat="45.26421" lon="5.56329">
        <ele>672</ele>
        <time>2012-11-04T11:15:23Z</time>
      </trkpt>
      <trkpt lat="45.26419" lon="5.56332">
        <ele>673</ele>
        <time>2012-11-04T11:15:24Z</time>
      </trkpt>
      <trkpt lat="45.26417" lon="5.56335">
        <ele>672</ele>
        <time>2012-11-04T11:15:25Z</time>
      </trkpt>
      <trkpt lat="45.26415" lon="5.56338">
        <ele>672</ele>
        <time>2012-11-04T11:15:26Z</time>
      </trkpt>
      <trkpt lat="45.26412" lon="5.56341">
        <ele>672</ele>
        <time>2012-11-04T11:15:27Z</time>
      </trkpt>
      <trkpt lat="45.26409" lon="5.56345">
        <ele>671</ele>
        <time>2012-11-04T11:15:28Z</time>
      </trkpt>
      <trkpt lat="45.26407" lon="5.56348">
        <ele>667</ele>
        <time>2012-11-04T11:15:29Z</time>
      </trkpt>
      <trkpt lat="45.26405" lon="5.56351">
        <ele>666</ele>
        <time>2012-11-04T11:15:30Z</time>
      </trkpt>
      <trkpt lat="45.26403" lon="5.56354">
        <ele>665</ele>
        <time>2012-11-04T11:15:31Z</time>
      </trkpt>
      <trkpt lat="45.26401" lon="5.56356">
        <ele>666</ele>
        <time>2012-11-04T11:15:32Z</time>
      </trkpt>
      <trkpt lat="45.264" lon="5.56359">
        <ele>667</ele>
        <time>2012-11-04T11:15:33Z</time>
      </trkpt>
      <trkpt lat="45.26399" lon="5.56362">
        <ele>667</ele>
        <time>2012-11-04T11:15:34Z</time>
      </trkpt>
      <trkpt lat="45.26398" lon="5.56363">
        <ele>670</ele>
        <time>2012-11-04T11:15:35Z</time>
      </trkpt>
      <trkpt lat="45.26398" lon="5.56365">
        <ele>669</ele>
        <time>2012-11-04T11:15:36Z</time>
      </trkpt>
      <trkpt lat="45.26398" lon="5.56366">
        <ele>665</ele>
        <time>2012-11-04T11:15:37Z</time>
      </trkpt>
      <trkpt lat="45.26398" lon="5.56368">
        <ele>663</ele>
        <time>2012-11-04T11:15:38Z</time>
      </trkpt>
      <trkpt lat="45.26398" lon="5.56368">
        <ele>663</ele>
        <time>2012-11-04T11:15:39Z</time>
      </trkpt>
      <trkpt lat="45.26398" lon="5.56369">
        <ele>664</ele>
        <time>2012-11-04T11:15:40Z</time>
      </trkpt>
      <trkpt lat="45.26398" lon="5.56371">
        <ele>664</ele>
        <time>2012-11-04T11:15:41Z</time>
      </trkpt>
      <trkpt lat="45.26399" lon="5.56374">
        <ele>657</ele>
        <time>2012-11-04T11:15:42Z</time>
      </trkpt>
      <trkpt lat="45.264" lon="5.56378">
        <ele>656</ele>
        <time>2012-11-04T11:15:43Z</time>
      </trkpt>
      <trkpt lat="45.264" lon="5.56381">
        <ele>654</ele>
        <time>2012-11-04T11:15:44Z</time>
      </trkpt>
      <trkpt lat="45.26402" lon="5.56386">
        <ele>654</ele>
        <time>2012-11-04T11:15:45Z</time>
      </trkpt>
      <trkpt lat="45.26404" lon="5.56391">
        <ele>653</ele>
        <time>2012-11-04T11:15:46Z</time>
      </trkpt>
      <trkpt lat="45.26406" lon="5.56396">
        <ele>653</ele>
        <time>2012-11-04T11:15:47Z</time>
      </trkpt>
      <trkpt lat="45.26408" lon="5.564">
        <ele>653</ele>
        <time>2012-11-04T11:15:48Z</time>
      </trkpt>
      <trkpt lat="45.26412" lon="5.56406">
        <ele>654</ele>
        <time>2012-11-04T11:15:49Z</time>
      </trkpt>
      <trkpt lat="45.26415" lon="5.5641">
        <ele>653</ele>
        <time>2012-11-04T11:15:50Z</time>
      </trkpt>
      <trkpt lat="45.26416" lon="5.56414">
        <ele>652</ele>
        <time>2012-11-04T11:15:51Z</time>
      </trkpt>
      <trkpt lat="45.26416" lon="5.56417">
        <ele>652</ele>
        <time>2012-11-04T11:15:52Z</time>
      </trkpt>
      <trkpt lat="45.26416" lon="5.5642">
        <ele>652</ele>
        <time>2012-11-04T11:15:53Z</time>
      </trkpt>
      <trkpt lat="45.26414" lon="5.56424">
        <ele>651</ele>
        <time>2012-11-04T11:15:54Z</time>
      </trkpt>
      <trkpt lat="45.26413" lon="5.56427">
        <ele>652</ele>
        <time>2012-11-04T11:15:55Z</time>
      </trkpt>
      <trkpt lat="45.26413" lon="5.56431">
        <ele>652</ele>
        <time>2012-11-04T11:15:56Z</time>
      </trkpt>
      <trkpt lat="45.26412" lon="5.56434">
        <ele>653</ele>
        <time>2012-11-04T11:15:57Z</time>
      </trkpt>
      <trkpt lat="45.26412" lon="5.56438">
        <ele>654</ele>
        <time>2012-11-04T11:15:58Z</time>
      </trkpt>
      <trkpt lat="45.26411" lon="5.56441">
        <ele>654</ele>
        <time>2012-11-04T11:15:59Z</time>
      </trkpt>
      <trkpt lat="45.26411" lon="5.56445">
        <ele>654</ele>
        <time>2012-11-04T11:16:00Z</time>
      </trkpt>
      <trkpt lat="45.2641" lon="5.56448">
        <ele>655</ele>
        <time>2012-11-04T11:16:01Z</time>
      </trkpt>
      <trkpt lat="45.2641" lon="5.56452">
        <ele>656</ele>
        <time>2012-11-04T11:16:02Z</time>
      </trkpt>
      <trkpt lat="45.26411" lon="5.56456">
        <ele>657</ele>
        <time>2012-11-04T11:16:03Z</time>
      </trkpt>
      <trkpt lat="45.2641" lon="5.5646">
        <ele>658</ele>
        <time>2012-11-04T11:16:04Z</time>
      </trkpt>
      <trkpt lat="45.26411" lon="5.56463">
        <ele>657</ele>
        <time>2012-11-04T11:16:05Z</time>
      </trkpt>
      <trkpt lat="45.26411" lon="5.56466">
        <ele>657</ele>
        <time>2012-11-04T11:16:06Z</time>
      </trkpt>
      <trkpt lat="45.26412" lon="5.56468">
        <ele>658</ele>
        <time>2012-11-04T11:16:07Z</time>
      </trkpt>
      <trkpt lat="45.26412" lon="5.5647">
        <ele>658</ele>
        <time>2012-11-04T11:16:08Z</time>
      </trkpt>
      <trkpt lat="45.26412" lon="5.56472">
        <ele>659</ele>
        <time>2012-11-04T11:16:09Z</time>
      </trkpt>
      <trkpt lat="45.26412" lon="5.56474">
        <ele>660</ele>
        <time>2012-11-04T11:16:10Z</time>
      </trkpt>
      <trkpt lat="45.26412" lon="5.56476">
        <ele>660</ele>
        <time>2012-11-04T11:16:11Z</time>
      </trkpt>
      <trkpt lat="45.26413" lon="5.56478">
        <ele>660</ele>
        <time>2012-11-04T11:16:12Z</time>
      </trkpt>
      <trkpt lat="45.26413" lon="5.56478">
        <ele>662</ele>
        <time>2012-11-04T11:16:13Z</time>
      </trkpt>
      <trkpt lat="45.26413" lon="5.56478">
        <ele>662</ele>
        <time>2012-11-04T11:16:14Z</time>
      </trkpt>
      <trkpt lat="45.26413" lon="5.56478">
        <ele>662</ele>
        <time>2012-11-04T11:16:15Z</time>
      </trkpt>
      <trkpt lat="45.26413" lon="5.56478">
        <ele>662</ele>
        <time>2012-11-04T11:16:16Z</time>
      </trkpt>
      <trkpt lat="45.26413" lon="5.56478">
        <ele>662</ele>
        <time>2012-11-04T11:16:17Z</time>
      </trkpt>
      <trkpt lat="45.26414" lon="5.56484">
        <ele>662</ele>
        <time>2012-11-04T11:16:18Z</time>
      </trkpt>
      <trkpt lat="45.26415" lon="5.56485">
        <ele>662</ele>
        <time>2012-11-04T11:16:19Z</time>
      </trkpt>
      <trkpt lat="45.26414" lon="5.56488">
        <ele>665</ele>
        <time>2012-11-04T11:16:20Z</time>
      </trkpt>
      <trkpt lat="45.26414" lon="5.56491">
        <ele>667</ele>
        <time>2012-11-04T11:16:21Z</time>
      </trkpt>
      <trkpt lat="45.26414" lon="5.56493">
        <ele>669</ele>
        <time>2012-11-04T11:16:22Z</time>
      </trkpt>
      <trkpt lat="45.26414" lon="5.56496">
        <ele>670</ele>
        <time>2012-11-04T11:16:23Z</time>
      </trkpt>
      <trkpt lat="45.26413" lon="5.56499">
        <ele>670</ele>
        <time>2012-11-04T11:16:24Z</time>
      </trkpt>
      <trkpt lat="45.26413" lon="5.56501">
        <ele>670</ele>
        <time>2012-11-04T11:16:25Z</time>
      </trkpt>
      <trkpt lat="45.26413" lon="5.56505">
        <ele>671</ele>
        <time>2012-11-04T11:16:26Z</time>
      </trkpt>
      <trkpt lat="45.26413" lon="5.56509">
        <ele>671</ele>
        <time>2012-11-04T11:16:27Z</time>
      </trkpt>
      <trkpt lat="45.26413" lon="5.56512">
        <ele>670</ele>
        <time>2012-11-04T11:16:28Z</time>
      </trkpt>
      <trkpt lat="45.26413" lon="5.56514">
        <ele>671</ele>
        <time>2012-11-04T11:16:29Z</time>
      </trkpt>
      <trkpt lat="45.26413" lon="5.56516">
        <ele>673</ele>
        <time>2012-11-04T11:16:30Z</time>
      </trkpt>
      <trkpt lat="45.26413" lon="5.56517">
        <ele>673</ele>
        <time>2012-11-04T11:16:31Z</time>
      </trkpt>
      <trkpt lat="45.26413" lon="5.56519">
        <ele>673</ele>
        <time>2012-11-04T11:16:32Z</time>
      </trkpt>
      <trkpt lat="45.26413" lon="5.56521">
        <ele>673</ele>
        <time>2012-11-04T11:16:33Z</time>
      </trkpt>
      <trkpt lat="45.26413" lon="5.56523">
        <ele>674</ele>
        <time>2012-11-04T11:16:34Z</time>
      </trkpt>
      <trkpt lat="45.26413" lon="5.56526">
        <ele>674</ele>
        <time>2012-11-04T11:16:35Z</time>
      </trkpt>
      <trkpt lat="45.26412" lon="5.56529">
        <ele>674</ele>
        <time>2012-11-04T11:16:36Z</time>
      </trkpt>
      <trkpt lat="45.26411" lon="5.56532">
        <ele>674</ele>
        <time>2012-11-04T11:16:37Z</time>
      </trkpt>
      <trkpt lat="45.26411" lon="5.56535">
        <ele>674</ele>
        <time>2012-11-04T11:16:38Z</time>
      </trkpt>
      <trkpt lat="45.2641" lon="5.56538">
        <ele>674</ele>
        <time>2012-11-04T11:16:39Z</time>
      </trkpt>
      <trkpt lat="45.2641" lon="5.56542">
        <ele>675</ele>
        <time>2012-11-04T11:16:40Z</time>
      </trkpt>
      <trkpt lat="45.26409" lon="5.56546">
        <ele>674</ele>
        <time>2012-11-04T11:16:41Z</time>
      </trkpt>
      <trkpt lat="45.26409" lon="5.56549">
        <ele>674</ele>
        <time>2012-11-04T11:16:42Z</time>
      </trkpt>
      <trkpt lat="45.26409" lon="5.56553">
        <ele>673</ele>
        <time>2012-11-04T11:16:43Z</time>
      </trkpt>
      <trkpt lat="45.2641" lon="5.56557">
        <ele>674</ele>
        <time>2012-11-04T11:16:44Z</time>
      </trkpt>
      <trkpt lat="45.2641" lon="5.5656">
        <ele>676</ele>
        <time>2012-11-04T11:16:45Z</time>
      </trkpt>
      <trkpt lat="45.26411" lon="5.56563">
        <ele>675</ele>
        <time>2012-11-04T11:16:46Z</time>
      </trkpt>
      <trkpt lat="45.26412" lon="5.56566">
        <ele>674</ele>
        <time>2012-11-04T11:16:47Z</time>
      </trkpt>
      <trkpt lat="45.26413" lon="5.56569">
        <ele>675</ele>
        <time>2012-11-04T11:16:48Z</time>
      </trkpt>
      <trkpt lat="45.26414" lon="5.56572">
        <ele>675</ele>
        <time>2012-11-04T11:16:49Z</time>
      </trkpt>
      <trkpt lat="45.26414" lon="5.56575">
        <ele>676</ele>
        <time>2012-11-04T11:16:50Z</time>
      </trkpt>
      <trkpt lat="45.26414" lon="5.56578">
        <ele>676</ele>
        <time>2012-11-04T11:16:51Z</time>
      </trkpt>
      <trkpt lat="45.26415" lon="5.56581">
        <ele>678</ele>
        <time>2012-11-04T11:16:52Z</time>
      </trkpt>
      <trkpt lat="45.26415" lon="5.56584">
        <ele>678</ele>
        <time>2012-11-04T11:16:53Z</time>
      </trkpt>
      <trkpt lat="45.26416" lon="5.56587">
        <ele>679</ele>
        <time>2012-11-04T11:16:54Z</time>
      </trkpt>
      <trkpt lat="45.26416" lon="5.5659">
        <ele>679</ele>
        <time>2012-11-04T11:16:55Z</time>
      </trkpt>
      <trkpt lat="45.26417" lon="5.56593">
        <ele>679</ele>
        <time>2012-11-04T11:16:56Z</time>
      </trkpt>
      <trkpt lat="45.26418" lon="5.56595">
        <ele>680</ele>
        <time>2012-11-04T11:16:57Z</time>
      </trkpt>
      <trkpt lat="45.26419" lon="5.56596">
        <ele>680</ele>
        <time>2012-11-04T11:16:58Z</time>
      </trkpt>
      <trkpt lat="45.26421" lon="5.56597">
        <ele>681</ele>
        <time>2012-11-04T11:16:59Z</time>
      </trkpt>
      <trkpt lat="45.26422" lon="5.56598">
        <ele>681</ele>
        <time>2012-11-04T11:17:00Z</time>
      </trkpt>
      <trkpt lat="45.26424" lon="5.56598">
        <ele>681</ele>
        <time>2012-11-04T11:17:01Z</time>
      </trkpt>
      <trkpt lat="45.26425" lon="5.56599">
        <ele>680</ele>
        <time>2012-11-04T11:17:02Z</time>
      </trkpt>
      <trkpt lat="45.26426" lon="5.56599">
        <ele>680</ele>
        <time>2012-11-04T11:17:03Z</time>
      </trkpt>
      <trkpt lat="45.26428" lon="5.566">
        <ele>680</ele>
        <time>2012-11-04T11:17:04Z</time>
      </trkpt>
      <trkpt lat="45.26429" lon="5.566">
        <ele>678</ele>
        <time>2012-11-04T11:17:05Z</time>
      </trkpt>
      <trkpt lat="45.2643" lon="5.566">
        <ele>679</ele>
        <time>2012-11-04T11:17:06Z</time>
      </trkpt>
      <trkpt lat="45.26431" lon="5.566">
        <ele>678</ele>
        <time>2012-11-04T11:17:07Z</time>
      </trkpt>
      <trkpt lat="45.26433" lon="5.56601">
        <ele>674</ele>
        <time>2012-11-04T11:17:08Z</time>
      </trkpt>
      <trkpt lat="45.26434" lon="5.56601">
        <ele>673</ele>
        <time>2012-11-04T11:17:09Z</time>
      </trkpt>
      <trkpt lat="45.26451" lon="5.56597">
        <ele>674</ele>
        <time>2012-11-04T11:17:16Z</time>
      </trkpt>
      <trkpt lat="45.26453" lon="5.56595">
        <ele>674</ele>
        <time>2012-11-04T11:17:17Z</time>
      </trkpt>
      <trkpt lat="45.26456" lon="5.56594">
        <ele>675</ele>
        <time>2012-11-04T11:17:18Z</time>
      </trkpt>
      <trkpt lat="45.26458" lon="5.56592">
        <ele>674</ele>
        <time>2012-11-04T11:17:19Z</time>
      </trkpt>
      <trkpt lat="45.26459" lon="5.56591">
        <ele>675</ele>
        <time>2012-11-04T11:17:20Z</time>
      </trkpt>
      <trkpt lat="45.26461" lon="5.56591">
        <ele>675</ele>
        <time>2012-11-04T11:17:21Z</time>
      </trkpt>
      <trkpt lat="45.26462" lon="5.5659">
        <ele>675</ele>
        <time>2012-11-04T11:17:22Z</time>
      </trkpt>
      <trkpt lat="45.26463" lon="5.56589">
        <ele>676</ele>
        <time>2012-11-04T11:17:23Z</time>
      </trkpt>
    </trkseg>
  </trk>
</gpx>